<?xml version="1.0" encoding="UTF-8" standalone="no" ?>
<gpx xmlns="http://www.topografix.com/GPX/1/1" xmlns:xsi="http://www.w3.org/2001/XMLSchema-instance" xsi:schemaLocation="http://www.topografix.com/GPX/1/1 http://www.topografix.com/GPX/1/1/gpx.xsd" version="1.1" creator="VisuGPX - https://www.visugpx.com">
  <metadata>
    <name>SE-NE-St Aignan La Chevrolière St Colomban Vieillevigne La Planche Aigrefeuille Maisdon St Fiacre Vertou St Sebastien Pirmil</name>
    <desc><![CDATA[SE-NE-St Aignan La Chevrolière St Colomban Vieillevigne La Planche Aigrefeuille Maisdon St Fiacre Vertou St Sébastien Pirmil]]></desc>
  </metadata>
  <trk>
    <name><![CDATA[2022-11-11 12:21 GMT+1]]></name>
    <trkseg>
      <trkpt lat="47.16783" lon="-1.62654">
        <ele>74</ele>
        <time>2022-11-11T11:21:42Z</time>
      </trkpt>
      <trkpt lat="47.16775" lon="-1.62648">
        <ele>69</ele>
        <time>2022-11-11T11:22:53Z</time>
      </trkpt>
      <trkpt lat="47.16773" lon="-1.62651">
        <ele>70</ele>
        <time>2022-11-11T11:24:54Z</time>
      </trkpt>
      <trkpt lat="47.16779" lon="-1.62662">
        <ele>69</ele>
        <time>2022-11-11T11:25:48Z</time>
      </trkpt>
      <trkpt lat="47.16771" lon="-1.62675">
        <ele>68</ele>
        <time>2022-11-11T11:25:51Z</time>
      </trkpt>
      <trkpt lat="47.1676" lon="-1.62677">
        <ele>68</ele>
        <time>2022-11-11T11:25:53Z</time>
      </trkpt>
      <trkpt lat="47.1675" lon="-1.62672">
        <ele>66</ele>
        <time>2022-11-11T11:25:55Z</time>
      </trkpt>
      <trkpt lat="47.16739" lon="-1.62676">
        <ele>67</ele>
        <time>2022-11-11T11:25:57Z</time>
      </trkpt>
      <trkpt lat="47.16728" lon="-1.62684">
        <ele>67</ele>
        <time>2022-11-11T11:25:59Z</time>
      </trkpt>
      <trkpt lat="47.1672" lon="-1.6269">
        <ele>66</ele>
        <time>2022-11-11T11:26:01Z</time>
      </trkpt>
      <trkpt lat="47.16707" lon="-1.62693">
        <ele>66</ele>
        <time>2022-11-11T11:26:04Z</time>
      </trkpt>
      <trkpt lat="47.16701" lon="-1.62679">
        <ele>66</ele>
        <time>2022-11-11T11:26:06Z</time>
      </trkpt>
      <trkpt lat="47.16696" lon="-1.62661">
        <ele>66</ele>
        <time>2022-11-11T11:26:08Z</time>
      </trkpt>
      <trkpt lat="47.16693" lon="-1.62643">
        <ele>66</ele>
        <time>2022-11-11T11:26:10Z</time>
      </trkpt>
      <trkpt lat="47.16692" lon="-1.62623">
        <ele>66</ele>
        <time>2022-11-11T11:26:12Z</time>
      </trkpt>
      <trkpt lat="47.16692" lon="-1.62602">
        <ele>65</ele>
        <time>2022-11-11T11:26:14Z</time>
      </trkpt>
      <trkpt lat="47.16693" lon="-1.62582">
        <ele>65</ele>
        <time>2022-11-11T11:26:16Z</time>
      </trkpt>
      <trkpt lat="47.16695" lon="-1.62562">
        <ele>64</ele>
        <time>2022-11-11T11:26:18Z</time>
      </trkpt>
      <trkpt lat="47.16697" lon="-1.62542">
        <ele>64</ele>
        <time>2022-11-11T11:26:20Z</time>
      </trkpt>
      <trkpt lat="47.16699" lon="-1.62523">
        <ele>63</ele>
        <time>2022-11-11T11:26:22Z</time>
      </trkpt>
      <trkpt lat="47.16702" lon="-1.62503">
        <ele>63</ele>
        <time>2022-11-11T11:26:24Z</time>
      </trkpt>
      <trkpt lat="47.16706" lon="-1.62485">
        <ele>63</ele>
        <time>2022-11-11T11:26:26Z</time>
      </trkpt>
      <trkpt lat="47.16709" lon="-1.62466">
        <ele>63</ele>
        <time>2022-11-11T11:26:28Z</time>
      </trkpt>
      <trkpt lat="47.16712" lon="-1.62448">
        <ele>63</ele>
        <time>2022-11-11T11:26:30Z</time>
      </trkpt>
      <trkpt lat="47.16714" lon="-1.62431">
        <ele>64</ele>
        <time>2022-11-11T11:26:32Z</time>
      </trkpt>
      <trkpt lat="47.16718" lon="-1.62417">
        <ele>64</ele>
        <time>2022-11-11T11:26:34Z</time>
      </trkpt>
      <trkpt lat="47.16716" lon="-1.624">
        <ele>64</ele>
        <time>2022-11-11T11:26:37Z</time>
      </trkpt>
      <trkpt lat="47.16708" lon="-1.62391">
        <ele>65</ele>
        <time>2022-11-11T11:26:39Z</time>
      </trkpt>
      <trkpt lat="47.167" lon="-1.62378">
        <ele>65</ele>
        <time>2022-11-11T11:26:41Z</time>
      </trkpt>
      <trkpt lat="47.16691" lon="-1.62367">
        <ele>65</ele>
        <time>2022-11-11T11:26:43Z</time>
      </trkpt>
      <trkpt lat="47.16679" lon="-1.62361">
        <ele>65</ele>
        <time>2022-11-11T11:26:45Z</time>
      </trkpt>
      <trkpt lat="47.16667" lon="-1.62361">
        <ele>66</ele>
        <time>2022-11-11T11:26:47Z</time>
      </trkpt>
      <trkpt lat="47.16654" lon="-1.62363">
        <ele>66</ele>
        <time>2022-11-11T11:26:49Z</time>
      </trkpt>
      <trkpt lat="47.16638" lon="-1.62375">
        <ele>65</ele>
        <time>2022-11-11T11:26:52Z</time>
      </trkpt>
      <trkpt lat="47.16628" lon="-1.62385">
        <ele>65</ele>
        <time>2022-11-11T11:26:54Z</time>
      </trkpt>
      <trkpt lat="47.16619" lon="-1.62398">
        <ele>65</ele>
        <time>2022-11-11T11:26:56Z</time>
      </trkpt>
      <trkpt lat="47.16611" lon="-1.62412">
        <ele>65</ele>
        <time>2022-11-11T11:26:58Z</time>
      </trkpt>
      <trkpt lat="47.16603" lon="-1.62427">
        <ele>65</ele>
        <time>2022-11-11T11:27:00Z</time>
      </trkpt>
      <trkpt lat="47.16596" lon="-1.62443">
        <ele>65</ele>
        <time>2022-11-11T11:27:02Z</time>
      </trkpt>
      <trkpt lat="47.1659" lon="-1.62458">
        <ele>66</ele>
        <time>2022-11-11T11:27:04Z</time>
      </trkpt>
      <trkpt lat="47.16583" lon="-1.62474">
        <ele>66</ele>
        <time>2022-11-11T11:27:06Z</time>
      </trkpt>
      <trkpt lat="47.16576" lon="-1.6249">
        <ele>66</ele>
        <time>2022-11-11T11:27:08Z</time>
      </trkpt>
      <trkpt lat="47.1657" lon="-1.62505">
        <ele>67</ele>
        <time>2022-11-11T11:27:10Z</time>
      </trkpt>
      <trkpt lat="47.16564" lon="-1.6252">
        <ele>67</ele>
        <time>2022-11-11T11:27:12Z</time>
      </trkpt>
      <trkpt lat="47.16557" lon="-1.62534">
        <ele>67</ele>
        <time>2022-11-11T11:27:14Z</time>
      </trkpt>
      <trkpt lat="47.16548" lon="-1.62546">
        <ele>67</ele>
        <time>2022-11-11T11:27:16Z</time>
      </trkpt>
      <trkpt lat="47.16534" lon="-1.62561">
        <ele>68</ele>
        <time>2022-11-11T11:27:19Z</time>
      </trkpt>
      <trkpt lat="47.16522" lon="-1.62566">
        <ele>68</ele>
        <time>2022-11-11T11:27:21Z</time>
      </trkpt>
      <trkpt lat="47.16511" lon="-1.62565">
        <ele>69</ele>
        <time>2022-11-11T11:27:23Z</time>
      </trkpt>
      <trkpt lat="47.16499" lon="-1.6256">
        <ele>69</ele>
        <time>2022-11-11T11:27:25Z</time>
      </trkpt>
      <trkpt lat="47.16488" lon="-1.62556">
        <ele>70</ele>
        <time>2022-11-11T11:27:27Z</time>
      </trkpt>
      <trkpt lat="47.16476" lon="-1.62552">
        <ele>70</ele>
        <time>2022-11-11T11:27:29Z</time>
      </trkpt>
      <trkpt lat="47.16459" lon="-1.62546">
        <ele>70</ele>
        <time>2022-11-11T11:27:32Z</time>
      </trkpt>
      <trkpt lat="47.16448" lon="-1.62542">
        <ele>70</ele>
        <time>2022-11-11T11:27:34Z</time>
      </trkpt>
      <trkpt lat="47.1643" lon="-1.62541">
        <ele>70</ele>
        <time>2022-11-11T11:27:37Z</time>
      </trkpt>
      <trkpt lat="47.16419" lon="-1.6255">
        <ele>70</ele>
        <time>2022-11-11T11:27:39Z</time>
      </trkpt>
      <trkpt lat="47.16408" lon="-1.62561">
        <ele>70</ele>
        <time>2022-11-11T11:27:41Z</time>
      </trkpt>
      <trkpt lat="47.16398" lon="-1.62571">
        <ele>70</ele>
        <time>2022-11-11T11:27:43Z</time>
      </trkpt>
      <trkpt lat="47.16386" lon="-1.62579">
        <ele>70</ele>
        <time>2022-11-11T11:27:45Z</time>
      </trkpt>
      <trkpt lat="47.16374" lon="-1.62583">
        <ele>70</ele>
        <time>2022-11-11T11:27:47Z</time>
      </trkpt>
      <trkpt lat="47.16361" lon="-1.62583">
        <ele>69</ele>
        <time>2022-11-11T11:27:49Z</time>
      </trkpt>
      <trkpt lat="47.16348" lon="-1.62581">
        <ele>70</ele>
        <time>2022-11-11T11:27:51Z</time>
      </trkpt>
      <trkpt lat="47.16335" lon="-1.62577">
        <ele>70</ele>
        <time>2022-11-11T11:27:53Z</time>
      </trkpt>
      <trkpt lat="47.16323" lon="-1.62573">
        <ele>70</ele>
        <time>2022-11-11T11:27:55Z</time>
      </trkpt>
      <trkpt lat="47.1631" lon="-1.62571">
        <ele>70</ele>
        <time>2022-11-11T11:27:57Z</time>
      </trkpt>
      <trkpt lat="47.16298" lon="-1.62577">
        <ele>70</ele>
        <time>2022-11-11T11:27:59Z</time>
      </trkpt>
      <trkpt lat="47.16288" lon="-1.62588">
        <ele>70</ele>
        <time>2022-11-11T11:28:01Z</time>
      </trkpt>
      <trkpt lat="47.16283" lon="-1.62603">
        <ele>70</ele>
        <time>2022-11-11T11:28:03Z</time>
      </trkpt>
      <trkpt lat="47.16279" lon="-1.62621">
        <ele>69</ele>
        <time>2022-11-11T11:28:05Z</time>
      </trkpt>
      <trkpt lat="47.16276" lon="-1.62638">
        <ele>69</ele>
        <time>2022-11-11T11:28:07Z</time>
      </trkpt>
      <trkpt lat="47.16274" lon="-1.62655">
        <ele>69</ele>
        <time>2022-11-11T11:28:09Z</time>
      </trkpt>
      <trkpt lat="47.16274" lon="-1.62672">
        <ele>68</ele>
        <time>2022-11-11T11:28:11Z</time>
      </trkpt>
      <trkpt lat="47.16274" lon="-1.62687">
        <ele>68</ele>
        <time>2022-11-11T11:28:13Z</time>
      </trkpt>
      <trkpt lat="47.16275" lon="-1.62704">
        <ele>69</ele>
        <time>2022-11-11T11:28:16Z</time>
      </trkpt>
      <trkpt lat="47.16278" lon="-1.62724">
        <ele>69</ele>
        <time>2022-11-11T11:28:19Z</time>
      </trkpt>
      <trkpt lat="47.16269" lon="-1.62734">
        <ele>69</ele>
        <time>2022-11-11T11:28:22Z</time>
      </trkpt>
      <trkpt lat="47.16259" lon="-1.62736">
        <ele>69</ele>
        <time>2022-11-11T11:28:24Z</time>
      </trkpt>
      <trkpt lat="47.16247" lon="-1.62743">
        <ele>68</ele>
        <time>2022-11-11T11:28:26Z</time>
      </trkpt>
      <trkpt lat="47.16235" lon="-1.6275">
        <ele>68</ele>
        <time>2022-11-11T11:28:28Z</time>
      </trkpt>
      <trkpt lat="47.16221" lon="-1.62757">
        <ele>67</ele>
        <time>2022-11-11T11:28:30Z</time>
      </trkpt>
      <trkpt lat="47.16207" lon="-1.62765">
        <ele>67</ele>
        <time>2022-11-11T11:28:32Z</time>
      </trkpt>
      <trkpt lat="47.16193" lon="-1.62776">
        <ele>66</ele>
        <time>2022-11-11T11:28:34Z</time>
      </trkpt>
      <trkpt lat="47.16178" lon="-1.62789">
        <ele>66</ele>
        <time>2022-11-11T11:28:36Z</time>
      </trkpt>
      <trkpt lat="47.16164" lon="-1.62801">
        <ele>65</ele>
        <time>2022-11-11T11:28:38Z</time>
      </trkpt>
      <trkpt lat="47.1615" lon="-1.62813">
        <ele>64</ele>
        <time>2022-11-11T11:28:40Z</time>
      </trkpt>
      <trkpt lat="47.16136" lon="-1.62826">
        <ele>63</ele>
        <time>2022-11-11T11:28:42Z</time>
      </trkpt>
      <trkpt lat="47.16122" lon="-1.62838">
        <ele>63</ele>
        <time>2022-11-11T11:28:44Z</time>
      </trkpt>
      <trkpt lat="47.16108" lon="-1.62851">
        <ele>63</ele>
        <time>2022-11-11T11:28:46Z</time>
      </trkpt>
      <trkpt lat="47.16095" lon="-1.62863">
        <ele>62</ele>
        <time>2022-11-11T11:28:48Z</time>
      </trkpt>
      <trkpt lat="47.16081" lon="-1.62875">
        <ele>62</ele>
        <time>2022-11-11T11:28:50Z</time>
      </trkpt>
      <trkpt lat="47.16068" lon="-1.62887">
        <ele>62</ele>
        <time>2022-11-11T11:28:52Z</time>
      </trkpt>
      <trkpt lat="47.16053" lon="-1.62899">
        <ele>61</ele>
        <time>2022-11-11T11:28:54Z</time>
      </trkpt>
      <trkpt lat="47.16039" lon="-1.62911">
        <ele>61</ele>
        <time>2022-11-11T11:28:56Z</time>
      </trkpt>
      <trkpt lat="47.16025" lon="-1.62924">
        <ele>61</ele>
        <time>2022-11-11T11:28:58Z</time>
      </trkpt>
      <trkpt lat="47.1601" lon="-1.62937">
        <ele>60</ele>
        <time>2022-11-11T11:29:00Z</time>
      </trkpt>
      <trkpt lat="47.15996" lon="-1.6295">
        <ele>60</ele>
        <time>2022-11-11T11:29:02Z</time>
      </trkpt>
      <trkpt lat="47.15981" lon="-1.62963">
        <ele>58</ele>
        <time>2022-11-11T11:29:04Z</time>
      </trkpt>
      <trkpt lat="47.15966" lon="-1.62975">
        <ele>58</ele>
        <time>2022-11-11T11:29:06Z</time>
      </trkpt>
      <trkpt lat="47.15951" lon="-1.62988">
        <ele>57</ele>
        <time>2022-11-11T11:29:08Z</time>
      </trkpt>
      <trkpt lat="47.15936" lon="-1.63001">
        <ele>57</ele>
        <time>2022-11-11T11:29:10Z</time>
      </trkpt>
      <trkpt lat="47.15921" lon="-1.63015">
        <ele>56</ele>
        <time>2022-11-11T11:29:12Z</time>
      </trkpt>
      <trkpt lat="47.15906" lon="-1.63029">
        <ele>56</ele>
        <time>2022-11-11T11:29:14Z</time>
      </trkpt>
      <trkpt lat="47.15892" lon="-1.63042">
        <ele>56</ele>
        <time>2022-11-11T11:29:16Z</time>
      </trkpt>
      <trkpt lat="47.15877" lon="-1.63054">
        <ele>57</ele>
        <time>2022-11-11T11:29:18Z</time>
      </trkpt>
      <trkpt lat="47.15864" lon="-1.63066">
        <ele>57</ele>
        <time>2022-11-11T11:29:20Z</time>
      </trkpt>
      <trkpt lat="47.15851" lon="-1.63078">
        <ele>57</ele>
        <time>2022-11-11T11:29:22Z</time>
      </trkpt>
      <trkpt lat="47.15839" lon="-1.63088">
        <ele>58</ele>
        <time>2022-11-11T11:29:24Z</time>
      </trkpt>
      <trkpt lat="47.15827" lon="-1.63099">
        <ele>58</ele>
        <time>2022-11-11T11:29:26Z</time>
      </trkpt>
      <trkpt lat="47.15815" lon="-1.63109">
        <ele>58</ele>
        <time>2022-11-11T11:29:28Z</time>
      </trkpt>
      <trkpt lat="47.15804" lon="-1.63119">
        <ele>59</ele>
        <time>2022-11-11T11:29:30Z</time>
      </trkpt>
      <trkpt lat="47.15792" lon="-1.63129">
        <ele>59</ele>
        <time>2022-11-11T11:29:32Z</time>
      </trkpt>
      <trkpt lat="47.15781" lon="-1.63139">
        <ele>60</ele>
        <time>2022-11-11T11:29:34Z</time>
      </trkpt>
      <trkpt lat="47.1577" lon="-1.6315">
        <ele>60</ele>
        <time>2022-11-11T11:29:36Z</time>
      </trkpt>
      <trkpt lat="47.15758" lon="-1.6316">
        <ele>60</ele>
        <time>2022-11-11T11:29:38Z</time>
      </trkpt>
      <trkpt lat="47.15745" lon="-1.63171">
        <ele>60</ele>
        <time>2022-11-11T11:29:40Z</time>
      </trkpt>
      <trkpt lat="47.15732" lon="-1.63181">
        <ele>60</ele>
        <time>2022-11-11T11:29:42Z</time>
      </trkpt>
      <trkpt lat="47.1572" lon="-1.63192">
        <ele>60</ele>
        <time>2022-11-11T11:29:44Z</time>
      </trkpt>
      <trkpt lat="47.15708" lon="-1.63203">
        <ele>60</ele>
        <time>2022-11-11T11:29:46Z</time>
      </trkpt>
      <trkpt lat="47.15696" lon="-1.63215">
        <ele>61</ele>
        <time>2022-11-11T11:29:48Z</time>
      </trkpt>
      <trkpt lat="47.15683" lon="-1.63226">
        <ele>61</ele>
        <time>2022-11-11T11:29:50Z</time>
      </trkpt>
      <trkpt lat="47.15671" lon="-1.63237">
        <ele>61</ele>
        <time>2022-11-11T11:29:52Z</time>
      </trkpt>
      <trkpt lat="47.15658" lon="-1.63247">
        <ele>61</ele>
        <time>2022-11-11T11:29:54Z</time>
      </trkpt>
      <trkpt lat="47.15645" lon="-1.63258">
        <ele>61</ele>
        <time>2022-11-11T11:29:56Z</time>
      </trkpt>
      <trkpt lat="47.15633" lon="-1.63269">
        <ele>60</ele>
        <time>2022-11-11T11:29:58Z</time>
      </trkpt>
      <trkpt lat="47.1562" lon="-1.63281">
        <ele>60</ele>
        <time>2022-11-11T11:30:00Z</time>
      </trkpt>
      <trkpt lat="47.15607" lon="-1.63293">
        <ele>61</ele>
        <time>2022-11-11T11:30:02Z</time>
      </trkpt>
      <trkpt lat="47.15594" lon="-1.63304">
        <ele>61</ele>
        <time>2022-11-11T11:30:04Z</time>
      </trkpt>
      <trkpt lat="47.15582" lon="-1.63315">
        <ele>62</ele>
        <time>2022-11-11T11:30:06Z</time>
      </trkpt>
      <trkpt lat="47.1557" lon="-1.63325">
        <ele>63</ele>
        <time>2022-11-11T11:30:08Z</time>
      </trkpt>
      <trkpt lat="47.15559" lon="-1.63335">
        <ele>63</ele>
        <time>2022-11-11T11:30:10Z</time>
      </trkpt>
      <trkpt lat="47.15547" lon="-1.63345">
        <ele>63</ele>
        <time>2022-11-11T11:30:12Z</time>
      </trkpt>
      <trkpt lat="47.15536" lon="-1.63356">
        <ele>64</ele>
        <time>2022-11-11T11:30:14Z</time>
      </trkpt>
      <trkpt lat="47.15525" lon="-1.63366">
        <ele>64</ele>
        <time>2022-11-11T11:30:16Z</time>
      </trkpt>
      <trkpt lat="47.15514" lon="-1.63376">
        <ele>64</ele>
        <time>2022-11-11T11:30:18Z</time>
      </trkpt>
      <trkpt lat="47.15503" lon="-1.63387">
        <ele>65</ele>
        <time>2022-11-11T11:30:20Z</time>
      </trkpt>
      <trkpt lat="47.15492" lon="-1.63397">
        <ele>65</ele>
        <time>2022-11-11T11:30:22Z</time>
      </trkpt>
      <trkpt lat="47.15481" lon="-1.63407">
        <ele>65</ele>
        <time>2022-11-11T11:30:24Z</time>
      </trkpt>
      <trkpt lat="47.1547" lon="-1.63418">
        <ele>65</ele>
        <time>2022-11-11T11:30:26Z</time>
      </trkpt>
      <trkpt lat="47.15459" lon="-1.63428">
        <ele>66</ele>
        <time>2022-11-11T11:30:28Z</time>
      </trkpt>
      <trkpt lat="47.15448" lon="-1.63439">
        <ele>66</ele>
        <time>2022-11-11T11:30:30Z</time>
      </trkpt>
      <trkpt lat="47.15436" lon="-1.63449">
        <ele>66</ele>
        <time>2022-11-11T11:30:32Z</time>
      </trkpt>
      <trkpt lat="47.15425" lon="-1.63458">
        <ele>66</ele>
        <time>2022-11-11T11:30:34Z</time>
      </trkpt>
      <trkpt lat="47.15414" lon="-1.63468">
        <ele>66</ele>
        <time>2022-11-11T11:30:36Z</time>
      </trkpt>
      <trkpt lat="47.15404" lon="-1.63478">
        <ele>66</ele>
        <time>2022-11-11T11:30:38Z</time>
      </trkpt>
      <trkpt lat="47.15397" lon="-1.63492">
        <ele>66</ele>
        <time>2022-11-11T11:30:40Z</time>
      </trkpt>
      <trkpt lat="47.15388" lon="-1.63504">
        <ele>67</ele>
        <time>2022-11-11T11:30:42Z</time>
      </trkpt>
      <trkpt lat="47.15377" lon="-1.63512">
        <ele>67</ele>
        <time>2022-11-11T11:30:44Z</time>
      </trkpt>
      <trkpt lat="47.15365" lon="-1.63514">
        <ele>67</ele>
        <time>2022-11-11T11:30:46Z</time>
      </trkpt>
      <trkpt lat="47.15354" lon="-1.63525">
        <ele>67</ele>
        <time>2022-11-11T11:30:48Z</time>
      </trkpt>
      <trkpt lat="47.15343" lon="-1.63536">
        <ele>67</ele>
        <time>2022-11-11T11:30:50Z</time>
      </trkpt>
      <trkpt lat="47.15333" lon="-1.63546">
        <ele>68</ele>
        <time>2022-11-11T11:30:52Z</time>
      </trkpt>
      <trkpt lat="47.15321" lon="-1.63555">
        <ele>67</ele>
        <time>2022-11-11T11:30:54Z</time>
      </trkpt>
      <trkpt lat="47.1531" lon="-1.63562">
        <ele>68</ele>
        <time>2022-11-11T11:30:56Z</time>
      </trkpt>
      <trkpt lat="47.15299" lon="-1.63571">
        <ele>67</ele>
        <time>2022-11-11T11:30:58Z</time>
      </trkpt>
      <trkpt lat="47.15287" lon="-1.63581">
        <ele>68</ele>
        <time>2022-11-11T11:31:00Z</time>
      </trkpt>
      <trkpt lat="47.15275" lon="-1.63592">
        <ele>67</ele>
        <time>2022-11-11T11:31:02Z</time>
      </trkpt>
      <trkpt lat="47.15262" lon="-1.63602">
        <ele>67</ele>
        <time>2022-11-11T11:31:04Z</time>
      </trkpt>
      <trkpt lat="47.15251" lon="-1.63612">
        <ele>67</ele>
        <time>2022-11-11T11:31:06Z</time>
      </trkpt>
      <trkpt lat="47.15239" lon="-1.63623">
        <ele>67</ele>
        <time>2022-11-11T11:31:08Z</time>
      </trkpt>
      <trkpt lat="47.15226" lon="-1.63633">
        <ele>67</ele>
        <time>2022-11-11T11:31:10Z</time>
      </trkpt>
      <trkpt lat="47.15214" lon="-1.63643">
        <ele>67</ele>
        <time>2022-11-11T11:31:12Z</time>
      </trkpt>
      <trkpt lat="47.15202" lon="-1.63654">
        <ele>67</ele>
        <time>2022-11-11T11:31:14Z</time>
      </trkpt>
      <trkpt lat="47.15189" lon="-1.63664">
        <ele>67</ele>
        <time>2022-11-11T11:31:16Z</time>
      </trkpt>
      <trkpt lat="47.15176" lon="-1.63675">
        <ele>66</ele>
        <time>2022-11-11T11:31:18Z</time>
      </trkpt>
      <trkpt lat="47.15164" lon="-1.63687">
        <ele>66</ele>
        <time>2022-11-11T11:31:20Z</time>
      </trkpt>
      <trkpt lat="47.15151" lon="-1.63698">
        <ele>67</ele>
        <time>2022-11-11T11:31:22Z</time>
      </trkpt>
      <trkpt lat="47.15139" lon="-1.6371">
        <ele>66</ele>
        <time>2022-11-11T11:31:24Z</time>
      </trkpt>
      <trkpt lat="47.15127" lon="-1.63722">
        <ele>67</ele>
        <time>2022-11-11T11:31:26Z</time>
      </trkpt>
      <trkpt lat="47.15115" lon="-1.63734">
        <ele>67</ele>
        <time>2022-11-11T11:31:28Z</time>
      </trkpt>
      <trkpt lat="47.15103" lon="-1.63747">
        <ele>67</ele>
        <time>2022-11-11T11:31:30Z</time>
      </trkpt>
      <trkpt lat="47.15092" lon="-1.63759">
        <ele>67</ele>
        <time>2022-11-11T11:31:32Z</time>
      </trkpt>
      <trkpt lat="47.15081" lon="-1.63772">
        <ele>67</ele>
        <time>2022-11-11T11:31:34Z</time>
      </trkpt>
      <trkpt lat="47.1507" lon="-1.63785">
        <ele>67</ele>
        <time>2022-11-11T11:31:36Z</time>
      </trkpt>
      <trkpt lat="47.15059" lon="-1.63799">
        <ele>67</ele>
        <time>2022-11-11T11:31:38Z</time>
      </trkpt>
      <trkpt lat="47.15049" lon="-1.63812">
        <ele>67</ele>
        <time>2022-11-11T11:31:40Z</time>
      </trkpt>
      <trkpt lat="47.15038" lon="-1.63826">
        <ele>67</ele>
        <time>2022-11-11T11:31:42Z</time>
      </trkpt>
      <trkpt lat="47.15028" lon="-1.6384">
        <ele>67</ele>
        <time>2022-11-11T11:31:44Z</time>
      </trkpt>
      <trkpt lat="47.15017" lon="-1.63855">
        <ele>67</ele>
        <time>2022-11-11T11:31:46Z</time>
      </trkpt>
      <trkpt lat="47.15007" lon="-1.6387">
        <ele>67</ele>
        <time>2022-11-11T11:31:48Z</time>
      </trkpt>
      <trkpt lat="47.14997" lon="-1.63884">
        <ele>67</ele>
        <time>2022-11-11T11:31:50Z</time>
      </trkpt>
      <trkpt lat="47.14987" lon="-1.63899">
        <ele>67</ele>
        <time>2022-11-11T11:31:52Z</time>
      </trkpt>
      <trkpt lat="47.14978" lon="-1.63915">
        <ele>68</ele>
        <time>2022-11-11T11:31:54Z</time>
      </trkpt>
      <trkpt lat="47.14969" lon="-1.6393">
        <ele>68</ele>
        <time>2022-11-11T11:31:56Z</time>
      </trkpt>
      <trkpt lat="47.14959" lon="-1.63944">
        <ele>68</ele>
        <time>2022-11-11T11:31:58Z</time>
      </trkpt>
      <trkpt lat="47.1495" lon="-1.6396">
        <ele>68</ele>
        <time>2022-11-11T11:32:00Z</time>
      </trkpt>
      <trkpt lat="47.14942" lon="-1.63976">
        <ele>68</ele>
        <time>2022-11-11T11:32:02Z</time>
      </trkpt>
      <trkpt lat="47.14933" lon="-1.63992">
        <ele>68</ele>
        <time>2022-11-11T11:32:04Z</time>
      </trkpt>
      <trkpt lat="47.14924" lon="-1.64005">
        <ele>68</ele>
        <time>2022-11-11T11:32:06Z</time>
      </trkpt>
      <trkpt lat="47.14914" lon="-1.64019">
        <ele>68</ele>
        <time>2022-11-11T11:32:08Z</time>
      </trkpt>
      <trkpt lat="47.14904" lon="-1.64032">
        <ele>68</ele>
        <time>2022-11-11T11:32:10Z</time>
      </trkpt>
      <trkpt lat="47.14892" lon="-1.64041">
        <ele>68</ele>
        <time>2022-11-11T11:32:12Z</time>
      </trkpt>
      <trkpt lat="47.1488" lon="-1.64033">
        <ele>68</ele>
        <time>2022-11-11T11:32:14Z</time>
      </trkpt>
      <trkpt lat="47.1487" lon="-1.64017">
        <ele>68</ele>
        <time>2022-11-11T11:32:16Z</time>
      </trkpt>
      <trkpt lat="47.14862" lon="-1.64001">
        <ele>68</ele>
        <time>2022-11-11T11:32:18Z</time>
      </trkpt>
      <trkpt lat="47.14851" lon="-1.6399">
        <ele>68</ele>
        <time>2022-11-11T11:32:20Z</time>
      </trkpt>
      <trkpt lat="47.14838" lon="-1.63985">
        <ele>68</ele>
        <time>2022-11-11T11:32:22Z</time>
      </trkpt>
      <trkpt lat="47.14825" lon="-1.63988">
        <ele>68</ele>
        <time>2022-11-11T11:32:24Z</time>
      </trkpt>
      <trkpt lat="47.14812" lon="-1.63998">
        <ele>68</ele>
        <time>2022-11-11T11:32:26Z</time>
      </trkpt>
      <trkpt lat="47.14801" lon="-1.6401">
        <ele>69</ele>
        <time>2022-11-11T11:32:28Z</time>
      </trkpt>
      <trkpt lat="47.14789" lon="-1.64021">
        <ele>68</ele>
        <time>2022-11-11T11:32:30Z</time>
      </trkpt>
      <trkpt lat="47.14777" lon="-1.64032">
        <ele>68</ele>
        <time>2022-11-11T11:32:32Z</time>
      </trkpt>
      <trkpt lat="47.14765" lon="-1.64042">
        <ele>67</ele>
        <time>2022-11-11T11:32:34Z</time>
      </trkpt>
      <trkpt lat="47.14753" lon="-1.64049">
        <ele>67</ele>
        <time>2022-11-11T11:32:36Z</time>
      </trkpt>
      <trkpt lat="47.14738" lon="-1.64056">
        <ele>67</ele>
        <time>2022-11-11T11:32:38Z</time>
      </trkpt>
      <trkpt lat="47.14724" lon="-1.64062">
        <ele>67</ele>
        <time>2022-11-11T11:32:40Z</time>
      </trkpt>
      <trkpt lat="47.14709" lon="-1.64067">
        <ele>68</ele>
        <time>2022-11-11T11:32:42Z</time>
      </trkpt>
      <trkpt lat="47.14696" lon="-1.64073">
        <ele>68</ele>
        <time>2022-11-11T11:32:44Z</time>
      </trkpt>
      <trkpt lat="47.14683" lon="-1.64077">
        <ele>68</ele>
        <time>2022-11-11T11:32:46Z</time>
      </trkpt>
      <trkpt lat="47.14671" lon="-1.64083">
        <ele>68</ele>
        <time>2022-11-11T11:32:48Z</time>
      </trkpt>
      <trkpt lat="47.14658" lon="-1.64089">
        <ele>67</ele>
        <time>2022-11-11T11:32:50Z</time>
      </trkpt>
      <trkpt lat="47.14644" lon="-1.64097">
        <ele>67</ele>
        <time>2022-11-11T11:32:52Z</time>
      </trkpt>
      <trkpt lat="47.1463" lon="-1.64104">
        <ele>67</ele>
        <time>2022-11-11T11:32:54Z</time>
      </trkpt>
      <trkpt lat="47.14616" lon="-1.64111">
        <ele>68</ele>
        <time>2022-11-11T11:32:56Z</time>
      </trkpt>
      <trkpt lat="47.14603" lon="-1.64118">
        <ele>68</ele>
        <time>2022-11-11T11:32:58Z</time>
      </trkpt>
      <trkpt lat="47.14588" lon="-1.64125">
        <ele>67</ele>
        <time>2022-11-11T11:33:00Z</time>
      </trkpt>
      <trkpt lat="47.14573" lon="-1.64135">
        <ele>67</ele>
        <time>2022-11-11T11:33:02Z</time>
      </trkpt>
      <trkpt lat="47.14558" lon="-1.64144">
        <ele>67</ele>
        <time>2022-11-11T11:33:04Z</time>
      </trkpt>
      <trkpt lat="47.14544" lon="-1.64153">
        <ele>67</ele>
        <time>2022-11-11T11:33:06Z</time>
      </trkpt>
      <trkpt lat="47.1453" lon="-1.64162">
        <ele>67</ele>
        <time>2022-11-11T11:33:08Z</time>
      </trkpt>
      <trkpt lat="47.14516" lon="-1.64171">
        <ele>67</ele>
        <time>2022-11-11T11:33:10Z</time>
      </trkpt>
      <trkpt lat="47.14501" lon="-1.6418">
        <ele>67</ele>
        <time>2022-11-11T11:33:12Z</time>
      </trkpt>
      <trkpt lat="47.14487" lon="-1.64189">
        <ele>66</ele>
        <time>2022-11-11T11:33:14Z</time>
      </trkpt>
      <trkpt lat="47.14472" lon="-1.64198">
        <ele>66</ele>
        <time>2022-11-11T11:33:16Z</time>
      </trkpt>
      <trkpt lat="47.14456" lon="-1.64206">
        <ele>65</ele>
        <time>2022-11-11T11:33:18Z</time>
      </trkpt>
      <trkpt lat="47.1444" lon="-1.64212">
        <ele>65</ele>
        <time>2022-11-11T11:33:20Z</time>
      </trkpt>
      <trkpt lat="47.14423" lon="-1.64217">
        <ele>66</ele>
        <time>2022-11-11T11:33:22Z</time>
      </trkpt>
      <trkpt lat="47.14407" lon="-1.64221">
        <ele>66</ele>
        <time>2022-11-11T11:33:24Z</time>
      </trkpt>
      <trkpt lat="47.14391" lon="-1.64223">
        <ele>66</ele>
        <time>2022-11-11T11:33:26Z</time>
      </trkpt>
      <trkpt lat="47.14376" lon="-1.64225">
        <ele>66</ele>
        <time>2022-11-11T11:33:28Z</time>
      </trkpt>
      <trkpt lat="47.14361" lon="-1.64226">
        <ele>66</ele>
        <time>2022-11-11T11:33:30Z</time>
      </trkpt>
      <trkpt lat="47.14346" lon="-1.64228">
        <ele>65</ele>
        <time>2022-11-11T11:33:32Z</time>
      </trkpt>
      <trkpt lat="47.14332" lon="-1.6423">
        <ele>65</ele>
        <time>2022-11-11T11:33:34Z</time>
      </trkpt>
      <trkpt lat="47.14317" lon="-1.64232">
        <ele>65</ele>
        <time>2022-11-11T11:33:36Z</time>
      </trkpt>
      <trkpt lat="47.14303" lon="-1.64235">
        <ele>65</ele>
        <time>2022-11-11T11:33:38Z</time>
      </trkpt>
      <trkpt lat="47.14287" lon="-1.6424">
        <ele>65</ele>
        <time>2022-11-11T11:33:40Z</time>
      </trkpt>
      <trkpt lat="47.14271" lon="-1.64247">
        <ele>64</ele>
        <time>2022-11-11T11:33:42Z</time>
      </trkpt>
      <trkpt lat="47.14257" lon="-1.64257">
        <ele>64</ele>
        <time>2022-11-11T11:33:44Z</time>
      </trkpt>
      <trkpt lat="47.14243" lon="-1.64269">
        <ele>63</ele>
        <time>2022-11-11T11:33:46Z</time>
      </trkpt>
      <trkpt lat="47.14229" lon="-1.64281">
        <ele>62</ele>
        <time>2022-11-11T11:33:48Z</time>
      </trkpt>
      <trkpt lat="47.14216" lon="-1.64293">
        <ele>62</ele>
        <time>2022-11-11T11:33:50Z</time>
      </trkpt>
      <trkpt lat="47.14204" lon="-1.64306">
        <ele>61</ele>
        <time>2022-11-11T11:33:52Z</time>
      </trkpt>
      <trkpt lat="47.14192" lon="-1.6432">
        <ele>59</ele>
        <time>2022-11-11T11:33:54Z</time>
      </trkpt>
      <trkpt lat="47.1418" lon="-1.64334">
        <ele>59</ele>
        <time>2022-11-11T11:33:56Z</time>
      </trkpt>
      <trkpt lat="47.14168" lon="-1.64349">
        <ele>59</ele>
        <time>2022-11-11T11:33:58Z</time>
      </trkpt>
      <trkpt lat="47.14154" lon="-1.64362">
        <ele>58</ele>
        <time>2022-11-11T11:34:00Z</time>
      </trkpt>
      <trkpt lat="47.1414" lon="-1.64373">
        <ele>59</ele>
        <time>2022-11-11T11:34:02Z</time>
      </trkpt>
      <trkpt lat="47.14126" lon="-1.64382">
        <ele>58</ele>
        <time>2022-11-11T11:34:04Z</time>
      </trkpt>
      <trkpt lat="47.14112" lon="-1.64393">
        <ele>58</ele>
        <time>2022-11-11T11:34:06Z</time>
      </trkpt>
      <trkpt lat="47.14098" lon="-1.64403">
        <ele>57</ele>
        <time>2022-11-11T11:34:08Z</time>
      </trkpt>
      <trkpt lat="47.14085" lon="-1.64415">
        <ele>57</ele>
        <time>2022-11-11T11:34:10Z</time>
      </trkpt>
      <trkpt lat="47.14073" lon="-1.64425">
        <ele>57</ele>
        <time>2022-11-11T11:34:12Z</time>
      </trkpt>
      <trkpt lat="47.14059" lon="-1.64435">
        <ele>57</ele>
        <time>2022-11-11T11:34:14Z</time>
      </trkpt>
      <trkpt lat="47.14046" lon="-1.64446">
        <ele>57</ele>
        <time>2022-11-11T11:34:16Z</time>
      </trkpt>
      <trkpt lat="47.14033" lon="-1.64457">
        <ele>57</ele>
        <time>2022-11-11T11:34:18Z</time>
      </trkpt>
      <trkpt lat="47.1402" lon="-1.64468">
        <ele>57</ele>
        <time>2022-11-11T11:34:20Z</time>
      </trkpt>
      <trkpt lat="47.14007" lon="-1.64479">
        <ele>57</ele>
        <time>2022-11-11T11:34:22Z</time>
      </trkpt>
      <trkpt lat="47.13994" lon="-1.64489">
        <ele>57</ele>
        <time>2022-11-11T11:34:24Z</time>
      </trkpt>
      <trkpt lat="47.1398" lon="-1.64501">
        <ele>57</ele>
        <time>2022-11-11T11:34:26Z</time>
      </trkpt>
      <trkpt lat="47.13967" lon="-1.64513">
        <ele>57</ele>
        <time>2022-11-11T11:34:28Z</time>
      </trkpt>
      <trkpt lat="47.13954" lon="-1.64527">
        <ele>57</ele>
        <time>2022-11-11T11:34:30Z</time>
      </trkpt>
      <trkpt lat="47.13941" lon="-1.64539">
        <ele>56</ele>
        <time>2022-11-11T11:34:32Z</time>
      </trkpt>
      <trkpt lat="47.13928" lon="-1.64552">
        <ele>56</ele>
        <time>2022-11-11T11:34:34Z</time>
      </trkpt>
      <trkpt lat="47.13917" lon="-1.64563">
        <ele>56</ele>
        <time>2022-11-11T11:34:36Z</time>
      </trkpt>
      <trkpt lat="47.13905" lon="-1.64575">
        <ele>57</ele>
        <time>2022-11-11T11:34:38Z</time>
      </trkpt>
      <trkpt lat="47.13892" lon="-1.64584">
        <ele>57</ele>
        <time>2022-11-11T11:34:40Z</time>
      </trkpt>
      <trkpt lat="47.13878" lon="-1.64591">
        <ele>57</ele>
        <time>2022-11-11T11:34:42Z</time>
      </trkpt>
      <trkpt lat="47.13863" lon="-1.64596">
        <ele>57</ele>
        <time>2022-11-11T11:34:44Z</time>
      </trkpt>
      <trkpt lat="47.13848" lon="-1.64599">
        <ele>57</ele>
        <time>2022-11-11T11:34:46Z</time>
      </trkpt>
      <trkpt lat="47.13834" lon="-1.64601">
        <ele>57</ele>
        <time>2022-11-11T11:34:48Z</time>
      </trkpt>
      <trkpt lat="47.1382" lon="-1.64602">
        <ele>57</ele>
        <time>2022-11-11T11:34:50Z</time>
      </trkpt>
      <trkpt lat="47.13806" lon="-1.64601">
        <ele>58</ele>
        <time>2022-11-11T11:34:52Z</time>
      </trkpt>
      <trkpt lat="47.13793" lon="-1.64601">
        <ele>59</ele>
        <time>2022-11-11T11:34:54Z</time>
      </trkpt>
      <trkpt lat="47.1378" lon="-1.64599">
        <ele>59</ele>
        <time>2022-11-11T11:34:56Z</time>
      </trkpt>
      <trkpt lat="47.13767" lon="-1.64597">
        <ele>59</ele>
        <time>2022-11-11T11:34:58Z</time>
      </trkpt>
      <trkpt lat="47.13753" lon="-1.64595">
        <ele>59</ele>
        <time>2022-11-11T11:35:00Z</time>
      </trkpt>
      <trkpt lat="47.1374" lon="-1.64591">
        <ele>59</ele>
        <time>2022-11-11T11:35:02Z</time>
      </trkpt>
      <trkpt lat="47.13728" lon="-1.64588">
        <ele>59</ele>
        <time>2022-11-11T11:35:04Z</time>
      </trkpt>
      <trkpt lat="47.13716" lon="-1.64584">
        <ele>60</ele>
        <time>2022-11-11T11:35:06Z</time>
      </trkpt>
      <trkpt lat="47.13704" lon="-1.64581">
        <ele>60</ele>
        <time>2022-11-11T11:35:08Z</time>
      </trkpt>
      <trkpt lat="47.13692" lon="-1.64579">
        <ele>61</ele>
        <time>2022-11-11T11:35:10Z</time>
      </trkpt>
      <trkpt lat="47.13679" lon="-1.64576">
        <ele>61</ele>
        <time>2022-11-11T11:35:12Z</time>
      </trkpt>
      <trkpt lat="47.13668" lon="-1.64574">
        <ele>62</ele>
        <time>2022-11-11T11:35:14Z</time>
      </trkpt>
      <trkpt lat="47.13656" lon="-1.64571">
        <ele>62</ele>
        <time>2022-11-11T11:35:16Z</time>
      </trkpt>
      <trkpt lat="47.13644" lon="-1.64568">
        <ele>63</ele>
        <time>2022-11-11T11:35:18Z</time>
      </trkpt>
      <trkpt lat="47.13633" lon="-1.64565">
        <ele>64</ele>
        <time>2022-11-11T11:35:20Z</time>
      </trkpt>
      <trkpt lat="47.13622" lon="-1.64562">
        <ele>63</ele>
        <time>2022-11-11T11:35:22Z</time>
      </trkpt>
      <trkpt lat="47.13611" lon="-1.64559">
        <ele>64</ele>
        <time>2022-11-11T11:35:24Z</time>
      </trkpt>
      <trkpt lat="47.13599" lon="-1.64558">
        <ele>64</ele>
        <time>2022-11-11T11:35:26Z</time>
      </trkpt>
      <trkpt lat="47.13587" lon="-1.64559">
        <ele>64</ele>
        <time>2022-11-11T11:35:28Z</time>
      </trkpt>
      <trkpt lat="47.13575" lon="-1.64563">
        <ele>64</ele>
        <time>2022-11-11T11:35:30Z</time>
      </trkpt>
      <trkpt lat="47.13563" lon="-1.64569">
        <ele>63</ele>
        <time>2022-11-11T11:35:32Z</time>
      </trkpt>
      <trkpt lat="47.13552" lon="-1.64577">
        <ele>63</ele>
        <time>2022-11-11T11:35:34Z</time>
      </trkpt>
      <trkpt lat="47.13542" lon="-1.64586">
        <ele>63</ele>
        <time>2022-11-11T11:35:36Z</time>
      </trkpt>
      <trkpt lat="47.13532" lon="-1.64597">
        <ele>63</ele>
        <time>2022-11-11T11:35:38Z</time>
      </trkpt>
      <trkpt lat="47.13523" lon="-1.64607">
        <ele>63</ele>
        <time>2022-11-11T11:35:40Z</time>
      </trkpt>
      <trkpt lat="47.13512" lon="-1.64618">
        <ele>63</ele>
        <time>2022-11-11T11:35:42Z</time>
      </trkpt>
      <trkpt lat="47.13501" lon="-1.64629">
        <ele>63</ele>
        <time>2022-11-11T11:35:44Z</time>
      </trkpt>
      <trkpt lat="47.1349" lon="-1.64638">
        <ele>64</ele>
        <time>2022-11-11T11:35:46Z</time>
      </trkpt>
      <trkpt lat="47.13478" lon="-1.64644">
        <ele>64</ele>
        <time>2022-11-11T11:35:48Z</time>
      </trkpt>
      <trkpt lat="47.13465" lon="-1.64646">
        <ele>64</ele>
        <time>2022-11-11T11:35:50Z</time>
      </trkpt>
      <trkpt lat="47.13453" lon="-1.64646">
        <ele>65</ele>
        <time>2022-11-11T11:35:52Z</time>
      </trkpt>
      <trkpt lat="47.13441" lon="-1.64644">
        <ele>65</ele>
        <time>2022-11-11T11:35:54Z</time>
      </trkpt>
      <trkpt lat="47.13428" lon="-1.64643">
        <ele>65</ele>
        <time>2022-11-11T11:35:56Z</time>
      </trkpt>
      <trkpt lat="47.13416" lon="-1.64642">
        <ele>65</ele>
        <time>2022-11-11T11:35:58Z</time>
      </trkpt>
      <trkpt lat="47.13406" lon="-1.64642">
        <ele>65</ele>
        <time>2022-11-11T11:36:00Z</time>
      </trkpt>
      <trkpt lat="47.13395" lon="-1.64638">
        <ele>65</ele>
        <time>2022-11-11T11:36:03Z</time>
      </trkpt>
      <trkpt lat="47.13392" lon="-1.64624">
        <ele>66</ele>
        <time>2022-11-11T11:36:05Z</time>
      </trkpt>
      <trkpt lat="47.13391" lon="-1.64608">
        <ele>66</ele>
        <time>2022-11-11T11:36:07Z</time>
      </trkpt>
      <trkpt lat="47.13388" lon="-1.64591">
        <ele>66</ele>
        <time>2022-11-11T11:36:09Z</time>
      </trkpt>
      <trkpt lat="47.13385" lon="-1.64573">
        <ele>66</ele>
        <time>2022-11-11T11:36:11Z</time>
      </trkpt>
      <trkpt lat="47.13381" lon="-1.64556">
        <ele>66</ele>
        <time>2022-11-11T11:36:13Z</time>
      </trkpt>
      <trkpt lat="47.13376" lon="-1.64539">
        <ele>66</ele>
        <time>2022-11-11T11:36:15Z</time>
      </trkpt>
      <trkpt lat="47.13371" lon="-1.64522">
        <ele>66</ele>
        <time>2022-11-11T11:36:17Z</time>
      </trkpt>
      <trkpt lat="47.13365" lon="-1.64505">
        <ele>65</ele>
        <time>2022-11-11T11:36:19Z</time>
      </trkpt>
      <trkpt lat="47.13359" lon="-1.64488">
        <ele>65</ele>
        <time>2022-11-11T11:36:21Z</time>
      </trkpt>
      <trkpt lat="47.13352" lon="-1.64472">
        <ele>64</ele>
        <time>2022-11-11T11:36:23Z</time>
      </trkpt>
      <trkpt lat="47.13344" lon="-1.64455">
        <ele>64</ele>
        <time>2022-11-11T11:36:25Z</time>
      </trkpt>
      <trkpt lat="47.13336" lon="-1.64437">
        <ele>63</ele>
        <time>2022-11-11T11:36:27Z</time>
      </trkpt>
      <trkpt lat="47.13327" lon="-1.64419">
        <ele>63</ele>
        <time>2022-11-11T11:36:29Z</time>
      </trkpt>
      <trkpt lat="47.13318" lon="-1.644">
        <ele>62</ele>
        <time>2022-11-11T11:36:31Z</time>
      </trkpt>
      <trkpt lat="47.13309" lon="-1.64381">
        <ele>62</ele>
        <time>2022-11-11T11:36:33Z</time>
      </trkpt>
      <trkpt lat="47.133" lon="-1.64361">
        <ele>61</ele>
        <time>2022-11-11T11:36:35Z</time>
      </trkpt>
      <trkpt lat="47.13291" lon="-1.64342">
        <ele>60</ele>
        <time>2022-11-11T11:36:37Z</time>
      </trkpt>
      <trkpt lat="47.13282" lon="-1.64322">
        <ele>59</ele>
        <time>2022-11-11T11:36:39Z</time>
      </trkpt>
      <trkpt lat="47.13273" lon="-1.64303">
        <ele>59</ele>
        <time>2022-11-11T11:36:41Z</time>
      </trkpt>
      <trkpt lat="47.13264" lon="-1.64284">
        <ele>58</ele>
        <time>2022-11-11T11:36:43Z</time>
      </trkpt>
      <trkpt lat="47.13255" lon="-1.64265">
        <ele>57</ele>
        <time>2022-11-11T11:36:45Z</time>
      </trkpt>
      <trkpt lat="47.13246" lon="-1.64246">
        <ele>57</ele>
        <time>2022-11-11T11:36:47Z</time>
      </trkpt>
      <trkpt lat="47.13239" lon="-1.64226">
        <ele>57</ele>
        <time>2022-11-11T11:36:49Z</time>
      </trkpt>
      <trkpt lat="47.13229" lon="-1.64208">
        <ele>57</ele>
        <time>2022-11-11T11:36:51Z</time>
      </trkpt>
      <trkpt lat="47.1322" lon="-1.64191">
        <ele>57</ele>
        <time>2022-11-11T11:36:53Z</time>
      </trkpt>
      <trkpt lat="47.13211" lon="-1.64173">
        <ele>57</ele>
        <time>2022-11-11T11:36:55Z</time>
      </trkpt>
      <trkpt lat="47.13203" lon="-1.64155">
        <ele>57</ele>
        <time>2022-11-11T11:36:57Z</time>
      </trkpt>
      <trkpt lat="47.13195" lon="-1.64136">
        <ele>56</ele>
        <time>2022-11-11T11:36:59Z</time>
      </trkpt>
      <trkpt lat="47.13187" lon="-1.64118">
        <ele>56</ele>
        <time>2022-11-11T11:37:01Z</time>
      </trkpt>
      <trkpt lat="47.13179" lon="-1.641">
        <ele>56</ele>
        <time>2022-11-11T11:37:03Z</time>
      </trkpt>
      <trkpt lat="47.13171" lon="-1.64081">
        <ele>55</ele>
        <time>2022-11-11T11:37:05Z</time>
      </trkpt>
      <trkpt lat="47.13163" lon="-1.64063">
        <ele>55</ele>
        <time>2022-11-11T11:37:07Z</time>
      </trkpt>
      <trkpt lat="47.13155" lon="-1.64045">
        <ele>55</ele>
        <time>2022-11-11T11:37:09Z</time>
      </trkpt>
      <trkpt lat="47.13148" lon="-1.64027">
        <ele>55</ele>
        <time>2022-11-11T11:37:11Z</time>
      </trkpt>
      <trkpt lat="47.13141" lon="-1.6401">
        <ele>55</ele>
        <time>2022-11-11T11:37:13Z</time>
      </trkpt>
      <trkpt lat="47.13135" lon="-1.63991">
        <ele>55</ele>
        <time>2022-11-11T11:37:15Z</time>
      </trkpt>
      <trkpt lat="47.13127" lon="-1.63973">
        <ele>55</ele>
        <time>2022-11-11T11:37:17Z</time>
      </trkpt>
      <trkpt lat="47.1312" lon="-1.63954">
        <ele>55</ele>
        <time>2022-11-11T11:37:19Z</time>
      </trkpt>
      <trkpt lat="47.13113" lon="-1.63935">
        <ele>55</ele>
        <time>2022-11-11T11:37:21Z</time>
      </trkpt>
      <trkpt lat="47.13106" lon="-1.63917">
        <ele>55</ele>
        <time>2022-11-11T11:37:23Z</time>
      </trkpt>
      <trkpt lat="47.13099" lon="-1.63898">
        <ele>55</ele>
        <time>2022-11-11T11:37:25Z</time>
      </trkpt>
      <trkpt lat="47.13092" lon="-1.6388">
        <ele>54</ele>
        <time>2022-11-11T11:37:27Z</time>
      </trkpt>
      <trkpt lat="47.13086" lon="-1.63863">
        <ele>54</ele>
        <time>2022-11-11T11:37:29Z</time>
      </trkpt>
      <trkpt lat="47.13079" lon="-1.63845">
        <ele>54</ele>
        <time>2022-11-11T11:37:31Z</time>
      </trkpt>
      <trkpt lat="47.13072" lon="-1.63828">
        <ele>54</ele>
        <time>2022-11-11T11:37:33Z</time>
      </trkpt>
      <trkpt lat="47.13065" lon="-1.63811">
        <ele>54</ele>
        <time>2022-11-11T11:37:35Z</time>
      </trkpt>
      <trkpt lat="47.13057" lon="-1.63794">
        <ele>54</ele>
        <time>2022-11-11T11:37:37Z</time>
      </trkpt>
      <trkpt lat="47.13049" lon="-1.63777">
        <ele>54</ele>
        <time>2022-11-11T11:37:39Z</time>
      </trkpt>
      <trkpt lat="47.13042" lon="-1.6376">
        <ele>54</ele>
        <time>2022-11-11T11:37:41Z</time>
      </trkpt>
      <trkpt lat="47.13034" lon="-1.63744">
        <ele>54</ele>
        <time>2022-11-11T11:37:43Z</time>
      </trkpt>
      <trkpt lat="47.13026" lon="-1.63728">
        <ele>54</ele>
        <time>2022-11-11T11:37:45Z</time>
      </trkpt>
      <trkpt lat="47.13018" lon="-1.63712">
        <ele>55</ele>
        <time>2022-11-11T11:37:47Z</time>
      </trkpt>
      <trkpt lat="47.1301" lon="-1.63695">
        <ele>55</ele>
        <time>2022-11-11T11:37:49Z</time>
      </trkpt>
      <trkpt lat="47.13002" lon="-1.63678">
        <ele>54</ele>
        <time>2022-11-11T11:37:51Z</time>
      </trkpt>
      <trkpt lat="47.12994" lon="-1.63661">
        <ele>54</ele>
        <time>2022-11-11T11:37:53Z</time>
      </trkpt>
      <trkpt lat="47.12987" lon="-1.63642">
        <ele>53</ele>
        <time>2022-11-11T11:37:55Z</time>
      </trkpt>
      <trkpt lat="47.12981" lon="-1.63623">
        <ele>53</ele>
        <time>2022-11-11T11:37:57Z</time>
      </trkpt>
      <trkpt lat="47.12975" lon="-1.63605">
        <ele>52</ele>
        <time>2022-11-11T11:37:59Z</time>
      </trkpt>
      <trkpt lat="47.12968" lon="-1.63587">
        <ele>51</ele>
        <time>2022-11-11T11:38:01Z</time>
      </trkpt>
      <trkpt lat="47.12961" lon="-1.6357">
        <ele>51</ele>
        <time>2022-11-11T11:38:03Z</time>
      </trkpt>
      <trkpt lat="47.12954" lon="-1.63553">
        <ele>52</ele>
        <time>2022-11-11T11:38:05Z</time>
      </trkpt>
      <trkpt lat="47.12946" lon="-1.63536">
        <ele>52</ele>
        <time>2022-11-11T11:38:07Z</time>
      </trkpt>
      <trkpt lat="47.1294" lon="-1.63519">
        <ele>52</ele>
        <time>2022-11-11T11:38:09Z</time>
      </trkpt>
      <trkpt lat="47.12933" lon="-1.635">
        <ele>52</ele>
        <time>2022-11-11T11:38:11Z</time>
      </trkpt>
      <trkpt lat="47.12927" lon="-1.63482">
        <ele>51</ele>
        <time>2022-11-11T11:38:13Z</time>
      </trkpt>
      <trkpt lat="47.12919" lon="-1.63466">
        <ele>51</ele>
        <time>2022-11-11T11:38:15Z</time>
      </trkpt>
      <trkpt lat="47.12912" lon="-1.63449">
        <ele>50</ele>
        <time>2022-11-11T11:38:17Z</time>
      </trkpt>
      <trkpt lat="47.12905" lon="-1.63431">
        <ele>50</ele>
        <time>2022-11-11T11:38:19Z</time>
      </trkpt>
      <trkpt lat="47.12898" lon="-1.63415">
        <ele>50</ele>
        <time>2022-11-11T11:38:21Z</time>
      </trkpt>
      <trkpt lat="47.12891" lon="-1.63398">
        <ele>50</ele>
        <time>2022-11-11T11:38:23Z</time>
      </trkpt>
      <trkpt lat="47.12884" lon="-1.6338">
        <ele>50</ele>
        <time>2022-11-11T11:38:25Z</time>
      </trkpt>
      <trkpt lat="47.12877" lon="-1.63362">
        <ele>49</ele>
        <time>2022-11-11T11:38:27Z</time>
      </trkpt>
      <trkpt lat="47.12871" lon="-1.63345">
        <ele>49</ele>
        <time>2022-11-11T11:38:29Z</time>
      </trkpt>
      <trkpt lat="47.12864" lon="-1.63326">
        <ele>48</ele>
        <time>2022-11-11T11:38:31Z</time>
      </trkpt>
      <trkpt lat="47.12858" lon="-1.63308">
        <ele>48</ele>
        <time>2022-11-11T11:38:33Z</time>
      </trkpt>
      <trkpt lat="47.12851" lon="-1.63291">
        <ele>48</ele>
        <time>2022-11-11T11:38:35Z</time>
      </trkpt>
      <trkpt lat="47.12845" lon="-1.63274">
        <ele>48</ele>
        <time>2022-11-11T11:38:37Z</time>
      </trkpt>
      <trkpt lat="47.12838" lon="-1.63258">
        <ele>48</ele>
        <time>2022-11-11T11:38:39Z</time>
      </trkpt>
      <trkpt lat="47.12831" lon="-1.63242">
        <ele>49</ele>
        <time>2022-11-11T11:38:41Z</time>
      </trkpt>
      <trkpt lat="47.12824" lon="-1.63225">
        <ele>50</ele>
        <time>2022-11-11T11:38:43Z</time>
      </trkpt>
      <trkpt lat="47.12817" lon="-1.6321">
        <ele>50</ele>
        <time>2022-11-11T11:38:45Z</time>
      </trkpt>
      <trkpt lat="47.1281" lon="-1.63194">
        <ele>50</ele>
        <time>2022-11-11T11:38:47Z</time>
      </trkpt>
      <trkpt lat="47.12804" lon="-1.63177">
        <ele>51</ele>
        <time>2022-11-11T11:38:49Z</time>
      </trkpt>
      <trkpt lat="47.12797" lon="-1.6316">
        <ele>52</ele>
        <time>2022-11-11T11:38:51Z</time>
      </trkpt>
      <trkpt lat="47.12791" lon="-1.63142">
        <ele>52</ele>
        <time>2022-11-11T11:38:53Z</time>
      </trkpt>
      <trkpt lat="47.12786" lon="-1.63124">
        <ele>53</ele>
        <time>2022-11-11T11:38:55Z</time>
      </trkpt>
      <trkpt lat="47.12778" lon="-1.63109">
        <ele>54</ele>
        <time>2022-11-11T11:38:57Z</time>
      </trkpt>
      <trkpt lat="47.12769" lon="-1.63096">
        <ele>54</ele>
        <time>2022-11-11T11:38:59Z</time>
      </trkpt>
      <trkpt lat="47.12762" lon="-1.63083">
        <ele>55</ele>
        <time>2022-11-11T11:39:01Z</time>
      </trkpt>
      <trkpt lat="47.12754" lon="-1.63068">
        <ele>55</ele>
        <time>2022-11-11T11:39:03Z</time>
      </trkpt>
      <trkpt lat="47.12748" lon="-1.63053">
        <ele>56</ele>
        <time>2022-11-11T11:39:05Z</time>
      </trkpt>
      <trkpt lat="47.12742" lon="-1.63037">
        <ele>56</ele>
        <time>2022-11-11T11:39:07Z</time>
      </trkpt>
      <trkpt lat="47.12735" lon="-1.63021">
        <ele>56</ele>
        <time>2022-11-11T11:39:09Z</time>
      </trkpt>
      <trkpt lat="47.12729" lon="-1.63004">
        <ele>56</ele>
        <time>2022-11-11T11:39:11Z</time>
      </trkpt>
      <trkpt lat="47.12723" lon="-1.62987">
        <ele>56</ele>
        <time>2022-11-11T11:39:13Z</time>
      </trkpt>
      <trkpt lat="47.12717" lon="-1.62972">
        <ele>56</ele>
        <time>2022-11-11T11:39:15Z</time>
      </trkpt>
      <trkpt lat="47.12712" lon="-1.62958">
        <ele>57</ele>
        <time>2022-11-11T11:39:17Z</time>
      </trkpt>
      <trkpt lat="47.12708" lon="-1.62945">
        <ele>57</ele>
        <time>2022-11-11T11:39:19Z</time>
      </trkpt>
      <trkpt lat="47.12703" lon="-1.62932">
        <ele>57</ele>
        <time>2022-11-11T11:39:21Z</time>
      </trkpt>
      <trkpt lat="47.127" lon="-1.62918">
        <ele>56</ele>
        <time>2022-11-11T11:39:23Z</time>
      </trkpt>
      <trkpt lat="47.127" lon="-1.62904">
        <ele>57</ele>
        <time>2022-11-11T11:39:25Z</time>
      </trkpt>
      <trkpt lat="47.12695" lon="-1.6289">
        <ele>56</ele>
        <time>2022-11-11T11:39:27Z</time>
      </trkpt>
      <trkpt lat="47.1269" lon="-1.62874">
        <ele>56</ele>
        <time>2022-11-11T11:39:29Z</time>
      </trkpt>
      <trkpt lat="47.12684" lon="-1.62859">
        <ele>56</ele>
        <time>2022-11-11T11:39:31Z</time>
      </trkpt>
      <trkpt lat="47.12677" lon="-1.62844">
        <ele>56</ele>
        <time>2022-11-11T11:39:33Z</time>
      </trkpt>
      <trkpt lat="47.1267" lon="-1.62831">
        <ele>56</ele>
        <time>2022-11-11T11:39:35Z</time>
      </trkpt>
      <trkpt lat="47.12663" lon="-1.62818">
        <ele>55</ele>
        <time>2022-11-11T11:39:37Z</time>
      </trkpt>
      <trkpt lat="47.12657" lon="-1.62803">
        <ele>55</ele>
        <time>2022-11-11T11:39:39Z</time>
      </trkpt>
      <trkpt lat="47.12653" lon="-1.62787">
        <ele>55</ele>
        <time>2022-11-11T11:39:41Z</time>
      </trkpt>
      <trkpt lat="47.12647" lon="-1.62771">
        <ele>55</ele>
        <time>2022-11-11T11:39:43Z</time>
      </trkpt>
      <trkpt lat="47.1264" lon="-1.62757">
        <ele>54</ele>
        <time>2022-11-11T11:39:45Z</time>
      </trkpt>
      <trkpt lat="47.12633" lon="-1.62742">
        <ele>54</ele>
        <time>2022-11-11T11:39:47Z</time>
      </trkpt>
      <trkpt lat="47.12625" lon="-1.62726">
        <ele>54</ele>
        <time>2022-11-11T11:39:49Z</time>
      </trkpt>
      <trkpt lat="47.12617" lon="-1.62711">
        <ele>53</ele>
        <time>2022-11-11T11:39:51Z</time>
      </trkpt>
      <trkpt lat="47.12609" lon="-1.62696">
        <ele>53</ele>
        <time>2022-11-11T11:39:53Z</time>
      </trkpt>
      <trkpt lat="47.12601" lon="-1.6268">
        <ele>53</ele>
        <time>2022-11-11T11:39:55Z</time>
      </trkpt>
      <trkpt lat="47.12594" lon="-1.62664">
        <ele>52</ele>
        <time>2022-11-11T11:39:57Z</time>
      </trkpt>
      <trkpt lat="47.12587" lon="-1.62649">
        <ele>52</ele>
        <time>2022-11-11T11:39:59Z</time>
      </trkpt>
      <trkpt lat="47.1258" lon="-1.62632">
        <ele>52</ele>
        <time>2022-11-11T11:40:01Z</time>
      </trkpt>
      <trkpt lat="47.12575" lon="-1.62616">
        <ele>52</ele>
        <time>2022-11-11T11:40:03Z</time>
      </trkpt>
      <trkpt lat="47.1257" lon="-1.62599">
        <ele>52</ele>
        <time>2022-11-11T11:40:05Z</time>
      </trkpt>
      <trkpt lat="47.12566" lon="-1.62581">
        <ele>52</ele>
        <time>2022-11-11T11:40:07Z</time>
      </trkpt>
      <trkpt lat="47.12563" lon="-1.62562">
        <ele>52</ele>
        <time>2022-11-11T11:40:09Z</time>
      </trkpt>
      <trkpt lat="47.1256" lon="-1.62544">
        <ele>52</ele>
        <time>2022-11-11T11:40:11Z</time>
      </trkpt>
      <trkpt lat="47.12555" lon="-1.62526">
        <ele>52</ele>
        <time>2022-11-11T11:40:13Z</time>
      </trkpt>
      <trkpt lat="47.12551" lon="-1.62507">
        <ele>52</ele>
        <time>2022-11-11T11:40:15Z</time>
      </trkpt>
      <trkpt lat="47.12548" lon="-1.62489">
        <ele>52</ele>
        <time>2022-11-11T11:40:17Z</time>
      </trkpt>
      <trkpt lat="47.12544" lon="-1.6247">
        <ele>52</ele>
        <time>2022-11-11T11:40:19Z</time>
      </trkpt>
      <trkpt lat="47.12539" lon="-1.62452">
        <ele>52</ele>
        <time>2022-11-11T11:40:21Z</time>
      </trkpt>
      <trkpt lat="47.12535" lon="-1.62434">
        <ele>52</ele>
        <time>2022-11-11T11:40:23Z</time>
      </trkpt>
      <trkpt lat="47.12529" lon="-1.62417">
        <ele>52</ele>
        <time>2022-11-11T11:40:25Z</time>
      </trkpt>
      <trkpt lat="47.12523" lon="-1.624">
        <ele>52</ele>
        <time>2022-11-11T11:40:27Z</time>
      </trkpt>
      <trkpt lat="47.12517" lon="-1.62383">
        <ele>52</ele>
        <time>2022-11-11T11:40:29Z</time>
      </trkpt>
      <trkpt lat="47.1251" lon="-1.62367">
        <ele>52</ele>
        <time>2022-11-11T11:40:31Z</time>
      </trkpt>
      <trkpt lat="47.12503" lon="-1.62351">
        <ele>52</ele>
        <time>2022-11-11T11:40:33Z</time>
      </trkpt>
      <trkpt lat="47.12495" lon="-1.62336">
        <ele>52</ele>
        <time>2022-11-11T11:40:35Z</time>
      </trkpt>
      <trkpt lat="47.12488" lon="-1.62322">
        <ele>51</ele>
        <time>2022-11-11T11:40:37Z</time>
      </trkpt>
      <trkpt lat="47.12479" lon="-1.62309">
        <ele>51</ele>
        <time>2022-11-11T11:40:39Z</time>
      </trkpt>
      <trkpt lat="47.12471" lon="-1.62295">
        <ele>51</ele>
        <time>2022-11-11T11:40:41Z</time>
      </trkpt>
      <trkpt lat="47.12462" lon="-1.62282">
        <ele>51</ele>
        <time>2022-11-11T11:40:43Z</time>
      </trkpt>
      <trkpt lat="47.12454" lon="-1.62268">
        <ele>51</ele>
        <time>2022-11-11T11:40:45Z</time>
      </trkpt>
      <trkpt lat="47.12445" lon="-1.62255">
        <ele>51</ele>
        <time>2022-11-11T11:40:47Z</time>
      </trkpt>
      <trkpt lat="47.12436" lon="-1.62242">
        <ele>51</ele>
        <time>2022-11-11T11:40:49Z</time>
      </trkpt>
      <trkpt lat="47.12427" lon="-1.6223">
        <ele>51</ele>
        <time>2022-11-11T11:40:51Z</time>
      </trkpt>
      <trkpt lat="47.12419" lon="-1.62217">
        <ele>51</ele>
        <time>2022-11-11T11:40:53Z</time>
      </trkpt>
      <trkpt lat="47.12411" lon="-1.62203">
        <ele>51</ele>
        <time>2022-11-11T11:40:55Z</time>
      </trkpt>
      <trkpt lat="47.12404" lon="-1.62188">
        <ele>51</ele>
        <time>2022-11-11T11:40:57Z</time>
      </trkpt>
      <trkpt lat="47.12397" lon="-1.62173">
        <ele>51</ele>
        <time>2022-11-11T11:40:59Z</time>
      </trkpt>
      <trkpt lat="47.12392" lon="-1.62157">
        <ele>51</ele>
        <time>2022-11-11T11:41:01Z</time>
      </trkpt>
      <trkpt lat="47.12387" lon="-1.6214">
        <ele>50</ele>
        <time>2022-11-11T11:41:03Z</time>
      </trkpt>
      <trkpt lat="47.12383" lon="-1.62123">
        <ele>50</ele>
        <time>2022-11-11T11:41:05Z</time>
      </trkpt>
      <trkpt lat="47.1238" lon="-1.62105">
        <ele>50</ele>
        <time>2022-11-11T11:41:07Z</time>
      </trkpt>
      <trkpt lat="47.12378" lon="-1.62088">
        <ele>51</ele>
        <time>2022-11-11T11:41:09Z</time>
      </trkpt>
      <trkpt lat="47.12378" lon="-1.6207">
        <ele>51</ele>
        <time>2022-11-11T11:41:11Z</time>
      </trkpt>
      <trkpt lat="47.12378" lon="-1.62053">
        <ele>51</ele>
        <time>2022-11-11T11:41:13Z</time>
      </trkpt>
      <trkpt lat="47.12379" lon="-1.62035">
        <ele>52</ele>
        <time>2022-11-11T11:41:15Z</time>
      </trkpt>
      <trkpt lat="47.12382" lon="-1.62018">
        <ele>52</ele>
        <time>2022-11-11T11:41:17Z</time>
      </trkpt>
      <trkpt lat="47.12385" lon="-1.62001">
        <ele>52</ele>
        <time>2022-11-11T11:41:19Z</time>
      </trkpt>
      <trkpt lat="47.12389" lon="-1.61984">
        <ele>53</ele>
        <time>2022-11-11T11:41:21Z</time>
      </trkpt>
      <trkpt lat="47.12394" lon="-1.61967">
        <ele>53</ele>
        <time>2022-11-11T11:41:23Z</time>
      </trkpt>
      <trkpt lat="47.12399" lon="-1.61951">
        <ele>53</ele>
        <time>2022-11-11T11:41:25Z</time>
      </trkpt>
      <trkpt lat="47.12403" lon="-1.61935">
        <ele>53</ele>
        <time>2022-11-11T11:41:27Z</time>
      </trkpt>
      <trkpt lat="47.12407" lon="-1.61919">
        <ele>53</ele>
        <time>2022-11-11T11:41:29Z</time>
      </trkpt>
      <trkpt lat="47.1241" lon="-1.61902">
        <ele>53</ele>
        <time>2022-11-11T11:41:31Z</time>
      </trkpt>
      <trkpt lat="47.12414" lon="-1.61886">
        <ele>53</ele>
        <time>2022-11-11T11:41:33Z</time>
      </trkpt>
      <trkpt lat="47.1242" lon="-1.61871">
        <ele>53</ele>
        <time>2022-11-11T11:41:35Z</time>
      </trkpt>
      <trkpt lat="47.12425" lon="-1.61856">
        <ele>53</ele>
        <time>2022-11-11T11:41:37Z</time>
      </trkpt>
      <trkpt lat="47.12429" lon="-1.6184">
        <ele>53</ele>
        <time>2022-11-11T11:41:39Z</time>
      </trkpt>
      <trkpt lat="47.12432" lon="-1.61823">
        <ele>53</ele>
        <time>2022-11-11T11:41:41Z</time>
      </trkpt>
      <trkpt lat="47.12436" lon="-1.61807">
        <ele>53</ele>
        <time>2022-11-11T11:41:43Z</time>
      </trkpt>
      <trkpt lat="47.1244" lon="-1.61791">
        <ele>53</ele>
        <time>2022-11-11T11:41:45Z</time>
      </trkpt>
      <trkpt lat="47.12444" lon="-1.61775">
        <ele>53</ele>
        <time>2022-11-11T11:41:47Z</time>
      </trkpt>
      <trkpt lat="47.12449" lon="-1.61759">
        <ele>54</ele>
        <time>2022-11-11T11:41:49Z</time>
      </trkpt>
      <trkpt lat="47.12453" lon="-1.61743">
        <ele>54</ele>
        <time>2022-11-11T11:41:51Z</time>
      </trkpt>
      <trkpt lat="47.12457" lon="-1.61727">
        <ele>54</ele>
        <time>2022-11-11T11:41:53Z</time>
      </trkpt>
      <trkpt lat="47.12461" lon="-1.61711">
        <ele>54</ele>
        <time>2022-11-11T11:41:55Z</time>
      </trkpt>
      <trkpt lat="47.12465" lon="-1.61695">
        <ele>54</ele>
        <time>2022-11-11T11:41:57Z</time>
      </trkpt>
      <trkpt lat="47.1247" lon="-1.6167">
        <ele>55</ele>
        <time>2022-11-11T11:42:00Z</time>
      </trkpt>
      <trkpt lat="47.12474" lon="-1.61645">
        <ele>55</ele>
        <time>2022-11-11T11:42:03Z</time>
      </trkpt>
      <trkpt lat="47.12475" lon="-1.61627">
        <ele>54</ele>
        <time>2022-11-11T11:42:05Z</time>
      </trkpt>
      <trkpt lat="47.12474" lon="-1.61609">
        <ele>54</ele>
        <time>2022-11-11T11:42:07Z</time>
      </trkpt>
      <trkpt lat="47.12472" lon="-1.61583">
        <ele>53</ele>
        <time>2022-11-11T11:42:10Z</time>
      </trkpt>
      <trkpt lat="47.1247" lon="-1.61565">
        <ele>53</ele>
        <time>2022-11-11T11:42:12Z</time>
      </trkpt>
      <trkpt lat="47.12468" lon="-1.61548">
        <ele>53</ele>
        <time>2022-11-11T11:42:14Z</time>
      </trkpt>
      <trkpt lat="47.12466" lon="-1.61531">
        <ele>53</ele>
        <time>2022-11-11T11:42:16Z</time>
      </trkpt>
      <trkpt lat="47.12465" lon="-1.61513">
        <ele>53</ele>
        <time>2022-11-11T11:42:18Z</time>
      </trkpt>
      <trkpt lat="47.12462" lon="-1.61496">
        <ele>53</ele>
        <time>2022-11-11T11:42:20Z</time>
      </trkpt>
      <trkpt lat="47.12461" lon="-1.61479">
        <ele>53</ele>
        <time>2022-11-11T11:42:22Z</time>
      </trkpt>
      <trkpt lat="47.12459" lon="-1.61462">
        <ele>54</ele>
        <time>2022-11-11T11:42:24Z</time>
      </trkpt>
      <trkpt lat="47.12457" lon="-1.61445">
        <ele>54</ele>
        <time>2022-11-11T11:42:26Z</time>
      </trkpt>
      <trkpt lat="47.12455" lon="-1.61428">
        <ele>54</ele>
        <time>2022-11-11T11:42:28Z</time>
      </trkpt>
      <trkpt lat="47.12453" lon="-1.61411">
        <ele>55</ele>
        <time>2022-11-11T11:42:30Z</time>
      </trkpt>
      <trkpt lat="47.12451" lon="-1.61394">
        <ele>55</ele>
        <time>2022-11-11T11:42:32Z</time>
      </trkpt>
      <trkpt lat="47.12451" lon="-1.61377">
        <ele>55</ele>
        <time>2022-11-11T11:42:34Z</time>
      </trkpt>
      <trkpt lat="47.12452" lon="-1.61359">
        <ele>55</ele>
        <time>2022-11-11T11:42:36Z</time>
      </trkpt>
      <trkpt lat="47.12455" lon="-1.61342">
        <ele>55</ele>
        <time>2022-11-11T11:42:38Z</time>
      </trkpt>
      <trkpt lat="47.12458" lon="-1.61325">
        <ele>55</ele>
        <time>2022-11-11T11:42:40Z</time>
      </trkpt>
      <trkpt lat="47.12463" lon="-1.61309">
        <ele>55</ele>
        <time>2022-11-11T11:42:42Z</time>
      </trkpt>
      <trkpt lat="47.12469" lon="-1.61294">
        <ele>56</ele>
        <time>2022-11-11T11:42:44Z</time>
      </trkpt>
      <trkpt lat="47.12475" lon="-1.61278">
        <ele>55</ele>
        <time>2022-11-11T11:42:46Z</time>
      </trkpt>
      <trkpt lat="47.1248" lon="-1.61263">
        <ele>55</ele>
        <time>2022-11-11T11:42:48Z</time>
      </trkpt>
      <trkpt lat="47.12485" lon="-1.61247">
        <ele>55</ele>
        <time>2022-11-11T11:42:50Z</time>
      </trkpt>
      <trkpt lat="47.12489" lon="-1.6123">
        <ele>55</ele>
        <time>2022-11-11T11:42:52Z</time>
      </trkpt>
      <trkpt lat="47.12492" lon="-1.61214">
        <ele>55</ele>
        <time>2022-11-11T11:42:54Z</time>
      </trkpt>
      <trkpt lat="47.12495" lon="-1.61197">
        <ele>55</ele>
        <time>2022-11-11T11:42:56Z</time>
      </trkpt>
      <trkpt lat="47.12497" lon="-1.6118">
        <ele>56</ele>
        <time>2022-11-11T11:42:58Z</time>
      </trkpt>
      <trkpt lat="47.12499" lon="-1.61164">
        <ele>56</ele>
        <time>2022-11-11T11:43:00Z</time>
      </trkpt>
      <trkpt lat="47.12501" lon="-1.61146">
        <ele>56</ele>
        <time>2022-11-11T11:43:02Z</time>
      </trkpt>
      <trkpt lat="47.12503" lon="-1.6113">
        <ele>56</ele>
        <time>2022-11-11T11:43:04Z</time>
      </trkpt>
      <trkpt lat="47.12505" lon="-1.61112">
        <ele>56</ele>
        <time>2022-11-11T11:43:06Z</time>
      </trkpt>
      <trkpt lat="47.12506" lon="-1.61094">
        <ele>56</ele>
        <time>2022-11-11T11:43:08Z</time>
      </trkpt>
      <trkpt lat="47.12508" lon="-1.61077">
        <ele>56</ele>
        <time>2022-11-11T11:43:10Z</time>
      </trkpt>
      <trkpt lat="47.12509" lon="-1.61059">
        <ele>56</ele>
        <time>2022-11-11T11:43:12Z</time>
      </trkpt>
      <trkpt lat="47.12511" lon="-1.61042">
        <ele>56</ele>
        <time>2022-11-11T11:43:14Z</time>
      </trkpt>
      <trkpt lat="47.12512" lon="-1.61026">
        <ele>56</ele>
        <time>2022-11-11T11:43:16Z</time>
      </trkpt>
      <trkpt lat="47.12514" lon="-1.61008">
        <ele>55</ele>
        <time>2022-11-11T11:43:18Z</time>
      </trkpt>
      <trkpt lat="47.12515" lon="-1.60991">
        <ele>55</ele>
        <time>2022-11-11T11:43:20Z</time>
      </trkpt>
      <trkpt lat="47.12517" lon="-1.60974">
        <ele>55</ele>
        <time>2022-11-11T11:43:22Z</time>
      </trkpt>
      <trkpt lat="47.12519" lon="-1.60957">
        <ele>55</ele>
        <time>2022-11-11T11:43:24Z</time>
      </trkpt>
      <trkpt lat="47.1252" lon="-1.60939">
        <ele>55</ele>
        <time>2022-11-11T11:43:26Z</time>
      </trkpt>
      <trkpt lat="47.12522" lon="-1.60922">
        <ele>55</ele>
        <time>2022-11-11T11:43:28Z</time>
      </trkpt>
      <trkpt lat="47.12524" lon="-1.60905">
        <ele>55</ele>
        <time>2022-11-11T11:43:30Z</time>
      </trkpt>
      <trkpt lat="47.12525" lon="-1.60887">
        <ele>55</ele>
        <time>2022-11-11T11:43:32Z</time>
      </trkpt>
      <trkpt lat="47.12526" lon="-1.6087">
        <ele>55</ele>
        <time>2022-11-11T11:43:34Z</time>
      </trkpt>
      <trkpt lat="47.12528" lon="-1.60853">
        <ele>55</ele>
        <time>2022-11-11T11:43:36Z</time>
      </trkpt>
      <trkpt lat="47.1253" lon="-1.60836">
        <ele>55</ele>
        <time>2022-11-11T11:43:38Z</time>
      </trkpt>
      <trkpt lat="47.12531" lon="-1.60819">
        <ele>55</ele>
        <time>2022-11-11T11:43:40Z</time>
      </trkpt>
      <trkpt lat="47.12533" lon="-1.60802">
        <ele>55</ele>
        <time>2022-11-11T11:43:42Z</time>
      </trkpt>
      <trkpt lat="47.12534" lon="-1.60784">
        <ele>55</ele>
        <time>2022-11-11T11:43:44Z</time>
      </trkpt>
      <trkpt lat="47.12536" lon="-1.60766">
        <ele>55</ele>
        <time>2022-11-11T11:43:46Z</time>
      </trkpt>
      <trkpt lat="47.12537" lon="-1.60748">
        <ele>55</ele>
        <time>2022-11-11T11:43:48Z</time>
      </trkpt>
      <trkpt lat="47.12538" lon="-1.6073">
        <ele>54</ele>
        <time>2022-11-11T11:43:50Z</time>
      </trkpt>
      <trkpt lat="47.12539" lon="-1.60712">
        <ele>54</ele>
        <time>2022-11-11T11:43:52Z</time>
      </trkpt>
      <trkpt lat="47.12539" lon="-1.60694">
        <ele>55</ele>
        <time>2022-11-11T11:43:54Z</time>
      </trkpt>
      <trkpt lat="47.12539" lon="-1.60677">
        <ele>55</ele>
        <time>2022-11-11T11:43:56Z</time>
      </trkpt>
      <trkpt lat="47.12538" lon="-1.60661">
        <ele>55</ele>
        <time>2022-11-11T11:43:58Z</time>
      </trkpt>
      <trkpt lat="47.12538" lon="-1.60643">
        <ele>55</ele>
        <time>2022-11-11T11:44:00Z</time>
      </trkpt>
      <trkpt lat="47.12538" lon="-1.60626">
        <ele>55</ele>
        <time>2022-11-11T11:44:02Z</time>
      </trkpt>
      <trkpt lat="47.12537" lon="-1.60608">
        <ele>55</ele>
        <time>2022-11-11T11:44:04Z</time>
      </trkpt>
      <trkpt lat="47.12537" lon="-1.60591">
        <ele>54</ele>
        <time>2022-11-11T11:44:06Z</time>
      </trkpt>
      <trkpt lat="47.12537" lon="-1.60573">
        <ele>54</ele>
        <time>2022-11-11T11:44:08Z</time>
      </trkpt>
      <trkpt lat="47.12536" lon="-1.60555">
        <ele>54</ele>
        <time>2022-11-11T11:44:10Z</time>
      </trkpt>
      <trkpt lat="47.12535" lon="-1.60536">
        <ele>54</ele>
        <time>2022-11-11T11:44:12Z</time>
      </trkpt>
      <trkpt lat="47.12534" lon="-1.60518">
        <ele>54</ele>
        <time>2022-11-11T11:44:14Z</time>
      </trkpt>
      <trkpt lat="47.12532" lon="-1.60499">
        <ele>54</ele>
        <time>2022-11-11T11:44:16Z</time>
      </trkpt>
      <trkpt lat="47.1253" lon="-1.60482">
        <ele>54</ele>
        <time>2022-11-11T11:44:18Z</time>
      </trkpt>
      <trkpt lat="47.12527" lon="-1.60464">
        <ele>54</ele>
        <time>2022-11-11T11:44:20Z</time>
      </trkpt>
      <trkpt lat="47.12525" lon="-1.60447">
        <ele>54</ele>
        <time>2022-11-11T11:44:22Z</time>
      </trkpt>
      <trkpt lat="47.12522" lon="-1.60429">
        <ele>53</ele>
        <time>2022-11-11T11:44:24Z</time>
      </trkpt>
      <trkpt lat="47.12519" lon="-1.60411">
        <ele>53</ele>
        <time>2022-11-11T11:44:26Z</time>
      </trkpt>
      <trkpt lat="47.12515" lon="-1.60393">
        <ele>53</ele>
        <time>2022-11-11T11:44:28Z</time>
      </trkpt>
      <trkpt lat="47.12511" lon="-1.60375">
        <ele>53</ele>
        <time>2022-11-11T11:44:30Z</time>
      </trkpt>
      <trkpt lat="47.12508" lon="-1.60357">
        <ele>53</ele>
        <time>2022-11-11T11:44:32Z</time>
      </trkpt>
      <trkpt lat="47.12504" lon="-1.60339">
        <ele>53</ele>
        <time>2022-11-11T11:44:34Z</time>
      </trkpt>
      <trkpt lat="47.12501" lon="-1.6032">
        <ele>52</ele>
        <time>2022-11-11T11:44:36Z</time>
      </trkpt>
      <trkpt lat="47.12497" lon="-1.60302">
        <ele>52</ele>
        <time>2022-11-11T11:44:38Z</time>
      </trkpt>
      <trkpt lat="47.12493" lon="-1.60284">
        <ele>52</ele>
        <time>2022-11-11T11:44:40Z</time>
      </trkpt>
      <trkpt lat="47.1249" lon="-1.60267">
        <ele>52</ele>
        <time>2022-11-11T11:44:42Z</time>
      </trkpt>
      <trkpt lat="47.12486" lon="-1.60249">
        <ele>52</ele>
        <time>2022-11-11T11:44:44Z</time>
      </trkpt>
      <trkpt lat="47.12483" lon="-1.6023">
        <ele>52</ele>
        <time>2022-11-11T11:44:46Z</time>
      </trkpt>
      <trkpt lat="47.1248" lon="-1.60213">
        <ele>52</ele>
        <time>2022-11-11T11:44:48Z</time>
      </trkpt>
      <trkpt lat="47.12478" lon="-1.60195">
        <ele>52</ele>
        <time>2022-11-11T11:44:50Z</time>
      </trkpt>
      <trkpt lat="47.12476" lon="-1.60178">
        <ele>52</ele>
        <time>2022-11-11T11:44:52Z</time>
      </trkpt>
      <trkpt lat="47.12475" lon="-1.6016">
        <ele>52</ele>
        <time>2022-11-11T11:44:54Z</time>
      </trkpt>
      <trkpt lat="47.12474" lon="-1.60142">
        <ele>52</ele>
        <time>2022-11-11T11:44:56Z</time>
      </trkpt>
      <trkpt lat="47.12473" lon="-1.60124">
        <ele>53</ele>
        <time>2022-11-11T11:44:58Z</time>
      </trkpt>
      <trkpt lat="47.12472" lon="-1.60107">
        <ele>53</ele>
        <time>2022-11-11T11:45:00Z</time>
      </trkpt>
      <trkpt lat="47.1247" lon="-1.6009">
        <ele>53</ele>
        <time>2022-11-11T11:45:02Z</time>
      </trkpt>
      <trkpt lat="47.1247" lon="-1.60073">
        <ele>53</ele>
        <time>2022-11-11T11:45:04Z</time>
      </trkpt>
      <trkpt lat="47.12469" lon="-1.60055">
        <ele>53</ele>
        <time>2022-11-11T11:45:06Z</time>
      </trkpt>
      <trkpt lat="47.12468" lon="-1.60038">
        <ele>53</ele>
        <time>2022-11-11T11:45:08Z</time>
      </trkpt>
      <trkpt lat="47.12467" lon="-1.6002">
        <ele>53</ele>
        <time>2022-11-11T11:45:10Z</time>
      </trkpt>
      <trkpt lat="47.12466" lon="-1.60003">
        <ele>53</ele>
        <time>2022-11-11T11:45:12Z</time>
      </trkpt>
      <trkpt lat="47.12465" lon="-1.59985">
        <ele>54</ele>
        <time>2022-11-11T11:45:14Z</time>
      </trkpt>
      <trkpt lat="47.12465" lon="-1.59968">
        <ele>54</ele>
        <time>2022-11-11T11:45:16Z</time>
      </trkpt>
      <trkpt lat="47.12464" lon="-1.59951">
        <ele>55</ele>
        <time>2022-11-11T11:45:18Z</time>
      </trkpt>
      <trkpt lat="47.12463" lon="-1.59934">
        <ele>55</ele>
        <time>2022-11-11T11:45:20Z</time>
      </trkpt>
      <trkpt lat="47.12463" lon="-1.59918">
        <ele>55</ele>
        <time>2022-11-11T11:45:22Z</time>
      </trkpt>
      <trkpt lat="47.12462" lon="-1.59901">
        <ele>55</ele>
        <time>2022-11-11T11:45:24Z</time>
      </trkpt>
      <trkpt lat="47.12461" lon="-1.59883">
        <ele>56</ele>
        <time>2022-11-11T11:45:26Z</time>
      </trkpt>
      <trkpt lat="47.12461" lon="-1.59866">
        <ele>57</ele>
        <time>2022-11-11T11:45:28Z</time>
      </trkpt>
      <trkpt lat="47.12459" lon="-1.59849">
        <ele>57</ele>
        <time>2022-11-11T11:45:30Z</time>
      </trkpt>
      <trkpt lat="47.12458" lon="-1.59832">
        <ele>57</ele>
        <time>2022-11-11T11:45:32Z</time>
      </trkpt>
      <trkpt lat="47.12457" lon="-1.59814">
        <ele>57</ele>
        <time>2022-11-11T11:45:34Z</time>
      </trkpt>
      <trkpt lat="47.12457" lon="-1.59797">
        <ele>57</ele>
        <time>2022-11-11T11:45:36Z</time>
      </trkpt>
      <trkpt lat="47.12456" lon="-1.5978">
        <ele>57</ele>
        <time>2022-11-11T11:45:38Z</time>
      </trkpt>
      <trkpt lat="47.12456" lon="-1.59763">
        <ele>57</ele>
        <time>2022-11-11T11:45:40Z</time>
      </trkpt>
      <trkpt lat="47.12455" lon="-1.59746">
        <ele>57</ele>
        <time>2022-11-11T11:45:42Z</time>
      </trkpt>
      <trkpt lat="47.12454" lon="-1.59729">
        <ele>57</ele>
        <time>2022-11-11T11:45:44Z</time>
      </trkpt>
      <trkpt lat="47.12453" lon="-1.59712">
        <ele>57</ele>
        <time>2022-11-11T11:45:46Z</time>
      </trkpt>
      <trkpt lat="47.12452" lon="-1.59695">
        <ele>56</ele>
        <time>2022-11-11T11:45:48Z</time>
      </trkpt>
      <trkpt lat="47.12451" lon="-1.59677">
        <ele>56</ele>
        <time>2022-11-11T11:45:50Z</time>
      </trkpt>
      <trkpt lat="47.1245" lon="-1.59659">
        <ele>56</ele>
        <time>2022-11-11T11:45:52Z</time>
      </trkpt>
      <trkpt lat="47.1245" lon="-1.59642">
        <ele>55</ele>
        <time>2022-11-11T11:45:54Z</time>
      </trkpt>
      <trkpt lat="47.12449" lon="-1.59625">
        <ele>54</ele>
        <time>2022-11-11T11:45:56Z</time>
      </trkpt>
      <trkpt lat="47.12448" lon="-1.59608">
        <ele>54</ele>
        <time>2022-11-11T11:45:58Z</time>
      </trkpt>
      <trkpt lat="47.12448" lon="-1.5959">
        <ele>54</ele>
        <time>2022-11-11T11:46:00Z</time>
      </trkpt>
      <trkpt lat="47.12447" lon="-1.59572">
        <ele>54</ele>
        <time>2022-11-11T11:46:02Z</time>
      </trkpt>
      <trkpt lat="47.12446" lon="-1.59555">
        <ele>54</ele>
        <time>2022-11-11T11:46:04Z</time>
      </trkpt>
      <trkpt lat="47.12445" lon="-1.59537">
        <ele>54</ele>
        <time>2022-11-11T11:46:06Z</time>
      </trkpt>
      <trkpt lat="47.12444" lon="-1.59519">
        <ele>54</ele>
        <time>2022-11-11T11:46:08Z</time>
      </trkpt>
      <trkpt lat="47.12443" lon="-1.59501">
        <ele>54</ele>
        <time>2022-11-11T11:46:10Z</time>
      </trkpt>
      <trkpt lat="47.12443" lon="-1.59482">
        <ele>54</ele>
        <time>2022-11-11T11:46:12Z</time>
      </trkpt>
      <trkpt lat="47.12442" lon="-1.59464">
        <ele>54</ele>
        <time>2022-11-11T11:46:14Z</time>
      </trkpt>
      <trkpt lat="47.1244" lon="-1.59446">
        <ele>54</ele>
        <time>2022-11-11T11:46:16Z</time>
      </trkpt>
      <trkpt lat="47.1244" lon="-1.59428">
        <ele>54</ele>
        <time>2022-11-11T11:46:18Z</time>
      </trkpt>
      <trkpt lat="47.12439" lon="-1.59409">
        <ele>53</ele>
        <time>2022-11-11T11:46:20Z</time>
      </trkpt>
      <trkpt lat="47.12438" lon="-1.5939">
        <ele>53</ele>
        <time>2022-11-11T11:46:22Z</time>
      </trkpt>
      <trkpt lat="47.12436" lon="-1.59371">
        <ele>53</ele>
        <time>2022-11-11T11:46:24Z</time>
      </trkpt>
      <trkpt lat="47.12436" lon="-1.59353">
        <ele>53</ele>
        <time>2022-11-11T11:46:26Z</time>
      </trkpt>
      <trkpt lat="47.12435" lon="-1.59334">
        <ele>53</ele>
        <time>2022-11-11T11:46:28Z</time>
      </trkpt>
      <trkpt lat="47.12434" lon="-1.59316">
        <ele>53</ele>
        <time>2022-11-11T11:46:30Z</time>
      </trkpt>
      <trkpt lat="47.12433" lon="-1.59297">
        <ele>53</ele>
        <time>2022-11-11T11:46:32Z</time>
      </trkpt>
      <trkpt lat="47.12432" lon="-1.59279">
        <ele>53</ele>
        <time>2022-11-11T11:46:34Z</time>
      </trkpt>
      <trkpt lat="47.12431" lon="-1.59261">
        <ele>52</ele>
        <time>2022-11-11T11:46:36Z</time>
      </trkpt>
      <trkpt lat="47.1243" lon="-1.59243">
        <ele>52</ele>
        <time>2022-11-11T11:46:38Z</time>
      </trkpt>
      <trkpt lat="47.12428" lon="-1.59225">
        <ele>52</ele>
        <time>2022-11-11T11:46:40Z</time>
      </trkpt>
      <trkpt lat="47.12424" lon="-1.59207">
        <ele>51</ele>
        <time>2022-11-11T11:46:42Z</time>
      </trkpt>
      <trkpt lat="47.12421" lon="-1.5919">
        <ele>51</ele>
        <time>2022-11-11T11:46:44Z</time>
      </trkpt>
      <trkpt lat="47.12423" lon="-1.59172">
        <ele>51</ele>
        <time>2022-11-11T11:46:46Z</time>
      </trkpt>
      <trkpt lat="47.12426" lon="-1.59154">
        <ele>51</ele>
        <time>2022-11-11T11:46:48Z</time>
      </trkpt>
      <trkpt lat="47.12426" lon="-1.59135">
        <ele>51</ele>
        <time>2022-11-11T11:46:50Z</time>
      </trkpt>
      <trkpt lat="47.12426" lon="-1.59117">
        <ele>51</ele>
        <time>2022-11-11T11:46:52Z</time>
      </trkpt>
      <trkpt lat="47.12426" lon="-1.59098">
        <ele>51</ele>
        <time>2022-11-11T11:46:54Z</time>
      </trkpt>
      <trkpt lat="47.12425" lon="-1.59079">
        <ele>51</ele>
        <time>2022-11-11T11:46:56Z</time>
      </trkpt>
      <trkpt lat="47.12424" lon="-1.59061">
        <ele>51</ele>
        <time>2022-11-11T11:46:58Z</time>
      </trkpt>
      <trkpt lat="47.12423" lon="-1.59043">
        <ele>52</ele>
        <time>2022-11-11T11:47:00Z</time>
      </trkpt>
      <trkpt lat="47.12422" lon="-1.59026">
        <ele>53</ele>
        <time>2022-11-11T11:47:02Z</time>
      </trkpt>
      <trkpt lat="47.12421" lon="-1.5901">
        <ele>54</ele>
        <time>2022-11-11T11:47:04Z</time>
      </trkpt>
      <trkpt lat="47.12421" lon="-1.58994">
        <ele>54</ele>
        <time>2022-11-11T11:47:06Z</time>
      </trkpt>
      <trkpt lat="47.1242" lon="-1.58979">
        <ele>54</ele>
        <time>2022-11-11T11:47:08Z</time>
      </trkpt>
      <trkpt lat="47.12419" lon="-1.58965">
        <ele>55</ele>
        <time>2022-11-11T11:47:10Z</time>
      </trkpt>
      <trkpt lat="47.12418" lon="-1.5895">
        <ele>55</ele>
        <time>2022-11-11T11:47:12Z</time>
      </trkpt>
      <trkpt lat="47.12417" lon="-1.58936">
        <ele>56</ele>
        <time>2022-11-11T11:47:14Z</time>
      </trkpt>
      <trkpt lat="47.12416" lon="-1.58922">
        <ele>57</ele>
        <time>2022-11-11T11:47:16Z</time>
      </trkpt>
      <trkpt lat="47.12414" lon="-1.58907">
        <ele>57</ele>
        <time>2022-11-11T11:47:18Z</time>
      </trkpt>
      <trkpt lat="47.12413" lon="-1.58892">
        <ele>57</ele>
        <time>2022-11-11T11:47:20Z</time>
      </trkpt>
      <trkpt lat="47.12411" lon="-1.58877">
        <ele>57</ele>
        <time>2022-11-11T11:47:22Z</time>
      </trkpt>
      <trkpt lat="47.12409" lon="-1.58862">
        <ele>57</ele>
        <time>2022-11-11T11:47:24Z</time>
      </trkpt>
      <trkpt lat="47.12408" lon="-1.58846">
        <ele>57</ele>
        <time>2022-11-11T11:47:26Z</time>
      </trkpt>
      <trkpt lat="47.12407" lon="-1.58831">
        <ele>57</ele>
        <time>2022-11-11T11:47:28Z</time>
      </trkpt>
      <trkpt lat="47.12405" lon="-1.58816">
        <ele>58</ele>
        <time>2022-11-11T11:47:30Z</time>
      </trkpt>
      <trkpt lat="47.12403" lon="-1.58801">
        <ele>58</ele>
        <time>2022-11-11T11:47:32Z</time>
      </trkpt>
      <trkpt lat="47.12401" lon="-1.58786">
        <ele>57</ele>
        <time>2022-11-11T11:47:34Z</time>
      </trkpt>
      <trkpt lat="47.12398" lon="-1.58771">
        <ele>57</ele>
        <time>2022-11-11T11:47:36Z</time>
      </trkpt>
      <trkpt lat="47.12395" lon="-1.58755">
        <ele>57</ele>
        <time>2022-11-11T11:47:38Z</time>
      </trkpt>
      <trkpt lat="47.12392" lon="-1.58739">
        <ele>57</ele>
        <time>2022-11-11T11:47:40Z</time>
      </trkpt>
      <trkpt lat="47.12388" lon="-1.58723">
        <ele>57</ele>
        <time>2022-11-11T11:47:42Z</time>
      </trkpt>
      <trkpt lat="47.12385" lon="-1.58707">
        <ele>57</ele>
        <time>2022-11-11T11:47:44Z</time>
      </trkpt>
      <trkpt lat="47.12381" lon="-1.5869">
        <ele>58</ele>
        <time>2022-11-11T11:47:46Z</time>
      </trkpt>
      <trkpt lat="47.12377" lon="-1.58673">
        <ele>58</ele>
        <time>2022-11-11T11:47:48Z</time>
      </trkpt>
      <trkpt lat="47.12373" lon="-1.58656">
        <ele>57</ele>
        <time>2022-11-11T11:47:50Z</time>
      </trkpt>
      <trkpt lat="47.1237" lon="-1.58639">
        <ele>57</ele>
        <time>2022-11-11T11:47:52Z</time>
      </trkpt>
      <trkpt lat="47.12366" lon="-1.58622">
        <ele>57</ele>
        <time>2022-11-11T11:47:54Z</time>
      </trkpt>
      <trkpt lat="47.12362" lon="-1.58604">
        <ele>57</ele>
        <time>2022-11-11T11:47:56Z</time>
      </trkpt>
      <trkpt lat="47.12357" lon="-1.58586">
        <ele>57</ele>
        <time>2022-11-11T11:47:58Z</time>
      </trkpt>
      <trkpt lat="47.12353" lon="-1.58568">
        <ele>56</ele>
        <time>2022-11-11T11:48:00Z</time>
      </trkpt>
      <trkpt lat="47.12349" lon="-1.58549">
        <ele>56</ele>
        <time>2022-11-11T11:48:02Z</time>
      </trkpt>
      <trkpt lat="47.12345" lon="-1.58532">
        <ele>56</ele>
        <time>2022-11-11T11:48:04Z</time>
      </trkpt>
      <trkpt lat="47.1234" lon="-1.58515">
        <ele>56</ele>
        <time>2022-11-11T11:48:06Z</time>
      </trkpt>
      <trkpt lat="47.12336" lon="-1.58496">
        <ele>56</ele>
        <time>2022-11-11T11:48:08Z</time>
      </trkpt>
      <trkpt lat="47.12333" lon="-1.58479">
        <ele>56</ele>
        <time>2022-11-11T11:48:10Z</time>
      </trkpt>
      <trkpt lat="47.12328" lon="-1.58464">
        <ele>56</ele>
        <time>2022-11-11T11:48:12Z</time>
      </trkpt>
      <trkpt lat="47.12321" lon="-1.58451">
        <ele>56</ele>
        <time>2022-11-11T11:48:14Z</time>
      </trkpt>
      <trkpt lat="47.12315" lon="-1.58437">
        <ele>56</ele>
        <time>2022-11-11T11:48:16Z</time>
      </trkpt>
      <trkpt lat="47.12309" lon="-1.58422">
        <ele>55</ele>
        <time>2022-11-11T11:48:18Z</time>
      </trkpt>
      <trkpt lat="47.12302" lon="-1.58408">
        <ele>55</ele>
        <time>2022-11-11T11:48:20Z</time>
      </trkpt>
      <trkpt lat="47.12296" lon="-1.58393">
        <ele>55</ele>
        <time>2022-11-11T11:48:22Z</time>
      </trkpt>
      <trkpt lat="47.12293" lon="-1.58375">
        <ele>55</ele>
        <time>2022-11-11T11:48:24Z</time>
      </trkpt>
      <trkpt lat="47.12291" lon="-1.58355">
        <ele>55</ele>
        <time>2022-11-11T11:48:26Z</time>
      </trkpt>
      <trkpt lat="47.12284" lon="-1.5834">
        <ele>55</ele>
        <time>2022-11-11T11:48:28Z</time>
      </trkpt>
      <trkpt lat="47.12272" lon="-1.5833">
        <ele>54</ele>
        <time>2022-11-11T11:48:30Z</time>
      </trkpt>
      <trkpt lat="47.12261" lon="-1.58319">
        <ele>54</ele>
        <time>2022-11-11T11:48:32Z</time>
      </trkpt>
      <trkpt lat="47.1225" lon="-1.58307">
        <ele>53</ele>
        <time>2022-11-11T11:48:34Z</time>
      </trkpt>
      <trkpt lat="47.12239" lon="-1.58296">
        <ele>53</ele>
        <time>2022-11-11T11:48:36Z</time>
      </trkpt>
      <trkpt lat="47.12229" lon="-1.58286">
        <ele>53</ele>
        <time>2022-11-11T11:48:38Z</time>
      </trkpt>
      <trkpt lat="47.12219" lon="-1.58275">
        <ele>52</ele>
        <time>2022-11-11T11:48:40Z</time>
      </trkpt>
      <trkpt lat="47.1221" lon="-1.58265">
        <ele>52</ele>
        <time>2022-11-11T11:48:42Z</time>
      </trkpt>
      <trkpt lat="47.122" lon="-1.58256">
        <ele>52</ele>
        <time>2022-11-11T11:48:44Z</time>
      </trkpt>
      <trkpt lat="47.12191" lon="-1.58247">
        <ele>52</ele>
        <time>2022-11-11T11:48:46Z</time>
      </trkpt>
      <trkpt lat="47.12181" lon="-1.58239">
        <ele>52</ele>
        <time>2022-11-11T11:48:48Z</time>
      </trkpt>
      <trkpt lat="47.12172" lon="-1.5823">
        <ele>53</ele>
        <time>2022-11-11T11:48:50Z</time>
      </trkpt>
      <trkpt lat="47.12162" lon="-1.58221">
        <ele>53</ele>
        <time>2022-11-11T11:48:52Z</time>
      </trkpt>
      <trkpt lat="47.12152" lon="-1.58212">
        <ele>52</ele>
        <time>2022-11-11T11:48:54Z</time>
      </trkpt>
      <trkpt lat="47.12143" lon="-1.58202">
        <ele>52</ele>
        <time>2022-11-11T11:48:56Z</time>
      </trkpt>
      <trkpt lat="47.12133" lon="-1.58193">
        <ele>53</ele>
        <time>2022-11-11T11:48:58Z</time>
      </trkpt>
      <trkpt lat="47.12125" lon="-1.58184">
        <ele>54</ele>
        <time>2022-11-11T11:49:00Z</time>
      </trkpt>
      <trkpt lat="47.12117" lon="-1.58175">
        <ele>54</ele>
        <time>2022-11-11T11:49:02Z</time>
      </trkpt>
      <trkpt lat="47.12108" lon="-1.58168">
        <ele>54</ele>
        <time>2022-11-11T11:49:04Z</time>
      </trkpt>
      <trkpt lat="47.12098" lon="-1.58162">
        <ele>54</ele>
        <time>2022-11-11T11:49:06Z</time>
      </trkpt>
      <trkpt lat="47.12087" lon="-1.58156">
        <ele>54</ele>
        <time>2022-11-11T11:49:08Z</time>
      </trkpt>
      <trkpt lat="47.12077" lon="-1.5815">
        <ele>54</ele>
        <time>2022-11-11T11:49:10Z</time>
      </trkpt>
      <trkpt lat="47.12067" lon="-1.58143">
        <ele>55</ele>
        <time>2022-11-11T11:49:12Z</time>
      </trkpt>
      <trkpt lat="47.12057" lon="-1.58136">
        <ele>55</ele>
        <time>2022-11-11T11:49:14Z</time>
      </trkpt>
      <trkpt lat="47.12048" lon="-1.58129">
        <ele>56</ele>
        <time>2022-11-11T11:49:16Z</time>
      </trkpt>
      <trkpt lat="47.12037" lon="-1.58123">
        <ele>56</ele>
        <time>2022-11-11T11:49:18Z</time>
      </trkpt>
      <trkpt lat="47.12027" lon="-1.58117">
        <ele>56</ele>
        <time>2022-11-11T11:49:20Z</time>
      </trkpt>
      <trkpt lat="47.12017" lon="-1.58111">
        <ele>56</ele>
        <time>2022-11-11T11:49:22Z</time>
      </trkpt>
      <trkpt lat="47.12006" lon="-1.58107">
        <ele>56</ele>
        <time>2022-11-11T11:49:24Z</time>
      </trkpt>
      <trkpt lat="47.11995" lon="-1.58105">
        <ele>56</ele>
        <time>2022-11-11T11:49:26Z</time>
      </trkpt>
      <trkpt lat="47.11985" lon="-1.58102">
        <ele>56</ele>
        <time>2022-11-11T11:49:28Z</time>
      </trkpt>
      <trkpt lat="47.11974" lon="-1.58098">
        <ele>57</ele>
        <time>2022-11-11T11:49:30Z</time>
      </trkpt>
      <trkpt lat="47.11962" lon="-1.58095">
        <ele>56</ele>
        <time>2022-11-11T11:49:32Z</time>
      </trkpt>
      <trkpt lat="47.11949" lon="-1.58092">
        <ele>57</ele>
        <time>2022-11-11T11:49:34Z</time>
      </trkpt>
      <trkpt lat="47.11937" lon="-1.58088">
        <ele>56</ele>
        <time>2022-11-11T11:49:36Z</time>
      </trkpt>
      <trkpt lat="47.11924" lon="-1.58085">
        <ele>56</ele>
        <time>2022-11-11T11:49:38Z</time>
      </trkpt>
      <trkpt lat="47.11912" lon="-1.58081">
        <ele>55</ele>
        <time>2022-11-11T11:49:40Z</time>
      </trkpt>
      <trkpt lat="47.11899" lon="-1.58078">
        <ele>55</ele>
        <time>2022-11-11T11:49:42Z</time>
      </trkpt>
      <trkpt lat="47.11885" lon="-1.58074">
        <ele>55</ele>
        <time>2022-11-11T11:49:44Z</time>
      </trkpt>
      <trkpt lat="47.11871" lon="-1.58071">
        <ele>55</ele>
        <time>2022-11-11T11:49:46Z</time>
      </trkpt>
      <trkpt lat="47.11857" lon="-1.58068">
        <ele>55</ele>
        <time>2022-11-11T11:49:48Z</time>
      </trkpt>
      <trkpt lat="47.11842" lon="-1.58064">
        <ele>55</ele>
        <time>2022-11-11T11:49:50Z</time>
      </trkpt>
      <trkpt lat="47.11828" lon="-1.58061">
        <ele>54</ele>
        <time>2022-11-11T11:49:52Z</time>
      </trkpt>
      <trkpt lat="47.11813" lon="-1.58058">
        <ele>54</ele>
        <time>2022-11-11T11:49:54Z</time>
      </trkpt>
      <trkpt lat="47.11798" lon="-1.58053">
        <ele>53</ele>
        <time>2022-11-11T11:49:56Z</time>
      </trkpt>
      <trkpt lat="47.11784" lon="-1.5805">
        <ele>52</ele>
        <time>2022-11-11T11:49:58Z</time>
      </trkpt>
      <trkpt lat="47.1177" lon="-1.58046">
        <ele>52</ele>
        <time>2022-11-11T11:50:00Z</time>
      </trkpt>
      <trkpt lat="47.11756" lon="-1.58043">
        <ele>52</ele>
        <time>2022-11-11T11:50:02Z</time>
      </trkpt>
      <trkpt lat="47.11743" lon="-1.58041">
        <ele>52</ele>
        <time>2022-11-11T11:50:04Z</time>
      </trkpt>
      <trkpt lat="47.11729" lon="-1.58039">
        <ele>52</ele>
        <time>2022-11-11T11:50:06Z</time>
      </trkpt>
      <trkpt lat="47.11715" lon="-1.58038">
        <ele>52</ele>
        <time>2022-11-11T11:50:08Z</time>
      </trkpt>
      <trkpt lat="47.11701" lon="-1.58036">
        <ele>52</ele>
        <time>2022-11-11T11:50:10Z</time>
      </trkpt>
      <trkpt lat="47.11687" lon="-1.58034">
        <ele>52</ele>
        <time>2022-11-11T11:50:12Z</time>
      </trkpt>
      <trkpt lat="47.11673" lon="-1.58034">
        <ele>51</ele>
        <time>2022-11-11T11:50:14Z</time>
      </trkpt>
      <trkpt lat="47.1166" lon="-1.58035">
        <ele>51</ele>
        <time>2022-11-11T11:50:16Z</time>
      </trkpt>
      <trkpt lat="47.11648" lon="-1.58041">
        <ele>52</ele>
        <time>2022-11-11T11:50:18Z</time>
      </trkpt>
      <trkpt lat="47.11636" lon="-1.58044">
        <ele>52</ele>
        <time>2022-11-11T11:50:20Z</time>
      </trkpt>
      <trkpt lat="47.11631" lon="-1.5803">
        <ele>52</ele>
        <time>2022-11-11T11:50:22Z</time>
      </trkpt>
      <trkpt lat="47.11635" lon="-1.58015">
        <ele>52</ele>
        <time>2022-11-11T11:50:24Z</time>
      </trkpt>
      <trkpt lat="47.11628" lon="-1.58004">
        <ele>52</ele>
        <time>2022-11-11T11:50:27Z</time>
      </trkpt>
      <trkpt lat="47.11619" lon="-1.58008">
        <ele>53</ele>
        <time>2022-11-11T11:50:29Z</time>
      </trkpt>
      <trkpt lat="47.11607" lon="-1.58014">
        <ele>53</ele>
        <time>2022-11-11T11:50:31Z</time>
      </trkpt>
      <trkpt lat="47.11594" lon="-1.58015">
        <ele>53</ele>
        <time>2022-11-11T11:50:33Z</time>
      </trkpt>
      <trkpt lat="47.1158" lon="-1.58014">
        <ele>53</ele>
        <time>2022-11-11T11:50:35Z</time>
      </trkpt>
      <trkpt lat="47.11567" lon="-1.58012">
        <ele>53</ele>
        <time>2022-11-11T11:50:37Z</time>
      </trkpt>
      <trkpt lat="47.11553" lon="-1.5801">
        <ele>53</ele>
        <time>2022-11-11T11:50:39Z</time>
      </trkpt>
      <trkpt lat="47.1154" lon="-1.5801">
        <ele>53</ele>
        <time>2022-11-11T11:50:41Z</time>
      </trkpt>
      <trkpt lat="47.11526" lon="-1.58011">
        <ele>53</ele>
        <time>2022-11-11T11:50:43Z</time>
      </trkpt>
      <trkpt lat="47.11512" lon="-1.58012">
        <ele>52</ele>
        <time>2022-11-11T11:50:45Z</time>
      </trkpt>
      <trkpt lat="47.11498" lon="-1.58013">
        <ele>53</ele>
        <time>2022-11-11T11:50:47Z</time>
      </trkpt>
      <trkpt lat="47.11484" lon="-1.58016">
        <ele>53</ele>
        <time>2022-11-11T11:50:49Z</time>
      </trkpt>
      <trkpt lat="47.1147" lon="-1.5802">
        <ele>54</ele>
        <time>2022-11-11T11:50:51Z</time>
      </trkpt>
      <trkpt lat="47.11456" lon="-1.58025">
        <ele>54</ele>
        <time>2022-11-11T11:50:53Z</time>
      </trkpt>
      <trkpt lat="47.11442" lon="-1.5803">
        <ele>54</ele>
        <time>2022-11-11T11:50:55Z</time>
      </trkpt>
      <trkpt lat="47.11429" lon="-1.58036">
        <ele>53</ele>
        <time>2022-11-11T11:50:57Z</time>
      </trkpt>
      <trkpt lat="47.11416" lon="-1.58042">
        <ele>53</ele>
        <time>2022-11-11T11:50:59Z</time>
      </trkpt>
      <trkpt lat="47.11403" lon="-1.5805">
        <ele>53</ele>
        <time>2022-11-11T11:51:01Z</time>
      </trkpt>
      <trkpt lat="47.11391" lon="-1.58058">
        <ele>53</ele>
        <time>2022-11-11T11:51:03Z</time>
      </trkpt>
      <trkpt lat="47.11378" lon="-1.58066">
        <ele>53</ele>
        <time>2022-11-11T11:51:05Z</time>
      </trkpt>
      <trkpt lat="47.11365" lon="-1.58074">
        <ele>53</ele>
        <time>2022-11-11T11:51:07Z</time>
      </trkpt>
      <trkpt lat="47.11353" lon="-1.58082">
        <ele>53</ele>
        <time>2022-11-11T11:51:09Z</time>
      </trkpt>
      <trkpt lat="47.11341" lon="-1.58089">
        <ele>53</ele>
        <time>2022-11-11T11:51:11Z</time>
      </trkpt>
      <trkpt lat="47.11329" lon="-1.58096">
        <ele>53</ele>
        <time>2022-11-11T11:51:13Z</time>
      </trkpt>
      <trkpt lat="47.11317" lon="-1.58102">
        <ele>53</ele>
        <time>2022-11-11T11:51:15Z</time>
      </trkpt>
      <trkpt lat="47.11304" lon="-1.5811">
        <ele>53</ele>
        <time>2022-11-11T11:51:17Z</time>
      </trkpt>
      <trkpt lat="47.11292" lon="-1.58119">
        <ele>53</ele>
        <time>2022-11-11T11:51:19Z</time>
      </trkpt>
      <trkpt lat="47.1128" lon="-1.58128">
        <ele>53</ele>
        <time>2022-11-11T11:51:21Z</time>
      </trkpt>
      <trkpt lat="47.11268" lon="-1.58137">
        <ele>53</ele>
        <time>2022-11-11T11:51:23Z</time>
      </trkpt>
      <trkpt lat="47.11257" lon="-1.58148">
        <ele>53</ele>
        <time>2022-11-11T11:51:25Z</time>
      </trkpt>
      <trkpt lat="47.11246" lon="-1.58159">
        <ele>53</ele>
        <time>2022-11-11T11:51:27Z</time>
      </trkpt>
      <trkpt lat="47.11235" lon="-1.5817">
        <ele>53</ele>
        <time>2022-11-11T11:51:29Z</time>
      </trkpt>
      <trkpt lat="47.11224" lon="-1.58182">
        <ele>53</ele>
        <time>2022-11-11T11:51:31Z</time>
      </trkpt>
      <trkpt lat="47.11214" lon="-1.58195">
        <ele>53</ele>
        <time>2022-11-11T11:51:33Z</time>
      </trkpt>
      <trkpt lat="47.11204" lon="-1.58208">
        <ele>53</ele>
        <time>2022-11-11T11:51:35Z</time>
      </trkpt>
      <trkpt lat="47.11195" lon="-1.5822">
        <ele>53</ele>
        <time>2022-11-11T11:51:37Z</time>
      </trkpt>
      <trkpt lat="47.11186" lon="-1.58233">
        <ele>53</ele>
        <time>2022-11-11T11:51:39Z</time>
      </trkpt>
      <trkpt lat="47.11176" lon="-1.58245">
        <ele>53</ele>
        <time>2022-11-11T11:51:41Z</time>
      </trkpt>
      <trkpt lat="47.11166" lon="-1.58256">
        <ele>54</ele>
        <time>2022-11-11T11:51:43Z</time>
      </trkpt>
      <trkpt lat="47.11156" lon="-1.58268">
        <ele>54</ele>
        <time>2022-11-11T11:51:45Z</time>
      </trkpt>
      <trkpt lat="47.11146" lon="-1.58279">
        <ele>54</ele>
        <time>2022-11-11T11:51:47Z</time>
      </trkpt>
      <trkpt lat="47.11136" lon="-1.58289">
        <ele>54</ele>
        <time>2022-11-11T11:51:49Z</time>
      </trkpt>
      <trkpt lat="47.11126" lon="-1.583">
        <ele>54</ele>
        <time>2022-11-11T11:51:51Z</time>
      </trkpt>
      <trkpt lat="47.11115" lon="-1.58312">
        <ele>54</ele>
        <time>2022-11-11T11:51:53Z</time>
      </trkpt>
      <trkpt lat="47.11106" lon="-1.58324">
        <ele>54</ele>
        <time>2022-11-11T11:51:55Z</time>
      </trkpt>
      <trkpt lat="47.11097" lon="-1.58338">
        <ele>54</ele>
        <time>2022-11-11T11:51:57Z</time>
      </trkpt>
      <trkpt lat="47.11088" lon="-1.58353">
        <ele>54</ele>
        <time>2022-11-11T11:51:59Z</time>
      </trkpt>
      <trkpt lat="47.11081" lon="-1.58369">
        <ele>54</ele>
        <time>2022-11-11T11:52:01Z</time>
      </trkpt>
      <trkpt lat="47.11074" lon="-1.58385">
        <ele>54</ele>
        <time>2022-11-11T11:52:03Z</time>
      </trkpt>
      <trkpt lat="47.11067" lon="-1.58401">
        <ele>54</ele>
        <time>2022-11-11T11:52:05Z</time>
      </trkpt>
      <trkpt lat="47.11059" lon="-1.58416">
        <ele>54</ele>
        <time>2022-11-11T11:52:07Z</time>
      </trkpt>
      <trkpt lat="47.11051" lon="-1.58433">
        <ele>54</ele>
        <time>2022-11-11T11:52:09Z</time>
      </trkpt>
      <trkpt lat="47.11043" lon="-1.58449">
        <ele>54</ele>
        <time>2022-11-11T11:52:11Z</time>
      </trkpt>
      <trkpt lat="47.11035" lon="-1.58465">
        <ele>54</ele>
        <time>2022-11-11T11:52:13Z</time>
      </trkpt>
      <trkpt lat="47.11025" lon="-1.58479">
        <ele>54</ele>
        <time>2022-11-11T11:52:15Z</time>
      </trkpt>
      <trkpt lat="47.11016" lon="-1.58493">
        <ele>55</ele>
        <time>2022-11-11T11:52:17Z</time>
      </trkpt>
      <trkpt lat="47.11007" lon="-1.58506">
        <ele>55</ele>
        <time>2022-11-11T11:52:19Z</time>
      </trkpt>
      <trkpt lat="47.10998" lon="-1.5852">
        <ele>55</ele>
        <time>2022-11-11T11:52:21Z</time>
      </trkpt>
      <trkpt lat="47.10989" lon="-1.58534">
        <ele>55</ele>
        <time>2022-11-11T11:52:23Z</time>
      </trkpt>
      <trkpt lat="47.10981" lon="-1.58548">
        <ele>56</ele>
        <time>2022-11-11T11:52:25Z</time>
      </trkpt>
      <trkpt lat="47.10973" lon="-1.58562">
        <ele>56</ele>
        <time>2022-11-11T11:52:27Z</time>
      </trkpt>
      <trkpt lat="47.10964" lon="-1.58575">
        <ele>56</ele>
        <time>2022-11-11T11:52:29Z</time>
      </trkpt>
      <trkpt lat="47.10956" lon="-1.58589">
        <ele>56</ele>
        <time>2022-11-11T11:52:31Z</time>
      </trkpt>
      <trkpt lat="47.10947" lon="-1.58602">
        <ele>57</ele>
        <time>2022-11-11T11:52:33Z</time>
      </trkpt>
      <trkpt lat="47.10938" lon="-1.58614">
        <ele>58</ele>
        <time>2022-11-11T11:52:35Z</time>
      </trkpt>
      <trkpt lat="47.10928" lon="-1.58626">
        <ele>58</ele>
        <time>2022-11-11T11:52:37Z</time>
      </trkpt>
      <trkpt lat="47.10919" lon="-1.58638">
        <ele>58</ele>
        <time>2022-11-11T11:52:39Z</time>
      </trkpt>
      <trkpt lat="47.10911" lon="-1.58651">
        <ele>59</ele>
        <time>2022-11-11T11:52:41Z</time>
      </trkpt>
      <trkpt lat="47.10903" lon="-1.58664">
        <ele>59</ele>
        <time>2022-11-11T11:52:43Z</time>
      </trkpt>
      <trkpt lat="47.10894" lon="-1.58677">
        <ele>59</ele>
        <time>2022-11-11T11:52:45Z</time>
      </trkpt>
      <trkpt lat="47.10886" lon="-1.58689">
        <ele>59</ele>
        <time>2022-11-11T11:52:47Z</time>
      </trkpt>
      <trkpt lat="47.10878" lon="-1.58702">
        <ele>60</ele>
        <time>2022-11-11T11:52:49Z</time>
      </trkpt>
      <trkpt lat="47.10869" lon="-1.58713">
        <ele>60</ele>
        <time>2022-11-11T11:52:51Z</time>
      </trkpt>
      <trkpt lat="47.1086" lon="-1.58721">
        <ele>60</ele>
        <time>2022-11-11T11:52:53Z</time>
      </trkpt>
      <trkpt lat="47.10853" lon="-1.58732">
        <ele>60</ele>
        <time>2022-11-11T11:52:55Z</time>
      </trkpt>
      <trkpt lat="47.10847" lon="-1.58746">
        <ele>60</ele>
        <time>2022-11-11T11:52:57Z</time>
      </trkpt>
      <trkpt lat="47.10838" lon="-1.58759">
        <ele>60</ele>
        <time>2022-11-11T11:52:59Z</time>
      </trkpt>
      <trkpt lat="47.1083" lon="-1.58771">
        <ele>60</ele>
        <time>2022-11-11T11:53:01Z</time>
      </trkpt>
      <trkpt lat="47.10822" lon="-1.58784">
        <ele>61</ele>
        <time>2022-11-11T11:53:03Z</time>
      </trkpt>
      <trkpt lat="47.10814" lon="-1.58796">
        <ele>61</ele>
        <time>2022-11-11T11:53:05Z</time>
      </trkpt>
      <trkpt lat="47.10806" lon="-1.58808">
        <ele>61</ele>
        <time>2022-11-11T11:53:07Z</time>
      </trkpt>
      <trkpt lat="47.10798" lon="-1.58821">
        <ele>62</ele>
        <time>2022-11-11T11:53:09Z</time>
      </trkpt>
      <trkpt lat="47.1079" lon="-1.58834">
        <ele>62</ele>
        <time>2022-11-11T11:53:11Z</time>
      </trkpt>
      <trkpt lat="47.10782" lon="-1.58846">
        <ele>62</ele>
        <time>2022-11-11T11:53:13Z</time>
      </trkpt>
      <trkpt lat="47.10775" lon="-1.58858">
        <ele>62</ele>
        <time>2022-11-11T11:53:15Z</time>
      </trkpt>
      <trkpt lat="47.10766" lon="-1.5887">
        <ele>62</ele>
        <time>2022-11-11T11:53:17Z</time>
      </trkpt>
      <trkpt lat="47.10758" lon="-1.58881">
        <ele>63</ele>
        <time>2022-11-11T11:53:19Z</time>
      </trkpt>
      <trkpt lat="47.1075" lon="-1.58894">
        <ele>63</ele>
        <time>2022-11-11T11:53:21Z</time>
      </trkpt>
      <trkpt lat="47.10744" lon="-1.58909">
        <ele>63</ele>
        <time>2022-11-11T11:53:23Z</time>
      </trkpt>
      <trkpt lat="47.10739" lon="-1.58924">
        <ele>63</ele>
        <time>2022-11-11T11:53:25Z</time>
      </trkpt>
      <trkpt lat="47.10733" lon="-1.58938">
        <ele>63</ele>
        <time>2022-11-11T11:53:27Z</time>
      </trkpt>
      <trkpt lat="47.10728" lon="-1.58952">
        <ele>63</ele>
        <time>2022-11-11T11:53:29Z</time>
      </trkpt>
      <trkpt lat="47.10723" lon="-1.58967">
        <ele>63</ele>
        <time>2022-11-11T11:53:31Z</time>
      </trkpt>
      <trkpt lat="47.10718" lon="-1.58983">
        <ele>62</ele>
        <time>2022-11-11T11:53:33Z</time>
      </trkpt>
      <trkpt lat="47.10711" lon="-1.58998">
        <ele>62</ele>
        <time>2022-11-11T11:53:35Z</time>
      </trkpt>
      <trkpt lat="47.10703" lon="-1.5901">
        <ele>62</ele>
        <time>2022-11-11T11:53:37Z</time>
      </trkpt>
      <trkpt lat="47.10695" lon="-1.59024">
        <ele>63</ele>
        <time>2022-11-11T11:53:39Z</time>
      </trkpt>
      <trkpt lat="47.10689" lon="-1.59037">
        <ele>62</ele>
        <time>2022-11-11T11:53:41Z</time>
      </trkpt>
      <trkpt lat="47.10685" lon="-1.59053">
        <ele>62</ele>
        <time>2022-11-11T11:53:43Z</time>
      </trkpt>
      <trkpt lat="47.10681" lon="-1.5907">
        <ele>61</ele>
        <time>2022-11-11T11:53:45Z</time>
      </trkpt>
      <trkpt lat="47.10676" lon="-1.59087">
        <ele>61</ele>
        <time>2022-11-11T11:53:47Z</time>
      </trkpt>
      <trkpt lat="47.1067" lon="-1.59105">
        <ele>61</ele>
        <time>2022-11-11T11:53:49Z</time>
      </trkpt>
      <trkpt lat="47.10664" lon="-1.59123">
        <ele>61</ele>
        <time>2022-11-11T11:53:51Z</time>
      </trkpt>
      <trkpt lat="47.10657" lon="-1.59142">
        <ele>60</ele>
        <time>2022-11-11T11:53:53Z</time>
      </trkpt>
      <trkpt lat="47.1065" lon="-1.5916">
        <ele>60</ele>
        <time>2022-11-11T11:53:55Z</time>
      </trkpt>
      <trkpt lat="47.10642" lon="-1.59177">
        <ele>59</ele>
        <time>2022-11-11T11:53:57Z</time>
      </trkpt>
      <trkpt lat="47.10633" lon="-1.59194">
        <ele>59</ele>
        <time>2022-11-11T11:53:59Z</time>
      </trkpt>
      <trkpt lat="47.10625" lon="-1.59211">
        <ele>59</ele>
        <time>2022-11-11T11:54:01Z</time>
      </trkpt>
      <trkpt lat="47.10615" lon="-1.59227">
        <ele>59</ele>
        <time>2022-11-11T11:54:03Z</time>
      </trkpt>
      <trkpt lat="47.10605" lon="-1.59243">
        <ele>59</ele>
        <time>2022-11-11T11:54:05Z</time>
      </trkpt>
      <trkpt lat="47.10596" lon="-1.59259">
        <ele>59</ele>
        <time>2022-11-11T11:54:07Z</time>
      </trkpt>
      <trkpt lat="47.10586" lon="-1.59276">
        <ele>59</ele>
        <time>2022-11-11T11:54:09Z</time>
      </trkpt>
      <trkpt lat="47.10577" lon="-1.59294">
        <ele>59</ele>
        <time>2022-11-11T11:54:11Z</time>
      </trkpt>
      <trkpt lat="47.10567" lon="-1.59311">
        <ele>58</ele>
        <time>2022-11-11T11:54:13Z</time>
      </trkpt>
      <trkpt lat="47.10557" lon="-1.59329">
        <ele>58</ele>
        <time>2022-11-11T11:54:15Z</time>
      </trkpt>
      <trkpt lat="47.10547" lon="-1.59347">
        <ele>58</ele>
        <time>2022-11-11T11:54:17Z</time>
      </trkpt>
      <trkpt lat="47.10537" lon="-1.59364">
        <ele>57</ele>
        <time>2022-11-11T11:54:19Z</time>
      </trkpt>
      <trkpt lat="47.10527" lon="-1.59381">
        <ele>57</ele>
        <time>2022-11-11T11:54:21Z</time>
      </trkpt>
      <trkpt lat="47.10516" lon="-1.59398">
        <ele>56</ele>
        <time>2022-11-11T11:54:23Z</time>
      </trkpt>
      <trkpt lat="47.10506" lon="-1.59416">
        <ele>56</ele>
        <time>2022-11-11T11:54:25Z</time>
      </trkpt>
      <trkpt lat="47.10496" lon="-1.59433">
        <ele>56</ele>
        <time>2022-11-11T11:54:27Z</time>
      </trkpt>
      <trkpt lat="47.10486" lon="-1.59451">
        <ele>56</ele>
        <time>2022-11-11T11:54:29Z</time>
      </trkpt>
      <trkpt lat="47.10476" lon="-1.59467">
        <ele>56</ele>
        <time>2022-11-11T11:54:31Z</time>
      </trkpt>
      <trkpt lat="47.10465" lon="-1.59484">
        <ele>56</ele>
        <time>2022-11-11T11:54:33Z</time>
      </trkpt>
      <trkpt lat="47.10455" lon="-1.59501">
        <ele>56</ele>
        <time>2022-11-11T11:54:35Z</time>
      </trkpt>
      <trkpt lat="47.10446" lon="-1.59518">
        <ele>56</ele>
        <time>2022-11-11T11:54:37Z</time>
      </trkpt>
      <trkpt lat="47.10436" lon="-1.59535">
        <ele>56</ele>
        <time>2022-11-11T11:54:39Z</time>
      </trkpt>
      <trkpt lat="47.10426" lon="-1.59551">
        <ele>55</ele>
        <time>2022-11-11T11:54:41Z</time>
      </trkpt>
      <trkpt lat="47.10416" lon="-1.59567">
        <ele>56</ele>
        <time>2022-11-11T11:54:43Z</time>
      </trkpt>
      <trkpt lat="47.10407" lon="-1.59583">
        <ele>55</ele>
        <time>2022-11-11T11:54:45Z</time>
      </trkpt>
      <trkpt lat="47.10398" lon="-1.596">
        <ele>55</ele>
        <time>2022-11-11T11:54:47Z</time>
      </trkpt>
      <trkpt lat="47.10388" lon="-1.59616">
        <ele>55</ele>
        <time>2022-11-11T11:54:49Z</time>
      </trkpt>
      <trkpt lat="47.10379" lon="-1.59632">
        <ele>55</ele>
        <time>2022-11-11T11:54:51Z</time>
      </trkpt>
      <trkpt lat="47.10369" lon="-1.59648">
        <ele>55</ele>
        <time>2022-11-11T11:54:53Z</time>
      </trkpt>
      <trkpt lat="47.10359" lon="-1.59663">
        <ele>55</ele>
        <time>2022-11-11T11:54:55Z</time>
      </trkpt>
      <trkpt lat="47.1035" lon="-1.59679">
        <ele>55</ele>
        <time>2022-11-11T11:54:57Z</time>
      </trkpt>
      <trkpt lat="47.1034" lon="-1.59695">
        <ele>55</ele>
        <time>2022-11-11T11:54:59Z</time>
      </trkpt>
      <trkpt lat="47.1033" lon="-1.59711">
        <ele>55</ele>
        <time>2022-11-11T11:55:01Z</time>
      </trkpt>
      <trkpt lat="47.1032" lon="-1.59727">
        <ele>55</ele>
        <time>2022-11-11T11:55:03Z</time>
      </trkpt>
      <trkpt lat="47.10309" lon="-1.59743">
        <ele>55</ele>
        <time>2022-11-11T11:55:05Z</time>
      </trkpt>
      <trkpt lat="47.103" lon="-1.59759">
        <ele>55</ele>
        <time>2022-11-11T11:55:07Z</time>
      </trkpt>
      <trkpt lat="47.10286" lon="-1.59783">
        <ele>54</ele>
        <time>2022-11-11T11:55:10Z</time>
      </trkpt>
      <trkpt lat="47.10277" lon="-1.598">
        <ele>55</ele>
        <time>2022-11-11T11:55:12Z</time>
      </trkpt>
      <trkpt lat="47.10268" lon="-1.59816">
        <ele>54</ele>
        <time>2022-11-11T11:55:14Z</time>
      </trkpt>
      <trkpt lat="47.10258" lon="-1.59832">
        <ele>54</ele>
        <time>2022-11-11T11:55:16Z</time>
      </trkpt>
      <trkpt lat="47.10249" lon="-1.59847">
        <ele>54</ele>
        <time>2022-11-11T11:55:18Z</time>
      </trkpt>
      <trkpt lat="47.10239" lon="-1.59862">
        <ele>54</ele>
        <time>2022-11-11T11:55:20Z</time>
      </trkpt>
      <trkpt lat="47.1023" lon="-1.59878">
        <ele>55</ele>
        <time>2022-11-11T11:55:22Z</time>
      </trkpt>
      <trkpt lat="47.10221" lon="-1.59894">
        <ele>55</ele>
        <time>2022-11-11T11:55:24Z</time>
      </trkpt>
      <trkpt lat="47.10211" lon="-1.59909">
        <ele>55</ele>
        <time>2022-11-11T11:55:26Z</time>
      </trkpt>
      <trkpt lat="47.10202" lon="-1.59925">
        <ele>55</ele>
        <time>2022-11-11T11:55:28Z</time>
      </trkpt>
      <trkpt lat="47.10192" lon="-1.59941">
        <ele>55</ele>
        <time>2022-11-11T11:55:30Z</time>
      </trkpt>
      <trkpt lat="47.10183" lon="-1.59957">
        <ele>55</ele>
        <time>2022-11-11T11:55:32Z</time>
      </trkpt>
      <trkpt lat="47.10173" lon="-1.59973">
        <ele>55</ele>
        <time>2022-11-11T11:55:34Z</time>
      </trkpt>
      <trkpt lat="47.10164" lon="-1.59989">
        <ele>56</ele>
        <time>2022-11-11T11:55:36Z</time>
      </trkpt>
      <trkpt lat="47.10154" lon="-1.60006">
        <ele>55</ele>
        <time>2022-11-11T11:55:38Z</time>
      </trkpt>
      <trkpt lat="47.10144" lon="-1.60022">
        <ele>56</ele>
        <time>2022-11-11T11:55:40Z</time>
      </trkpt>
      <trkpt lat="47.10135" lon="-1.60039">
        <ele>56</ele>
        <time>2022-11-11T11:55:42Z</time>
      </trkpt>
      <trkpt lat="47.10126" lon="-1.60054">
        <ele>55</ele>
        <time>2022-11-11T11:55:44Z</time>
      </trkpt>
      <trkpt lat="47.10118" lon="-1.60068">
        <ele>55</ele>
        <time>2022-11-11T11:55:46Z</time>
      </trkpt>
      <trkpt lat="47.10109" lon="-1.6008">
        <ele>55</ele>
        <time>2022-11-11T11:55:48Z</time>
      </trkpt>
      <trkpt lat="47.10101" lon="-1.60093">
        <ele>55</ele>
        <time>2022-11-11T11:55:50Z</time>
      </trkpt>
      <trkpt lat="47.10099" lon="-1.60111">
        <ele>55</ele>
        <time>2022-11-11T11:55:52Z</time>
      </trkpt>
      <trkpt lat="47.10101" lon="-1.6013">
        <ele>55</ele>
        <time>2022-11-11T11:55:54Z</time>
      </trkpt>
      <trkpt lat="47.10099" lon="-1.60148">
        <ele>54</ele>
        <time>2022-11-11T11:55:56Z</time>
      </trkpt>
      <trkpt lat="47.10092" lon="-1.60165">
        <ele>54</ele>
        <time>2022-11-11T11:55:58Z</time>
      </trkpt>
      <trkpt lat="47.10087" lon="-1.60184">
        <ele>55</ele>
        <time>2022-11-11T11:56:00Z</time>
      </trkpt>
      <trkpt lat="47.10085" lon="-1.60203">
        <ele>55</ele>
        <time>2022-11-11T11:56:02Z</time>
      </trkpt>
      <trkpt lat="47.10082" lon="-1.60222">
        <ele>55</ele>
        <time>2022-11-11T11:56:04Z</time>
      </trkpt>
      <trkpt lat="47.1008" lon="-1.60241">
        <ele>55</ele>
        <time>2022-11-11T11:56:06Z</time>
      </trkpt>
      <trkpt lat="47.10078" lon="-1.6026">
        <ele>55</ele>
        <time>2022-11-11T11:56:08Z</time>
      </trkpt>
      <trkpt lat="47.10077" lon="-1.60279">
        <ele>55</ele>
        <time>2022-11-11T11:56:10Z</time>
      </trkpt>
      <trkpt lat="47.10075" lon="-1.60299">
        <ele>55</ele>
        <time>2022-11-11T11:56:12Z</time>
      </trkpt>
      <trkpt lat="47.10073" lon="-1.60318">
        <ele>55</ele>
        <time>2022-11-11T11:56:14Z</time>
      </trkpt>
      <trkpt lat="47.10071" lon="-1.60338">
        <ele>55</ele>
        <time>2022-11-11T11:56:16Z</time>
      </trkpt>
      <trkpt lat="47.10069" lon="-1.60358">
        <ele>55</ele>
        <time>2022-11-11T11:56:18Z</time>
      </trkpt>
      <trkpt lat="47.10067" lon="-1.60379">
        <ele>54</ele>
        <time>2022-11-11T11:56:20Z</time>
      </trkpt>
      <trkpt lat="47.10065" lon="-1.60398">
        <ele>54</ele>
        <time>2022-11-11T11:56:22Z</time>
      </trkpt>
      <trkpt lat="47.10063" lon="-1.60419">
        <ele>54</ele>
        <time>2022-11-11T11:56:24Z</time>
      </trkpt>
      <trkpt lat="47.1006" lon="-1.60439">
        <ele>54</ele>
        <time>2022-11-11T11:56:26Z</time>
      </trkpt>
      <trkpt lat="47.10057" lon="-1.60457">
        <ele>54</ele>
        <time>2022-11-11T11:56:28Z</time>
      </trkpt>
      <trkpt lat="47.10053" lon="-1.60476">
        <ele>55</ele>
        <time>2022-11-11T11:56:30Z</time>
      </trkpt>
      <trkpt lat="47.10048" lon="-1.60496">
        <ele>55</ele>
        <time>2022-11-11T11:56:32Z</time>
      </trkpt>
      <trkpt lat="47.10043" lon="-1.60514">
        <ele>55</ele>
        <time>2022-11-11T11:56:34Z</time>
      </trkpt>
      <trkpt lat="47.10038" lon="-1.60533">
        <ele>55</ele>
        <time>2022-11-11T11:56:36Z</time>
      </trkpt>
      <trkpt lat="47.10032" lon="-1.60551">
        <ele>55</ele>
        <time>2022-11-11T11:56:38Z</time>
      </trkpt>
      <trkpt lat="47.10027" lon="-1.6057">
        <ele>55</ele>
        <time>2022-11-11T11:56:40Z</time>
      </trkpt>
      <trkpt lat="47.10022" lon="-1.60588">
        <ele>56</ele>
        <time>2022-11-11T11:56:42Z</time>
      </trkpt>
      <trkpt lat="47.10017" lon="-1.60607">
        <ele>55</ele>
        <time>2022-11-11T11:56:44Z</time>
      </trkpt>
      <trkpt lat="47.10011" lon="-1.60626">
        <ele>55</ele>
        <time>2022-11-11T11:56:46Z</time>
      </trkpt>
      <trkpt lat="47.10006" lon="-1.60644">
        <ele>55</ele>
        <time>2022-11-11T11:56:48Z</time>
      </trkpt>
      <trkpt lat="47.1" lon="-1.60663">
        <ele>55</ele>
        <time>2022-11-11T11:56:50Z</time>
      </trkpt>
      <trkpt lat="47.09995" lon="-1.60681">
        <ele>55</ele>
        <time>2022-11-11T11:56:52Z</time>
      </trkpt>
      <trkpt lat="47.09989" lon="-1.60699">
        <ele>55</ele>
        <time>2022-11-11T11:56:54Z</time>
      </trkpt>
      <trkpt lat="47.09984" lon="-1.60718">
        <ele>55</ele>
        <time>2022-11-11T11:56:56Z</time>
      </trkpt>
      <trkpt lat="47.09978" lon="-1.60737">
        <ele>55</ele>
        <time>2022-11-11T11:56:58Z</time>
      </trkpt>
      <trkpt lat="47.09972" lon="-1.60755">
        <ele>55</ele>
        <time>2022-11-11T11:57:00Z</time>
      </trkpt>
      <trkpt lat="47.09966" lon="-1.60774">
        <ele>55</ele>
        <time>2022-11-11T11:57:02Z</time>
      </trkpt>
      <trkpt lat="47.0996" lon="-1.60794">
        <ele>55</ele>
        <time>2022-11-11T11:57:04Z</time>
      </trkpt>
      <trkpt lat="47.09955" lon="-1.60813">
        <ele>55</ele>
        <time>2022-11-11T11:57:06Z</time>
      </trkpt>
      <trkpt lat="47.09949" lon="-1.60832">
        <ele>54</ele>
        <time>2022-11-11T11:57:08Z</time>
      </trkpt>
      <trkpt lat="47.09943" lon="-1.60851">
        <ele>55</ele>
        <time>2022-11-11T11:57:10Z</time>
      </trkpt>
      <trkpt lat="47.09936" lon="-1.60869">
        <ele>54</ele>
        <time>2022-11-11T11:57:12Z</time>
      </trkpt>
      <trkpt lat="47.09929" lon="-1.60888">
        <ele>54</ele>
        <time>2022-11-11T11:57:14Z</time>
      </trkpt>
      <trkpt lat="47.09922" lon="-1.60906">
        <ele>54</ele>
        <time>2022-11-11T11:57:16Z</time>
      </trkpt>
      <trkpt lat="47.09914" lon="-1.60923">
        <ele>54</ele>
        <time>2022-11-11T11:57:18Z</time>
      </trkpt>
      <trkpt lat="47.09907" lon="-1.60942">
        <ele>54</ele>
        <time>2022-11-11T11:57:20Z</time>
      </trkpt>
      <trkpt lat="47.09899" lon="-1.6096">
        <ele>53</ele>
        <time>2022-11-11T11:57:22Z</time>
      </trkpt>
      <trkpt lat="47.09892" lon="-1.60979">
        <ele>53</ele>
        <time>2022-11-11T11:57:24Z</time>
      </trkpt>
      <trkpt lat="47.09884" lon="-1.60998">
        <ele>53</ele>
        <time>2022-11-11T11:57:26Z</time>
      </trkpt>
      <trkpt lat="47.09877" lon="-1.61017">
        <ele>52</ele>
        <time>2022-11-11T11:57:28Z</time>
      </trkpt>
      <trkpt lat="47.09869" lon="-1.61036">
        <ele>52</ele>
        <time>2022-11-11T11:57:30Z</time>
      </trkpt>
      <trkpt lat="47.09861" lon="-1.61055">
        <ele>52</ele>
        <time>2022-11-11T11:57:32Z</time>
      </trkpt>
      <trkpt lat="47.0985" lon="-1.61072">
        <ele>51</ele>
        <time>2022-11-11T11:57:34Z</time>
      </trkpt>
      <trkpt lat="47.09838" lon="-1.61086">
        <ele>51</ele>
        <time>2022-11-11T11:57:36Z</time>
      </trkpt>
      <trkpt lat="47.09823" lon="-1.61097">
        <ele>51</ele>
        <time>2022-11-11T11:57:38Z</time>
      </trkpt>
      <trkpt lat="47.09808" lon="-1.61106">
        <ele>50</ele>
        <time>2022-11-11T11:57:40Z</time>
      </trkpt>
      <trkpt lat="47.09792" lon="-1.6111">
        <ele>50</ele>
        <time>2022-11-11T11:57:42Z</time>
      </trkpt>
      <trkpt lat="47.09777" lon="-1.61112">
        <ele>50</ele>
        <time>2022-11-11T11:57:44Z</time>
      </trkpt>
      <trkpt lat="47.09761" lon="-1.61114">
        <ele>50</ele>
        <time>2022-11-11T11:57:46Z</time>
      </trkpt>
      <trkpt lat="47.09747" lon="-1.61116">
        <ele>50</ele>
        <time>2022-11-11T11:57:48Z</time>
      </trkpt>
      <trkpt lat="47.09733" lon="-1.61118">
        <ele>50</ele>
        <time>2022-11-11T11:57:50Z</time>
      </trkpt>
      <trkpt lat="47.09719" lon="-1.61119">
        <ele>50</ele>
        <time>2022-11-11T11:57:52Z</time>
      </trkpt>
      <trkpt lat="47.09705" lon="-1.61121">
        <ele>50</ele>
        <time>2022-11-11T11:57:54Z</time>
      </trkpt>
      <trkpt lat="47.09692" lon="-1.61123">
        <ele>51</ele>
        <time>2022-11-11T11:57:56Z</time>
      </trkpt>
      <trkpt lat="47.09679" lon="-1.61125">
        <ele>52</ele>
        <time>2022-11-11T11:57:58Z</time>
      </trkpt>
      <trkpt lat="47.09665" lon="-1.61127">
        <ele>52</ele>
        <time>2022-11-11T11:58:00Z</time>
      </trkpt>
      <trkpt lat="47.09652" lon="-1.61128">
        <ele>52</ele>
        <time>2022-11-11T11:58:02Z</time>
      </trkpt>
      <trkpt lat="47.09639" lon="-1.61129">
        <ele>52</ele>
        <time>2022-11-11T11:58:04Z</time>
      </trkpt>
      <trkpt lat="47.09626" lon="-1.61131">
        <ele>53</ele>
        <time>2022-11-11T11:58:06Z</time>
      </trkpt>
      <trkpt lat="47.09614" lon="-1.61133">
        <ele>53</ele>
        <time>2022-11-11T11:58:08Z</time>
      </trkpt>
      <trkpt lat="47.09602" lon="-1.61134">
        <ele>53</ele>
        <time>2022-11-11T11:58:10Z</time>
      </trkpt>
      <trkpt lat="47.0959" lon="-1.61136">
        <ele>53</ele>
        <time>2022-11-11T11:58:12Z</time>
      </trkpt>
      <trkpt lat="47.09578" lon="-1.61137">
        <ele>53</ele>
        <time>2022-11-11T11:58:14Z</time>
      </trkpt>
      <trkpt lat="47.09566" lon="-1.61139">
        <ele>54</ele>
        <time>2022-11-11T11:58:16Z</time>
      </trkpt>
      <trkpt lat="47.09554" lon="-1.6114">
        <ele>54</ele>
        <time>2022-11-11T11:58:18Z</time>
      </trkpt>
      <trkpt lat="47.09542" lon="-1.61141">
        <ele>53</ele>
        <time>2022-11-11T11:58:20Z</time>
      </trkpt>
      <trkpt lat="47.0953" lon="-1.61143">
        <ele>53</ele>
        <time>2022-11-11T11:58:22Z</time>
      </trkpt>
      <trkpt lat="47.09518" lon="-1.61146">
        <ele>53</ele>
        <time>2022-11-11T11:58:24Z</time>
      </trkpt>
      <trkpt lat="47.09506" lon="-1.61151">
        <ele>53</ele>
        <time>2022-11-11T11:58:26Z</time>
      </trkpt>
      <trkpt lat="47.09495" lon="-1.61157">
        <ele>53</ele>
        <time>2022-11-11T11:58:28Z</time>
      </trkpt>
      <trkpt lat="47.09484" lon="-1.61165">
        <ele>54</ele>
        <time>2022-11-11T11:58:30Z</time>
      </trkpt>
      <trkpt lat="47.09474" lon="-1.61176">
        <ele>53</ele>
        <time>2022-11-11T11:58:32Z</time>
      </trkpt>
      <trkpt lat="47.09464" lon="-1.61188">
        <ele>53</ele>
        <time>2022-11-11T11:58:34Z</time>
      </trkpt>
      <trkpt lat="47.09454" lon="-1.61199">
        <ele>54</ele>
        <time>2022-11-11T11:58:36Z</time>
      </trkpt>
      <trkpt lat="47.09444" lon="-1.61211">
        <ele>54</ele>
        <time>2022-11-11T11:58:38Z</time>
      </trkpt>
      <trkpt lat="47.09435" lon="-1.61222">
        <ele>54</ele>
        <time>2022-11-11T11:58:40Z</time>
      </trkpt>
      <trkpt lat="47.09425" lon="-1.61232">
        <ele>55</ele>
        <time>2022-11-11T11:58:42Z</time>
      </trkpt>
      <trkpt lat="47.09414" lon="-1.61236">
        <ele>56</ele>
        <time>2022-11-11T11:58:44Z</time>
      </trkpt>
      <trkpt lat="47.09401" lon="-1.61232">
        <ele>56</ele>
        <time>2022-11-11T11:58:46Z</time>
      </trkpt>
      <trkpt lat="47.09388" lon="-1.61227">
        <ele>56</ele>
        <time>2022-11-11T11:58:48Z</time>
      </trkpt>
      <trkpt lat="47.09376" lon="-1.61221">
        <ele>56</ele>
        <time>2022-11-11T11:58:50Z</time>
      </trkpt>
      <trkpt lat="47.09365" lon="-1.61216">
        <ele>57</ele>
        <time>2022-11-11T11:58:52Z</time>
      </trkpt>
      <trkpt lat="47.09353" lon="-1.61212">
        <ele>57</ele>
        <time>2022-11-11T11:58:54Z</time>
      </trkpt>
      <trkpt lat="47.09341" lon="-1.61208">
        <ele>57</ele>
        <time>2022-11-11T11:58:56Z</time>
      </trkpt>
      <trkpt lat="47.09329" lon="-1.61206">
        <ele>57</ele>
        <time>2022-11-11T11:58:58Z</time>
      </trkpt>
      <trkpt lat="47.09316" lon="-1.61202">
        <ele>57</ele>
        <time>2022-11-11T11:59:00Z</time>
      </trkpt>
      <trkpt lat="47.09305" lon="-1.612">
        <ele>57</ele>
        <time>2022-11-11T11:59:02Z</time>
      </trkpt>
      <trkpt lat="47.09294" lon="-1.61197">
        <ele>58</ele>
        <time>2022-11-11T11:59:04Z</time>
      </trkpt>
      <trkpt lat="47.09283" lon="-1.61193">
        <ele>58</ele>
        <time>2022-11-11T11:59:06Z</time>
      </trkpt>
      <trkpt lat="47.09271" lon="-1.61189">
        <ele>57</ele>
        <time>2022-11-11T11:59:08Z</time>
      </trkpt>
      <trkpt lat="47.09259" lon="-1.61185">
        <ele>57</ele>
        <time>2022-11-11T11:59:10Z</time>
      </trkpt>
      <trkpt lat="47.09247" lon="-1.61181">
        <ele>58</ele>
        <time>2022-11-11T11:59:12Z</time>
      </trkpt>
      <trkpt lat="47.09235" lon="-1.61176">
        <ele>59</ele>
        <time>2022-11-11T11:59:14Z</time>
      </trkpt>
      <trkpt lat="47.09224" lon="-1.61168">
        <ele>59</ele>
        <time>2022-11-11T11:59:16Z</time>
      </trkpt>
      <trkpt lat="47.09214" lon="-1.61159">
        <ele>59</ele>
        <time>2022-11-11T11:59:18Z</time>
      </trkpt>
      <trkpt lat="47.09203" lon="-1.61154">
        <ele>59</ele>
        <time>2022-11-11T11:59:20Z</time>
      </trkpt>
      <trkpt lat="47.09191" lon="-1.61151">
        <ele>59</ele>
        <time>2022-11-11T11:59:22Z</time>
      </trkpt>
      <trkpt lat="47.09179" lon="-1.61147">
        <ele>59</ele>
        <time>2022-11-11T11:59:24Z</time>
      </trkpt>
      <trkpt lat="47.09167" lon="-1.61143">
        <ele>59</ele>
        <time>2022-11-11T11:59:26Z</time>
      </trkpt>
      <trkpt lat="47.09155" lon="-1.6114">
        <ele>59</ele>
        <time>2022-11-11T11:59:28Z</time>
      </trkpt>
      <trkpt lat="47.09144" lon="-1.61137">
        <ele>59</ele>
        <time>2022-11-11T11:59:30Z</time>
      </trkpt>
      <trkpt lat="47.09131" lon="-1.61133">
        <ele>59</ele>
        <time>2022-11-11T11:59:32Z</time>
      </trkpt>
      <trkpt lat="47.09119" lon="-1.6113">
        <ele>59</ele>
        <time>2022-11-11T11:59:34Z</time>
      </trkpt>
      <trkpt lat="47.09106" lon="-1.61126">
        <ele>59</ele>
        <time>2022-11-11T11:59:36Z</time>
      </trkpt>
      <trkpt lat="47.09094" lon="-1.61123">
        <ele>59</ele>
        <time>2022-11-11T11:59:38Z</time>
      </trkpt>
      <trkpt lat="47.09083" lon="-1.61119">
        <ele>59</ele>
        <time>2022-11-11T11:59:40Z</time>
      </trkpt>
      <trkpt lat="47.09071" lon="-1.61115">
        <ele>59</ele>
        <time>2022-11-11T11:59:42Z</time>
      </trkpt>
      <trkpt lat="47.09059" lon="-1.61111">
        <ele>59</ele>
        <time>2022-11-11T11:59:44Z</time>
      </trkpt>
      <trkpt lat="47.09047" lon="-1.61106">
        <ele>59</ele>
        <time>2022-11-11T11:59:46Z</time>
      </trkpt>
      <trkpt lat="47.09035" lon="-1.61103">
        <ele>59</ele>
        <time>2022-11-11T11:59:48Z</time>
      </trkpt>
      <trkpt lat="47.09023" lon="-1.61099">
        <ele>59</ele>
        <time>2022-11-11T11:59:50Z</time>
      </trkpt>
      <trkpt lat="47.09011" lon="-1.61096">
        <ele>59</ele>
        <time>2022-11-11T11:59:52Z</time>
      </trkpt>
      <trkpt lat="47.08999" lon="-1.61093">
        <ele>58</ele>
        <time>2022-11-11T11:59:54Z</time>
      </trkpt>
      <trkpt lat="47.08987" lon="-1.61091">
        <ele>58</ele>
        <time>2022-11-11T11:59:56Z</time>
      </trkpt>
      <trkpt lat="47.08975" lon="-1.61091">
        <ele>57</ele>
        <time>2022-11-11T11:59:58Z</time>
      </trkpt>
      <trkpt lat="47.08962" lon="-1.61093">
        <ele>57</ele>
        <time>2022-11-11T12:00:00Z</time>
      </trkpt>
      <trkpt lat="47.08949" lon="-1.61099">
        <ele>57</ele>
        <time>2022-11-11T12:00:02Z</time>
      </trkpt>
      <trkpt lat="47.08937" lon="-1.61104">
        <ele>56</ele>
        <time>2022-11-11T12:00:04Z</time>
      </trkpt>
      <trkpt lat="47.08924" lon="-1.61109">
        <ele>57</ele>
        <time>2022-11-11T12:00:06Z</time>
      </trkpt>
      <trkpt lat="47.08912" lon="-1.61114">
        <ele>56</ele>
        <time>2022-11-11T12:00:08Z</time>
      </trkpt>
      <trkpt lat="47.08899" lon="-1.6112">
        <ele>56</ele>
        <time>2022-11-11T12:00:10Z</time>
      </trkpt>
      <trkpt lat="47.08886" lon="-1.61126">
        <ele>56</ele>
        <time>2022-11-11T12:00:12Z</time>
      </trkpt>
      <trkpt lat="47.08872" lon="-1.61133">
        <ele>55</ele>
        <time>2022-11-11T12:00:14Z</time>
      </trkpt>
      <trkpt lat="47.08859" lon="-1.61139">
        <ele>55</ele>
        <time>2022-11-11T12:00:16Z</time>
      </trkpt>
      <trkpt lat="47.08846" lon="-1.61144">
        <ele>55</ele>
        <time>2022-11-11T12:00:18Z</time>
      </trkpt>
      <trkpt lat="47.08832" lon="-1.6115">
        <ele>54</ele>
        <time>2022-11-11T12:00:20Z</time>
      </trkpt>
      <trkpt lat="47.08819" lon="-1.61155">
        <ele>54</ele>
        <time>2022-11-11T12:00:22Z</time>
      </trkpt>
      <trkpt lat="47.08806" lon="-1.61161">
        <ele>54</ele>
        <time>2022-11-11T12:00:24Z</time>
      </trkpt>
      <trkpt lat="47.08793" lon="-1.61167">
        <ele>54</ele>
        <time>2022-11-11T12:00:26Z</time>
      </trkpt>
      <trkpt lat="47.08779" lon="-1.61173">
        <ele>55</ele>
        <time>2022-11-11T12:00:28Z</time>
      </trkpt>
      <trkpt lat="47.08766" lon="-1.61178">
        <ele>55</ele>
        <time>2022-11-11T12:00:30Z</time>
      </trkpt>
      <trkpt lat="47.08752" lon="-1.61184">
        <ele>54</ele>
        <time>2022-11-11T12:00:32Z</time>
      </trkpt>
      <trkpt lat="47.08738" lon="-1.61191">
        <ele>54</ele>
        <time>2022-11-11T12:00:34Z</time>
      </trkpt>
      <trkpt lat="47.08724" lon="-1.61197">
        <ele>54</ele>
        <time>2022-11-11T12:00:36Z</time>
      </trkpt>
      <trkpt lat="47.08709" lon="-1.61203">
        <ele>54</ele>
        <time>2022-11-11T12:00:38Z</time>
      </trkpt>
      <trkpt lat="47.08695" lon="-1.61208">
        <ele>54</ele>
        <time>2022-11-11T12:00:40Z</time>
      </trkpt>
      <trkpt lat="47.08682" lon="-1.61214">
        <ele>54</ele>
        <time>2022-11-11T12:00:42Z</time>
      </trkpt>
      <trkpt lat="47.08668" lon="-1.6122">
        <ele>54</ele>
        <time>2022-11-11T12:00:44Z</time>
      </trkpt>
      <trkpt lat="47.08654" lon="-1.61226">
        <ele>54</ele>
        <time>2022-11-11T12:00:46Z</time>
      </trkpt>
      <trkpt lat="47.0864" lon="-1.61232">
        <ele>54</ele>
        <time>2022-11-11T12:00:48Z</time>
      </trkpt>
      <trkpt lat="47.08627" lon="-1.61238">
        <ele>53</ele>
        <time>2022-11-11T12:00:50Z</time>
      </trkpt>
      <trkpt lat="47.08613" lon="-1.61244">
        <ele>53</ele>
        <time>2022-11-11T12:00:52Z</time>
      </trkpt>
      <trkpt lat="47.08599" lon="-1.6125">
        <ele>53</ele>
        <time>2022-11-11T12:00:54Z</time>
      </trkpt>
      <trkpt lat="47.08586" lon="-1.61256">
        <ele>52</ele>
        <time>2022-11-11T12:00:56Z</time>
      </trkpt>
      <trkpt lat="47.08572" lon="-1.61262">
        <ele>52</ele>
        <time>2022-11-11T12:00:58Z</time>
      </trkpt>
      <trkpt lat="47.08559" lon="-1.61267">
        <ele>53</ele>
        <time>2022-11-11T12:01:00Z</time>
      </trkpt>
      <trkpt lat="47.08546" lon="-1.61273">
        <ele>53</ele>
        <time>2022-11-11T12:01:02Z</time>
      </trkpt>
      <trkpt lat="47.08532" lon="-1.61279">
        <ele>52</ele>
        <time>2022-11-11T12:01:04Z</time>
      </trkpt>
      <trkpt lat="47.08519" lon="-1.61285">
        <ele>52</ele>
        <time>2022-11-11T12:01:06Z</time>
      </trkpt>
      <trkpt lat="47.08505" lon="-1.61291">
        <ele>52</ele>
        <time>2022-11-11T12:01:08Z</time>
      </trkpt>
      <trkpt lat="47.08492" lon="-1.61297">
        <ele>52</ele>
        <time>2022-11-11T12:01:10Z</time>
      </trkpt>
      <trkpt lat="47.08478" lon="-1.61301">
        <ele>52</ele>
        <time>2022-11-11T12:01:12Z</time>
      </trkpt>
      <trkpt lat="47.08465" lon="-1.61307">
        <ele>52</ele>
        <time>2022-11-11T12:01:14Z</time>
      </trkpt>
      <trkpt lat="47.08452" lon="-1.61312">
        <ele>51</ele>
        <time>2022-11-11T12:01:16Z</time>
      </trkpt>
      <trkpt lat="47.08438" lon="-1.61318">
        <ele>51</ele>
        <time>2022-11-11T12:01:18Z</time>
      </trkpt>
      <trkpt lat="47.08425" lon="-1.61324">
        <ele>51</ele>
        <time>2022-11-11T12:01:20Z</time>
      </trkpt>
      <trkpt lat="47.08412" lon="-1.61329">
        <ele>51</ele>
        <time>2022-11-11T12:01:22Z</time>
      </trkpt>
      <trkpt lat="47.08399" lon="-1.61335">
        <ele>51</ele>
        <time>2022-11-11T12:01:24Z</time>
      </trkpt>
      <trkpt lat="47.08386" lon="-1.6134">
        <ele>51</ele>
        <time>2022-11-11T12:01:26Z</time>
      </trkpt>
      <trkpt lat="47.08373" lon="-1.61346">
        <ele>51</ele>
        <time>2022-11-11T12:01:28Z</time>
      </trkpt>
      <trkpt lat="47.08361" lon="-1.61352">
        <ele>51</ele>
        <time>2022-11-11T12:01:30Z</time>
      </trkpt>
      <trkpt lat="47.08348" lon="-1.61357">
        <ele>51</ele>
        <time>2022-11-11T12:01:32Z</time>
      </trkpt>
      <trkpt lat="47.08335" lon="-1.61363">
        <ele>50</ele>
        <time>2022-11-11T12:01:34Z</time>
      </trkpt>
      <trkpt lat="47.08322" lon="-1.61368">
        <ele>50</ele>
        <time>2022-11-11T12:01:36Z</time>
      </trkpt>
      <trkpt lat="47.08309" lon="-1.61374">
        <ele>50</ele>
        <time>2022-11-11T12:01:38Z</time>
      </trkpt>
      <trkpt lat="47.08296" lon="-1.61379">
        <ele>50</ele>
        <time>2022-11-11T12:01:40Z</time>
      </trkpt>
      <trkpt lat="47.08283" lon="-1.61384">
        <ele>50</ele>
        <time>2022-11-11T12:01:42Z</time>
      </trkpt>
      <trkpt lat="47.08271" lon="-1.6139">
        <ele>50</ele>
        <time>2022-11-11T12:01:44Z</time>
      </trkpt>
      <trkpt lat="47.08259" lon="-1.61395">
        <ele>50</ele>
        <time>2022-11-11T12:01:46Z</time>
      </trkpt>
      <trkpt lat="47.08245" lon="-1.61401">
        <ele>50</ele>
        <time>2022-11-11T12:01:48Z</time>
      </trkpt>
      <trkpt lat="47.08233" lon="-1.61406">
        <ele>50</ele>
        <time>2022-11-11T12:01:50Z</time>
      </trkpt>
      <trkpt lat="47.0822" lon="-1.61412">
        <ele>50</ele>
        <time>2022-11-11T12:01:52Z</time>
      </trkpt>
      <trkpt lat="47.08207" lon="-1.61417">
        <ele>50</ele>
        <time>2022-11-11T12:01:54Z</time>
      </trkpt>
      <trkpt lat="47.08195" lon="-1.61422">
        <ele>50</ele>
        <time>2022-11-11T12:01:56Z</time>
      </trkpt>
      <trkpt lat="47.08183" lon="-1.61427">
        <ele>50</ele>
        <time>2022-11-11T12:01:58Z</time>
      </trkpt>
      <trkpt lat="47.0817" lon="-1.61433">
        <ele>50</ele>
        <time>2022-11-11T12:02:00Z</time>
      </trkpt>
      <trkpt lat="47.08157" lon="-1.61438">
        <ele>51</ele>
        <time>2022-11-11T12:02:02Z</time>
      </trkpt>
      <trkpt lat="47.08145" lon="-1.61444">
        <ele>51</ele>
        <time>2022-11-11T12:02:04Z</time>
      </trkpt>
      <trkpt lat="47.08132" lon="-1.61449">
        <ele>51</ele>
        <time>2022-11-11T12:02:06Z</time>
      </trkpt>
      <trkpt lat="47.0812" lon="-1.61455">
        <ele>51</ele>
        <time>2022-11-11T12:02:08Z</time>
      </trkpt>
      <trkpt lat="47.08107" lon="-1.6146">
        <ele>51</ele>
        <time>2022-11-11T12:02:10Z</time>
      </trkpt>
      <trkpt lat="47.08095" lon="-1.61465">
        <ele>51</ele>
        <time>2022-11-11T12:02:12Z</time>
      </trkpt>
      <trkpt lat="47.08082" lon="-1.61471">
        <ele>51</ele>
        <time>2022-11-11T12:02:14Z</time>
      </trkpt>
      <trkpt lat="47.08069" lon="-1.61476">
        <ele>51</ele>
        <time>2022-11-11T12:02:16Z</time>
      </trkpt>
      <trkpt lat="47.08056" lon="-1.61481">
        <ele>51</ele>
        <time>2022-11-11T12:02:18Z</time>
      </trkpt>
      <trkpt lat="47.08044" lon="-1.61487">
        <ele>51</ele>
        <time>2022-11-11T12:02:20Z</time>
      </trkpt>
      <trkpt lat="47.08031" lon="-1.61492">
        <ele>51</ele>
        <time>2022-11-11T12:02:22Z</time>
      </trkpt>
      <trkpt lat="47.08019" lon="-1.61497">
        <ele>51</ele>
        <time>2022-11-11T12:02:24Z</time>
      </trkpt>
      <trkpt lat="47.08006" lon="-1.61502">
        <ele>51</ele>
        <time>2022-11-11T12:02:26Z</time>
      </trkpt>
      <trkpt lat="47.07994" lon="-1.61507">
        <ele>51</ele>
        <time>2022-11-11T12:02:28Z</time>
      </trkpt>
      <trkpt lat="47.07981" lon="-1.61513">
        <ele>51</ele>
        <time>2022-11-11T12:02:30Z</time>
      </trkpt>
      <trkpt lat="47.07969" lon="-1.61518">
        <ele>51</ele>
        <time>2022-11-11T12:02:32Z</time>
      </trkpt>
      <trkpt lat="47.07956" lon="-1.61523">
        <ele>51</ele>
        <time>2022-11-11T12:02:34Z</time>
      </trkpt>
      <trkpt lat="47.07943" lon="-1.61529">
        <ele>51</ele>
        <time>2022-11-11T12:02:36Z</time>
      </trkpt>
      <trkpt lat="47.07931" lon="-1.61535">
        <ele>51</ele>
        <time>2022-11-11T12:02:38Z</time>
      </trkpt>
      <trkpt lat="47.07918" lon="-1.61541">
        <ele>51</ele>
        <time>2022-11-11T12:02:40Z</time>
      </trkpt>
      <trkpt lat="47.07905" lon="-1.61546">
        <ele>51</ele>
        <time>2022-11-11T12:02:42Z</time>
      </trkpt>
      <trkpt lat="47.07891" lon="-1.61551">
        <ele>51</ele>
        <time>2022-11-11T12:02:44Z</time>
      </trkpt>
      <trkpt lat="47.07878" lon="-1.61557">
        <ele>50</ele>
        <time>2022-11-11T12:02:46Z</time>
      </trkpt>
      <trkpt lat="47.07865" lon="-1.61563">
        <ele>50</ele>
        <time>2022-11-11T12:02:48Z</time>
      </trkpt>
      <trkpt lat="47.07852" lon="-1.61569">
        <ele>50</ele>
        <time>2022-11-11T12:02:50Z</time>
      </trkpt>
      <trkpt lat="47.07839" lon="-1.61576">
        <ele>50</ele>
        <time>2022-11-11T12:02:52Z</time>
      </trkpt>
      <trkpt lat="47.07826" lon="-1.61584">
        <ele>49</ele>
        <time>2022-11-11T12:02:54Z</time>
      </trkpt>
      <trkpt lat="47.07813" lon="-1.61593">
        <ele>49</ele>
        <time>2022-11-11T12:02:56Z</time>
      </trkpt>
      <trkpt lat="47.07801" lon="-1.61602">
        <ele>49</ele>
        <time>2022-11-11T12:02:58Z</time>
      </trkpt>
      <trkpt lat="47.0779" lon="-1.61614">
        <ele>49</ele>
        <time>2022-11-11T12:03:00Z</time>
      </trkpt>
      <trkpt lat="47.07778" lon="-1.61625">
        <ele>50</ele>
        <time>2022-11-11T12:03:02Z</time>
      </trkpt>
      <trkpt lat="47.07768" lon="-1.61638">
        <ele>50</ele>
        <time>2022-11-11T12:03:04Z</time>
      </trkpt>
      <trkpt lat="47.07757" lon="-1.6165">
        <ele>50</ele>
        <time>2022-11-11T12:03:06Z</time>
      </trkpt>
      <trkpt lat="47.07747" lon="-1.61662">
        <ele>50</ele>
        <time>2022-11-11T12:03:08Z</time>
      </trkpt>
      <trkpt lat="47.07737" lon="-1.61674">
        <ele>50</ele>
        <time>2022-11-11T12:03:10Z</time>
      </trkpt>
      <trkpt lat="47.07727" lon="-1.61685">
        <ele>51</ele>
        <time>2022-11-11T12:03:12Z</time>
      </trkpt>
      <trkpt lat="47.07717" lon="-1.61697">
        <ele>51</ele>
        <time>2022-11-11T12:03:14Z</time>
      </trkpt>
      <trkpt lat="47.07707" lon="-1.61709">
        <ele>52</ele>
        <time>2022-11-11T12:03:16Z</time>
      </trkpt>
      <trkpt lat="47.07696" lon="-1.6172">
        <ele>52</ele>
        <time>2022-11-11T12:03:18Z</time>
      </trkpt>
      <trkpt lat="47.07686" lon="-1.61732">
        <ele>52</ele>
        <time>2022-11-11T12:03:20Z</time>
      </trkpt>
      <trkpt lat="47.07677" lon="-1.61743">
        <ele>52</ele>
        <time>2022-11-11T12:03:22Z</time>
      </trkpt>
      <trkpt lat="47.07667" lon="-1.61754">
        <ele>53</ele>
        <time>2022-11-11T12:03:24Z</time>
      </trkpt>
      <trkpt lat="47.07658" lon="-1.61764">
        <ele>53</ele>
        <time>2022-11-11T12:03:26Z</time>
      </trkpt>
      <trkpt lat="47.07649" lon="-1.61775">
        <ele>53</ele>
        <time>2022-11-11T12:03:28Z</time>
      </trkpt>
      <trkpt lat="47.07639" lon="-1.61786">
        <ele>54</ele>
        <time>2022-11-11T12:03:30Z</time>
      </trkpt>
      <trkpt lat="47.07629" lon="-1.61798">
        <ele>54</ele>
        <time>2022-11-11T12:03:32Z</time>
      </trkpt>
      <trkpt lat="47.0762" lon="-1.61809">
        <ele>54</ele>
        <time>2022-11-11T12:03:34Z</time>
      </trkpt>
      <trkpt lat="47.0761" lon="-1.61821">
        <ele>54</ele>
        <time>2022-11-11T12:03:36Z</time>
      </trkpt>
      <trkpt lat="47.07601" lon="-1.61831">
        <ele>55</ele>
        <time>2022-11-11T12:03:38Z</time>
      </trkpt>
      <trkpt lat="47.07591" lon="-1.61842">
        <ele>55</ele>
        <time>2022-11-11T12:03:40Z</time>
      </trkpt>
      <trkpt lat="47.07582" lon="-1.61853">
        <ele>55</ele>
        <time>2022-11-11T12:03:42Z</time>
      </trkpt>
      <trkpt lat="47.07572" lon="-1.61864">
        <ele>55</ele>
        <time>2022-11-11T12:03:44Z</time>
      </trkpt>
      <trkpt lat="47.07563" lon="-1.61875">
        <ele>55</ele>
        <time>2022-11-11T12:03:46Z</time>
      </trkpt>
      <trkpt lat="47.07552" lon="-1.61887">
        <ele>56</ele>
        <time>2022-11-11T12:03:48Z</time>
      </trkpt>
      <trkpt lat="47.07541" lon="-1.61899">
        <ele>55</ele>
        <time>2022-11-11T12:03:50Z</time>
      </trkpt>
      <trkpt lat="47.07531" lon="-1.61911">
        <ele>56</ele>
        <time>2022-11-11T12:03:52Z</time>
      </trkpt>
      <trkpt lat="47.07521" lon="-1.61923">
        <ele>55</ele>
        <time>2022-11-11T12:03:54Z</time>
      </trkpt>
      <trkpt lat="47.07511" lon="-1.61936">
        <ele>55</ele>
        <time>2022-11-11T12:03:56Z</time>
      </trkpt>
      <trkpt lat="47.07501" lon="-1.61947">
        <ele>54</ele>
        <time>2022-11-11T12:03:58Z</time>
      </trkpt>
      <trkpt lat="47.0749" lon="-1.6196">
        <ele>54</ele>
        <time>2022-11-11T12:04:00Z</time>
      </trkpt>
      <trkpt lat="47.07479" lon="-1.61972">
        <ele>54</ele>
        <time>2022-11-11T12:04:02Z</time>
      </trkpt>
      <trkpt lat="47.07468" lon="-1.61984">
        <ele>54</ele>
        <time>2022-11-11T12:04:04Z</time>
      </trkpt>
      <trkpt lat="47.07458" lon="-1.61996">
        <ele>53</ele>
        <time>2022-11-11T12:04:06Z</time>
      </trkpt>
      <trkpt lat="47.07448" lon="-1.6201">
        <ele>54</ele>
        <time>2022-11-11T12:04:08Z</time>
      </trkpt>
      <trkpt lat="47.07438" lon="-1.62024">
        <ele>54</ele>
        <time>2022-11-11T12:04:10Z</time>
      </trkpt>
      <trkpt lat="47.07429" lon="-1.62039">
        <ele>54</ele>
        <time>2022-11-11T12:04:12Z</time>
      </trkpt>
      <trkpt lat="47.0742" lon="-1.62053">
        <ele>54</ele>
        <time>2022-11-11T12:04:14Z</time>
      </trkpt>
      <trkpt lat="47.07411" lon="-1.62068">
        <ele>54</ele>
        <time>2022-11-11T12:04:16Z</time>
      </trkpt>
      <trkpt lat="47.07401" lon="-1.62084">
        <ele>54</ele>
        <time>2022-11-11T12:04:18Z</time>
      </trkpt>
      <trkpt lat="47.07392" lon="-1.62099">
        <ele>55</ele>
        <time>2022-11-11T12:04:20Z</time>
      </trkpt>
      <trkpt lat="47.07382" lon="-1.62114">
        <ele>55</ele>
        <time>2022-11-11T12:04:22Z</time>
      </trkpt>
      <trkpt lat="47.07372" lon="-1.6213">
        <ele>55</ele>
        <time>2022-11-11T12:04:24Z</time>
      </trkpt>
      <trkpt lat="47.07362" lon="-1.62146">
        <ele>54</ele>
        <time>2022-11-11T12:04:26Z</time>
      </trkpt>
      <trkpt lat="47.07353" lon="-1.62162">
        <ele>54</ele>
        <time>2022-11-11T12:04:28Z</time>
      </trkpt>
      <trkpt lat="47.07344" lon="-1.62178">
        <ele>53</ele>
        <time>2022-11-11T12:04:30Z</time>
      </trkpt>
      <trkpt lat="47.07334" lon="-1.62192">
        <ele>54</ele>
        <time>2022-11-11T12:04:32Z</time>
      </trkpt>
      <trkpt lat="47.07324" lon="-1.62206">
        <ele>54</ele>
        <time>2022-11-11T12:04:34Z</time>
      </trkpt>
      <trkpt lat="47.07314" lon="-1.62221">
        <ele>54</ele>
        <time>2022-11-11T12:04:36Z</time>
      </trkpt>
      <trkpt lat="47.07303" lon="-1.62235">
        <ele>54</ele>
        <time>2022-11-11T12:04:38Z</time>
      </trkpt>
      <trkpt lat="47.07293" lon="-1.62249">
        <ele>53</ele>
        <time>2022-11-11T12:04:40Z</time>
      </trkpt>
      <trkpt lat="47.07282" lon="-1.62262">
        <ele>54</ele>
        <time>2022-11-11T12:04:42Z</time>
      </trkpt>
      <trkpt lat="47.0727" lon="-1.62274">
        <ele>54</ele>
        <time>2022-11-11T12:04:44Z</time>
      </trkpt>
      <trkpt lat="47.07258" lon="-1.62284">
        <ele>53</ele>
        <time>2022-11-11T12:04:46Z</time>
      </trkpt>
      <trkpt lat="47.07244" lon="-1.62295">
        <ele>53</ele>
        <time>2022-11-11T12:04:48Z</time>
      </trkpt>
      <trkpt lat="47.07231" lon="-1.62304">
        <ele>54</ele>
        <time>2022-11-11T12:04:50Z</time>
      </trkpt>
      <trkpt lat="47.07218" lon="-1.62314">
        <ele>54</ele>
        <time>2022-11-11T12:04:52Z</time>
      </trkpt>
      <trkpt lat="47.07204" lon="-1.62322">
        <ele>54</ele>
        <time>2022-11-11T12:04:54Z</time>
      </trkpt>
      <trkpt lat="47.0719" lon="-1.62331">
        <ele>53</ele>
        <time>2022-11-11T12:04:56Z</time>
      </trkpt>
      <trkpt lat="47.07177" lon="-1.6234">
        <ele>53</ele>
        <time>2022-11-11T12:04:58Z</time>
      </trkpt>
      <trkpt lat="47.07163" lon="-1.62349">
        <ele>53</ele>
        <time>2022-11-11T12:05:00Z</time>
      </trkpt>
      <trkpt lat="47.0715" lon="-1.62357">
        <ele>53</ele>
        <time>2022-11-11T12:05:02Z</time>
      </trkpt>
      <trkpt lat="47.07137" lon="-1.62366">
        <ele>53</ele>
        <time>2022-11-11T12:05:04Z</time>
      </trkpt>
      <trkpt lat="47.07124" lon="-1.62375">
        <ele>53</ele>
        <time>2022-11-11T12:05:06Z</time>
      </trkpt>
      <trkpt lat="47.07112" lon="-1.62383">
        <ele>53</ele>
        <time>2022-11-11T12:05:08Z</time>
      </trkpt>
      <trkpt lat="47.07099" lon="-1.62391">
        <ele>53</ele>
        <time>2022-11-11T12:05:10Z</time>
      </trkpt>
      <trkpt lat="47.07087" lon="-1.624">
        <ele>53</ele>
        <time>2022-11-11T12:05:12Z</time>
      </trkpt>
      <trkpt lat="47.07074" lon="-1.62408">
        <ele>53</ele>
        <time>2022-11-11T12:05:14Z</time>
      </trkpt>
      <trkpt lat="47.07061" lon="-1.62416">
        <ele>52</ele>
        <time>2022-11-11T12:05:16Z</time>
      </trkpt>
      <trkpt lat="47.07048" lon="-1.62424">
        <ele>52</ele>
        <time>2022-11-11T12:05:18Z</time>
      </trkpt>
      <trkpt lat="47.07036" lon="-1.62432">
        <ele>52</ele>
        <time>2022-11-11T12:05:20Z</time>
      </trkpt>
      <trkpt lat="47.07024" lon="-1.62438">
        <ele>52</ele>
        <time>2022-11-11T12:05:22Z</time>
      </trkpt>
      <trkpt lat="47.07012" lon="-1.62444">
        <ele>53</ele>
        <time>2022-11-11T12:05:24Z</time>
      </trkpt>
      <trkpt lat="47.06998" lon="-1.6245">
        <ele>52</ele>
        <time>2022-11-11T12:05:26Z</time>
      </trkpt>
      <trkpt lat="47.06985" lon="-1.62457">
        <ele>52</ele>
        <time>2022-11-11T12:05:28Z</time>
      </trkpt>
      <trkpt lat="47.06971" lon="-1.62462">
        <ele>52</ele>
        <time>2022-11-11T12:05:30Z</time>
      </trkpt>
      <trkpt lat="47.06958" lon="-1.62469">
        <ele>53</ele>
        <time>2022-11-11T12:05:32Z</time>
      </trkpt>
      <trkpt lat="47.06944" lon="-1.62475">
        <ele>53</ele>
        <time>2022-11-11T12:05:34Z</time>
      </trkpt>
      <trkpt lat="47.06932" lon="-1.62481">
        <ele>53</ele>
        <time>2022-11-11T12:05:36Z</time>
      </trkpt>
      <trkpt lat="47.0692" lon="-1.62487">
        <ele>53</ele>
        <time>2022-11-11T12:05:38Z</time>
      </trkpt>
      <trkpt lat="47.06907" lon="-1.62492">
        <ele>53</ele>
        <time>2022-11-11T12:05:40Z</time>
      </trkpt>
      <trkpt lat="47.06895" lon="-1.62497">
        <ele>53</ele>
        <time>2022-11-11T12:05:42Z</time>
      </trkpt>
      <trkpt lat="47.06883" lon="-1.62503">
        <ele>53</ele>
        <time>2022-11-11T12:05:44Z</time>
      </trkpt>
      <trkpt lat="47.06871" lon="-1.6251">
        <ele>53</ele>
        <time>2022-11-11T12:05:46Z</time>
      </trkpt>
      <trkpt lat="47.06859" lon="-1.62516">
        <ele>53</ele>
        <time>2022-11-11T12:05:48Z</time>
      </trkpt>
      <trkpt lat="47.06848" lon="-1.62524">
        <ele>52</ele>
        <time>2022-11-11T12:05:50Z</time>
      </trkpt>
      <trkpt lat="47.06836" lon="-1.62534">
        <ele>53</ele>
        <time>2022-11-11T12:05:52Z</time>
      </trkpt>
      <trkpt lat="47.06824" lon="-1.62543">
        <ele>53</ele>
        <time>2022-11-11T12:05:54Z</time>
      </trkpt>
      <trkpt lat="47.06813" lon="-1.62554">
        <ele>53</ele>
        <time>2022-11-11T12:05:56Z</time>
      </trkpt>
      <trkpt lat="47.06801" lon="-1.62564">
        <ele>53</ele>
        <time>2022-11-11T12:05:58Z</time>
      </trkpt>
      <trkpt lat="47.06789" lon="-1.62574">
        <ele>53</ele>
        <time>2022-11-11T12:06:00Z</time>
      </trkpt>
      <trkpt lat="47.06778" lon="-1.62584">
        <ele>53</ele>
        <time>2022-11-11T12:06:02Z</time>
      </trkpt>
      <trkpt lat="47.06767" lon="-1.62594">
        <ele>53</ele>
        <time>2022-11-11T12:06:04Z</time>
      </trkpt>
      <trkpt lat="47.06756" lon="-1.62605">
        <ele>53</ele>
        <time>2022-11-11T12:06:06Z</time>
      </trkpt>
      <trkpt lat="47.06745" lon="-1.62615">
        <ele>54</ele>
        <time>2022-11-11T12:06:08Z</time>
      </trkpt>
      <trkpt lat="47.06734" lon="-1.62626">
        <ele>54</ele>
        <time>2022-11-11T12:06:10Z</time>
      </trkpt>
      <trkpt lat="47.06724" lon="-1.62637">
        <ele>54</ele>
        <time>2022-11-11T12:06:12Z</time>
      </trkpt>
      <trkpt lat="47.06713" lon="-1.62649">
        <ele>54</ele>
        <time>2022-11-11T12:06:14Z</time>
      </trkpt>
      <trkpt lat="47.06704" lon="-1.62662">
        <ele>54</ele>
        <time>2022-11-11T12:06:16Z</time>
      </trkpt>
      <trkpt lat="47.06694" lon="-1.62676">
        <ele>54</ele>
        <time>2022-11-11T12:06:18Z</time>
      </trkpt>
      <trkpt lat="47.06685" lon="-1.6269">
        <ele>54</ele>
        <time>2022-11-11T12:06:20Z</time>
      </trkpt>
      <trkpt lat="47.06676" lon="-1.62704">
        <ele>54</ele>
        <time>2022-11-11T12:06:22Z</time>
      </trkpt>
      <trkpt lat="47.06666" lon="-1.62718">
        <ele>54</ele>
        <time>2022-11-11T12:06:24Z</time>
      </trkpt>
      <trkpt lat="47.06657" lon="-1.62732">
        <ele>55</ele>
        <time>2022-11-11T12:06:26Z</time>
      </trkpt>
      <trkpt lat="47.06648" lon="-1.62747">
        <ele>54</ele>
        <time>2022-11-11T12:06:28Z</time>
      </trkpt>
      <trkpt lat="47.06638" lon="-1.62761">
        <ele>54</ele>
        <time>2022-11-11T12:06:30Z</time>
      </trkpt>
      <trkpt lat="47.06629" lon="-1.62776">
        <ele>54</ele>
        <time>2022-11-11T12:06:32Z</time>
      </trkpt>
      <trkpt lat="47.0662" lon="-1.62791">
        <ele>54</ele>
        <time>2022-11-11T12:06:34Z</time>
      </trkpt>
      <trkpt lat="47.0661" lon="-1.62806">
        <ele>54</ele>
        <time>2022-11-11T12:06:36Z</time>
      </trkpt>
      <trkpt lat="47.06601" lon="-1.6282">
        <ele>54</ele>
        <time>2022-11-11T12:06:38Z</time>
      </trkpt>
      <trkpt lat="47.06591" lon="-1.62834">
        <ele>54</ele>
        <time>2022-11-11T12:06:40Z</time>
      </trkpt>
      <trkpt lat="47.06581" lon="-1.62849">
        <ele>54</ele>
        <time>2022-11-11T12:06:42Z</time>
      </trkpt>
      <trkpt lat="47.06572" lon="-1.62865">
        <ele>54</ele>
        <time>2022-11-11T12:06:44Z</time>
      </trkpt>
      <trkpt lat="47.06562" lon="-1.6288">
        <ele>54</ele>
        <time>2022-11-11T12:06:46Z</time>
      </trkpt>
      <trkpt lat="47.06552" lon="-1.62895">
        <ele>54</ele>
        <time>2022-11-11T12:06:48Z</time>
      </trkpt>
      <trkpt lat="47.06542" lon="-1.62909">
        <ele>54</ele>
        <time>2022-11-11T12:06:50Z</time>
      </trkpt>
      <trkpt lat="47.06532" lon="-1.62923">
        <ele>54</ele>
        <time>2022-11-11T12:06:52Z</time>
      </trkpt>
      <trkpt lat="47.06522" lon="-1.62937">
        <ele>54</ele>
        <time>2022-11-11T12:06:54Z</time>
      </trkpt>
      <trkpt lat="47.06511" lon="-1.62949">
        <ele>54</ele>
        <time>2022-11-11T12:06:56Z</time>
      </trkpt>
      <trkpt lat="47.06499" lon="-1.62959">
        <ele>54</ele>
        <time>2022-11-11T12:06:58Z</time>
      </trkpt>
      <trkpt lat="47.06486" lon="-1.62968">
        <ele>54</ele>
        <time>2022-11-11T12:07:00Z</time>
      </trkpt>
      <trkpt lat="47.06473" lon="-1.62976">
        <ele>54</ele>
        <time>2022-11-11T12:07:02Z</time>
      </trkpt>
      <trkpt lat="47.0646" lon="-1.62982">
        <ele>54</ele>
        <time>2022-11-11T12:07:04Z</time>
      </trkpt>
      <trkpt lat="47.06447" lon="-1.62989">
        <ele>54</ele>
        <time>2022-11-11T12:07:06Z</time>
      </trkpt>
      <trkpt lat="47.06433" lon="-1.62995">
        <ele>54</ele>
        <time>2022-11-11T12:07:08Z</time>
      </trkpt>
      <trkpt lat="47.06419" lon="-1.63002">
        <ele>54</ele>
        <time>2022-11-11T12:07:10Z</time>
      </trkpt>
      <trkpt lat="47.06406" lon="-1.63008">
        <ele>54</ele>
        <time>2022-11-11T12:07:12Z</time>
      </trkpt>
      <trkpt lat="47.06392" lon="-1.63014">
        <ele>54</ele>
        <time>2022-11-11T12:07:14Z</time>
      </trkpt>
      <trkpt lat="47.06378" lon="-1.63021">
        <ele>54</ele>
        <time>2022-11-11T12:07:16Z</time>
      </trkpt>
      <trkpt lat="47.06364" lon="-1.63028">
        <ele>53</ele>
        <time>2022-11-11T12:07:18Z</time>
      </trkpt>
      <trkpt lat="47.0635" lon="-1.63035">
        <ele>53</ele>
        <time>2022-11-11T12:07:20Z</time>
      </trkpt>
      <trkpt lat="47.06336" lon="-1.63041">
        <ele>53</ele>
        <time>2022-11-11T12:07:22Z</time>
      </trkpt>
      <trkpt lat="47.06323" lon="-1.63048">
        <ele>53</ele>
        <time>2022-11-11T12:07:24Z</time>
      </trkpt>
      <trkpt lat="47.06307" lon="-1.63054">
        <ele>53</ele>
        <time>2022-11-11T12:07:26Z</time>
      </trkpt>
      <trkpt lat="47.06293" lon="-1.63061">
        <ele>53</ele>
        <time>2022-11-11T12:07:28Z</time>
      </trkpt>
      <trkpt lat="47.0628" lon="-1.63067">
        <ele>52</ele>
        <time>2022-11-11T12:07:30Z</time>
      </trkpt>
      <trkpt lat="47.06266" lon="-1.63073">
        <ele>52</ele>
        <time>2022-11-11T12:07:32Z</time>
      </trkpt>
      <trkpt lat="47.06252" lon="-1.6308">
        <ele>52</ele>
        <time>2022-11-11T12:07:34Z</time>
      </trkpt>
      <trkpt lat="47.06239" lon="-1.63086">
        <ele>52</ele>
        <time>2022-11-11T12:07:36Z</time>
      </trkpt>
      <trkpt lat="47.06226" lon="-1.63093">
        <ele>52</ele>
        <time>2022-11-11T12:07:38Z</time>
      </trkpt>
      <trkpt lat="47.06213" lon="-1.63099">
        <ele>52</ele>
        <time>2022-11-11T12:07:40Z</time>
      </trkpt>
      <trkpt lat="47.062" lon="-1.63105">
        <ele>52</ele>
        <time>2022-11-11T12:07:42Z</time>
      </trkpt>
      <trkpt lat="47.06186" lon="-1.63111">
        <ele>52</ele>
        <time>2022-11-11T12:07:44Z</time>
      </trkpt>
      <trkpt lat="47.06172" lon="-1.63118">
        <ele>52</ele>
        <time>2022-11-11T12:07:46Z</time>
      </trkpt>
      <trkpt lat="47.06158" lon="-1.63124">
        <ele>52</ele>
        <time>2022-11-11T12:07:48Z</time>
      </trkpt>
      <trkpt lat="47.06145" lon="-1.6313">
        <ele>52</ele>
        <time>2022-11-11T12:07:50Z</time>
      </trkpt>
      <trkpt lat="47.06131" lon="-1.63137">
        <ele>52</ele>
        <time>2022-11-11T12:07:52Z</time>
      </trkpt>
      <trkpt lat="47.06117" lon="-1.63144">
        <ele>51</ele>
        <time>2022-11-11T12:07:54Z</time>
      </trkpt>
      <trkpt lat="47.06104" lon="-1.6315">
        <ele>51</ele>
        <time>2022-11-11T12:07:56Z</time>
      </trkpt>
      <trkpt lat="47.0609" lon="-1.63157">
        <ele>52</ele>
        <time>2022-11-11T12:07:58Z</time>
      </trkpt>
      <trkpt lat="47.06077" lon="-1.63163">
        <ele>52</ele>
        <time>2022-11-11T12:08:00Z</time>
      </trkpt>
      <trkpt lat="47.06063" lon="-1.6317">
        <ele>52</ele>
        <time>2022-11-11T12:08:02Z</time>
      </trkpt>
      <trkpt lat="47.0605" lon="-1.63176">
        <ele>52</ele>
        <time>2022-11-11T12:08:04Z</time>
      </trkpt>
      <trkpt lat="47.06037" lon="-1.63183">
        <ele>52</ele>
        <time>2022-11-11T12:08:06Z</time>
      </trkpt>
      <trkpt lat="47.06023" lon="-1.63189">
        <ele>52</ele>
        <time>2022-11-11T12:08:08Z</time>
      </trkpt>
      <trkpt lat="47.06009" lon="-1.63196">
        <ele>52</ele>
        <time>2022-11-11T12:08:10Z</time>
      </trkpt>
      <trkpt lat="47.05995" lon="-1.63202">
        <ele>52</ele>
        <time>2022-11-11T12:08:12Z</time>
      </trkpt>
      <trkpt lat="47.05982" lon="-1.63208">
        <ele>52</ele>
        <time>2022-11-11T12:08:14Z</time>
      </trkpt>
      <trkpt lat="47.05968" lon="-1.63215">
        <ele>52</ele>
        <time>2022-11-11T12:08:16Z</time>
      </trkpt>
      <trkpt lat="47.05955" lon="-1.63221">
        <ele>52</ele>
        <time>2022-11-11T12:08:18Z</time>
      </trkpt>
      <trkpt lat="47.05942" lon="-1.63227">
        <ele>52</ele>
        <time>2022-11-11T12:08:20Z</time>
      </trkpt>
      <trkpt lat="47.05928" lon="-1.63233">
        <ele>52</ele>
        <time>2022-11-11T12:08:22Z</time>
      </trkpt>
      <trkpt lat="47.05915" lon="-1.6324">
        <ele>53</ele>
        <time>2022-11-11T12:08:24Z</time>
      </trkpt>
      <trkpt lat="47.05902" lon="-1.63246">
        <ele>53</ele>
        <time>2022-11-11T12:08:26Z</time>
      </trkpt>
      <trkpt lat="47.05889" lon="-1.63252">
        <ele>53</ele>
        <time>2022-11-11T12:08:28Z</time>
      </trkpt>
      <trkpt lat="47.05876" lon="-1.63258">
        <ele>52</ele>
        <time>2022-11-11T12:08:30Z</time>
      </trkpt>
      <trkpt lat="47.05863" lon="-1.63264">
        <ele>52</ele>
        <time>2022-11-11T12:08:32Z</time>
      </trkpt>
      <trkpt lat="47.0585" lon="-1.6327">
        <ele>52</ele>
        <time>2022-11-11T12:08:34Z</time>
      </trkpt>
      <trkpt lat="47.05837" lon="-1.63276">
        <ele>52</ele>
        <time>2022-11-11T12:08:36Z</time>
      </trkpt>
      <trkpt lat="47.05824" lon="-1.63282">
        <ele>52</ele>
        <time>2022-11-11T12:08:38Z</time>
      </trkpt>
      <trkpt lat="47.05811" lon="-1.63288">
        <ele>52</ele>
        <time>2022-11-11T12:08:40Z</time>
      </trkpt>
      <trkpt lat="47.05798" lon="-1.63294">
        <ele>51</ele>
        <time>2022-11-11T12:08:42Z</time>
      </trkpt>
      <trkpt lat="47.05786" lon="-1.633">
        <ele>52</ele>
        <time>2022-11-11T12:08:44Z</time>
      </trkpt>
      <trkpt lat="47.05773" lon="-1.63306">
        <ele>52</ele>
        <time>2022-11-11T12:08:46Z</time>
      </trkpt>
      <trkpt lat="47.0576" lon="-1.63312">
        <ele>51</ele>
        <time>2022-11-11T12:08:48Z</time>
      </trkpt>
      <trkpt lat="47.05747" lon="-1.63318">
        <ele>51</ele>
        <time>2022-11-11T12:08:50Z</time>
      </trkpt>
      <trkpt lat="47.05734" lon="-1.63324">
        <ele>51</ele>
        <time>2022-11-11T12:08:52Z</time>
      </trkpt>
      <trkpt lat="47.05722" lon="-1.6333">
        <ele>51</ele>
        <time>2022-11-11T12:08:54Z</time>
      </trkpt>
      <trkpt lat="47.05709" lon="-1.63336">
        <ele>51</ele>
        <time>2022-11-11T12:08:56Z</time>
      </trkpt>
      <trkpt lat="47.05696" lon="-1.63342">
        <ele>51</ele>
        <time>2022-11-11T12:08:58Z</time>
      </trkpt>
      <trkpt lat="47.05683" lon="-1.63348">
        <ele>51</ele>
        <time>2022-11-11T12:09:00Z</time>
      </trkpt>
      <trkpt lat="47.05669" lon="-1.63354">
        <ele>51</ele>
        <time>2022-11-11T12:09:02Z</time>
      </trkpt>
      <trkpt lat="47.05656" lon="-1.6336">
        <ele>51</ele>
        <time>2022-11-11T12:09:04Z</time>
      </trkpt>
      <trkpt lat="47.05642" lon="-1.63367">
        <ele>51</ele>
        <time>2022-11-11T12:09:06Z</time>
      </trkpt>
      <trkpt lat="47.05629" lon="-1.63374">
        <ele>51</ele>
        <time>2022-11-11T12:09:08Z</time>
      </trkpt>
      <trkpt lat="47.05616" lon="-1.63381">
        <ele>51</ele>
        <time>2022-11-11T12:09:10Z</time>
      </trkpt>
      <trkpt lat="47.05602" lon="-1.63387">
        <ele>51</ele>
        <time>2022-11-11T12:09:12Z</time>
      </trkpt>
      <trkpt lat="47.05588" lon="-1.63393">
        <ele>52</ele>
        <time>2022-11-11T12:09:14Z</time>
      </trkpt>
      <trkpt lat="47.05574" lon="-1.63399">
        <ele>52</ele>
        <time>2022-11-11T12:09:16Z</time>
      </trkpt>
      <trkpt lat="47.05559" lon="-1.63405">
        <ele>52</ele>
        <time>2022-11-11T12:09:18Z</time>
      </trkpt>
      <trkpt lat="47.05545" lon="-1.6341">
        <ele>52</ele>
        <time>2022-11-11T12:09:20Z</time>
      </trkpt>
      <trkpt lat="47.0553" lon="-1.63415">
        <ele>52</ele>
        <time>2022-11-11T12:09:22Z</time>
      </trkpt>
      <trkpt lat="47.05516" lon="-1.63419">
        <ele>52</ele>
        <time>2022-11-11T12:09:24Z</time>
      </trkpt>
      <trkpt lat="47.05501" lon="-1.63422">
        <ele>52</ele>
        <time>2022-11-11T12:09:26Z</time>
      </trkpt>
      <trkpt lat="47.05486" lon="-1.63425">
        <ele>52</ele>
        <time>2022-11-11T12:09:28Z</time>
      </trkpt>
      <trkpt lat="47.05473" lon="-1.63427">
        <ele>52</ele>
        <time>2022-11-11T12:09:30Z</time>
      </trkpt>
      <trkpt lat="47.05459" lon="-1.63429">
        <ele>52</ele>
        <time>2022-11-11T12:09:32Z</time>
      </trkpt>
      <trkpt lat="47.05447" lon="-1.63431">
        <ele>52</ele>
        <time>2022-11-11T12:09:34Z</time>
      </trkpt>
      <trkpt lat="47.05433" lon="-1.63432">
        <ele>52</ele>
        <time>2022-11-11T12:09:36Z</time>
      </trkpt>
      <trkpt lat="47.05419" lon="-1.63434">
        <ele>52</ele>
        <time>2022-11-11T12:09:38Z</time>
      </trkpt>
      <trkpt lat="47.05405" lon="-1.63441">
        <ele>51</ele>
        <time>2022-11-11T12:09:40Z</time>
      </trkpt>
      <trkpt lat="47.05392" lon="-1.63451">
        <ele>51</ele>
        <time>2022-11-11T12:09:42Z</time>
      </trkpt>
      <trkpt lat="47.05379" lon="-1.63462">
        <ele>51</ele>
        <time>2022-11-11T12:09:44Z</time>
      </trkpt>
      <trkpt lat="47.05364" lon="-1.63459">
        <ele>51</ele>
        <time>2022-11-11T12:09:46Z</time>
      </trkpt>
      <trkpt lat="47.05349" lon="-1.63452">
        <ele>51</ele>
        <time>2022-11-11T12:09:48Z</time>
      </trkpt>
      <trkpt lat="47.05334" lon="-1.6345">
        <ele>51</ele>
        <time>2022-11-11T12:09:50Z</time>
      </trkpt>
      <trkpt lat="47.05318" lon="-1.63451">
        <ele>51</ele>
        <time>2022-11-11T12:09:52Z</time>
      </trkpt>
      <trkpt lat="47.05302" lon="-1.63453">
        <ele>51</ele>
        <time>2022-11-11T12:09:54Z</time>
      </trkpt>
      <trkpt lat="47.05286" lon="-1.63455">
        <ele>51</ele>
        <time>2022-11-11T12:09:56Z</time>
      </trkpt>
      <trkpt lat="47.0527" lon="-1.63459">
        <ele>51</ele>
        <time>2022-11-11T12:09:58Z</time>
      </trkpt>
      <trkpt lat="47.05254" lon="-1.63463">
        <ele>51</ele>
        <time>2022-11-11T12:10:00Z</time>
      </trkpt>
      <trkpt lat="47.05239" lon="-1.63468">
        <ele>51</ele>
        <time>2022-11-11T12:10:02Z</time>
      </trkpt>
      <trkpt lat="47.05223" lon="-1.63472">
        <ele>51</ele>
        <time>2022-11-11T12:10:04Z</time>
      </trkpt>
      <trkpt lat="47.05209" lon="-1.63478">
        <ele>51</ele>
        <time>2022-11-11T12:10:06Z</time>
      </trkpt>
      <trkpt lat="47.05194" lon="-1.63484">
        <ele>51</ele>
        <time>2022-11-11T12:10:08Z</time>
      </trkpt>
      <trkpt lat="47.05179" lon="-1.6349">
        <ele>51</ele>
        <time>2022-11-11T12:10:10Z</time>
      </trkpt>
      <trkpt lat="47.05164" lon="-1.63495">
        <ele>51</ele>
        <time>2022-11-11T12:10:12Z</time>
      </trkpt>
      <trkpt lat="47.0515" lon="-1.63501">
        <ele>51</ele>
        <time>2022-11-11T12:10:14Z</time>
      </trkpt>
      <trkpt lat="47.05135" lon="-1.63507">
        <ele>51</ele>
        <time>2022-11-11T12:10:16Z</time>
      </trkpt>
      <trkpt lat="47.0512" lon="-1.63513">
        <ele>52</ele>
        <time>2022-11-11T12:10:18Z</time>
      </trkpt>
      <trkpt lat="47.05105" lon="-1.63519">
        <ele>52</ele>
        <time>2022-11-11T12:10:20Z</time>
      </trkpt>
      <trkpt lat="47.0509" lon="-1.63525">
        <ele>51</ele>
        <time>2022-11-11T12:10:22Z</time>
      </trkpt>
      <trkpt lat="47.05075" lon="-1.6353">
        <ele>51</ele>
        <time>2022-11-11T12:10:24Z</time>
      </trkpt>
      <trkpt lat="47.0506" lon="-1.63536">
        <ele>52</ele>
        <time>2022-11-11T12:10:26Z</time>
      </trkpt>
      <trkpt lat="47.05046" lon="-1.63542">
        <ele>52</ele>
        <time>2022-11-11T12:10:28Z</time>
      </trkpt>
      <trkpt lat="47.05031" lon="-1.63548">
        <ele>52</ele>
        <time>2022-11-11T12:10:30Z</time>
      </trkpt>
      <trkpt lat="47.05016" lon="-1.63554">
        <ele>52</ele>
        <time>2022-11-11T12:10:32Z</time>
      </trkpt>
      <trkpt lat="47.05002" lon="-1.63561">
        <ele>52</ele>
        <time>2022-11-11T12:10:34Z</time>
      </trkpt>
      <trkpt lat="47.04988" lon="-1.63571">
        <ele>52</ele>
        <time>2022-11-11T12:10:36Z</time>
      </trkpt>
      <trkpt lat="47.04976" lon="-1.63582">
        <ele>52</ele>
        <time>2022-11-11T12:10:38Z</time>
      </trkpt>
      <trkpt lat="47.04966" lon="-1.63597">
        <ele>52</ele>
        <time>2022-11-11T12:10:40Z</time>
      </trkpt>
      <trkpt lat="47.04958" lon="-1.63615">
        <ele>53</ele>
        <time>2022-11-11T12:10:42Z</time>
      </trkpt>
      <trkpt lat="47.04951" lon="-1.63644">
        <ele>53</ele>
        <time>2022-11-11T12:10:45Z</time>
      </trkpt>
      <trkpt lat="47.0495" lon="-1.63664">
        <ele>53</ele>
        <time>2022-11-11T12:10:47Z</time>
      </trkpt>
      <trkpt lat="47.04951" lon="-1.63685">
        <ele>53</ele>
        <time>2022-11-11T12:10:49Z</time>
      </trkpt>
      <trkpt lat="47.04954" lon="-1.63705">
        <ele>53</ele>
        <time>2022-11-11T12:10:51Z</time>
      </trkpt>
      <trkpt lat="47.04959" lon="-1.63721">
        <ele>54</ele>
        <time>2022-11-11T12:10:53Z</time>
      </trkpt>
      <trkpt lat="47.04969" lon="-1.63735">
        <ele>54</ele>
        <time>2022-11-11T12:10:56Z</time>
      </trkpt>
      <trkpt lat="47.04973" lon="-1.63749">
        <ele>54</ele>
        <time>2022-11-11T12:10:58Z</time>
      </trkpt>
      <trkpt lat="47.0497" lon="-1.63766">
        <ele>54</ele>
        <time>2022-11-11T12:11:00Z</time>
      </trkpt>
      <trkpt lat="47.04959" lon="-1.63777">
        <ele>55</ele>
        <time>2022-11-11T12:11:02Z</time>
      </trkpt>
      <trkpt lat="47.0494" lon="-1.63775">
        <ele>55</ele>
        <time>2022-11-11T12:11:05Z</time>
      </trkpt>
      <trkpt lat="47.0492" lon="-1.63768">
        <ele>56</ele>
        <time>2022-11-11T12:11:08Z</time>
      </trkpt>
      <trkpt lat="47.04907" lon="-1.63768">
        <ele>56</ele>
        <time>2022-11-11T12:11:10Z</time>
      </trkpt>
      <trkpt lat="47.04894" lon="-1.63769">
        <ele>56</ele>
        <time>2022-11-11T12:11:12Z</time>
      </trkpt>
      <trkpt lat="47.04881" lon="-1.63772">
        <ele>57</ele>
        <time>2022-11-11T12:11:14Z</time>
      </trkpt>
      <trkpt lat="47.04869" lon="-1.63774">
        <ele>57</ele>
        <time>2022-11-11T12:11:16Z</time>
      </trkpt>
      <trkpt lat="47.04856" lon="-1.63776">
        <ele>57</ele>
        <time>2022-11-11T12:11:18Z</time>
      </trkpt>
      <trkpt lat="47.04844" lon="-1.63779">
        <ele>58</ele>
        <time>2022-11-11T12:11:20Z</time>
      </trkpt>
      <trkpt lat="47.04832" lon="-1.63781">
        <ele>58</ele>
        <time>2022-11-11T12:11:22Z</time>
      </trkpt>
      <trkpt lat="47.04821" lon="-1.63782">
        <ele>58</ele>
        <time>2022-11-11T12:11:24Z</time>
      </trkpt>
      <trkpt lat="47.04809" lon="-1.63784">
        <ele>58</ele>
        <time>2022-11-11T12:11:26Z</time>
      </trkpt>
      <trkpt lat="47.04797" lon="-1.63786">
        <ele>57</ele>
        <time>2022-11-11T12:11:28Z</time>
      </trkpt>
      <trkpt lat="47.04784" lon="-1.63791">
        <ele>57</ele>
        <time>2022-11-11T12:11:30Z</time>
      </trkpt>
      <trkpt lat="47.04772" lon="-1.63798">
        <ele>56</ele>
        <time>2022-11-11T12:11:32Z</time>
      </trkpt>
      <trkpt lat="47.0476" lon="-1.63807">
        <ele>56</ele>
        <time>2022-11-11T12:11:34Z</time>
      </trkpt>
      <trkpt lat="47.04748" lon="-1.63818">
        <ele>56</ele>
        <time>2022-11-11T12:11:36Z</time>
      </trkpt>
      <trkpt lat="47.04738" lon="-1.63831">
        <ele>56</ele>
        <time>2022-11-11T12:11:38Z</time>
      </trkpt>
      <trkpt lat="47.04726" lon="-1.63841">
        <ele>55</ele>
        <time>2022-11-11T12:11:40Z</time>
      </trkpt>
      <trkpt lat="47.04712" lon="-1.6384">
        <ele>55</ele>
        <time>2022-11-11T12:11:42Z</time>
      </trkpt>
      <trkpt lat="47.04699" lon="-1.63828">
        <ele>55</ele>
        <time>2022-11-11T12:11:44Z</time>
      </trkpt>
      <trkpt lat="47.04686" lon="-1.63821">
        <ele>54</ele>
        <time>2022-11-11T12:11:46Z</time>
      </trkpt>
      <trkpt lat="47.04671" lon="-1.63828">
        <ele>53</ele>
        <time>2022-11-11T12:11:48Z</time>
      </trkpt>
      <trkpt lat="47.04658" lon="-1.63839">
        <ele>53</ele>
        <time>2022-11-11T12:11:50Z</time>
      </trkpt>
      <trkpt lat="47.04643" lon="-1.63846">
        <ele>53</ele>
        <time>2022-11-11T12:11:52Z</time>
      </trkpt>
      <trkpt lat="47.04626" lon="-1.63847">
        <ele>52</ele>
        <time>2022-11-11T12:11:54Z</time>
      </trkpt>
      <trkpt lat="47.0461" lon="-1.6385">
        <ele>52</ele>
        <time>2022-11-11T12:11:56Z</time>
      </trkpt>
      <trkpt lat="47.04594" lon="-1.63853">
        <ele>51</ele>
        <time>2022-11-11T12:11:58Z</time>
      </trkpt>
      <trkpt lat="47.04578" lon="-1.6386">
        <ele>51</ele>
        <time>2022-11-11T12:12:00Z</time>
      </trkpt>
      <trkpt lat="47.04563" lon="-1.63868">
        <ele>51</ele>
        <time>2022-11-11T12:12:02Z</time>
      </trkpt>
      <trkpt lat="47.04548" lon="-1.63878">
        <ele>51</ele>
        <time>2022-11-11T12:12:04Z</time>
      </trkpt>
      <trkpt lat="47.04532" lon="-1.63888">
        <ele>51</ele>
        <time>2022-11-11T12:12:06Z</time>
      </trkpt>
      <trkpt lat="47.04517" lon="-1.63897">
        <ele>51</ele>
        <time>2022-11-11T12:12:08Z</time>
      </trkpt>
      <trkpt lat="47.04503" lon="-1.63906">
        <ele>52</ele>
        <time>2022-11-11T12:12:10Z</time>
      </trkpt>
      <trkpt lat="47.04489" lon="-1.63914">
        <ele>52</ele>
        <time>2022-11-11T12:12:12Z</time>
      </trkpt>
      <trkpt lat="47.04477" lon="-1.63925">
        <ele>52</ele>
        <time>2022-11-11T12:12:14Z</time>
      </trkpt>
      <trkpt lat="47.04463" lon="-1.63933">
        <ele>52</ele>
        <time>2022-11-11T12:12:16Z</time>
      </trkpt>
      <trkpt lat="47.04449" lon="-1.63936">
        <ele>52</ele>
        <time>2022-11-11T12:12:18Z</time>
      </trkpt>
      <trkpt lat="47.04436" lon="-1.63941">
        <ele>52</ele>
        <time>2022-11-11T12:12:20Z</time>
      </trkpt>
      <trkpt lat="47.04423" lon="-1.63949">
        <ele>52</ele>
        <time>2022-11-11T12:12:22Z</time>
      </trkpt>
      <trkpt lat="47.04409" lon="-1.63956">
        <ele>51</ele>
        <time>2022-11-11T12:12:24Z</time>
      </trkpt>
      <trkpt lat="47.04396" lon="-1.63962">
        <ele>51</ele>
        <time>2022-11-11T12:12:26Z</time>
      </trkpt>
      <trkpt lat="47.04383" lon="-1.63968">
        <ele>52</ele>
        <time>2022-11-11T12:12:28Z</time>
      </trkpt>
      <trkpt lat="47.0437" lon="-1.63973">
        <ele>52</ele>
        <time>2022-11-11T12:12:30Z</time>
      </trkpt>
      <trkpt lat="47.04357" lon="-1.63979">
        <ele>51</ele>
        <time>2022-11-11T12:12:32Z</time>
      </trkpt>
      <trkpt lat="47.04343" lon="-1.63984">
        <ele>51</ele>
        <time>2022-11-11T12:12:34Z</time>
      </trkpt>
      <trkpt lat="47.04331" lon="-1.6399">
        <ele>51</ele>
        <time>2022-11-11T12:12:36Z</time>
      </trkpt>
      <trkpt lat="47.04318" lon="-1.63996">
        <ele>51</ele>
        <time>2022-11-11T12:12:38Z</time>
      </trkpt>
      <trkpt lat="47.04305" lon="-1.64002">
        <ele>51</ele>
        <time>2022-11-11T12:12:40Z</time>
      </trkpt>
      <trkpt lat="47.04292" lon="-1.64008">
        <ele>51</ele>
        <time>2022-11-11T12:12:42Z</time>
      </trkpt>
      <trkpt lat="47.04278" lon="-1.64014">
        <ele>51</ele>
        <time>2022-11-11T12:12:44Z</time>
      </trkpt>
      <trkpt lat="47.04265" lon="-1.6402">
        <ele>52</ele>
        <time>2022-11-11T12:12:46Z</time>
      </trkpt>
      <trkpt lat="47.04251" lon="-1.64027">
        <ele>52</ele>
        <time>2022-11-11T12:12:48Z</time>
      </trkpt>
      <trkpt lat="47.04238" lon="-1.64033">
        <ele>52</ele>
        <time>2022-11-11T12:12:50Z</time>
      </trkpt>
      <trkpt lat="47.04225" lon="-1.64039">
        <ele>52</ele>
        <time>2022-11-11T12:12:52Z</time>
      </trkpt>
      <trkpt lat="47.04212" lon="-1.64045">
        <ele>52</ele>
        <time>2022-11-11T12:12:54Z</time>
      </trkpt>
      <trkpt lat="47.04198" lon="-1.6405">
        <ele>52</ele>
        <time>2022-11-11T12:12:56Z</time>
      </trkpt>
      <trkpt lat="47.04184" lon="-1.64056">
        <ele>52</ele>
        <time>2022-11-11T12:12:58Z</time>
      </trkpt>
      <trkpt lat="47.0417" lon="-1.64062">
        <ele>52</ele>
        <time>2022-11-11T12:13:00Z</time>
      </trkpt>
      <trkpt lat="47.04156" lon="-1.64068">
        <ele>52</ele>
        <time>2022-11-11T12:13:02Z</time>
      </trkpt>
      <trkpt lat="47.04143" lon="-1.64073">
        <ele>53</ele>
        <time>2022-11-11T12:13:04Z</time>
      </trkpt>
      <trkpt lat="47.0413" lon="-1.64079">
        <ele>52</ele>
        <time>2022-11-11T12:13:06Z</time>
      </trkpt>
      <trkpt lat="47.04117" lon="-1.64085">
        <ele>53</ele>
        <time>2022-11-11T12:13:08Z</time>
      </trkpt>
      <trkpt lat="47.04105" lon="-1.64091">
        <ele>53</ele>
        <time>2022-11-11T12:13:10Z</time>
      </trkpt>
      <trkpt lat="47.04092" lon="-1.64097">
        <ele>53</ele>
        <time>2022-11-11T12:13:12Z</time>
      </trkpt>
      <trkpt lat="47.04079" lon="-1.64102">
        <ele>53</ele>
        <time>2022-11-11T12:13:14Z</time>
      </trkpt>
      <trkpt lat="47.04067" lon="-1.64107">
        <ele>53</ele>
        <time>2022-11-11T12:13:16Z</time>
      </trkpt>
      <trkpt lat="47.04055" lon="-1.64113">
        <ele>53</ele>
        <time>2022-11-11T12:13:18Z</time>
      </trkpt>
      <trkpt lat="47.04043" lon="-1.64118">
        <ele>53</ele>
        <time>2022-11-11T12:13:20Z</time>
      </trkpt>
      <trkpt lat="47.0403" lon="-1.64124">
        <ele>53</ele>
        <time>2022-11-11T12:13:22Z</time>
      </trkpt>
      <trkpt lat="47.04018" lon="-1.64129">
        <ele>53</ele>
        <time>2022-11-11T12:13:24Z</time>
      </trkpt>
      <trkpt lat="47.04006" lon="-1.64135">
        <ele>53</ele>
        <time>2022-11-11T12:13:26Z</time>
      </trkpt>
      <trkpt lat="47.03994" lon="-1.6414">
        <ele>52</ele>
        <time>2022-11-11T12:13:28Z</time>
      </trkpt>
      <trkpt lat="47.03981" lon="-1.64146">
        <ele>51</ele>
        <time>2022-11-11T12:13:30Z</time>
      </trkpt>
      <trkpt lat="47.03968" lon="-1.64148">
        <ele>51</ele>
        <time>2022-11-11T12:13:32Z</time>
      </trkpt>
      <trkpt lat="47.03954" lon="-1.64141">
        <ele>51</ele>
        <time>2022-11-11T12:13:34Z</time>
      </trkpt>
      <trkpt lat="47.03941" lon="-1.64137">
        <ele>51</ele>
        <time>2022-11-11T12:13:36Z</time>
      </trkpt>
      <trkpt lat="47.03929" lon="-1.6413">
        <ele>50</ele>
        <time>2022-11-11T12:13:38Z</time>
      </trkpt>
      <trkpt lat="47.03917" lon="-1.64123">
        <ele>51</ele>
        <time>2022-11-11T12:13:40Z</time>
      </trkpt>
      <trkpt lat="47.03905" lon="-1.64116">
        <ele>51</ele>
        <time>2022-11-11T12:13:42Z</time>
      </trkpt>
      <trkpt lat="47.03894" lon="-1.64109">
        <ele>51</ele>
        <time>2022-11-11T12:13:44Z</time>
      </trkpt>
      <trkpt lat="47.03883" lon="-1.64105">
        <ele>52</ele>
        <time>2022-11-11T12:13:46Z</time>
      </trkpt>
      <trkpt lat="47.03872" lon="-1.64105">
        <ele>52</ele>
        <time>2022-11-11T12:13:48Z</time>
      </trkpt>
      <trkpt lat="47.0386" lon="-1.64114">
        <ele>52</ele>
        <time>2022-11-11T12:13:50Z</time>
      </trkpt>
      <trkpt lat="47.03849" lon="-1.64123">
        <ele>52</ele>
        <time>2022-11-11T12:13:52Z</time>
      </trkpt>
      <trkpt lat="47.03838" lon="-1.64132">
        <ele>52</ele>
        <time>2022-11-11T12:13:54Z</time>
      </trkpt>
      <trkpt lat="47.03827" lon="-1.64141">
        <ele>52</ele>
        <time>2022-11-11T12:13:56Z</time>
      </trkpt>
      <trkpt lat="47.03817" lon="-1.64151">
        <ele>52</ele>
        <time>2022-11-11T12:13:58Z</time>
      </trkpt>
      <trkpt lat="47.03806" lon="-1.64161">
        <ele>53</ele>
        <time>2022-11-11T12:14:00Z</time>
      </trkpt>
      <trkpt lat="47.03795" lon="-1.64172">
        <ele>52</ele>
        <time>2022-11-11T12:14:02Z</time>
      </trkpt>
      <trkpt lat="47.03785" lon="-1.64182">
        <ele>53</ele>
        <time>2022-11-11T12:14:04Z</time>
      </trkpt>
      <trkpt lat="47.03774" lon="-1.64192">
        <ele>53</ele>
        <time>2022-11-11T12:14:06Z</time>
      </trkpt>
      <trkpt lat="47.03764" lon="-1.64202">
        <ele>53</ele>
        <time>2022-11-11T12:14:08Z</time>
      </trkpt>
      <trkpt lat="47.03753" lon="-1.64213">
        <ele>54</ele>
        <time>2022-11-11T12:14:10Z</time>
      </trkpt>
      <trkpt lat="47.03742" lon="-1.64221">
        <ele>54</ele>
        <time>2022-11-11T12:14:12Z</time>
      </trkpt>
      <trkpt lat="47.03733" lon="-1.64231">
        <ele>54</ele>
        <time>2022-11-11T12:14:14Z</time>
      </trkpt>
      <trkpt lat="47.03724" lon="-1.64237">
        <ele>54</ele>
        <time>2022-11-11T12:14:16Z</time>
      </trkpt>
      <trkpt lat="47.03713" lon="-1.64247">
        <ele>54</ele>
        <time>2022-11-11T12:14:19Z</time>
      </trkpt>
      <trkpt lat="47.03705" lon="-1.64254">
        <ele>53</ele>
        <time>2022-11-11T12:14:23Z</time>
      </trkpt>
      <trkpt lat="47.03696" lon="-1.64263">
        <ele>55</ele>
        <time>2022-11-11T12:14:45Z</time>
      </trkpt>
      <trkpt lat="47.03684" lon="-1.64261">
        <ele>55</ele>
        <time>2022-11-11T12:14:48Z</time>
      </trkpt>
      <trkpt lat="47.03677" lon="-1.64248">
        <ele>56</ele>
        <time>2022-11-11T12:14:50Z</time>
      </trkpt>
      <trkpt lat="47.0367" lon="-1.64235">
        <ele>56</ele>
        <time>2022-11-11T12:14:52Z</time>
      </trkpt>
      <trkpt lat="47.03663" lon="-1.64223">
        <ele>56</ele>
        <time>2022-11-11T12:14:54Z</time>
      </trkpt>
      <trkpt lat="47.03653" lon="-1.64216">
        <ele>55</ele>
        <time>2022-11-11T12:14:56Z</time>
      </trkpt>
      <trkpt lat="47.03642" lon="-1.64212">
        <ele>54</ele>
        <time>2022-11-11T12:14:58Z</time>
      </trkpt>
      <trkpt lat="47.03633" lon="-1.64198">
        <ele>54</ele>
        <time>2022-11-11T12:15:00Z</time>
      </trkpt>
      <trkpt lat="47.03626" lon="-1.64182">
        <ele>53</ele>
        <time>2022-11-11T12:15:02Z</time>
      </trkpt>
      <trkpt lat="47.0362" lon="-1.64167">
        <ele>53</ele>
        <time>2022-11-11T12:15:04Z</time>
      </trkpt>
      <trkpt lat="47.03613" lon="-1.64152">
        <ele>53</ele>
        <time>2022-11-11T12:15:06Z</time>
      </trkpt>
      <trkpt lat="47.03607" lon="-1.64135">
        <ele>53</ele>
        <time>2022-11-11T12:15:08Z</time>
      </trkpt>
      <trkpt lat="47.03601" lon="-1.64119">
        <ele>54</ele>
        <time>2022-11-11T12:15:10Z</time>
      </trkpt>
      <trkpt lat="47.03594" lon="-1.64104">
        <ele>53</ele>
        <time>2022-11-11T12:15:12Z</time>
      </trkpt>
      <trkpt lat="47.03587" lon="-1.64089">
        <ele>53</ele>
        <time>2022-11-11T12:15:14Z</time>
      </trkpt>
      <trkpt lat="47.03581" lon="-1.64072">
        <ele>52</ele>
        <time>2022-11-11T12:15:16Z</time>
      </trkpt>
      <trkpt lat="47.03574" lon="-1.64056">
        <ele>53</ele>
        <time>2022-11-11T12:15:18Z</time>
      </trkpt>
      <trkpt lat="47.03571" lon="-1.64038">
        <ele>52</ele>
        <time>2022-11-11T12:15:20Z</time>
      </trkpt>
      <trkpt lat="47.03573" lon="-1.64021">
        <ele>52</ele>
        <time>2022-11-11T12:15:22Z</time>
      </trkpt>
      <trkpt lat="47.03574" lon="-1.64004">
        <ele>52</ele>
        <time>2022-11-11T12:15:24Z</time>
      </trkpt>
      <trkpt lat="47.03568" lon="-1.63987">
        <ele>51</ele>
        <time>2022-11-11T12:15:26Z</time>
      </trkpt>
      <trkpt lat="47.03561" lon="-1.63971">
        <ele>52</ele>
        <time>2022-11-11T12:15:28Z</time>
      </trkpt>
      <trkpt lat="47.03553" lon="-1.63956">
        <ele>51</ele>
        <time>2022-11-11T12:15:30Z</time>
      </trkpt>
      <trkpt lat="47.03546" lon="-1.6394">
        <ele>51</ele>
        <time>2022-11-11T12:15:32Z</time>
      </trkpt>
      <trkpt lat="47.03539" lon="-1.63924">
        <ele>51</ele>
        <time>2022-11-11T12:15:34Z</time>
      </trkpt>
      <trkpt lat="47.03529" lon="-1.63912">
        <ele>51</ele>
        <time>2022-11-11T12:15:36Z</time>
      </trkpt>
      <trkpt lat="47.03519" lon="-1.63901">
        <ele>51</ele>
        <time>2022-11-11T12:15:38Z</time>
      </trkpt>
      <trkpt lat="47.03512" lon="-1.63885">
        <ele>51</ele>
        <time>2022-11-11T12:15:40Z</time>
      </trkpt>
      <trkpt lat="47.03503" lon="-1.63872">
        <ele>51</ele>
        <time>2022-11-11T12:15:42Z</time>
      </trkpt>
      <trkpt lat="47.03491" lon="-1.63861">
        <ele>50</ele>
        <time>2022-11-11T12:15:44Z</time>
      </trkpt>
      <trkpt lat="47.03481" lon="-1.63852">
        <ele>50</ele>
        <time>2022-11-11T12:15:46Z</time>
      </trkpt>
      <trkpt lat="47.03469" lon="-1.63842">
        <ele>51</ele>
        <time>2022-11-11T12:15:48Z</time>
      </trkpt>
      <trkpt lat="47.03459" lon="-1.63833">
        <ele>51</ele>
        <time>2022-11-11T12:15:50Z</time>
      </trkpt>
      <trkpt lat="47.03448" lon="-1.63823">
        <ele>51</ele>
        <time>2022-11-11T12:15:52Z</time>
      </trkpt>
      <trkpt lat="47.03437" lon="-1.63814">
        <ele>51</ele>
        <time>2022-11-11T12:15:54Z</time>
      </trkpt>
      <trkpt lat="47.03426" lon="-1.63805">
        <ele>52</ele>
        <time>2022-11-11T12:15:56Z</time>
      </trkpt>
      <trkpt lat="47.03416" lon="-1.63795">
        <ele>52</ele>
        <time>2022-11-11T12:15:58Z</time>
      </trkpt>
      <trkpt lat="47.03405" lon="-1.63785">
        <ele>52</ele>
        <time>2022-11-11T12:16:00Z</time>
      </trkpt>
      <trkpt lat="47.03395" lon="-1.63775">
        <ele>52</ele>
        <time>2022-11-11T12:16:02Z</time>
      </trkpt>
      <trkpt lat="47.03385" lon="-1.63765">
        <ele>52</ele>
        <time>2022-11-11T12:16:04Z</time>
      </trkpt>
      <trkpt lat="47.03374" lon="-1.63755">
        <ele>52</ele>
        <time>2022-11-11T12:16:06Z</time>
      </trkpt>
      <trkpt lat="47.03364" lon="-1.63745">
        <ele>52</ele>
        <time>2022-11-11T12:16:08Z</time>
      </trkpt>
      <trkpt lat="47.03353" lon="-1.63735">
        <ele>52</ele>
        <time>2022-11-11T12:16:10Z</time>
      </trkpt>
      <trkpt lat="47.03343" lon="-1.63726">
        <ele>52</ele>
        <time>2022-11-11T12:16:12Z</time>
      </trkpt>
      <trkpt lat="47.03333" lon="-1.63716">
        <ele>52</ele>
        <time>2022-11-11T12:16:14Z</time>
      </trkpt>
      <trkpt lat="47.03322" lon="-1.63707">
        <ele>52</ele>
        <time>2022-11-11T12:16:16Z</time>
      </trkpt>
      <trkpt lat="47.03312" lon="-1.63699">
        <ele>53</ele>
        <time>2022-11-11T12:16:18Z</time>
      </trkpt>
      <trkpt lat="47.03301" lon="-1.6369">
        <ele>53</ele>
        <time>2022-11-11T12:16:20Z</time>
      </trkpt>
      <trkpt lat="47.03292" lon="-1.6368">
        <ele>53</ele>
        <time>2022-11-11T12:16:22Z</time>
      </trkpt>
      <trkpt lat="47.03282" lon="-1.63671">
        <ele>53</ele>
        <time>2022-11-11T12:16:24Z</time>
      </trkpt>
      <trkpt lat="47.03272" lon="-1.63661">
        <ele>53</ele>
        <time>2022-11-11T12:16:26Z</time>
      </trkpt>
      <trkpt lat="47.03263" lon="-1.63651">
        <ele>53</ele>
        <time>2022-11-11T12:16:28Z</time>
      </trkpt>
      <trkpt lat="47.03254" lon="-1.6364">
        <ele>53</ele>
        <time>2022-11-11T12:16:30Z</time>
      </trkpt>
      <trkpt lat="47.03244" lon="-1.63631">
        <ele>53</ele>
        <time>2022-11-11T12:16:32Z</time>
      </trkpt>
      <trkpt lat="47.03235" lon="-1.63623">
        <ele>54</ele>
        <time>2022-11-11T12:16:34Z</time>
      </trkpt>
      <trkpt lat="47.03228" lon="-1.63612">
        <ele>54</ele>
        <time>2022-11-11T12:16:36Z</time>
      </trkpt>
      <trkpt lat="47.03232" lon="-1.63599">
        <ele>54</ele>
        <time>2022-11-11T12:16:38Z</time>
      </trkpt>
      <trkpt lat="47.03235" lon="-1.63584">
        <ele>54</ele>
        <time>2022-11-11T12:16:40Z</time>
      </trkpt>
      <trkpt lat="47.03233" lon="-1.63568">
        <ele>54</ele>
        <time>2022-11-11T12:16:42Z</time>
      </trkpt>
      <trkpt lat="47.0323" lon="-1.63552">
        <ele>54</ele>
        <time>2022-11-11T12:16:44Z</time>
      </trkpt>
      <trkpt lat="47.03227" lon="-1.63537">
        <ele>54</ele>
        <time>2022-11-11T12:16:46Z</time>
      </trkpt>
      <trkpt lat="47.03223" lon="-1.63521">
        <ele>54</ele>
        <time>2022-11-11T12:16:48Z</time>
      </trkpt>
      <trkpt lat="47.0322" lon="-1.63505">
        <ele>54</ele>
        <time>2022-11-11T12:16:50Z</time>
      </trkpt>
      <trkpt lat="47.03216" lon="-1.63488">
        <ele>55</ele>
        <time>2022-11-11T12:16:52Z</time>
      </trkpt>
      <trkpt lat="47.03212" lon="-1.63472">
        <ele>55</ele>
        <time>2022-11-11T12:16:54Z</time>
      </trkpt>
      <trkpt lat="47.03208" lon="-1.63456">
        <ele>55</ele>
        <time>2022-11-11T12:16:56Z</time>
      </trkpt>
      <trkpt lat="47.03204" lon="-1.6344">
        <ele>55</ele>
        <time>2022-11-11T12:16:58Z</time>
      </trkpt>
      <trkpt lat="47.03202" lon="-1.63423">
        <ele>55</ele>
        <time>2022-11-11T12:17:00Z</time>
      </trkpt>
      <trkpt lat="47.03198" lon="-1.63407">
        <ele>55</ele>
        <time>2022-11-11T12:17:02Z</time>
      </trkpt>
      <trkpt lat="47.03195" lon="-1.63391">
        <ele>55</ele>
        <time>2022-11-11T12:17:04Z</time>
      </trkpt>
      <trkpt lat="47.03192" lon="-1.63374">
        <ele>55</ele>
        <time>2022-11-11T12:17:06Z</time>
      </trkpt>
      <trkpt lat="47.03188" lon="-1.63357">
        <ele>55</ele>
        <time>2022-11-11T12:17:08Z</time>
      </trkpt>
      <trkpt lat="47.03185" lon="-1.6334">
        <ele>55</ele>
        <time>2022-11-11T12:17:10Z</time>
      </trkpt>
      <trkpt lat="47.03181" lon="-1.63322">
        <ele>55</ele>
        <time>2022-11-11T12:17:12Z</time>
      </trkpt>
      <trkpt lat="47.03178" lon="-1.63306">
        <ele>55</ele>
        <time>2022-11-11T12:17:14Z</time>
      </trkpt>
      <trkpt lat="47.03174" lon="-1.63289">
        <ele>55</ele>
        <time>2022-11-11T12:17:16Z</time>
      </trkpt>
      <trkpt lat="47.03171" lon="-1.63272">
        <ele>55</ele>
        <time>2022-11-11T12:17:18Z</time>
      </trkpt>
      <trkpt lat="47.03168" lon="-1.63256">
        <ele>56</ele>
        <time>2022-11-11T12:17:20Z</time>
      </trkpt>
      <trkpt lat="47.03164" lon="-1.63239">
        <ele>55</ele>
        <time>2022-11-11T12:17:22Z</time>
      </trkpt>
      <trkpt lat="47.03161" lon="-1.63224">
        <ele>56</ele>
        <time>2022-11-11T12:17:24Z</time>
      </trkpt>
      <trkpt lat="47.03157" lon="-1.63209">
        <ele>57</ele>
        <time>2022-11-11T12:17:26Z</time>
      </trkpt>
      <trkpt lat="47.03153" lon="-1.63193">
        <ele>57</ele>
        <time>2022-11-11T12:17:28Z</time>
      </trkpt>
      <trkpt lat="47.0315" lon="-1.63176">
        <ele>58</ele>
        <time>2022-11-11T12:17:30Z</time>
      </trkpt>
      <trkpt lat="47.03147" lon="-1.6316">
        <ele>58</ele>
        <time>2022-11-11T12:17:32Z</time>
      </trkpt>
      <trkpt lat="47.03143" lon="-1.63143">
        <ele>57</ele>
        <time>2022-11-11T12:17:34Z</time>
      </trkpt>
      <trkpt lat="47.0314" lon="-1.63127">
        <ele>57</ele>
        <time>2022-11-11T12:17:36Z</time>
      </trkpt>
      <trkpt lat="47.03137" lon="-1.63112">
        <ele>57</ele>
        <time>2022-11-11T12:17:38Z</time>
      </trkpt>
      <trkpt lat="47.03133" lon="-1.63096">
        <ele>56</ele>
        <time>2022-11-11T12:17:40Z</time>
      </trkpt>
      <trkpt lat="47.03131" lon="-1.6308">
        <ele>56</ele>
        <time>2022-11-11T12:17:42Z</time>
      </trkpt>
      <trkpt lat="47.03128" lon="-1.63065">
        <ele>56</ele>
        <time>2022-11-11T12:17:44Z</time>
      </trkpt>
      <trkpt lat="47.03125" lon="-1.63048">
        <ele>55</ele>
        <time>2022-11-11T12:17:46Z</time>
      </trkpt>
      <trkpt lat="47.03121" lon="-1.63034">
        <ele>55</ele>
        <time>2022-11-11T12:17:48Z</time>
      </trkpt>
      <trkpt lat="47.03116" lon="-1.63021">
        <ele>55</ele>
        <time>2022-11-11T12:17:52Z</time>
      </trkpt>
      <trkpt lat="47.03113" lon="-1.63006">
        <ele>55</ele>
        <time>2022-11-11T12:19:19Z</time>
      </trkpt>
      <trkpt lat="47.03111" lon="-1.6299">
        <ele>55</ele>
        <time>2022-11-11T12:19:22Z</time>
      </trkpt>
      <trkpt lat="47.03108" lon="-1.62976">
        <ele>54</ele>
        <time>2022-11-11T12:19:24Z</time>
      </trkpt>
      <trkpt lat="47.03105" lon="-1.62961">
        <ele>54</ele>
        <time>2022-11-11T12:19:26Z</time>
      </trkpt>
      <trkpt lat="47.03101" lon="-1.62945">
        <ele>54</ele>
        <time>2022-11-11T12:19:28Z</time>
      </trkpt>
      <trkpt lat="47.03096" lon="-1.62929">
        <ele>53</ele>
        <time>2022-11-11T12:19:30Z</time>
      </trkpt>
      <trkpt lat="47.0309" lon="-1.62914">
        <ele>54</ele>
        <time>2022-11-11T12:19:32Z</time>
      </trkpt>
      <trkpt lat="47.03089" lon="-1.62896">
        <ele>53</ele>
        <time>2022-11-11T12:19:34Z</time>
      </trkpt>
      <trkpt lat="47.03088" lon="-1.62877">
        <ele>53</ele>
        <time>2022-11-11T12:19:36Z</time>
      </trkpt>
      <trkpt lat="47.03085" lon="-1.62859">
        <ele>53</ele>
        <time>2022-11-11T12:19:38Z</time>
      </trkpt>
      <trkpt lat="47.03081" lon="-1.62841">
        <ele>53</ele>
        <time>2022-11-11T12:19:40Z</time>
      </trkpt>
      <trkpt lat="47.03077" lon="-1.62824">
        <ele>53</ele>
        <time>2022-11-11T12:19:42Z</time>
      </trkpt>
      <trkpt lat="47.03074" lon="-1.62806">
        <ele>54</ele>
        <time>2022-11-11T12:19:44Z</time>
      </trkpt>
      <trkpt lat="47.0307" lon="-1.62787">
        <ele>54</ele>
        <time>2022-11-11T12:19:46Z</time>
      </trkpt>
      <trkpt lat="47.03067" lon="-1.62767">
        <ele>54</ele>
        <time>2022-11-11T12:19:48Z</time>
      </trkpt>
      <trkpt lat="47.03063" lon="-1.62749">
        <ele>53</ele>
        <time>2022-11-11T12:19:50Z</time>
      </trkpt>
      <trkpt lat="47.03059" lon="-1.6273">
        <ele>53</ele>
        <time>2022-11-11T12:19:52Z</time>
      </trkpt>
      <trkpt lat="47.03055" lon="-1.62712">
        <ele>54</ele>
        <time>2022-11-11T12:19:54Z</time>
      </trkpt>
      <trkpt lat="47.03051" lon="-1.62693">
        <ele>53</ele>
        <time>2022-11-11T12:19:56Z</time>
      </trkpt>
      <trkpt lat="47.03047" lon="-1.62674">
        <ele>53</ele>
        <time>2022-11-11T12:19:58Z</time>
      </trkpt>
      <trkpt lat="47.03043" lon="-1.62655">
        <ele>53</ele>
        <time>2022-11-11T12:20:00Z</time>
      </trkpt>
      <trkpt lat="47.03039" lon="-1.62636">
        <ele>53</ele>
        <time>2022-11-11T12:20:02Z</time>
      </trkpt>
      <trkpt lat="47.03036" lon="-1.62617">
        <ele>53</ele>
        <time>2022-11-11T12:20:04Z</time>
      </trkpt>
      <trkpt lat="47.03032" lon="-1.62599">
        <ele>53</ele>
        <time>2022-11-11T12:20:06Z</time>
      </trkpt>
      <trkpt lat="47.03028" lon="-1.62581">
        <ele>53</ele>
        <time>2022-11-11T12:20:08Z</time>
      </trkpt>
      <trkpt lat="47.03024" lon="-1.62563">
        <ele>53</ele>
        <time>2022-11-11T12:20:10Z</time>
      </trkpt>
      <trkpt lat="47.0302" lon="-1.62545">
        <ele>53</ele>
        <time>2022-11-11T12:20:12Z</time>
      </trkpt>
      <trkpt lat="47.03016" lon="-1.62528">
        <ele>53</ele>
        <time>2022-11-11T12:20:14Z</time>
      </trkpt>
      <trkpt lat="47.03012" lon="-1.62511">
        <ele>53</ele>
        <time>2022-11-11T12:20:16Z</time>
      </trkpt>
      <trkpt lat="47.03005" lon="-1.62496">
        <ele>53</ele>
        <time>2022-11-11T12:20:18Z</time>
      </trkpt>
      <trkpt lat="47.02997" lon="-1.62482">
        <ele>53</ele>
        <time>2022-11-11T12:20:20Z</time>
      </trkpt>
      <trkpt lat="47.02993" lon="-1.62466">
        <ele>53</ele>
        <time>2022-11-11T12:20:22Z</time>
      </trkpt>
      <trkpt lat="47.0299" lon="-1.62448">
        <ele>52</ele>
        <time>2022-11-11T12:20:24Z</time>
      </trkpt>
      <trkpt lat="47.02985" lon="-1.62432">
        <ele>52</ele>
        <time>2022-11-11T12:20:26Z</time>
      </trkpt>
      <trkpt lat="47.02978" lon="-1.62418">
        <ele>52</ele>
        <time>2022-11-11T12:20:28Z</time>
      </trkpt>
      <trkpt lat="47.0297" lon="-1.62405">
        <ele>52</ele>
        <time>2022-11-11T12:20:30Z</time>
      </trkpt>
      <trkpt lat="47.02962" lon="-1.62392">
        <ele>53</ele>
        <time>2022-11-11T12:20:32Z</time>
      </trkpt>
      <trkpt lat="47.02953" lon="-1.62378">
        <ele>53</ele>
        <time>2022-11-11T12:20:34Z</time>
      </trkpt>
      <trkpt lat="47.02945" lon="-1.62364">
        <ele>53</ele>
        <time>2022-11-11T12:20:36Z</time>
      </trkpt>
      <trkpt lat="47.02936" lon="-1.62351">
        <ele>53</ele>
        <time>2022-11-11T12:20:38Z</time>
      </trkpt>
      <trkpt lat="47.02927" lon="-1.62338">
        <ele>53</ele>
        <time>2022-11-11T12:20:40Z</time>
      </trkpt>
      <trkpt lat="47.02918" lon="-1.62325">
        <ele>54</ele>
        <time>2022-11-11T12:20:42Z</time>
      </trkpt>
      <trkpt lat="47.02909" lon="-1.62311">
        <ele>54</ele>
        <time>2022-11-11T12:20:44Z</time>
      </trkpt>
      <trkpt lat="47.02901" lon="-1.62298">
        <ele>54</ele>
        <time>2022-11-11T12:20:46Z</time>
      </trkpt>
      <trkpt lat="47.02893" lon="-1.62285">
        <ele>54</ele>
        <time>2022-11-11T12:20:48Z</time>
      </trkpt>
      <trkpt lat="47.02884" lon="-1.62272">
        <ele>54</ele>
        <time>2022-11-11T12:20:50Z</time>
      </trkpt>
      <trkpt lat="47.02875" lon="-1.62259">
        <ele>54</ele>
        <time>2022-11-11T12:20:52Z</time>
      </trkpt>
      <trkpt lat="47.02867" lon="-1.62247">
        <ele>54</ele>
        <time>2022-11-11T12:20:54Z</time>
      </trkpt>
      <trkpt lat="47.02858" lon="-1.62234">
        <ele>55</ele>
        <time>2022-11-11T12:20:56Z</time>
      </trkpt>
      <trkpt lat="47.0285" lon="-1.62223">
        <ele>56</ele>
        <time>2022-11-11T12:20:58Z</time>
      </trkpt>
      <trkpt lat="47.02841" lon="-1.62211">
        <ele>56</ele>
        <time>2022-11-11T12:21:00Z</time>
      </trkpt>
      <trkpt lat="47.02833" lon="-1.62198">
        <ele>57</ele>
        <time>2022-11-11T12:21:02Z</time>
      </trkpt>
      <trkpt lat="47.02826" lon="-1.62186">
        <ele>57</ele>
        <time>2022-11-11T12:21:04Z</time>
      </trkpt>
      <trkpt lat="47.02818" lon="-1.62174">
        <ele>58</ele>
        <time>2022-11-11T12:21:06Z</time>
      </trkpt>
      <trkpt lat="47.0281" lon="-1.62162">
        <ele>58</ele>
        <time>2022-11-11T12:21:08Z</time>
      </trkpt>
      <trkpt lat="47.02802" lon="-1.62149">
        <ele>58</ele>
        <time>2022-11-11T12:21:10Z</time>
      </trkpt>
      <trkpt lat="47.02794" lon="-1.62136">
        <ele>59</ele>
        <time>2022-11-11T12:21:12Z</time>
      </trkpt>
      <trkpt lat="47.02787" lon="-1.62123">
        <ele>59</ele>
        <time>2022-11-11T12:21:14Z</time>
      </trkpt>
      <trkpt lat="47.0278" lon="-1.62109">
        <ele>59</ele>
        <time>2022-11-11T12:21:16Z</time>
      </trkpt>
      <trkpt lat="47.02772" lon="-1.62096">
        <ele>59</ele>
        <time>2022-11-11T12:21:18Z</time>
      </trkpt>
      <trkpt lat="47.02766" lon="-1.62082">
        <ele>59</ele>
        <time>2022-11-11T12:21:20Z</time>
      </trkpt>
      <trkpt lat="47.0276" lon="-1.62069">
        <ele>59</ele>
        <time>2022-11-11T12:21:22Z</time>
      </trkpt>
      <trkpt lat="47.02754" lon="-1.62055">
        <ele>59</ele>
        <time>2022-11-11T12:21:24Z</time>
      </trkpt>
      <trkpt lat="47.02748" lon="-1.6204">
        <ele>59</ele>
        <time>2022-11-11T12:21:26Z</time>
      </trkpt>
      <trkpt lat="47.02742" lon="-1.62026">
        <ele>60</ele>
        <time>2022-11-11T12:21:28Z</time>
      </trkpt>
      <trkpt lat="47.02737" lon="-1.62011">
        <ele>60</ele>
        <time>2022-11-11T12:21:30Z</time>
      </trkpt>
      <trkpt lat="47.02731" lon="-1.61997">
        <ele>60</ele>
        <time>2022-11-11T12:21:32Z</time>
      </trkpt>
      <trkpt lat="47.02725" lon="-1.61982">
        <ele>60</ele>
        <time>2022-11-11T12:21:34Z</time>
      </trkpt>
      <trkpt lat="47.02719" lon="-1.61968">
        <ele>60</ele>
        <time>2022-11-11T12:21:36Z</time>
      </trkpt>
      <trkpt lat="47.02713" lon="-1.61954">
        <ele>60</ele>
        <time>2022-11-11T12:21:38Z</time>
      </trkpt>
      <trkpt lat="47.02707" lon="-1.6194">
        <ele>60</ele>
        <time>2022-11-11T12:21:40Z</time>
      </trkpt>
      <trkpt lat="47.02701" lon="-1.61926">
        <ele>60</ele>
        <time>2022-11-11T12:21:42Z</time>
      </trkpt>
      <trkpt lat="47.02695" lon="-1.61912">
        <ele>59</ele>
        <time>2022-11-11T12:21:44Z</time>
      </trkpt>
      <trkpt lat="47.02689" lon="-1.61897">
        <ele>59</ele>
        <time>2022-11-11T12:21:46Z</time>
      </trkpt>
      <trkpt lat="47.02684" lon="-1.61883">
        <ele>59</ele>
        <time>2022-11-11T12:21:48Z</time>
      </trkpt>
      <trkpt lat="47.02678" lon="-1.6187">
        <ele>59</ele>
        <time>2022-11-11T12:21:50Z</time>
      </trkpt>
      <trkpt lat="47.02673" lon="-1.61857">
        <ele>60</ele>
        <time>2022-11-11T12:21:52Z</time>
      </trkpt>
      <trkpt lat="47.02668" lon="-1.61845">
        <ele>60</ele>
        <time>2022-11-11T12:21:54Z</time>
      </trkpt>
      <trkpt lat="47.02664" lon="-1.61834">
        <ele>60</ele>
        <time>2022-11-11T12:21:56Z</time>
      </trkpt>
      <trkpt lat="47.02659" lon="-1.61821">
        <ele>60</ele>
        <time>2022-11-11T12:21:58Z</time>
      </trkpt>
      <trkpt lat="47.02654" lon="-1.61809">
        <ele>61</ele>
        <time>2022-11-11T12:22:00Z</time>
      </trkpt>
      <trkpt lat="47.02649" lon="-1.61797">
        <ele>61</ele>
        <time>2022-11-11T12:22:02Z</time>
      </trkpt>
      <trkpt lat="47.02644" lon="-1.61785">
        <ele>62</ele>
        <time>2022-11-11T12:22:04Z</time>
      </trkpt>
      <trkpt lat="47.02638" lon="-1.61773">
        <ele>62</ele>
        <time>2022-11-11T12:22:06Z</time>
      </trkpt>
      <trkpt lat="47.02633" lon="-1.6176">
        <ele>62</ele>
        <time>2022-11-11T12:22:08Z</time>
      </trkpt>
      <trkpt lat="47.02628" lon="-1.61748">
        <ele>62</ele>
        <time>2022-11-11T12:22:10Z</time>
      </trkpt>
      <trkpt lat="47.02623" lon="-1.61734">
        <ele>63</ele>
        <time>2022-11-11T12:22:12Z</time>
      </trkpt>
      <trkpt lat="47.02617" lon="-1.61722">
        <ele>63</ele>
        <time>2022-11-11T12:22:14Z</time>
      </trkpt>
      <trkpt lat="47.02612" lon="-1.61709">
        <ele>63</ele>
        <time>2022-11-11T12:22:16Z</time>
      </trkpt>
      <trkpt lat="47.02607" lon="-1.61696">
        <ele>64</ele>
        <time>2022-11-11T12:22:18Z</time>
      </trkpt>
      <trkpt lat="47.02602" lon="-1.61684">
        <ele>63</ele>
        <time>2022-11-11T12:22:20Z</time>
      </trkpt>
      <trkpt lat="47.02597" lon="-1.61672">
        <ele>64</ele>
        <time>2022-11-11T12:22:22Z</time>
      </trkpt>
      <trkpt lat="47.02592" lon="-1.6166">
        <ele>64</ele>
        <time>2022-11-11T12:22:24Z</time>
      </trkpt>
      <trkpt lat="47.02586" lon="-1.61648">
        <ele>64</ele>
        <time>2022-11-11T12:22:26Z</time>
      </trkpt>
      <trkpt lat="47.02581" lon="-1.61636">
        <ele>64</ele>
        <time>2022-11-11T12:22:28Z</time>
      </trkpt>
      <trkpt lat="47.02576" lon="-1.61622">
        <ele>64</ele>
        <time>2022-11-11T12:22:30Z</time>
      </trkpt>
      <trkpt lat="47.02571" lon="-1.61608">
        <ele>64</ele>
        <time>2022-11-11T12:22:32Z</time>
      </trkpt>
      <trkpt lat="47.02565" lon="-1.61593">
        <ele>64</ele>
        <time>2022-11-11T12:22:34Z</time>
      </trkpt>
      <trkpt lat="47.02559" lon="-1.61577">
        <ele>64</ele>
        <time>2022-11-11T12:22:36Z</time>
      </trkpt>
      <trkpt lat="47.02552" lon="-1.61561">
        <ele>64</ele>
        <time>2022-11-11T12:22:38Z</time>
      </trkpt>
      <trkpt lat="47.02546" lon="-1.61546">
        <ele>63</ele>
        <time>2022-11-11T12:22:40Z</time>
      </trkpt>
      <trkpt lat="47.02539" lon="-1.6153">
        <ele>64</ele>
        <time>2022-11-11T12:22:42Z</time>
      </trkpt>
      <trkpt lat="47.02533" lon="-1.61516">
        <ele>64</ele>
        <time>2022-11-11T12:22:44Z</time>
      </trkpt>
      <trkpt lat="47.02527" lon="-1.61502">
        <ele>64</ele>
        <time>2022-11-11T12:22:46Z</time>
      </trkpt>
      <trkpt lat="47.02522" lon="-1.61489">
        <ele>64</ele>
        <time>2022-11-11T12:22:48Z</time>
      </trkpt>
      <trkpt lat="47.02517" lon="-1.61475">
        <ele>63</ele>
        <time>2022-11-11T12:22:50Z</time>
      </trkpt>
      <trkpt lat="47.02511" lon="-1.61461">
        <ele>63</ele>
        <time>2022-11-11T12:22:52Z</time>
      </trkpt>
      <trkpt lat="47.02504" lon="-1.61445">
        <ele>62</ele>
        <time>2022-11-11T12:22:54Z</time>
      </trkpt>
      <trkpt lat="47.02497" lon="-1.61428">
        <ele>62</ele>
        <time>2022-11-11T12:22:56Z</time>
      </trkpt>
      <trkpt lat="47.0249" lon="-1.61411">
        <ele>61</ele>
        <time>2022-11-11T12:22:58Z</time>
      </trkpt>
      <trkpt lat="47.02483" lon="-1.61393">
        <ele>60</ele>
        <time>2022-11-11T12:23:00Z</time>
      </trkpt>
      <trkpt lat="47.02475" lon="-1.61375">
        <ele>60</ele>
        <time>2022-11-11T12:23:02Z</time>
      </trkpt>
      <trkpt lat="47.02468" lon="-1.61357">
        <ele>60</ele>
        <time>2022-11-11T12:23:04Z</time>
      </trkpt>
      <trkpt lat="47.02461" lon="-1.61341">
        <ele>61</ele>
        <time>2022-11-11T12:23:06Z</time>
      </trkpt>
      <trkpt lat="47.02454" lon="-1.61324">
        <ele>60</ele>
        <time>2022-11-11T12:23:08Z</time>
      </trkpt>
      <trkpt lat="47.02447" lon="-1.61307">
        <ele>60</ele>
        <time>2022-11-11T12:23:10Z</time>
      </trkpt>
      <trkpt lat="47.0244" lon="-1.61291">
        <ele>60</ele>
        <time>2022-11-11T12:23:12Z</time>
      </trkpt>
      <trkpt lat="47.02433" lon="-1.61274">
        <ele>60</ele>
        <time>2022-11-11T12:23:14Z</time>
      </trkpt>
      <trkpt lat="47.02426" lon="-1.61257">
        <ele>60</ele>
        <time>2022-11-11T12:23:16Z</time>
      </trkpt>
      <trkpt lat="47.0242" lon="-1.61241">
        <ele>60</ele>
        <time>2022-11-11T12:23:18Z</time>
      </trkpt>
      <trkpt lat="47.02413" lon="-1.61226">
        <ele>60</ele>
        <time>2022-11-11T12:23:20Z</time>
      </trkpt>
      <trkpt lat="47.02407" lon="-1.61212">
        <ele>60</ele>
        <time>2022-11-11T12:23:22Z</time>
      </trkpt>
      <trkpt lat="47.02401" lon="-1.61199">
        <ele>60</ele>
        <time>2022-11-11T12:23:24Z</time>
      </trkpt>
      <trkpt lat="47.02396" lon="-1.61186">
        <ele>60</ele>
        <time>2022-11-11T12:23:26Z</time>
      </trkpt>
      <trkpt lat="47.02391" lon="-1.61173">
        <ele>61</ele>
        <time>2022-11-11T12:23:28Z</time>
      </trkpt>
      <trkpt lat="47.02386" lon="-1.6116">
        <ele>61</ele>
        <time>2022-11-11T12:23:30Z</time>
      </trkpt>
      <trkpt lat="47.02381" lon="-1.61147">
        <ele>61</ele>
        <time>2022-11-11T12:23:32Z</time>
      </trkpt>
      <trkpt lat="47.02376" lon="-1.61134">
        <ele>61</ele>
        <time>2022-11-11T12:23:34Z</time>
      </trkpt>
      <trkpt lat="47.0237" lon="-1.61121">
        <ele>61</ele>
        <time>2022-11-11T12:23:36Z</time>
      </trkpt>
      <trkpt lat="47.02364" lon="-1.61107">
        <ele>61</ele>
        <time>2022-11-11T12:23:38Z</time>
      </trkpt>
      <trkpt lat="47.02359" lon="-1.61094">
        <ele>61</ele>
        <time>2022-11-11T12:23:40Z</time>
      </trkpt>
      <trkpt lat="47.02354" lon="-1.61081">
        <ele>61</ele>
        <time>2022-11-11T12:23:42Z</time>
      </trkpt>
      <trkpt lat="47.02349" lon="-1.61068">
        <ele>62</ele>
        <time>2022-11-11T12:23:44Z</time>
      </trkpt>
      <trkpt lat="47.02343" lon="-1.61055">
        <ele>62</ele>
        <time>2022-11-11T12:23:46Z</time>
      </trkpt>
      <trkpt lat="47.02338" lon="-1.61042">
        <ele>62</ele>
        <time>2022-11-11T12:23:48Z</time>
      </trkpt>
      <trkpt lat="47.02332" lon="-1.61028">
        <ele>62</ele>
        <time>2022-11-11T12:23:50Z</time>
      </trkpt>
      <trkpt lat="47.02327" lon="-1.61015">
        <ele>62</ele>
        <time>2022-11-11T12:23:52Z</time>
      </trkpt>
      <trkpt lat="47.02321" lon="-1.61002">
        <ele>63</ele>
        <time>2022-11-11T12:23:54Z</time>
      </trkpt>
      <trkpt lat="47.02316" lon="-1.60989">
        <ele>63</ele>
        <time>2022-11-11T12:23:56Z</time>
      </trkpt>
      <trkpt lat="47.0231" lon="-1.60975">
        <ele>63</ele>
        <time>2022-11-11T12:23:58Z</time>
      </trkpt>
      <trkpt lat="47.02305" lon="-1.60961">
        <ele>63</ele>
        <time>2022-11-11T12:24:00Z</time>
      </trkpt>
      <trkpt lat="47.02299" lon="-1.60947">
        <ele>63</ele>
        <time>2022-11-11T12:24:02Z</time>
      </trkpt>
      <trkpt lat="47.02293" lon="-1.60933">
        <ele>63</ele>
        <time>2022-11-11T12:24:04Z</time>
      </trkpt>
      <trkpt lat="47.02287" lon="-1.60918">
        <ele>64</ele>
        <time>2022-11-11T12:24:06Z</time>
      </trkpt>
      <trkpt lat="47.02281" lon="-1.60904">
        <ele>64</ele>
        <time>2022-11-11T12:24:08Z</time>
      </trkpt>
      <trkpt lat="47.02276" lon="-1.60889">
        <ele>64</ele>
        <time>2022-11-11T12:24:10Z</time>
      </trkpt>
      <trkpt lat="47.0227" lon="-1.60874">
        <ele>64</ele>
        <time>2022-11-11T12:24:12Z</time>
      </trkpt>
      <trkpt lat="47.02264" lon="-1.6086">
        <ele>64</ele>
        <time>2022-11-11T12:24:14Z</time>
      </trkpt>
      <trkpt lat="47.02258" lon="-1.60845">
        <ele>64</ele>
        <time>2022-11-11T12:24:16Z</time>
      </trkpt>
      <trkpt lat="47.02252" lon="-1.60831">
        <ele>64</ele>
        <time>2022-11-11T12:24:18Z</time>
      </trkpt>
      <trkpt lat="47.02246" lon="-1.60816">
        <ele>63</ele>
        <time>2022-11-11T12:24:20Z</time>
      </trkpt>
      <trkpt lat="47.0224" lon="-1.60802">
        <ele>63</ele>
        <time>2022-11-11T12:24:22Z</time>
      </trkpt>
      <trkpt lat="47.02234" lon="-1.60787">
        <ele>63</ele>
        <time>2022-11-11T12:24:24Z</time>
      </trkpt>
      <trkpt lat="47.02228" lon="-1.60773">
        <ele>64</ele>
        <time>2022-11-11T12:24:26Z</time>
      </trkpt>
      <trkpt lat="47.02222" lon="-1.60758">
        <ele>64</ele>
        <time>2022-11-11T12:24:28Z</time>
      </trkpt>
      <trkpt lat="47.02216" lon="-1.60743">
        <ele>64</ele>
        <time>2022-11-11T12:24:30Z</time>
      </trkpt>
      <trkpt lat="47.02209" lon="-1.60729">
        <ele>64</ele>
        <time>2022-11-11T12:24:32Z</time>
      </trkpt>
      <trkpt lat="47.02203" lon="-1.60714">
        <ele>65</ele>
        <time>2022-11-11T12:24:34Z</time>
      </trkpt>
      <trkpt lat="47.02197" lon="-1.60699">
        <ele>65</ele>
        <time>2022-11-11T12:24:36Z</time>
      </trkpt>
      <trkpt lat="47.0219" lon="-1.60684">
        <ele>66</ele>
        <time>2022-11-11T12:24:38Z</time>
      </trkpt>
      <trkpt lat="47.02185" lon="-1.60669">
        <ele>66</ele>
        <time>2022-11-11T12:24:40Z</time>
      </trkpt>
      <trkpt lat="47.02178" lon="-1.60653">
        <ele>67</ele>
        <time>2022-11-11T12:24:42Z</time>
      </trkpt>
      <trkpt lat="47.02172" lon="-1.60638">
        <ele>67</ele>
        <time>2022-11-11T12:24:44Z</time>
      </trkpt>
      <trkpt lat="47.02165" lon="-1.60623">
        <ele>67</ele>
        <time>2022-11-11T12:24:46Z</time>
      </trkpt>
      <trkpt lat="47.02159" lon="-1.60608">
        <ele>66</ele>
        <time>2022-11-11T12:24:48Z</time>
      </trkpt>
      <trkpt lat="47.02153" lon="-1.60593">
        <ele>66</ele>
        <time>2022-11-11T12:24:50Z</time>
      </trkpt>
      <trkpt lat="47.02146" lon="-1.60578">
        <ele>66</ele>
        <time>2022-11-11T12:24:52Z</time>
      </trkpt>
      <trkpt lat="47.02141" lon="-1.60563">
        <ele>66</ele>
        <time>2022-11-11T12:24:54Z</time>
      </trkpt>
      <trkpt lat="47.02134" lon="-1.60548">
        <ele>66</ele>
        <time>2022-11-11T12:24:56Z</time>
      </trkpt>
      <trkpt lat="47.02128" lon="-1.60533">
        <ele>66</ele>
        <time>2022-11-11T12:24:58Z</time>
      </trkpt>
      <trkpt lat="47.02122" lon="-1.60518">
        <ele>65</ele>
        <time>2022-11-11T12:25:00Z</time>
      </trkpt>
      <trkpt lat="47.02116" lon="-1.60503">
        <ele>66</ele>
        <time>2022-11-11T12:25:02Z</time>
      </trkpt>
      <trkpt lat="47.02109" lon="-1.60488">
        <ele>66</ele>
        <time>2022-11-11T12:25:04Z</time>
      </trkpt>
      <trkpt lat="47.02103" lon="-1.60473">
        <ele>66</ele>
        <time>2022-11-11T12:25:06Z</time>
      </trkpt>
      <trkpt lat="47.02097" lon="-1.60459">
        <ele>66</ele>
        <time>2022-11-11T12:25:08Z</time>
      </trkpt>
      <trkpt lat="47.02091" lon="-1.60443">
        <ele>66</ele>
        <time>2022-11-11T12:25:10Z</time>
      </trkpt>
      <trkpt lat="47.02085" lon="-1.60428">
        <ele>66</ele>
        <time>2022-11-11T12:25:12Z</time>
      </trkpt>
      <trkpt lat="47.02079" lon="-1.60413">
        <ele>66</ele>
        <time>2022-11-11T12:25:14Z</time>
      </trkpt>
      <trkpt lat="47.02073" lon="-1.60399">
        <ele>66</ele>
        <time>2022-11-11T12:25:16Z</time>
      </trkpt>
      <trkpt lat="47.02067" lon="-1.60384">
        <ele>66</ele>
        <time>2022-11-11T12:25:18Z</time>
      </trkpt>
      <trkpt lat="47.02061" lon="-1.60369">
        <ele>66</ele>
        <time>2022-11-11T12:25:20Z</time>
      </trkpt>
      <trkpt lat="47.02055" lon="-1.60355">
        <ele>66</ele>
        <time>2022-11-11T12:25:22Z</time>
      </trkpt>
      <trkpt lat="47.02049" lon="-1.6034">
        <ele>66</ele>
        <time>2022-11-11T12:25:24Z</time>
      </trkpt>
      <trkpt lat="47.02044" lon="-1.60325">
        <ele>66</ele>
        <time>2022-11-11T12:25:26Z</time>
      </trkpt>
      <trkpt lat="47.02038" lon="-1.60311">
        <ele>66</ele>
        <time>2022-11-11T12:25:28Z</time>
      </trkpt>
      <trkpt lat="47.02032" lon="-1.60296">
        <ele>66</ele>
        <time>2022-11-11T12:25:30Z</time>
      </trkpt>
      <trkpt lat="47.02026" lon="-1.60281">
        <ele>65</ele>
        <time>2022-11-11T12:25:32Z</time>
      </trkpt>
      <trkpt lat="47.0202" lon="-1.60266">
        <ele>65</ele>
        <time>2022-11-11T12:25:34Z</time>
      </trkpt>
      <trkpt lat="47.02013" lon="-1.6025">
        <ele>65</ele>
        <time>2022-11-11T12:25:36Z</time>
      </trkpt>
      <trkpt lat="47.02007" lon="-1.60235">
        <ele>65</ele>
        <time>2022-11-11T12:25:38Z</time>
      </trkpt>
      <trkpt lat="47.02" lon="-1.6022">
        <ele>65</ele>
        <time>2022-11-11T12:25:40Z</time>
      </trkpt>
      <trkpt lat="47.01994" lon="-1.60204">
        <ele>65</ele>
        <time>2022-11-11T12:25:42Z</time>
      </trkpt>
      <trkpt lat="47.01988" lon="-1.60189">
        <ele>65</ele>
        <time>2022-11-11T12:25:44Z</time>
      </trkpt>
      <trkpt lat="47.01981" lon="-1.60173">
        <ele>64</ele>
        <time>2022-11-11T12:25:46Z</time>
      </trkpt>
      <trkpt lat="47.01975" lon="-1.60157">
        <ele>64</ele>
        <time>2022-11-11T12:25:48Z</time>
      </trkpt>
      <trkpt lat="47.01969" lon="-1.60142">
        <ele>64</ele>
        <time>2022-11-11T12:25:50Z</time>
      </trkpt>
      <trkpt lat="47.01963" lon="-1.60126">
        <ele>63</ele>
        <time>2022-11-11T12:25:52Z</time>
      </trkpt>
      <trkpt lat="47.01956" lon="-1.6011">
        <ele>63</ele>
        <time>2022-11-11T12:25:54Z</time>
      </trkpt>
      <trkpt lat="47.01949" lon="-1.60094">
        <ele>63</ele>
        <time>2022-11-11T12:25:56Z</time>
      </trkpt>
      <trkpt lat="47.01942" lon="-1.60077">
        <ele>63</ele>
        <time>2022-11-11T12:25:58Z</time>
      </trkpt>
      <trkpt lat="47.01935" lon="-1.6006">
        <ele>63</ele>
        <time>2022-11-11T12:26:00Z</time>
      </trkpt>
      <trkpt lat="47.01929" lon="-1.60043">
        <ele>63</ele>
        <time>2022-11-11T12:26:02Z</time>
      </trkpt>
      <trkpt lat="47.01922" lon="-1.60027">
        <ele>63</ele>
        <time>2022-11-11T12:26:04Z</time>
      </trkpt>
      <trkpt lat="47.01915" lon="-1.6001">
        <ele>63</ele>
        <time>2022-11-11T12:26:06Z</time>
      </trkpt>
      <trkpt lat="47.01908" lon="-1.59994">
        <ele>63</ele>
        <time>2022-11-11T12:26:08Z</time>
      </trkpt>
      <trkpt lat="47.01902" lon="-1.59978">
        <ele>63</ele>
        <time>2022-11-11T12:26:10Z</time>
      </trkpt>
      <trkpt lat="47.01895" lon="-1.59962">
        <ele>63</ele>
        <time>2022-11-11T12:26:12Z</time>
      </trkpt>
      <trkpt lat="47.01888" lon="-1.59945">
        <ele>63</ele>
        <time>2022-11-11T12:26:14Z</time>
      </trkpt>
      <trkpt lat="47.01882" lon="-1.59929">
        <ele>63</ele>
        <time>2022-11-11T12:26:16Z</time>
      </trkpt>
      <trkpt lat="47.01875" lon="-1.59912">
        <ele>63</ele>
        <time>2022-11-11T12:26:18Z</time>
      </trkpt>
      <trkpt lat="47.01868" lon="-1.59896">
        <ele>63</ele>
        <time>2022-11-11T12:26:20Z</time>
      </trkpt>
      <trkpt lat="47.01862" lon="-1.59881">
        <ele>63</ele>
        <time>2022-11-11T12:26:22Z</time>
      </trkpt>
      <trkpt lat="47.01855" lon="-1.59865">
        <ele>63</ele>
        <time>2022-11-11T12:26:24Z</time>
      </trkpt>
      <trkpt lat="47.01849" lon="-1.59849">
        <ele>63</ele>
        <time>2022-11-11T12:26:26Z</time>
      </trkpt>
      <trkpt lat="47.01842" lon="-1.59833">
        <ele>63</ele>
        <time>2022-11-11T12:26:28Z</time>
      </trkpt>
      <trkpt lat="47.01836" lon="-1.59818">
        <ele>63</ele>
        <time>2022-11-11T12:26:30Z</time>
      </trkpt>
      <trkpt lat="47.01829" lon="-1.59802">
        <ele>63</ele>
        <time>2022-11-11T12:26:32Z</time>
      </trkpt>
      <trkpt lat="47.01823" lon="-1.59785">
        <ele>63</ele>
        <time>2022-11-11T12:26:34Z</time>
      </trkpt>
      <trkpt lat="47.01816" lon="-1.59769">
        <ele>63</ele>
        <time>2022-11-11T12:26:36Z</time>
      </trkpt>
      <trkpt lat="47.01809" lon="-1.59753">
        <ele>63</ele>
        <time>2022-11-11T12:26:38Z</time>
      </trkpt>
      <trkpt lat="47.01802" lon="-1.59737">
        <ele>63</ele>
        <time>2022-11-11T12:26:40Z</time>
      </trkpt>
      <trkpt lat="47.01791" lon="-1.59712">
        <ele>63</ele>
        <time>2022-11-11T12:26:43Z</time>
      </trkpt>
      <trkpt lat="47.01785" lon="-1.59695">
        <ele>63</ele>
        <time>2022-11-11T12:26:45Z</time>
      </trkpt>
      <trkpt lat="47.01779" lon="-1.59679">
        <ele>63</ele>
        <time>2022-11-11T12:26:47Z</time>
      </trkpt>
      <trkpt lat="47.01772" lon="-1.59663">
        <ele>63</ele>
        <time>2022-11-11T12:26:49Z</time>
      </trkpt>
      <trkpt lat="47.01765" lon="-1.59646">
        <ele>63</ele>
        <time>2022-11-11T12:26:51Z</time>
      </trkpt>
      <trkpt lat="47.01758" lon="-1.59629">
        <ele>63</ele>
        <time>2022-11-11T12:26:53Z</time>
      </trkpt>
      <trkpt lat="47.01751" lon="-1.59613">
        <ele>63</ele>
        <time>2022-11-11T12:26:55Z</time>
      </trkpt>
      <trkpt lat="47.01745" lon="-1.59596">
        <ele>63</ele>
        <time>2022-11-11T12:26:57Z</time>
      </trkpt>
      <trkpt lat="47.01738" lon="-1.5958">
        <ele>63</ele>
        <time>2022-11-11T12:26:59Z</time>
      </trkpt>
      <trkpt lat="47.01731" lon="-1.59563">
        <ele>64</ele>
        <time>2022-11-11T12:27:01Z</time>
      </trkpt>
      <trkpt lat="47.01724" lon="-1.59547">
        <ele>64</ele>
        <time>2022-11-11T12:27:03Z</time>
      </trkpt>
      <trkpt lat="47.01717" lon="-1.5953">
        <ele>64</ele>
        <time>2022-11-11T12:27:05Z</time>
      </trkpt>
      <trkpt lat="47.0171" lon="-1.59513">
        <ele>64</ele>
        <time>2022-11-11T12:27:07Z</time>
      </trkpt>
      <trkpt lat="47.01703" lon="-1.59496">
        <ele>63</ele>
        <time>2022-11-11T12:27:09Z</time>
      </trkpt>
      <trkpt lat="47.01696" lon="-1.59478">
        <ele>63</ele>
        <time>2022-11-11T12:27:11Z</time>
      </trkpt>
      <trkpt lat="47.01688" lon="-1.59461">
        <ele>63</ele>
        <time>2022-11-11T12:27:13Z</time>
      </trkpt>
      <trkpt lat="47.01681" lon="-1.59443">
        <ele>62</ele>
        <time>2022-11-11T12:27:15Z</time>
      </trkpt>
      <trkpt lat="47.01674" lon="-1.59426">
        <ele>62</ele>
        <time>2022-11-11T12:27:17Z</time>
      </trkpt>
      <trkpt lat="47.01667" lon="-1.59408">
        <ele>62</ele>
        <time>2022-11-11T12:27:19Z</time>
      </trkpt>
      <trkpt lat="47.01659" lon="-1.59391">
        <ele>62</ele>
        <time>2022-11-11T12:27:21Z</time>
      </trkpt>
      <trkpt lat="47.01652" lon="-1.59373">
        <ele>62</ele>
        <time>2022-11-11T12:27:23Z</time>
      </trkpt>
      <trkpt lat="47.01645" lon="-1.59355">
        <ele>61</ele>
        <time>2022-11-11T12:27:25Z</time>
      </trkpt>
      <trkpt lat="47.01639" lon="-1.59336">
        <ele>61</ele>
        <time>2022-11-11T12:27:27Z</time>
      </trkpt>
      <trkpt lat="47.01633" lon="-1.59317">
        <ele>60</ele>
        <time>2022-11-11T12:27:29Z</time>
      </trkpt>
      <trkpt lat="47.01628" lon="-1.59297">
        <ele>60</ele>
        <time>2022-11-11T12:27:31Z</time>
      </trkpt>
      <trkpt lat="47.01623" lon="-1.59277">
        <ele>59</ele>
        <time>2022-11-11T12:27:33Z</time>
      </trkpt>
      <trkpt lat="47.01618" lon="-1.59257">
        <ele>59</ele>
        <time>2022-11-11T12:27:35Z</time>
      </trkpt>
      <trkpt lat="47.01614" lon="-1.59235">
        <ele>58</ele>
        <time>2022-11-11T12:27:37Z</time>
      </trkpt>
      <trkpt lat="47.01611" lon="-1.59214">
        <ele>58</ele>
        <time>2022-11-11T12:27:39Z</time>
      </trkpt>
      <trkpt lat="47.01609" lon="-1.59192">
        <ele>58</ele>
        <time>2022-11-11T12:27:41Z</time>
      </trkpt>
      <trkpt lat="47.01606" lon="-1.5917">
        <ele>58</ele>
        <time>2022-11-11T12:27:43Z</time>
      </trkpt>
      <trkpt lat="47.01605" lon="-1.59147">
        <ele>57</ele>
        <time>2022-11-11T12:27:45Z</time>
      </trkpt>
      <trkpt lat="47.01604" lon="-1.59125">
        <ele>57</ele>
        <time>2022-11-11T12:27:47Z</time>
      </trkpt>
      <trkpt lat="47.01602" lon="-1.59104">
        <ele>57</ele>
        <time>2022-11-11T12:27:49Z</time>
      </trkpt>
      <trkpt lat="47.01601" lon="-1.59082">
        <ele>57</ele>
        <time>2022-11-11T12:27:51Z</time>
      </trkpt>
      <trkpt lat="47.016" lon="-1.59061">
        <ele>57</ele>
        <time>2022-11-11T12:27:53Z</time>
      </trkpt>
      <trkpt lat="47.01599" lon="-1.5904">
        <ele>57</ele>
        <time>2022-11-11T12:27:55Z</time>
      </trkpt>
      <trkpt lat="47.01597" lon="-1.5902">
        <ele>57</ele>
        <time>2022-11-11T12:27:57Z</time>
      </trkpt>
      <trkpt lat="47.01596" lon="-1.59001">
        <ele>57</ele>
        <time>2022-11-11T12:27:59Z</time>
      </trkpt>
      <trkpt lat="47.01595" lon="-1.58982">
        <ele>57</ele>
        <time>2022-11-11T12:28:01Z</time>
      </trkpt>
      <trkpt lat="47.01594" lon="-1.58962">
        <ele>57</ele>
        <time>2022-11-11T12:28:03Z</time>
      </trkpt>
      <trkpt lat="47.01593" lon="-1.58942">
        <ele>57</ele>
        <time>2022-11-11T12:28:05Z</time>
      </trkpt>
      <trkpt lat="47.01591" lon="-1.58921">
        <ele>57</ele>
        <time>2022-11-11T12:28:07Z</time>
      </trkpt>
      <trkpt lat="47.0159" lon="-1.58902">
        <ele>57</ele>
        <time>2022-11-11T12:28:09Z</time>
      </trkpt>
      <trkpt lat="47.01589" lon="-1.58881">
        <ele>57</ele>
        <time>2022-11-11T12:28:11Z</time>
      </trkpt>
      <trkpt lat="47.01586" lon="-1.58863">
        <ele>57</ele>
        <time>2022-11-11T12:28:13Z</time>
      </trkpt>
      <trkpt lat="47.01583" lon="-1.58847">
        <ele>57</ele>
        <time>2022-11-11T12:28:15Z</time>
      </trkpt>
      <trkpt lat="47.01578" lon="-1.58831">
        <ele>57</ele>
        <time>2022-11-11T12:28:17Z</time>
      </trkpt>
      <trkpt lat="47.01573" lon="-1.58817">
        <ele>58</ele>
        <time>2022-11-11T12:28:19Z</time>
      </trkpt>
      <trkpt lat="47.01565" lon="-1.58804">
        <ele>58</ele>
        <time>2022-11-11T12:28:21Z</time>
      </trkpt>
      <trkpt lat="47.01558" lon="-1.58791">
        <ele>58</ele>
        <time>2022-11-11T12:28:23Z</time>
      </trkpt>
      <trkpt lat="47.01549" lon="-1.58779">
        <ele>59</ele>
        <time>2022-11-11T12:28:25Z</time>
      </trkpt>
      <trkpt lat="47.0154" lon="-1.58769">
        <ele>59</ele>
        <time>2022-11-11T12:28:27Z</time>
      </trkpt>
      <trkpt lat="47.0153" lon="-1.58759">
        <ele>59</ele>
        <time>2022-11-11T12:28:29Z</time>
      </trkpt>
      <trkpt lat="47.0152" lon="-1.58749">
        <ele>59</ele>
        <time>2022-11-11T12:28:31Z</time>
      </trkpt>
      <trkpt lat="47.01511" lon="-1.5874">
        <ele>60</ele>
        <time>2022-11-11T12:28:33Z</time>
      </trkpt>
      <trkpt lat="47.01501" lon="-1.5873">
        <ele>60</ele>
        <time>2022-11-11T12:28:35Z</time>
      </trkpt>
      <trkpt lat="47.01491" lon="-1.5872">
        <ele>60</ele>
        <time>2022-11-11T12:28:37Z</time>
      </trkpt>
      <trkpt lat="47.01481" lon="-1.5871">
        <ele>60</ele>
        <time>2022-11-11T12:28:39Z</time>
      </trkpt>
      <trkpt lat="47.01472" lon="-1.58701">
        <ele>60</ele>
        <time>2022-11-11T12:28:41Z</time>
      </trkpt>
      <trkpt lat="47.01462" lon="-1.5869">
        <ele>61</ele>
        <time>2022-11-11T12:28:43Z</time>
      </trkpt>
      <trkpt lat="47.01453" lon="-1.5868">
        <ele>61</ele>
        <time>2022-11-11T12:28:45Z</time>
      </trkpt>
      <trkpt lat="47.01443" lon="-1.58669">
        <ele>60</ele>
        <time>2022-11-11T12:28:47Z</time>
      </trkpt>
      <trkpt lat="47.01433" lon="-1.58659">
        <ele>60</ele>
        <time>2022-11-11T12:28:49Z</time>
      </trkpt>
      <trkpt lat="47.01423" lon="-1.58648">
        <ele>59</ele>
        <time>2022-11-11T12:28:51Z</time>
      </trkpt>
      <trkpt lat="47.01414" lon="-1.58637">
        <ele>59</ele>
        <time>2022-11-11T12:28:53Z</time>
      </trkpt>
      <trkpt lat="47.01404" lon="-1.58626">
        <ele>60</ele>
        <time>2022-11-11T12:28:55Z</time>
      </trkpt>
      <trkpt lat="47.01395" lon="-1.58615">
        <ele>60</ele>
        <time>2022-11-11T12:28:57Z</time>
      </trkpt>
      <trkpt lat="47.01385" lon="-1.58605">
        <ele>60</ele>
        <time>2022-11-11T12:28:59Z</time>
      </trkpt>
      <trkpt lat="47.01374" lon="-1.58598">
        <ele>59</ele>
        <time>2022-11-11T12:29:01Z</time>
      </trkpt>
      <trkpt lat="47.01362" lon="-1.58591">
        <ele>60</ele>
        <time>2022-11-11T12:29:03Z</time>
      </trkpt>
      <trkpt lat="47.01352" lon="-1.58584">
        <ele>60</ele>
        <time>2022-11-11T12:29:05Z</time>
      </trkpt>
      <trkpt lat="47.01341" lon="-1.58578">
        <ele>60</ele>
        <time>2022-11-11T12:29:07Z</time>
      </trkpt>
      <trkpt lat="47.0133" lon="-1.58574">
        <ele>60</ele>
        <time>2022-11-11T12:29:09Z</time>
      </trkpt>
      <trkpt lat="47.0132" lon="-1.5857">
        <ele>60</ele>
        <time>2022-11-11T12:29:11Z</time>
      </trkpt>
      <trkpt lat="47.0131" lon="-1.58567">
        <ele>60</ele>
        <time>2022-11-11T12:29:13Z</time>
      </trkpt>
      <trkpt lat="47.01299" lon="-1.58563">
        <ele>61</ele>
        <time>2022-11-11T12:29:15Z</time>
      </trkpt>
      <trkpt lat="47.01288" lon="-1.58559">
        <ele>61</ele>
        <time>2022-11-11T12:29:17Z</time>
      </trkpt>
      <trkpt lat="47.01277" lon="-1.58557">
        <ele>61</ele>
        <time>2022-11-11T12:29:19Z</time>
      </trkpt>
      <trkpt lat="47.01266" lon="-1.58555">
        <ele>61</ele>
        <time>2022-11-11T12:29:21Z</time>
      </trkpt>
      <trkpt lat="47.01255" lon="-1.58553">
        <ele>62</ele>
        <time>2022-11-11T12:29:23Z</time>
      </trkpt>
      <trkpt lat="47.01244" lon="-1.5855">
        <ele>62</ele>
        <time>2022-11-11T12:29:25Z</time>
      </trkpt>
      <trkpt lat="47.01233" lon="-1.58548">
        <ele>62</ele>
        <time>2022-11-11T12:29:27Z</time>
      </trkpt>
      <trkpt lat="47.01221" lon="-1.58547">
        <ele>62</ele>
        <time>2022-11-11T12:29:29Z</time>
      </trkpt>
      <trkpt lat="47.0121" lon="-1.58546">
        <ele>62</ele>
        <time>2022-11-11T12:29:31Z</time>
      </trkpt>
      <trkpt lat="47.01199" lon="-1.58544">
        <ele>63</ele>
        <time>2022-11-11T12:29:33Z</time>
      </trkpt>
      <trkpt lat="47.01187" lon="-1.58542">
        <ele>63</ele>
        <time>2022-11-11T12:29:35Z</time>
      </trkpt>
      <trkpt lat="47.01175" lon="-1.5854">
        <ele>62</ele>
        <time>2022-11-11T12:29:37Z</time>
      </trkpt>
      <trkpt lat="47.01163" lon="-1.58538">
        <ele>62</ele>
        <time>2022-11-11T12:29:39Z</time>
      </trkpt>
      <trkpt lat="47.01151" lon="-1.58534">
        <ele>62</ele>
        <time>2022-11-11T12:29:41Z</time>
      </trkpt>
      <trkpt lat="47.01138" lon="-1.5853">
        <ele>62</ele>
        <time>2022-11-11T12:29:43Z</time>
      </trkpt>
      <trkpt lat="47.01127" lon="-1.58525">
        <ele>62</ele>
        <time>2022-11-11T12:29:45Z</time>
      </trkpt>
      <trkpt lat="47.01115" lon="-1.58517">
        <ele>62</ele>
        <time>2022-11-11T12:29:47Z</time>
      </trkpt>
      <trkpt lat="47.01106" lon="-1.58507">
        <ele>62</ele>
        <time>2022-11-11T12:29:49Z</time>
      </trkpt>
      <trkpt lat="47.01097" lon="-1.58497">
        <ele>62</ele>
        <time>2022-11-11T12:29:51Z</time>
      </trkpt>
      <trkpt lat="47.01088" lon="-1.58485">
        <ele>62</ele>
        <time>2022-11-11T12:29:53Z</time>
      </trkpt>
      <trkpt lat="47.0108" lon="-1.58472">
        <ele>62</ele>
        <time>2022-11-11T12:29:55Z</time>
      </trkpt>
      <trkpt lat="47.01072" lon="-1.5846">
        <ele>62</ele>
        <time>2022-11-11T12:29:57Z</time>
      </trkpt>
      <trkpt lat="47.01065" lon="-1.58447">
        <ele>63</ele>
        <time>2022-11-11T12:29:59Z</time>
      </trkpt>
      <trkpt lat="47.01058" lon="-1.58434">
        <ele>64</ele>
        <time>2022-11-11T12:30:01Z</time>
      </trkpt>
      <trkpt lat="47.01052" lon="-1.5842">
        <ele>64</ele>
        <time>2022-11-11T12:30:03Z</time>
      </trkpt>
      <trkpt lat="47.01046" lon="-1.58407">
        <ele>65</ele>
        <time>2022-11-11T12:30:05Z</time>
      </trkpt>
      <trkpt lat="47.0104" lon="-1.58394">
        <ele>65</ele>
        <time>2022-11-11T12:30:07Z</time>
      </trkpt>
      <trkpt lat="47.01033" lon="-1.5838">
        <ele>65</ele>
        <time>2022-11-11T12:30:09Z</time>
      </trkpt>
      <trkpt lat="47.01027" lon="-1.58368">
        <ele>64</ele>
        <time>2022-11-11T12:30:11Z</time>
      </trkpt>
      <trkpt lat="47.01022" lon="-1.58355">
        <ele>64</ele>
        <time>2022-11-11T12:30:13Z</time>
      </trkpt>
      <trkpt lat="47.01016" lon="-1.5834">
        <ele>65</ele>
        <time>2022-11-11T12:30:16Z</time>
      </trkpt>
      <trkpt lat="47.01006" lon="-1.58341">
        <ele>66</ele>
        <time>2022-11-11T12:30:19Z</time>
      </trkpt>
      <trkpt lat="47.00997" lon="-1.58347">
        <ele>66</ele>
        <time>2022-11-11T12:30:21Z</time>
      </trkpt>
      <trkpt lat="47.00987" lon="-1.58352">
        <ele>66</ele>
        <time>2022-11-11T12:30:23Z</time>
      </trkpt>
      <trkpt lat="47.00977" lon="-1.58349">
        <ele>66</ele>
        <time>2022-11-11T12:30:25Z</time>
      </trkpt>
      <trkpt lat="47.00969" lon="-1.58339">
        <ele>66</ele>
        <time>2022-11-11T12:30:27Z</time>
      </trkpt>
      <trkpt lat="47.00961" lon="-1.58327">
        <ele>66</ele>
        <time>2022-11-11T12:30:29Z</time>
      </trkpt>
      <trkpt lat="47.00954" lon="-1.58314">
        <ele>66</ele>
        <time>2022-11-11T12:30:31Z</time>
      </trkpt>
      <trkpt lat="47.00946" lon="-1.58303">
        <ele>67</ele>
        <time>2022-11-11T12:30:33Z</time>
      </trkpt>
      <trkpt lat="47.00937" lon="-1.58298">
        <ele>67</ele>
        <time>2022-11-11T12:30:35Z</time>
      </trkpt>
      <trkpt lat="47.00926" lon="-1.58298">
        <ele>67</ele>
        <time>2022-11-11T12:30:37Z</time>
      </trkpt>
      <trkpt lat="47.00915" lon="-1.58302">
        <ele>67</ele>
        <time>2022-11-11T12:30:39Z</time>
      </trkpt>
      <trkpt lat="47.00904" lon="-1.58308">
        <ele>66</ele>
        <time>2022-11-11T12:30:41Z</time>
      </trkpt>
      <trkpt lat="47.00893" lon="-1.58311">
        <ele>67</ele>
        <time>2022-11-11T12:30:43Z</time>
      </trkpt>
      <trkpt lat="47.00883" lon="-1.58311">
        <ele>67</ele>
        <time>2022-11-11T12:30:45Z</time>
      </trkpt>
      <trkpt lat="47.00873" lon="-1.583">
        <ele>68</ele>
        <time>2022-11-11T12:30:47Z</time>
      </trkpt>
      <trkpt lat="47.00864" lon="-1.58287">
        <ele>68</ele>
        <time>2022-11-11T12:30:49Z</time>
      </trkpt>
      <trkpt lat="47.00857" lon="-1.58274">
        <ele>68</ele>
        <time>2022-11-11T12:30:51Z</time>
      </trkpt>
      <trkpt lat="47.0085" lon="-1.5826">
        <ele>68</ele>
        <time>2022-11-11T12:30:53Z</time>
      </trkpt>
      <trkpt lat="47.00843" lon="-1.58248">
        <ele>68</ele>
        <time>2022-11-11T12:30:55Z</time>
      </trkpt>
      <trkpt lat="47.00836" lon="-1.58236">
        <ele>68</ele>
        <time>2022-11-11T12:30:57Z</time>
      </trkpt>
      <trkpt lat="47.00829" lon="-1.58224">
        <ele>69</ele>
        <time>2022-11-11T12:30:59Z</time>
      </trkpt>
      <trkpt lat="47.00821" lon="-1.58213">
        <ele>69</ele>
        <time>2022-11-11T12:31:01Z</time>
      </trkpt>
      <trkpt lat="47.00814" lon="-1.58201">
        <ele>69</ele>
        <time>2022-11-11T12:31:03Z</time>
      </trkpt>
      <trkpt lat="47.00807" lon="-1.58189">
        <ele>69</ele>
        <time>2022-11-11T12:31:05Z</time>
      </trkpt>
      <trkpt lat="47.008" lon="-1.58177">
        <ele>70</ele>
        <time>2022-11-11T12:31:07Z</time>
      </trkpt>
      <trkpt lat="47.00792" lon="-1.58165">
        <ele>70</ele>
        <time>2022-11-11T12:31:09Z</time>
      </trkpt>
      <trkpt lat="47.00785" lon="-1.58152">
        <ele>70</ele>
        <time>2022-11-11T12:31:11Z</time>
      </trkpt>
      <trkpt lat="47.00778" lon="-1.5814">
        <ele>70</ele>
        <time>2022-11-11T12:31:13Z</time>
      </trkpt>
      <trkpt lat="47.00771" lon="-1.58128">
        <ele>70</ele>
        <time>2022-11-11T12:31:15Z</time>
      </trkpt>
      <trkpt lat="47.00764" lon="-1.58115">
        <ele>69</ele>
        <time>2022-11-11T12:31:17Z</time>
      </trkpt>
      <trkpt lat="47.00758" lon="-1.58103">
        <ele>69</ele>
        <time>2022-11-11T12:31:19Z</time>
      </trkpt>
      <trkpt lat="47.00751" lon="-1.5809">
        <ele>70</ele>
        <time>2022-11-11T12:31:21Z</time>
      </trkpt>
      <trkpt lat="47.00744" lon="-1.58078">
        <ele>69</ele>
        <time>2022-11-11T12:31:23Z</time>
      </trkpt>
      <trkpt lat="47.00737" lon="-1.58066">
        <ele>70</ele>
        <time>2022-11-11T12:31:25Z</time>
      </trkpt>
      <trkpt lat="47.00731" lon="-1.58054">
        <ele>70</ele>
        <time>2022-11-11T12:31:27Z</time>
      </trkpt>
      <trkpt lat="47.00725" lon="-1.58041">
        <ele>70</ele>
        <time>2022-11-11T12:31:29Z</time>
      </trkpt>
      <trkpt lat="47.00719" lon="-1.58028">
        <ele>70</ele>
        <time>2022-11-11T12:31:31Z</time>
      </trkpt>
      <trkpt lat="47.00713" lon="-1.58015">
        <ele>70</ele>
        <time>2022-11-11T12:31:33Z</time>
      </trkpt>
      <trkpt lat="47.00707" lon="-1.58002">
        <ele>71</ele>
        <time>2022-11-11T12:31:35Z</time>
      </trkpt>
      <trkpt lat="47.00701" lon="-1.57988">
        <ele>71</ele>
        <time>2022-11-11T12:31:37Z</time>
      </trkpt>
      <trkpt lat="47.00695" lon="-1.57975">
        <ele>71</ele>
        <time>2022-11-11T12:31:39Z</time>
      </trkpt>
      <trkpt lat="47.0069" lon="-1.57961">
        <ele>70</ele>
        <time>2022-11-11T12:31:41Z</time>
      </trkpt>
      <trkpt lat="47.00685" lon="-1.57948">
        <ele>70</ele>
        <time>2022-11-11T12:31:43Z</time>
      </trkpt>
      <trkpt lat="47.00679" lon="-1.57935">
        <ele>70</ele>
        <time>2022-11-11T12:31:45Z</time>
      </trkpt>
      <trkpt lat="47.00675" lon="-1.57922">
        <ele>70</ele>
        <time>2022-11-11T12:31:47Z</time>
      </trkpt>
      <trkpt lat="47.0067" lon="-1.57909">
        <ele>70</ele>
        <time>2022-11-11T12:31:49Z</time>
      </trkpt>
      <trkpt lat="47.00665" lon="-1.57896">
        <ele>70</ele>
        <time>2022-11-11T12:31:51Z</time>
      </trkpt>
      <trkpt lat="47.00661" lon="-1.57883">
        <ele>70</ele>
        <time>2022-11-11T12:31:53Z</time>
      </trkpt>
      <trkpt lat="47.00655" lon="-1.5787">
        <ele>70</ele>
        <time>2022-11-11T12:31:55Z</time>
      </trkpt>
      <trkpt lat="47.0065" lon="-1.57858">
        <ele>70</ele>
        <time>2022-11-11T12:31:57Z</time>
      </trkpt>
      <trkpt lat="47.00645" lon="-1.57845">
        <ele>71</ele>
        <time>2022-11-11T12:31:59Z</time>
      </trkpt>
      <trkpt lat="47.00638" lon="-1.57833">
        <ele>71</ele>
        <time>2022-11-11T12:32:01Z</time>
      </trkpt>
      <trkpt lat="47.00632" lon="-1.5782">
        <ele>71</ele>
        <time>2022-11-11T12:32:03Z</time>
      </trkpt>
      <trkpt lat="47.00626" lon="-1.57808">
        <ele>70</ele>
        <time>2022-11-11T12:32:05Z</time>
      </trkpt>
      <trkpt lat="47.00619" lon="-1.57795">
        <ele>71</ele>
        <time>2022-11-11T12:32:07Z</time>
      </trkpt>
      <trkpt lat="47.00612" lon="-1.57783">
        <ele>70</ele>
        <time>2022-11-11T12:32:09Z</time>
      </trkpt>
      <trkpt lat="47.00604" lon="-1.57772">
        <ele>70</ele>
        <time>2022-11-11T12:32:11Z</time>
      </trkpt>
      <trkpt lat="47.00597" lon="-1.5776">
        <ele>70</ele>
        <time>2022-11-11T12:32:13Z</time>
      </trkpt>
      <trkpt lat="47.0059" lon="-1.57748">
        <ele>70</ele>
        <time>2022-11-11T12:32:15Z</time>
      </trkpt>
      <trkpt lat="47.00582" lon="-1.57737">
        <ele>70</ele>
        <time>2022-11-11T12:32:17Z</time>
      </trkpt>
      <trkpt lat="47.00575" lon="-1.57725">
        <ele>70</ele>
        <time>2022-11-11T12:32:19Z</time>
      </trkpt>
      <trkpt lat="47.00568" lon="-1.57713">
        <ele>71</ele>
        <time>2022-11-11T12:32:21Z</time>
      </trkpt>
      <trkpt lat="47.00561" lon="-1.57702">
        <ele>71</ele>
        <time>2022-11-11T12:32:23Z</time>
      </trkpt>
      <trkpt lat="47.00554" lon="-1.5769">
        <ele>71</ele>
        <time>2022-11-11T12:32:25Z</time>
      </trkpt>
      <trkpt lat="47.00547" lon="-1.57678">
        <ele>71</ele>
        <time>2022-11-11T12:32:27Z</time>
      </trkpt>
      <trkpt lat="47.0054" lon="-1.57666">
        <ele>71</ele>
        <time>2022-11-11T12:32:29Z</time>
      </trkpt>
      <trkpt lat="47.00533" lon="-1.57655">
        <ele>72</ele>
        <time>2022-11-11T12:32:31Z</time>
      </trkpt>
      <trkpt lat="47.00527" lon="-1.57643">
        <ele>72</ele>
        <time>2022-11-11T12:32:33Z</time>
      </trkpt>
      <trkpt lat="47.0052" lon="-1.5763">
        <ele>72</ele>
        <time>2022-11-11T12:32:35Z</time>
      </trkpt>
      <trkpt lat="47.00515" lon="-1.57617">
        <ele>73</ele>
        <time>2022-11-11T12:32:37Z</time>
      </trkpt>
      <trkpt lat="47.00508" lon="-1.57604">
        <ele>73</ele>
        <time>2022-11-11T12:32:39Z</time>
      </trkpt>
      <trkpt lat="47.00503" lon="-1.57591">
        <ele>73</ele>
        <time>2022-11-11T12:32:41Z</time>
      </trkpt>
      <trkpt lat="47.00498" lon="-1.57577">
        <ele>73</ele>
        <time>2022-11-11T12:32:43Z</time>
      </trkpt>
      <trkpt lat="47.00493" lon="-1.57562">
        <ele>73</ele>
        <time>2022-11-11T12:32:45Z</time>
      </trkpt>
      <trkpt lat="47.00488" lon="-1.57548">
        <ele>73</ele>
        <time>2022-11-11T12:32:47Z</time>
      </trkpt>
      <trkpt lat="47.00483" lon="-1.57534">
        <ele>73</ele>
        <time>2022-11-11T12:32:49Z</time>
      </trkpt>
      <trkpt lat="47.00478" lon="-1.57519">
        <ele>72</ele>
        <time>2022-11-11T12:32:51Z</time>
      </trkpt>
      <trkpt lat="47.00474" lon="-1.57504">
        <ele>72</ele>
        <time>2022-11-11T12:32:53Z</time>
      </trkpt>
      <trkpt lat="47.00469" lon="-1.5749">
        <ele>72</ele>
        <time>2022-11-11T12:32:55Z</time>
      </trkpt>
      <trkpt lat="47.00465" lon="-1.57475">
        <ele>72</ele>
        <time>2022-11-11T12:32:57Z</time>
      </trkpt>
      <trkpt lat="47.00461" lon="-1.5746">
        <ele>71</ele>
        <time>2022-11-11T12:32:59Z</time>
      </trkpt>
      <trkpt lat="47.00455" lon="-1.57445">
        <ele>71</ele>
        <time>2022-11-11T12:33:01Z</time>
      </trkpt>
      <trkpt lat="47.0045" lon="-1.57431">
        <ele>71</ele>
        <time>2022-11-11T12:33:03Z</time>
      </trkpt>
      <trkpt lat="47.00445" lon="-1.57416">
        <ele>71</ele>
        <time>2022-11-11T12:33:05Z</time>
      </trkpt>
      <trkpt lat="47.00439" lon="-1.57402">
        <ele>71</ele>
        <time>2022-11-11T12:33:07Z</time>
      </trkpt>
      <trkpt lat="47.00433" lon="-1.57389">
        <ele>71</ele>
        <time>2022-11-11T12:33:09Z</time>
      </trkpt>
      <trkpt lat="47.00427" lon="-1.57376">
        <ele>71</ele>
        <time>2022-11-11T12:33:11Z</time>
      </trkpt>
      <trkpt lat="47.0042" lon="-1.57363">
        <ele>71</ele>
        <time>2022-11-11T12:33:13Z</time>
      </trkpt>
      <trkpt lat="47.00414" lon="-1.57349">
        <ele>71</ele>
        <time>2022-11-11T12:33:15Z</time>
      </trkpt>
      <trkpt lat="47.00407" lon="-1.57336">
        <ele>71</ele>
        <time>2022-11-11T12:33:17Z</time>
      </trkpt>
      <trkpt lat="47.00401" lon="-1.57322">
        <ele>71</ele>
        <time>2022-11-11T12:33:19Z</time>
      </trkpt>
      <trkpt lat="47.00395" lon="-1.57309">
        <ele>71</ele>
        <time>2022-11-11T12:33:21Z</time>
      </trkpt>
      <trkpt lat="47.00389" lon="-1.57296">
        <ele>72</ele>
        <time>2022-11-11T12:33:23Z</time>
      </trkpt>
      <trkpt lat="47.00382" lon="-1.57282">
        <ele>72</ele>
        <time>2022-11-11T12:33:25Z</time>
      </trkpt>
      <trkpt lat="47.00376" lon="-1.57269">
        <ele>72</ele>
        <time>2022-11-11T12:33:27Z</time>
      </trkpt>
      <trkpt lat="47.0037" lon="-1.57255">
        <ele>72</ele>
        <time>2022-11-11T12:33:29Z</time>
      </trkpt>
      <trkpt lat="47.00365" lon="-1.57241">
        <ele>73</ele>
        <time>2022-11-11T12:33:31Z</time>
      </trkpt>
      <trkpt lat="47.00358" lon="-1.57227">
        <ele>73</ele>
        <time>2022-11-11T12:33:33Z</time>
      </trkpt>
      <trkpt lat="47.00353" lon="-1.57214">
        <ele>73</ele>
        <time>2022-11-11T12:33:35Z</time>
      </trkpt>
      <trkpt lat="47.00347" lon="-1.572">
        <ele>74</ele>
        <time>2022-11-11T12:33:37Z</time>
      </trkpt>
      <trkpt lat="47.00341" lon="-1.57186">
        <ele>74</ele>
        <time>2022-11-11T12:33:39Z</time>
      </trkpt>
      <trkpt lat="47.00336" lon="-1.57171">
        <ele>74</ele>
        <time>2022-11-11T12:33:41Z</time>
      </trkpt>
      <trkpt lat="47.0033" lon="-1.57157">
        <ele>74</ele>
        <time>2022-11-11T12:33:43Z</time>
      </trkpt>
      <trkpt lat="47.00325" lon="-1.57142">
        <ele>74</ele>
        <time>2022-11-11T12:33:45Z</time>
      </trkpt>
      <trkpt lat="47.0032" lon="-1.57128">
        <ele>74</ele>
        <time>2022-11-11T12:33:47Z</time>
      </trkpt>
      <trkpt lat="47.00314" lon="-1.57112">
        <ele>74</ele>
        <time>2022-11-11T12:33:49Z</time>
      </trkpt>
      <trkpt lat="47.00309" lon="-1.57097">
        <ele>74</ele>
        <time>2022-11-11T12:33:51Z</time>
      </trkpt>
      <trkpt lat="47.00306" lon="-1.57082">
        <ele>74</ele>
        <time>2022-11-11T12:33:53Z</time>
      </trkpt>
      <trkpt lat="47.00303" lon="-1.57066">
        <ele>74</ele>
        <time>2022-11-11T12:33:55Z</time>
      </trkpt>
      <trkpt lat="47.00302" lon="-1.5705">
        <ele>74</ele>
        <time>2022-11-11T12:33:57Z</time>
      </trkpt>
      <trkpt lat="47.00301" lon="-1.57035">
        <ele>74</ele>
        <time>2022-11-11T12:33:59Z</time>
      </trkpt>
      <trkpt lat="47.00301" lon="-1.57019">
        <ele>74</ele>
        <time>2022-11-11T12:34:01Z</time>
      </trkpt>
      <trkpt lat="47.00301" lon="-1.57004">
        <ele>73</ele>
        <time>2022-11-11T12:34:03Z</time>
      </trkpt>
      <trkpt lat="47.003" lon="-1.5699">
        <ele>73</ele>
        <time>2022-11-11T12:34:05Z</time>
      </trkpt>
      <trkpt lat="47.003" lon="-1.56971">
        <ele>73</ele>
        <time>2022-11-11T12:34:08Z</time>
      </trkpt>
      <trkpt lat="47.00301" lon="-1.56957">
        <ele>73</ele>
        <time>2022-11-11T12:34:10Z</time>
      </trkpt>
      <trkpt lat="47.00304" lon="-1.56941">
        <ele>72</ele>
        <time>2022-11-11T12:34:12Z</time>
      </trkpt>
      <trkpt lat="47.00303" lon="-1.56924">
        <ele>72</ele>
        <time>2022-11-11T12:34:14Z</time>
      </trkpt>
      <trkpt lat="47.00299" lon="-1.56908">
        <ele>72</ele>
        <time>2022-11-11T12:34:16Z</time>
      </trkpt>
      <trkpt lat="47.00294" lon="-1.56892">
        <ele>72</ele>
        <time>2022-11-11T12:34:18Z</time>
      </trkpt>
      <trkpt lat="47.00288" lon="-1.56877">
        <ele>72</ele>
        <time>2022-11-11T12:34:20Z</time>
      </trkpt>
      <trkpt lat="47.00283" lon="-1.5686">
        <ele>72</ele>
        <time>2022-11-11T12:34:22Z</time>
      </trkpt>
      <trkpt lat="47.0028" lon="-1.56843">
        <ele>72</ele>
        <time>2022-11-11T12:34:24Z</time>
      </trkpt>
      <trkpt lat="47.00278" lon="-1.56826">
        <ele>72</ele>
        <time>2022-11-11T12:34:26Z</time>
      </trkpt>
      <trkpt lat="47.00277" lon="-1.56808">
        <ele>72</ele>
        <time>2022-11-11T12:34:28Z</time>
      </trkpt>
      <trkpt lat="47.00275" lon="-1.56791">
        <ele>72</ele>
        <time>2022-11-11T12:34:30Z</time>
      </trkpt>
      <trkpt lat="47.00274" lon="-1.56773">
        <ele>72</ele>
        <time>2022-11-11T12:34:32Z</time>
      </trkpt>
      <trkpt lat="47.00272" lon="-1.56755">
        <ele>72</ele>
        <time>2022-11-11T12:34:34Z</time>
      </trkpt>
      <trkpt lat="47.0027" lon="-1.56738">
        <ele>72</ele>
        <time>2022-11-11T12:34:36Z</time>
      </trkpt>
      <trkpt lat="47.00268" lon="-1.56722">
        <ele>72</ele>
        <time>2022-11-11T12:34:38Z</time>
      </trkpt>
      <trkpt lat="47.00267" lon="-1.56704">
        <ele>72</ele>
        <time>2022-11-11T12:34:40Z</time>
      </trkpt>
      <trkpt lat="47.00265" lon="-1.56687">
        <ele>72</ele>
        <time>2022-11-11T12:34:42Z</time>
      </trkpt>
      <trkpt lat="47.00263" lon="-1.5667">
        <ele>73</ele>
        <time>2022-11-11T12:34:44Z</time>
      </trkpt>
      <trkpt lat="47.00261" lon="-1.56653">
        <ele>72</ele>
        <time>2022-11-11T12:34:46Z</time>
      </trkpt>
      <trkpt lat="47.0026" lon="-1.56635">
        <ele>72</ele>
        <time>2022-11-11T12:34:48Z</time>
      </trkpt>
      <trkpt lat="47.00259" lon="-1.56618">
        <ele>72</ele>
        <time>2022-11-11T12:34:50Z</time>
      </trkpt>
      <trkpt lat="47.00257" lon="-1.566">
        <ele>72</ele>
        <time>2022-11-11T12:34:52Z</time>
      </trkpt>
      <trkpt lat="47.00255" lon="-1.56583">
        <ele>72</ele>
        <time>2022-11-11T12:34:54Z</time>
      </trkpt>
      <trkpt lat="47.00253" lon="-1.56565">
        <ele>72</ele>
        <time>2022-11-11T12:34:56Z</time>
      </trkpt>
      <trkpt lat="47.00251" lon="-1.56546">
        <ele>72</ele>
        <time>2022-11-11T12:34:58Z</time>
      </trkpt>
      <trkpt lat="47.0025" lon="-1.56528">
        <ele>71</ele>
        <time>2022-11-11T12:35:00Z</time>
      </trkpt>
      <trkpt lat="47.00248" lon="-1.56509">
        <ele>72</ele>
        <time>2022-11-11T12:35:02Z</time>
      </trkpt>
      <trkpt lat="47.00247" lon="-1.56492">
        <ele>72</ele>
        <time>2022-11-11T12:35:04Z</time>
      </trkpt>
      <trkpt lat="47.00245" lon="-1.56474">
        <ele>72</ele>
        <time>2022-11-11T12:35:06Z</time>
      </trkpt>
      <trkpt lat="47.00244" lon="-1.56456">
        <ele>72</ele>
        <time>2022-11-11T12:35:08Z</time>
      </trkpt>
      <trkpt lat="47.00242" lon="-1.56438">
        <ele>72</ele>
        <time>2022-11-11T12:35:10Z</time>
      </trkpt>
      <trkpt lat="47.0024" lon="-1.5642">
        <ele>72</ele>
        <time>2022-11-11T12:35:12Z</time>
      </trkpt>
      <trkpt lat="47.00238" lon="-1.56402">
        <ele>72</ele>
        <time>2022-11-11T12:35:14Z</time>
      </trkpt>
      <trkpt lat="47.00237" lon="-1.56383">
        <ele>71</ele>
        <time>2022-11-11T12:35:16Z</time>
      </trkpt>
      <trkpt lat="47.00235" lon="-1.56364">
        <ele>71</ele>
        <time>2022-11-11T12:35:18Z</time>
      </trkpt>
      <trkpt lat="47.00233" lon="-1.56345">
        <ele>71</ele>
        <time>2022-11-11T12:35:20Z</time>
      </trkpt>
      <trkpt lat="47.00231" lon="-1.56326">
        <ele>70</ele>
        <time>2022-11-11T12:35:22Z</time>
      </trkpt>
      <trkpt lat="47.0023" lon="-1.56308">
        <ele>70</ele>
        <time>2022-11-11T12:35:24Z</time>
      </trkpt>
      <trkpt lat="47.00228" lon="-1.5629">
        <ele>70</ele>
        <time>2022-11-11T12:35:26Z</time>
      </trkpt>
      <trkpt lat="47.00226" lon="-1.56271">
        <ele>70</ele>
        <time>2022-11-11T12:35:28Z</time>
      </trkpt>
      <trkpt lat="47.00225" lon="-1.56253">
        <ele>70</ele>
        <time>2022-11-11T12:35:30Z</time>
      </trkpt>
      <trkpt lat="47.00223" lon="-1.56234">
        <ele>70</ele>
        <time>2022-11-11T12:35:32Z</time>
      </trkpt>
      <trkpt lat="47.00221" lon="-1.56216">
        <ele>70</ele>
        <time>2022-11-11T12:35:34Z</time>
      </trkpt>
      <trkpt lat="47.00218" lon="-1.56198">
        <ele>70</ele>
        <time>2022-11-11T12:35:36Z</time>
      </trkpt>
      <trkpt lat="47.00214" lon="-1.5618">
        <ele>70</ele>
        <time>2022-11-11T12:35:38Z</time>
      </trkpt>
      <trkpt lat="47.00209" lon="-1.56162">
        <ele>70</ele>
        <time>2022-11-11T12:35:40Z</time>
      </trkpt>
      <trkpt lat="47.00203" lon="-1.56144">
        <ele>70</ele>
        <time>2022-11-11T12:35:42Z</time>
      </trkpt>
      <trkpt lat="47.00197" lon="-1.56127">
        <ele>70</ele>
        <time>2022-11-11T12:35:44Z</time>
      </trkpt>
      <trkpt lat="47.0019" lon="-1.5611">
        <ele>70</ele>
        <time>2022-11-11T12:35:46Z</time>
      </trkpt>
      <trkpt lat="47.00183" lon="-1.56093">
        <ele>71</ele>
        <time>2022-11-11T12:35:48Z</time>
      </trkpt>
      <trkpt lat="47.00175" lon="-1.56076">
        <ele>71</ele>
        <time>2022-11-11T12:35:50Z</time>
      </trkpt>
      <trkpt lat="47.00167" lon="-1.5606">
        <ele>71</ele>
        <time>2022-11-11T12:35:52Z</time>
      </trkpt>
      <trkpt lat="47.00159" lon="-1.56045">
        <ele>71</ele>
        <time>2022-11-11T12:35:54Z</time>
      </trkpt>
      <trkpt lat="47.00149" lon="-1.56031">
        <ele>71</ele>
        <time>2022-11-11T12:35:56Z</time>
      </trkpt>
      <trkpt lat="47.0014" lon="-1.56016">
        <ele>71</ele>
        <time>2022-11-11T12:35:58Z</time>
      </trkpt>
      <trkpt lat="47.00131" lon="-1.56002">
        <ele>70</ele>
        <time>2022-11-11T12:36:00Z</time>
      </trkpt>
      <trkpt lat="47.00122" lon="-1.55986">
        <ele>70</ele>
        <time>2022-11-11T12:36:02Z</time>
      </trkpt>
      <trkpt lat="47.00113" lon="-1.55971">
        <ele>70</ele>
        <time>2022-11-11T12:36:04Z</time>
      </trkpt>
      <trkpt lat="47.00105" lon="-1.55956">
        <ele>70</ele>
        <time>2022-11-11T12:36:06Z</time>
      </trkpt>
      <trkpt lat="47.00097" lon="-1.55941">
        <ele>71</ele>
        <time>2022-11-11T12:36:08Z</time>
      </trkpt>
      <trkpt lat="47.0009" lon="-1.55926">
        <ele>70</ele>
        <time>2022-11-11T12:36:10Z</time>
      </trkpt>
      <trkpt lat="47.00082" lon="-1.55911">
        <ele>70</ele>
        <time>2022-11-11T12:36:12Z</time>
      </trkpt>
      <trkpt lat="47.00075" lon="-1.55895">
        <ele>70</ele>
        <time>2022-11-11T12:36:14Z</time>
      </trkpt>
      <trkpt lat="47.00069" lon="-1.55879">
        <ele>70</ele>
        <time>2022-11-11T12:36:16Z</time>
      </trkpt>
      <trkpt lat="47.00061" lon="-1.55863">
        <ele>70</ele>
        <time>2022-11-11T12:36:18Z</time>
      </trkpt>
      <trkpt lat="47.00052" lon="-1.55849">
        <ele>69</ele>
        <time>2022-11-11T12:36:20Z</time>
      </trkpt>
      <trkpt lat="47.00044" lon="-1.55835">
        <ele>69</ele>
        <time>2022-11-11T12:36:22Z</time>
      </trkpt>
      <trkpt lat="47.00034" lon="-1.55824">
        <ele>69</ele>
        <time>2022-11-11T12:36:24Z</time>
      </trkpt>
      <trkpt lat="47.00024" lon="-1.55815">
        <ele>68</ele>
        <time>2022-11-11T12:36:26Z</time>
      </trkpt>
      <trkpt lat="47.00014" lon="-1.55807">
        <ele>68</ele>
        <time>2022-11-11T12:36:28Z</time>
      </trkpt>
      <trkpt lat="47.00004" lon="-1.55799">
        <ele>69</ele>
        <time>2022-11-11T12:36:30Z</time>
      </trkpt>
      <trkpt lat="46.99993" lon="-1.55791">
        <ele>69</ele>
        <time>2022-11-11T12:36:32Z</time>
      </trkpt>
      <trkpt lat="46.99983" lon="-1.55784">
        <ele>69</ele>
        <time>2022-11-11T12:36:34Z</time>
      </trkpt>
      <trkpt lat="46.99972" lon="-1.55777">
        <ele>69</ele>
        <time>2022-11-11T12:36:36Z</time>
      </trkpt>
      <trkpt lat="46.99961" lon="-1.55769">
        <ele>69</ele>
        <time>2022-11-11T12:36:38Z</time>
      </trkpt>
      <trkpt lat="46.99951" lon="-1.55761">
        <ele>70</ele>
        <time>2022-11-11T12:36:40Z</time>
      </trkpt>
      <trkpt lat="46.99941" lon="-1.55754">
        <ele>70</ele>
        <time>2022-11-11T12:36:42Z</time>
      </trkpt>
      <trkpt lat="46.99931" lon="-1.55746">
        <ele>70</ele>
        <time>2022-11-11T12:36:44Z</time>
      </trkpt>
      <trkpt lat="46.99921" lon="-1.55739">
        <ele>70</ele>
        <time>2022-11-11T12:36:46Z</time>
      </trkpt>
      <trkpt lat="46.99911" lon="-1.55731">
        <ele>70</ele>
        <time>2022-11-11T12:36:48Z</time>
      </trkpt>
      <trkpt lat="46.99901" lon="-1.55724">
        <ele>70</ele>
        <time>2022-11-11T12:36:50Z</time>
      </trkpt>
      <trkpt lat="46.9989" lon="-1.55717">
        <ele>70</ele>
        <time>2022-11-11T12:36:52Z</time>
      </trkpt>
      <trkpt lat="46.9988" lon="-1.55709">
        <ele>71</ele>
        <time>2022-11-11T12:36:54Z</time>
      </trkpt>
      <trkpt lat="46.99869" lon="-1.55701">
        <ele>71</ele>
        <time>2022-11-11T12:36:56Z</time>
      </trkpt>
      <trkpt lat="46.99859" lon="-1.55694">
        <ele>71</ele>
        <time>2022-11-11T12:36:58Z</time>
      </trkpt>
      <trkpt lat="46.99849" lon="-1.55686">
        <ele>71</ele>
        <time>2022-11-11T12:37:00Z</time>
      </trkpt>
      <trkpt lat="46.99839" lon="-1.55678">
        <ele>71</ele>
        <time>2022-11-11T12:37:02Z</time>
      </trkpt>
      <trkpt lat="46.99829" lon="-1.55669">
        <ele>71</ele>
        <time>2022-11-11T12:37:04Z</time>
      </trkpt>
      <trkpt lat="46.99819" lon="-1.55659">
        <ele>71</ele>
        <time>2022-11-11T12:37:06Z</time>
      </trkpt>
      <trkpt lat="46.99811" lon="-1.55649">
        <ele>71</ele>
        <time>2022-11-11T12:37:08Z</time>
      </trkpt>
      <trkpt lat="46.99801" lon="-1.55637">
        <ele>71</ele>
        <time>2022-11-11T12:37:10Z</time>
      </trkpt>
      <trkpt lat="46.99793" lon="-1.55625">
        <ele>71</ele>
        <time>2022-11-11T12:37:12Z</time>
      </trkpt>
      <trkpt lat="46.99785" lon="-1.55612">
        <ele>71</ele>
        <time>2022-11-11T12:37:14Z</time>
      </trkpt>
      <trkpt lat="46.99778" lon="-1.55599">
        <ele>71</ele>
        <time>2022-11-11T12:37:16Z</time>
      </trkpt>
      <trkpt lat="46.9977" lon="-1.55586">
        <ele>71</ele>
        <time>2022-11-11T12:37:18Z</time>
      </trkpt>
      <trkpt lat="46.99762" lon="-1.55573">
        <ele>71</ele>
        <time>2022-11-11T12:37:20Z</time>
      </trkpt>
      <trkpt lat="46.99754" lon="-1.5556">
        <ele>71</ele>
        <time>2022-11-11T12:37:22Z</time>
      </trkpt>
      <trkpt lat="46.99746" lon="-1.55547">
        <ele>71</ele>
        <time>2022-11-11T12:37:24Z</time>
      </trkpt>
      <trkpt lat="46.99738" lon="-1.55534">
        <ele>71</ele>
        <time>2022-11-11T12:37:26Z</time>
      </trkpt>
      <trkpt lat="46.9973" lon="-1.5552">
        <ele>71</ele>
        <time>2022-11-11T12:37:28Z</time>
      </trkpt>
      <trkpt lat="46.99723" lon="-1.55507">
        <ele>71</ele>
        <time>2022-11-11T12:37:30Z</time>
      </trkpt>
      <trkpt lat="46.99715" lon="-1.55494">
        <ele>71</ele>
        <time>2022-11-11T12:37:32Z</time>
      </trkpt>
      <trkpt lat="46.99707" lon="-1.55481">
        <ele>71</ele>
        <time>2022-11-11T12:37:34Z</time>
      </trkpt>
      <trkpt lat="46.997" lon="-1.55468">
        <ele>72</ele>
        <time>2022-11-11T12:37:36Z</time>
      </trkpt>
      <trkpt lat="46.99692" lon="-1.55455">
        <ele>72</ele>
        <time>2022-11-11T12:37:38Z</time>
      </trkpt>
      <trkpt lat="46.99685" lon="-1.55442">
        <ele>72</ele>
        <time>2022-11-11T12:37:40Z</time>
      </trkpt>
      <trkpt lat="46.99677" lon="-1.5543">
        <ele>73</ele>
        <time>2022-11-11T12:37:42Z</time>
      </trkpt>
      <trkpt lat="46.99669" lon="-1.55417">
        <ele>73</ele>
        <time>2022-11-11T12:37:44Z</time>
      </trkpt>
      <trkpt lat="46.99661" lon="-1.55404">
        <ele>72</ele>
        <time>2022-11-11T12:37:46Z</time>
      </trkpt>
      <trkpt lat="46.99653" lon="-1.55391">
        <ele>73</ele>
        <time>2022-11-11T12:37:48Z</time>
      </trkpt>
      <trkpt lat="46.99646" lon="-1.55378">
        <ele>73</ele>
        <time>2022-11-11T12:37:50Z</time>
      </trkpt>
      <trkpt lat="46.99638" lon="-1.55365">
        <ele>72</ele>
        <time>2022-11-11T12:37:52Z</time>
      </trkpt>
      <trkpt lat="46.9963" lon="-1.55351">
        <ele>73</ele>
        <time>2022-11-11T12:37:54Z</time>
      </trkpt>
      <trkpt lat="46.99622" lon="-1.55338">
        <ele>73</ele>
        <time>2022-11-11T12:37:56Z</time>
      </trkpt>
      <trkpt lat="46.99614" lon="-1.55325">
        <ele>73</ele>
        <time>2022-11-11T12:37:58Z</time>
      </trkpt>
      <trkpt lat="46.99606" lon="-1.55311">
        <ele>73</ele>
        <time>2022-11-11T12:38:00Z</time>
      </trkpt>
      <trkpt lat="46.99597" lon="-1.55297">
        <ele>72</ele>
        <time>2022-11-11T12:38:02Z</time>
      </trkpt>
      <trkpt lat="46.9959" lon="-1.55282">
        <ele>72</ele>
        <time>2022-11-11T12:38:04Z</time>
      </trkpt>
      <trkpt lat="46.99584" lon="-1.55266">
        <ele>72</ele>
        <time>2022-11-11T12:38:06Z</time>
      </trkpt>
      <trkpt lat="46.99578" lon="-1.55249">
        <ele>71</ele>
        <time>2022-11-11T12:38:08Z</time>
      </trkpt>
      <trkpt lat="46.99572" lon="-1.55232">
        <ele>70</ele>
        <time>2022-11-11T12:38:10Z</time>
      </trkpt>
      <trkpt lat="46.99566" lon="-1.55214">
        <ele>70</ele>
        <time>2022-11-11T12:38:12Z</time>
      </trkpt>
      <trkpt lat="46.99561" lon="-1.55196">
        <ele>69</ele>
        <time>2022-11-11T12:38:14Z</time>
      </trkpt>
      <trkpt lat="46.99556" lon="-1.55178">
        <ele>69</ele>
        <time>2022-11-11T12:38:16Z</time>
      </trkpt>
      <trkpt lat="46.99551" lon="-1.5516">
        <ele>69</ele>
        <time>2022-11-11T12:38:18Z</time>
      </trkpt>
      <trkpt lat="46.99545" lon="-1.55141">
        <ele>68</ele>
        <time>2022-11-11T12:38:20Z</time>
      </trkpt>
      <trkpt lat="46.9954" lon="-1.55123">
        <ele>68</ele>
        <time>2022-11-11T12:38:22Z</time>
      </trkpt>
      <trkpt lat="46.99535" lon="-1.55105">
        <ele>68</ele>
        <time>2022-11-11T12:38:24Z</time>
      </trkpt>
      <trkpt lat="46.99529" lon="-1.55087">
        <ele>67</ele>
        <time>2022-11-11T12:38:26Z</time>
      </trkpt>
      <trkpt lat="46.99524" lon="-1.55068">
        <ele>67</ele>
        <time>2022-11-11T12:38:28Z</time>
      </trkpt>
      <trkpt lat="46.99518" lon="-1.55049">
        <ele>67</ele>
        <time>2022-11-11T12:38:30Z</time>
      </trkpt>
      <trkpt lat="46.99513" lon="-1.5503">
        <ele>66</ele>
        <time>2022-11-11T12:38:32Z</time>
      </trkpt>
      <trkpt lat="46.99507" lon="-1.5501">
        <ele>66</ele>
        <time>2022-11-11T12:38:34Z</time>
      </trkpt>
      <trkpt lat="46.99502" lon="-1.54991">
        <ele>65</ele>
        <time>2022-11-11T12:38:36Z</time>
      </trkpt>
      <trkpt lat="46.99496" lon="-1.54971">
        <ele>65</ele>
        <time>2022-11-11T12:38:38Z</time>
      </trkpt>
      <trkpt lat="46.9949" lon="-1.54951">
        <ele>65</ele>
        <time>2022-11-11T12:38:40Z</time>
      </trkpt>
      <trkpt lat="46.99484" lon="-1.54931">
        <ele>65</ele>
        <time>2022-11-11T12:38:42Z</time>
      </trkpt>
      <trkpt lat="46.99478" lon="-1.54912">
        <ele>65</ele>
        <time>2022-11-11T12:38:44Z</time>
      </trkpt>
      <trkpt lat="46.99472" lon="-1.54891">
        <ele>65</ele>
        <time>2022-11-11T12:38:46Z</time>
      </trkpt>
      <trkpt lat="46.99466" lon="-1.54871">
        <ele>64</ele>
        <time>2022-11-11T12:38:48Z</time>
      </trkpt>
      <trkpt lat="46.9946" lon="-1.54851">
        <ele>64</ele>
        <time>2022-11-11T12:38:50Z</time>
      </trkpt>
      <trkpt lat="46.99455" lon="-1.54831">
        <ele>64</ele>
        <time>2022-11-11T12:38:52Z</time>
      </trkpt>
      <trkpt lat="46.9945" lon="-1.54813">
        <ele>64</ele>
        <time>2022-11-11T12:38:54Z</time>
      </trkpt>
      <trkpt lat="46.99445" lon="-1.54796">
        <ele>63</ele>
        <time>2022-11-11T12:38:56Z</time>
      </trkpt>
      <trkpt lat="46.9944" lon="-1.54778">
        <ele>63</ele>
        <time>2022-11-11T12:38:58Z</time>
      </trkpt>
      <trkpt lat="46.99434" lon="-1.54761">
        <ele>63</ele>
        <time>2022-11-11T12:39:00Z</time>
      </trkpt>
      <trkpt lat="46.99429" lon="-1.54747">
        <ele>63</ele>
        <time>2022-11-11T12:39:02Z</time>
      </trkpt>
      <trkpt lat="46.99422" lon="-1.54734">
        <ele>64</ele>
        <time>2022-11-11T12:39:04Z</time>
      </trkpt>
      <trkpt lat="46.99416" lon="-1.54722">
        <ele>64</ele>
        <time>2022-11-11T12:39:06Z</time>
      </trkpt>
      <trkpt lat="46.99409" lon="-1.5471">
        <ele>64</ele>
        <time>2022-11-11T12:39:08Z</time>
      </trkpt>
      <trkpt lat="46.994" lon="-1.54699">
        <ele>65</ele>
        <time>2022-11-11T12:39:10Z</time>
      </trkpt>
      <trkpt lat="46.99392" lon="-1.54686">
        <ele>65</ele>
        <time>2022-11-11T12:39:12Z</time>
      </trkpt>
      <trkpt lat="46.99383" lon="-1.54674">
        <ele>65</ele>
        <time>2022-11-11T12:39:14Z</time>
      </trkpt>
      <trkpt lat="46.99374" lon="-1.54662">
        <ele>65</ele>
        <time>2022-11-11T12:39:16Z</time>
      </trkpt>
      <trkpt lat="46.99366" lon="-1.54651">
        <ele>66</ele>
        <time>2022-11-11T12:39:18Z</time>
      </trkpt>
      <trkpt lat="46.99357" lon="-1.54639">
        <ele>66</ele>
        <time>2022-11-11T12:39:20Z</time>
      </trkpt>
      <trkpt lat="46.99349" lon="-1.54628">
        <ele>66</ele>
        <time>2022-11-11T12:39:22Z</time>
      </trkpt>
      <trkpt lat="46.9934" lon="-1.54617">
        <ele>66</ele>
        <time>2022-11-11T12:39:24Z</time>
      </trkpt>
      <trkpt lat="46.99331" lon="-1.54607">
        <ele>66</ele>
        <time>2022-11-11T12:39:26Z</time>
      </trkpt>
      <trkpt lat="46.9932" lon="-1.54598">
        <ele>66</ele>
        <time>2022-11-11T12:39:28Z</time>
      </trkpt>
      <trkpt lat="46.99309" lon="-1.54591">
        <ele>66</ele>
        <time>2022-11-11T12:39:30Z</time>
      </trkpt>
      <trkpt lat="46.99297" lon="-1.54586">
        <ele>66</ele>
        <time>2022-11-11T12:39:32Z</time>
      </trkpt>
      <trkpt lat="46.99287" lon="-1.54583">
        <ele>66</ele>
        <time>2022-11-11T12:39:34Z</time>
      </trkpt>
      <trkpt lat="46.99275" lon="-1.54582">
        <ele>67</ele>
        <time>2022-11-11T12:39:36Z</time>
      </trkpt>
      <trkpt lat="46.99264" lon="-1.54581">
        <ele>67</ele>
        <time>2022-11-11T12:39:38Z</time>
      </trkpt>
      <trkpt lat="46.99252" lon="-1.54581">
        <ele>66</ele>
        <time>2022-11-11T12:39:40Z</time>
      </trkpt>
      <trkpt lat="46.99241" lon="-1.54582">
        <ele>67</ele>
        <time>2022-11-11T12:39:42Z</time>
      </trkpt>
      <trkpt lat="46.99229" lon="-1.54585">
        <ele>67</ele>
        <time>2022-11-11T12:39:44Z</time>
      </trkpt>
      <trkpt lat="46.99218" lon="-1.54586">
        <ele>66</ele>
        <time>2022-11-11T12:39:46Z</time>
      </trkpt>
      <trkpt lat="46.99206" lon="-1.54586">
        <ele>66</ele>
        <time>2022-11-11T12:39:48Z</time>
      </trkpt>
      <trkpt lat="46.99195" lon="-1.54584">
        <ele>65</ele>
        <time>2022-11-11T12:39:50Z</time>
      </trkpt>
      <trkpt lat="46.99183" lon="-1.54579">
        <ele>66</ele>
        <time>2022-11-11T12:39:52Z</time>
      </trkpt>
      <trkpt lat="46.99173" lon="-1.54572">
        <ele>66</ele>
        <time>2022-11-11T12:39:54Z</time>
      </trkpt>
      <trkpt lat="46.99163" lon="-1.54565">
        <ele>67</ele>
        <time>2022-11-11T12:39:56Z</time>
      </trkpt>
      <trkpt lat="46.99152" lon="-1.54558">
        <ele>68</ele>
        <time>2022-11-11T12:39:58Z</time>
      </trkpt>
      <trkpt lat="46.99142" lon="-1.54551">
        <ele>68</ele>
        <time>2022-11-11T12:40:00Z</time>
      </trkpt>
      <trkpt lat="46.99132" lon="-1.54544">
        <ele>68</ele>
        <time>2022-11-11T12:40:02Z</time>
      </trkpt>
      <trkpt lat="46.99122" lon="-1.54536">
        <ele>68</ele>
        <time>2022-11-11T12:40:04Z</time>
      </trkpt>
      <trkpt lat="46.99114" lon="-1.54526">
        <ele>69</ele>
        <time>2022-11-11T12:40:06Z</time>
      </trkpt>
      <trkpt lat="46.99108" lon="-1.54513">
        <ele>68</ele>
        <time>2022-11-11T12:40:08Z</time>
      </trkpt>
      <trkpt lat="46.99106" lon="-1.54497">
        <ele>68</ele>
        <time>2022-11-11T12:40:10Z</time>
      </trkpt>
      <trkpt lat="46.99105" lon="-1.5448">
        <ele>68</ele>
        <time>2022-11-11T12:40:12Z</time>
      </trkpt>
      <trkpt lat="46.99105" lon="-1.54464">
        <ele>69</ele>
        <time>2022-11-11T12:40:14Z</time>
      </trkpt>
      <trkpt lat="46.99105" lon="-1.54447">
        <ele>69</ele>
        <time>2022-11-11T12:40:16Z</time>
      </trkpt>
      <trkpt lat="46.99104" lon="-1.54429">
        <ele>69</ele>
        <time>2022-11-11T12:40:18Z</time>
      </trkpt>
      <trkpt lat="46.99103" lon="-1.54411">
        <ele>69</ele>
        <time>2022-11-11T12:40:20Z</time>
      </trkpt>
      <trkpt lat="46.991" lon="-1.54393">
        <ele>68</ele>
        <time>2022-11-11T12:40:22Z</time>
      </trkpt>
      <trkpt lat="46.99096" lon="-1.54375">
        <ele>67</ele>
        <time>2022-11-11T12:40:24Z</time>
      </trkpt>
      <trkpt lat="46.99092" lon="-1.54358">
        <ele>68</ele>
        <time>2022-11-11T12:40:26Z</time>
      </trkpt>
      <trkpt lat="46.99088" lon="-1.5434">
        <ele>68</ele>
        <time>2022-11-11T12:40:28Z</time>
      </trkpt>
      <trkpt lat="46.99083" lon="-1.54323">
        <ele>68</ele>
        <time>2022-11-11T12:40:30Z</time>
      </trkpt>
      <trkpt lat="46.99079" lon="-1.54305">
        <ele>67</ele>
        <time>2022-11-11T12:40:32Z</time>
      </trkpt>
      <trkpt lat="46.99075" lon="-1.54285">
        <ele>67</ele>
        <time>2022-11-11T12:40:34Z</time>
      </trkpt>
      <trkpt lat="46.99073" lon="-1.54265">
        <ele>66</ele>
        <time>2022-11-11T12:40:36Z</time>
      </trkpt>
      <trkpt lat="46.99073" lon="-1.54243">
        <ele>65</ele>
        <time>2022-11-11T12:40:38Z</time>
      </trkpt>
      <trkpt lat="46.99073" lon="-1.54221">
        <ele>64</ele>
        <time>2022-11-11T12:40:40Z</time>
      </trkpt>
      <trkpt lat="46.99075" lon="-1.54198">
        <ele>64</ele>
        <time>2022-11-11T12:40:42Z</time>
      </trkpt>
      <trkpt lat="46.99077" lon="-1.54174">
        <ele>62</ele>
        <time>2022-11-11T12:40:44Z</time>
      </trkpt>
      <trkpt lat="46.9908" lon="-1.54149">
        <ele>61</ele>
        <time>2022-11-11T12:40:46Z</time>
      </trkpt>
      <trkpt lat="46.99084" lon="-1.54124">
        <ele>60</ele>
        <time>2022-11-11T12:40:48Z</time>
      </trkpt>
      <trkpt lat="46.99089" lon="-1.541">
        <ele>60</ele>
        <time>2022-11-11T12:40:50Z</time>
      </trkpt>
      <trkpt lat="46.99094" lon="-1.54079">
        <ele>60</ele>
        <time>2022-11-11T12:40:52Z</time>
      </trkpt>
      <trkpt lat="46.99097" lon="-1.54059">
        <ele>60</ele>
        <time>2022-11-11T12:40:54Z</time>
      </trkpt>
      <trkpt lat="46.99096" lon="-1.54039">
        <ele>60</ele>
        <time>2022-11-11T12:40:56Z</time>
      </trkpt>
      <trkpt lat="46.9909" lon="-1.54022">
        <ele>60</ele>
        <time>2022-11-11T12:40:58Z</time>
      </trkpt>
      <trkpt lat="46.99081" lon="-1.54006">
        <ele>60</ele>
        <time>2022-11-11T12:41:00Z</time>
      </trkpt>
      <trkpt lat="46.9907" lon="-1.53993">
        <ele>61</ele>
        <time>2022-11-11T12:41:02Z</time>
      </trkpt>
      <trkpt lat="46.99059" lon="-1.5398">
        <ele>61</ele>
        <time>2022-11-11T12:41:04Z</time>
      </trkpt>
      <trkpt lat="46.99048" lon="-1.53967">
        <ele>62</ele>
        <time>2022-11-11T12:41:06Z</time>
      </trkpt>
      <trkpt lat="46.9904" lon="-1.53951">
        <ele>62</ele>
        <time>2022-11-11T12:41:08Z</time>
      </trkpt>
      <trkpt lat="46.99035" lon="-1.53932">
        <ele>62</ele>
        <time>2022-11-11T12:41:10Z</time>
      </trkpt>
      <trkpt lat="46.99034" lon="-1.53913">
        <ele>63</ele>
        <time>2022-11-11T12:41:12Z</time>
      </trkpt>
      <trkpt lat="46.99034" lon="-1.53896">
        <ele>63</ele>
        <time>2022-11-11T12:41:14Z</time>
      </trkpt>
      <trkpt lat="46.99036" lon="-1.53878">
        <ele>62</ele>
        <time>2022-11-11T12:41:16Z</time>
      </trkpt>
      <trkpt lat="46.99037" lon="-1.53863">
        <ele>62</ele>
        <time>2022-11-11T12:41:18Z</time>
      </trkpt>
      <trkpt lat="46.99037" lon="-1.53847">
        <ele>63</ele>
        <time>2022-11-11T12:41:20Z</time>
      </trkpt>
      <trkpt lat="46.99037" lon="-1.53831">
        <ele>63</ele>
        <time>2022-11-11T12:41:22Z</time>
      </trkpt>
      <trkpt lat="46.99034" lon="-1.53816">
        <ele>64</ele>
        <time>2022-11-11T12:41:24Z</time>
      </trkpt>
      <trkpt lat="46.9903" lon="-1.53802">
        <ele>65</ele>
        <time>2022-11-11T12:41:26Z</time>
      </trkpt>
      <trkpt lat="46.99026" lon="-1.53788">
        <ele>65</ele>
        <time>2022-11-11T12:41:28Z</time>
      </trkpt>
      <trkpt lat="46.99021" lon="-1.53775">
        <ele>66</ele>
        <time>2022-11-11T12:41:30Z</time>
      </trkpt>
      <trkpt lat="46.99018" lon="-1.53762">
        <ele>66</ele>
        <time>2022-11-11T12:41:32Z</time>
      </trkpt>
      <trkpt lat="46.99014" lon="-1.5375">
        <ele>66</ele>
        <time>2022-11-11T12:41:34Z</time>
      </trkpt>
      <trkpt lat="46.99009" lon="-1.53737">
        <ele>67</ele>
        <time>2022-11-11T12:41:36Z</time>
      </trkpt>
      <trkpt lat="46.99005" lon="-1.53724">
        <ele>68</ele>
        <time>2022-11-11T12:41:38Z</time>
      </trkpt>
      <trkpt lat="46.99" lon="-1.53711">
        <ele>68</ele>
        <time>2022-11-11T12:41:40Z</time>
      </trkpt>
      <trkpt lat="46.98996" lon="-1.53697">
        <ele>68</ele>
        <time>2022-11-11T12:41:42Z</time>
      </trkpt>
      <trkpt lat="46.98992" lon="-1.53684">
        <ele>68</ele>
        <time>2022-11-11T12:41:44Z</time>
      </trkpt>
      <trkpt lat="46.98988" lon="-1.5367">
        <ele>69</ele>
        <time>2022-11-11T12:41:46Z</time>
      </trkpt>
      <trkpt lat="46.98984" lon="-1.53656">
        <ele>69</ele>
        <time>2022-11-11T12:41:48Z</time>
      </trkpt>
      <trkpt lat="46.98981" lon="-1.53642">
        <ele>68</ele>
        <time>2022-11-11T12:41:50Z</time>
      </trkpt>
      <trkpt lat="46.9898" lon="-1.53628">
        <ele>69</ele>
        <time>2022-11-11T12:41:52Z</time>
      </trkpt>
      <trkpt lat="46.9898" lon="-1.53613">
        <ele>69</ele>
        <time>2022-11-11T12:41:54Z</time>
      </trkpt>
      <trkpt lat="46.9898" lon="-1.53598">
        <ele>69</ele>
        <time>2022-11-11T12:41:56Z</time>
      </trkpt>
      <trkpt lat="46.9898" lon="-1.53583">
        <ele>69</ele>
        <time>2022-11-11T12:41:58Z</time>
      </trkpt>
      <trkpt lat="46.98981" lon="-1.53567">
        <ele>69</ele>
        <time>2022-11-11T12:42:00Z</time>
      </trkpt>
      <trkpt lat="46.98982" lon="-1.53545">
        <ele>69</ele>
        <time>2022-11-11T12:42:03Z</time>
      </trkpt>
      <trkpt lat="46.98983" lon="-1.5353">
        <ele>69</ele>
        <time>2022-11-11T12:42:05Z</time>
      </trkpt>
      <trkpt lat="46.98984" lon="-1.53514">
        <ele>69</ele>
        <time>2022-11-11T12:42:07Z</time>
      </trkpt>
      <trkpt lat="46.98985" lon="-1.53488">
        <ele>68</ele>
        <time>2022-11-11T12:42:10Z</time>
      </trkpt>
      <trkpt lat="46.98985" lon="-1.5347">
        <ele>68</ele>
        <time>2022-11-11T12:42:12Z</time>
      </trkpt>
      <trkpt lat="46.98985" lon="-1.53451">
        <ele>68</ele>
        <time>2022-11-11T12:42:14Z</time>
      </trkpt>
      <trkpt lat="46.98984" lon="-1.53422">
        <ele>67</ele>
        <time>2022-11-11T12:42:17Z</time>
      </trkpt>
      <trkpt lat="46.98982" lon="-1.53403">
        <ele>67</ele>
        <time>2022-11-11T12:42:19Z</time>
      </trkpt>
      <trkpt lat="46.98979" lon="-1.53384">
        <ele>67</ele>
        <time>2022-11-11T12:42:21Z</time>
      </trkpt>
      <trkpt lat="46.98976" lon="-1.53366">
        <ele>67</ele>
        <time>2022-11-11T12:42:23Z</time>
      </trkpt>
      <trkpt lat="46.98971" lon="-1.5334">
        <ele>66</ele>
        <time>2022-11-11T12:42:26Z</time>
      </trkpt>
      <trkpt lat="46.98968" lon="-1.53323">
        <ele>67</ele>
        <time>2022-11-11T12:42:28Z</time>
      </trkpt>
      <trkpt lat="46.98966" lon="-1.53306">
        <ele>66</ele>
        <time>2022-11-11T12:42:30Z</time>
      </trkpt>
      <trkpt lat="46.98963" lon="-1.5329">
        <ele>67</ele>
        <time>2022-11-11T12:42:32Z</time>
      </trkpt>
      <trkpt lat="46.9896" lon="-1.53273">
        <ele>67</ele>
        <time>2022-11-11T12:42:34Z</time>
      </trkpt>
      <trkpt lat="46.98957" lon="-1.53258">
        <ele>67</ele>
        <time>2022-11-11T12:42:36Z</time>
      </trkpt>
      <trkpt lat="46.98955" lon="-1.53242">
        <ele>67</ele>
        <time>2022-11-11T12:42:38Z</time>
      </trkpt>
      <trkpt lat="46.98952" lon="-1.53226">
        <ele>68</ele>
        <time>2022-11-11T12:42:40Z</time>
      </trkpt>
      <trkpt lat="46.98949" lon="-1.5321">
        <ele>68</ele>
        <time>2022-11-11T12:42:42Z</time>
      </trkpt>
      <trkpt lat="46.98947" lon="-1.53194">
        <ele>68</ele>
        <time>2022-11-11T12:42:44Z</time>
      </trkpt>
      <trkpt lat="46.98944" lon="-1.53178">
        <ele>68</ele>
        <time>2022-11-11T12:42:46Z</time>
      </trkpt>
      <trkpt lat="46.98941" lon="-1.53162">
        <ele>69</ele>
        <time>2022-11-11T12:42:48Z</time>
      </trkpt>
      <trkpt lat="46.98939" lon="-1.53146">
        <ele>69</ele>
        <time>2022-11-11T12:42:50Z</time>
      </trkpt>
      <trkpt lat="46.98936" lon="-1.5313">
        <ele>68</ele>
        <time>2022-11-11T12:42:52Z</time>
      </trkpt>
      <trkpt lat="46.98934" lon="-1.53114">
        <ele>68</ele>
        <time>2022-11-11T12:42:54Z</time>
      </trkpt>
      <trkpt lat="46.98933" lon="-1.53099">
        <ele>69</ele>
        <time>2022-11-11T12:42:56Z</time>
      </trkpt>
      <trkpt lat="46.98933" lon="-1.53084">
        <ele>69</ele>
        <time>2022-11-11T12:42:58Z</time>
      </trkpt>
      <trkpt lat="46.98932" lon="-1.53068">
        <ele>69</ele>
        <time>2022-11-11T12:43:00Z</time>
      </trkpt>
      <trkpt lat="46.98932" lon="-1.53052">
        <ele>69</ele>
        <time>2022-11-11T12:43:02Z</time>
      </trkpt>
      <trkpt lat="46.98932" lon="-1.53037">
        <ele>69</ele>
        <time>2022-11-11T12:43:04Z</time>
      </trkpt>
      <trkpt lat="46.98932" lon="-1.53022">
        <ele>69</ele>
        <time>2022-11-11T12:43:06Z</time>
      </trkpt>
      <trkpt lat="46.98932" lon="-1.53007">
        <ele>70</ele>
        <time>2022-11-11T12:43:08Z</time>
      </trkpt>
      <trkpt lat="46.98932" lon="-1.52992">
        <ele>70</ele>
        <time>2022-11-11T12:43:10Z</time>
      </trkpt>
      <trkpt lat="46.98933" lon="-1.52978">
        <ele>70</ele>
        <time>2022-11-11T12:43:12Z</time>
      </trkpt>
      <trkpt lat="46.98933" lon="-1.52963">
        <ele>71</ele>
        <time>2022-11-11T12:43:14Z</time>
      </trkpt>
      <trkpt lat="46.98933" lon="-1.52948">
        <ele>71</ele>
        <time>2022-11-11T12:43:16Z</time>
      </trkpt>
      <trkpt lat="46.98934" lon="-1.52934">
        <ele>71</ele>
        <time>2022-11-11T12:43:18Z</time>
      </trkpt>
      <trkpt lat="46.98933" lon="-1.52919">
        <ele>71</ele>
        <time>2022-11-11T12:43:20Z</time>
      </trkpt>
      <trkpt lat="46.98932" lon="-1.52905">
        <ele>71</ele>
        <time>2022-11-11T12:43:22Z</time>
      </trkpt>
      <trkpt lat="46.98929" lon="-1.52891">
        <ele>72</ele>
        <time>2022-11-11T12:43:24Z</time>
      </trkpt>
      <trkpt lat="46.98926" lon="-1.52877">
        <ele>72</ele>
        <time>2022-11-11T12:43:26Z</time>
      </trkpt>
      <trkpt lat="46.98922" lon="-1.52862">
        <ele>72</ele>
        <time>2022-11-11T12:43:28Z</time>
      </trkpt>
      <trkpt lat="46.98918" lon="-1.52849">
        <ele>73</ele>
        <time>2022-11-11T12:43:30Z</time>
      </trkpt>
      <trkpt lat="46.98914" lon="-1.52838">
        <ele>73</ele>
        <time>2022-11-11T12:43:32Z</time>
      </trkpt>
      <trkpt lat="46.98909" lon="-1.52826">
        <ele>73</ele>
        <time>2022-11-11T12:43:34Z</time>
      </trkpt>
      <trkpt lat="46.98904" lon="-1.52813">
        <ele>74</ele>
        <time>2022-11-11T12:43:36Z</time>
      </trkpt>
      <trkpt lat="46.98899" lon="-1.528">
        <ele>74</ele>
        <time>2022-11-11T12:43:38Z</time>
      </trkpt>
      <trkpt lat="46.98894" lon="-1.52788">
        <ele>75</ele>
        <time>2022-11-11T12:43:40Z</time>
      </trkpt>
      <trkpt lat="46.98889" lon="-1.52775">
        <ele>75</ele>
        <time>2022-11-11T12:43:42Z</time>
      </trkpt>
      <trkpt lat="46.98883" lon="-1.52762">
        <ele>76</ele>
        <time>2022-11-11T12:43:44Z</time>
      </trkpt>
      <trkpt lat="46.98878" lon="-1.5275">
        <ele>76</ele>
        <time>2022-11-11T12:43:46Z</time>
      </trkpt>
      <trkpt lat="46.98872" lon="-1.52738">
        <ele>76</ele>
        <time>2022-11-11T12:43:48Z</time>
      </trkpt>
      <trkpt lat="46.98867" lon="-1.52726">
        <ele>76</ele>
        <time>2022-11-11T12:43:50Z</time>
      </trkpt>
      <trkpt lat="46.98861" lon="-1.52715">
        <ele>76</ele>
        <time>2022-11-11T12:43:52Z</time>
      </trkpt>
      <trkpt lat="46.98855" lon="-1.52703">
        <ele>76</ele>
        <time>2022-11-11T12:43:54Z</time>
      </trkpt>
      <trkpt lat="46.98848" lon="-1.52689">
        <ele>76</ele>
        <time>2022-11-11T12:43:56Z</time>
      </trkpt>
      <trkpt lat="46.98841" lon="-1.52676">
        <ele>75</ele>
        <time>2022-11-11T12:43:58Z</time>
      </trkpt>
      <trkpt lat="46.98833" lon="-1.52661">
        <ele>75</ele>
        <time>2022-11-11T12:44:00Z</time>
      </trkpt>
      <trkpt lat="46.98825" lon="-1.52646">
        <ele>74</ele>
        <time>2022-11-11T12:44:02Z</time>
      </trkpt>
      <trkpt lat="46.98817" lon="-1.5263">
        <ele>74</ele>
        <time>2022-11-11T12:44:04Z</time>
      </trkpt>
      <trkpt lat="46.98807" lon="-1.52613">
        <ele>73</ele>
        <time>2022-11-11T12:44:06Z</time>
      </trkpt>
      <trkpt lat="46.98797" lon="-1.52595">
        <ele>73</ele>
        <time>2022-11-11T12:44:08Z</time>
      </trkpt>
      <trkpt lat="46.98786" lon="-1.52579">
        <ele>73</ele>
        <time>2022-11-11T12:44:10Z</time>
      </trkpt>
      <trkpt lat="46.98774" lon="-1.52564">
        <ele>73</ele>
        <time>2022-11-11T12:44:12Z</time>
      </trkpt>
      <trkpt lat="46.98761" lon="-1.5255">
        <ele>72</ele>
        <time>2022-11-11T12:44:14Z</time>
      </trkpt>
      <trkpt lat="46.98747" lon="-1.52536">
        <ele>72</ele>
        <time>2022-11-11T12:44:16Z</time>
      </trkpt>
      <trkpt lat="46.98735" lon="-1.52523">
        <ele>71</ele>
        <time>2022-11-11T12:44:18Z</time>
      </trkpt>
      <trkpt lat="46.98723" lon="-1.5251">
        <ele>70</ele>
        <time>2022-11-11T12:44:20Z</time>
      </trkpt>
      <trkpt lat="46.98711" lon="-1.52497">
        <ele>70</ele>
        <time>2022-11-11T12:44:22Z</time>
      </trkpt>
      <trkpt lat="46.98699" lon="-1.52484">
        <ele>70</ele>
        <time>2022-11-11T12:44:24Z</time>
      </trkpt>
      <trkpt lat="46.98688" lon="-1.52471">
        <ele>70</ele>
        <time>2022-11-11T12:44:26Z</time>
      </trkpt>
      <trkpt lat="46.98676" lon="-1.52458">
        <ele>69</ele>
        <time>2022-11-11T12:44:28Z</time>
      </trkpt>
      <trkpt lat="46.98664" lon="-1.52446">
        <ele>69</ele>
        <time>2022-11-11T12:44:30Z</time>
      </trkpt>
      <trkpt lat="46.98652" lon="-1.52434">
        <ele>69</ele>
        <time>2022-11-11T12:44:32Z</time>
      </trkpt>
      <trkpt lat="46.9864" lon="-1.52421">
        <ele>68</ele>
        <time>2022-11-11T12:44:34Z</time>
      </trkpt>
      <trkpt lat="46.98628" lon="-1.52409">
        <ele>68</ele>
        <time>2022-11-11T12:44:36Z</time>
      </trkpt>
      <trkpt lat="46.98615" lon="-1.52396">
        <ele>67</ele>
        <time>2022-11-11T12:44:38Z</time>
      </trkpt>
      <trkpt lat="46.98603" lon="-1.52383">
        <ele>66</ele>
        <time>2022-11-11T12:44:40Z</time>
      </trkpt>
      <trkpt lat="46.98593" lon="-1.52369">
        <ele>66</ele>
        <time>2022-11-11T12:44:42Z</time>
      </trkpt>
      <trkpt lat="46.98583" lon="-1.52353">
        <ele>65</ele>
        <time>2022-11-11T12:44:44Z</time>
      </trkpt>
      <trkpt lat="46.98573" lon="-1.52339">
        <ele>65</ele>
        <time>2022-11-11T12:44:46Z</time>
      </trkpt>
      <trkpt lat="46.98562" lon="-1.52326">
        <ele>65</ele>
        <time>2022-11-11T12:44:48Z</time>
      </trkpt>
      <trkpt lat="46.98552" lon="-1.52313">
        <ele>65</ele>
        <time>2022-11-11T12:44:50Z</time>
      </trkpt>
      <trkpt lat="46.98542" lon="-1.523">
        <ele>66</ele>
        <time>2022-11-11T12:44:52Z</time>
      </trkpt>
      <trkpt lat="46.9853" lon="-1.5229">
        <ele>66</ele>
        <time>2022-11-11T12:44:54Z</time>
      </trkpt>
      <trkpt lat="46.98522" lon="-1.52274">
        <ele>66</ele>
        <time>2022-11-11T12:44:56Z</time>
      </trkpt>
      <trkpt lat="46.98516" lon="-1.52258">
        <ele>66</ele>
        <time>2022-11-11T12:44:58Z</time>
      </trkpt>
      <trkpt lat="46.98512" lon="-1.52241">
        <ele>66</ele>
        <time>2022-11-11T12:45:00Z</time>
      </trkpt>
      <trkpt lat="46.98511" lon="-1.52222">
        <ele>65</ele>
        <time>2022-11-11T12:45:02Z</time>
      </trkpt>
      <trkpt lat="46.9851" lon="-1.52204">
        <ele>66</ele>
        <time>2022-11-11T12:45:04Z</time>
      </trkpt>
      <trkpt lat="46.98511" lon="-1.52186">
        <ele>66</ele>
        <time>2022-11-11T12:45:06Z</time>
      </trkpt>
      <trkpt lat="46.98511" lon="-1.52169">
        <ele>66</ele>
        <time>2022-11-11T12:45:08Z</time>
      </trkpt>
      <trkpt lat="46.98509" lon="-1.52153">
        <ele>66</ele>
        <time>2022-11-11T12:45:10Z</time>
      </trkpt>
      <trkpt lat="46.98504" lon="-1.52141">
        <ele>64</ele>
        <time>2022-11-11T12:45:12Z</time>
      </trkpt>
      <trkpt lat="46.98492" lon="-1.52136">
        <ele>64</ele>
        <time>2022-11-11T12:45:15Z</time>
      </trkpt>
      <trkpt lat="46.9848" lon="-1.52139">
        <ele>64</ele>
        <time>2022-11-11T12:45:17Z</time>
      </trkpt>
      <trkpt lat="46.98468" lon="-1.52141">
        <ele>64</ele>
        <time>2022-11-11T12:45:19Z</time>
      </trkpt>
      <trkpt lat="46.98455" lon="-1.52135">
        <ele>64</ele>
        <time>2022-11-11T12:45:21Z</time>
      </trkpt>
      <trkpt lat="46.98444" lon="-1.5213">
        <ele>64</ele>
        <time>2022-11-11T12:45:23Z</time>
      </trkpt>
      <trkpt lat="46.98432" lon="-1.52124">
        <ele>63</ele>
        <time>2022-11-11T12:45:25Z</time>
      </trkpt>
      <trkpt lat="46.9842" lon="-1.52119">
        <ele>64</ele>
        <time>2022-11-11T12:45:27Z</time>
      </trkpt>
      <trkpt lat="46.98409" lon="-1.52114">
        <ele>63</ele>
        <time>2022-11-11T12:45:29Z</time>
      </trkpt>
      <trkpt lat="46.984" lon="-1.52106">
        <ele>63</ele>
        <time>2022-11-11T12:45:31Z</time>
      </trkpt>
      <trkpt lat="46.984" lon="-1.52089">
        <ele>63</ele>
        <time>2022-11-11T12:45:33Z</time>
      </trkpt>
      <trkpt lat="46.98406" lon="-1.52071">
        <ele>61</ele>
        <time>2022-11-11T12:45:35Z</time>
      </trkpt>
      <trkpt lat="46.98409" lon="-1.52052">
        <ele>61</ele>
        <time>2022-11-11T12:45:37Z</time>
      </trkpt>
      <trkpt lat="46.9841" lon="-1.52033">
        <ele>61</ele>
        <time>2022-11-11T12:45:39Z</time>
      </trkpt>
      <trkpt lat="46.9841" lon="-1.52013">
        <ele>62</ele>
        <time>2022-11-11T12:45:41Z</time>
      </trkpt>
      <trkpt lat="46.98407" lon="-1.51994">
        <ele>62</ele>
        <time>2022-11-11T12:45:43Z</time>
      </trkpt>
      <trkpt lat="46.98405" lon="-1.51976">
        <ele>63</ele>
        <time>2022-11-11T12:45:45Z</time>
      </trkpt>
      <trkpt lat="46.98404" lon="-1.51959">
        <ele>63</ele>
        <time>2022-11-11T12:45:47Z</time>
      </trkpt>
      <trkpt lat="46.98402" lon="-1.51942">
        <ele>63</ele>
        <time>2022-11-11T12:45:49Z</time>
      </trkpt>
      <trkpt lat="46.984" lon="-1.51925">
        <ele>63</ele>
        <time>2022-11-11T12:45:51Z</time>
      </trkpt>
      <trkpt lat="46.98396" lon="-1.51908">
        <ele>63</ele>
        <time>2022-11-11T12:45:53Z</time>
      </trkpt>
      <trkpt lat="46.9839" lon="-1.51894">
        <ele>63</ele>
        <time>2022-11-11T12:45:55Z</time>
      </trkpt>
      <trkpt lat="46.98383" lon="-1.5188">
        <ele>63</ele>
        <time>2022-11-11T12:45:57Z</time>
      </trkpt>
      <trkpt lat="46.98377" lon="-1.51868">
        <ele>63</ele>
        <time>2022-11-11T12:45:59Z</time>
      </trkpt>
      <trkpt lat="46.98372" lon="-1.51856">
        <ele>63</ele>
        <time>2022-11-11T12:46:01Z</time>
      </trkpt>
      <trkpt lat="46.98366" lon="-1.51845">
        <ele>63</ele>
        <time>2022-11-11T12:46:03Z</time>
      </trkpt>
      <trkpt lat="46.9836" lon="-1.51834">
        <ele>63</ele>
        <time>2022-11-11T12:46:05Z</time>
      </trkpt>
      <trkpt lat="46.98353" lon="-1.51824">
        <ele>64</ele>
        <time>2022-11-11T12:46:07Z</time>
      </trkpt>
      <trkpt lat="46.98346" lon="-1.51814">
        <ele>64</ele>
        <time>2022-11-11T12:46:10Z</time>
      </trkpt>
      <trkpt lat="46.98336" lon="-1.51808">
        <ele>65</ele>
        <time>2022-11-11T12:46:15Z</time>
      </trkpt>
      <trkpt lat="46.98327" lon="-1.51803">
        <ele>64</ele>
        <time>2022-11-11T12:46:17Z</time>
      </trkpt>
      <trkpt lat="46.98318" lon="-1.51797">
        <ele>64</ele>
        <time>2022-11-11T12:46:19Z</time>
      </trkpt>
      <trkpt lat="46.98308" lon="-1.51791">
        <ele>65</ele>
        <time>2022-11-11T12:46:21Z</time>
      </trkpt>
      <trkpt lat="46.98299" lon="-1.51786">
        <ele>65</ele>
        <time>2022-11-11T12:46:23Z</time>
      </trkpt>
      <trkpt lat="46.98289" lon="-1.51783">
        <ele>65</ele>
        <time>2022-11-11T12:46:25Z</time>
      </trkpt>
      <trkpt lat="46.9828" lon="-1.5178">
        <ele>65</ele>
        <time>2022-11-11T12:46:27Z</time>
      </trkpt>
      <trkpt lat="46.9827" lon="-1.51778">
        <ele>65</ele>
        <time>2022-11-11T12:46:29Z</time>
      </trkpt>
      <trkpt lat="46.9826" lon="-1.51775">
        <ele>65</ele>
        <time>2022-11-11T12:46:31Z</time>
      </trkpt>
      <trkpt lat="46.98251" lon="-1.51768">
        <ele>66</ele>
        <time>2022-11-11T12:46:33Z</time>
      </trkpt>
      <trkpt lat="46.98245" lon="-1.51757">
        <ele>66</ele>
        <time>2022-11-11T12:46:35Z</time>
      </trkpt>
      <trkpt lat="46.98239" lon="-1.51744">
        <ele>67</ele>
        <time>2022-11-11T12:46:37Z</time>
      </trkpt>
      <trkpt lat="46.98233" lon="-1.51731">
        <ele>67</ele>
        <time>2022-11-11T12:46:39Z</time>
      </trkpt>
      <trkpt lat="46.98228" lon="-1.51717">
        <ele>67</ele>
        <time>2022-11-11T12:46:41Z</time>
      </trkpt>
      <trkpt lat="46.98223" lon="-1.51703">
        <ele>68</ele>
        <time>2022-11-11T12:46:43Z</time>
      </trkpt>
      <trkpt lat="46.98218" lon="-1.51689">
        <ele>68</ele>
        <time>2022-11-11T12:46:45Z</time>
      </trkpt>
      <trkpt lat="46.98214" lon="-1.51673">
        <ele>69</ele>
        <time>2022-11-11T12:46:47Z</time>
      </trkpt>
      <trkpt lat="46.98211" lon="-1.51658">
        <ele>70</ele>
        <time>2022-11-11T12:46:49Z</time>
      </trkpt>
      <trkpt lat="46.98207" lon="-1.51643">
        <ele>70</ele>
        <time>2022-11-11T12:46:51Z</time>
      </trkpt>
      <trkpt lat="46.98205" lon="-1.51627">
        <ele>70</ele>
        <time>2022-11-11T12:46:53Z</time>
      </trkpt>
      <trkpt lat="46.98202" lon="-1.51613">
        <ele>70</ele>
        <time>2022-11-11T12:46:55Z</time>
      </trkpt>
      <trkpt lat="46.982" lon="-1.51599">
        <ele>70</ele>
        <time>2022-11-11T12:46:57Z</time>
      </trkpt>
      <trkpt lat="46.98197" lon="-1.51583">
        <ele>70</ele>
        <time>2022-11-11T12:46:59Z</time>
      </trkpt>
      <trkpt lat="46.98195" lon="-1.51568">
        <ele>70</ele>
        <time>2022-11-11T12:47:01Z</time>
      </trkpt>
      <trkpt lat="46.98193" lon="-1.51553">
        <ele>70</ele>
        <time>2022-11-11T12:47:03Z</time>
      </trkpt>
      <trkpt lat="46.98191" lon="-1.51538">
        <ele>70</ele>
        <time>2022-11-11T12:47:05Z</time>
      </trkpt>
      <trkpt lat="46.98188" lon="-1.51522">
        <ele>70</ele>
        <time>2022-11-11T12:47:07Z</time>
      </trkpt>
      <trkpt lat="46.98186" lon="-1.51507">
        <ele>70</ele>
        <time>2022-11-11T12:47:09Z</time>
      </trkpt>
      <trkpt lat="46.98185" lon="-1.51492">
        <ele>70</ele>
        <time>2022-11-11T12:47:11Z</time>
      </trkpt>
      <trkpt lat="46.98184" lon="-1.51476">
        <ele>70</ele>
        <time>2022-11-11T12:47:13Z</time>
      </trkpt>
      <trkpt lat="46.98182" lon="-1.5146">
        <ele>70</ele>
        <time>2022-11-11T12:47:15Z</time>
      </trkpt>
      <trkpt lat="46.98177" lon="-1.51445">
        <ele>70</ele>
        <time>2022-11-11T12:47:17Z</time>
      </trkpt>
      <trkpt lat="46.98173" lon="-1.51431">
        <ele>70</ele>
        <time>2022-11-11T12:47:19Z</time>
      </trkpt>
      <trkpt lat="46.9817" lon="-1.51418">
        <ele>70</ele>
        <time>2022-11-11T12:47:21Z</time>
      </trkpt>
      <trkpt lat="46.98167" lon="-1.51404">
        <ele>69</ele>
        <time>2022-11-11T12:47:23Z</time>
      </trkpt>
      <trkpt lat="46.98164" lon="-1.5139">
        <ele>69</ele>
        <time>2022-11-11T12:47:25Z</time>
      </trkpt>
      <trkpt lat="46.98162" lon="-1.51374">
        <ele>69</ele>
        <time>2022-11-11T12:47:27Z</time>
      </trkpt>
      <trkpt lat="46.98162" lon="-1.51357">
        <ele>69</ele>
        <time>2022-11-11T12:47:29Z</time>
      </trkpt>
      <trkpt lat="46.98161" lon="-1.5134">
        <ele>69</ele>
        <time>2022-11-11T12:47:31Z</time>
      </trkpt>
      <trkpt lat="46.98163" lon="-1.51323">
        <ele>69</ele>
        <time>2022-11-11T12:47:33Z</time>
      </trkpt>
      <trkpt lat="46.98164" lon="-1.51306">
        <ele>69</ele>
        <time>2022-11-11T12:47:35Z</time>
      </trkpt>
      <trkpt lat="46.98166" lon="-1.51289">
        <ele>69</ele>
        <time>2022-11-11T12:47:37Z</time>
      </trkpt>
      <trkpt lat="46.98166" lon="-1.51272">
        <ele>68</ele>
        <time>2022-11-11T12:47:39Z</time>
      </trkpt>
      <trkpt lat="46.98164" lon="-1.51255">
        <ele>68</ele>
        <time>2022-11-11T12:47:41Z</time>
      </trkpt>
      <trkpt lat="46.98159" lon="-1.5124">
        <ele>69</ele>
        <time>2022-11-11T12:47:43Z</time>
      </trkpt>
      <trkpt lat="46.98154" lon="-1.51225">
        <ele>69</ele>
        <time>2022-11-11T12:47:45Z</time>
      </trkpt>
      <trkpt lat="46.98148" lon="-1.51211">
        <ele>69</ele>
        <time>2022-11-11T12:47:47Z</time>
      </trkpt>
      <trkpt lat="46.98142" lon="-1.51198">
        <ele>69</ele>
        <time>2022-11-11T12:47:49Z</time>
      </trkpt>
      <trkpt lat="46.98135" lon="-1.51185">
        <ele>69</ele>
        <time>2022-11-11T12:47:51Z</time>
      </trkpt>
      <trkpt lat="46.98129" lon="-1.51172">
        <ele>70</ele>
        <time>2022-11-11T12:47:53Z</time>
      </trkpt>
      <trkpt lat="46.98123" lon="-1.5116">
        <ele>70</ele>
        <time>2022-11-11T12:47:55Z</time>
      </trkpt>
      <trkpt lat="46.98117" lon="-1.51149">
        <ele>70</ele>
        <time>2022-11-11T12:47:57Z</time>
      </trkpt>
      <trkpt lat="46.98111" lon="-1.51136">
        <ele>71</ele>
        <time>2022-11-11T12:47:59Z</time>
      </trkpt>
      <trkpt lat="46.98105" lon="-1.51123">
        <ele>71</ele>
        <time>2022-11-11T12:48:01Z</time>
      </trkpt>
      <trkpt lat="46.98099" lon="-1.51111">
        <ele>71</ele>
        <time>2022-11-11T12:48:03Z</time>
      </trkpt>
      <trkpt lat="46.98093" lon="-1.51097">
        <ele>71</ele>
        <time>2022-11-11T12:48:05Z</time>
      </trkpt>
      <trkpt lat="46.98087" lon="-1.51085">
        <ele>72</ele>
        <time>2022-11-11T12:48:07Z</time>
      </trkpt>
      <trkpt lat="46.98082" lon="-1.51072">
        <ele>72</ele>
        <time>2022-11-11T12:48:09Z</time>
      </trkpt>
      <trkpt lat="46.98076" lon="-1.5106">
        <ele>73</ele>
        <time>2022-11-11T12:48:11Z</time>
      </trkpt>
      <trkpt lat="46.9807" lon="-1.51047">
        <ele>73</ele>
        <time>2022-11-11T12:48:13Z</time>
      </trkpt>
      <trkpt lat="46.98064" lon="-1.51034">
        <ele>73</ele>
        <time>2022-11-11T12:48:15Z</time>
      </trkpt>
      <trkpt lat="46.98058" lon="-1.5102">
        <ele>73</ele>
        <time>2022-11-11T12:48:17Z</time>
      </trkpt>
      <trkpt lat="46.98052" lon="-1.51007">
        <ele>73</ele>
        <time>2022-11-11T12:48:19Z</time>
      </trkpt>
      <trkpt lat="46.98046" lon="-1.50994">
        <ele>73</ele>
        <time>2022-11-11T12:48:21Z</time>
      </trkpt>
      <trkpt lat="46.9804" lon="-1.50981">
        <ele>73</ele>
        <time>2022-11-11T12:48:23Z</time>
      </trkpt>
      <trkpt lat="46.98034" lon="-1.50968">
        <ele>73</ele>
        <time>2022-11-11T12:48:25Z</time>
      </trkpt>
      <trkpt lat="46.98028" lon="-1.50955">
        <ele>73</ele>
        <time>2022-11-11T12:48:27Z</time>
      </trkpt>
      <trkpt lat="46.98022" lon="-1.50941">
        <ele>73</ele>
        <time>2022-11-11T12:48:29Z</time>
      </trkpt>
      <trkpt lat="46.98015" lon="-1.50928">
        <ele>73</ele>
        <time>2022-11-11T12:48:31Z</time>
      </trkpt>
      <trkpt lat="46.98008" lon="-1.50915">
        <ele>73</ele>
        <time>2022-11-11T12:48:33Z</time>
      </trkpt>
      <trkpt lat="46.98001" lon="-1.50902">
        <ele>73</ele>
        <time>2022-11-11T12:48:35Z</time>
      </trkpt>
      <trkpt lat="46.97993" lon="-1.50891">
        <ele>73</ele>
        <time>2022-11-11T12:48:37Z</time>
      </trkpt>
      <trkpt lat="46.97985" lon="-1.50879">
        <ele>73</ele>
        <time>2022-11-11T12:48:39Z</time>
      </trkpt>
      <trkpt lat="46.97977" lon="-1.50868">
        <ele>73</ele>
        <time>2022-11-11T12:48:41Z</time>
      </trkpt>
      <trkpt lat="46.97969" lon="-1.50859">
        <ele>73</ele>
        <time>2022-11-11T12:48:43Z</time>
      </trkpt>
      <trkpt lat="46.97959" lon="-1.50852">
        <ele>74</ele>
        <time>2022-11-11T12:48:45Z</time>
      </trkpt>
      <trkpt lat="46.97949" lon="-1.50846">
        <ele>74</ele>
        <time>2022-11-11T12:48:47Z</time>
      </trkpt>
      <trkpt lat="46.97938" lon="-1.50842">
        <ele>74</ele>
        <time>2022-11-11T12:48:49Z</time>
      </trkpt>
      <trkpt lat="46.97927" lon="-1.50838">
        <ele>74</ele>
        <time>2022-11-11T12:48:51Z</time>
      </trkpt>
      <trkpt lat="46.97917" lon="-1.50833">
        <ele>75</ele>
        <time>2022-11-11T12:48:53Z</time>
      </trkpt>
      <trkpt lat="46.97906" lon="-1.50829">
        <ele>74</ele>
        <time>2022-11-11T12:48:55Z</time>
      </trkpt>
      <trkpt lat="46.97895" lon="-1.50824">
        <ele>75</ele>
        <time>2022-11-11T12:48:57Z</time>
      </trkpt>
      <trkpt lat="46.97885" lon="-1.50818">
        <ele>75</ele>
        <time>2022-11-11T12:48:59Z</time>
      </trkpt>
      <trkpt lat="46.97875" lon="-1.50809">
        <ele>75</ele>
        <time>2022-11-11T12:49:01Z</time>
      </trkpt>
      <trkpt lat="46.97867" lon="-1.50799">
        <ele>76</ele>
        <time>2022-11-11T12:49:03Z</time>
      </trkpt>
      <trkpt lat="46.97859" lon="-1.50789">
        <ele>76</ele>
        <time>2022-11-11T12:49:05Z</time>
      </trkpt>
      <trkpt lat="46.97851" lon="-1.50778">
        <ele>76</ele>
        <time>2022-11-11T12:49:07Z</time>
      </trkpt>
      <trkpt lat="46.97845" lon="-1.50766">
        <ele>76</ele>
        <time>2022-11-11T12:49:09Z</time>
      </trkpt>
      <trkpt lat="46.9784" lon="-1.50752">
        <ele>76</ele>
        <time>2022-11-11T12:49:11Z</time>
      </trkpt>
      <trkpt lat="46.97835" lon="-1.50738">
        <ele>76</ele>
        <time>2022-11-11T12:49:13Z</time>
      </trkpt>
      <trkpt lat="46.97831" lon="-1.50723">
        <ele>77</ele>
        <time>2022-11-11T12:49:15Z</time>
      </trkpt>
      <trkpt lat="46.97827" lon="-1.50708">
        <ele>77</ele>
        <time>2022-11-11T12:49:17Z</time>
      </trkpt>
      <trkpt lat="46.97824" lon="-1.50693">
        <ele>77</ele>
        <time>2022-11-11T12:49:19Z</time>
      </trkpt>
      <trkpt lat="46.97821" lon="-1.50677">
        <ele>76</ele>
        <time>2022-11-11T12:49:21Z</time>
      </trkpt>
      <trkpt lat="46.97817" lon="-1.50662">
        <ele>76</ele>
        <time>2022-11-11T12:49:23Z</time>
      </trkpt>
      <trkpt lat="46.97813" lon="-1.50647">
        <ele>76</ele>
        <time>2022-11-11T12:49:25Z</time>
      </trkpt>
      <trkpt lat="46.97809" lon="-1.50632">
        <ele>76</ele>
        <time>2022-11-11T12:49:27Z</time>
      </trkpt>
      <trkpt lat="46.97804" lon="-1.50618">
        <ele>76</ele>
        <time>2022-11-11T12:49:29Z</time>
      </trkpt>
      <trkpt lat="46.97798" lon="-1.50605">
        <ele>75</ele>
        <time>2022-11-11T12:49:31Z</time>
      </trkpt>
      <trkpt lat="46.97791" lon="-1.50593">
        <ele>75</ele>
        <time>2022-11-11T12:49:33Z</time>
      </trkpt>
      <trkpt lat="46.97785" lon="-1.50582">
        <ele>75</ele>
        <time>2022-11-11T12:49:35Z</time>
      </trkpt>
      <trkpt lat="46.97778" lon="-1.50571">
        <ele>75</ele>
        <time>2022-11-11T12:49:37Z</time>
      </trkpt>
      <trkpt lat="46.97773" lon="-1.5056">
        <ele>75</ele>
        <time>2022-11-11T12:49:39Z</time>
      </trkpt>
      <trkpt lat="46.97773" lon="-1.50546">
        <ele>75</ele>
        <time>2022-11-11T12:49:41Z</time>
      </trkpt>
      <trkpt lat="46.97779" lon="-1.50533">
        <ele>75</ele>
        <time>2022-11-11T12:49:43Z</time>
      </trkpt>
      <trkpt lat="46.97785" lon="-1.50519">
        <ele>75</ele>
        <time>2022-11-11T12:49:45Z</time>
      </trkpt>
      <trkpt lat="46.97791" lon="-1.50505">
        <ele>75</ele>
        <time>2022-11-11T12:49:47Z</time>
      </trkpt>
      <trkpt lat="46.97797" lon="-1.5049">
        <ele>75</ele>
        <time>2022-11-11T12:49:49Z</time>
      </trkpt>
      <trkpt lat="46.97802" lon="-1.50475">
        <ele>75</ele>
        <time>2022-11-11T12:49:51Z</time>
      </trkpt>
      <trkpt lat="46.97807" lon="-1.50459">
        <ele>75</ele>
        <time>2022-11-11T12:49:53Z</time>
      </trkpt>
      <trkpt lat="46.97812" lon="-1.50443">
        <ele>75</ele>
        <time>2022-11-11T12:49:55Z</time>
      </trkpt>
      <trkpt lat="46.97817" lon="-1.50427">
        <ele>75</ele>
        <time>2022-11-11T12:49:57Z</time>
      </trkpt>
      <trkpt lat="46.97823" lon="-1.50412">
        <ele>75</ele>
        <time>2022-11-11T12:49:59Z</time>
      </trkpt>
      <trkpt lat="46.9783" lon="-1.50397">
        <ele>74</ele>
        <time>2022-11-11T12:50:01Z</time>
      </trkpt>
      <trkpt lat="46.97837" lon="-1.50382">
        <ele>74</ele>
        <time>2022-11-11T12:50:03Z</time>
      </trkpt>
      <trkpt lat="46.97844" lon="-1.50368">
        <ele>74</ele>
        <time>2022-11-11T12:50:05Z</time>
      </trkpt>
      <trkpt lat="46.97851" lon="-1.50354">
        <ele>74</ele>
        <time>2022-11-11T12:50:07Z</time>
      </trkpt>
      <trkpt lat="46.97857" lon="-1.50338">
        <ele>74</ele>
        <time>2022-11-11T12:50:09Z</time>
      </trkpt>
      <trkpt lat="46.97861" lon="-1.50321">
        <ele>74</ele>
        <time>2022-11-11T12:50:11Z</time>
      </trkpt>
      <trkpt lat="46.97862" lon="-1.50303">
        <ele>74</ele>
        <time>2022-11-11T12:50:13Z</time>
      </trkpt>
      <trkpt lat="46.97864" lon="-1.50284">
        <ele>73</ele>
        <time>2022-11-11T12:50:15Z</time>
      </trkpt>
      <trkpt lat="46.97865" lon="-1.50266">
        <ele>74</ele>
        <time>2022-11-11T12:50:17Z</time>
      </trkpt>
      <trkpt lat="46.97866" lon="-1.50248">
        <ele>73</ele>
        <time>2022-11-11T12:50:19Z</time>
      </trkpt>
      <trkpt lat="46.97868" lon="-1.50229">
        <ele>73</ele>
        <time>2022-11-11T12:50:21Z</time>
      </trkpt>
      <trkpt lat="46.9787" lon="-1.5021">
        <ele>73</ele>
        <time>2022-11-11T12:50:23Z</time>
      </trkpt>
      <trkpt lat="46.97871" lon="-1.50191">
        <ele>72</ele>
        <time>2022-11-11T12:50:25Z</time>
      </trkpt>
      <trkpt lat="46.97873" lon="-1.50172">
        <ele>72</ele>
        <time>2022-11-11T12:50:27Z</time>
      </trkpt>
      <trkpt lat="46.97874" lon="-1.50153">
        <ele>72</ele>
        <time>2022-11-11T12:50:29Z</time>
      </trkpt>
      <trkpt lat="46.97878" lon="-1.50136">
        <ele>72</ele>
        <time>2022-11-11T12:50:31Z</time>
      </trkpt>
      <trkpt lat="46.97887" lon="-1.50122">
        <ele>72</ele>
        <time>2022-11-11T12:50:33Z</time>
      </trkpt>
      <trkpt lat="46.97898" lon="-1.50113">
        <ele>71</ele>
        <time>2022-11-11T12:50:35Z</time>
      </trkpt>
      <trkpt lat="46.97909" lon="-1.50103">
        <ele>72</ele>
        <time>2022-11-11T12:50:37Z</time>
      </trkpt>
      <trkpt lat="46.97918" lon="-1.50091">
        <ele>72</ele>
        <time>2022-11-11T12:50:39Z</time>
      </trkpt>
      <trkpt lat="46.97925" lon="-1.50077">
        <ele>72</ele>
        <time>2022-11-11T12:50:41Z</time>
      </trkpt>
      <trkpt lat="46.97932" lon="-1.50065">
        <ele>73</ele>
        <time>2022-11-11T12:50:43Z</time>
      </trkpt>
      <trkpt lat="46.97939" lon="-1.50053">
        <ele>73</ele>
        <time>2022-11-11T12:50:45Z</time>
      </trkpt>
      <trkpt lat="46.97946" lon="-1.50042">
        <ele>73</ele>
        <time>2022-11-11T12:50:47Z</time>
      </trkpt>
      <trkpt lat="46.97953" lon="-1.50031">
        <ele>73</ele>
        <time>2022-11-11T12:50:49Z</time>
      </trkpt>
      <trkpt lat="46.97961" lon="-1.5002">
        <ele>73</ele>
        <time>2022-11-11T12:50:51Z</time>
      </trkpt>
      <trkpt lat="46.97968" lon="-1.50008">
        <ele>73</ele>
        <time>2022-11-11T12:50:53Z</time>
      </trkpt>
      <trkpt lat="46.97975" lon="-1.49997">
        <ele>74</ele>
        <time>2022-11-11T12:50:55Z</time>
      </trkpt>
      <trkpt lat="46.97982" lon="-1.49986">
        <ele>74</ele>
        <time>2022-11-11T12:50:57Z</time>
      </trkpt>
      <trkpt lat="46.97988" lon="-1.49975">
        <ele>75</ele>
        <time>2022-11-11T12:50:59Z</time>
      </trkpt>
      <trkpt lat="46.97994" lon="-1.49962">
        <ele>75</ele>
        <time>2022-11-11T12:51:01Z</time>
      </trkpt>
      <trkpt lat="46.97999" lon="-1.49949">
        <ele>75</ele>
        <time>2022-11-11T12:51:03Z</time>
      </trkpt>
      <trkpt lat="46.98005" lon="-1.49937">
        <ele>75</ele>
        <time>2022-11-11T12:51:05Z</time>
      </trkpt>
      <trkpt lat="46.9801" lon="-1.49925">
        <ele>76</ele>
        <time>2022-11-11T12:51:07Z</time>
      </trkpt>
      <trkpt lat="46.98015" lon="-1.49914">
        <ele>76</ele>
        <time>2022-11-11T12:51:09Z</time>
      </trkpt>
      <trkpt lat="46.98022" lon="-1.49899">
        <ele>76</ele>
        <time>2022-11-11T12:51:12Z</time>
      </trkpt>
      <trkpt lat="46.98022" lon="-1.49881">
        <ele>77</ele>
        <time>2022-11-11T12:51:15Z</time>
      </trkpt>
      <trkpt lat="46.98018" lon="-1.49866">
        <ele>77</ele>
        <time>2022-11-11T12:51:17Z</time>
      </trkpt>
      <trkpt lat="46.98016" lon="-1.4985">
        <ele>78</ele>
        <time>2022-11-11T12:51:19Z</time>
      </trkpt>
      <trkpt lat="46.98016" lon="-1.49834">
        <ele>78</ele>
        <time>2022-11-11T12:51:21Z</time>
      </trkpt>
      <trkpt lat="46.98017" lon="-1.49818">
        <ele>77</ele>
        <time>2022-11-11T12:51:23Z</time>
      </trkpt>
      <trkpt lat="46.98019" lon="-1.49803">
        <ele>77</ele>
        <time>2022-11-11T12:51:25Z</time>
      </trkpt>
      <trkpt lat="46.98022" lon="-1.49787">
        <ele>77</ele>
        <time>2022-11-11T12:51:27Z</time>
      </trkpt>
      <trkpt lat="46.98026" lon="-1.49772">
        <ele>77</ele>
        <time>2022-11-11T12:51:29Z</time>
      </trkpt>
      <trkpt lat="46.98031" lon="-1.49757">
        <ele>77</ele>
        <time>2022-11-11T12:51:31Z</time>
      </trkpt>
      <trkpt lat="46.98037" lon="-1.49744">
        <ele>77</ele>
        <time>2022-11-11T12:51:33Z</time>
      </trkpt>
      <trkpt lat="46.98044" lon="-1.49732">
        <ele>78</ele>
        <time>2022-11-11T12:51:35Z</time>
      </trkpt>
      <trkpt lat="46.98051" lon="-1.49718">
        <ele>78</ele>
        <time>2022-11-11T12:51:37Z</time>
      </trkpt>
      <trkpt lat="46.98058" lon="-1.49705">
        <ele>77</ele>
        <time>2022-11-11T12:51:39Z</time>
      </trkpt>
      <trkpt lat="46.98066" lon="-1.49692">
        <ele>77</ele>
        <time>2022-11-11T12:51:41Z</time>
      </trkpt>
      <trkpt lat="46.98074" lon="-1.49678">
        <ele>77</ele>
        <time>2022-11-11T12:51:43Z</time>
      </trkpt>
      <trkpt lat="46.98081" lon="-1.49664">
        <ele>77</ele>
        <time>2022-11-11T12:51:45Z</time>
      </trkpt>
      <trkpt lat="46.98089" lon="-1.4965">
        <ele>77</ele>
        <time>2022-11-11T12:51:47Z</time>
      </trkpt>
      <trkpt lat="46.98097" lon="-1.49636">
        <ele>78</ele>
        <time>2022-11-11T12:51:49Z</time>
      </trkpt>
      <trkpt lat="46.98105" lon="-1.49622">
        <ele>78</ele>
        <time>2022-11-11T12:51:51Z</time>
      </trkpt>
      <trkpt lat="46.98112" lon="-1.49608">
        <ele>78</ele>
        <time>2022-11-11T12:51:53Z</time>
      </trkpt>
      <trkpt lat="46.9812" lon="-1.49594">
        <ele>78</ele>
        <time>2022-11-11T12:51:55Z</time>
      </trkpt>
      <trkpt lat="46.98128" lon="-1.4958">
        <ele>78</ele>
        <time>2022-11-11T12:51:57Z</time>
      </trkpt>
      <trkpt lat="46.98135" lon="-1.49566">
        <ele>78</ele>
        <time>2022-11-11T12:51:59Z</time>
      </trkpt>
      <trkpt lat="46.98143" lon="-1.49552">
        <ele>78</ele>
        <time>2022-11-11T12:52:01Z</time>
      </trkpt>
      <trkpt lat="46.98151" lon="-1.49538">
        <ele>78</ele>
        <time>2022-11-11T12:52:03Z</time>
      </trkpt>
      <trkpt lat="46.98159" lon="-1.49524">
        <ele>78</ele>
        <time>2022-11-11T12:52:05Z</time>
      </trkpt>
      <trkpt lat="46.98167" lon="-1.49509">
        <ele>78</ele>
        <time>2022-11-11T12:52:07Z</time>
      </trkpt>
      <trkpt lat="46.98174" lon="-1.49494">
        <ele>78</ele>
        <time>2022-11-11T12:52:09Z</time>
      </trkpt>
      <trkpt lat="46.98181" lon="-1.49478">
        <ele>78</ele>
        <time>2022-11-11T12:52:11Z</time>
      </trkpt>
      <trkpt lat="46.98186" lon="-1.49461">
        <ele>78</ele>
        <time>2022-11-11T12:52:13Z</time>
      </trkpt>
      <trkpt lat="46.98191" lon="-1.49445">
        <ele>78</ele>
        <time>2022-11-11T12:52:15Z</time>
      </trkpt>
      <trkpt lat="46.98196" lon="-1.49429">
        <ele>78</ele>
        <time>2022-11-11T12:52:17Z</time>
      </trkpt>
      <trkpt lat="46.982" lon="-1.49413">
        <ele>78</ele>
        <time>2022-11-11T12:52:19Z</time>
      </trkpt>
      <trkpt lat="46.98205" lon="-1.49397">
        <ele>78</ele>
        <time>2022-11-11T12:52:21Z</time>
      </trkpt>
      <trkpt lat="46.98209" lon="-1.49382">
        <ele>78</ele>
        <time>2022-11-11T12:52:23Z</time>
      </trkpt>
      <trkpt lat="46.98213" lon="-1.49366">
        <ele>78</ele>
        <time>2022-11-11T12:52:25Z</time>
      </trkpt>
      <trkpt lat="46.98217" lon="-1.4935">
        <ele>78</ele>
        <time>2022-11-11T12:52:27Z</time>
      </trkpt>
      <trkpt lat="46.98221" lon="-1.49334">
        <ele>79</ele>
        <time>2022-11-11T12:52:29Z</time>
      </trkpt>
      <trkpt lat="46.98225" lon="-1.49319">
        <ele>79</ele>
        <time>2022-11-11T12:52:31Z</time>
      </trkpt>
      <trkpt lat="46.9823" lon="-1.49303">
        <ele>79</ele>
        <time>2022-11-11T12:52:33Z</time>
      </trkpt>
      <trkpt lat="46.98234" lon="-1.49287">
        <ele>79</ele>
        <time>2022-11-11T12:52:35Z</time>
      </trkpt>
      <trkpt lat="46.98238" lon="-1.49271">
        <ele>79</ele>
        <time>2022-11-11T12:52:37Z</time>
      </trkpt>
      <trkpt lat="46.98242" lon="-1.49255">
        <ele>79</ele>
        <time>2022-11-11T12:52:39Z</time>
      </trkpt>
      <trkpt lat="46.98247" lon="-1.4924">
        <ele>79</ele>
        <time>2022-11-11T12:52:41Z</time>
      </trkpt>
      <trkpt lat="46.98251" lon="-1.49224">
        <ele>79</ele>
        <time>2022-11-11T12:52:43Z</time>
      </trkpt>
      <trkpt lat="46.98255" lon="-1.49208">
        <ele>79</ele>
        <time>2022-11-11T12:52:45Z</time>
      </trkpt>
      <trkpt lat="46.9826" lon="-1.49192">
        <ele>79</ele>
        <time>2022-11-11T12:52:47Z</time>
      </trkpt>
      <trkpt lat="46.98264" lon="-1.49175">
        <ele>79</ele>
        <time>2022-11-11T12:52:49Z</time>
      </trkpt>
      <trkpt lat="46.98268" lon="-1.49158">
        <ele>79</ele>
        <time>2022-11-11T12:52:51Z</time>
      </trkpt>
      <trkpt lat="46.98273" lon="-1.49142">
        <ele>79</ele>
        <time>2022-11-11T12:52:53Z</time>
      </trkpt>
      <trkpt lat="46.98277" lon="-1.49126">
        <ele>79</ele>
        <time>2022-11-11T12:52:55Z</time>
      </trkpt>
      <trkpt lat="46.98281" lon="-1.4911">
        <ele>79</ele>
        <time>2022-11-11T12:52:57Z</time>
      </trkpt>
      <trkpt lat="46.98285" lon="-1.49093">
        <ele>78</ele>
        <time>2022-11-11T12:52:59Z</time>
      </trkpt>
      <trkpt lat="46.9829" lon="-1.49077">
        <ele>78</ele>
        <time>2022-11-11T12:53:01Z</time>
      </trkpt>
      <trkpt lat="46.98295" lon="-1.49061">
        <ele>78</ele>
        <time>2022-11-11T12:53:03Z</time>
      </trkpt>
      <trkpt lat="46.98299" lon="-1.49044">
        <ele>78</ele>
        <time>2022-11-11T12:53:05Z</time>
      </trkpt>
      <trkpt lat="46.98303" lon="-1.49028">
        <ele>78</ele>
        <time>2022-11-11T12:53:07Z</time>
      </trkpt>
      <trkpt lat="46.98308" lon="-1.49012">
        <ele>78</ele>
        <time>2022-11-11T12:53:09Z</time>
      </trkpt>
      <trkpt lat="46.98311" lon="-1.48996">
        <ele>79</ele>
        <time>2022-11-11T12:53:11Z</time>
      </trkpt>
      <trkpt lat="46.98315" lon="-1.48979">
        <ele>78</ele>
        <time>2022-11-11T12:53:13Z</time>
      </trkpt>
      <trkpt lat="46.98319" lon="-1.48963">
        <ele>78</ele>
        <time>2022-11-11T12:53:15Z</time>
      </trkpt>
      <trkpt lat="46.98321" lon="-1.48947">
        <ele>78</ele>
        <time>2022-11-11T12:53:17Z</time>
      </trkpt>
      <trkpt lat="46.98323" lon="-1.48931">
        <ele>78</ele>
        <time>2022-11-11T12:53:19Z</time>
      </trkpt>
      <trkpt lat="46.98324" lon="-1.48914">
        <ele>78</ele>
        <time>2022-11-11T12:53:21Z</time>
      </trkpt>
      <trkpt lat="46.98325" lon="-1.48897">
        <ele>78</ele>
        <time>2022-11-11T12:53:23Z</time>
      </trkpt>
      <trkpt lat="46.98325" lon="-1.4888">
        <ele>79</ele>
        <time>2022-11-11T12:53:25Z</time>
      </trkpt>
      <trkpt lat="46.98326" lon="-1.48863">
        <ele>78</ele>
        <time>2022-11-11T12:53:27Z</time>
      </trkpt>
      <trkpt lat="46.98325" lon="-1.48846">
        <ele>79</ele>
        <time>2022-11-11T12:53:29Z</time>
      </trkpt>
      <trkpt lat="46.98325" lon="-1.4883">
        <ele>78</ele>
        <time>2022-11-11T12:53:31Z</time>
      </trkpt>
      <trkpt lat="46.98324" lon="-1.48814">
        <ele>79</ele>
        <time>2022-11-11T12:53:33Z</time>
      </trkpt>
      <trkpt lat="46.98323" lon="-1.48797">
        <ele>79</ele>
        <time>2022-11-11T12:53:35Z</time>
      </trkpt>
      <trkpt lat="46.98322" lon="-1.48779">
        <ele>79</ele>
        <time>2022-11-11T12:53:37Z</time>
      </trkpt>
      <trkpt lat="46.98322" lon="-1.48763">
        <ele>78</ele>
        <time>2022-11-11T12:53:39Z</time>
      </trkpt>
      <trkpt lat="46.98321" lon="-1.48745">
        <ele>78</ele>
        <time>2022-11-11T12:53:41Z</time>
      </trkpt>
      <trkpt lat="46.9832" lon="-1.48727">
        <ele>78</ele>
        <time>2022-11-11T12:53:43Z</time>
      </trkpt>
      <trkpt lat="46.98319" lon="-1.48709">
        <ele>78</ele>
        <time>2022-11-11T12:53:45Z</time>
      </trkpt>
      <trkpt lat="46.98316" lon="-1.48691">
        <ele>77</ele>
        <time>2022-11-11T12:53:47Z</time>
      </trkpt>
      <trkpt lat="46.98313" lon="-1.48674">
        <ele>77</ele>
        <time>2022-11-11T12:53:49Z</time>
      </trkpt>
      <trkpt lat="46.98309" lon="-1.48657">
        <ele>77</ele>
        <time>2022-11-11T12:53:51Z</time>
      </trkpt>
      <trkpt lat="46.98304" lon="-1.4864">
        <ele>77</ele>
        <time>2022-11-11T12:53:53Z</time>
      </trkpt>
      <trkpt lat="46.98298" lon="-1.48625">
        <ele>77</ele>
        <time>2022-11-11T12:53:55Z</time>
      </trkpt>
      <trkpt lat="46.98291" lon="-1.4861">
        <ele>77</ele>
        <time>2022-11-11T12:53:57Z</time>
      </trkpt>
      <trkpt lat="46.98283" lon="-1.48595">
        <ele>77</ele>
        <time>2022-11-11T12:53:59Z</time>
      </trkpt>
      <trkpt lat="46.98275" lon="-1.48581">
        <ele>77</ele>
        <time>2022-11-11T12:54:01Z</time>
      </trkpt>
      <trkpt lat="46.98267" lon="-1.48566">
        <ele>77</ele>
        <time>2022-11-11T12:54:03Z</time>
      </trkpt>
      <trkpt lat="46.98259" lon="-1.48551">
        <ele>77</ele>
        <time>2022-11-11T12:54:05Z</time>
      </trkpt>
      <trkpt lat="46.9825" lon="-1.48537">
        <ele>77</ele>
        <time>2022-11-11T12:54:07Z</time>
      </trkpt>
      <trkpt lat="46.98242" lon="-1.48522">
        <ele>76</ele>
        <time>2022-11-11T12:54:09Z</time>
      </trkpt>
      <trkpt lat="46.98232" lon="-1.48507">
        <ele>76</ele>
        <time>2022-11-11T12:54:11Z</time>
      </trkpt>
      <trkpt lat="46.98223" lon="-1.48492">
        <ele>76</ele>
        <time>2022-11-11T12:54:13Z</time>
      </trkpt>
      <trkpt lat="46.98214" lon="-1.48477">
        <ele>76</ele>
        <time>2022-11-11T12:54:15Z</time>
      </trkpt>
      <trkpt lat="46.98205" lon="-1.48461">
        <ele>75</ele>
        <time>2022-11-11T12:54:17Z</time>
      </trkpt>
      <trkpt lat="46.98197" lon="-1.48446">
        <ele>76</ele>
        <time>2022-11-11T12:54:19Z</time>
      </trkpt>
      <trkpt lat="46.98189" lon="-1.48429">
        <ele>76</ele>
        <time>2022-11-11T12:54:21Z</time>
      </trkpt>
      <trkpt lat="46.98181" lon="-1.48413">
        <ele>76</ele>
        <time>2022-11-11T12:54:23Z</time>
      </trkpt>
      <trkpt lat="46.98175" lon="-1.48396">
        <ele>76</ele>
        <time>2022-11-11T12:54:25Z</time>
      </trkpt>
      <trkpt lat="46.9817" lon="-1.48379">
        <ele>77</ele>
        <time>2022-11-11T12:54:27Z</time>
      </trkpt>
      <trkpt lat="46.98165" lon="-1.48361">
        <ele>77</ele>
        <time>2022-11-11T12:54:29Z</time>
      </trkpt>
      <trkpt lat="46.98161" lon="-1.48344">
        <ele>77</ele>
        <time>2022-11-11T12:54:31Z</time>
      </trkpt>
      <trkpt lat="46.98157" lon="-1.48326">
        <ele>76</ele>
        <time>2022-11-11T12:54:33Z</time>
      </trkpt>
      <trkpt lat="46.98154" lon="-1.48308">
        <ele>76</ele>
        <time>2022-11-11T12:54:35Z</time>
      </trkpt>
      <trkpt lat="46.9815" lon="-1.48291">
        <ele>77</ele>
        <time>2022-11-11T12:54:37Z</time>
      </trkpt>
      <trkpt lat="46.98146" lon="-1.48273">
        <ele>76</ele>
        <time>2022-11-11T12:54:39Z</time>
      </trkpt>
      <trkpt lat="46.98143" lon="-1.48255">
        <ele>76</ele>
        <time>2022-11-11T12:54:41Z</time>
      </trkpt>
      <trkpt lat="46.98139" lon="-1.48238">
        <ele>76</ele>
        <time>2022-11-11T12:54:43Z</time>
      </trkpt>
      <trkpt lat="46.98136" lon="-1.4822">
        <ele>75</ele>
        <time>2022-11-11T12:54:45Z</time>
      </trkpt>
      <trkpt lat="46.98132" lon="-1.48203">
        <ele>76</ele>
        <time>2022-11-11T12:54:47Z</time>
      </trkpt>
      <trkpt lat="46.98128" lon="-1.48185">
        <ele>75</ele>
        <time>2022-11-11T12:54:49Z</time>
      </trkpt>
      <trkpt lat="46.98124" lon="-1.48168">
        <ele>75</ele>
        <time>2022-11-11T12:54:51Z</time>
      </trkpt>
      <trkpt lat="46.9812" lon="-1.4815">
        <ele>75</ele>
        <time>2022-11-11T12:54:53Z</time>
      </trkpt>
      <trkpt lat="46.98116" lon="-1.48133">
        <ele>75</ele>
        <time>2022-11-11T12:54:55Z</time>
      </trkpt>
      <trkpt lat="46.98113" lon="-1.48115">
        <ele>75</ele>
        <time>2022-11-11T12:54:57Z</time>
      </trkpt>
      <trkpt lat="46.98109" lon="-1.48098">
        <ele>75</ele>
        <time>2022-11-11T12:54:59Z</time>
      </trkpt>
      <trkpt lat="46.98106" lon="-1.4808">
        <ele>75</ele>
        <time>2022-11-11T12:55:01Z</time>
      </trkpt>
      <trkpt lat="46.98103" lon="-1.48061">
        <ele>75</ele>
        <time>2022-11-11T12:55:03Z</time>
      </trkpt>
      <trkpt lat="46.98101" lon="-1.48043">
        <ele>74</ele>
        <time>2022-11-11T12:55:05Z</time>
      </trkpt>
      <trkpt lat="46.981" lon="-1.48025">
        <ele>75</ele>
        <time>2022-11-11T12:55:07Z</time>
      </trkpt>
      <trkpt lat="46.98099" lon="-1.48007">
        <ele>74</ele>
        <time>2022-11-11T12:55:09Z</time>
      </trkpt>
      <trkpt lat="46.98099" lon="-1.47989">
        <ele>75</ele>
        <time>2022-11-11T12:55:11Z</time>
      </trkpt>
      <trkpt lat="46.98099" lon="-1.47971">
        <ele>75</ele>
        <time>2022-11-11T12:55:13Z</time>
      </trkpt>
      <trkpt lat="46.98099" lon="-1.47953">
        <ele>74</ele>
        <time>2022-11-11T12:55:15Z</time>
      </trkpt>
      <trkpt lat="46.98099" lon="-1.47934">
        <ele>74</ele>
        <time>2022-11-11T12:55:17Z</time>
      </trkpt>
      <trkpt lat="46.981" lon="-1.47916">
        <ele>74</ele>
        <time>2022-11-11T12:55:19Z</time>
      </trkpt>
      <trkpt lat="46.981" lon="-1.47898">
        <ele>74</ele>
        <time>2022-11-11T12:55:21Z</time>
      </trkpt>
      <trkpt lat="46.981" lon="-1.47879">
        <ele>74</ele>
        <time>2022-11-11T12:55:23Z</time>
      </trkpt>
      <trkpt lat="46.981" lon="-1.4786">
        <ele>74</ele>
        <time>2022-11-11T12:55:25Z</time>
      </trkpt>
      <trkpt lat="46.981" lon="-1.47842">
        <ele>74</ele>
        <time>2022-11-11T12:55:27Z</time>
      </trkpt>
      <trkpt lat="46.98101" lon="-1.47822">
        <ele>73</ele>
        <time>2022-11-11T12:55:29Z</time>
      </trkpt>
      <trkpt lat="46.98101" lon="-1.47803">
        <ele>73</ele>
        <time>2022-11-11T12:55:31Z</time>
      </trkpt>
      <trkpt lat="46.98102" lon="-1.47783">
        <ele>73</ele>
        <time>2022-11-11T12:55:33Z</time>
      </trkpt>
      <trkpt lat="46.98102" lon="-1.47763">
        <ele>73</ele>
        <time>2022-11-11T12:55:35Z</time>
      </trkpt>
      <trkpt lat="46.98102" lon="-1.47743">
        <ele>73</ele>
        <time>2022-11-11T12:55:37Z</time>
      </trkpt>
      <trkpt lat="46.98102" lon="-1.47723">
        <ele>72</ele>
        <time>2022-11-11T12:55:39Z</time>
      </trkpt>
      <trkpt lat="46.98102" lon="-1.47703">
        <ele>72</ele>
        <time>2022-11-11T12:55:41Z</time>
      </trkpt>
      <trkpt lat="46.98102" lon="-1.47684">
        <ele>72</ele>
        <time>2022-11-11T12:55:43Z</time>
      </trkpt>
      <trkpt lat="46.98102" lon="-1.47665">
        <ele>72</ele>
        <time>2022-11-11T12:55:45Z</time>
      </trkpt>
      <trkpt lat="46.98102" lon="-1.47646">
        <ele>72</ele>
        <time>2022-11-11T12:55:47Z</time>
      </trkpt>
      <trkpt lat="46.98102" lon="-1.47627">
        <ele>73</ele>
        <time>2022-11-11T12:55:49Z</time>
      </trkpt>
      <trkpt lat="46.98102" lon="-1.47608">
        <ele>72</ele>
        <time>2022-11-11T12:55:51Z</time>
      </trkpt>
      <trkpt lat="46.98102" lon="-1.47589">
        <ele>73</ele>
        <time>2022-11-11T12:55:53Z</time>
      </trkpt>
      <trkpt lat="46.98103" lon="-1.47571">
        <ele>72</ele>
        <time>2022-11-11T12:55:55Z</time>
      </trkpt>
      <trkpt lat="46.98103" lon="-1.47552">
        <ele>72</ele>
        <time>2022-11-11T12:55:57Z</time>
      </trkpt>
      <trkpt lat="46.98103" lon="-1.47534">
        <ele>72</ele>
        <time>2022-11-11T12:55:59Z</time>
      </trkpt>
      <trkpt lat="46.98103" lon="-1.47515">
        <ele>72</ele>
        <time>2022-11-11T12:56:01Z</time>
      </trkpt>
      <trkpt lat="46.98103" lon="-1.47497">
        <ele>72</ele>
        <time>2022-11-11T12:56:03Z</time>
      </trkpt>
      <trkpt lat="46.98103" lon="-1.47479">
        <ele>72</ele>
        <time>2022-11-11T12:56:05Z</time>
      </trkpt>
      <trkpt lat="46.98102" lon="-1.47462">
        <ele>72</ele>
        <time>2022-11-11T12:56:07Z</time>
      </trkpt>
      <trkpt lat="46.98101" lon="-1.47446">
        <ele>72</ele>
        <time>2022-11-11T12:56:09Z</time>
      </trkpt>
      <trkpt lat="46.98099" lon="-1.47429">
        <ele>72</ele>
        <time>2022-11-11T12:56:11Z</time>
      </trkpt>
      <trkpt lat="46.98095" lon="-1.4741">
        <ele>71</ele>
        <time>2022-11-11T12:56:13Z</time>
      </trkpt>
      <trkpt lat="46.98092" lon="-1.47391">
        <ele>71</ele>
        <time>2022-11-11T12:56:15Z</time>
      </trkpt>
      <trkpt lat="46.98087" lon="-1.47374">
        <ele>71</ele>
        <time>2022-11-11T12:56:17Z</time>
      </trkpt>
      <trkpt lat="46.98082" lon="-1.47359">
        <ele>72</ele>
        <time>2022-11-11T12:56:19Z</time>
      </trkpt>
      <trkpt lat="46.98074" lon="-1.47346">
        <ele>72</ele>
        <time>2022-11-11T12:56:21Z</time>
      </trkpt>
      <trkpt lat="46.98065" lon="-1.47334">
        <ele>72</ele>
        <time>2022-11-11T12:56:23Z</time>
      </trkpt>
      <trkpt lat="46.98055" lon="-1.47322">
        <ele>73</ele>
        <time>2022-11-11T12:56:25Z</time>
      </trkpt>
      <trkpt lat="46.98047" lon="-1.47312">
        <ele>73</ele>
        <time>2022-11-11T12:56:27Z</time>
      </trkpt>
      <trkpt lat="46.98038" lon="-1.473">
        <ele>74</ele>
        <time>2022-11-11T12:56:29Z</time>
      </trkpt>
      <trkpt lat="46.98029" lon="-1.47289">
        <ele>74</ele>
        <time>2022-11-11T12:56:31Z</time>
      </trkpt>
      <trkpt lat="46.9802" lon="-1.47277">
        <ele>74</ele>
        <time>2022-11-11T12:56:33Z</time>
      </trkpt>
      <trkpt lat="46.98012" lon="-1.47264">
        <ele>74</ele>
        <time>2022-11-11T12:56:35Z</time>
      </trkpt>
      <trkpt lat="46.98005" lon="-1.47251">
        <ele>74</ele>
        <time>2022-11-11T12:56:37Z</time>
      </trkpt>
      <trkpt lat="46.97998" lon="-1.47237">
        <ele>74</ele>
        <time>2022-11-11T12:56:39Z</time>
      </trkpt>
      <trkpt lat="46.97992" lon="-1.47223">
        <ele>74</ele>
        <time>2022-11-11T12:56:41Z</time>
      </trkpt>
      <trkpt lat="46.97986" lon="-1.4721">
        <ele>75</ele>
        <time>2022-11-11T12:56:43Z</time>
      </trkpt>
      <trkpt lat="46.9798" lon="-1.47196">
        <ele>75</ele>
        <time>2022-11-11T12:56:45Z</time>
      </trkpt>
      <trkpt lat="46.97975" lon="-1.47182">
        <ele>75</ele>
        <time>2022-11-11T12:56:47Z</time>
      </trkpt>
      <trkpt lat="46.9797" lon="-1.47167">
        <ele>75</ele>
        <time>2022-11-11T12:56:49Z</time>
      </trkpt>
      <trkpt lat="46.97965" lon="-1.47152">
        <ele>74</ele>
        <time>2022-11-11T12:56:51Z</time>
      </trkpt>
      <trkpt lat="46.9796" lon="-1.47136">
        <ele>74</ele>
        <time>2022-11-11T12:56:53Z</time>
      </trkpt>
      <trkpt lat="46.97955" lon="-1.47121">
        <ele>73</ele>
        <time>2022-11-11T12:56:55Z</time>
      </trkpt>
      <trkpt lat="46.9795" lon="-1.47105">
        <ele>74</ele>
        <time>2022-11-11T12:56:57Z</time>
      </trkpt>
      <trkpt lat="46.97945" lon="-1.47089">
        <ele>73</ele>
        <time>2022-11-11T12:56:59Z</time>
      </trkpt>
      <trkpt lat="46.97939" lon="-1.47073">
        <ele>73</ele>
        <time>2022-11-11T12:57:01Z</time>
      </trkpt>
      <trkpt lat="46.97933" lon="-1.47058">
        <ele>73</ele>
        <time>2022-11-11T12:57:03Z</time>
      </trkpt>
      <trkpt lat="46.97926" lon="-1.47043">
        <ele>73</ele>
        <time>2022-11-11T12:57:05Z</time>
      </trkpt>
      <trkpt lat="46.97919" lon="-1.4703">
        <ele>73</ele>
        <time>2022-11-11T12:57:07Z</time>
      </trkpt>
      <trkpt lat="46.9791" lon="-1.47017">
        <ele>73</ele>
        <time>2022-11-11T12:57:09Z</time>
      </trkpt>
      <trkpt lat="46.97901" lon="-1.47006">
        <ele>73</ele>
        <time>2022-11-11T12:57:11Z</time>
      </trkpt>
      <trkpt lat="46.97892" lon="-1.46995">
        <ele>73</ele>
        <time>2022-11-11T12:57:13Z</time>
      </trkpt>
      <trkpt lat="46.97883" lon="-1.46985">
        <ele>73</ele>
        <time>2022-11-11T12:57:15Z</time>
      </trkpt>
      <trkpt lat="46.97873" lon="-1.46975">
        <ele>73</ele>
        <time>2022-11-11T12:57:17Z</time>
      </trkpt>
      <trkpt lat="46.97864" lon="-1.46965">
        <ele>73</ele>
        <time>2022-11-11T12:57:19Z</time>
      </trkpt>
      <trkpt lat="46.97854" lon="-1.46954">
        <ele>73</ele>
        <time>2022-11-11T12:57:21Z</time>
      </trkpt>
      <trkpt lat="46.97845" lon="-1.46944">
        <ele>73</ele>
        <time>2022-11-11T12:57:23Z</time>
      </trkpt>
      <trkpt lat="46.97835" lon="-1.46934">
        <ele>74</ele>
        <time>2022-11-11T12:57:25Z</time>
      </trkpt>
      <trkpt lat="46.97826" lon="-1.46924">
        <ele>74</ele>
        <time>2022-11-11T12:57:27Z</time>
      </trkpt>
      <trkpt lat="46.97816" lon="-1.46913">
        <ele>74</ele>
        <time>2022-11-11T12:57:29Z</time>
      </trkpt>
      <trkpt lat="46.97806" lon="-1.46903">
        <ele>74</ele>
        <time>2022-11-11T12:57:31Z</time>
      </trkpt>
      <trkpt lat="46.97797" lon="-1.46893">
        <ele>74</ele>
        <time>2022-11-11T12:57:33Z</time>
      </trkpt>
      <trkpt lat="46.97787" lon="-1.46882">
        <ele>74</ele>
        <time>2022-11-11T12:57:35Z</time>
      </trkpt>
      <trkpt lat="46.97778" lon="-1.46872">
        <ele>74</ele>
        <time>2022-11-11T12:57:37Z</time>
      </trkpt>
      <trkpt lat="46.97769" lon="-1.46863">
        <ele>74</ele>
        <time>2022-11-11T12:57:39Z</time>
      </trkpt>
      <trkpt lat="46.9776" lon="-1.46853">
        <ele>73</ele>
        <time>2022-11-11T12:57:41Z</time>
      </trkpt>
      <trkpt lat="46.97746" lon="-1.46838">
        <ele>73</ele>
        <time>2022-11-11T12:57:44Z</time>
      </trkpt>
      <trkpt lat="46.97736" lon="-1.46827">
        <ele>73</ele>
        <time>2022-11-11T12:57:46Z</time>
      </trkpt>
      <trkpt lat="46.97727" lon="-1.46817">
        <ele>73</ele>
        <time>2022-11-11T12:57:48Z</time>
      </trkpt>
      <trkpt lat="46.97721" lon="-1.46804">
        <ele>73</ele>
        <time>2022-11-11T12:57:50Z</time>
      </trkpt>
      <trkpt lat="46.97716" lon="-1.46788">
        <ele>73</ele>
        <time>2022-11-11T12:57:52Z</time>
      </trkpt>
      <trkpt lat="46.97715" lon="-1.46771">
        <ele>73</ele>
        <time>2022-11-11T12:57:54Z</time>
      </trkpt>
      <trkpt lat="46.97718" lon="-1.46754">
        <ele>73</ele>
        <time>2022-11-11T12:57:56Z</time>
      </trkpt>
      <trkpt lat="46.97721" lon="-1.46738">
        <ele>72</ele>
        <time>2022-11-11T12:57:58Z</time>
      </trkpt>
      <trkpt lat="46.97724" lon="-1.46721">
        <ele>72</ele>
        <time>2022-11-11T12:58:00Z</time>
      </trkpt>
      <trkpt lat="46.97728" lon="-1.46704">
        <ele>72</ele>
        <time>2022-11-11T12:58:02Z</time>
      </trkpt>
      <trkpt lat="46.97731" lon="-1.46687">
        <ele>71</ele>
        <time>2022-11-11T12:58:04Z</time>
      </trkpt>
      <trkpt lat="46.97734" lon="-1.46671">
        <ele>71</ele>
        <time>2022-11-11T12:58:06Z</time>
      </trkpt>
      <trkpt lat="46.97738" lon="-1.46654">
        <ele>71</ele>
        <time>2022-11-11T12:58:08Z</time>
      </trkpt>
      <trkpt lat="46.97741" lon="-1.46637">
        <ele>71</ele>
        <time>2022-11-11T12:58:10Z</time>
      </trkpt>
      <trkpt lat="46.97744" lon="-1.46621">
        <ele>71</ele>
        <time>2022-11-11T12:58:12Z</time>
      </trkpt>
      <trkpt lat="46.97747" lon="-1.46604">
        <ele>71</ele>
        <time>2022-11-11T12:58:14Z</time>
      </trkpt>
      <trkpt lat="46.9775" lon="-1.46587">
        <ele>70</ele>
        <time>2022-11-11T12:58:16Z</time>
      </trkpt>
      <trkpt lat="46.97754" lon="-1.4657">
        <ele>71</ele>
        <time>2022-11-11T12:58:18Z</time>
      </trkpt>
      <trkpt lat="46.97757" lon="-1.46554">
        <ele>70</ele>
        <time>2022-11-11T12:58:20Z</time>
      </trkpt>
      <trkpt lat="46.9776" lon="-1.46537">
        <ele>70</ele>
        <time>2022-11-11T12:58:22Z</time>
      </trkpt>
      <trkpt lat="46.97763" lon="-1.4652">
        <ele>69</ele>
        <time>2022-11-11T12:58:24Z</time>
      </trkpt>
      <trkpt lat="46.97766" lon="-1.46502">
        <ele>69</ele>
        <time>2022-11-11T12:58:26Z</time>
      </trkpt>
      <trkpt lat="46.97769" lon="-1.46485">
        <ele>69</ele>
        <time>2022-11-11T12:58:28Z</time>
      </trkpt>
      <trkpt lat="46.97771" lon="-1.46467">
        <ele>69</ele>
        <time>2022-11-11T12:58:30Z</time>
      </trkpt>
      <trkpt lat="46.97771" lon="-1.4645">
        <ele>69</ele>
        <time>2022-11-11T12:58:32Z</time>
      </trkpt>
      <trkpt lat="46.97769" lon="-1.46432">
        <ele>70</ele>
        <time>2022-11-11T12:58:34Z</time>
      </trkpt>
      <trkpt lat="46.97768" lon="-1.46414">
        <ele>69</ele>
        <time>2022-11-11T12:58:36Z</time>
      </trkpt>
      <trkpt lat="46.97766" lon="-1.46396">
        <ele>69</ele>
        <time>2022-11-11T12:58:38Z</time>
      </trkpt>
      <trkpt lat="46.97764" lon="-1.46378">
        <ele>69</ele>
        <time>2022-11-11T12:58:40Z</time>
      </trkpt>
      <trkpt lat="46.97761" lon="-1.46361">
        <ele>69</ele>
        <time>2022-11-11T12:58:42Z</time>
      </trkpt>
      <trkpt lat="46.97758" lon="-1.46344">
        <ele>70</ele>
        <time>2022-11-11T12:58:44Z</time>
      </trkpt>
      <trkpt lat="46.97755" lon="-1.46328">
        <ele>71</ele>
        <time>2022-11-11T12:58:46Z</time>
      </trkpt>
      <trkpt lat="46.97752" lon="-1.46313">
        <ele>71</ele>
        <time>2022-11-11T12:58:48Z</time>
      </trkpt>
      <trkpt lat="46.9775" lon="-1.46296">
        <ele>72</ele>
        <time>2022-11-11T12:58:50Z</time>
      </trkpt>
      <trkpt lat="46.97748" lon="-1.46279">
        <ele>72</ele>
        <time>2022-11-11T12:58:52Z</time>
      </trkpt>
      <trkpt lat="46.97746" lon="-1.46263">
        <ele>73</ele>
        <time>2022-11-11T12:58:54Z</time>
      </trkpt>
      <trkpt lat="46.97744" lon="-1.46248">
        <ele>73</ele>
        <time>2022-11-11T12:58:56Z</time>
      </trkpt>
      <trkpt lat="46.97741" lon="-1.46231">
        <ele>74</ele>
        <time>2022-11-11T12:58:58Z</time>
      </trkpt>
      <trkpt lat="46.97738" lon="-1.46215">
        <ele>74</ele>
        <time>2022-11-11T12:59:00Z</time>
      </trkpt>
      <trkpt lat="46.97737" lon="-1.46197">
        <ele>74</ele>
        <time>2022-11-11T12:59:02Z</time>
      </trkpt>
      <trkpt lat="46.97735" lon="-1.4618">
        <ele>74</ele>
        <time>2022-11-11T12:59:04Z</time>
      </trkpt>
      <trkpt lat="46.97733" lon="-1.46163">
        <ele>74</ele>
        <time>2022-11-11T12:59:06Z</time>
      </trkpt>
      <trkpt lat="46.97731" lon="-1.46147">
        <ele>74</ele>
        <time>2022-11-11T12:59:08Z</time>
      </trkpt>
      <trkpt lat="46.97729" lon="-1.4613">
        <ele>75</ele>
        <time>2022-11-11T12:59:10Z</time>
      </trkpt>
      <trkpt lat="46.97727" lon="-1.46113">
        <ele>75</ele>
        <time>2022-11-11T12:59:12Z</time>
      </trkpt>
      <trkpt lat="46.97725" lon="-1.46097">
        <ele>75</ele>
        <time>2022-11-11T12:59:14Z</time>
      </trkpt>
      <trkpt lat="46.97723" lon="-1.4608">
        <ele>75</ele>
        <time>2022-11-11T12:59:16Z</time>
      </trkpt>
      <trkpt lat="46.97721" lon="-1.46062">
        <ele>75</ele>
        <time>2022-11-11T12:59:18Z</time>
      </trkpt>
      <trkpt lat="46.97719" lon="-1.46045">
        <ele>75</ele>
        <time>2022-11-11T12:59:20Z</time>
      </trkpt>
      <trkpt lat="46.97716" lon="-1.46027">
        <ele>75</ele>
        <time>2022-11-11T12:59:22Z</time>
      </trkpt>
      <trkpt lat="46.97714" lon="-1.4601">
        <ele>75</ele>
        <time>2022-11-11T12:59:24Z</time>
      </trkpt>
      <trkpt lat="46.97712" lon="-1.45994">
        <ele>75</ele>
        <time>2022-11-11T12:59:26Z</time>
      </trkpt>
      <trkpt lat="46.9771" lon="-1.45978">
        <ele>75</ele>
        <time>2022-11-11T12:59:28Z</time>
      </trkpt>
      <trkpt lat="46.97708" lon="-1.45961">
        <ele>75</ele>
        <time>2022-11-11T12:59:30Z</time>
      </trkpt>
      <trkpt lat="46.97705" lon="-1.45944">
        <ele>75</ele>
        <time>2022-11-11T12:59:32Z</time>
      </trkpt>
      <trkpt lat="46.97702" lon="-1.45928">
        <ele>75</ele>
        <time>2022-11-11T12:59:34Z</time>
      </trkpt>
      <trkpt lat="46.977" lon="-1.45911">
        <ele>75</ele>
        <time>2022-11-11T12:59:36Z</time>
      </trkpt>
      <trkpt lat="46.97696" lon="-1.45896">
        <ele>74</ele>
        <time>2022-11-11T12:59:38Z</time>
      </trkpt>
      <trkpt lat="46.97693" lon="-1.4588">
        <ele>75</ele>
        <time>2022-11-11T12:59:40Z</time>
      </trkpt>
      <trkpt lat="46.97689" lon="-1.45864">
        <ele>74</ele>
        <time>2022-11-11T12:59:42Z</time>
      </trkpt>
      <trkpt lat="46.97685" lon="-1.45848">
        <ele>75</ele>
        <time>2022-11-11T12:59:44Z</time>
      </trkpt>
      <trkpt lat="46.97682" lon="-1.45833">
        <ele>75</ele>
        <time>2022-11-11T12:59:46Z</time>
      </trkpt>
      <trkpt lat="46.97679" lon="-1.45818">
        <ele>75</ele>
        <time>2022-11-11T12:59:48Z</time>
      </trkpt>
      <trkpt lat="46.97676" lon="-1.45802">
        <ele>75</ele>
        <time>2022-11-11T12:59:50Z</time>
      </trkpt>
      <trkpt lat="46.97673" lon="-1.45786">
        <ele>75</ele>
        <time>2022-11-11T12:59:52Z</time>
      </trkpt>
      <trkpt lat="46.97669" lon="-1.45769">
        <ele>75</ele>
        <time>2022-11-11T12:59:54Z</time>
      </trkpt>
      <trkpt lat="46.97666" lon="-1.45753">
        <ele>75</ele>
        <time>2022-11-11T12:59:56Z</time>
      </trkpt>
      <trkpt lat="46.97662" lon="-1.45737">
        <ele>76</ele>
        <time>2022-11-11T12:59:58Z</time>
      </trkpt>
      <trkpt lat="46.97658" lon="-1.45721">
        <ele>75</ele>
        <time>2022-11-11T13:00:00Z</time>
      </trkpt>
      <trkpt lat="46.97655" lon="-1.45706">
        <ele>75</ele>
        <time>2022-11-11T13:00:02Z</time>
      </trkpt>
      <trkpt lat="46.97652" lon="-1.4569">
        <ele>75</ele>
        <time>2022-11-11T13:00:04Z</time>
      </trkpt>
      <trkpt lat="46.97648" lon="-1.45675">
        <ele>75</ele>
        <time>2022-11-11T13:00:06Z</time>
      </trkpt>
      <trkpt lat="46.97645" lon="-1.45659">
        <ele>75</ele>
        <time>2022-11-11T13:00:08Z</time>
      </trkpt>
      <trkpt lat="46.97641" lon="-1.45643">
        <ele>76</ele>
        <time>2022-11-11T13:00:10Z</time>
      </trkpt>
      <trkpt lat="46.97638" lon="-1.45627">
        <ele>76</ele>
        <time>2022-11-11T13:00:12Z</time>
      </trkpt>
      <trkpt lat="46.97634" lon="-1.45611">
        <ele>76</ele>
        <time>2022-11-11T13:00:14Z</time>
      </trkpt>
      <trkpt lat="46.97631" lon="-1.45595">
        <ele>76</ele>
        <time>2022-11-11T13:00:16Z</time>
      </trkpt>
      <trkpt lat="46.97627" lon="-1.45579">
        <ele>76</ele>
        <time>2022-11-11T13:00:18Z</time>
      </trkpt>
      <trkpt lat="46.97623" lon="-1.45563">
        <ele>76</ele>
        <time>2022-11-11T13:00:20Z</time>
      </trkpt>
      <trkpt lat="46.9762" lon="-1.45546">
        <ele>76</ele>
        <time>2022-11-11T13:00:22Z</time>
      </trkpt>
      <trkpt lat="46.97617" lon="-1.4553">
        <ele>76</ele>
        <time>2022-11-11T13:00:24Z</time>
      </trkpt>
      <trkpt lat="46.97613" lon="-1.45515">
        <ele>76</ele>
        <time>2022-11-11T13:00:26Z</time>
      </trkpt>
      <trkpt lat="46.97609" lon="-1.45499">
        <ele>76</ele>
        <time>2022-11-11T13:00:28Z</time>
      </trkpt>
      <trkpt lat="46.97606" lon="-1.45483">
        <ele>76</ele>
        <time>2022-11-11T13:00:30Z</time>
      </trkpt>
      <trkpt lat="46.97602" lon="-1.45466">
        <ele>76</ele>
        <time>2022-11-11T13:00:32Z</time>
      </trkpt>
      <trkpt lat="46.97599" lon="-1.45449">
        <ele>76</ele>
        <time>2022-11-11T13:00:34Z</time>
      </trkpt>
      <trkpt lat="46.97595" lon="-1.45432">
        <ele>76</ele>
        <time>2022-11-11T13:00:36Z</time>
      </trkpt>
      <trkpt lat="46.97591" lon="-1.45416">
        <ele>77</ele>
        <time>2022-11-11T13:00:38Z</time>
      </trkpt>
      <trkpt lat="46.97588" lon="-1.45399">
        <ele>77</ele>
        <time>2022-11-11T13:00:40Z</time>
      </trkpt>
      <trkpt lat="46.97584" lon="-1.45381">
        <ele>76</ele>
        <time>2022-11-11T13:00:42Z</time>
      </trkpt>
      <trkpt lat="46.97581" lon="-1.45365">
        <ele>76</ele>
        <time>2022-11-11T13:00:44Z</time>
      </trkpt>
      <trkpt lat="46.97577" lon="-1.45348">
        <ele>76</ele>
        <time>2022-11-11T13:00:46Z</time>
      </trkpt>
      <trkpt lat="46.97573" lon="-1.45331">
        <ele>77</ele>
        <time>2022-11-11T13:00:48Z</time>
      </trkpt>
      <trkpt lat="46.97569" lon="-1.45315">
        <ele>77</ele>
        <time>2022-11-11T13:00:50Z</time>
      </trkpt>
      <trkpt lat="46.97565" lon="-1.45299">
        <ele>77</ele>
        <time>2022-11-11T13:00:52Z</time>
      </trkpt>
      <trkpt lat="46.97561" lon="-1.45283">
        <ele>78</ele>
        <time>2022-11-11T13:00:54Z</time>
      </trkpt>
      <trkpt lat="46.97558" lon="-1.45267">
        <ele>78</ele>
        <time>2022-11-11T13:00:56Z</time>
      </trkpt>
      <trkpt lat="46.97554" lon="-1.4525">
        <ele>78</ele>
        <time>2022-11-11T13:00:58Z</time>
      </trkpt>
      <trkpt lat="46.97551" lon="-1.45234">
        <ele>78</ele>
        <time>2022-11-11T13:01:00Z</time>
      </trkpt>
      <trkpt lat="46.97548" lon="-1.45218">
        <ele>78</ele>
        <time>2022-11-11T13:01:02Z</time>
      </trkpt>
      <trkpt lat="46.97545" lon="-1.45203">
        <ele>79</ele>
        <time>2022-11-11T13:01:04Z</time>
      </trkpt>
      <trkpt lat="46.97541" lon="-1.45188">
        <ele>79</ele>
        <time>2022-11-11T13:01:06Z</time>
      </trkpt>
      <trkpt lat="46.97538" lon="-1.45173">
        <ele>79</ele>
        <time>2022-11-11T13:01:08Z</time>
      </trkpt>
      <trkpt lat="46.97534" lon="-1.45158">
        <ele>79</ele>
        <time>2022-11-11T13:01:10Z</time>
      </trkpt>
      <trkpt lat="46.97532" lon="-1.45144">
        <ele>78</ele>
        <time>2022-11-11T13:01:12Z</time>
      </trkpt>
      <trkpt lat="46.97529" lon="-1.45129">
        <ele>78</ele>
        <time>2022-11-11T13:01:14Z</time>
      </trkpt>
      <trkpt lat="46.97526" lon="-1.45115">
        <ele>77</ele>
        <time>2022-11-11T13:01:16Z</time>
      </trkpt>
      <trkpt lat="46.97523" lon="-1.451">
        <ele>77</ele>
        <time>2022-11-11T13:01:18Z</time>
      </trkpt>
      <trkpt lat="46.97521" lon="-1.45086">
        <ele>77</ele>
        <time>2022-11-11T13:01:20Z</time>
      </trkpt>
      <trkpt lat="46.97518" lon="-1.4507">
        <ele>77</ele>
        <time>2022-11-11T13:01:22Z</time>
      </trkpt>
      <trkpt lat="46.97516" lon="-1.45053">
        <ele>77</ele>
        <time>2022-11-11T13:01:24Z</time>
      </trkpt>
      <trkpt lat="46.97515" lon="-1.45036">
        <ele>77</ele>
        <time>2022-11-11T13:01:26Z</time>
      </trkpt>
      <trkpt lat="46.97516" lon="-1.45019">
        <ele>77</ele>
        <time>2022-11-11T13:01:28Z</time>
      </trkpt>
      <trkpt lat="46.97517" lon="-1.45004">
        <ele>77</ele>
        <time>2022-11-11T13:01:30Z</time>
      </trkpt>
      <trkpt lat="46.97519" lon="-1.44989">
        <ele>77</ele>
        <time>2022-11-11T13:01:32Z</time>
      </trkpt>
      <trkpt lat="46.9752" lon="-1.44974">
        <ele>78</ele>
        <time>2022-11-11T13:01:34Z</time>
      </trkpt>
      <trkpt lat="46.97522" lon="-1.4496">
        <ele>78</ele>
        <time>2022-11-11T13:01:36Z</time>
      </trkpt>
      <trkpt lat="46.97523" lon="-1.44945">
        <ele>78</ele>
        <time>2022-11-11T13:01:38Z</time>
      </trkpt>
      <trkpt lat="46.97524" lon="-1.4493">
        <ele>78</ele>
        <time>2022-11-11T13:01:40Z</time>
      </trkpt>
      <trkpt lat="46.97526" lon="-1.44915">
        <ele>79</ele>
        <time>2022-11-11T13:01:42Z</time>
      </trkpt>
      <trkpt lat="46.97527" lon="-1.44901">
        <ele>79</ele>
        <time>2022-11-11T13:01:44Z</time>
      </trkpt>
      <trkpt lat="46.97529" lon="-1.44886">
        <ele>80</ele>
        <time>2022-11-11T13:01:46Z</time>
      </trkpt>
      <trkpt lat="46.9753" lon="-1.44871">
        <ele>79</ele>
        <time>2022-11-11T13:01:48Z</time>
      </trkpt>
      <trkpt lat="46.97531" lon="-1.44856">
        <ele>80</ele>
        <time>2022-11-11T13:01:50Z</time>
      </trkpt>
      <trkpt lat="46.97532" lon="-1.4484">
        <ele>80</ele>
        <time>2022-11-11T13:01:52Z</time>
      </trkpt>
      <trkpt lat="46.97534" lon="-1.44825">
        <ele>81</ele>
        <time>2022-11-11T13:01:54Z</time>
      </trkpt>
      <trkpt lat="46.97535" lon="-1.44811">
        <ele>81</ele>
        <time>2022-11-11T13:01:56Z</time>
      </trkpt>
      <trkpt lat="46.97536" lon="-1.44796">
        <ele>81</ele>
        <time>2022-11-11T13:01:58Z</time>
      </trkpt>
      <trkpt lat="46.97537" lon="-1.44782">
        <ele>82</ele>
        <time>2022-11-11T13:02:00Z</time>
      </trkpt>
      <trkpt lat="46.97538" lon="-1.44767">
        <ele>82</ele>
        <time>2022-11-11T13:02:02Z</time>
      </trkpt>
      <trkpt lat="46.97539" lon="-1.44752">
        <ele>82</ele>
        <time>2022-11-11T13:02:04Z</time>
      </trkpt>
      <trkpt lat="46.97539" lon="-1.44738">
        <ele>82</ele>
        <time>2022-11-11T13:02:06Z</time>
      </trkpt>
      <trkpt lat="46.97539" lon="-1.44723">
        <ele>82</ele>
        <time>2022-11-11T13:02:08Z</time>
      </trkpt>
      <trkpt lat="46.97539" lon="-1.44708">
        <ele>82</ele>
        <time>2022-11-11T13:02:10Z</time>
      </trkpt>
      <trkpt lat="46.97539" lon="-1.44692">
        <ele>82</ele>
        <time>2022-11-11T13:02:12Z</time>
      </trkpt>
      <trkpt lat="46.97539" lon="-1.44677">
        <ele>82</ele>
        <time>2022-11-11T13:02:14Z</time>
      </trkpt>
      <trkpt lat="46.97538" lon="-1.44662">
        <ele>82</ele>
        <time>2022-11-11T13:02:16Z</time>
      </trkpt>
      <trkpt lat="46.97538" lon="-1.44647">
        <ele>82</ele>
        <time>2022-11-11T13:02:18Z</time>
      </trkpt>
      <trkpt lat="46.97537" lon="-1.44632">
        <ele>83</ele>
        <time>2022-11-11T13:02:20Z</time>
      </trkpt>
      <trkpt lat="46.97537" lon="-1.44617">
        <ele>83</ele>
        <time>2022-11-11T13:02:22Z</time>
      </trkpt>
      <trkpt lat="46.97536" lon="-1.44602">
        <ele>83</ele>
        <time>2022-11-11T13:02:24Z</time>
      </trkpt>
      <trkpt lat="46.97535" lon="-1.44587">
        <ele>83</ele>
        <time>2022-11-11T13:02:26Z</time>
      </trkpt>
      <trkpt lat="46.97534" lon="-1.44572">
        <ele>83</ele>
        <time>2022-11-11T13:02:28Z</time>
      </trkpt>
      <trkpt lat="46.97533" lon="-1.44556">
        <ele>83</ele>
        <time>2022-11-11T13:02:30Z</time>
      </trkpt>
      <trkpt lat="46.97532" lon="-1.44542">
        <ele>83</ele>
        <time>2022-11-11T13:02:32Z</time>
      </trkpt>
      <trkpt lat="46.97531" lon="-1.44527">
        <ele>83</ele>
        <time>2022-11-11T13:02:34Z</time>
      </trkpt>
      <trkpt lat="46.9753" lon="-1.44512">
        <ele>84</ele>
        <time>2022-11-11T13:02:36Z</time>
      </trkpt>
      <trkpt lat="46.97529" lon="-1.44496">
        <ele>84</ele>
        <time>2022-11-11T13:02:38Z</time>
      </trkpt>
      <trkpt lat="46.97528" lon="-1.44481">
        <ele>84</ele>
        <time>2022-11-11T13:02:40Z</time>
      </trkpt>
      <trkpt lat="46.97527" lon="-1.44465">
        <ele>84</ele>
        <time>2022-11-11T13:02:42Z</time>
      </trkpt>
      <trkpt lat="46.97526" lon="-1.44449">
        <ele>84</ele>
        <time>2022-11-11T13:02:44Z</time>
      </trkpt>
      <trkpt lat="46.97525" lon="-1.44434">
        <ele>85</ele>
        <time>2022-11-11T13:02:46Z</time>
      </trkpt>
      <trkpt lat="46.97525" lon="-1.44419">
        <ele>85</ele>
        <time>2022-11-11T13:02:48Z</time>
      </trkpt>
      <trkpt lat="46.97524" lon="-1.44403">
        <ele>84</ele>
        <time>2022-11-11T13:02:50Z</time>
      </trkpt>
      <trkpt lat="46.97522" lon="-1.44388">
        <ele>84</ele>
        <time>2022-11-11T13:02:52Z</time>
      </trkpt>
      <trkpt lat="46.97521" lon="-1.44372">
        <ele>84</ele>
        <time>2022-11-11T13:02:54Z</time>
      </trkpt>
      <trkpt lat="46.9752" lon="-1.44356">
        <ele>84</ele>
        <time>2022-11-11T13:02:56Z</time>
      </trkpt>
      <trkpt lat="46.97518" lon="-1.4434">
        <ele>84</ele>
        <time>2022-11-11T13:02:58Z</time>
      </trkpt>
      <trkpt lat="46.97516" lon="-1.44323">
        <ele>84</ele>
        <time>2022-11-11T13:03:00Z</time>
      </trkpt>
      <trkpt lat="46.97513" lon="-1.44307">
        <ele>84</ele>
        <time>2022-11-11T13:03:02Z</time>
      </trkpt>
      <trkpt lat="46.97509" lon="-1.44291">
        <ele>83</ele>
        <time>2022-11-11T13:03:04Z</time>
      </trkpt>
      <trkpt lat="46.97504" lon="-1.44274">
        <ele>83</ele>
        <time>2022-11-11T13:03:06Z</time>
      </trkpt>
      <trkpt lat="46.97498" lon="-1.44259">
        <ele>83</ele>
        <time>2022-11-11T13:03:08Z</time>
      </trkpt>
      <trkpt lat="46.97491" lon="-1.44244">
        <ele>83</ele>
        <time>2022-11-11T13:03:10Z</time>
      </trkpt>
      <trkpt lat="46.97485" lon="-1.4423">
        <ele>83</ele>
        <time>2022-11-11T13:03:12Z</time>
      </trkpt>
      <trkpt lat="46.97478" lon="-1.44215">
        <ele>83</ele>
        <time>2022-11-11T13:03:14Z</time>
      </trkpt>
      <trkpt lat="46.9747" lon="-1.442">
        <ele>82</ele>
        <time>2022-11-11T13:03:16Z</time>
      </trkpt>
      <trkpt lat="46.97464" lon="-1.44185">
        <ele>83</ele>
        <time>2022-11-11T13:03:18Z</time>
      </trkpt>
      <trkpt lat="46.97457" lon="-1.44169">
        <ele>83</ele>
        <time>2022-11-11T13:03:20Z</time>
      </trkpt>
      <trkpt lat="46.9745" lon="-1.44155">
        <ele>83</ele>
        <time>2022-11-11T13:03:22Z</time>
      </trkpt>
      <trkpt lat="46.97444" lon="-1.4414">
        <ele>82</ele>
        <time>2022-11-11T13:03:24Z</time>
      </trkpt>
      <trkpt lat="46.97438" lon="-1.44124">
        <ele>83</ele>
        <time>2022-11-11T13:03:26Z</time>
      </trkpt>
      <trkpt lat="46.97433" lon="-1.44109">
        <ele>83</ele>
        <time>2022-11-11T13:03:28Z</time>
      </trkpt>
      <trkpt lat="46.97428" lon="-1.44094">
        <ele>83</ele>
        <time>2022-11-11T13:03:30Z</time>
      </trkpt>
      <trkpt lat="46.97424" lon="-1.44078">
        <ele>83</ele>
        <time>2022-11-11T13:03:32Z</time>
      </trkpt>
      <trkpt lat="46.9742" lon="-1.44062">
        <ele>83</ele>
        <time>2022-11-11T13:03:34Z</time>
      </trkpt>
      <trkpt lat="46.97416" lon="-1.44046">
        <ele>83</ele>
        <time>2022-11-11T13:03:36Z</time>
      </trkpt>
      <trkpt lat="46.97413" lon="-1.4403">
        <ele>83</ele>
        <time>2022-11-11T13:03:38Z</time>
      </trkpt>
      <trkpt lat="46.97409" lon="-1.44014">
        <ele>84</ele>
        <time>2022-11-11T13:03:40Z</time>
      </trkpt>
      <trkpt lat="46.97405" lon="-1.43998">
        <ele>84</ele>
        <time>2022-11-11T13:03:42Z</time>
      </trkpt>
      <trkpt lat="46.97401" lon="-1.43983">
        <ele>84</ele>
        <time>2022-11-11T13:03:44Z</time>
      </trkpt>
      <trkpt lat="46.97397" lon="-1.43967">
        <ele>84</ele>
        <time>2022-11-11T13:03:46Z</time>
      </trkpt>
      <trkpt lat="46.97392" lon="-1.43953">
        <ele>84</ele>
        <time>2022-11-11T13:03:48Z</time>
      </trkpt>
      <trkpt lat="46.97387" lon="-1.43938">
        <ele>85</ele>
        <time>2022-11-11T13:03:50Z</time>
      </trkpt>
      <trkpt lat="46.97381" lon="-1.43924">
        <ele>85</ele>
        <time>2022-11-11T13:03:52Z</time>
      </trkpt>
      <trkpt lat="46.97375" lon="-1.43911">
        <ele>84</ele>
        <time>2022-11-11T13:03:54Z</time>
      </trkpt>
      <trkpt lat="46.97367" lon="-1.439">
        <ele>84</ele>
        <time>2022-11-11T13:03:56Z</time>
      </trkpt>
      <trkpt lat="46.97359" lon="-1.43888">
        <ele>84</ele>
        <time>2022-11-11T13:03:58Z</time>
      </trkpt>
      <trkpt lat="46.97351" lon="-1.43877">
        <ele>84</ele>
        <time>2022-11-11T13:04:00Z</time>
      </trkpt>
      <trkpt lat="46.97344" lon="-1.43867">
        <ele>84</ele>
        <time>2022-11-11T13:04:02Z</time>
      </trkpt>
      <trkpt lat="46.97336" lon="-1.43857">
        <ele>85</ele>
        <time>2022-11-11T13:04:04Z</time>
      </trkpt>
      <trkpt lat="46.97329" lon="-1.43848">
        <ele>85</ele>
        <time>2022-11-11T13:04:06Z</time>
      </trkpt>
      <trkpt lat="46.97332" lon="-1.43834">
        <ele>85</ele>
        <time>2022-11-11T13:04:08Z</time>
      </trkpt>
      <trkpt lat="46.9734" lon="-1.43824">
        <ele>85</ele>
        <time>2022-11-11T13:04:10Z</time>
      </trkpt>
      <trkpt lat="46.97347" lon="-1.43811">
        <ele>85</ele>
        <time>2022-11-11T13:04:12Z</time>
      </trkpt>
      <trkpt lat="46.97353" lon="-1.43797">
        <ele>86</ele>
        <time>2022-11-11T13:04:14Z</time>
      </trkpt>
      <trkpt lat="46.97358" lon="-1.43784">
        <ele>86</ele>
        <time>2022-11-11T13:04:16Z</time>
      </trkpt>
      <trkpt lat="46.97363" lon="-1.43771">
        <ele>86</ele>
        <time>2022-11-11T13:04:18Z</time>
      </trkpt>
      <trkpt lat="46.97368" lon="-1.43757">
        <ele>85</ele>
        <time>2022-11-11T13:04:20Z</time>
      </trkpt>
      <trkpt lat="46.97373" lon="-1.43742">
        <ele>85</ele>
        <time>2022-11-11T13:04:22Z</time>
      </trkpt>
      <trkpt lat="46.97378" lon="-1.43728">
        <ele>86</ele>
        <time>2022-11-11T13:04:24Z</time>
      </trkpt>
      <trkpt lat="46.97383" lon="-1.43713">
        <ele>86</ele>
        <time>2022-11-11T13:04:26Z</time>
      </trkpt>
      <trkpt lat="46.97389" lon="-1.43699">
        <ele>86</ele>
        <time>2022-11-11T13:04:28Z</time>
      </trkpt>
      <trkpt lat="46.97393" lon="-1.43685">
        <ele>86</ele>
        <time>2022-11-11T13:04:30Z</time>
      </trkpt>
      <trkpt lat="46.97398" lon="-1.43672">
        <ele>86</ele>
        <time>2022-11-11T13:04:32Z</time>
      </trkpt>
      <trkpt lat="46.97403" lon="-1.43658">
        <ele>87</ele>
        <time>2022-11-11T13:04:34Z</time>
      </trkpt>
      <trkpt lat="46.97408" lon="-1.43645">
        <ele>87</ele>
        <time>2022-11-11T13:04:36Z</time>
      </trkpt>
      <trkpt lat="46.97412" lon="-1.43631">
        <ele>87</ele>
        <time>2022-11-11T13:04:38Z</time>
      </trkpt>
      <trkpt lat="46.97418" lon="-1.43617">
        <ele>87</ele>
        <time>2022-11-11T13:04:40Z</time>
      </trkpt>
      <trkpt lat="46.97422" lon="-1.43604">
        <ele>87</ele>
        <time>2022-11-11T13:04:42Z</time>
      </trkpt>
      <trkpt lat="46.97427" lon="-1.4359">
        <ele>87</ele>
        <time>2022-11-11T13:04:44Z</time>
      </trkpt>
      <trkpt lat="46.97432" lon="-1.43577">
        <ele>87</ele>
        <time>2022-11-11T13:04:46Z</time>
      </trkpt>
      <trkpt lat="46.97436" lon="-1.43564">
        <ele>87</ele>
        <time>2022-11-11T13:04:48Z</time>
      </trkpt>
      <trkpt lat="46.97441" lon="-1.43551">
        <ele>87</ele>
        <time>2022-11-11T13:04:50Z</time>
      </trkpt>
      <trkpt lat="46.97444" lon="-1.43538">
        <ele>87</ele>
        <time>2022-11-11T13:04:52Z</time>
      </trkpt>
      <trkpt lat="46.9745" lon="-1.43522">
        <ele>87</ele>
        <time>2022-11-11T13:04:55Z</time>
      </trkpt>
      <trkpt lat="46.97454" lon="-1.43505">
        <ele>87</ele>
        <time>2022-11-11T13:04:58Z</time>
      </trkpt>
      <trkpt lat="46.9746" lon="-1.43492">
        <ele>87</ele>
        <time>2022-11-11T13:05:00Z</time>
      </trkpt>
      <trkpt lat="46.97466" lon="-1.43478">
        <ele>87</ele>
        <time>2022-11-11T13:05:02Z</time>
      </trkpt>
      <trkpt lat="46.97472" lon="-1.43463">
        <ele>87</ele>
        <time>2022-11-11T13:05:04Z</time>
      </trkpt>
      <trkpt lat="46.97477" lon="-1.43447">
        <ele>87</ele>
        <time>2022-11-11T13:05:06Z</time>
      </trkpt>
      <trkpt lat="46.97482" lon="-1.4343">
        <ele>86</ele>
        <time>2022-11-11T13:05:08Z</time>
      </trkpt>
      <trkpt lat="46.97488" lon="-1.43414">
        <ele>86</ele>
        <time>2022-11-11T13:05:10Z</time>
      </trkpt>
      <trkpt lat="46.97494" lon="-1.43399">
        <ele>85</ele>
        <time>2022-11-11T13:05:12Z</time>
      </trkpt>
      <trkpt lat="46.975" lon="-1.43382">
        <ele>85</ele>
        <time>2022-11-11T13:05:14Z</time>
      </trkpt>
      <trkpt lat="46.97506" lon="-1.43366">
        <ele>84</ele>
        <time>2022-11-11T13:05:16Z</time>
      </trkpt>
      <trkpt lat="46.97512" lon="-1.4335">
        <ele>83</ele>
        <time>2022-11-11T13:05:18Z</time>
      </trkpt>
      <trkpt lat="46.97517" lon="-1.43333">
        <ele>83</ele>
        <time>2022-11-11T13:05:20Z</time>
      </trkpt>
      <trkpt lat="46.97524" lon="-1.43316">
        <ele>82</ele>
        <time>2022-11-11T13:05:22Z</time>
      </trkpt>
      <trkpt lat="46.9753" lon="-1.43299">
        <ele>82</ele>
        <time>2022-11-11T13:05:24Z</time>
      </trkpt>
      <trkpt lat="46.97537" lon="-1.43282">
        <ele>82</ele>
        <time>2022-11-11T13:05:26Z</time>
      </trkpt>
      <trkpt lat="46.97544" lon="-1.43265">
        <ele>82</ele>
        <time>2022-11-11T13:05:28Z</time>
      </trkpt>
      <trkpt lat="46.9755" lon="-1.43248">
        <ele>82</ele>
        <time>2022-11-11T13:05:30Z</time>
      </trkpt>
      <trkpt lat="46.97558" lon="-1.43232">
        <ele>82</ele>
        <time>2022-11-11T13:05:32Z</time>
      </trkpt>
      <trkpt lat="46.97566" lon="-1.43217">
        <ele>81</ele>
        <time>2022-11-11T13:05:34Z</time>
      </trkpt>
      <trkpt lat="46.97575" lon="-1.43202">
        <ele>81</ele>
        <time>2022-11-11T13:05:36Z</time>
      </trkpt>
      <trkpt lat="46.97584" lon="-1.43188">
        <ele>81</ele>
        <time>2022-11-11T13:05:38Z</time>
      </trkpt>
      <trkpt lat="46.97594" lon="-1.43175">
        <ele>81</ele>
        <time>2022-11-11T13:05:40Z</time>
      </trkpt>
      <trkpt lat="46.97604" lon="-1.43163">
        <ele>81</ele>
        <time>2022-11-11T13:05:42Z</time>
      </trkpt>
      <trkpt lat="46.97614" lon="-1.43152">
        <ele>81</ele>
        <time>2022-11-11T13:05:44Z</time>
      </trkpt>
      <trkpt lat="46.97626" lon="-1.43141">
        <ele>81</ele>
        <time>2022-11-11T13:05:46Z</time>
      </trkpt>
      <trkpt lat="46.97637" lon="-1.43132">
        <ele>81</ele>
        <time>2022-11-11T13:05:48Z</time>
      </trkpt>
      <trkpt lat="46.97649" lon="-1.43124">
        <ele>80</ele>
        <time>2022-11-11T13:05:50Z</time>
      </trkpt>
      <trkpt lat="46.97661" lon="-1.43116">
        <ele>80</ele>
        <time>2022-11-11T13:05:52Z</time>
      </trkpt>
      <trkpt lat="46.97673" lon="-1.43109">
        <ele>80</ele>
        <time>2022-11-11T13:05:54Z</time>
      </trkpt>
      <trkpt lat="46.97685" lon="-1.43103">
        <ele>80</ele>
        <time>2022-11-11T13:05:56Z</time>
      </trkpt>
      <trkpt lat="46.97697" lon="-1.43097">
        <ele>80</ele>
        <time>2022-11-11T13:05:58Z</time>
      </trkpt>
      <trkpt lat="46.97709" lon="-1.43091">
        <ele>80</ele>
        <time>2022-11-11T13:06:00Z</time>
      </trkpt>
      <trkpt lat="46.97721" lon="-1.43085">
        <ele>80</ele>
        <time>2022-11-11T13:06:02Z</time>
      </trkpt>
      <trkpt lat="46.97733" lon="-1.4308">
        <ele>80</ele>
        <time>2022-11-11T13:06:04Z</time>
      </trkpt>
      <trkpt lat="46.97744" lon="-1.43074">
        <ele>80</ele>
        <time>2022-11-11T13:06:06Z</time>
      </trkpt>
      <trkpt lat="46.97756" lon="-1.43068">
        <ele>80</ele>
        <time>2022-11-11T13:06:08Z</time>
      </trkpt>
      <trkpt lat="46.97767" lon="-1.43063">
        <ele>80</ele>
        <time>2022-11-11T13:06:10Z</time>
      </trkpt>
      <trkpt lat="46.97779" lon="-1.43059">
        <ele>81</ele>
        <time>2022-11-11T13:06:12Z</time>
      </trkpt>
      <trkpt lat="46.97791" lon="-1.43056">
        <ele>81</ele>
        <time>2022-11-11T13:06:14Z</time>
      </trkpt>
      <trkpt lat="46.97804" lon="-1.43054">
        <ele>81</ele>
        <time>2022-11-11T13:06:16Z</time>
      </trkpt>
      <trkpt lat="46.97816" lon="-1.43056">
        <ele>81</ele>
        <time>2022-11-11T13:06:18Z</time>
      </trkpt>
      <trkpt lat="46.97829" lon="-1.43057">
        <ele>81</ele>
        <time>2022-11-11T13:06:20Z</time>
      </trkpt>
      <trkpt lat="46.97842" lon="-1.43058">
        <ele>80</ele>
        <time>2022-11-11T13:06:22Z</time>
      </trkpt>
      <trkpt lat="46.97855" lon="-1.4306">
        <ele>80</ele>
        <time>2022-11-11T13:06:24Z</time>
      </trkpt>
      <trkpt lat="46.97868" lon="-1.43061">
        <ele>81</ele>
        <time>2022-11-11T13:06:26Z</time>
      </trkpt>
      <trkpt lat="46.97881" lon="-1.43063">
        <ele>81</ele>
        <time>2022-11-11T13:06:28Z</time>
      </trkpt>
      <trkpt lat="46.97894" lon="-1.43064">
        <ele>81</ele>
        <time>2022-11-11T13:06:30Z</time>
      </trkpt>
      <trkpt lat="46.97907" lon="-1.43065">
        <ele>80</ele>
        <time>2022-11-11T13:06:32Z</time>
      </trkpt>
      <trkpt lat="46.97921" lon="-1.43067">
        <ele>80</ele>
        <time>2022-11-11T13:06:34Z</time>
      </trkpt>
      <trkpt lat="46.97934" lon="-1.43068">
        <ele>80</ele>
        <time>2022-11-11T13:06:36Z</time>
      </trkpt>
      <trkpt lat="46.97947" lon="-1.43069">
        <ele>80</ele>
        <time>2022-11-11T13:06:38Z</time>
      </trkpt>
      <trkpt lat="46.9796" lon="-1.43071">
        <ele>80</ele>
        <time>2022-11-11T13:06:40Z</time>
      </trkpt>
      <trkpt lat="46.97974" lon="-1.43073">
        <ele>80</ele>
        <time>2022-11-11T13:06:42Z</time>
      </trkpt>
      <trkpt lat="46.97987" lon="-1.43074">
        <ele>80</ele>
        <time>2022-11-11T13:06:44Z</time>
      </trkpt>
      <trkpt lat="46.98" lon="-1.43075">
        <ele>80</ele>
        <time>2022-11-11T13:06:46Z</time>
      </trkpt>
      <trkpt lat="46.98014" lon="-1.43076">
        <ele>79</ele>
        <time>2022-11-11T13:06:48Z</time>
      </trkpt>
      <trkpt lat="46.98027" lon="-1.43078">
        <ele>79</ele>
        <time>2022-11-11T13:06:50Z</time>
      </trkpt>
      <trkpt lat="46.98041" lon="-1.43079">
        <ele>79</ele>
        <time>2022-11-11T13:06:52Z</time>
      </trkpt>
      <trkpt lat="46.98054" lon="-1.4308">
        <ele>79</ele>
        <time>2022-11-11T13:06:54Z</time>
      </trkpt>
      <trkpt lat="46.98068" lon="-1.43081">
        <ele>78</ele>
        <time>2022-11-11T13:06:56Z</time>
      </trkpt>
      <trkpt lat="46.98082" lon="-1.43081">
        <ele>78</ele>
        <time>2022-11-11T13:06:58Z</time>
      </trkpt>
      <trkpt lat="46.98096" lon="-1.4308">
        <ele>78</ele>
        <time>2022-11-11T13:07:00Z</time>
      </trkpt>
      <trkpt lat="46.9811" lon="-1.4308">
        <ele>78</ele>
        <time>2022-11-11T13:07:02Z</time>
      </trkpt>
      <trkpt lat="46.98124" lon="-1.43079">
        <ele>77</ele>
        <time>2022-11-11T13:07:04Z</time>
      </trkpt>
      <trkpt lat="46.98137" lon="-1.43078">
        <ele>77</ele>
        <time>2022-11-11T13:07:06Z</time>
      </trkpt>
      <trkpt lat="46.98151" lon="-1.43077">
        <ele>76</ele>
        <time>2022-11-11T13:07:08Z</time>
      </trkpt>
      <trkpt lat="46.98164" lon="-1.43077">
        <ele>76</ele>
        <time>2022-11-11T13:07:10Z</time>
      </trkpt>
      <trkpt lat="46.98178" lon="-1.43076">
        <ele>76</ele>
        <time>2022-11-11T13:07:12Z</time>
      </trkpt>
      <trkpt lat="46.98191" lon="-1.43074">
        <ele>76</ele>
        <time>2022-11-11T13:07:14Z</time>
      </trkpt>
      <trkpt lat="46.98204" lon="-1.43073">
        <ele>76</ele>
        <time>2022-11-11T13:07:16Z</time>
      </trkpt>
      <trkpt lat="46.98217" lon="-1.43069">
        <ele>76</ele>
        <time>2022-11-11T13:07:18Z</time>
      </trkpt>
      <trkpt lat="46.9823" lon="-1.43065">
        <ele>76</ele>
        <time>2022-11-11T13:07:20Z</time>
      </trkpt>
      <trkpt lat="46.98241" lon="-1.43059">
        <ele>77</ele>
        <time>2022-11-11T13:07:22Z</time>
      </trkpt>
      <trkpt lat="46.98253" lon="-1.43055">
        <ele>77</ele>
        <time>2022-11-11T13:07:24Z</time>
      </trkpt>
      <trkpt lat="46.98264" lon="-1.4305">
        <ele>78</ele>
        <time>2022-11-11T13:07:26Z</time>
      </trkpt>
      <trkpt lat="46.98275" lon="-1.43046">
        <ele>78</ele>
        <time>2022-11-11T13:07:28Z</time>
      </trkpt>
      <trkpt lat="46.98286" lon="-1.43042">
        <ele>78</ele>
        <time>2022-11-11T13:07:30Z</time>
      </trkpt>
      <trkpt lat="46.98298" lon="-1.43039">
        <ele>79</ele>
        <time>2022-11-11T13:07:32Z</time>
      </trkpt>
      <trkpt lat="46.98309" lon="-1.43036">
        <ele>79</ele>
        <time>2022-11-11T13:07:34Z</time>
      </trkpt>
      <trkpt lat="46.98321" lon="-1.43034">
        <ele>79</ele>
        <time>2022-11-11T13:07:36Z</time>
      </trkpt>
      <trkpt lat="46.98333" lon="-1.43032">
        <ele>78</ele>
        <time>2022-11-11T13:07:38Z</time>
      </trkpt>
      <trkpt lat="46.98345" lon="-1.43031">
        <ele>78</ele>
        <time>2022-11-11T13:07:40Z</time>
      </trkpt>
      <trkpt lat="46.98358" lon="-1.4303">
        <ele>79</ele>
        <time>2022-11-11T13:07:42Z</time>
      </trkpt>
      <trkpt lat="46.98369" lon="-1.43028">
        <ele>79</ele>
        <time>2022-11-11T13:07:44Z</time>
      </trkpt>
      <trkpt lat="46.98382" lon="-1.43026">
        <ele>79</ele>
        <time>2022-11-11T13:07:46Z</time>
      </trkpt>
      <trkpt lat="46.98394" lon="-1.43025">
        <ele>79</ele>
        <time>2022-11-11T13:07:48Z</time>
      </trkpt>
      <trkpt lat="46.98406" lon="-1.43023">
        <ele>79</ele>
        <time>2022-11-11T13:07:50Z</time>
      </trkpt>
      <trkpt lat="46.98418" lon="-1.43022">
        <ele>79</ele>
        <time>2022-11-11T13:07:52Z</time>
      </trkpt>
      <trkpt lat="46.98431" lon="-1.43019">
        <ele>79</ele>
        <time>2022-11-11T13:07:54Z</time>
      </trkpt>
      <trkpt lat="46.98443" lon="-1.43018">
        <ele>78</ele>
        <time>2022-11-11T13:07:56Z</time>
      </trkpt>
      <trkpt lat="46.98456" lon="-1.43015">
        <ele>78</ele>
        <time>2022-11-11T13:07:58Z</time>
      </trkpt>
      <trkpt lat="46.98468" lon="-1.43013">
        <ele>78</ele>
        <time>2022-11-11T13:08:00Z</time>
      </trkpt>
      <trkpt lat="46.9848" lon="-1.4301">
        <ele>78</ele>
        <time>2022-11-11T13:08:02Z</time>
      </trkpt>
      <trkpt lat="46.98492" lon="-1.43007">
        <ele>78</ele>
        <time>2022-11-11T13:08:04Z</time>
      </trkpt>
      <trkpt lat="46.98504" lon="-1.43004">
        <ele>78</ele>
        <time>2022-11-11T13:08:06Z</time>
      </trkpt>
      <trkpt lat="46.98516" lon="-1.43002">
        <ele>79</ele>
        <time>2022-11-11T13:08:08Z</time>
      </trkpt>
      <trkpt lat="46.98528" lon="-1.42998">
        <ele>79</ele>
        <time>2022-11-11T13:08:10Z</time>
      </trkpt>
      <trkpt lat="46.9854" lon="-1.42995">
        <ele>79</ele>
        <time>2022-11-11T13:08:12Z</time>
      </trkpt>
      <trkpt lat="46.98552" lon="-1.42991">
        <ele>79</ele>
        <time>2022-11-11T13:08:14Z</time>
      </trkpt>
      <trkpt lat="46.98564" lon="-1.42988">
        <ele>79</ele>
        <time>2022-11-11T13:08:16Z</time>
      </trkpt>
      <trkpt lat="46.98576" lon="-1.42985">
        <ele>79</ele>
        <time>2022-11-11T13:08:18Z</time>
      </trkpt>
      <trkpt lat="46.98587" lon="-1.42982">
        <ele>79</ele>
        <time>2022-11-11T13:08:20Z</time>
      </trkpt>
      <trkpt lat="46.98599" lon="-1.42978">
        <ele>79</ele>
        <time>2022-11-11T13:08:22Z</time>
      </trkpt>
      <trkpt lat="46.9861" lon="-1.42975">
        <ele>79</ele>
        <time>2022-11-11T13:08:24Z</time>
      </trkpt>
      <trkpt lat="46.98622" lon="-1.42972">
        <ele>79</ele>
        <time>2022-11-11T13:08:26Z</time>
      </trkpt>
      <trkpt lat="46.98634" lon="-1.4297">
        <ele>79</ele>
        <time>2022-11-11T13:08:28Z</time>
      </trkpt>
      <trkpt lat="46.98646" lon="-1.42967">
        <ele>79</ele>
        <time>2022-11-11T13:08:30Z</time>
      </trkpt>
      <trkpt lat="46.98659" lon="-1.42965">
        <ele>79</ele>
        <time>2022-11-11T13:08:32Z</time>
      </trkpt>
      <trkpt lat="46.98671" lon="-1.42964">
        <ele>79</ele>
        <time>2022-11-11T13:08:34Z</time>
      </trkpt>
      <trkpt lat="46.98683" lon="-1.42963">
        <ele>79</ele>
        <time>2022-11-11T13:08:36Z</time>
      </trkpt>
      <trkpt lat="46.98695" lon="-1.42963">
        <ele>79</ele>
        <time>2022-11-11T13:08:38Z</time>
      </trkpt>
      <trkpt lat="46.98707" lon="-1.42964">
        <ele>79</ele>
        <time>2022-11-11T13:08:40Z</time>
      </trkpt>
      <trkpt lat="46.98719" lon="-1.42965">
        <ele>79</ele>
        <time>2022-11-11T13:08:42Z</time>
      </trkpt>
      <trkpt lat="46.98731" lon="-1.42965">
        <ele>79</ele>
        <time>2022-11-11T13:08:44Z</time>
      </trkpt>
      <trkpt lat="46.98743" lon="-1.42966">
        <ele>79</ele>
        <time>2022-11-11T13:08:46Z</time>
      </trkpt>
      <trkpt lat="46.98755" lon="-1.42966">
        <ele>79</ele>
        <time>2022-11-11T13:08:48Z</time>
      </trkpt>
      <trkpt lat="46.98767" lon="-1.42966">
        <ele>79</ele>
        <time>2022-11-11T13:08:50Z</time>
      </trkpt>
      <trkpt lat="46.9878" lon="-1.42965">
        <ele>79</ele>
        <time>2022-11-11T13:08:52Z</time>
      </trkpt>
      <trkpt lat="46.98792" lon="-1.42964">
        <ele>79</ele>
        <time>2022-11-11T13:08:54Z</time>
      </trkpt>
      <trkpt lat="46.98805" lon="-1.42961">
        <ele>79</ele>
        <time>2022-11-11T13:08:56Z</time>
      </trkpt>
      <trkpt lat="46.98816" lon="-1.42956">
        <ele>79</ele>
        <time>2022-11-11T13:08:58Z</time>
      </trkpt>
      <trkpt lat="46.98828" lon="-1.42951">
        <ele>79</ele>
        <time>2022-11-11T13:09:00Z</time>
      </trkpt>
      <trkpt lat="46.9884" lon="-1.42947">
        <ele>79</ele>
        <time>2022-11-11T13:09:02Z</time>
      </trkpt>
      <trkpt lat="46.98851" lon="-1.42942">
        <ele>79</ele>
        <time>2022-11-11T13:09:04Z</time>
      </trkpt>
      <trkpt lat="46.98863" lon="-1.42937">
        <ele>78</ele>
        <time>2022-11-11T13:09:06Z</time>
      </trkpt>
      <trkpt lat="46.98875" lon="-1.42932">
        <ele>78</ele>
        <time>2022-11-11T13:09:08Z</time>
      </trkpt>
      <trkpt lat="46.98887" lon="-1.42928">
        <ele>78</ele>
        <time>2022-11-11T13:09:10Z</time>
      </trkpt>
      <trkpt lat="46.98899" lon="-1.42923">
        <ele>78</ele>
        <time>2022-11-11T13:09:12Z</time>
      </trkpt>
      <trkpt lat="46.98911" lon="-1.42918">
        <ele>78</ele>
        <time>2022-11-11T13:09:14Z</time>
      </trkpt>
      <trkpt lat="46.98923" lon="-1.42912">
        <ele>78</ele>
        <time>2022-11-11T13:09:16Z</time>
      </trkpt>
      <trkpt lat="46.98935" lon="-1.42905">
        <ele>77</ele>
        <time>2022-11-11T13:09:18Z</time>
      </trkpt>
      <trkpt lat="46.98947" lon="-1.42897">
        <ele>77</ele>
        <time>2022-11-11T13:09:20Z</time>
      </trkpt>
      <trkpt lat="46.98958" lon="-1.42889">
        <ele>77</ele>
        <time>2022-11-11T13:09:22Z</time>
      </trkpt>
      <trkpt lat="46.98969" lon="-1.4288">
        <ele>77</ele>
        <time>2022-11-11T13:09:24Z</time>
      </trkpt>
      <trkpt lat="46.9898" lon="-1.42871">
        <ele>77</ele>
        <time>2022-11-11T13:09:26Z</time>
      </trkpt>
      <trkpt lat="46.98991" lon="-1.42862">
        <ele>77</ele>
        <time>2022-11-11T13:09:28Z</time>
      </trkpt>
      <trkpt lat="46.99002" lon="-1.42853">
        <ele>77</ele>
        <time>2022-11-11T13:09:30Z</time>
      </trkpt>
      <trkpt lat="46.99014" lon="-1.42845">
        <ele>76</ele>
        <time>2022-11-11T13:09:32Z</time>
      </trkpt>
      <trkpt lat="46.99026" lon="-1.42838">
        <ele>77</ele>
        <time>2022-11-11T13:09:34Z</time>
      </trkpt>
      <trkpt lat="46.99039" lon="-1.42833">
        <ele>76</ele>
        <time>2022-11-11T13:09:36Z</time>
      </trkpt>
      <trkpt lat="46.99052" lon="-1.42832">
        <ele>76</ele>
        <time>2022-11-11T13:09:38Z</time>
      </trkpt>
      <trkpt lat="46.99066" lon="-1.42832">
        <ele>76</ele>
        <time>2022-11-11T13:09:40Z</time>
      </trkpt>
      <trkpt lat="46.9908" lon="-1.42832">
        <ele>75</ele>
        <time>2022-11-11T13:09:42Z</time>
      </trkpt>
      <trkpt lat="46.99093" lon="-1.42832">
        <ele>75</ele>
        <time>2022-11-11T13:09:44Z</time>
      </trkpt>
      <trkpt lat="46.99107" lon="-1.42833">
        <ele>75</ele>
        <time>2022-11-11T13:09:46Z</time>
      </trkpt>
      <trkpt lat="46.9912" lon="-1.42833">
        <ele>75</ele>
        <time>2022-11-11T13:09:48Z</time>
      </trkpt>
      <trkpt lat="46.99133" lon="-1.42834">
        <ele>75</ele>
        <time>2022-11-11T13:09:50Z</time>
      </trkpt>
      <trkpt lat="46.99147" lon="-1.42834">
        <ele>75</ele>
        <time>2022-11-11T13:09:52Z</time>
      </trkpt>
      <trkpt lat="46.9916" lon="-1.42834">
        <ele>74</ele>
        <time>2022-11-11T13:09:54Z</time>
      </trkpt>
      <trkpt lat="46.99173" lon="-1.42835">
        <ele>74</ele>
        <time>2022-11-11T13:09:56Z</time>
      </trkpt>
      <trkpt lat="46.99186" lon="-1.42836">
        <ele>74</ele>
        <time>2022-11-11T13:09:58Z</time>
      </trkpt>
      <trkpt lat="46.99199" lon="-1.42836">
        <ele>74</ele>
        <time>2022-11-11T13:10:00Z</time>
      </trkpt>
      <trkpt lat="46.99212" lon="-1.42837">
        <ele>74</ele>
        <time>2022-11-11T13:10:02Z</time>
      </trkpt>
      <trkpt lat="46.99225" lon="-1.42837">
        <ele>74</ele>
        <time>2022-11-11T13:10:04Z</time>
      </trkpt>
      <trkpt lat="46.99238" lon="-1.42837">
        <ele>74</ele>
        <time>2022-11-11T13:10:06Z</time>
      </trkpt>
      <trkpt lat="46.99252" lon="-1.42837">
        <ele>74</ele>
        <time>2022-11-11T13:10:08Z</time>
      </trkpt>
      <trkpt lat="46.99265" lon="-1.42838">
        <ele>74</ele>
        <time>2022-11-11T13:10:10Z</time>
      </trkpt>
      <trkpt lat="46.99278" lon="-1.42838">
        <ele>74</ele>
        <time>2022-11-11T13:10:12Z</time>
      </trkpt>
      <trkpt lat="46.9929" lon="-1.42838">
        <ele>74</ele>
        <time>2022-11-11T13:10:14Z</time>
      </trkpt>
      <trkpt lat="46.99303" lon="-1.42838">
        <ele>74</ele>
        <time>2022-11-11T13:10:16Z</time>
      </trkpt>
      <trkpt lat="46.99316" lon="-1.42839">
        <ele>74</ele>
        <time>2022-11-11T13:10:18Z</time>
      </trkpt>
      <trkpt lat="46.99329" lon="-1.4284">
        <ele>74</ele>
        <time>2022-11-11T13:10:20Z</time>
      </trkpt>
      <trkpt lat="46.99341" lon="-1.4284">
        <ele>74</ele>
        <time>2022-11-11T13:10:22Z</time>
      </trkpt>
      <trkpt lat="46.99353" lon="-1.4284">
        <ele>74</ele>
        <time>2022-11-11T13:10:24Z</time>
      </trkpt>
      <trkpt lat="46.99365" lon="-1.4284">
        <ele>75</ele>
        <time>2022-11-11T13:10:26Z</time>
      </trkpt>
      <trkpt lat="46.99377" lon="-1.42841">
        <ele>75</ele>
        <time>2022-11-11T13:10:28Z</time>
      </trkpt>
      <trkpt lat="46.99389" lon="-1.42841">
        <ele>75</ele>
        <time>2022-11-11T13:10:30Z</time>
      </trkpt>
      <trkpt lat="46.99401" lon="-1.42842">
        <ele>75</ele>
        <time>2022-11-11T13:10:32Z</time>
      </trkpt>
      <trkpt lat="46.99413" lon="-1.42843">
        <ele>75</ele>
        <time>2022-11-11T13:10:34Z</time>
      </trkpt>
      <trkpt lat="46.99425" lon="-1.42843">
        <ele>75</ele>
        <time>2022-11-11T13:10:36Z</time>
      </trkpt>
      <trkpt lat="46.99437" lon="-1.42843">
        <ele>75</ele>
        <time>2022-11-11T13:10:38Z</time>
      </trkpt>
      <trkpt lat="46.99449" lon="-1.42843">
        <ele>75</ele>
        <time>2022-11-11T13:10:40Z</time>
      </trkpt>
      <trkpt lat="46.99462" lon="-1.42844">
        <ele>75</ele>
        <time>2022-11-11T13:10:42Z</time>
      </trkpt>
      <trkpt lat="46.99474" lon="-1.42844">
        <ele>75</ele>
        <time>2022-11-11T13:10:44Z</time>
      </trkpt>
      <trkpt lat="46.99487" lon="-1.42844">
        <ele>75</ele>
        <time>2022-11-11T13:10:46Z</time>
      </trkpt>
      <trkpt lat="46.99499" lon="-1.42845">
        <ele>75</ele>
        <time>2022-11-11T13:10:48Z</time>
      </trkpt>
      <trkpt lat="46.99511" lon="-1.42845">
        <ele>75</ele>
        <time>2022-11-11T13:10:50Z</time>
      </trkpt>
      <trkpt lat="46.99524" lon="-1.42846">
        <ele>75</ele>
        <time>2022-11-11T13:10:52Z</time>
      </trkpt>
      <trkpt lat="46.99536" lon="-1.42848">
        <ele>75</ele>
        <time>2022-11-11T13:10:54Z</time>
      </trkpt>
      <trkpt lat="46.99548" lon="-1.42851">
        <ele>75</ele>
        <time>2022-11-11T13:10:56Z</time>
      </trkpt>
      <trkpt lat="46.99561" lon="-1.42854">
        <ele>75</ele>
        <time>2022-11-11T13:10:58Z</time>
      </trkpt>
      <trkpt lat="46.99573" lon="-1.42857">
        <ele>75</ele>
        <time>2022-11-11T13:11:00Z</time>
      </trkpt>
      <trkpt lat="46.99585" lon="-1.4286">
        <ele>75</ele>
        <time>2022-11-11T13:11:02Z</time>
      </trkpt>
      <trkpt lat="46.99597" lon="-1.42864">
        <ele>75</ele>
        <time>2022-11-11T13:11:04Z</time>
      </trkpt>
      <trkpt lat="46.99609" lon="-1.42868">
        <ele>75</ele>
        <time>2022-11-11T13:11:06Z</time>
      </trkpt>
      <trkpt lat="46.99621" lon="-1.42871">
        <ele>75</ele>
        <time>2022-11-11T13:11:08Z</time>
      </trkpt>
      <trkpt lat="46.99632" lon="-1.42875">
        <ele>75</ele>
        <time>2022-11-11T13:11:10Z</time>
      </trkpt>
      <trkpt lat="46.99644" lon="-1.4288">
        <ele>75</ele>
        <time>2022-11-11T13:11:12Z</time>
      </trkpt>
      <trkpt lat="46.99656" lon="-1.42885">
        <ele>74</ele>
        <time>2022-11-11T13:11:14Z</time>
      </trkpt>
      <trkpt lat="46.99668" lon="-1.42889">
        <ele>74</ele>
        <time>2022-11-11T13:11:16Z</time>
      </trkpt>
      <trkpt lat="46.9968" lon="-1.42895">
        <ele>74</ele>
        <time>2022-11-11T13:11:18Z</time>
      </trkpt>
      <trkpt lat="46.99692" lon="-1.429">
        <ele>74</ele>
        <time>2022-11-11T13:11:20Z</time>
      </trkpt>
      <trkpt lat="46.99705" lon="-1.42905">
        <ele>74</ele>
        <time>2022-11-11T13:11:22Z</time>
      </trkpt>
      <trkpt lat="46.99716" lon="-1.42911">
        <ele>74</ele>
        <time>2022-11-11T13:11:24Z</time>
      </trkpt>
      <trkpt lat="46.99729" lon="-1.42916">
        <ele>73</ele>
        <time>2022-11-11T13:11:26Z</time>
      </trkpt>
      <trkpt lat="46.99741" lon="-1.42922">
        <ele>73</ele>
        <time>2022-11-11T13:11:28Z</time>
      </trkpt>
      <trkpt lat="46.99753" lon="-1.42928">
        <ele>73</ele>
        <time>2022-11-11T13:11:30Z</time>
      </trkpt>
      <trkpt lat="46.99766" lon="-1.42934">
        <ele>73</ele>
        <time>2022-11-11T13:11:32Z</time>
      </trkpt>
      <trkpt lat="46.99778" lon="-1.42939">
        <ele>73</ele>
        <time>2022-11-11T13:11:34Z</time>
      </trkpt>
      <trkpt lat="46.99791" lon="-1.42944">
        <ele>73</ele>
        <time>2022-11-11T13:11:36Z</time>
      </trkpt>
      <trkpt lat="46.99804" lon="-1.42949">
        <ele>73</ele>
        <time>2022-11-11T13:11:38Z</time>
      </trkpt>
      <trkpt lat="46.99816" lon="-1.42953">
        <ele>73</ele>
        <time>2022-11-11T13:11:40Z</time>
      </trkpt>
      <trkpt lat="46.99829" lon="-1.42956">
        <ele>73</ele>
        <time>2022-11-11T13:11:42Z</time>
      </trkpt>
      <trkpt lat="46.99841" lon="-1.42958">
        <ele>73</ele>
        <time>2022-11-11T13:11:44Z</time>
      </trkpt>
      <trkpt lat="46.99853" lon="-1.42961">
        <ele>73</ele>
        <time>2022-11-11T13:11:46Z</time>
      </trkpt>
      <trkpt lat="46.99866" lon="-1.42963">
        <ele>73</ele>
        <time>2022-11-11T13:11:48Z</time>
      </trkpt>
      <trkpt lat="46.99878" lon="-1.42965">
        <ele>73</ele>
        <time>2022-11-11T13:11:50Z</time>
      </trkpt>
      <trkpt lat="46.9989" lon="-1.42968">
        <ele>73</ele>
        <time>2022-11-11T13:11:52Z</time>
      </trkpt>
      <trkpt lat="46.99902" lon="-1.4297">
        <ele>73</ele>
        <time>2022-11-11T13:11:54Z</time>
      </trkpt>
      <trkpt lat="46.99915" lon="-1.42973">
        <ele>73</ele>
        <time>2022-11-11T13:11:56Z</time>
      </trkpt>
      <trkpt lat="46.99927" lon="-1.42975">
        <ele>73</ele>
        <time>2022-11-11T13:11:58Z</time>
      </trkpt>
      <trkpt lat="46.99939" lon="-1.42978">
        <ele>73</ele>
        <time>2022-11-11T13:12:00Z</time>
      </trkpt>
      <trkpt lat="46.99951" lon="-1.4298">
        <ele>73</ele>
        <time>2022-11-11T13:12:02Z</time>
      </trkpt>
      <trkpt lat="46.99963" lon="-1.42983">
        <ele>73</ele>
        <time>2022-11-11T13:12:04Z</time>
      </trkpt>
      <trkpt lat="46.99975" lon="-1.42987">
        <ele>73</ele>
        <time>2022-11-11T13:12:06Z</time>
      </trkpt>
      <trkpt lat="46.99987" lon="-1.4299">
        <ele>73</ele>
        <time>2022-11-11T13:12:08Z</time>
      </trkpt>
      <trkpt lat="46.99999" lon="-1.42994">
        <ele>73</ele>
        <time>2022-11-11T13:12:10Z</time>
      </trkpt>
      <trkpt lat="47.00011" lon="-1.42997">
        <ele>73</ele>
        <time>2022-11-11T13:12:12Z</time>
      </trkpt>
      <trkpt lat="47.00023" lon="-1.43001">
        <ele>73</ele>
        <time>2022-11-11T13:12:14Z</time>
      </trkpt>
      <trkpt lat="47.00035" lon="-1.43005">
        <ele>73</ele>
        <time>2022-11-11T13:12:16Z</time>
      </trkpt>
      <trkpt lat="47.00047" lon="-1.43009">
        <ele>73</ele>
        <time>2022-11-11T13:12:18Z</time>
      </trkpt>
      <trkpt lat="47.00059" lon="-1.43013">
        <ele>73</ele>
        <time>2022-11-11T13:12:20Z</time>
      </trkpt>
      <trkpt lat="47.00072" lon="-1.43017">
        <ele>73</ele>
        <time>2022-11-11T13:12:22Z</time>
      </trkpt>
      <trkpt lat="47.00083" lon="-1.43021">
        <ele>72</ele>
        <time>2022-11-11T13:12:24Z</time>
      </trkpt>
      <trkpt lat="47.00095" lon="-1.43025">
        <ele>72</ele>
        <time>2022-11-11T13:12:26Z</time>
      </trkpt>
      <trkpt lat="47.00107" lon="-1.43029">
        <ele>72</ele>
        <time>2022-11-11T13:12:28Z</time>
      </trkpt>
      <trkpt lat="47.00119" lon="-1.43032">
        <ele>72</ele>
        <time>2022-11-11T13:12:30Z</time>
      </trkpt>
      <trkpt lat="47.00131" lon="-1.43036">
        <ele>72</ele>
        <time>2022-11-11T13:12:32Z</time>
      </trkpt>
      <trkpt lat="47.00143" lon="-1.43038">
        <ele>72</ele>
        <time>2022-11-11T13:12:34Z</time>
      </trkpt>
      <trkpt lat="47.00156" lon="-1.4304">
        <ele>72</ele>
        <time>2022-11-11T13:12:36Z</time>
      </trkpt>
      <trkpt lat="47.00173" lon="-1.43043">
        <ele>72</ele>
        <time>2022-11-11T13:12:39Z</time>
      </trkpt>
      <trkpt lat="47.00185" lon="-1.43045">
        <ele>72</ele>
        <time>2022-11-11T13:12:41Z</time>
      </trkpt>
      <trkpt lat="47.00197" lon="-1.43046">
        <ele>72</ele>
        <time>2022-11-11T13:12:43Z</time>
      </trkpt>
      <trkpt lat="47.00208" lon="-1.43048">
        <ele>72</ele>
        <time>2022-11-11T13:12:45Z</time>
      </trkpt>
      <trkpt lat="47.0022" lon="-1.4305">
        <ele>72</ele>
        <time>2022-11-11T13:12:47Z</time>
      </trkpt>
      <trkpt lat="47.00232" lon="-1.43052">
        <ele>72</ele>
        <time>2022-11-11T13:12:49Z</time>
      </trkpt>
      <trkpt lat="47.00244" lon="-1.43051">
        <ele>72</ele>
        <time>2022-11-11T13:12:51Z</time>
      </trkpt>
      <trkpt lat="47.00256" lon="-1.43048">
        <ele>72</ele>
        <time>2022-11-11T13:12:53Z</time>
      </trkpt>
      <trkpt lat="47.00272" lon="-1.4304">
        <ele>72</ele>
        <time>2022-11-11T13:12:56Z</time>
      </trkpt>
      <trkpt lat="47.00282" lon="-1.43033">
        <ele>72</ele>
        <time>2022-11-11T13:12:58Z</time>
      </trkpt>
      <trkpt lat="47.00292" lon="-1.43026">
        <ele>72</ele>
        <time>2022-11-11T13:13:00Z</time>
      </trkpt>
      <trkpt lat="47.00302" lon="-1.43017">
        <ele>72</ele>
        <time>2022-11-11T13:13:02Z</time>
      </trkpt>
      <trkpt lat="47.00313" lon="-1.43009">
        <ele>72</ele>
        <time>2022-11-11T13:13:04Z</time>
      </trkpt>
      <trkpt lat="47.00323" lon="-1.43">
        <ele>72</ele>
        <time>2022-11-11T13:13:06Z</time>
      </trkpt>
      <trkpt lat="47.00338" lon="-1.42988">
        <ele>72</ele>
        <time>2022-11-11T13:13:09Z</time>
      </trkpt>
      <trkpt lat="47.00348" lon="-1.4298">
        <ele>72</ele>
        <time>2022-11-11T13:13:11Z</time>
      </trkpt>
      <trkpt lat="47.00359" lon="-1.42972">
        <ele>72</ele>
        <time>2022-11-11T13:13:13Z</time>
      </trkpt>
      <trkpt lat="47.00369" lon="-1.42964">
        <ele>72</ele>
        <time>2022-11-11T13:13:15Z</time>
      </trkpt>
      <trkpt lat="47.0038" lon="-1.42957">
        <ele>72</ele>
        <time>2022-11-11T13:13:17Z</time>
      </trkpt>
      <trkpt lat="47.00391" lon="-1.4295">
        <ele>72</ele>
        <time>2022-11-11T13:13:19Z</time>
      </trkpt>
      <trkpt lat="47.00409" lon="-1.42942">
        <ele>72</ele>
        <time>2022-11-11T13:13:22Z</time>
      </trkpt>
      <trkpt lat="47.00426" lon="-1.42933">
        <ele>72</ele>
        <time>2022-11-11T13:13:25Z</time>
      </trkpt>
      <trkpt lat="47.00437" lon="-1.42928">
        <ele>72</ele>
        <time>2022-11-11T13:13:27Z</time>
      </trkpt>
      <trkpt lat="47.00449" lon="-1.42922">
        <ele>71</ele>
        <time>2022-11-11T13:13:29Z</time>
      </trkpt>
      <trkpt lat="47.0046" lon="-1.42917">
        <ele>71</ele>
        <time>2022-11-11T13:13:31Z</time>
      </trkpt>
      <trkpt lat="47.00471" lon="-1.42912">
        <ele>71</ele>
        <time>2022-11-11T13:13:33Z</time>
      </trkpt>
      <trkpt lat="47.00482" lon="-1.42906">
        <ele>71</ele>
        <time>2022-11-11T13:13:35Z</time>
      </trkpt>
      <trkpt lat="47.00493" lon="-1.42901">
        <ele>71</ele>
        <time>2022-11-11T13:13:37Z</time>
      </trkpt>
      <trkpt lat="47.00505" lon="-1.42897">
        <ele>70</ele>
        <time>2022-11-11T13:13:39Z</time>
      </trkpt>
      <trkpt lat="47.00517" lon="-1.42892">
        <ele>70</ele>
        <time>2022-11-11T13:13:41Z</time>
      </trkpt>
      <trkpt lat="47.00529" lon="-1.42889">
        <ele>70</ele>
        <time>2022-11-11T13:13:43Z</time>
      </trkpt>
      <trkpt lat="47.00541" lon="-1.42886">
        <ele>70</ele>
        <time>2022-11-11T13:13:45Z</time>
      </trkpt>
      <trkpt lat="47.00553" lon="-1.42883">
        <ele>70</ele>
        <time>2022-11-11T13:13:47Z</time>
      </trkpt>
      <trkpt lat="47.00566" lon="-1.4288">
        <ele>70</ele>
        <time>2022-11-11T13:13:49Z</time>
      </trkpt>
      <trkpt lat="47.00579" lon="-1.42877">
        <ele>69</ele>
        <time>2022-11-11T13:13:51Z</time>
      </trkpt>
      <trkpt lat="47.00591" lon="-1.42874">
        <ele>69</ele>
        <time>2022-11-11T13:13:53Z</time>
      </trkpt>
      <trkpt lat="47.00604" lon="-1.42871">
        <ele>69</ele>
        <time>2022-11-11T13:13:55Z</time>
      </trkpt>
      <trkpt lat="47.00616" lon="-1.42868">
        <ele>68</ele>
        <time>2022-11-11T13:13:57Z</time>
      </trkpt>
      <trkpt lat="47.00628" lon="-1.42864">
        <ele>68</ele>
        <time>2022-11-11T13:13:59Z</time>
      </trkpt>
      <trkpt lat="47.00641" lon="-1.42861">
        <ele>68</ele>
        <time>2022-11-11T13:14:01Z</time>
      </trkpt>
      <trkpt lat="47.00653" lon="-1.42858">
        <ele>68</ele>
        <time>2022-11-11T13:14:03Z</time>
      </trkpt>
      <trkpt lat="47.00665" lon="-1.42854">
        <ele>68</ele>
        <time>2022-11-11T13:14:05Z</time>
      </trkpt>
      <trkpt lat="47.00677" lon="-1.42849">
        <ele>67</ele>
        <time>2022-11-11T13:14:07Z</time>
      </trkpt>
      <trkpt lat="47.0069" lon="-1.42843">
        <ele>67</ele>
        <time>2022-11-11T13:14:09Z</time>
      </trkpt>
      <trkpt lat="47.00702" lon="-1.42836">
        <ele>67</ele>
        <time>2022-11-11T13:14:11Z</time>
      </trkpt>
      <trkpt lat="47.00714" lon="-1.42829">
        <ele>67</ele>
        <time>2022-11-11T13:14:13Z</time>
      </trkpt>
      <trkpt lat="47.00726" lon="-1.42821">
        <ele>67</ele>
        <time>2022-11-11T13:14:15Z</time>
      </trkpt>
      <trkpt lat="47.00737" lon="-1.42813">
        <ele>66</ele>
        <time>2022-11-11T13:14:17Z</time>
      </trkpt>
      <trkpt lat="47.00749" lon="-1.42805">
        <ele>66</ele>
        <time>2022-11-11T13:14:19Z</time>
      </trkpt>
      <trkpt lat="47.00761" lon="-1.42797">
        <ele>66</ele>
        <time>2022-11-11T13:14:21Z</time>
      </trkpt>
      <trkpt lat="47.00772" lon="-1.4279">
        <ele>66</ele>
        <time>2022-11-11T13:14:23Z</time>
      </trkpt>
      <trkpt lat="47.00783" lon="-1.42783">
        <ele>66</ele>
        <time>2022-11-11T13:14:25Z</time>
      </trkpt>
      <trkpt lat="47.00794" lon="-1.42776">
        <ele>66</ele>
        <time>2022-11-11T13:14:27Z</time>
      </trkpt>
      <trkpt lat="47.00805" lon="-1.42769">
        <ele>66</ele>
        <time>2022-11-11T13:14:29Z</time>
      </trkpt>
      <trkpt lat="47.00816" lon="-1.42761">
        <ele>67</ele>
        <time>2022-11-11T13:14:31Z</time>
      </trkpt>
      <trkpt lat="47.00827" lon="-1.42754">
        <ele>67</ele>
        <time>2022-11-11T13:14:33Z</time>
      </trkpt>
      <trkpt lat="47.00838" lon="-1.42747">
        <ele>67</ele>
        <time>2022-11-11T13:14:35Z</time>
      </trkpt>
      <trkpt lat="47.00849" lon="-1.42739">
        <ele>67</ele>
        <time>2022-11-11T13:14:37Z</time>
      </trkpt>
      <trkpt lat="47.00861" lon="-1.42732">
        <ele>67</ele>
        <time>2022-11-11T13:14:39Z</time>
      </trkpt>
      <trkpt lat="47.00872" lon="-1.42724">
        <ele>66</ele>
        <time>2022-11-11T13:14:41Z</time>
      </trkpt>
      <trkpt lat="47.00883" lon="-1.42717">
        <ele>66</ele>
        <time>2022-11-11T13:14:43Z</time>
      </trkpt>
      <trkpt lat="47.00894" lon="-1.4271">
        <ele>67</ele>
        <time>2022-11-11T13:14:45Z</time>
      </trkpt>
      <trkpt lat="47.00905" lon="-1.42703">
        <ele>67</ele>
        <time>2022-11-11T13:14:47Z</time>
      </trkpt>
      <trkpt lat="47.00915" lon="-1.42697">
        <ele>68</ele>
        <time>2022-11-11T13:14:49Z</time>
      </trkpt>
      <trkpt lat="47.00925" lon="-1.4269">
        <ele>68</ele>
        <time>2022-11-11T13:14:51Z</time>
      </trkpt>
      <trkpt lat="47.00935" lon="-1.42684">
        <ele>68</ele>
        <time>2022-11-11T13:14:53Z</time>
      </trkpt>
      <trkpt lat="47.00945" lon="-1.42677">
        <ele>69</ele>
        <time>2022-11-11T13:14:55Z</time>
      </trkpt>
      <trkpt lat="47.00957" lon="-1.42674">
        <ele>70</ele>
        <time>2022-11-11T13:14:57Z</time>
      </trkpt>
      <trkpt lat="47.0097" lon="-1.42671">
        <ele>69</ele>
        <time>2022-11-11T13:14:59Z</time>
      </trkpt>
      <trkpt lat="47.00982" lon="-1.42671">
        <ele>69</ele>
        <time>2022-11-11T13:15:01Z</time>
      </trkpt>
      <trkpt lat="47.00995" lon="-1.42671">
        <ele>69</ele>
        <time>2022-11-11T13:15:03Z</time>
      </trkpt>
      <trkpt lat="47.01008" lon="-1.4267">
        <ele>69</ele>
        <time>2022-11-11T13:15:05Z</time>
      </trkpt>
      <trkpt lat="47.01021" lon="-1.4267">
        <ele>69</ele>
        <time>2022-11-11T13:15:07Z</time>
      </trkpt>
      <trkpt lat="47.01035" lon="-1.42669">
        <ele>69</ele>
        <time>2022-11-11T13:15:09Z</time>
      </trkpt>
      <trkpt lat="47.01048" lon="-1.42668">
        <ele>69</ele>
        <time>2022-11-11T13:15:11Z</time>
      </trkpt>
      <trkpt lat="47.01061" lon="-1.42668">
        <ele>68</ele>
        <time>2022-11-11T13:15:13Z</time>
      </trkpt>
      <trkpt lat="47.01073" lon="-1.42668">
        <ele>68</ele>
        <time>2022-11-11T13:15:15Z</time>
      </trkpt>
      <trkpt lat="47.01085" lon="-1.42668">
        <ele>68</ele>
        <time>2022-11-11T13:15:17Z</time>
      </trkpt>
      <trkpt lat="47.01097" lon="-1.42667">
        <ele>69</ele>
        <time>2022-11-11T13:15:19Z</time>
      </trkpt>
      <trkpt lat="47.01108" lon="-1.42666">
        <ele>69</ele>
        <time>2022-11-11T13:15:21Z</time>
      </trkpt>
      <trkpt lat="47.0112" lon="-1.42663">
        <ele>69</ele>
        <time>2022-11-11T13:15:23Z</time>
      </trkpt>
      <trkpt lat="47.0113" lon="-1.42657">
        <ele>69</ele>
        <time>2022-11-11T13:15:25Z</time>
      </trkpt>
      <trkpt lat="47.01142" lon="-1.42648">
        <ele>70</ele>
        <time>2022-11-11T13:15:27Z</time>
      </trkpt>
      <trkpt lat="47.01151" lon="-1.42639">
        <ele>70</ele>
        <time>2022-11-11T13:15:29Z</time>
      </trkpt>
      <trkpt lat="47.01161" lon="-1.42628">
        <ele>71</ele>
        <time>2022-11-11T13:15:31Z</time>
      </trkpt>
      <trkpt lat="47.01171" lon="-1.42618">
        <ele>71</ele>
        <time>2022-11-11T13:15:33Z</time>
      </trkpt>
      <trkpt lat="47.01179" lon="-1.42609">
        <ele>72</ele>
        <time>2022-11-11T13:15:35Z</time>
      </trkpt>
      <trkpt lat="47.01188" lon="-1.42599">
        <ele>72</ele>
        <time>2022-11-11T13:15:37Z</time>
      </trkpt>
      <trkpt lat="47.01197" lon="-1.42589">
        <ele>73</ele>
        <time>2022-11-11T13:15:39Z</time>
      </trkpt>
      <trkpt lat="47.01206" lon="-1.42579">
        <ele>73</ele>
        <time>2022-11-11T13:15:41Z</time>
      </trkpt>
      <trkpt lat="47.01214" lon="-1.4257">
        <ele>73</ele>
        <time>2022-11-11T13:15:43Z</time>
      </trkpt>
      <trkpt lat="47.01222" lon="-1.4256">
        <ele>73</ele>
        <time>2022-11-11T13:15:45Z</time>
      </trkpt>
      <trkpt lat="47.0123" lon="-1.4255">
        <ele>73</ele>
        <time>2022-11-11T13:15:47Z</time>
      </trkpt>
      <trkpt lat="47.01238" lon="-1.4254">
        <ele>74</ele>
        <time>2022-11-11T13:15:49Z</time>
      </trkpt>
      <trkpt lat="47.01245" lon="-1.42529">
        <ele>74</ele>
        <time>2022-11-11T13:15:51Z</time>
      </trkpt>
      <trkpt lat="47.01252" lon="-1.42519">
        <ele>74</ele>
        <time>2022-11-11T13:15:53Z</time>
      </trkpt>
      <trkpt lat="47.01259" lon="-1.42509">
        <ele>74</ele>
        <time>2022-11-11T13:15:55Z</time>
      </trkpt>
      <trkpt lat="47.01267" lon="-1.42498">
        <ele>75</ele>
        <time>2022-11-11T13:15:57Z</time>
      </trkpt>
      <trkpt lat="47.01274" lon="-1.42488">
        <ele>75</ele>
        <time>2022-11-11T13:15:59Z</time>
      </trkpt>
      <trkpt lat="47.01283" lon="-1.42479">
        <ele>75</ele>
        <time>2022-11-11T13:16:01Z</time>
      </trkpt>
      <trkpt lat="47.01292" lon="-1.42471">
        <ele>75</ele>
        <time>2022-11-11T13:16:03Z</time>
      </trkpt>
      <trkpt lat="47.013" lon="-1.42464">
        <ele>75</ele>
        <time>2022-11-11T13:16:05Z</time>
      </trkpt>
      <trkpt lat="47.0131" lon="-1.42459">
        <ele>75</ele>
        <time>2022-11-11T13:16:07Z</time>
      </trkpt>
      <trkpt lat="47.0132" lon="-1.42455">
        <ele>75</ele>
        <time>2022-11-11T13:16:09Z</time>
      </trkpt>
      <trkpt lat="47.0133" lon="-1.42449">
        <ele>76</ele>
        <time>2022-11-11T13:16:11Z</time>
      </trkpt>
      <trkpt lat="47.01339" lon="-1.42444">
        <ele>75</ele>
        <time>2022-11-11T13:16:13Z</time>
      </trkpt>
      <trkpt lat="47.0135" lon="-1.42439">
        <ele>75</ele>
        <time>2022-11-11T13:16:15Z</time>
      </trkpt>
      <trkpt lat="47.0136" lon="-1.42434">
        <ele>75</ele>
        <time>2022-11-11T13:16:17Z</time>
      </trkpt>
      <trkpt lat="47.0137" lon="-1.4243">
        <ele>75</ele>
        <time>2022-11-11T13:16:19Z</time>
      </trkpt>
      <trkpt lat="47.0138" lon="-1.42425">
        <ele>75</ele>
        <time>2022-11-11T13:16:21Z</time>
      </trkpt>
      <trkpt lat="47.0139" lon="-1.4242">
        <ele>75</ele>
        <time>2022-11-11T13:16:23Z</time>
      </trkpt>
      <trkpt lat="47.014" lon="-1.42414">
        <ele>75</ele>
        <time>2022-11-11T13:16:25Z</time>
      </trkpt>
      <trkpt lat="47.0141" lon="-1.42409">
        <ele>75</ele>
        <time>2022-11-11T13:16:27Z</time>
      </trkpt>
      <trkpt lat="47.0142" lon="-1.42403">
        <ele>75</ele>
        <time>2022-11-11T13:16:29Z</time>
      </trkpt>
      <trkpt lat="47.01431" lon="-1.42398">
        <ele>75</ele>
        <time>2022-11-11T13:16:31Z</time>
      </trkpt>
      <trkpt lat="47.01441" lon="-1.42393">
        <ele>76</ele>
        <time>2022-11-11T13:16:33Z</time>
      </trkpt>
      <trkpt lat="47.01451" lon="-1.42388">
        <ele>76</ele>
        <time>2022-11-11T13:16:35Z</time>
      </trkpt>
      <trkpt lat="47.01461" lon="-1.42384">
        <ele>76</ele>
        <time>2022-11-11T13:16:37Z</time>
      </trkpt>
      <trkpt lat="47.01471" lon="-1.42381">
        <ele>77</ele>
        <time>2022-11-11T13:16:39Z</time>
      </trkpt>
      <trkpt lat="47.01482" lon="-1.42379">
        <ele>77</ele>
        <time>2022-11-11T13:16:41Z</time>
      </trkpt>
      <trkpt lat="47.01492" lon="-1.42378">
        <ele>77</ele>
        <time>2022-11-11T13:16:43Z</time>
      </trkpt>
      <trkpt lat="47.01503" lon="-1.42377">
        <ele>77</ele>
        <time>2022-11-11T13:16:45Z</time>
      </trkpt>
      <trkpt lat="47.01513" lon="-1.42376">
        <ele>78</ele>
        <time>2022-11-11T13:16:47Z</time>
      </trkpt>
      <trkpt lat="47.01523" lon="-1.42375">
        <ele>78</ele>
        <time>2022-11-11T13:16:49Z</time>
      </trkpt>
      <trkpt lat="47.01534" lon="-1.42374">
        <ele>79</ele>
        <time>2022-11-11T13:16:51Z</time>
      </trkpt>
      <trkpt lat="47.01545" lon="-1.42373">
        <ele>79</ele>
        <time>2022-11-11T13:16:53Z</time>
      </trkpt>
      <trkpt lat="47.01555" lon="-1.42373">
        <ele>79</ele>
        <time>2022-11-11T13:16:55Z</time>
      </trkpt>
      <trkpt lat="47.01566" lon="-1.42372">
        <ele>79</ele>
        <time>2022-11-11T13:16:57Z</time>
      </trkpt>
      <trkpt lat="47.01577" lon="-1.42371">
        <ele>80</ele>
        <time>2022-11-11T13:16:59Z</time>
      </trkpt>
      <trkpt lat="47.01587" lon="-1.4237">
        <ele>80</ele>
        <time>2022-11-11T13:17:01Z</time>
      </trkpt>
      <trkpt lat="47.01598" lon="-1.42368">
        <ele>80</ele>
        <time>2022-11-11T13:17:03Z</time>
      </trkpt>
      <trkpt lat="47.01608" lon="-1.42366">
        <ele>80</ele>
        <time>2022-11-11T13:17:05Z</time>
      </trkpt>
      <trkpt lat="47.01618" lon="-1.42364">
        <ele>80</ele>
        <time>2022-11-11T13:17:07Z</time>
      </trkpt>
      <trkpt lat="47.01628" lon="-1.42361">
        <ele>80</ele>
        <time>2022-11-11T13:17:09Z</time>
      </trkpt>
      <trkpt lat="47.01638" lon="-1.42358">
        <ele>81</ele>
        <time>2022-11-11T13:17:11Z</time>
      </trkpt>
      <trkpt lat="47.01648" lon="-1.42354">
        <ele>80</ele>
        <time>2022-11-11T13:17:13Z</time>
      </trkpt>
      <trkpt lat="47.01658" lon="-1.4235">
        <ele>80</ele>
        <time>2022-11-11T13:17:15Z</time>
      </trkpt>
      <trkpt lat="47.01669" lon="-1.42345">
        <ele>80</ele>
        <time>2022-11-11T13:17:17Z</time>
      </trkpt>
      <trkpt lat="47.01679" lon="-1.42342">
        <ele>80</ele>
        <time>2022-11-11T13:17:19Z</time>
      </trkpt>
      <trkpt lat="47.01689" lon="-1.42338">
        <ele>80</ele>
        <time>2022-11-11T13:17:21Z</time>
      </trkpt>
      <trkpt lat="47.01699" lon="-1.42334">
        <ele>81</ele>
        <time>2022-11-11T13:17:23Z</time>
      </trkpt>
      <trkpt lat="47.01709" lon="-1.4233">
        <ele>80</ele>
        <time>2022-11-11T13:17:25Z</time>
      </trkpt>
      <trkpt lat="47.0172" lon="-1.42326">
        <ele>81</ele>
        <time>2022-11-11T13:17:27Z</time>
      </trkpt>
      <trkpt lat="47.0173" lon="-1.42322">
        <ele>81</ele>
        <time>2022-11-11T13:17:29Z</time>
      </trkpt>
      <trkpt lat="47.01741" lon="-1.42317">
        <ele>80</ele>
        <time>2022-11-11T13:17:31Z</time>
      </trkpt>
      <trkpt lat="47.01751" lon="-1.42313">
        <ele>81</ele>
        <time>2022-11-11T13:17:33Z</time>
      </trkpt>
      <trkpt lat="47.01762" lon="-1.42308">
        <ele>81</ele>
        <time>2022-11-11T13:17:35Z</time>
      </trkpt>
      <trkpt lat="47.01773" lon="-1.42303">
        <ele>81</ele>
        <time>2022-11-11T13:17:37Z</time>
      </trkpt>
      <trkpt lat="47.01784" lon="-1.42298">
        <ele>81</ele>
        <time>2022-11-11T13:17:39Z</time>
      </trkpt>
      <trkpt lat="47.01795" lon="-1.42293">
        <ele>81</ele>
        <time>2022-11-11T13:17:41Z</time>
      </trkpt>
      <trkpt lat="47.01805" lon="-1.42288">
        <ele>81</ele>
        <time>2022-11-11T13:17:43Z</time>
      </trkpt>
      <trkpt lat="47.01816" lon="-1.42284">
        <ele>81</ele>
        <time>2022-11-11T13:17:45Z</time>
      </trkpt>
      <trkpt lat="47.01826" lon="-1.4228">
        <ele>81</ele>
        <time>2022-11-11T13:17:47Z</time>
      </trkpt>
      <trkpt lat="47.01837" lon="-1.42275">
        <ele>82</ele>
        <time>2022-11-11T13:17:49Z</time>
      </trkpt>
      <trkpt lat="47.01847" lon="-1.42269">
        <ele>82</ele>
        <time>2022-11-11T13:17:51Z</time>
      </trkpt>
      <trkpt lat="47.01858" lon="-1.42264">
        <ele>82</ele>
        <time>2022-11-11T13:17:53Z</time>
      </trkpt>
      <trkpt lat="47.01869" lon="-1.42258">
        <ele>82</ele>
        <time>2022-11-11T13:17:55Z</time>
      </trkpt>
      <trkpt lat="47.01879" lon="-1.42252">
        <ele>82</ele>
        <time>2022-11-11T13:17:57Z</time>
      </trkpt>
      <trkpt lat="47.01889" lon="-1.42246">
        <ele>82</ele>
        <time>2022-11-11T13:17:59Z</time>
      </trkpt>
      <trkpt lat="47.01899" lon="-1.42241">
        <ele>83</ele>
        <time>2022-11-11T13:18:01Z</time>
      </trkpt>
      <trkpt lat="47.0191" lon="-1.42234">
        <ele>83</ele>
        <time>2022-11-11T13:18:03Z</time>
      </trkpt>
      <trkpt lat="47.0192" lon="-1.42228">
        <ele>83</ele>
        <time>2022-11-11T13:18:05Z</time>
      </trkpt>
      <trkpt lat="47.01931" lon="-1.42222">
        <ele>83</ele>
        <time>2022-11-11T13:18:07Z</time>
      </trkpt>
      <trkpt lat="47.01942" lon="-1.42216">
        <ele>83</ele>
        <time>2022-11-11T13:18:09Z</time>
      </trkpt>
      <trkpt lat="47.01952" lon="-1.4221">
        <ele>83</ele>
        <time>2022-11-11T13:18:11Z</time>
      </trkpt>
      <trkpt lat="47.01962" lon="-1.42204">
        <ele>83</ele>
        <time>2022-11-11T13:18:13Z</time>
      </trkpt>
      <trkpt lat="47.01972" lon="-1.42198">
        <ele>83</ele>
        <time>2022-11-11T13:18:15Z</time>
      </trkpt>
      <trkpt lat="47.01982" lon="-1.42192">
        <ele>84</ele>
        <time>2022-11-11T13:18:17Z</time>
      </trkpt>
      <trkpt lat="47.01992" lon="-1.42186">
        <ele>84</ele>
        <time>2022-11-11T13:18:19Z</time>
      </trkpt>
      <trkpt lat="47.02002" lon="-1.4218">
        <ele>84</ele>
        <time>2022-11-11T13:18:21Z</time>
      </trkpt>
      <trkpt lat="47.02012" lon="-1.42174">
        <ele>84</ele>
        <time>2022-11-11T13:18:23Z</time>
      </trkpt>
      <trkpt lat="47.02022" lon="-1.42168">
        <ele>84</ele>
        <time>2022-11-11T13:18:25Z</time>
      </trkpt>
      <trkpt lat="47.02032" lon="-1.42162">
        <ele>84</ele>
        <time>2022-11-11T13:18:27Z</time>
      </trkpt>
      <trkpt lat="47.02042" lon="-1.42156">
        <ele>84</ele>
        <time>2022-11-11T13:18:29Z</time>
      </trkpt>
      <trkpt lat="47.02052" lon="-1.4215">
        <ele>84</ele>
        <time>2022-11-11T13:18:31Z</time>
      </trkpt>
      <trkpt lat="47.02062" lon="-1.42145">
        <ele>84</ele>
        <time>2022-11-11T13:18:33Z</time>
      </trkpt>
      <trkpt lat="47.02072" lon="-1.4214">
        <ele>84</ele>
        <time>2022-11-11T13:18:35Z</time>
      </trkpt>
      <trkpt lat="47.02082" lon="-1.42135">
        <ele>85</ele>
        <time>2022-11-11T13:18:37Z</time>
      </trkpt>
      <trkpt lat="47.02092" lon="-1.4213">
        <ele>85</ele>
        <time>2022-11-11T13:18:39Z</time>
      </trkpt>
      <trkpt lat="47.02103" lon="-1.42126">
        <ele>85</ele>
        <time>2022-11-11T13:18:41Z</time>
      </trkpt>
      <trkpt lat="47.02113" lon="-1.42122">
        <ele>85</ele>
        <time>2022-11-11T13:18:43Z</time>
      </trkpt>
      <trkpt lat="47.02124" lon="-1.42118">
        <ele>85</ele>
        <time>2022-11-11T13:18:45Z</time>
      </trkpt>
      <trkpt lat="47.02135" lon="-1.42114">
        <ele>85</ele>
        <time>2022-11-11T13:18:47Z</time>
      </trkpt>
      <trkpt lat="47.02145" lon="-1.4211">
        <ele>85</ele>
        <time>2022-11-11T13:18:49Z</time>
      </trkpt>
      <trkpt lat="47.02156" lon="-1.42106">
        <ele>85</ele>
        <time>2022-11-11T13:18:51Z</time>
      </trkpt>
      <trkpt lat="47.02167" lon="-1.42103">
        <ele>85</ele>
        <time>2022-11-11T13:18:53Z</time>
      </trkpt>
      <trkpt lat="47.02178" lon="-1.42099">
        <ele>85</ele>
        <time>2022-11-11T13:18:55Z</time>
      </trkpt>
      <trkpt lat="47.02189" lon="-1.42096">
        <ele>86</ele>
        <time>2022-11-11T13:18:57Z</time>
      </trkpt>
      <trkpt lat="47.022" lon="-1.42093">
        <ele>86</ele>
        <time>2022-11-11T13:18:59Z</time>
      </trkpt>
      <trkpt lat="47.02211" lon="-1.42092">
        <ele>86</ele>
        <time>2022-11-11T13:19:01Z</time>
      </trkpt>
      <trkpt lat="47.02222" lon="-1.42092">
        <ele>86</ele>
        <time>2022-11-11T13:19:03Z</time>
      </trkpt>
      <trkpt lat="47.02233" lon="-1.42093">
        <ele>86</ele>
        <time>2022-11-11T13:19:05Z</time>
      </trkpt>
      <trkpt lat="47.02246" lon="-1.42094">
        <ele>86</ele>
        <time>2022-11-11T13:19:07Z</time>
      </trkpt>
      <trkpt lat="47.02258" lon="-1.42095">
        <ele>85</ele>
        <time>2022-11-11T13:19:09Z</time>
      </trkpt>
      <trkpt lat="47.02269" lon="-1.42096">
        <ele>85</ele>
        <time>2022-11-11T13:19:11Z</time>
      </trkpt>
      <trkpt lat="47.02282" lon="-1.42097">
        <ele>85</ele>
        <time>2022-11-11T13:19:13Z</time>
      </trkpt>
      <trkpt lat="47.02293" lon="-1.42098">
        <ele>85</ele>
        <time>2022-11-11T13:19:15Z</time>
      </trkpt>
      <trkpt lat="47.02305" lon="-1.42099">
        <ele>85</ele>
        <time>2022-11-11T13:19:17Z</time>
      </trkpt>
      <trkpt lat="47.02318" lon="-1.421">
        <ele>85</ele>
        <time>2022-11-11T13:19:19Z</time>
      </trkpt>
      <trkpt lat="47.0233" lon="-1.42102">
        <ele>84</ele>
        <time>2022-11-11T13:19:21Z</time>
      </trkpt>
      <trkpt lat="47.02342" lon="-1.42103">
        <ele>84</ele>
        <time>2022-11-11T13:19:23Z</time>
      </trkpt>
      <trkpt lat="47.02354" lon="-1.42104">
        <ele>84</ele>
        <time>2022-11-11T13:19:25Z</time>
      </trkpt>
      <trkpt lat="47.02367" lon="-1.42106">
        <ele>83</ele>
        <time>2022-11-11T13:19:27Z</time>
      </trkpt>
      <trkpt lat="47.0238" lon="-1.42107">
        <ele>83</ele>
        <time>2022-11-11T13:19:29Z</time>
      </trkpt>
      <trkpt lat="47.02393" lon="-1.42108">
        <ele>83</ele>
        <time>2022-11-11T13:19:31Z</time>
      </trkpt>
      <trkpt lat="47.02405" lon="-1.42108">
        <ele>83</ele>
        <time>2022-11-11T13:19:33Z</time>
      </trkpt>
      <trkpt lat="47.02418" lon="-1.42109">
        <ele>83</ele>
        <time>2022-11-11T13:19:35Z</time>
      </trkpt>
      <trkpt lat="47.0243" lon="-1.42111">
        <ele>83</ele>
        <time>2022-11-11T13:19:37Z</time>
      </trkpt>
      <trkpt lat="47.02443" lon="-1.42112">
        <ele>83</ele>
        <time>2022-11-11T13:19:39Z</time>
      </trkpt>
      <trkpt lat="47.02455" lon="-1.42113">
        <ele>83</ele>
        <time>2022-11-11T13:19:41Z</time>
      </trkpt>
      <trkpt lat="47.02468" lon="-1.42115">
        <ele>82</ele>
        <time>2022-11-11T13:19:43Z</time>
      </trkpt>
      <trkpt lat="47.02481" lon="-1.42116">
        <ele>82</ele>
        <time>2022-11-11T13:19:45Z</time>
      </trkpt>
      <trkpt lat="47.02495" lon="-1.42117">
        <ele>82</ele>
        <time>2022-11-11T13:19:47Z</time>
      </trkpt>
      <trkpt lat="47.02508" lon="-1.42118">
        <ele>81</ele>
        <time>2022-11-11T13:19:49Z</time>
      </trkpt>
      <trkpt lat="47.02521" lon="-1.42119">
        <ele>81</ele>
        <time>2022-11-11T13:19:51Z</time>
      </trkpt>
      <trkpt lat="47.02534" lon="-1.4212">
        <ele>81</ele>
        <time>2022-11-11T13:19:53Z</time>
      </trkpt>
      <trkpt lat="47.02547" lon="-1.42121">
        <ele>81</ele>
        <time>2022-11-11T13:19:55Z</time>
      </trkpt>
      <trkpt lat="47.0256" lon="-1.42122">
        <ele>81</ele>
        <time>2022-11-11T13:19:57Z</time>
      </trkpt>
      <trkpt lat="47.02572" lon="-1.42123">
        <ele>81</ele>
        <time>2022-11-11T13:19:59Z</time>
      </trkpt>
      <trkpt lat="47.02585" lon="-1.42124">
        <ele>81</ele>
        <time>2022-11-11T13:20:01Z</time>
      </trkpt>
      <trkpt lat="47.02597" lon="-1.42126">
        <ele>81</ele>
        <time>2022-11-11T13:20:03Z</time>
      </trkpt>
      <trkpt lat="47.02609" lon="-1.42126">
        <ele>81</ele>
        <time>2022-11-11T13:20:05Z</time>
      </trkpt>
      <trkpt lat="47.0262" lon="-1.42128">
        <ele>81</ele>
        <time>2022-11-11T13:20:07Z</time>
      </trkpt>
      <trkpt lat="47.02632" lon="-1.4213">
        <ele>82</ele>
        <time>2022-11-11T13:20:09Z</time>
      </trkpt>
      <trkpt lat="47.02642" lon="-1.42132">
        <ele>82</ele>
        <time>2022-11-11T13:20:11Z</time>
      </trkpt>
      <trkpt lat="47.02653" lon="-1.42136">
        <ele>83</ele>
        <time>2022-11-11T13:20:13Z</time>
      </trkpt>
      <trkpt lat="47.02664" lon="-1.4214">
        <ele>83</ele>
        <time>2022-11-11T13:20:15Z</time>
      </trkpt>
      <trkpt lat="47.02673" lon="-1.42144">
        <ele>83</ele>
        <time>2022-11-11T13:20:17Z</time>
      </trkpt>
      <trkpt lat="47.02684" lon="-1.42148">
        <ele>83</ele>
        <time>2022-11-11T13:20:19Z</time>
      </trkpt>
      <trkpt lat="47.02695" lon="-1.42151">
        <ele>83</ele>
        <time>2022-11-11T13:20:21Z</time>
      </trkpt>
      <trkpt lat="47.02705" lon="-1.42153">
        <ele>84</ele>
        <time>2022-11-11T13:20:23Z</time>
      </trkpt>
      <trkpt lat="47.02716" lon="-1.42153">
        <ele>84</ele>
        <time>2022-11-11T13:20:25Z</time>
      </trkpt>
      <trkpt lat="47.02727" lon="-1.42153">
        <ele>84</ele>
        <time>2022-11-11T13:20:27Z</time>
      </trkpt>
      <trkpt lat="47.02737" lon="-1.42153">
        <ele>84</ele>
        <time>2022-11-11T13:20:29Z</time>
      </trkpt>
      <trkpt lat="47.02747" lon="-1.42154">
        <ele>85</ele>
        <time>2022-11-11T13:20:31Z</time>
      </trkpt>
      <trkpt lat="47.02757" lon="-1.42153">
        <ele>85</ele>
        <time>2022-11-11T13:20:33Z</time>
      </trkpt>
      <trkpt lat="47.02767" lon="-1.42153">
        <ele>85</ele>
        <time>2022-11-11T13:20:35Z</time>
      </trkpt>
      <trkpt lat="47.02777" lon="-1.42154">
        <ele>86</ele>
        <time>2022-11-11T13:20:37Z</time>
      </trkpt>
      <trkpt lat="47.02787" lon="-1.42154">
        <ele>86</ele>
        <time>2022-11-11T13:20:39Z</time>
      </trkpt>
      <trkpt lat="47.02798" lon="-1.42155">
        <ele>86</ele>
        <time>2022-11-11T13:20:41Z</time>
      </trkpt>
      <trkpt lat="47.02808" lon="-1.42157">
        <ele>86</ele>
        <time>2022-11-11T13:20:43Z</time>
      </trkpt>
      <trkpt lat="47.02818" lon="-1.42159">
        <ele>86</ele>
        <time>2022-11-11T13:20:45Z</time>
      </trkpt>
      <trkpt lat="47.02828" lon="-1.4216">
        <ele>87</ele>
        <time>2022-11-11T13:20:47Z</time>
      </trkpt>
      <trkpt lat="47.02839" lon="-1.42163">
        <ele>87</ele>
        <time>2022-11-11T13:20:49Z</time>
      </trkpt>
      <trkpt lat="47.02849" lon="-1.42165">
        <ele>88</ele>
        <time>2022-11-11T13:20:51Z</time>
      </trkpt>
      <trkpt lat="47.02859" lon="-1.42167">
        <ele>88</ele>
        <time>2022-11-11T13:20:53Z</time>
      </trkpt>
      <trkpt lat="47.0287" lon="-1.42169">
        <ele>88</ele>
        <time>2022-11-11T13:20:55Z</time>
      </trkpt>
      <trkpt lat="47.0288" lon="-1.42171">
        <ele>88</ele>
        <time>2022-11-11T13:20:57Z</time>
      </trkpt>
      <trkpt lat="47.0289" lon="-1.42173">
        <ele>88</ele>
        <time>2022-11-11T13:20:59Z</time>
      </trkpt>
      <trkpt lat="47.029" lon="-1.42174">
        <ele>89</ele>
        <time>2022-11-11T13:21:01Z</time>
      </trkpt>
      <trkpt lat="47.0291" lon="-1.42177">
        <ele>89</ele>
        <time>2022-11-11T13:21:03Z</time>
      </trkpt>
      <trkpt lat="47.0292" lon="-1.42178">
        <ele>89</ele>
        <time>2022-11-11T13:21:05Z</time>
      </trkpt>
      <trkpt lat="47.0293" lon="-1.4218">
        <ele>90</ele>
        <time>2022-11-11T13:21:07Z</time>
      </trkpt>
      <trkpt lat="47.02941" lon="-1.42181">
        <ele>90</ele>
        <time>2022-11-11T13:21:09Z</time>
      </trkpt>
      <trkpt lat="47.02951" lon="-1.42181">
        <ele>90</ele>
        <time>2022-11-11T13:21:11Z</time>
      </trkpt>
      <trkpt lat="47.02961" lon="-1.4218">
        <ele>91</ele>
        <time>2022-11-11T13:21:13Z</time>
      </trkpt>
      <trkpt lat="47.0297" lon="-1.42177">
        <ele>91</ele>
        <time>2022-11-11T13:21:15Z</time>
      </trkpt>
      <trkpt lat="47.0298" lon="-1.42172">
        <ele>91</ele>
        <time>2022-11-11T13:21:17Z</time>
      </trkpt>
      <trkpt lat="47.02988" lon="-1.42165">
        <ele>91</ele>
        <time>2022-11-11T13:21:19Z</time>
      </trkpt>
      <trkpt lat="47.02997" lon="-1.42157">
        <ele>91</ele>
        <time>2022-11-11T13:21:21Z</time>
      </trkpt>
      <trkpt lat="47.03005" lon="-1.42148">
        <ele>91</ele>
        <time>2022-11-11T13:21:23Z</time>
      </trkpt>
      <trkpt lat="47.03013" lon="-1.42139">
        <ele>92</ele>
        <time>2022-11-11T13:21:25Z</time>
      </trkpt>
      <trkpt lat="47.0302" lon="-1.4213">
        <ele>92</ele>
        <time>2022-11-11T13:21:27Z</time>
      </trkpt>
      <trkpt lat="47.03028" lon="-1.42121">
        <ele>93</ele>
        <time>2022-11-11T13:21:29Z</time>
      </trkpt>
      <trkpt lat="47.03036" lon="-1.42111">
        <ele>93</ele>
        <time>2022-11-11T13:21:31Z</time>
      </trkpt>
      <trkpt lat="47.03044" lon="-1.42102">
        <ele>93</ele>
        <time>2022-11-11T13:21:33Z</time>
      </trkpt>
      <trkpt lat="47.03051" lon="-1.42093">
        <ele>93</ele>
        <time>2022-11-11T13:21:35Z</time>
      </trkpt>
      <trkpt lat="47.03058" lon="-1.42084">
        <ele>94</ele>
        <time>2022-11-11T13:21:37Z</time>
      </trkpt>
      <trkpt lat="47.03066" lon="-1.42074">
        <ele>94</ele>
        <time>2022-11-11T13:21:39Z</time>
      </trkpt>
      <trkpt lat="47.03074" lon="-1.42065">
        <ele>95</ele>
        <time>2022-11-11T13:21:41Z</time>
      </trkpt>
      <trkpt lat="47.03081" lon="-1.42056">
        <ele>95</ele>
        <time>2022-11-11T13:21:43Z</time>
      </trkpt>
      <trkpt lat="47.03088" lon="-1.42047">
        <ele>96</ele>
        <time>2022-11-11T13:21:45Z</time>
      </trkpt>
      <trkpt lat="47.03096" lon="-1.42037">
        <ele>96</ele>
        <time>2022-11-11T13:21:47Z</time>
      </trkpt>
      <trkpt lat="47.03104" lon="-1.42027">
        <ele>96</ele>
        <time>2022-11-11T13:21:49Z</time>
      </trkpt>
      <trkpt lat="47.03112" lon="-1.42016">
        <ele>97</ele>
        <time>2022-11-11T13:21:51Z</time>
      </trkpt>
      <trkpt lat="47.0312" lon="-1.42005">
        <ele>96</ele>
        <time>2022-11-11T13:21:53Z</time>
      </trkpt>
      <trkpt lat="47.03128" lon="-1.41996">
        <ele>97</ele>
        <time>2022-11-11T13:21:55Z</time>
      </trkpt>
      <trkpt lat="47.03136" lon="-1.41986">
        <ele>97</ele>
        <time>2022-11-11T13:21:57Z</time>
      </trkpt>
      <trkpt lat="47.03143" lon="-1.41978">
        <ele>97</ele>
        <time>2022-11-11T13:21:59Z</time>
      </trkpt>
      <trkpt lat="47.0315" lon="-1.41969">
        <ele>98</ele>
        <time>2022-11-11T13:22:01Z</time>
      </trkpt>
      <trkpt lat="47.03157" lon="-1.4196">
        <ele>98</ele>
        <time>2022-11-11T13:22:03Z</time>
      </trkpt>
      <trkpt lat="47.03167" lon="-1.41947">
        <ele>98</ele>
        <time>2022-11-11T13:22:06Z</time>
      </trkpt>
      <trkpt lat="47.03174" lon="-1.41939">
        <ele>99</ele>
        <time>2022-11-11T13:22:08Z</time>
      </trkpt>
      <trkpt lat="47.03182" lon="-1.41929">
        <ele>99</ele>
        <time>2022-11-11T13:22:10Z</time>
      </trkpt>
      <trkpt lat="47.03189" lon="-1.4192">
        <ele>99</ele>
        <time>2022-11-11T13:22:12Z</time>
      </trkpt>
      <trkpt lat="47.03196" lon="-1.41911">
        <ele>99</ele>
        <time>2022-11-11T13:22:14Z</time>
      </trkpt>
      <trkpt lat="47.03204" lon="-1.41902">
        <ele>99</ele>
        <time>2022-11-11T13:22:16Z</time>
      </trkpt>
      <trkpt lat="47.03211" lon="-1.41892">
        <ele>100</ele>
        <time>2022-11-11T13:22:18Z</time>
      </trkpt>
      <trkpt lat="47.03218" lon="-1.41883">
        <ele>100</ele>
        <time>2022-11-11T13:22:20Z</time>
      </trkpt>
      <trkpt lat="47.03226" lon="-1.41873">
        <ele>100</ele>
        <time>2022-11-11T13:22:22Z</time>
      </trkpt>
      <trkpt lat="47.03233" lon="-1.41863">
        <ele>100</ele>
        <time>2022-11-11T13:22:24Z</time>
      </trkpt>
      <trkpt lat="47.03241" lon="-1.41854">
        <ele>100</ele>
        <time>2022-11-11T13:22:26Z</time>
      </trkpt>
      <trkpt lat="47.03249" lon="-1.41845">
        <ele>100</ele>
        <time>2022-11-11T13:22:28Z</time>
      </trkpt>
      <trkpt lat="47.03257" lon="-1.41835">
        <ele>100</ele>
        <time>2022-11-11T13:22:30Z</time>
      </trkpt>
      <trkpt lat="47.03264" lon="-1.41826">
        <ele>100</ele>
        <time>2022-11-11T13:22:32Z</time>
      </trkpt>
      <trkpt lat="47.03272" lon="-1.41817">
        <ele>100</ele>
        <time>2022-11-11T13:22:34Z</time>
      </trkpt>
      <trkpt lat="47.0328" lon="-1.41808">
        <ele>100</ele>
        <time>2022-11-11T13:22:36Z</time>
      </trkpt>
      <trkpt lat="47.03289" lon="-1.418">
        <ele>100</ele>
        <time>2022-11-11T13:22:38Z</time>
      </trkpt>
      <trkpt lat="47.03298" lon="-1.41793">
        <ele>100</ele>
        <time>2022-11-11T13:22:40Z</time>
      </trkpt>
      <trkpt lat="47.03308" lon="-1.41787">
        <ele>100</ele>
        <time>2022-11-11T13:22:42Z</time>
      </trkpt>
      <trkpt lat="47.03317" lon="-1.41782">
        <ele>100</ele>
        <time>2022-11-11T13:22:44Z</time>
      </trkpt>
      <trkpt lat="47.03327" lon="-1.41777">
        <ele>100</ele>
        <time>2022-11-11T13:22:46Z</time>
      </trkpt>
      <trkpt lat="47.03337" lon="-1.41774">
        <ele>100</ele>
        <time>2022-11-11T13:22:48Z</time>
      </trkpt>
      <trkpt lat="47.03347" lon="-1.41771">
        <ele>100</ele>
        <time>2022-11-11T13:22:50Z</time>
      </trkpt>
      <trkpt lat="47.03358" lon="-1.41769">
        <ele>100</ele>
        <time>2022-11-11T13:22:52Z</time>
      </trkpt>
      <trkpt lat="47.03368" lon="-1.41766">
        <ele>100</ele>
        <time>2022-11-11T13:22:54Z</time>
      </trkpt>
      <trkpt lat="47.03378" lon="-1.41765">
        <ele>100</ele>
        <time>2022-11-11T13:22:56Z</time>
      </trkpt>
      <trkpt lat="47.03389" lon="-1.41762">
        <ele>100</ele>
        <time>2022-11-11T13:22:58Z</time>
      </trkpt>
      <trkpt lat="47.03399" lon="-1.4176">
        <ele>101</ele>
        <time>2022-11-11T13:23:00Z</time>
      </trkpt>
      <trkpt lat="47.03409" lon="-1.41758">
        <ele>101</ele>
        <time>2022-11-11T13:23:02Z</time>
      </trkpt>
      <trkpt lat="47.0342" lon="-1.41755">
        <ele>101</ele>
        <time>2022-11-11T13:23:04Z</time>
      </trkpt>
      <trkpt lat="47.03431" lon="-1.41753">
        <ele>101</ele>
        <time>2022-11-11T13:23:06Z</time>
      </trkpt>
      <trkpt lat="47.03441" lon="-1.41751">
        <ele>101</ele>
        <time>2022-11-11T13:23:08Z</time>
      </trkpt>
      <trkpt lat="47.03451" lon="-1.41749">
        <ele>101</ele>
        <time>2022-11-11T13:23:10Z</time>
      </trkpt>
      <trkpt lat="47.03461" lon="-1.41746">
        <ele>101</ele>
        <time>2022-11-11T13:23:12Z</time>
      </trkpt>
      <trkpt lat="47.03471" lon="-1.41745">
        <ele>101</ele>
        <time>2022-11-11T13:23:14Z</time>
      </trkpt>
      <trkpt lat="47.03482" lon="-1.41743">
        <ele>101</ele>
        <time>2022-11-11T13:23:16Z</time>
      </trkpt>
      <trkpt lat="47.03492" lon="-1.41741">
        <ele>101</ele>
        <time>2022-11-11T13:23:18Z</time>
      </trkpt>
      <trkpt lat="47.03503" lon="-1.41738">
        <ele>101</ele>
        <time>2022-11-11T13:23:20Z</time>
      </trkpt>
      <trkpt lat="47.03513" lon="-1.41736">
        <ele>101</ele>
        <time>2022-11-11T13:23:22Z</time>
      </trkpt>
      <trkpt lat="47.03524" lon="-1.41734">
        <ele>101</ele>
        <time>2022-11-11T13:23:24Z</time>
      </trkpt>
      <trkpt lat="47.03534" lon="-1.41731">
        <ele>101</ele>
        <time>2022-11-11T13:23:26Z</time>
      </trkpt>
      <trkpt lat="47.03545" lon="-1.4173">
        <ele>101</ele>
        <time>2022-11-11T13:23:28Z</time>
      </trkpt>
      <trkpt lat="47.03556" lon="-1.41728">
        <ele>101</ele>
        <time>2022-11-11T13:23:30Z</time>
      </trkpt>
      <trkpt lat="47.03566" lon="-1.41728">
        <ele>101</ele>
        <time>2022-11-11T13:23:32Z</time>
      </trkpt>
      <trkpt lat="47.03577" lon="-1.41728">
        <ele>101</ele>
        <time>2022-11-11T13:23:34Z</time>
      </trkpt>
      <trkpt lat="47.03589" lon="-1.41728">
        <ele>101</ele>
        <time>2022-11-11T13:23:36Z</time>
      </trkpt>
      <trkpt lat="47.036" lon="-1.41729">
        <ele>100</ele>
        <time>2022-11-11T13:23:38Z</time>
      </trkpt>
      <trkpt lat="47.03612" lon="-1.4173">
        <ele>100</ele>
        <time>2022-11-11T13:23:40Z</time>
      </trkpt>
      <trkpt lat="47.03624" lon="-1.4173">
        <ele>100</ele>
        <time>2022-11-11T13:23:42Z</time>
      </trkpt>
      <trkpt lat="47.03635" lon="-1.41731">
        <ele>100</ele>
        <time>2022-11-11T13:23:44Z</time>
      </trkpt>
      <trkpt lat="47.03647" lon="-1.41732">
        <ele>100</ele>
        <time>2022-11-11T13:23:46Z</time>
      </trkpt>
      <trkpt lat="47.03659" lon="-1.41732">
        <ele>100</ele>
        <time>2022-11-11T13:23:48Z</time>
      </trkpt>
      <trkpt lat="47.0367" lon="-1.41733">
        <ele>99</ele>
        <time>2022-11-11T13:23:50Z</time>
      </trkpt>
      <trkpt lat="47.03682" lon="-1.41734">
        <ele>99</ele>
        <time>2022-11-11T13:23:52Z</time>
      </trkpt>
      <trkpt lat="47.03694" lon="-1.41735">
        <ele>99</ele>
        <time>2022-11-11T13:23:54Z</time>
      </trkpt>
      <trkpt lat="47.03706" lon="-1.41735">
        <ele>99</ele>
        <time>2022-11-11T13:23:56Z</time>
      </trkpt>
      <trkpt lat="47.03718" lon="-1.41736">
        <ele>99</ele>
        <time>2022-11-11T13:23:58Z</time>
      </trkpt>
      <trkpt lat="47.03729" lon="-1.41736">
        <ele>99</ele>
        <time>2022-11-11T13:24:00Z</time>
      </trkpt>
      <trkpt lat="47.03741" lon="-1.41737">
        <ele>99</ele>
        <time>2022-11-11T13:24:02Z</time>
      </trkpt>
      <trkpt lat="47.03753" lon="-1.41738">
        <ele>99</ele>
        <time>2022-11-11T13:24:04Z</time>
      </trkpt>
      <trkpt lat="47.03765" lon="-1.41738">
        <ele>99</ele>
        <time>2022-11-11T13:24:06Z</time>
      </trkpt>
      <trkpt lat="47.03776" lon="-1.41739">
        <ele>99</ele>
        <time>2022-11-11T13:24:08Z</time>
      </trkpt>
      <trkpt lat="47.03788" lon="-1.4174">
        <ele>98</ele>
        <time>2022-11-11T13:24:10Z</time>
      </trkpt>
      <trkpt lat="47.03799" lon="-1.41741">
        <ele>98</ele>
        <time>2022-11-11T13:24:12Z</time>
      </trkpt>
      <trkpt lat="47.03811" lon="-1.41742">
        <ele>98</ele>
        <time>2022-11-11T13:24:14Z</time>
      </trkpt>
      <trkpt lat="47.03823" lon="-1.41742">
        <ele>98</ele>
        <time>2022-11-11T13:24:16Z</time>
      </trkpt>
      <trkpt lat="47.03835" lon="-1.41741">
        <ele>98</ele>
        <time>2022-11-11T13:24:18Z</time>
      </trkpt>
      <trkpt lat="47.03847" lon="-1.41739">
        <ele>98</ele>
        <time>2022-11-11T13:24:20Z</time>
      </trkpt>
      <trkpt lat="47.03858" lon="-1.41734">
        <ele>98</ele>
        <time>2022-11-11T13:24:22Z</time>
      </trkpt>
      <trkpt lat="47.03868" lon="-1.41728">
        <ele>97</ele>
        <time>2022-11-11T13:24:24Z</time>
      </trkpt>
      <trkpt lat="47.03879" lon="-1.4172">
        <ele>97</ele>
        <time>2022-11-11T13:24:26Z</time>
      </trkpt>
      <trkpt lat="47.03889" lon="-1.41713">
        <ele>98</ele>
        <time>2022-11-11T13:24:28Z</time>
      </trkpt>
      <trkpt lat="47.03899" lon="-1.41705">
        <ele>98</ele>
        <time>2022-11-11T13:24:30Z</time>
      </trkpt>
      <trkpt lat="47.03909" lon="-1.41697">
        <ele>98</ele>
        <time>2022-11-11T13:24:32Z</time>
      </trkpt>
      <trkpt lat="47.0392" lon="-1.4169">
        <ele>98</ele>
        <time>2022-11-11T13:24:34Z</time>
      </trkpt>
      <trkpt lat="47.0393" lon="-1.41682">
        <ele>99</ele>
        <time>2022-11-11T13:24:36Z</time>
      </trkpt>
      <trkpt lat="47.0394" lon="-1.41674">
        <ele>99</ele>
        <time>2022-11-11T13:24:38Z</time>
      </trkpt>
      <trkpt lat="47.03949" lon="-1.41665">
        <ele>99</ele>
        <time>2022-11-11T13:24:40Z</time>
      </trkpt>
      <trkpt lat="47.03958" lon="-1.41657">
        <ele>99</ele>
        <time>2022-11-11T13:24:42Z</time>
      </trkpt>
      <trkpt lat="47.03967" lon="-1.41647">
        <ele>99</ele>
        <time>2022-11-11T13:24:44Z</time>
      </trkpt>
      <trkpt lat="47.03976" lon="-1.41638">
        <ele>99</ele>
        <time>2022-11-11T13:24:46Z</time>
      </trkpt>
      <trkpt lat="47.03985" lon="-1.41628">
        <ele>99</ele>
        <time>2022-11-11T13:24:48Z</time>
      </trkpt>
      <trkpt lat="47.03994" lon="-1.41619">
        <ele>100</ele>
        <time>2022-11-11T13:24:50Z</time>
      </trkpt>
      <trkpt lat="47.04002" lon="-1.4161">
        <ele>100</ele>
        <time>2022-11-11T13:24:52Z</time>
      </trkpt>
      <trkpt lat="47.04011" lon="-1.416">
        <ele>100</ele>
        <time>2022-11-11T13:24:54Z</time>
      </trkpt>
      <trkpt lat="47.0402" lon="-1.41591">
        <ele>100</ele>
        <time>2022-11-11T13:24:56Z</time>
      </trkpt>
      <trkpt lat="47.04029" lon="-1.41581">
        <ele>100</ele>
        <time>2022-11-11T13:24:58Z</time>
      </trkpt>
      <trkpt lat="47.04038" lon="-1.41573">
        <ele>100</ele>
        <time>2022-11-11T13:25:00Z</time>
      </trkpt>
      <trkpt lat="47.04047" lon="-1.41565">
        <ele>101</ele>
        <time>2022-11-11T13:25:02Z</time>
      </trkpt>
      <trkpt lat="47.04057" lon="-1.41558">
        <ele>101</ele>
        <time>2022-11-11T13:25:04Z</time>
      </trkpt>
      <trkpt lat="47.04067" lon="-1.41552">
        <ele>101</ele>
        <time>2022-11-11T13:25:06Z</time>
      </trkpt>
      <trkpt lat="47.04078" lon="-1.41547">
        <ele>101</ele>
        <time>2022-11-11T13:25:08Z</time>
      </trkpt>
      <trkpt lat="47.04089" lon="-1.41543">
        <ele>101</ele>
        <time>2022-11-11T13:25:10Z</time>
      </trkpt>
      <trkpt lat="47.041" lon="-1.41541">
        <ele>101</ele>
        <time>2022-11-11T13:25:12Z</time>
      </trkpt>
      <trkpt lat="47.04111" lon="-1.41539">
        <ele>101</ele>
        <time>2022-11-11T13:25:14Z</time>
      </trkpt>
      <trkpt lat="47.04123" lon="-1.41536">
        <ele>101</ele>
        <time>2022-11-11T13:25:16Z</time>
      </trkpt>
      <trkpt lat="47.04135" lon="-1.41534">
        <ele>100</ele>
        <time>2022-11-11T13:25:18Z</time>
      </trkpt>
      <trkpt lat="47.04146" lon="-1.41533">
        <ele>100</ele>
        <time>2022-11-11T13:25:20Z</time>
      </trkpt>
      <trkpt lat="47.04158" lon="-1.41532">
        <ele>100</ele>
        <time>2022-11-11T13:25:22Z</time>
      </trkpt>
      <trkpt lat="47.04169" lon="-1.4153">
        <ele>100</ele>
        <time>2022-11-11T13:25:24Z</time>
      </trkpt>
      <trkpt lat="47.0418" lon="-1.41528">
        <ele>100</ele>
        <time>2022-11-11T13:25:26Z</time>
      </trkpt>
      <trkpt lat="47.04191" lon="-1.41527">
        <ele>100</ele>
        <time>2022-11-11T13:25:28Z</time>
      </trkpt>
      <trkpt lat="47.04202" lon="-1.41525">
        <ele>100</ele>
        <time>2022-11-11T13:25:30Z</time>
      </trkpt>
      <trkpt lat="47.04213" lon="-1.41523">
        <ele>100</ele>
        <time>2022-11-11T13:25:32Z</time>
      </trkpt>
      <trkpt lat="47.04224" lon="-1.41521">
        <ele>100</ele>
        <time>2022-11-11T13:25:34Z</time>
      </trkpt>
      <trkpt lat="47.04236" lon="-1.4152">
        <ele>100</ele>
        <time>2022-11-11T13:25:36Z</time>
      </trkpt>
      <trkpt lat="47.04247" lon="-1.41518">
        <ele>100</ele>
        <time>2022-11-11T13:25:38Z</time>
      </trkpt>
      <trkpt lat="47.04258" lon="-1.41516">
        <ele>100</ele>
        <time>2022-11-11T13:25:40Z</time>
      </trkpt>
      <trkpt lat="47.0427" lon="-1.41514">
        <ele>99</ele>
        <time>2022-11-11T13:25:42Z</time>
      </trkpt>
      <trkpt lat="47.04281" lon="-1.41513">
        <ele>99</ele>
        <time>2022-11-11T13:25:44Z</time>
      </trkpt>
      <trkpt lat="47.04293" lon="-1.41511">
        <ele>99</ele>
        <time>2022-11-11T13:25:46Z</time>
      </trkpt>
      <trkpt lat="47.04305" lon="-1.4151">
        <ele>99</ele>
        <time>2022-11-11T13:25:48Z</time>
      </trkpt>
      <trkpt lat="47.04317" lon="-1.41507">
        <ele>99</ele>
        <time>2022-11-11T13:25:50Z</time>
      </trkpt>
      <trkpt lat="47.04329" lon="-1.41506">
        <ele>99</ele>
        <time>2022-11-11T13:25:52Z</time>
      </trkpt>
      <trkpt lat="47.04342" lon="-1.41504">
        <ele>98</ele>
        <time>2022-11-11T13:25:54Z</time>
      </trkpt>
      <trkpt lat="47.04354" lon="-1.41502">
        <ele>98</ele>
        <time>2022-11-11T13:25:56Z</time>
      </trkpt>
      <trkpt lat="47.04366" lon="-1.415">
        <ele>98</ele>
        <time>2022-11-11T13:25:58Z</time>
      </trkpt>
      <trkpt lat="47.04378" lon="-1.41498">
        <ele>98</ele>
        <time>2022-11-11T13:26:00Z</time>
      </trkpt>
      <trkpt lat="47.04391" lon="-1.41496">
        <ele>98</ele>
        <time>2022-11-11T13:26:02Z</time>
      </trkpt>
      <trkpt lat="47.04402" lon="-1.41494">
        <ele>98</ele>
        <time>2022-11-11T13:26:04Z</time>
      </trkpt>
      <trkpt lat="47.04415" lon="-1.41492">
        <ele>98</ele>
        <time>2022-11-11T13:26:06Z</time>
      </trkpt>
      <trkpt lat="47.04427" lon="-1.41489">
        <ele>98</ele>
        <time>2022-11-11T13:26:08Z</time>
      </trkpt>
      <trkpt lat="47.04439" lon="-1.41487">
        <ele>99</ele>
        <time>2022-11-11T13:26:10Z</time>
      </trkpt>
      <trkpt lat="47.04451" lon="-1.41486">
        <ele>98</ele>
        <time>2022-11-11T13:26:12Z</time>
      </trkpt>
      <trkpt lat="47.04463" lon="-1.41484">
        <ele>98</ele>
        <time>2022-11-11T13:26:14Z</time>
      </trkpt>
      <trkpt lat="47.04475" lon="-1.41484">
        <ele>99</ele>
        <time>2022-11-11T13:26:16Z</time>
      </trkpt>
      <trkpt lat="47.04487" lon="-1.41485">
        <ele>99</ele>
        <time>2022-11-11T13:26:18Z</time>
      </trkpt>
      <trkpt lat="47.04499" lon="-1.41485">
        <ele>99</ele>
        <time>2022-11-11T13:26:20Z</time>
      </trkpt>
      <trkpt lat="47.04512" lon="-1.41487">
        <ele>99</ele>
        <time>2022-11-11T13:26:22Z</time>
      </trkpt>
      <trkpt lat="47.04524" lon="-1.41488">
        <ele>98</ele>
        <time>2022-11-11T13:26:24Z</time>
      </trkpt>
      <trkpt lat="47.04537" lon="-1.41491">
        <ele>98</ele>
        <time>2022-11-11T13:26:26Z</time>
      </trkpt>
      <trkpt lat="47.0455" lon="-1.41494">
        <ele>98</ele>
        <time>2022-11-11T13:26:28Z</time>
      </trkpt>
      <trkpt lat="47.04562" lon="-1.41497">
        <ele>98</ele>
        <time>2022-11-11T13:26:30Z</time>
      </trkpt>
      <trkpt lat="47.04575" lon="-1.41501">
        <ele>98</ele>
        <time>2022-11-11T13:26:32Z</time>
      </trkpt>
      <trkpt lat="47.04588" lon="-1.41506">
        <ele>98</ele>
        <time>2022-11-11T13:26:34Z</time>
      </trkpt>
      <trkpt lat="47.046" lon="-1.4151">
        <ele>98</ele>
        <time>2022-11-11T13:26:36Z</time>
      </trkpt>
      <trkpt lat="47.04613" lon="-1.41514">
        <ele>97</ele>
        <time>2022-11-11T13:26:38Z</time>
      </trkpt>
      <trkpt lat="47.04625" lon="-1.41519">
        <ele>97</ele>
        <time>2022-11-11T13:26:40Z</time>
      </trkpt>
      <trkpt lat="47.04638" lon="-1.41523">
        <ele>97</ele>
        <time>2022-11-11T13:26:42Z</time>
      </trkpt>
      <trkpt lat="47.0465" lon="-1.41527">
        <ele>97</ele>
        <time>2022-11-11T13:26:44Z</time>
      </trkpt>
      <trkpt lat="47.04663" lon="-1.41531">
        <ele>97</ele>
        <time>2022-11-11T13:26:46Z</time>
      </trkpt>
      <trkpt lat="47.04676" lon="-1.41535">
        <ele>96</ele>
        <time>2022-11-11T13:26:48Z</time>
      </trkpt>
      <trkpt lat="47.04688" lon="-1.4154">
        <ele>96</ele>
        <time>2022-11-11T13:26:50Z</time>
      </trkpt>
      <trkpt lat="47.047" lon="-1.41544">
        <ele>97</ele>
        <time>2022-11-11T13:26:52Z</time>
      </trkpt>
      <trkpt lat="47.04713" lon="-1.41548">
        <ele>97</ele>
        <time>2022-11-11T13:26:54Z</time>
      </trkpt>
      <trkpt lat="47.04726" lon="-1.41552">
        <ele>97</ele>
        <time>2022-11-11T13:26:56Z</time>
      </trkpt>
      <trkpt lat="47.04738" lon="-1.41556">
        <ele>97</ele>
        <time>2022-11-11T13:26:58Z</time>
      </trkpt>
      <trkpt lat="47.04751" lon="-1.41561">
        <ele>96</ele>
        <time>2022-11-11T13:27:00Z</time>
      </trkpt>
      <trkpt lat="47.04763" lon="-1.41565">
        <ele>96</ele>
        <time>2022-11-11T13:27:02Z</time>
      </trkpt>
      <trkpt lat="47.04776" lon="-1.41569">
        <ele>96</ele>
        <time>2022-11-11T13:27:04Z</time>
      </trkpt>
      <trkpt lat="47.04788" lon="-1.41572">
        <ele>96</ele>
        <time>2022-11-11T13:27:06Z</time>
      </trkpt>
      <trkpt lat="47.04801" lon="-1.41575">
        <ele>96</ele>
        <time>2022-11-11T13:27:08Z</time>
      </trkpt>
      <trkpt lat="47.04813" lon="-1.41576">
        <ele>96</ele>
        <time>2022-11-11T13:27:10Z</time>
      </trkpt>
      <trkpt lat="47.04825" lon="-1.41577">
        <ele>95</ele>
        <time>2022-11-11T13:27:12Z</time>
      </trkpt>
      <trkpt lat="47.04837" lon="-1.41577">
        <ele>96</ele>
        <time>2022-11-11T13:27:14Z</time>
      </trkpt>
      <trkpt lat="47.04849" lon="-1.41576">
        <ele>96</ele>
        <time>2022-11-11T13:27:16Z</time>
      </trkpt>
      <trkpt lat="47.04862" lon="-1.41572">
        <ele>97</ele>
        <time>2022-11-11T13:27:18Z</time>
      </trkpt>
      <trkpt lat="47.04874" lon="-1.41569">
        <ele>97</ele>
        <time>2022-11-11T13:27:20Z</time>
      </trkpt>
      <trkpt lat="47.04886" lon="-1.41564">
        <ele>97</ele>
        <time>2022-11-11T13:27:22Z</time>
      </trkpt>
      <trkpt lat="47.04898" lon="-1.41559">
        <ele>97</ele>
        <time>2022-11-11T13:27:24Z</time>
      </trkpt>
      <trkpt lat="47.04909" lon="-1.41553">
        <ele>98</ele>
        <time>2022-11-11T13:27:26Z</time>
      </trkpt>
      <trkpt lat="47.04921" lon="-1.41545">
        <ele>98</ele>
        <time>2022-11-11T13:27:28Z</time>
      </trkpt>
      <trkpt lat="47.04932" lon="-1.41537">
        <ele>98</ele>
        <time>2022-11-11T13:27:30Z</time>
      </trkpt>
      <trkpt lat="47.04943" lon="-1.41527">
        <ele>99</ele>
        <time>2022-11-11T13:27:32Z</time>
      </trkpt>
      <trkpt lat="47.04953" lon="-1.41517">
        <ele>99</ele>
        <time>2022-11-11T13:27:34Z</time>
      </trkpt>
      <trkpt lat="47.04962" lon="-1.41507">
        <ele>99</ele>
        <time>2022-11-11T13:27:36Z</time>
      </trkpt>
      <trkpt lat="47.0497" lon="-1.41498">
        <ele>100</ele>
        <time>2022-11-11T13:27:38Z</time>
      </trkpt>
      <trkpt lat="47.04979" lon="-1.41489">
        <ele>100</ele>
        <time>2022-11-11T13:27:40Z</time>
      </trkpt>
      <trkpt lat="47.04987" lon="-1.41479">
        <ele>101</ele>
        <time>2022-11-11T13:27:42Z</time>
      </trkpt>
      <trkpt lat="47.04996" lon="-1.4147">
        <ele>101</ele>
        <time>2022-11-11T13:27:44Z</time>
      </trkpt>
      <trkpt lat="47.05005" lon="-1.41461">
        <ele>101</ele>
        <time>2022-11-11T13:27:46Z</time>
      </trkpt>
      <trkpt lat="47.05013" lon="-1.41452">
        <ele>101</ele>
        <time>2022-11-11T13:27:48Z</time>
      </trkpt>
      <trkpt lat="47.05021" lon="-1.41441">
        <ele>102</ele>
        <time>2022-11-11T13:27:50Z</time>
      </trkpt>
      <trkpt lat="47.0503" lon="-1.41432">
        <ele>101</ele>
        <time>2022-11-11T13:27:52Z</time>
      </trkpt>
      <trkpt lat="47.05039" lon="-1.41421">
        <ele>101</ele>
        <time>2022-11-11T13:27:54Z</time>
      </trkpt>
      <trkpt lat="47.05048" lon="-1.41411">
        <ele>101</ele>
        <time>2022-11-11T13:27:56Z</time>
      </trkpt>
      <trkpt lat="47.05057" lon="-1.41401">
        <ele>101</ele>
        <time>2022-11-11T13:27:58Z</time>
      </trkpt>
      <trkpt lat="47.05066" lon="-1.41392">
        <ele>101</ele>
        <time>2022-11-11T13:28:00Z</time>
      </trkpt>
      <trkpt lat="47.05076" lon="-1.41382">
        <ele>101</ele>
        <time>2022-11-11T13:28:02Z</time>
      </trkpt>
      <trkpt lat="47.05087" lon="-1.41372">
        <ele>100</ele>
        <time>2022-11-11T13:28:04Z</time>
      </trkpt>
      <trkpt lat="47.05098" lon="-1.41362">
        <ele>100</ele>
        <time>2022-11-11T13:28:06Z</time>
      </trkpt>
      <trkpt lat="47.0511" lon="-1.41353">
        <ele>99</ele>
        <time>2022-11-11T13:28:08Z</time>
      </trkpt>
      <trkpt lat="47.05123" lon="-1.41344">
        <ele>99</ele>
        <time>2022-11-11T13:28:10Z</time>
      </trkpt>
      <trkpt lat="47.05136" lon="-1.41336">
        <ele>98</ele>
        <time>2022-11-11T13:28:12Z</time>
      </trkpt>
      <trkpt lat="47.05149" lon="-1.41328">
        <ele>97</ele>
        <time>2022-11-11T13:28:14Z</time>
      </trkpt>
      <trkpt lat="47.05162" lon="-1.41321">
        <ele>97</ele>
        <time>2022-11-11T13:28:16Z</time>
      </trkpt>
      <trkpt lat="47.05174" lon="-1.41315">
        <ele>97</ele>
        <time>2022-11-11T13:28:18Z</time>
      </trkpt>
      <trkpt lat="47.05187" lon="-1.41309">
        <ele>96</ele>
        <time>2022-11-11T13:28:20Z</time>
      </trkpt>
      <trkpt lat="47.052" lon="-1.41305">
        <ele>96</ele>
        <time>2022-11-11T13:28:22Z</time>
      </trkpt>
      <trkpt lat="47.05213" lon="-1.41301">
        <ele>95</ele>
        <time>2022-11-11T13:28:24Z</time>
      </trkpt>
      <trkpt lat="47.05225" lon="-1.41298">
        <ele>95</ele>
        <time>2022-11-11T13:28:26Z</time>
      </trkpt>
      <trkpt lat="47.05238" lon="-1.41295">
        <ele>94</ele>
        <time>2022-11-11T13:28:28Z</time>
      </trkpt>
      <trkpt lat="47.05251" lon="-1.41293">
        <ele>94</ele>
        <time>2022-11-11T13:28:30Z</time>
      </trkpt>
      <trkpt lat="47.05264" lon="-1.4129">
        <ele>93</ele>
        <time>2022-11-11T13:28:32Z</time>
      </trkpt>
      <trkpt lat="47.05276" lon="-1.41287">
        <ele>94</ele>
        <time>2022-11-11T13:28:34Z</time>
      </trkpt>
      <trkpt lat="47.05289" lon="-1.41285">
        <ele>94</ele>
        <time>2022-11-11T13:28:36Z</time>
      </trkpt>
      <trkpt lat="47.05301" lon="-1.41283">
        <ele>93</ele>
        <time>2022-11-11T13:28:38Z</time>
      </trkpt>
      <trkpt lat="47.05313" lon="-1.4128">
        <ele>93</ele>
        <time>2022-11-11T13:28:40Z</time>
      </trkpt>
      <trkpt lat="47.05326" lon="-1.41277">
        <ele>93</ele>
        <time>2022-11-11T13:28:42Z</time>
      </trkpt>
      <trkpt lat="47.05338" lon="-1.41275">
        <ele>93</ele>
        <time>2022-11-11T13:28:44Z</time>
      </trkpt>
      <trkpt lat="47.05351" lon="-1.41272">
        <ele>93</ele>
        <time>2022-11-11T13:28:46Z</time>
      </trkpt>
      <trkpt lat="47.05363" lon="-1.4127">
        <ele>93</ele>
        <time>2022-11-11T13:28:48Z</time>
      </trkpt>
      <trkpt lat="47.05376" lon="-1.41268">
        <ele>93</ele>
        <time>2022-11-11T13:28:50Z</time>
      </trkpt>
      <trkpt lat="47.05389" lon="-1.41265">
        <ele>93</ele>
        <time>2022-11-11T13:28:52Z</time>
      </trkpt>
      <trkpt lat="47.05402" lon="-1.41263">
        <ele>93</ele>
        <time>2022-11-11T13:28:54Z</time>
      </trkpt>
      <trkpt lat="47.05414" lon="-1.41261">
        <ele>93</ele>
        <time>2022-11-11T13:28:56Z</time>
      </trkpt>
      <trkpt lat="47.05427" lon="-1.41259">
        <ele>93</ele>
        <time>2022-11-11T13:28:58Z</time>
      </trkpt>
      <trkpt lat="47.0544" lon="-1.4126">
        <ele>93</ele>
        <time>2022-11-11T13:29:00Z</time>
      </trkpt>
      <trkpt lat="47.05453" lon="-1.41263">
        <ele>93</ele>
        <time>2022-11-11T13:29:02Z</time>
      </trkpt>
      <trkpt lat="47.05466" lon="-1.41267">
        <ele>93</ele>
        <time>2022-11-11T13:29:04Z</time>
      </trkpt>
      <trkpt lat="47.05479" lon="-1.41272">
        <ele>93</ele>
        <time>2022-11-11T13:29:06Z</time>
      </trkpt>
      <trkpt lat="47.05492" lon="-1.41277">
        <ele>92</ele>
        <time>2022-11-11T13:29:08Z</time>
      </trkpt>
      <trkpt lat="47.05504" lon="-1.41284">
        <ele>93</ele>
        <time>2022-11-11T13:29:10Z</time>
      </trkpt>
      <trkpt lat="47.05517" lon="-1.41289">
        <ele>92</ele>
        <time>2022-11-11T13:29:12Z</time>
      </trkpt>
      <trkpt lat="47.0553" lon="-1.41295">
        <ele>92</ele>
        <time>2022-11-11T13:29:14Z</time>
      </trkpt>
      <trkpt lat="47.05543" lon="-1.41301">
        <ele>92</ele>
        <time>2022-11-11T13:29:16Z</time>
      </trkpt>
      <trkpt lat="47.05555" lon="-1.41306">
        <ele>92</ele>
        <time>2022-11-11T13:29:18Z</time>
      </trkpt>
      <trkpt lat="47.05568" lon="-1.41312">
        <ele>91</ele>
        <time>2022-11-11T13:29:20Z</time>
      </trkpt>
      <trkpt lat="47.05581" lon="-1.41317">
        <ele>91</ele>
        <time>2022-11-11T13:29:22Z</time>
      </trkpt>
      <trkpt lat="47.05595" lon="-1.41322">
        <ele>91</ele>
        <time>2022-11-11T13:29:24Z</time>
      </trkpt>
      <trkpt lat="47.05608" lon="-1.41324">
        <ele>91</ele>
        <time>2022-11-11T13:29:26Z</time>
      </trkpt>
      <trkpt lat="47.05621" lon="-1.41324">
        <ele>91</ele>
        <time>2022-11-11T13:29:28Z</time>
      </trkpt>
      <trkpt lat="47.05633" lon="-1.41321">
        <ele>92</ele>
        <time>2022-11-11T13:29:30Z</time>
      </trkpt>
      <trkpt lat="47.05644" lon="-1.41316">
        <ele>92</ele>
        <time>2022-11-11T13:29:32Z</time>
      </trkpt>
      <trkpt lat="47.05655" lon="-1.41311">
        <ele>92</ele>
        <time>2022-11-11T13:29:34Z</time>
      </trkpt>
      <trkpt lat="47.05666" lon="-1.41307">
        <ele>93</ele>
        <time>2022-11-11T13:29:36Z</time>
      </trkpt>
      <trkpt lat="47.05676" lon="-1.41303">
        <ele>93</ele>
        <time>2022-11-11T13:29:38Z</time>
      </trkpt>
      <trkpt lat="47.05687" lon="-1.41299">
        <ele>93</ele>
        <time>2022-11-11T13:29:40Z</time>
      </trkpt>
      <trkpt lat="47.05697" lon="-1.41294">
        <ele>94</ele>
        <time>2022-11-11T13:29:42Z</time>
      </trkpt>
      <trkpt lat="47.05707" lon="-1.4129">
        <ele>94</ele>
        <time>2022-11-11T13:29:44Z</time>
      </trkpt>
      <trkpt lat="47.05718" lon="-1.41286">
        <ele>95</ele>
        <time>2022-11-11T13:29:46Z</time>
      </trkpt>
      <trkpt lat="47.05728" lon="-1.41282">
        <ele>95</ele>
        <time>2022-11-11T13:29:48Z</time>
      </trkpt>
      <trkpt lat="47.05738" lon="-1.41278">
        <ele>95</ele>
        <time>2022-11-11T13:29:50Z</time>
      </trkpt>
      <trkpt lat="47.05748" lon="-1.41274">
        <ele>95</ele>
        <time>2022-11-11T13:29:52Z</time>
      </trkpt>
      <trkpt lat="47.05757" lon="-1.4127">
        <ele>95</ele>
        <time>2022-11-11T13:29:54Z</time>
      </trkpt>
      <trkpt lat="47.05768" lon="-1.41266">
        <ele>96</ele>
        <time>2022-11-11T13:29:56Z</time>
      </trkpt>
      <trkpt lat="47.05778" lon="-1.41262">
        <ele>96</ele>
        <time>2022-11-11T13:29:58Z</time>
      </trkpt>
      <trkpt lat="47.05787" lon="-1.41258">
        <ele>96</ele>
        <time>2022-11-11T13:30:00Z</time>
      </trkpt>
      <trkpt lat="47.05797" lon="-1.41254">
        <ele>96</ele>
        <time>2022-11-11T13:30:02Z</time>
      </trkpt>
      <trkpt lat="47.05807" lon="-1.41251">
        <ele>96</ele>
        <time>2022-11-11T13:30:04Z</time>
      </trkpt>
      <trkpt lat="47.05817" lon="-1.41247">
        <ele>97</ele>
        <time>2022-11-11T13:30:06Z</time>
      </trkpt>
      <trkpt lat="47.0583" lon="-1.41242">
        <ele>97</ele>
        <time>2022-11-11T13:30:09Z</time>
      </trkpt>
      <trkpt lat="47.0584" lon="-1.41238">
        <ele>97</ele>
        <time>2022-11-11T13:30:11Z</time>
      </trkpt>
      <trkpt lat="47.0585" lon="-1.41234">
        <ele>97</ele>
        <time>2022-11-11T13:30:13Z</time>
      </trkpt>
      <trkpt lat="47.0586" lon="-1.4123">
        <ele>97</ele>
        <time>2022-11-11T13:30:15Z</time>
      </trkpt>
      <trkpt lat="47.0587" lon="-1.41227">
        <ele>98</ele>
        <time>2022-11-11T13:30:17Z</time>
      </trkpt>
      <trkpt lat="47.05879" lon="-1.41223">
        <ele>97</ele>
        <time>2022-11-11T13:30:19Z</time>
      </trkpt>
      <trkpt lat="47.05889" lon="-1.41219">
        <ele>97</ele>
        <time>2022-11-11T13:30:21Z</time>
      </trkpt>
      <trkpt lat="47.05898" lon="-1.41215">
        <ele>97</ele>
        <time>2022-11-11T13:30:23Z</time>
      </trkpt>
      <trkpt lat="47.05908" lon="-1.41211">
        <ele>97</ele>
        <time>2022-11-11T13:30:25Z</time>
      </trkpt>
      <trkpt lat="47.05918" lon="-1.41207">
        <ele>97</ele>
        <time>2022-11-11T13:30:27Z</time>
      </trkpt>
      <trkpt lat="47.05927" lon="-1.41203">
        <ele>97</ele>
        <time>2022-11-11T13:30:29Z</time>
      </trkpt>
      <trkpt lat="47.05937" lon="-1.41199">
        <ele>97</ele>
        <time>2022-11-11T13:30:31Z</time>
      </trkpt>
      <trkpt lat="47.05947" lon="-1.41195">
        <ele>97</ele>
        <time>2022-11-11T13:30:33Z</time>
      </trkpt>
      <trkpt lat="47.05957" lon="-1.41191">
        <ele>97</ele>
        <time>2022-11-11T13:30:35Z</time>
      </trkpt>
      <trkpt lat="47.05967" lon="-1.41187">
        <ele>97</ele>
        <time>2022-11-11T13:30:37Z</time>
      </trkpt>
      <trkpt lat="47.05977" lon="-1.41182">
        <ele>96</ele>
        <time>2022-11-11T13:30:39Z</time>
      </trkpt>
      <trkpt lat="47.05987" lon="-1.41175">
        <ele>96</ele>
        <time>2022-11-11T13:30:41Z</time>
      </trkpt>
      <trkpt lat="47.05996" lon="-1.41166">
        <ele>96</ele>
        <time>2022-11-11T13:30:43Z</time>
      </trkpt>
      <trkpt lat="47.06005" lon="-1.41156">
        <ele>96</ele>
        <time>2022-11-11T13:30:45Z</time>
      </trkpt>
      <trkpt lat="47.06013" lon="-1.41146">
        <ele>96</ele>
        <time>2022-11-11T13:30:47Z</time>
      </trkpt>
      <trkpt lat="47.06022" lon="-1.41134">
        <ele>96</ele>
        <time>2022-11-11T13:30:49Z</time>
      </trkpt>
      <trkpt lat="47.06029" lon="-1.41122">
        <ele>96</ele>
        <time>2022-11-11T13:30:51Z</time>
      </trkpt>
      <trkpt lat="47.06037" lon="-1.4111">
        <ele>96</ele>
        <time>2022-11-11T13:30:53Z</time>
      </trkpt>
      <trkpt lat="47.06045" lon="-1.41098">
        <ele>96</ele>
        <time>2022-11-11T13:30:55Z</time>
      </trkpt>
      <trkpt lat="47.06053" lon="-1.41087">
        <ele>96</ele>
        <time>2022-11-11T13:30:57Z</time>
      </trkpt>
      <trkpt lat="47.06062" lon="-1.41075">
        <ele>96</ele>
        <time>2022-11-11T13:30:59Z</time>
      </trkpt>
      <trkpt lat="47.06071" lon="-1.41065">
        <ele>96</ele>
        <time>2022-11-11T13:31:01Z</time>
      </trkpt>
      <trkpt lat="47.06081" lon="-1.41055">
        <ele>96</ele>
        <time>2022-11-11T13:31:03Z</time>
      </trkpt>
      <trkpt lat="47.06092" lon="-1.41046">
        <ele>96</ele>
        <time>2022-11-11T13:31:05Z</time>
      </trkpt>
      <trkpt lat="47.06102" lon="-1.41037">
        <ele>96</ele>
        <time>2022-11-11T13:31:07Z</time>
      </trkpt>
      <trkpt lat="47.06113" lon="-1.41027">
        <ele>95</ele>
        <time>2022-11-11T13:31:09Z</time>
      </trkpt>
      <trkpt lat="47.06125" lon="-1.41017">
        <ele>94</ele>
        <time>2022-11-11T13:31:11Z</time>
      </trkpt>
      <trkpt lat="47.06137" lon="-1.41006">
        <ele>94</ele>
        <time>2022-11-11T13:31:13Z</time>
      </trkpt>
      <trkpt lat="47.06149" lon="-1.40995">
        <ele>94</ele>
        <time>2022-11-11T13:31:15Z</time>
      </trkpt>
      <trkpt lat="47.06161" lon="-1.40983">
        <ele>93</ele>
        <time>2022-11-11T13:31:17Z</time>
      </trkpt>
      <trkpt lat="47.06171" lon="-1.40969">
        <ele>93</ele>
        <time>2022-11-11T13:31:19Z</time>
      </trkpt>
      <trkpt lat="47.0618" lon="-1.40953">
        <ele>93</ele>
        <time>2022-11-11T13:31:21Z</time>
      </trkpt>
      <trkpt lat="47.06189" lon="-1.40935">
        <ele>92</ele>
        <time>2022-11-11T13:31:23Z</time>
      </trkpt>
      <trkpt lat="47.06196" lon="-1.40917">
        <ele>91</ele>
        <time>2022-11-11T13:31:25Z</time>
      </trkpt>
      <trkpt lat="47.06204" lon="-1.40898">
        <ele>90</ele>
        <time>2022-11-11T13:31:27Z</time>
      </trkpt>
      <trkpt lat="47.06212" lon="-1.40879">
        <ele>90</ele>
        <time>2022-11-11T13:31:29Z</time>
      </trkpt>
      <trkpt lat="47.06219" lon="-1.40861">
        <ele>89</ele>
        <time>2022-11-11T13:31:31Z</time>
      </trkpt>
      <trkpt lat="47.06227" lon="-1.40843">
        <ele>89</ele>
        <time>2022-11-11T13:31:33Z</time>
      </trkpt>
      <trkpt lat="47.06235" lon="-1.40826">
        <ele>89</ele>
        <time>2022-11-11T13:31:35Z</time>
      </trkpt>
      <trkpt lat="47.06244" lon="-1.40811">
        <ele>89</ele>
        <time>2022-11-11T13:31:37Z</time>
      </trkpt>
      <trkpt lat="47.06254" lon="-1.40798">
        <ele>89</ele>
        <time>2022-11-11T13:31:39Z</time>
      </trkpt>
      <trkpt lat="47.06265" lon="-1.40785">
        <ele>89</ele>
        <time>2022-11-11T13:31:41Z</time>
      </trkpt>
      <trkpt lat="47.06271" lon="-1.40767">
        <ele>88</ele>
        <time>2022-11-11T13:31:43Z</time>
      </trkpt>
      <trkpt lat="47.06271" lon="-1.40746">
        <ele>88</ele>
        <time>2022-11-11T13:31:45Z</time>
      </trkpt>
      <trkpt lat="47.06272" lon="-1.40726">
        <ele>88</ele>
        <time>2022-11-11T13:31:47Z</time>
      </trkpt>
      <trkpt lat="47.06274" lon="-1.40705">
        <ele>88</ele>
        <time>2022-11-11T13:31:49Z</time>
      </trkpt>
      <trkpt lat="47.06276" lon="-1.40684">
        <ele>87</ele>
        <time>2022-11-11T13:31:51Z</time>
      </trkpt>
      <trkpt lat="47.06277" lon="-1.40664">
        <ele>87</ele>
        <time>2022-11-11T13:31:53Z</time>
      </trkpt>
      <trkpt lat="47.06278" lon="-1.40643">
        <ele>86</ele>
        <time>2022-11-11T13:31:55Z</time>
      </trkpt>
      <trkpt lat="47.06279" lon="-1.40622">
        <ele>85</ele>
        <time>2022-11-11T13:31:57Z</time>
      </trkpt>
      <trkpt lat="47.06281" lon="-1.40601">
        <ele>85</ele>
        <time>2022-11-11T13:31:59Z</time>
      </trkpt>
      <trkpt lat="47.06284" lon="-1.40581">
        <ele>85</ele>
        <time>2022-11-11T13:32:01Z</time>
      </trkpt>
      <trkpt lat="47.06287" lon="-1.40561">
        <ele>85</ele>
        <time>2022-11-11T13:32:03Z</time>
      </trkpt>
      <trkpt lat="47.06292" lon="-1.40542">
        <ele>86</ele>
        <time>2022-11-11T13:32:05Z</time>
      </trkpt>
      <trkpt lat="47.06297" lon="-1.40523">
        <ele>86</ele>
        <time>2022-11-11T13:32:07Z</time>
      </trkpt>
      <trkpt lat="47.06302" lon="-1.40502">
        <ele>85</ele>
        <time>2022-11-11T13:32:09Z</time>
      </trkpt>
      <trkpt lat="47.06306" lon="-1.40482">
        <ele>84</ele>
        <time>2022-11-11T13:32:11Z</time>
      </trkpt>
      <trkpt lat="47.0631" lon="-1.40463">
        <ele>84</ele>
        <time>2022-11-11T13:32:13Z</time>
      </trkpt>
      <trkpt lat="47.06313" lon="-1.40443">
        <ele>83</ele>
        <time>2022-11-11T13:32:15Z</time>
      </trkpt>
      <trkpt lat="47.06318" lon="-1.40423">
        <ele>83</ele>
        <time>2022-11-11T13:32:17Z</time>
      </trkpt>
      <trkpt lat="47.06322" lon="-1.40403">
        <ele>83</ele>
        <time>2022-11-11T13:32:19Z</time>
      </trkpt>
      <trkpt lat="47.06326" lon="-1.40384">
        <ele>83</ele>
        <time>2022-11-11T13:32:21Z</time>
      </trkpt>
      <trkpt lat="47.0633" lon="-1.40364">
        <ele>82</ele>
        <time>2022-11-11T13:32:23Z</time>
      </trkpt>
      <trkpt lat="47.06334" lon="-1.40345">
        <ele>83</ele>
        <time>2022-11-11T13:32:25Z</time>
      </trkpt>
      <trkpt lat="47.06337" lon="-1.40327">
        <ele>83</ele>
        <time>2022-11-11T13:32:27Z</time>
      </trkpt>
      <trkpt lat="47.06341" lon="-1.4031">
        <ele>83</ele>
        <time>2022-11-11T13:32:29Z</time>
      </trkpt>
      <trkpt lat="47.06344" lon="-1.40293">
        <ele>84</ele>
        <time>2022-11-11T13:32:31Z</time>
      </trkpt>
      <trkpt lat="47.06347" lon="-1.40277">
        <ele>84</ele>
        <time>2022-11-11T13:32:33Z</time>
      </trkpt>
      <trkpt lat="47.06349" lon="-1.40262">
        <ele>84</ele>
        <time>2022-11-11T13:32:35Z</time>
      </trkpt>
      <trkpt lat="47.06353" lon="-1.40247">
        <ele>85</ele>
        <time>2022-11-11T13:32:37Z</time>
      </trkpt>
      <trkpt lat="47.06358" lon="-1.40234">
        <ele>85</ele>
        <time>2022-11-11T13:32:39Z</time>
      </trkpt>
      <trkpt lat="47.06363" lon="-1.40221">
        <ele>85</ele>
        <time>2022-11-11T13:32:41Z</time>
      </trkpt>
      <trkpt lat="47.06369" lon="-1.40209">
        <ele>85</ele>
        <time>2022-11-11T13:32:43Z</time>
      </trkpt>
      <trkpt lat="47.06375" lon="-1.40197">
        <ele>86</ele>
        <time>2022-11-11T13:32:45Z</time>
      </trkpt>
      <trkpt lat="47.0638" lon="-1.40185">
        <ele>87</ele>
        <time>2022-11-11T13:32:47Z</time>
      </trkpt>
      <trkpt lat="47.06385" lon="-1.40174">
        <ele>87</ele>
        <time>2022-11-11T13:32:49Z</time>
      </trkpt>
      <trkpt lat="47.06391" lon="-1.40163">
        <ele>87</ele>
        <time>2022-11-11T13:32:51Z</time>
      </trkpt>
      <trkpt lat="47.06397" lon="-1.40152">
        <ele>88</ele>
        <time>2022-11-11T13:32:53Z</time>
      </trkpt>
      <trkpt lat="47.06402" lon="-1.4014">
        <ele>88</ele>
        <time>2022-11-11T13:32:55Z</time>
      </trkpt>
      <trkpt lat="47.06408" lon="-1.40129">
        <ele>88</ele>
        <time>2022-11-11T13:32:57Z</time>
      </trkpt>
      <trkpt lat="47.06413" lon="-1.40117">
        <ele>88</ele>
        <time>2022-11-11T13:32:59Z</time>
      </trkpt>
      <trkpt lat="47.06418" lon="-1.40106">
        <ele>89</ele>
        <time>2022-11-11T13:33:01Z</time>
      </trkpt>
      <trkpt lat="47.06424" lon="-1.40095">
        <ele>89</ele>
        <time>2022-11-11T13:33:03Z</time>
      </trkpt>
      <trkpt lat="47.06429" lon="-1.40083">
        <ele>89</ele>
        <time>2022-11-11T13:33:05Z</time>
      </trkpt>
      <trkpt lat="47.06434" lon="-1.40072">
        <ele>90</ele>
        <time>2022-11-11T13:33:07Z</time>
      </trkpt>
      <trkpt lat="47.0644" lon="-1.4006">
        <ele>90</ele>
        <time>2022-11-11T13:33:09Z</time>
      </trkpt>
      <trkpt lat="47.06445" lon="-1.40048">
        <ele>90</ele>
        <time>2022-11-11T13:33:11Z</time>
      </trkpt>
      <trkpt lat="47.0645" lon="-1.40037">
        <ele>91</ele>
        <time>2022-11-11T13:33:13Z</time>
      </trkpt>
      <trkpt lat="47.06455" lon="-1.40025">
        <ele>91</ele>
        <time>2022-11-11T13:33:15Z</time>
      </trkpt>
      <trkpt lat="47.06461" lon="-1.40014">
        <ele>91</ele>
        <time>2022-11-11T13:33:17Z</time>
      </trkpt>
      <trkpt lat="47.06466" lon="-1.40003">
        <ele>91</ele>
        <time>2022-11-11T13:33:19Z</time>
      </trkpt>
      <trkpt lat="47.06472" lon="-1.39992">
        <ele>92</ele>
        <time>2022-11-11T13:33:21Z</time>
      </trkpt>
      <trkpt lat="47.06479" lon="-1.39976">
        <ele>92</ele>
        <time>2022-11-11T13:33:24Z</time>
      </trkpt>
      <trkpt lat="47.06484" lon="-1.39965">
        <ele>92</ele>
        <time>2022-11-11T13:33:26Z</time>
      </trkpt>
      <trkpt lat="47.06492" lon="-1.39949">
        <ele>93</ele>
        <time>2022-11-11T13:33:29Z</time>
      </trkpt>
      <trkpt lat="47.06497" lon="-1.39938">
        <ele>93</ele>
        <time>2022-11-11T13:33:31Z</time>
      </trkpt>
      <trkpt lat="47.06503" lon="-1.39926">
        <ele>93</ele>
        <time>2022-11-11T13:33:33Z</time>
      </trkpt>
      <trkpt lat="47.06508" lon="-1.39915">
        <ele>93</ele>
        <time>2022-11-11T13:33:35Z</time>
      </trkpt>
      <trkpt lat="47.06512" lon="-1.39904">
        <ele>93</ele>
        <time>2022-11-11T13:33:37Z</time>
      </trkpt>
      <trkpt lat="47.06516" lon="-1.39892">
        <ele>93</ele>
        <time>2022-11-11T13:33:39Z</time>
      </trkpt>
      <trkpt lat="47.0652" lon="-1.39879">
        <ele>93</ele>
        <time>2022-11-11T13:33:41Z</time>
      </trkpt>
      <trkpt lat="47.06523" lon="-1.39866">
        <ele>93</ele>
        <time>2022-11-11T13:33:43Z</time>
      </trkpt>
      <trkpt lat="47.06526" lon="-1.39853">
        <ele>93</ele>
        <time>2022-11-11T13:33:45Z</time>
      </trkpt>
      <trkpt lat="47.06529" lon="-1.39839">
        <ele>93</ele>
        <time>2022-11-11T13:33:47Z</time>
      </trkpt>
      <trkpt lat="47.06532" lon="-1.39824">
        <ele>93</ele>
        <time>2022-11-11T13:33:49Z</time>
      </trkpt>
      <trkpt lat="47.06535" lon="-1.39809">
        <ele>92</ele>
        <time>2022-11-11T13:33:51Z</time>
      </trkpt>
      <trkpt lat="47.06537" lon="-1.39794">
        <ele>92</ele>
        <time>2022-11-11T13:33:53Z</time>
      </trkpt>
      <trkpt lat="47.0654" lon="-1.3978">
        <ele>92</ele>
        <time>2022-11-11T13:33:55Z</time>
      </trkpt>
      <trkpt lat="47.06543" lon="-1.39766">
        <ele>92</ele>
        <time>2022-11-11T13:33:57Z</time>
      </trkpt>
      <trkpt lat="47.06543" lon="-1.39751">
        <ele>91</ele>
        <time>2022-11-11T13:33:59Z</time>
      </trkpt>
      <trkpt lat="47.06543" lon="-1.39735">
        <ele>91</ele>
        <time>2022-11-11T13:34:01Z</time>
      </trkpt>
      <trkpt lat="47.06539" lon="-1.39721">
        <ele>91</ele>
        <time>2022-11-11T13:34:03Z</time>
      </trkpt>
      <trkpt lat="47.06534" lon="-1.3971">
        <ele>90</ele>
        <time>2022-11-11T13:34:06Z</time>
      </trkpt>
      <trkpt lat="47.0653" lon="-1.39706">
        <ele>90</ele>
        <time>2022-11-11T13:36:07Z</time>
      </trkpt>
      <trkpt lat="47.06534" lon="-1.39692">
        <ele>89</ele>
        <time>2022-11-11T13:37:26Z</time>
      </trkpt>
      <trkpt lat="47.06541" lon="-1.39679">
        <ele>90</ele>
        <time>2022-11-11T13:37:29Z</time>
      </trkpt>
      <trkpt lat="47.06548" lon="-1.39661">
        <ele>90</ele>
        <time>2022-11-11T13:37:32Z</time>
      </trkpt>
      <trkpt lat="47.06554" lon="-1.39648">
        <ele>90</ele>
        <time>2022-11-11T13:37:34Z</time>
      </trkpt>
      <trkpt lat="47.06559" lon="-1.39634">
        <ele>90</ele>
        <time>2022-11-11T13:37:36Z</time>
      </trkpt>
      <trkpt lat="47.06565" lon="-1.3962">
        <ele>89</ele>
        <time>2022-11-11T13:37:38Z</time>
      </trkpt>
      <trkpt lat="47.0657" lon="-1.39604">
        <ele>89</ele>
        <time>2022-11-11T13:37:40Z</time>
      </trkpt>
      <trkpt lat="47.06576" lon="-1.3959">
        <ele>88</ele>
        <time>2022-11-11T13:37:42Z</time>
      </trkpt>
      <trkpt lat="47.06582" lon="-1.39574">
        <ele>88</ele>
        <time>2022-11-11T13:37:44Z</time>
      </trkpt>
      <trkpt lat="47.06588" lon="-1.39559">
        <ele>87</ele>
        <time>2022-11-11T13:37:46Z</time>
      </trkpt>
      <trkpt lat="47.06595" lon="-1.39545">
        <ele>87</ele>
        <time>2022-11-11T13:37:48Z</time>
      </trkpt>
      <trkpt lat="47.06603" lon="-1.3953">
        <ele>87</ele>
        <time>2022-11-11T13:37:50Z</time>
      </trkpt>
      <trkpt lat="47.06612" lon="-1.39516">
        <ele>87</ele>
        <time>2022-11-11T13:37:52Z</time>
      </trkpt>
      <trkpt lat="47.0662" lon="-1.39502">
        <ele>86</ele>
        <time>2022-11-11T13:37:54Z</time>
      </trkpt>
      <trkpt lat="47.06626" lon="-1.39486">
        <ele>86</ele>
        <time>2022-11-11T13:37:56Z</time>
      </trkpt>
      <trkpt lat="47.06629" lon="-1.39468">
        <ele>85</ele>
        <time>2022-11-11T13:37:58Z</time>
      </trkpt>
      <trkpt lat="47.06629" lon="-1.3945">
        <ele>85</ele>
        <time>2022-11-11T13:38:00Z</time>
      </trkpt>
      <trkpt lat="47.06626" lon="-1.39432">
        <ele>85</ele>
        <time>2022-11-11T13:38:02Z</time>
      </trkpt>
      <trkpt lat="47.06623" lon="-1.39413">
        <ele>84</ele>
        <time>2022-11-11T13:38:04Z</time>
      </trkpt>
      <trkpt lat="47.06621" lon="-1.39395">
        <ele>84</ele>
        <time>2022-11-11T13:38:06Z</time>
      </trkpt>
      <trkpt lat="47.0662" lon="-1.39376">
        <ele>84</ele>
        <time>2022-11-11T13:38:08Z</time>
      </trkpt>
      <trkpt lat="47.06621" lon="-1.39358">
        <ele>84</ele>
        <time>2022-11-11T13:38:10Z</time>
      </trkpt>
      <trkpt lat="47.06627" lon="-1.39342">
        <ele>84</ele>
        <time>2022-11-11T13:38:12Z</time>
      </trkpt>
      <trkpt lat="47.06635" lon="-1.39328">
        <ele>85</ele>
        <time>2022-11-11T13:38:14Z</time>
      </trkpt>
      <trkpt lat="47.06644" lon="-1.39317">
        <ele>85</ele>
        <time>2022-11-11T13:38:16Z</time>
      </trkpt>
      <trkpt lat="47.06652" lon="-1.39305">
        <ele>85</ele>
        <time>2022-11-11T13:38:18Z</time>
      </trkpt>
      <trkpt lat="47.06661" lon="-1.39291">
        <ele>84</ele>
        <time>2022-11-11T13:38:20Z</time>
      </trkpt>
      <trkpt lat="47.06668" lon="-1.39276">
        <ele>84</ele>
        <time>2022-11-11T13:38:22Z</time>
      </trkpt>
      <trkpt lat="47.06674" lon="-1.39261">
        <ele>85</ele>
        <time>2022-11-11T13:38:24Z</time>
      </trkpt>
      <trkpt lat="47.0668" lon="-1.39247">
        <ele>86</ele>
        <time>2022-11-11T13:38:26Z</time>
      </trkpt>
      <trkpt lat="47.06687" lon="-1.39234">
        <ele>86</ele>
        <time>2022-11-11T13:38:28Z</time>
      </trkpt>
      <trkpt lat="47.06694" lon="-1.39219">
        <ele>87</ele>
        <time>2022-11-11T13:38:30Z</time>
      </trkpt>
      <trkpt lat="47.06701" lon="-1.39204">
        <ele>86</ele>
        <time>2022-11-11T13:38:32Z</time>
      </trkpt>
      <trkpt lat="47.06708" lon="-1.3919">
        <ele>86</ele>
        <time>2022-11-11T13:38:34Z</time>
      </trkpt>
      <trkpt lat="47.06715" lon="-1.39175">
        <ele>86</ele>
        <time>2022-11-11T13:38:36Z</time>
      </trkpt>
      <trkpt lat="47.06721" lon="-1.3916">
        <ele>86</ele>
        <time>2022-11-11T13:38:38Z</time>
      </trkpt>
      <trkpt lat="47.06727" lon="-1.39146">
        <ele>86</ele>
        <time>2022-11-11T13:38:40Z</time>
      </trkpt>
      <trkpt lat="47.06733" lon="-1.39133">
        <ele>86</ele>
        <time>2022-11-11T13:38:42Z</time>
      </trkpt>
      <trkpt lat="47.06737" lon="-1.3912">
        <ele>86</ele>
        <time>2022-11-11T13:38:44Z</time>
      </trkpt>
      <trkpt lat="47.06742" lon="-1.39107">
        <ele>86</ele>
        <time>2022-11-11T13:38:46Z</time>
      </trkpt>
      <trkpt lat="47.06746" lon="-1.39095">
        <ele>86</ele>
        <time>2022-11-11T13:38:50Z</time>
      </trkpt>
      <trkpt lat="47.06754" lon="-1.39084">
        <ele>85</ele>
        <time>2022-11-11T13:38:55Z</time>
      </trkpt>
      <trkpt lat="47.06765" lon="-1.39088">
        <ele>85</ele>
        <time>2022-11-11T13:38:57Z</time>
      </trkpt>
      <trkpt lat="47.06776" lon="-1.39094">
        <ele>85</ele>
        <time>2022-11-11T13:38:59Z</time>
      </trkpt>
      <trkpt lat="47.06787" lon="-1.39099">
        <ele>85</ele>
        <time>2022-11-11T13:39:01Z</time>
      </trkpt>
      <trkpt lat="47.06798" lon="-1.39105">
        <ele>85</ele>
        <time>2022-11-11T13:39:03Z</time>
      </trkpt>
      <trkpt lat="47.0681" lon="-1.3911">
        <ele>84</ele>
        <time>2022-11-11T13:39:05Z</time>
      </trkpt>
      <trkpt lat="47.06822" lon="-1.39115">
        <ele>84</ele>
        <time>2022-11-11T13:39:07Z</time>
      </trkpt>
      <trkpt lat="47.06835" lon="-1.39119">
        <ele>84</ele>
        <time>2022-11-11T13:39:09Z</time>
      </trkpt>
      <trkpt lat="47.06848" lon="-1.39123">
        <ele>84</ele>
        <time>2022-11-11T13:39:11Z</time>
      </trkpt>
      <trkpt lat="47.06861" lon="-1.39126">
        <ele>83</ele>
        <time>2022-11-11T13:39:13Z</time>
      </trkpt>
      <trkpt lat="47.06874" lon="-1.3913">
        <ele>83</ele>
        <time>2022-11-11T13:39:15Z</time>
      </trkpt>
      <trkpt lat="47.06888" lon="-1.39133">
        <ele>82</ele>
        <time>2022-11-11T13:39:17Z</time>
      </trkpt>
      <trkpt lat="47.06902" lon="-1.39136">
        <ele>81</ele>
        <time>2022-11-11T13:39:19Z</time>
      </trkpt>
      <trkpt lat="47.06915" lon="-1.39139">
        <ele>81</ele>
        <time>2022-11-11T13:39:21Z</time>
      </trkpt>
      <trkpt lat="47.06928" lon="-1.39142">
        <ele>80</ele>
        <time>2022-11-11T13:39:23Z</time>
      </trkpt>
      <trkpt lat="47.06941" lon="-1.39146">
        <ele>80</ele>
        <time>2022-11-11T13:39:25Z</time>
      </trkpt>
      <trkpt lat="47.06954" lon="-1.39148">
        <ele>79</ele>
        <time>2022-11-11T13:39:27Z</time>
      </trkpt>
      <trkpt lat="47.06968" lon="-1.39148">
        <ele>79</ele>
        <time>2022-11-11T13:39:29Z</time>
      </trkpt>
      <trkpt lat="47.06979" lon="-1.39144">
        <ele>79</ele>
        <time>2022-11-11T13:39:31Z</time>
      </trkpt>
      <trkpt lat="47.06984" lon="-1.3913">
        <ele>80</ele>
        <time>2022-11-11T13:39:33Z</time>
      </trkpt>
      <trkpt lat="47.06985" lon="-1.39116">
        <ele>80</ele>
        <time>2022-11-11T13:39:35Z</time>
      </trkpt>
      <trkpt lat="47.06985" lon="-1.39099">
        <ele>79</ele>
        <time>2022-11-11T13:39:38Z</time>
      </trkpt>
      <trkpt lat="47.06995" lon="-1.39109">
        <ele>80</ele>
        <time>2022-11-11T13:39:42Z</time>
      </trkpt>
      <trkpt lat="47.06999" lon="-1.39121">
        <ele>80</ele>
        <time>2022-11-11T13:39:44Z</time>
      </trkpt>
      <trkpt lat="47.07008" lon="-1.39128">
        <ele>79</ele>
        <time>2022-11-11T13:39:46Z</time>
      </trkpt>
      <trkpt lat="47.07019" lon="-1.39127">
        <ele>79</ele>
        <time>2022-11-11T13:39:48Z</time>
      </trkpt>
      <trkpt lat="47.07029" lon="-1.39116">
        <ele>79</ele>
        <time>2022-11-11T13:39:50Z</time>
      </trkpt>
      <trkpt lat="47.07035" lon="-1.391">
        <ele>78</ele>
        <time>2022-11-11T13:39:52Z</time>
      </trkpt>
      <trkpt lat="47.0704" lon="-1.39081">
        <ele>78</ele>
        <time>2022-11-11T13:39:54Z</time>
      </trkpt>
      <trkpt lat="47.07041" lon="-1.39058">
        <ele>77</ele>
        <time>2022-11-11T13:39:56Z</time>
      </trkpt>
      <trkpt lat="47.07043" lon="-1.39035">
        <ele>76</ele>
        <time>2022-11-11T13:39:58Z</time>
      </trkpt>
      <trkpt lat="47.07044" lon="-1.39011">
        <ele>75</ele>
        <time>2022-11-11T13:40:00Z</time>
      </trkpt>
      <trkpt lat="47.07046" lon="-1.38985">
        <ele>73</ele>
        <time>2022-11-11T13:40:02Z</time>
      </trkpt>
      <trkpt lat="47.07047" lon="-1.3896">
        <ele>73</ele>
        <time>2022-11-11T13:40:04Z</time>
      </trkpt>
      <trkpt lat="47.07048" lon="-1.38946">
        <ele>72</ele>
        <time>2022-11-11T13:40:05Z</time>
      </trkpt>
      <trkpt lat="47.07049" lon="-1.38933">
        <ele>72</ele>
        <time>2022-11-11T13:40:06Z</time>
      </trkpt>
      <trkpt lat="47.0705" lon="-1.38919">
        <ele>71</ele>
        <time>2022-11-11T13:40:07Z</time>
      </trkpt>
      <trkpt lat="47.07051" lon="-1.38905">
        <ele>71</ele>
        <time>2022-11-11T13:40:08Z</time>
      </trkpt>
      <trkpt lat="47.07052" lon="-1.38891">
        <ele>70</ele>
        <time>2022-11-11T13:40:09Z</time>
      </trkpt>
      <trkpt lat="47.07053" lon="-1.38876">
        <ele>69</ele>
        <time>2022-11-11T13:40:10Z</time>
      </trkpt>
      <trkpt lat="47.07054" lon="-1.38862">
        <ele>69</ele>
        <time>2022-11-11T13:40:11Z</time>
      </trkpt>
      <trkpt lat="47.07054" lon="-1.38848">
        <ele>68</ele>
        <time>2022-11-11T13:40:12Z</time>
      </trkpt>
      <trkpt lat="47.07056" lon="-1.38834">
        <ele>68</ele>
        <time>2022-11-11T13:40:13Z</time>
      </trkpt>
      <trkpt lat="47.07057" lon="-1.38821">
        <ele>67</ele>
        <time>2022-11-11T13:40:14Z</time>
      </trkpt>
      <trkpt lat="47.07058" lon="-1.38808">
        <ele>67</ele>
        <time>2022-11-11T13:40:15Z</time>
      </trkpt>
      <trkpt lat="47.0706" lon="-1.38783">
        <ele>68</ele>
        <time>2022-11-11T13:40:17Z</time>
      </trkpt>
      <trkpt lat="47.07062" lon="-1.38759">
        <ele>68</ele>
        <time>2022-11-11T13:40:19Z</time>
      </trkpt>
      <trkpt lat="47.07063" lon="-1.38738">
        <ele>68</ele>
        <time>2022-11-11T13:40:21Z</time>
      </trkpt>
      <trkpt lat="47.07067" lon="-1.38717">
        <ele>68</ele>
        <time>2022-11-11T13:40:23Z</time>
      </trkpt>
      <trkpt lat="47.0707" lon="-1.38697">
        <ele>69</ele>
        <time>2022-11-11T13:40:25Z</time>
      </trkpt>
      <trkpt lat="47.07075" lon="-1.38678">
        <ele>68</ele>
        <time>2022-11-11T13:40:27Z</time>
      </trkpt>
      <trkpt lat="47.07085" lon="-1.38666">
        <ele>68</ele>
        <time>2022-11-11T13:40:29Z</time>
      </trkpt>
      <trkpt lat="47.07098" lon="-1.38657">
        <ele>68</ele>
        <time>2022-11-11T13:40:31Z</time>
      </trkpt>
      <trkpt lat="47.0711" lon="-1.38648">
        <ele>68</ele>
        <time>2022-11-11T13:40:33Z</time>
      </trkpt>
      <trkpt lat="47.07121" lon="-1.38639">
        <ele>68</ele>
        <time>2022-11-11T13:40:35Z</time>
      </trkpt>
      <trkpt lat="47.07132" lon="-1.38632">
        <ele>69</ele>
        <time>2022-11-11T13:40:37Z</time>
      </trkpt>
      <trkpt lat="47.07142" lon="-1.38624">
        <ele>69</ele>
        <time>2022-11-11T13:40:39Z</time>
      </trkpt>
      <trkpt lat="47.07152" lon="-1.38617">
        <ele>69</ele>
        <time>2022-11-11T13:40:41Z</time>
      </trkpt>
      <trkpt lat="47.07162" lon="-1.38609">
        <ele>69</ele>
        <time>2022-11-11T13:40:43Z</time>
      </trkpt>
      <trkpt lat="47.07172" lon="-1.38603">
        <ele>70</ele>
        <time>2022-11-11T13:40:45Z</time>
      </trkpt>
      <trkpt lat="47.07181" lon="-1.38597">
        <ele>70</ele>
        <time>2022-11-11T13:40:47Z</time>
      </trkpt>
      <trkpt lat="47.0719" lon="-1.38591">
        <ele>70</ele>
        <time>2022-11-11T13:40:49Z</time>
      </trkpt>
      <trkpt lat="47.072" lon="-1.38586">
        <ele>71</ele>
        <time>2022-11-11T13:40:51Z</time>
      </trkpt>
      <trkpt lat="47.0721" lon="-1.38581">
        <ele>71</ele>
        <time>2022-11-11T13:40:53Z</time>
      </trkpt>
      <trkpt lat="47.0722" lon="-1.38577">
        <ele>72</ele>
        <time>2022-11-11T13:40:55Z</time>
      </trkpt>
      <trkpt lat="47.07229" lon="-1.38574">
        <ele>73</ele>
        <time>2022-11-11T13:40:57Z</time>
      </trkpt>
      <trkpt lat="47.07239" lon="-1.38572">
        <ele>73</ele>
        <time>2022-11-11T13:40:59Z</time>
      </trkpt>
      <trkpt lat="47.07249" lon="-1.38572">
        <ele>74</ele>
        <time>2022-11-11T13:41:01Z</time>
      </trkpt>
      <trkpt lat="47.0726" lon="-1.38571">
        <ele>75</ele>
        <time>2022-11-11T13:41:03Z</time>
      </trkpt>
      <trkpt lat="47.0727" lon="-1.38572">
        <ele>75</ele>
        <time>2022-11-11T13:41:05Z</time>
      </trkpt>
      <trkpt lat="47.07279" lon="-1.38572">
        <ele>76</ele>
        <time>2022-11-11T13:41:07Z</time>
      </trkpt>
      <trkpt lat="47.07289" lon="-1.38572">
        <ele>76</ele>
        <time>2022-11-11T13:41:09Z</time>
      </trkpt>
      <trkpt lat="47.07299" lon="-1.38573">
        <ele>77</ele>
        <time>2022-11-11T13:41:11Z</time>
      </trkpt>
      <trkpt lat="47.07309" lon="-1.38574">
        <ele>78</ele>
        <time>2022-11-11T13:41:13Z</time>
      </trkpt>
      <trkpt lat="47.07318" lon="-1.38574">
        <ele>78</ele>
        <time>2022-11-11T13:41:15Z</time>
      </trkpt>
      <trkpt lat="47.07328" lon="-1.38576">
        <ele>78</ele>
        <time>2022-11-11T13:41:17Z</time>
      </trkpt>
      <trkpt lat="47.07337" lon="-1.38577">
        <ele>79</ele>
        <time>2022-11-11T13:41:19Z</time>
      </trkpt>
      <trkpt lat="47.07347" lon="-1.38578">
        <ele>80</ele>
        <time>2022-11-11T13:41:21Z</time>
      </trkpt>
      <trkpt lat="47.07357" lon="-1.38579">
        <ele>80</ele>
        <time>2022-11-11T13:41:23Z</time>
      </trkpt>
      <trkpt lat="47.07367" lon="-1.38581">
        <ele>81</ele>
        <time>2022-11-11T13:41:25Z</time>
      </trkpt>
      <trkpt lat="47.07376" lon="-1.38582">
        <ele>81</ele>
        <time>2022-11-11T13:41:27Z</time>
      </trkpt>
      <trkpt lat="47.07386" lon="-1.38583">
        <ele>82</ele>
        <time>2022-11-11T13:41:29Z</time>
      </trkpt>
      <trkpt lat="47.07396" lon="-1.38584">
        <ele>82</ele>
        <time>2022-11-11T13:41:31Z</time>
      </trkpt>
      <trkpt lat="47.07406" lon="-1.38586">
        <ele>82</ele>
        <time>2022-11-11T13:41:33Z</time>
      </trkpt>
      <trkpt lat="47.07415" lon="-1.38589">
        <ele>83</ele>
        <time>2022-11-11T13:41:35Z</time>
      </trkpt>
      <trkpt lat="47.07425" lon="-1.38591">
        <ele>83</ele>
        <time>2022-11-11T13:41:37Z</time>
      </trkpt>
      <trkpt lat="47.07435" lon="-1.38595">
        <ele>84</ele>
        <time>2022-11-11T13:41:39Z</time>
      </trkpt>
      <trkpt lat="47.07444" lon="-1.38599">
        <ele>84</ele>
        <time>2022-11-11T13:41:41Z</time>
      </trkpt>
      <trkpt lat="47.07454" lon="-1.38604">
        <ele>84</ele>
        <time>2022-11-11T13:41:43Z</time>
      </trkpt>
      <trkpt lat="47.07463" lon="-1.38608">
        <ele>84</ele>
        <time>2022-11-11T13:41:45Z</time>
      </trkpt>
      <trkpt lat="47.07472" lon="-1.38613">
        <ele>85</ele>
        <time>2022-11-11T13:41:47Z</time>
      </trkpt>
      <trkpt lat="47.07482" lon="-1.38618">
        <ele>85</ele>
        <time>2022-11-11T13:41:49Z</time>
      </trkpt>
      <trkpt lat="47.07491" lon="-1.38624">
        <ele>85</ele>
        <time>2022-11-11T13:41:51Z</time>
      </trkpt>
      <trkpt lat="47.075" lon="-1.38629">
        <ele>85</ele>
        <time>2022-11-11T13:41:53Z</time>
      </trkpt>
      <trkpt lat="47.07509" lon="-1.38634">
        <ele>85</ele>
        <time>2022-11-11T13:41:55Z</time>
      </trkpt>
      <trkpt lat="47.07519" lon="-1.3864">
        <ele>85</ele>
        <time>2022-11-11T13:41:57Z</time>
      </trkpt>
      <trkpt lat="47.07528" lon="-1.38645">
        <ele>86</ele>
        <time>2022-11-11T13:41:59Z</time>
      </trkpt>
      <trkpt lat="47.07538" lon="-1.38651">
        <ele>86</ele>
        <time>2022-11-11T13:42:01Z</time>
      </trkpt>
      <trkpt lat="47.07547" lon="-1.38656">
        <ele>86</ele>
        <time>2022-11-11T13:42:03Z</time>
      </trkpt>
      <trkpt lat="47.07557" lon="-1.38662">
        <ele>87</ele>
        <time>2022-11-11T13:42:05Z</time>
      </trkpt>
      <trkpt lat="47.07567" lon="-1.38667">
        <ele>87</ele>
        <time>2022-11-11T13:42:07Z</time>
      </trkpt>
      <trkpt lat="47.07577" lon="-1.38671">
        <ele>87</ele>
        <time>2022-11-11T13:42:09Z</time>
      </trkpt>
      <trkpt lat="47.07587" lon="-1.38675">
        <ele>87</ele>
        <time>2022-11-11T13:42:11Z</time>
      </trkpt>
      <trkpt lat="47.07597" lon="-1.38678">
        <ele>87</ele>
        <time>2022-11-11T13:42:13Z</time>
      </trkpt>
      <trkpt lat="47.07608" lon="-1.38681">
        <ele>87</ele>
        <time>2022-11-11T13:42:15Z</time>
      </trkpt>
      <trkpt lat="47.07619" lon="-1.38683">
        <ele>87</ele>
        <time>2022-11-11T13:42:17Z</time>
      </trkpt>
      <trkpt lat="47.0763" lon="-1.38685">
        <ele>87</ele>
        <time>2022-11-11T13:42:19Z</time>
      </trkpt>
      <trkpt lat="47.07641" lon="-1.38687">
        <ele>87</ele>
        <time>2022-11-11T13:42:21Z</time>
      </trkpt>
      <trkpt lat="47.07652" lon="-1.38689">
        <ele>86</ele>
        <time>2022-11-11T13:42:23Z</time>
      </trkpt>
      <trkpt lat="47.07663" lon="-1.38691">
        <ele>86</ele>
        <time>2022-11-11T13:42:25Z</time>
      </trkpt>
      <trkpt lat="47.07674" lon="-1.38693">
        <ele>86</ele>
        <time>2022-11-11T13:42:27Z</time>
      </trkpt>
      <trkpt lat="47.07686" lon="-1.38695">
        <ele>86</ele>
        <time>2022-11-11T13:42:29Z</time>
      </trkpt>
      <trkpt lat="47.07698" lon="-1.38697">
        <ele>86</ele>
        <time>2022-11-11T13:42:31Z</time>
      </trkpt>
      <trkpt lat="47.07711" lon="-1.38699">
        <ele>86</ele>
        <time>2022-11-11T13:42:33Z</time>
      </trkpt>
      <trkpt lat="47.07723" lon="-1.38701">
        <ele>85</ele>
        <time>2022-11-11T13:42:35Z</time>
      </trkpt>
      <trkpt lat="47.07735" lon="-1.38703">
        <ele>85</ele>
        <time>2022-11-11T13:42:37Z</time>
      </trkpt>
      <trkpt lat="47.07749" lon="-1.38706">
        <ele>84</ele>
        <time>2022-11-11T13:42:39Z</time>
      </trkpt>
      <trkpt lat="47.07762" lon="-1.38708">
        <ele>84</ele>
        <time>2022-11-11T13:42:41Z</time>
      </trkpt>
      <trkpt lat="47.07775" lon="-1.38711">
        <ele>84</ele>
        <time>2022-11-11T13:42:43Z</time>
      </trkpt>
      <trkpt lat="47.07788" lon="-1.38713">
        <ele>84</ele>
        <time>2022-11-11T13:42:45Z</time>
      </trkpt>
      <trkpt lat="47.07802" lon="-1.38715">
        <ele>84</ele>
        <time>2022-11-11T13:42:47Z</time>
      </trkpt>
      <trkpt lat="47.07815" lon="-1.38718">
        <ele>84</ele>
        <time>2022-11-11T13:42:49Z</time>
      </trkpt>
      <trkpt lat="47.07828" lon="-1.38721">
        <ele>84</ele>
        <time>2022-11-11T13:42:51Z</time>
      </trkpt>
      <trkpt lat="47.07842" lon="-1.38723">
        <ele>83</ele>
        <time>2022-11-11T13:42:53Z</time>
      </trkpt>
      <trkpt lat="47.07855" lon="-1.38725">
        <ele>83</ele>
        <time>2022-11-11T13:42:55Z</time>
      </trkpt>
      <trkpt lat="47.07868" lon="-1.38728">
        <ele>83</ele>
        <time>2022-11-11T13:42:57Z</time>
      </trkpt>
      <trkpt lat="47.0788" lon="-1.3873">
        <ele>84</ele>
        <time>2022-11-11T13:42:59Z</time>
      </trkpt>
      <trkpt lat="47.07892" lon="-1.38733">
        <ele>84</ele>
        <time>2022-11-11T13:43:01Z</time>
      </trkpt>
      <trkpt lat="47.07904" lon="-1.38734">
        <ele>84</ele>
        <time>2022-11-11T13:43:03Z</time>
      </trkpt>
      <trkpt lat="47.07915" lon="-1.38736">
        <ele>84</ele>
        <time>2022-11-11T13:43:05Z</time>
      </trkpt>
      <trkpt lat="47.07926" lon="-1.38738">
        <ele>84</ele>
        <time>2022-11-11T13:43:07Z</time>
      </trkpt>
      <trkpt lat="47.07936" lon="-1.38739">
        <ele>85</ele>
        <time>2022-11-11T13:43:09Z</time>
      </trkpt>
      <trkpt lat="47.07946" lon="-1.38741">
        <ele>85</ele>
        <time>2022-11-11T13:43:11Z</time>
      </trkpt>
      <trkpt lat="47.07956" lon="-1.38743">
        <ele>85</ele>
        <time>2022-11-11T13:43:13Z</time>
      </trkpt>
      <trkpt lat="47.07967" lon="-1.38745">
        <ele>86</ele>
        <time>2022-11-11T13:43:15Z</time>
      </trkpt>
      <trkpt lat="47.07977" lon="-1.38746">
        <ele>86</ele>
        <time>2022-11-11T13:43:17Z</time>
      </trkpt>
      <trkpt lat="47.07988" lon="-1.38748">
        <ele>87</ele>
        <time>2022-11-11T13:43:19Z</time>
      </trkpt>
      <trkpt lat="47.07998" lon="-1.38751">
        <ele>87</ele>
        <time>2022-11-11T13:43:21Z</time>
      </trkpt>
      <trkpt lat="47.08009" lon="-1.38753">
        <ele>88</ele>
        <time>2022-11-11T13:43:23Z</time>
      </trkpt>
      <trkpt lat="47.08019" lon="-1.38754">
        <ele>88</ele>
        <time>2022-11-11T13:43:25Z</time>
      </trkpt>
      <trkpt lat="47.08029" lon="-1.38756">
        <ele>88</ele>
        <time>2022-11-11T13:43:27Z</time>
      </trkpt>
      <trkpt lat="47.08039" lon="-1.38758">
        <ele>89</ele>
        <time>2022-11-11T13:43:29Z</time>
      </trkpt>
      <trkpt lat="47.08049" lon="-1.38759">
        <ele>89</ele>
        <time>2022-11-11T13:43:31Z</time>
      </trkpt>
      <trkpt lat="47.0806" lon="-1.38761">
        <ele>89</ele>
        <time>2022-11-11T13:43:33Z</time>
      </trkpt>
      <trkpt lat="47.08071" lon="-1.38763">
        <ele>89</ele>
        <time>2022-11-11T13:43:35Z</time>
      </trkpt>
      <trkpt lat="47.08081" lon="-1.38765">
        <ele>90</ele>
        <time>2022-11-11T13:43:37Z</time>
      </trkpt>
      <trkpt lat="47.08091" lon="-1.38766">
        <ele>90</ele>
        <time>2022-11-11T13:43:39Z</time>
      </trkpt>
      <trkpt lat="47.08102" lon="-1.38768">
        <ele>90</ele>
        <time>2022-11-11T13:43:41Z</time>
      </trkpt>
      <trkpt lat="47.08112" lon="-1.3877">
        <ele>90</ele>
        <time>2022-11-11T13:43:43Z</time>
      </trkpt>
      <trkpt lat="47.08123" lon="-1.38772">
        <ele>90</ele>
        <time>2022-11-11T13:43:45Z</time>
      </trkpt>
      <trkpt lat="47.08134" lon="-1.38774">
        <ele>91</ele>
        <time>2022-11-11T13:43:47Z</time>
      </trkpt>
      <trkpt lat="47.08144" lon="-1.38776">
        <ele>91</ele>
        <time>2022-11-11T13:43:49Z</time>
      </trkpt>
      <trkpt lat="47.08154" lon="-1.38777">
        <ele>91</ele>
        <time>2022-11-11T13:43:51Z</time>
      </trkpt>
      <trkpt lat="47.08164" lon="-1.38779">
        <ele>90</ele>
        <time>2022-11-11T13:43:53Z</time>
      </trkpt>
      <trkpt lat="47.08175" lon="-1.38781">
        <ele>91</ele>
        <time>2022-11-11T13:43:55Z</time>
      </trkpt>
      <trkpt lat="47.08186" lon="-1.38783">
        <ele>91</ele>
        <time>2022-11-11T13:43:57Z</time>
      </trkpt>
      <trkpt lat="47.08196" lon="-1.38785">
        <ele>91</ele>
        <time>2022-11-11T13:43:59Z</time>
      </trkpt>
      <trkpt lat="47.08207" lon="-1.38787">
        <ele>91</ele>
        <time>2022-11-11T13:44:01Z</time>
      </trkpt>
      <trkpt lat="47.08218" lon="-1.38789">
        <ele>91</ele>
        <time>2022-11-11T13:44:03Z</time>
      </trkpt>
      <trkpt lat="47.08229" lon="-1.38791">
        <ele>91</ele>
        <time>2022-11-11T13:44:05Z</time>
      </trkpt>
      <trkpt lat="47.0824" lon="-1.38793">
        <ele>91</ele>
        <time>2022-11-11T13:44:07Z</time>
      </trkpt>
      <trkpt lat="47.08252" lon="-1.38796">
        <ele>91</ele>
        <time>2022-11-11T13:44:09Z</time>
      </trkpt>
      <trkpt lat="47.08263" lon="-1.38797">
        <ele>91</ele>
        <time>2022-11-11T13:44:11Z</time>
      </trkpt>
      <trkpt lat="47.0828" lon="-1.388">
        <ele>91</ele>
        <time>2022-11-11T13:44:14Z</time>
      </trkpt>
      <trkpt lat="47.08291" lon="-1.38802">
        <ele>91</ele>
        <time>2022-11-11T13:44:16Z</time>
      </trkpt>
      <trkpt lat="47.08308" lon="-1.38804">
        <ele>91</ele>
        <time>2022-11-11T13:44:19Z</time>
      </trkpt>
      <trkpt lat="47.08319" lon="-1.38806">
        <ele>91</ele>
        <time>2022-11-11T13:44:21Z</time>
      </trkpt>
      <trkpt lat="47.0833" lon="-1.38808">
        <ele>92</ele>
        <time>2022-11-11T13:44:23Z</time>
      </trkpt>
      <trkpt lat="47.08341" lon="-1.3881">
        <ele>91</ele>
        <time>2022-11-11T13:44:25Z</time>
      </trkpt>
      <trkpt lat="47.08353" lon="-1.38812">
        <ele>92</ele>
        <time>2022-11-11T13:44:27Z</time>
      </trkpt>
      <trkpt lat="47.08369" lon="-1.38815">
        <ele>92</ele>
        <time>2022-11-11T13:44:30Z</time>
      </trkpt>
      <trkpt lat="47.08381" lon="-1.38817">
        <ele>92</ele>
        <time>2022-11-11T13:44:32Z</time>
      </trkpt>
      <trkpt lat="47.08392" lon="-1.38819">
        <ele>92</ele>
        <time>2022-11-11T13:44:34Z</time>
      </trkpt>
      <trkpt lat="47.08403" lon="-1.38821">
        <ele>92</ele>
        <time>2022-11-11T13:44:36Z</time>
      </trkpt>
      <trkpt lat="47.08414" lon="-1.38823">
        <ele>92</ele>
        <time>2022-11-11T13:44:38Z</time>
      </trkpt>
      <trkpt lat="47.08425" lon="-1.38825">
        <ele>92</ele>
        <time>2022-11-11T13:44:40Z</time>
      </trkpt>
      <trkpt lat="47.08437" lon="-1.38827">
        <ele>93</ele>
        <time>2022-11-11T13:44:42Z</time>
      </trkpt>
      <trkpt lat="47.08448" lon="-1.38829">
        <ele>93</ele>
        <time>2022-11-11T13:44:44Z</time>
      </trkpt>
      <trkpt lat="47.08459" lon="-1.38831">
        <ele>93</ele>
        <time>2022-11-11T13:44:46Z</time>
      </trkpt>
      <trkpt lat="47.08477" lon="-1.38834">
        <ele>93</ele>
        <time>2022-11-11T13:44:49Z</time>
      </trkpt>
      <trkpt lat="47.08489" lon="-1.38836">
        <ele>93</ele>
        <time>2022-11-11T13:44:51Z</time>
      </trkpt>
      <trkpt lat="47.085" lon="-1.38838">
        <ele>93</ele>
        <time>2022-11-11T13:44:53Z</time>
      </trkpt>
      <trkpt lat="47.08511" lon="-1.3884">
        <ele>93</ele>
        <time>2022-11-11T13:44:55Z</time>
      </trkpt>
      <trkpt lat="47.08523" lon="-1.38842">
        <ele>94</ele>
        <time>2022-11-11T13:44:57Z</time>
      </trkpt>
      <trkpt lat="47.08534" lon="-1.38844">
        <ele>94</ele>
        <time>2022-11-11T13:44:59Z</time>
      </trkpt>
      <trkpt lat="47.08545" lon="-1.38846">
        <ele>94</ele>
        <time>2022-11-11T13:45:01Z</time>
      </trkpt>
      <trkpt lat="47.08556" lon="-1.38848">
        <ele>94</ele>
        <time>2022-11-11T13:45:03Z</time>
      </trkpt>
      <trkpt lat="47.08567" lon="-1.3885">
        <ele>94</ele>
        <time>2022-11-11T13:45:05Z</time>
      </trkpt>
      <trkpt lat="47.08579" lon="-1.38851">
        <ele>94</ele>
        <time>2022-11-11T13:45:07Z</time>
      </trkpt>
      <trkpt lat="47.0859" lon="-1.38854">
        <ele>94</ele>
        <time>2022-11-11T13:45:09Z</time>
      </trkpt>
      <trkpt lat="47.08601" lon="-1.38856">
        <ele>95</ele>
        <time>2022-11-11T13:45:11Z</time>
      </trkpt>
      <trkpt lat="47.08612" lon="-1.38858">
        <ele>95</ele>
        <time>2022-11-11T13:45:13Z</time>
      </trkpt>
      <trkpt lat="47.08623" lon="-1.3886">
        <ele>95</ele>
        <time>2022-11-11T13:45:15Z</time>
      </trkpt>
      <trkpt lat="47.08634" lon="-1.38862">
        <ele>95</ele>
        <time>2022-11-11T13:45:17Z</time>
      </trkpt>
      <trkpt lat="47.08645" lon="-1.38863">
        <ele>94</ele>
        <time>2022-11-11T13:45:19Z</time>
      </trkpt>
      <trkpt lat="47.08656" lon="-1.38865">
        <ele>94</ele>
        <time>2022-11-11T13:45:21Z</time>
      </trkpt>
      <trkpt lat="47.08667" lon="-1.38867">
        <ele>94</ele>
        <time>2022-11-11T13:45:23Z</time>
      </trkpt>
      <trkpt lat="47.08678" lon="-1.38869">
        <ele>94</ele>
        <time>2022-11-11T13:45:25Z</time>
      </trkpt>
      <trkpt lat="47.08689" lon="-1.38871">
        <ele>94</ele>
        <time>2022-11-11T13:45:27Z</time>
      </trkpt>
      <trkpt lat="47.087" lon="-1.38872">
        <ele>95</ele>
        <time>2022-11-11T13:45:29Z</time>
      </trkpt>
      <trkpt lat="47.08712" lon="-1.38874">
        <ele>95</ele>
        <time>2022-11-11T13:45:31Z</time>
      </trkpt>
      <trkpt lat="47.08723" lon="-1.38877">
        <ele>95</ele>
        <time>2022-11-11T13:45:33Z</time>
      </trkpt>
      <trkpt lat="47.08734" lon="-1.38879">
        <ele>95</ele>
        <time>2022-11-11T13:45:35Z</time>
      </trkpt>
      <trkpt lat="47.08746" lon="-1.38881">
        <ele>96</ele>
        <time>2022-11-11T13:45:37Z</time>
      </trkpt>
      <trkpt lat="47.08756" lon="-1.38883">
        <ele>96</ele>
        <time>2022-11-11T13:45:39Z</time>
      </trkpt>
      <trkpt lat="47.08768" lon="-1.38884">
        <ele>96</ele>
        <time>2022-11-11T13:45:41Z</time>
      </trkpt>
      <trkpt lat="47.08779" lon="-1.38886">
        <ele>96</ele>
        <time>2022-11-11T13:45:43Z</time>
      </trkpt>
      <trkpt lat="47.0879" lon="-1.38888">
        <ele>96</ele>
        <time>2022-11-11T13:45:45Z</time>
      </trkpt>
      <trkpt lat="47.08801" lon="-1.3889">
        <ele>96</ele>
        <time>2022-11-11T13:45:47Z</time>
      </trkpt>
      <trkpt lat="47.08812" lon="-1.38892">
        <ele>96</ele>
        <time>2022-11-11T13:45:49Z</time>
      </trkpt>
      <trkpt lat="47.08824" lon="-1.38894">
        <ele>96</ele>
        <time>2022-11-11T13:45:51Z</time>
      </trkpt>
      <trkpt lat="47.08836" lon="-1.38896">
        <ele>95</ele>
        <time>2022-11-11T13:45:53Z</time>
      </trkpt>
      <trkpt lat="47.08847" lon="-1.38898">
        <ele>95</ele>
        <time>2022-11-11T13:45:55Z</time>
      </trkpt>
      <trkpt lat="47.0886" lon="-1.389">
        <ele>95</ele>
        <time>2022-11-11T13:45:57Z</time>
      </trkpt>
      <trkpt lat="47.08872" lon="-1.38902">
        <ele>95</ele>
        <time>2022-11-11T13:45:59Z</time>
      </trkpt>
      <trkpt lat="47.08885" lon="-1.38904">
        <ele>94</ele>
        <time>2022-11-11T13:46:01Z</time>
      </trkpt>
      <trkpt lat="47.08898" lon="-1.38906">
        <ele>94</ele>
        <time>2022-11-11T13:46:03Z</time>
      </trkpt>
      <trkpt lat="47.08912" lon="-1.38909">
        <ele>94</ele>
        <time>2022-11-11T13:46:05Z</time>
      </trkpt>
      <trkpt lat="47.08926" lon="-1.38911">
        <ele>93</ele>
        <time>2022-11-11T13:46:07Z</time>
      </trkpt>
      <trkpt lat="47.0894" lon="-1.38913">
        <ele>93</ele>
        <time>2022-11-11T13:46:09Z</time>
      </trkpt>
      <trkpt lat="47.08954" lon="-1.38915">
        <ele>93</ele>
        <time>2022-11-11T13:46:11Z</time>
      </trkpt>
      <trkpt lat="47.08969" lon="-1.38917">
        <ele>93</ele>
        <time>2022-11-11T13:46:13Z</time>
      </trkpt>
      <trkpt lat="47.08984" lon="-1.38918">
        <ele>93</ele>
        <time>2022-11-11T13:46:15Z</time>
      </trkpt>
      <trkpt lat="47.08999" lon="-1.38919">
        <ele>93</ele>
        <time>2022-11-11T13:46:17Z</time>
      </trkpt>
      <trkpt lat="47.09014" lon="-1.38917">
        <ele>92</ele>
        <time>2022-11-11T13:46:19Z</time>
      </trkpt>
      <trkpt lat="47.09028" lon="-1.38915">
        <ele>91</ele>
        <time>2022-11-11T13:46:21Z</time>
      </trkpt>
      <trkpt lat="47.09042" lon="-1.38912">
        <ele>91</ele>
        <time>2022-11-11T13:46:23Z</time>
      </trkpt>
      <trkpt lat="47.09057" lon="-1.38909">
        <ele>91</ele>
        <time>2022-11-11T13:46:25Z</time>
      </trkpt>
      <trkpt lat="47.09071" lon="-1.38906">
        <ele>91</ele>
        <time>2022-11-11T13:46:27Z</time>
      </trkpt>
      <trkpt lat="47.09085" lon="-1.38902">
        <ele>91</ele>
        <time>2022-11-11T13:46:29Z</time>
      </trkpt>
      <trkpt lat="47.09099" lon="-1.38898">
        <ele>90</ele>
        <time>2022-11-11T13:46:31Z</time>
      </trkpt>
      <trkpt lat="47.09114" lon="-1.38894">
        <ele>90</ele>
        <time>2022-11-11T13:46:33Z</time>
      </trkpt>
      <trkpt lat="47.09128" lon="-1.38889">
        <ele>90</ele>
        <time>2022-11-11T13:46:35Z</time>
      </trkpt>
      <trkpt lat="47.09143" lon="-1.38883">
        <ele>90</ele>
        <time>2022-11-11T13:46:37Z</time>
      </trkpt>
      <trkpt lat="47.09156" lon="-1.38876">
        <ele>90</ele>
        <time>2022-11-11T13:46:39Z</time>
      </trkpt>
      <trkpt lat="47.09169" lon="-1.38867">
        <ele>90</ele>
        <time>2022-11-11T13:46:41Z</time>
      </trkpt>
      <trkpt lat="47.09182" lon="-1.38858">
        <ele>89</ele>
        <time>2022-11-11T13:46:43Z</time>
      </trkpt>
      <trkpt lat="47.09195" lon="-1.38847">
        <ele>89</ele>
        <time>2022-11-11T13:46:45Z</time>
      </trkpt>
      <trkpt lat="47.09209" lon="-1.38836">
        <ele>88</ele>
        <time>2022-11-11T13:46:47Z</time>
      </trkpt>
      <trkpt lat="47.09221" lon="-1.38825">
        <ele>88</ele>
        <time>2022-11-11T13:46:49Z</time>
      </trkpt>
      <trkpt lat="47.09234" lon="-1.38814">
        <ele>88</ele>
        <time>2022-11-11T13:46:51Z</time>
      </trkpt>
      <trkpt lat="47.09247" lon="-1.38803">
        <ele>87</ele>
        <time>2022-11-11T13:46:53Z</time>
      </trkpt>
      <trkpt lat="47.0926" lon="-1.38793">
        <ele>87</ele>
        <time>2022-11-11T13:46:55Z</time>
      </trkpt>
      <trkpt lat="47.09272" lon="-1.38783">
        <ele>87</ele>
        <time>2022-11-11T13:46:57Z</time>
      </trkpt>
      <trkpt lat="47.09285" lon="-1.38772">
        <ele>86</ele>
        <time>2022-11-11T13:46:59Z</time>
      </trkpt>
      <trkpt lat="47.09296" lon="-1.38762">
        <ele>86</ele>
        <time>2022-11-11T13:47:01Z</time>
      </trkpt>
      <trkpt lat="47.09308" lon="-1.38753">
        <ele>86</ele>
        <time>2022-11-11T13:47:03Z</time>
      </trkpt>
      <trkpt lat="47.09319" lon="-1.38743">
        <ele>86</ele>
        <time>2022-11-11T13:47:05Z</time>
      </trkpt>
      <trkpt lat="47.09329" lon="-1.38733">
        <ele>86</ele>
        <time>2022-11-11T13:47:07Z</time>
      </trkpt>
      <trkpt lat="47.0934" lon="-1.38722">
        <ele>86</ele>
        <time>2022-11-11T13:47:09Z</time>
      </trkpt>
      <trkpt lat="47.0935" lon="-1.38711">
        <ele>86</ele>
        <time>2022-11-11T13:47:11Z</time>
      </trkpt>
      <trkpt lat="47.0936" lon="-1.387">
        <ele>86</ele>
        <time>2022-11-11T13:47:13Z</time>
      </trkpt>
      <trkpt lat="47.0937" lon="-1.38687">
        <ele>86</ele>
        <time>2022-11-11T13:47:15Z</time>
      </trkpt>
      <trkpt lat="47.0938" lon="-1.38675">
        <ele>86</ele>
        <time>2022-11-11T13:47:17Z</time>
      </trkpt>
      <trkpt lat="47.09389" lon="-1.38663">
        <ele>86</ele>
        <time>2022-11-11T13:47:19Z</time>
      </trkpt>
      <trkpt lat="47.09398" lon="-1.38652">
        <ele>87</ele>
        <time>2022-11-11T13:47:21Z</time>
      </trkpt>
      <trkpt lat="47.09405" lon="-1.38641">
        <ele>87</ele>
        <time>2022-11-11T13:47:23Z</time>
      </trkpt>
      <trkpt lat="47.09412" lon="-1.38631">
        <ele>88</ele>
        <time>2022-11-11T13:47:25Z</time>
      </trkpt>
      <trkpt lat="47.0942" lon="-1.38622">
        <ele>89</ele>
        <time>2022-11-11T13:47:27Z</time>
      </trkpt>
      <trkpt lat="47.09427" lon="-1.38613">
        <ele>89</ele>
        <time>2022-11-11T13:47:29Z</time>
      </trkpt>
      <trkpt lat="47.09435" lon="-1.38604">
        <ele>90</ele>
        <time>2022-11-11T13:47:31Z</time>
      </trkpt>
      <trkpt lat="47.09442" lon="-1.38594">
        <ele>91</ele>
        <time>2022-11-11T13:47:33Z</time>
      </trkpt>
      <trkpt lat="47.0945" lon="-1.38584">
        <ele>91</ele>
        <time>2022-11-11T13:47:35Z</time>
      </trkpt>
      <trkpt lat="47.09458" lon="-1.38576">
        <ele>91</ele>
        <time>2022-11-11T13:47:37Z</time>
      </trkpt>
      <trkpt lat="47.09469" lon="-1.38564">
        <ele>93</ele>
        <time>2022-11-11T13:47:40Z</time>
      </trkpt>
      <trkpt lat="47.09476" lon="-1.38556">
        <ele>93</ele>
        <time>2022-11-11T13:47:42Z</time>
      </trkpt>
      <trkpt lat="47.09484" lon="-1.3855">
        <ele>93</ele>
        <time>2022-11-11T13:47:44Z</time>
      </trkpt>
      <trkpt lat="47.09493" lon="-1.38544">
        <ele>94</ele>
        <time>2022-11-11T13:47:46Z</time>
      </trkpt>
      <trkpt lat="47.09505" lon="-1.38539">
        <ele>94</ele>
        <time>2022-11-11T13:47:49Z</time>
      </trkpt>
      <trkpt lat="47.09517" lon="-1.38534">
        <ele>95</ele>
        <time>2022-11-11T13:47:52Z</time>
      </trkpt>
      <trkpt lat="47.0953" lon="-1.38531">
        <ele>96</ele>
        <time>2022-11-11T13:47:55Z</time>
      </trkpt>
      <trkpt lat="47.09542" lon="-1.38529">
        <ele>97</ele>
        <time>2022-11-11T13:47:58Z</time>
      </trkpt>
      <trkpt lat="47.09554" lon="-1.38528">
        <ele>97</ele>
        <time>2022-11-11T13:48:01Z</time>
      </trkpt>
      <trkpt lat="47.09566" lon="-1.38526">
        <ele>98</ele>
        <time>2022-11-11T13:48:04Z</time>
      </trkpt>
      <trkpt lat="47.09578" lon="-1.38525">
        <ele>98</ele>
        <time>2022-11-11T13:48:07Z</time>
      </trkpt>
      <trkpt lat="47.0959" lon="-1.38524">
        <ele>99</ele>
        <time>2022-11-11T13:48:10Z</time>
      </trkpt>
      <trkpt lat="47.09602" lon="-1.38523">
        <ele>99</ele>
        <time>2022-11-11T13:48:13Z</time>
      </trkpt>
      <trkpt lat="47.09613" lon="-1.38522">
        <ele>99</ele>
        <time>2022-11-11T13:48:16Z</time>
      </trkpt>
      <trkpt lat="47.09625" lon="-1.3852">
        <ele>100</ele>
        <time>2022-11-11T13:48:19Z</time>
      </trkpt>
      <trkpt lat="47.09636" lon="-1.38518">
        <ele>100</ele>
        <time>2022-11-11T13:48:22Z</time>
      </trkpt>
      <trkpt lat="47.09648" lon="-1.38516">
        <ele>101</ele>
        <time>2022-11-11T13:48:25Z</time>
      </trkpt>
      <trkpt lat="47.09659" lon="-1.38514">
        <ele>101</ele>
        <time>2022-11-11T13:48:28Z</time>
      </trkpt>
      <trkpt lat="47.09669" lon="-1.38512">
        <ele>102</ele>
        <time>2022-11-11T13:48:31Z</time>
      </trkpt>
      <trkpt lat="47.0968" lon="-1.3851">
        <ele>103</ele>
        <time>2022-11-11T13:48:34Z</time>
      </trkpt>
      <trkpt lat="47.09691" lon="-1.38509">
        <ele>103</ele>
        <time>2022-11-11T13:48:37Z</time>
      </trkpt>
      <trkpt lat="47.09702" lon="-1.38508">
        <ele>104</ele>
        <time>2022-11-11T13:48:40Z</time>
      </trkpt>
      <trkpt lat="47.0971" lon="-1.38503">
        <ele>104</ele>
        <time>2022-11-11T13:48:43Z</time>
      </trkpt>
      <trkpt lat="47.09714" lon="-1.38488">
        <ele>104</ele>
        <time>2022-11-11T13:48:46Z</time>
      </trkpt>
      <trkpt lat="47.09712" lon="-1.38471">
        <ele>104</ele>
        <time>2022-11-11T13:48:49Z</time>
      </trkpt>
      <trkpt lat="47.09711" lon="-1.38453">
        <ele>105</ele>
        <time>2022-11-11T13:48:52Z</time>
      </trkpt>
      <trkpt lat="47.09711" lon="-1.38439">
        <ele>105</ele>
        <time>2022-11-11T13:48:54Z</time>
      </trkpt>
      <trkpt lat="47.0971" lon="-1.3842">
        <ele>106</ele>
        <time>2022-11-11T13:48:57Z</time>
      </trkpt>
      <trkpt lat="47.0971" lon="-1.38407">
        <ele>106</ele>
        <time>2022-11-11T13:48:59Z</time>
      </trkpt>
      <trkpt lat="47.09718" lon="-1.38394">
        <ele>107</ele>
        <time>2022-11-11T13:49:02Z</time>
      </trkpt>
      <trkpt lat="47.09731" lon="-1.38394">
        <ele>108</ele>
        <time>2022-11-11T13:49:05Z</time>
      </trkpt>
      <trkpt lat="47.0974" lon="-1.38384">
        <ele>108</ele>
        <time>2022-11-11T13:49:09Z</time>
      </trkpt>
      <trkpt lat="47.09742" lon="-1.38371">
        <ele>108</ele>
        <time>2022-11-11T13:49:11Z</time>
      </trkpt>
      <trkpt lat="47.09745" lon="-1.38358">
        <ele>108</ele>
        <time>2022-11-11T13:49:13Z</time>
      </trkpt>
      <trkpt lat="47.09752" lon="-1.38349">
        <ele>107</ele>
        <time>2022-11-11T13:49:15Z</time>
      </trkpt>
      <trkpt lat="47.09762" lon="-1.38344">
        <ele>107</ele>
        <time>2022-11-11T13:49:17Z</time>
      </trkpt>
      <trkpt lat="47.09772" lon="-1.3834">
        <ele>107</ele>
        <time>2022-11-11T13:49:19Z</time>
      </trkpt>
      <trkpt lat="47.09782" lon="-1.38335">
        <ele>108</ele>
        <time>2022-11-11T13:49:21Z</time>
      </trkpt>
      <trkpt lat="47.09792" lon="-1.3833">
        <ele>107</ele>
        <time>2022-11-11T13:49:23Z</time>
      </trkpt>
      <trkpt lat="47.09802" lon="-1.38323">
        <ele>108</ele>
        <time>2022-11-11T13:49:25Z</time>
      </trkpt>
      <trkpt lat="47.09811" lon="-1.38316">
        <ele>108</ele>
        <time>2022-11-11T13:49:27Z</time>
      </trkpt>
      <trkpt lat="47.09821" lon="-1.3831">
        <ele>108</ele>
        <time>2022-11-11T13:49:29Z</time>
      </trkpt>
      <trkpt lat="47.0983" lon="-1.38304">
        <ele>107</ele>
        <time>2022-11-11T13:49:31Z</time>
      </trkpt>
      <trkpt lat="47.09839" lon="-1.38295">
        <ele>107</ele>
        <time>2022-11-11T13:49:33Z</time>
      </trkpt>
      <trkpt lat="47.09848" lon="-1.38288">
        <ele>107</ele>
        <time>2022-11-11T13:49:35Z</time>
      </trkpt>
      <trkpt lat="47.09858" lon="-1.38281">
        <ele>107</ele>
        <time>2022-11-11T13:49:37Z</time>
      </trkpt>
      <trkpt lat="47.09867" lon="-1.38275">
        <ele>107</ele>
        <time>2022-11-11T13:49:39Z</time>
      </trkpt>
      <trkpt lat="47.09877" lon="-1.3827">
        <ele>107</ele>
        <time>2022-11-11T13:49:41Z</time>
      </trkpt>
      <trkpt lat="47.09888" lon="-1.38267">
        <ele>107</ele>
        <time>2022-11-11T13:49:43Z</time>
      </trkpt>
      <trkpt lat="47.09898" lon="-1.38263">
        <ele>108</ele>
        <time>2022-11-11T13:49:45Z</time>
      </trkpt>
      <trkpt lat="47.09909" lon="-1.38261">
        <ele>108</ele>
        <time>2022-11-11T13:49:47Z</time>
      </trkpt>
      <trkpt lat="47.09919" lon="-1.38257">
        <ele>108</ele>
        <time>2022-11-11T13:49:49Z</time>
      </trkpt>
      <trkpt lat="47.0993" lon="-1.38253">
        <ele>107</ele>
        <time>2022-11-11T13:49:51Z</time>
      </trkpt>
      <trkpt lat="47.0994" lon="-1.38249">
        <ele>108</ele>
        <time>2022-11-11T13:49:53Z</time>
      </trkpt>
      <trkpt lat="47.09949" lon="-1.38243">
        <ele>107</ele>
        <time>2022-11-11T13:49:55Z</time>
      </trkpt>
      <trkpt lat="47.09957" lon="-1.38234">
        <ele>107</ele>
        <time>2022-11-11T13:49:57Z</time>
      </trkpt>
      <trkpt lat="47.09965" lon="-1.38223">
        <ele>107</ele>
        <time>2022-11-11T13:49:59Z</time>
      </trkpt>
      <trkpt lat="47.09974" lon="-1.38212">
        <ele>107</ele>
        <time>2022-11-11T13:50:01Z</time>
      </trkpt>
      <trkpt lat="47.09983" lon="-1.38201">
        <ele>107</ele>
        <time>2022-11-11T13:50:03Z</time>
      </trkpt>
      <trkpt lat="47.09992" lon="-1.3819">
        <ele>107</ele>
        <time>2022-11-11T13:50:05Z</time>
      </trkpt>
      <trkpt lat="47.10001" lon="-1.38179">
        <ele>107</ele>
        <time>2022-11-11T13:50:07Z</time>
      </trkpt>
      <trkpt lat="47.10011" lon="-1.38167">
        <ele>107</ele>
        <time>2022-11-11T13:50:09Z</time>
      </trkpt>
      <trkpt lat="47.1002" lon="-1.38156">
        <ele>108</ele>
        <time>2022-11-11T13:50:11Z</time>
      </trkpt>
      <trkpt lat="47.10029" lon="-1.38144">
        <ele>107</ele>
        <time>2022-11-11T13:50:13Z</time>
      </trkpt>
      <trkpt lat="47.10038" lon="-1.38134">
        <ele>106</ele>
        <time>2022-11-11T13:50:15Z</time>
      </trkpt>
      <trkpt lat="47.10049" lon="-1.38125">
        <ele>106</ele>
        <time>2022-11-11T13:50:17Z</time>
      </trkpt>
      <trkpt lat="47.10059" lon="-1.38119">
        <ele>106</ele>
        <time>2022-11-11T13:50:19Z</time>
      </trkpt>
      <trkpt lat="47.1007" lon="-1.38114">
        <ele>106</ele>
        <time>2022-11-11T13:50:21Z</time>
      </trkpt>
      <trkpt lat="47.10081" lon="-1.38109">
        <ele>106</ele>
        <time>2022-11-11T13:50:23Z</time>
      </trkpt>
      <trkpt lat="47.10093" lon="-1.38105">
        <ele>106</ele>
        <time>2022-11-11T13:50:25Z</time>
      </trkpt>
      <trkpt lat="47.10105" lon="-1.381">
        <ele>106</ele>
        <time>2022-11-11T13:50:27Z</time>
      </trkpt>
      <trkpt lat="47.10117" lon="-1.38094">
        <ele>106</ele>
        <time>2022-11-11T13:50:29Z</time>
      </trkpt>
      <trkpt lat="47.10129" lon="-1.38088">
        <ele>105</ele>
        <time>2022-11-11T13:50:31Z</time>
      </trkpt>
      <trkpt lat="47.10141" lon="-1.38081">
        <ele>105</ele>
        <time>2022-11-11T13:50:33Z</time>
      </trkpt>
      <trkpt lat="47.10152" lon="-1.38072">
        <ele>105</ele>
        <time>2022-11-11T13:50:35Z</time>
      </trkpt>
      <trkpt lat="47.10162" lon="-1.38063">
        <ele>105</ele>
        <time>2022-11-11T13:50:37Z</time>
      </trkpt>
      <trkpt lat="47.10172" lon="-1.38053">
        <ele>105</ele>
        <time>2022-11-11T13:50:39Z</time>
      </trkpt>
      <trkpt lat="47.10183" lon="-1.38043">
        <ele>104</ele>
        <time>2022-11-11T13:50:41Z</time>
      </trkpt>
      <trkpt lat="47.10193" lon="-1.38033">
        <ele>104</ele>
        <time>2022-11-11T13:50:43Z</time>
      </trkpt>
      <trkpt lat="47.10204" lon="-1.38022">
        <ele>104</ele>
        <time>2022-11-11T13:50:45Z</time>
      </trkpt>
      <trkpt lat="47.10214" lon="-1.38012">
        <ele>104</ele>
        <time>2022-11-11T13:50:47Z</time>
      </trkpt>
      <trkpt lat="47.10225" lon="-1.38004">
        <ele>104</ele>
        <time>2022-11-11T13:50:49Z</time>
      </trkpt>
      <trkpt lat="47.10236" lon="-1.37996">
        <ele>104</ele>
        <time>2022-11-11T13:50:51Z</time>
      </trkpt>
      <trkpt lat="47.10248" lon="-1.37989">
        <ele>104</ele>
        <time>2022-11-11T13:50:53Z</time>
      </trkpt>
      <trkpt lat="47.1026" lon="-1.37984">
        <ele>104</ele>
        <time>2022-11-11T13:50:55Z</time>
      </trkpt>
      <trkpt lat="47.10272" lon="-1.37978">
        <ele>104</ele>
        <time>2022-11-11T13:50:57Z</time>
      </trkpt>
      <trkpt lat="47.10285" lon="-1.37973">
        <ele>104</ele>
        <time>2022-11-11T13:50:59Z</time>
      </trkpt>
      <trkpt lat="47.10297" lon="-1.37968">
        <ele>104</ele>
        <time>2022-11-11T13:51:01Z</time>
      </trkpt>
      <trkpt lat="47.10309" lon="-1.37962">
        <ele>104</ele>
        <time>2022-11-11T13:51:03Z</time>
      </trkpt>
      <trkpt lat="47.10321" lon="-1.37957">
        <ele>104</ele>
        <time>2022-11-11T13:51:05Z</time>
      </trkpt>
      <trkpt lat="47.10333" lon="-1.37951">
        <ele>103</ele>
        <time>2022-11-11T13:51:07Z</time>
      </trkpt>
      <trkpt lat="47.10346" lon="-1.37947">
        <ele>103</ele>
        <time>2022-11-11T13:51:09Z</time>
      </trkpt>
      <trkpt lat="47.10358" lon="-1.37942">
        <ele>103</ele>
        <time>2022-11-11T13:51:11Z</time>
      </trkpt>
      <trkpt lat="47.1037" lon="-1.37937">
        <ele>103</ele>
        <time>2022-11-11T13:51:13Z</time>
      </trkpt>
      <trkpt lat="47.10382" lon="-1.37931">
        <ele>104</ele>
        <time>2022-11-11T13:51:15Z</time>
      </trkpt>
      <trkpt lat="47.10394" lon="-1.37926">
        <ele>103</ele>
        <time>2022-11-11T13:51:17Z</time>
      </trkpt>
      <trkpt lat="47.10405" lon="-1.37921">
        <ele>103</ele>
        <time>2022-11-11T13:51:19Z</time>
      </trkpt>
      <trkpt lat="47.10417" lon="-1.37915">
        <ele>103</ele>
        <time>2022-11-11T13:51:21Z</time>
      </trkpt>
      <trkpt lat="47.10428" lon="-1.37909">
        <ele>104</ele>
        <time>2022-11-11T13:51:23Z</time>
      </trkpt>
      <trkpt lat="47.1044" lon="-1.37903">
        <ele>104</ele>
        <time>2022-11-11T13:51:25Z</time>
      </trkpt>
      <trkpt lat="47.10451" lon="-1.37896">
        <ele>104</ele>
        <time>2022-11-11T13:51:27Z</time>
      </trkpt>
      <trkpt lat="47.10462" lon="-1.37889">
        <ele>104</ele>
        <time>2022-11-11T13:51:29Z</time>
      </trkpt>
      <trkpt lat="47.10472" lon="-1.37881">
        <ele>104</ele>
        <time>2022-11-11T13:51:31Z</time>
      </trkpt>
      <trkpt lat="47.10482" lon="-1.37872">
        <ele>104</ele>
        <time>2022-11-11T13:51:33Z</time>
      </trkpt>
      <trkpt lat="47.10492" lon="-1.37863">
        <ele>105</ele>
        <time>2022-11-11T13:51:35Z</time>
      </trkpt>
      <trkpt lat="47.10501" lon="-1.37853">
        <ele>105</ele>
        <time>2022-11-11T13:51:37Z</time>
      </trkpt>
      <trkpt lat="47.10509" lon="-1.37843">
        <ele>105</ele>
        <time>2022-11-11T13:51:39Z</time>
      </trkpt>
      <trkpt lat="47.10518" lon="-1.37833">
        <ele>105</ele>
        <time>2022-11-11T13:51:41Z</time>
      </trkpt>
      <trkpt lat="47.10527" lon="-1.37824">
        <ele>105</ele>
        <time>2022-11-11T13:51:43Z</time>
      </trkpt>
      <trkpt lat="47.10536" lon="-1.37814">
        <ele>105</ele>
        <time>2022-11-11T13:51:45Z</time>
      </trkpt>
      <trkpt lat="47.10545" lon="-1.37804">
        <ele>106</ele>
        <time>2022-11-11T13:51:47Z</time>
      </trkpt>
      <trkpt lat="47.10554" lon="-1.37793">
        <ele>106</ele>
        <time>2022-11-11T13:51:49Z</time>
      </trkpt>
      <trkpt lat="47.10564" lon="-1.37783">
        <ele>105</ele>
        <time>2022-11-11T13:51:51Z</time>
      </trkpt>
      <trkpt lat="47.10573" lon="-1.37773">
        <ele>105</ele>
        <time>2022-11-11T13:51:53Z</time>
      </trkpt>
      <trkpt lat="47.10582" lon="-1.37764">
        <ele>106</ele>
        <time>2022-11-11T13:51:55Z</time>
      </trkpt>
      <trkpt lat="47.1059" lon="-1.37754">
        <ele>106</ele>
        <time>2022-11-11T13:51:57Z</time>
      </trkpt>
      <trkpt lat="47.10598" lon="-1.37745">
        <ele>106</ele>
        <time>2022-11-11T13:51:59Z</time>
      </trkpt>
      <trkpt lat="47.10606" lon="-1.37736">
        <ele>106</ele>
        <time>2022-11-11T13:52:01Z</time>
      </trkpt>
      <trkpt lat="47.10614" lon="-1.37727">
        <ele>106</ele>
        <time>2022-11-11T13:52:03Z</time>
      </trkpt>
      <trkpt lat="47.10623" lon="-1.37718">
        <ele>106</ele>
        <time>2022-11-11T13:52:05Z</time>
      </trkpt>
      <trkpt lat="47.10631" lon="-1.37709">
        <ele>107</ele>
        <time>2022-11-11T13:52:07Z</time>
      </trkpt>
      <trkpt lat="47.10639" lon="-1.377">
        <ele>107</ele>
        <time>2022-11-11T13:52:09Z</time>
      </trkpt>
      <trkpt lat="47.10647" lon="-1.37691">
        <ele>107</ele>
        <time>2022-11-11T13:52:11Z</time>
      </trkpt>
      <trkpt lat="47.10656" lon="-1.37681">
        <ele>107</ele>
        <time>2022-11-11T13:52:13Z</time>
      </trkpt>
      <trkpt lat="47.10665" lon="-1.37671">
        <ele>107</ele>
        <time>2022-11-11T13:52:15Z</time>
      </trkpt>
      <trkpt lat="47.10673" lon="-1.37662">
        <ele>107</ele>
        <time>2022-11-11T13:52:17Z</time>
      </trkpt>
      <trkpt lat="47.10682" lon="-1.37653">
        <ele>107</ele>
        <time>2022-11-11T13:52:19Z</time>
      </trkpt>
      <trkpt lat="47.10691" lon="-1.37643">
        <ele>107</ele>
        <time>2022-11-11T13:52:21Z</time>
      </trkpt>
      <trkpt lat="47.107" lon="-1.37633">
        <ele>107</ele>
        <time>2022-11-11T13:52:23Z</time>
      </trkpt>
      <trkpt lat="47.10709" lon="-1.37623">
        <ele>107</ele>
        <time>2022-11-11T13:52:25Z</time>
      </trkpt>
      <trkpt lat="47.10718" lon="-1.37613">
        <ele>107</ele>
        <time>2022-11-11T13:52:27Z</time>
      </trkpt>
      <trkpt lat="47.10727" lon="-1.37604">
        <ele>107</ele>
        <time>2022-11-11T13:52:29Z</time>
      </trkpt>
      <trkpt lat="47.10736" lon="-1.37594">
        <ele>107</ele>
        <time>2022-11-11T13:52:31Z</time>
      </trkpt>
      <trkpt lat="47.10745" lon="-1.37585">
        <ele>107</ele>
        <time>2022-11-11T13:52:33Z</time>
      </trkpt>
      <trkpt lat="47.10753" lon="-1.37575">
        <ele>107</ele>
        <time>2022-11-11T13:52:35Z</time>
      </trkpt>
      <trkpt lat="47.10762" lon="-1.37566">
        <ele>107</ele>
        <time>2022-11-11T13:52:37Z</time>
      </trkpt>
      <trkpt lat="47.10771" lon="-1.37556">
        <ele>107</ele>
        <time>2022-11-11T13:52:39Z</time>
      </trkpt>
      <trkpt lat="47.10779" lon="-1.37546">
        <ele>107</ele>
        <time>2022-11-11T13:52:41Z</time>
      </trkpt>
      <trkpt lat="47.10788" lon="-1.37537">
        <ele>107</ele>
        <time>2022-11-11T13:52:43Z</time>
      </trkpt>
      <trkpt lat="47.10797" lon="-1.37527">
        <ele>107</ele>
        <time>2022-11-11T13:52:45Z</time>
      </trkpt>
      <trkpt lat="47.10806" lon="-1.37517">
        <ele>107</ele>
        <time>2022-11-11T13:52:47Z</time>
      </trkpt>
      <trkpt lat="47.10815" lon="-1.37507">
        <ele>107</ele>
        <time>2022-11-11T13:52:49Z</time>
      </trkpt>
      <trkpt lat="47.10824" lon="-1.37498">
        <ele>107</ele>
        <time>2022-11-11T13:52:51Z</time>
      </trkpt>
      <trkpt lat="47.10833" lon="-1.37487">
        <ele>106</ele>
        <time>2022-11-11T13:52:53Z</time>
      </trkpt>
      <trkpt lat="47.10842" lon="-1.37478">
        <ele>106</ele>
        <time>2022-11-11T13:52:55Z</time>
      </trkpt>
      <trkpt lat="47.10851" lon="-1.37469">
        <ele>107</ele>
        <time>2022-11-11T13:52:57Z</time>
      </trkpt>
      <trkpt lat="47.10859" lon="-1.37459">
        <ele>107</ele>
        <time>2022-11-11T13:52:59Z</time>
      </trkpt>
      <trkpt lat="47.10868" lon="-1.3745">
        <ele>107</ele>
        <time>2022-11-11T13:53:01Z</time>
      </trkpt>
      <trkpt lat="47.10877" lon="-1.3744">
        <ele>107</ele>
        <time>2022-11-11T13:53:03Z</time>
      </trkpt>
      <trkpt lat="47.10886" lon="-1.3743">
        <ele>107</ele>
        <time>2022-11-11T13:53:05Z</time>
      </trkpt>
      <trkpt lat="47.10895" lon="-1.3742">
        <ele>107</ele>
        <time>2022-11-11T13:53:07Z</time>
      </trkpt>
      <trkpt lat="47.10904" lon="-1.3741">
        <ele>107</ele>
        <time>2022-11-11T13:53:09Z</time>
      </trkpt>
      <trkpt lat="47.10913" lon="-1.374">
        <ele>107</ele>
        <time>2022-11-11T13:53:11Z</time>
      </trkpt>
      <trkpt lat="47.10922" lon="-1.37391">
        <ele>106</ele>
        <time>2022-11-11T13:53:13Z</time>
      </trkpt>
      <trkpt lat="47.10931" lon="-1.37381">
        <ele>106</ele>
        <time>2022-11-11T13:53:15Z</time>
      </trkpt>
      <trkpt lat="47.10939" lon="-1.37371">
        <ele>107</ele>
        <time>2022-11-11T13:53:17Z</time>
      </trkpt>
      <trkpt lat="47.10948" lon="-1.37362">
        <ele>107</ele>
        <time>2022-11-11T13:53:19Z</time>
      </trkpt>
      <trkpt lat="47.10957" lon="-1.37353">
        <ele>107</ele>
        <time>2022-11-11T13:53:21Z</time>
      </trkpt>
      <trkpt lat="47.10965" lon="-1.37343">
        <ele>107</ele>
        <time>2022-11-11T13:53:23Z</time>
      </trkpt>
      <trkpt lat="47.10974" lon="-1.37334">
        <ele>107</ele>
        <time>2022-11-11T13:53:25Z</time>
      </trkpt>
      <trkpt lat="47.10983" lon="-1.37325">
        <ele>108</ele>
        <time>2022-11-11T13:53:27Z</time>
      </trkpt>
      <trkpt lat="47.10991" lon="-1.37315">
        <ele>108</ele>
        <time>2022-11-11T13:53:29Z</time>
      </trkpt>
      <trkpt lat="47.11" lon="-1.37305">
        <ele>108</ele>
        <time>2022-11-11T13:53:31Z</time>
      </trkpt>
      <trkpt lat="47.11009" lon="-1.37296">
        <ele>108</ele>
        <time>2022-11-11T13:53:33Z</time>
      </trkpt>
      <trkpt lat="47.11018" lon="-1.37286">
        <ele>108</ele>
        <time>2022-11-11T13:53:35Z</time>
      </trkpt>
      <trkpt lat="47.11026" lon="-1.37276">
        <ele>108</ele>
        <time>2022-11-11T13:53:37Z</time>
      </trkpt>
      <trkpt lat="47.11035" lon="-1.37266">
        <ele>108</ele>
        <time>2022-11-11T13:53:39Z</time>
      </trkpt>
      <trkpt lat="47.11045" lon="-1.37257">
        <ele>108</ele>
        <time>2022-11-11T13:53:41Z</time>
      </trkpt>
      <trkpt lat="47.11054" lon="-1.37247">
        <ele>109</ele>
        <time>2022-11-11T13:53:43Z</time>
      </trkpt>
      <trkpt lat="47.11063" lon="-1.37237">
        <ele>109</ele>
        <time>2022-11-11T13:53:45Z</time>
      </trkpt>
      <trkpt lat="47.11072" lon="-1.37227">
        <ele>109</ele>
        <time>2022-11-11T13:53:47Z</time>
      </trkpt>
      <trkpt lat="47.1108" lon="-1.37217">
        <ele>109</ele>
        <time>2022-11-11T13:53:49Z</time>
      </trkpt>
      <trkpt lat="47.11089" lon="-1.37208">
        <ele>109</ele>
        <time>2022-11-11T13:53:51Z</time>
      </trkpt>
      <trkpt lat="47.11098" lon="-1.37199">
        <ele>109</ele>
        <time>2022-11-11T13:53:53Z</time>
      </trkpt>
      <trkpt lat="47.11106" lon="-1.37188">
        <ele>109</ele>
        <time>2022-11-11T13:53:55Z</time>
      </trkpt>
      <trkpt lat="47.11115" lon="-1.3718">
        <ele>109</ele>
        <time>2022-11-11T13:53:57Z</time>
      </trkpt>
      <trkpt lat="47.11123" lon="-1.37171">
        <ele>109</ele>
        <time>2022-11-11T13:53:59Z</time>
      </trkpt>
      <trkpt lat="47.11132" lon="-1.37161">
        <ele>109</ele>
        <time>2022-11-11T13:54:01Z</time>
      </trkpt>
      <trkpt lat="47.11141" lon="-1.37152">
        <ele>110</ele>
        <time>2022-11-11T13:54:03Z</time>
      </trkpt>
      <trkpt lat="47.1115" lon="-1.37143">
        <ele>109</ele>
        <time>2022-11-11T13:54:05Z</time>
      </trkpt>
      <trkpt lat="47.11159" lon="-1.37135">
        <ele>109</ele>
        <time>2022-11-11T13:54:07Z</time>
      </trkpt>
      <trkpt lat="47.11169" lon="-1.37127">
        <ele>108</ele>
        <time>2022-11-11T13:54:09Z</time>
      </trkpt>
      <trkpt lat="47.11178" lon="-1.37119">
        <ele>108</ele>
        <time>2022-11-11T13:54:11Z</time>
      </trkpt>
      <trkpt lat="47.11189" lon="-1.37111">
        <ele>108</ele>
        <time>2022-11-11T13:54:13Z</time>
      </trkpt>
      <trkpt lat="47.11199" lon="-1.37104">
        <ele>108</ele>
        <time>2022-11-11T13:54:15Z</time>
      </trkpt>
      <trkpt lat="47.1121" lon="-1.37096">
        <ele>107</ele>
        <time>2022-11-11T13:54:17Z</time>
      </trkpt>
      <trkpt lat="47.11221" lon="-1.37088">
        <ele>107</ele>
        <time>2022-11-11T13:54:19Z</time>
      </trkpt>
      <trkpt lat="47.11232" lon="-1.3708">
        <ele>106</ele>
        <time>2022-11-11T13:54:21Z</time>
      </trkpt>
      <trkpt lat="47.11243" lon="-1.37072">
        <ele>106</ele>
        <time>2022-11-11T13:54:23Z</time>
      </trkpt>
      <trkpt lat="47.11254" lon="-1.37064">
        <ele>106</ele>
        <time>2022-11-11T13:54:25Z</time>
      </trkpt>
      <trkpt lat="47.11265" lon="-1.37055">
        <ele>105</ele>
        <time>2022-11-11T13:54:27Z</time>
      </trkpt>
      <trkpt lat="47.11277" lon="-1.37047">
        <ele>105</ele>
        <time>2022-11-11T13:54:29Z</time>
      </trkpt>
      <trkpt lat="47.11288" lon="-1.37039">
        <ele>105</ele>
        <time>2022-11-11T13:54:31Z</time>
      </trkpt>
      <trkpt lat="47.113" lon="-1.3703">
        <ele>104</ele>
        <time>2022-11-11T13:54:33Z</time>
      </trkpt>
      <trkpt lat="47.11311" lon="-1.37022">
        <ele>104</ele>
        <time>2022-11-11T13:54:35Z</time>
      </trkpt>
      <trkpt lat="47.11323" lon="-1.37014">
        <ele>104</ele>
        <time>2022-11-11T13:54:37Z</time>
      </trkpt>
      <trkpt lat="47.11334" lon="-1.37006">
        <ele>104</ele>
        <time>2022-11-11T13:54:39Z</time>
      </trkpt>
      <trkpt lat="47.11345" lon="-1.36997">
        <ele>103</ele>
        <time>2022-11-11T13:54:41Z</time>
      </trkpt>
      <trkpt lat="47.11357" lon="-1.36989">
        <ele>103</ele>
        <time>2022-11-11T13:54:43Z</time>
      </trkpt>
      <trkpt lat="47.11368" lon="-1.36981">
        <ele>103</ele>
        <time>2022-11-11T13:54:45Z</time>
      </trkpt>
      <trkpt lat="47.11379" lon="-1.36973">
        <ele>103</ele>
        <time>2022-11-11T13:54:47Z</time>
      </trkpt>
      <trkpt lat="47.1139" lon="-1.36963">
        <ele>102</ele>
        <time>2022-11-11T13:54:49Z</time>
      </trkpt>
      <trkpt lat="47.11401" lon="-1.3695">
        <ele>102</ele>
        <time>2022-11-11T13:54:51Z</time>
      </trkpt>
      <trkpt lat="47.1141" lon="-1.36936">
        <ele>101</ele>
        <time>2022-11-11T13:54:53Z</time>
      </trkpt>
      <trkpt lat="47.11417" lon="-1.36921">
        <ele>101</ele>
        <time>2022-11-11T13:54:55Z</time>
      </trkpt>
      <trkpt lat="47.11424" lon="-1.36905">
        <ele>101</ele>
        <time>2022-11-11T13:54:57Z</time>
      </trkpt>
      <trkpt lat="47.1143" lon="-1.36888">
        <ele>101</ele>
        <time>2022-11-11T13:54:59Z</time>
      </trkpt>
      <trkpt lat="47.11436" lon="-1.36872">
        <ele>101</ele>
        <time>2022-11-11T13:55:01Z</time>
      </trkpt>
      <trkpt lat="47.11442" lon="-1.36856">
        <ele>101</ele>
        <time>2022-11-11T13:55:03Z</time>
      </trkpt>
      <trkpt lat="47.11449" lon="-1.36841">
        <ele>101</ele>
        <time>2022-11-11T13:55:05Z</time>
      </trkpt>
      <trkpt lat="47.11456" lon="-1.36826">
        <ele>100</ele>
        <time>2022-11-11T13:55:07Z</time>
      </trkpt>
      <trkpt lat="47.11464" lon="-1.36812">
        <ele>100</ele>
        <time>2022-11-11T13:55:09Z</time>
      </trkpt>
      <trkpt lat="47.11473" lon="-1.36798">
        <ele>99</ele>
        <time>2022-11-11T13:55:11Z</time>
      </trkpt>
      <trkpt lat="47.11482" lon="-1.36785">
        <ele>99</ele>
        <time>2022-11-11T13:55:13Z</time>
      </trkpt>
      <trkpt lat="47.11492" lon="-1.36774">
        <ele>98</ele>
        <time>2022-11-11T13:55:15Z</time>
      </trkpt>
      <trkpt lat="47.11502" lon="-1.36763">
        <ele>97</ele>
        <time>2022-11-11T13:55:17Z</time>
      </trkpt>
      <trkpt lat="47.11513" lon="-1.36753">
        <ele>97</ele>
        <time>2022-11-11T13:55:19Z</time>
      </trkpt>
      <trkpt lat="47.11523" lon="-1.36742">
        <ele>97</ele>
        <time>2022-11-11T13:55:21Z</time>
      </trkpt>
      <trkpt lat="47.11533" lon="-1.36732">
        <ele>97</ele>
        <time>2022-11-11T13:55:23Z</time>
      </trkpt>
      <trkpt lat="47.11544" lon="-1.36722">
        <ele>97</ele>
        <time>2022-11-11T13:55:25Z</time>
      </trkpt>
      <trkpt lat="47.11554" lon="-1.36712">
        <ele>97</ele>
        <time>2022-11-11T13:55:27Z</time>
      </trkpt>
      <trkpt lat="47.11565" lon="-1.36702">
        <ele>97</ele>
        <time>2022-11-11T13:55:29Z</time>
      </trkpt>
      <trkpt lat="47.11576" lon="-1.36692">
        <ele>97</ele>
        <time>2022-11-11T13:55:31Z</time>
      </trkpt>
      <trkpt lat="47.11586" lon="-1.36682">
        <ele>97</ele>
        <time>2022-11-11T13:55:33Z</time>
      </trkpt>
      <trkpt lat="47.11597" lon="-1.36672">
        <ele>97</ele>
        <time>2022-11-11T13:55:35Z</time>
      </trkpt>
      <trkpt lat="47.11607" lon="-1.36662">
        <ele>97</ele>
        <time>2022-11-11T13:55:37Z</time>
      </trkpt>
      <trkpt lat="47.11617" lon="-1.36652">
        <ele>97</ele>
        <time>2022-11-11T13:55:39Z</time>
      </trkpt>
      <trkpt lat="47.11627" lon="-1.36643">
        <ele>97</ele>
        <time>2022-11-11T13:55:41Z</time>
      </trkpt>
      <trkpt lat="47.11637" lon="-1.36634">
        <ele>97</ele>
        <time>2022-11-11T13:55:43Z</time>
      </trkpt>
      <trkpt lat="47.11647" lon="-1.36624">
        <ele>97</ele>
        <time>2022-11-11T13:55:45Z</time>
      </trkpt>
      <trkpt lat="47.11657" lon="-1.36615">
        <ele>97</ele>
        <time>2022-11-11T13:55:47Z</time>
      </trkpt>
      <trkpt lat="47.11667" lon="-1.36605">
        <ele>97</ele>
        <time>2022-11-11T13:55:49Z</time>
      </trkpt>
      <trkpt lat="47.11677" lon="-1.36596">
        <ele>98</ele>
        <time>2022-11-11T13:55:51Z</time>
      </trkpt>
      <trkpt lat="47.11686" lon="-1.36585">
        <ele>98</ele>
        <time>2022-11-11T13:55:53Z</time>
      </trkpt>
      <trkpt lat="47.11696" lon="-1.36576">
        <ele>98</ele>
        <time>2022-11-11T13:55:55Z</time>
      </trkpt>
      <trkpt lat="47.11706" lon="-1.36567">
        <ele>99</ele>
        <time>2022-11-11T13:55:57Z</time>
      </trkpt>
      <trkpt lat="47.11715" lon="-1.36557">
        <ele>99</ele>
        <time>2022-11-11T13:55:59Z</time>
      </trkpt>
      <trkpt lat="47.11725" lon="-1.36548">
        <ele>99</ele>
        <time>2022-11-11T13:56:01Z</time>
      </trkpt>
      <trkpt lat="47.11735" lon="-1.36539">
        <ele>100</ele>
        <time>2022-11-11T13:56:03Z</time>
      </trkpt>
      <trkpt lat="47.11745" lon="-1.36531">
        <ele>100</ele>
        <time>2022-11-11T13:56:05Z</time>
      </trkpt>
      <trkpt lat="47.11754" lon="-1.36523">
        <ele>100</ele>
        <time>2022-11-11T13:56:07Z</time>
      </trkpt>
      <trkpt lat="47.11765" lon="-1.36516">
        <ele>99</ele>
        <time>2022-11-11T13:56:09Z</time>
      </trkpt>
      <trkpt lat="47.11776" lon="-1.36509">
        <ele>99</ele>
        <time>2022-11-11T13:56:11Z</time>
      </trkpt>
      <trkpt lat="47.11787" lon="-1.36502">
        <ele>99</ele>
        <time>2022-11-11T13:56:13Z</time>
      </trkpt>
      <trkpt lat="47.11798" lon="-1.36495">
        <ele>99</ele>
        <time>2022-11-11T13:56:15Z</time>
      </trkpt>
      <trkpt lat="47.11809" lon="-1.36488">
        <ele>99</ele>
        <time>2022-11-11T13:56:17Z</time>
      </trkpt>
      <trkpt lat="47.1182" lon="-1.36482">
        <ele>99</ele>
        <time>2022-11-11T13:56:19Z</time>
      </trkpt>
      <trkpt lat="47.11831" lon="-1.36476">
        <ele>99</ele>
        <time>2022-11-11T13:56:21Z</time>
      </trkpt>
      <trkpt lat="47.11841" lon="-1.36469">
        <ele>99</ele>
        <time>2022-11-11T13:56:23Z</time>
      </trkpt>
      <trkpt lat="47.11851" lon="-1.36463">
        <ele>99</ele>
        <time>2022-11-11T13:56:25Z</time>
      </trkpt>
      <trkpt lat="47.11861" lon="-1.36457">
        <ele>99</ele>
        <time>2022-11-11T13:56:27Z</time>
      </trkpt>
      <trkpt lat="47.11871" lon="-1.36448">
        <ele>99</ele>
        <time>2022-11-11T13:56:29Z</time>
      </trkpt>
      <trkpt lat="47.11881" lon="-1.36443">
        <ele>99</ele>
        <time>2022-11-11T13:56:31Z</time>
      </trkpt>
      <trkpt lat="47.1189" lon="-1.36453">
        <ele>99</ele>
        <time>2022-11-11T13:56:33Z</time>
      </trkpt>
      <trkpt lat="47.11893" lon="-1.36471">
        <ele>99</ele>
        <time>2022-11-11T13:56:35Z</time>
      </trkpt>
      <trkpt lat="47.11898" lon="-1.36488">
        <ele>99</ele>
        <time>2022-11-11T13:56:37Z</time>
      </trkpt>
      <trkpt lat="47.11903" lon="-1.36506">
        <ele>99</ele>
        <time>2022-11-11T13:56:39Z</time>
      </trkpt>
      <trkpt lat="47.11908" lon="-1.36523">
        <ele>99</ele>
        <time>2022-11-11T13:56:41Z</time>
      </trkpt>
      <trkpt lat="47.11913" lon="-1.36541">
        <ele>99</ele>
        <time>2022-11-11T13:56:43Z</time>
      </trkpt>
      <trkpt lat="47.11918" lon="-1.36559">
        <ele>99</ele>
        <time>2022-11-11T13:56:45Z</time>
      </trkpt>
      <trkpt lat="47.11923" lon="-1.36578">
        <ele>99</ele>
        <time>2022-11-11T13:56:47Z</time>
      </trkpt>
      <trkpt lat="47.11928" lon="-1.36595">
        <ele>98</ele>
        <time>2022-11-11T13:56:49Z</time>
      </trkpt>
      <trkpt lat="47.11933" lon="-1.36613">
        <ele>99</ele>
        <time>2022-11-11T13:56:51Z</time>
      </trkpt>
      <trkpt lat="47.11938" lon="-1.36631">
        <ele>98</ele>
        <time>2022-11-11T13:56:53Z</time>
      </trkpt>
      <trkpt lat="47.11943" lon="-1.36649">
        <ele>98</ele>
        <time>2022-11-11T13:56:55Z</time>
      </trkpt>
      <trkpt lat="47.11948" lon="-1.36667">
        <ele>98</ele>
        <time>2022-11-11T13:56:57Z</time>
      </trkpt>
      <trkpt lat="47.11953" lon="-1.36685">
        <ele>98</ele>
        <time>2022-11-11T13:56:59Z</time>
      </trkpt>
      <trkpt lat="47.11958" lon="-1.36703">
        <ele>98</ele>
        <time>2022-11-11T13:57:01Z</time>
      </trkpt>
      <trkpt lat="47.11964" lon="-1.36721">
        <ele>98</ele>
        <time>2022-11-11T13:57:03Z</time>
      </trkpt>
      <trkpt lat="47.11969" lon="-1.36739">
        <ele>98</ele>
        <time>2022-11-11T13:57:05Z</time>
      </trkpt>
      <trkpt lat="47.11974" lon="-1.36758">
        <ele>98</ele>
        <time>2022-11-11T13:57:07Z</time>
      </trkpt>
      <trkpt lat="47.11979" lon="-1.36776">
        <ele>98</ele>
        <time>2022-11-11T13:57:09Z</time>
      </trkpt>
      <trkpt lat="47.11984" lon="-1.36795">
        <ele>98</ele>
        <time>2022-11-11T13:57:11Z</time>
      </trkpt>
      <trkpt lat="47.1199" lon="-1.36813">
        <ele>98</ele>
        <time>2022-11-11T13:57:13Z</time>
      </trkpt>
      <trkpt lat="47.11995" lon="-1.36831">
        <ele>98</ele>
        <time>2022-11-11T13:57:15Z</time>
      </trkpt>
      <trkpt lat="47.12" lon="-1.36849">
        <ele>98</ele>
        <time>2022-11-11T13:57:17Z</time>
      </trkpt>
      <trkpt lat="47.12005" lon="-1.36867">
        <ele>97</ele>
        <time>2022-11-11T13:57:19Z</time>
      </trkpt>
      <trkpt lat="47.1201" lon="-1.36885">
        <ele>97</ele>
        <time>2022-11-11T13:57:21Z</time>
      </trkpt>
      <trkpt lat="47.12014" lon="-1.36902">
        <ele>97</ele>
        <time>2022-11-11T13:57:23Z</time>
      </trkpt>
      <trkpt lat="47.12019" lon="-1.3692">
        <ele>97</ele>
        <time>2022-11-11T13:57:25Z</time>
      </trkpt>
      <trkpt lat="47.12024" lon="-1.36936">
        <ele>97</ele>
        <time>2022-11-11T13:57:27Z</time>
      </trkpt>
      <trkpt lat="47.12029" lon="-1.36953">
        <ele>97</ele>
        <time>2022-11-11T13:57:29Z</time>
      </trkpt>
      <trkpt lat="47.12033" lon="-1.3697">
        <ele>98</ele>
        <time>2022-11-11T13:57:31Z</time>
      </trkpt>
      <trkpt lat="47.12038" lon="-1.36988">
        <ele>97</ele>
        <time>2022-11-11T13:57:33Z</time>
      </trkpt>
      <trkpt lat="47.12043" lon="-1.37004">
        <ele>97</ele>
        <time>2022-11-11T13:57:35Z</time>
      </trkpt>
      <trkpt lat="47.12048" lon="-1.37021">
        <ele>98</ele>
        <time>2022-11-11T13:57:37Z</time>
      </trkpt>
      <trkpt lat="47.12053" lon="-1.37038">
        <ele>98</ele>
        <time>2022-11-11T13:57:39Z</time>
      </trkpt>
      <trkpt lat="47.12057" lon="-1.37054">
        <ele>98</ele>
        <time>2022-11-11T13:57:41Z</time>
      </trkpt>
      <trkpt lat="47.12061" lon="-1.3707">
        <ele>98</ele>
        <time>2022-11-11T13:57:43Z</time>
      </trkpt>
      <trkpt lat="47.12065" lon="-1.37086">
        <ele>98</ele>
        <time>2022-11-11T13:57:45Z</time>
      </trkpt>
      <trkpt lat="47.12071" lon="-1.37102">
        <ele>99</ele>
        <time>2022-11-11T13:57:47Z</time>
      </trkpt>
      <trkpt lat="47.12077" lon="-1.37117">
        <ele>99</ele>
        <time>2022-11-11T13:57:49Z</time>
      </trkpt>
      <trkpt lat="47.12084" lon="-1.37132">
        <ele>99</ele>
        <time>2022-11-11T13:57:51Z</time>
      </trkpt>
      <trkpt lat="47.12091" lon="-1.37145">
        <ele>99</ele>
        <time>2022-11-11T13:57:53Z</time>
      </trkpt>
      <trkpt lat="47.12099" lon="-1.37159">
        <ele>99</ele>
        <time>2022-11-11T13:57:55Z</time>
      </trkpt>
      <trkpt lat="47.12107" lon="-1.37172">
        <ele>98</ele>
        <time>2022-11-11T13:57:57Z</time>
      </trkpt>
      <trkpt lat="47.12115" lon="-1.37187">
        <ele>98</ele>
        <time>2022-11-11T13:57:59Z</time>
      </trkpt>
      <trkpt lat="47.12124" lon="-1.37201">
        <ele>98</ele>
        <time>2022-11-11T13:58:01Z</time>
      </trkpt>
      <trkpt lat="47.12133" lon="-1.37216">
        <ele>97</ele>
        <time>2022-11-11T13:58:03Z</time>
      </trkpt>
      <trkpt lat="47.12142" lon="-1.3723">
        <ele>97</ele>
        <time>2022-11-11T13:58:05Z</time>
      </trkpt>
      <trkpt lat="47.12152" lon="-1.37246">
        <ele>96</ele>
        <time>2022-11-11T13:58:07Z</time>
      </trkpt>
      <trkpt lat="47.12163" lon="-1.37261">
        <ele>96</ele>
        <time>2022-11-11T13:58:09Z</time>
      </trkpt>
      <trkpt lat="47.12175" lon="-1.37277">
        <ele>95</ele>
        <time>2022-11-11T13:58:11Z</time>
      </trkpt>
      <trkpt lat="47.12188" lon="-1.37292">
        <ele>94</ele>
        <time>2022-11-11T13:58:13Z</time>
      </trkpt>
      <trkpt lat="47.12202" lon="-1.37307">
        <ele>94</ele>
        <time>2022-11-11T13:58:15Z</time>
      </trkpt>
      <trkpt lat="47.12217" lon="-1.37323">
        <ele>93</ele>
        <time>2022-11-11T13:58:17Z</time>
      </trkpt>
      <trkpt lat="47.12224" lon="-1.37332">
        <ele>93</ele>
        <time>2022-11-11T13:58:18Z</time>
      </trkpt>
      <trkpt lat="47.12231" lon="-1.37341">
        <ele>92</ele>
        <time>2022-11-11T13:58:19Z</time>
      </trkpt>
      <trkpt lat="47.12237" lon="-1.37351">
        <ele>92</ele>
        <time>2022-11-11T13:58:20Z</time>
      </trkpt>
      <trkpt lat="47.12243" lon="-1.37361">
        <ele>92</ele>
        <time>2022-11-11T13:58:21Z</time>
      </trkpt>
      <trkpt lat="47.12249" lon="-1.37372">
        <ele>91</ele>
        <time>2022-11-11T13:58:22Z</time>
      </trkpt>
      <trkpt lat="47.12255" lon="-1.37384">
        <ele>91</ele>
        <time>2022-11-11T13:58:23Z</time>
      </trkpt>
      <trkpt lat="47.12261" lon="-1.37395">
        <ele>91</ele>
        <time>2022-11-11T13:58:24Z</time>
      </trkpt>
      <trkpt lat="47.12266" lon="-1.37407">
        <ele>90</ele>
        <time>2022-11-11T13:58:25Z</time>
      </trkpt>
      <trkpt lat="47.12272" lon="-1.37419">
        <ele>90</ele>
        <time>2022-11-11T13:58:26Z</time>
      </trkpt>
      <trkpt lat="47.12278" lon="-1.3743">
        <ele>89</ele>
        <time>2022-11-11T13:58:27Z</time>
      </trkpt>
      <trkpt lat="47.12284" lon="-1.37442">
        <ele>89</ele>
        <time>2022-11-11T13:58:28Z</time>
      </trkpt>
      <trkpt lat="47.1229" lon="-1.37454">
        <ele>88</ele>
        <time>2022-11-11T13:58:29Z</time>
      </trkpt>
      <trkpt lat="47.12296" lon="-1.37467">
        <ele>88</ele>
        <time>2022-11-11T13:58:30Z</time>
      </trkpt>
      <trkpt lat="47.12302" lon="-1.37478">
        <ele>87</ele>
        <time>2022-11-11T13:58:31Z</time>
      </trkpt>
      <trkpt lat="47.12309" lon="-1.3749">
        <ele>86</ele>
        <time>2022-11-11T13:58:32Z</time>
      </trkpt>
      <trkpt lat="47.12315" lon="-1.37503">
        <ele>86</ele>
        <time>2022-11-11T13:58:33Z</time>
      </trkpt>
      <trkpt lat="47.12322" lon="-1.37515">
        <ele>85</ele>
        <time>2022-11-11T13:58:34Z</time>
      </trkpt>
      <trkpt lat="47.12328" lon="-1.37527">
        <ele>84</ele>
        <time>2022-11-11T13:58:35Z</time>
      </trkpt>
      <trkpt lat="47.12334" lon="-1.37539">
        <ele>84</ele>
        <time>2022-11-11T13:58:36Z</time>
      </trkpt>
      <trkpt lat="47.1234" lon="-1.37551">
        <ele>83</ele>
        <time>2022-11-11T13:58:37Z</time>
      </trkpt>
      <trkpt lat="47.12346" lon="-1.37563">
        <ele>83</ele>
        <time>2022-11-11T13:58:38Z</time>
      </trkpt>
      <trkpt lat="47.12352" lon="-1.37574">
        <ele>83</ele>
        <time>2022-11-11T13:58:39Z</time>
      </trkpt>
      <trkpt lat="47.12358" lon="-1.37586">
        <ele>83</ele>
        <time>2022-11-11T13:58:40Z</time>
      </trkpt>
      <trkpt lat="47.12363" lon="-1.37597">
        <ele>82</ele>
        <time>2022-11-11T13:58:41Z</time>
      </trkpt>
      <trkpt lat="47.12369" lon="-1.37608">
        <ele>83</ele>
        <time>2022-11-11T13:58:42Z</time>
      </trkpt>
      <trkpt lat="47.12375" lon="-1.37619">
        <ele>83</ele>
        <time>2022-11-11T13:58:43Z</time>
      </trkpt>
      <trkpt lat="47.12385" lon="-1.3764">
        <ele>83</ele>
        <time>2022-11-11T13:58:45Z</time>
      </trkpt>
      <trkpt lat="47.12395" lon="-1.3766">
        <ele>83</ele>
        <time>2022-11-11T13:58:47Z</time>
      </trkpt>
      <trkpt lat="47.12404" lon="-1.37678">
        <ele>83</ele>
        <time>2022-11-11T13:58:49Z</time>
      </trkpt>
      <trkpt lat="47.12412" lon="-1.37698">
        <ele>82</ele>
        <time>2022-11-11T13:58:51Z</time>
      </trkpt>
      <trkpt lat="47.12419" lon="-1.37715">
        <ele>82</ele>
        <time>2022-11-11T13:58:53Z</time>
      </trkpt>
      <trkpt lat="47.12425" lon="-1.37732">
        <ele>82</ele>
        <time>2022-11-11T13:58:55Z</time>
      </trkpt>
      <trkpt lat="47.12431" lon="-1.37748">
        <ele>82</ele>
        <time>2022-11-11T13:58:57Z</time>
      </trkpt>
      <trkpt lat="47.12437" lon="-1.37764">
        <ele>82</ele>
        <time>2022-11-11T13:58:59Z</time>
      </trkpt>
      <trkpt lat="47.12442" lon="-1.37781">
        <ele>82</ele>
        <time>2022-11-11T13:59:01Z</time>
      </trkpt>
      <trkpt lat="47.12448" lon="-1.37797">
        <ele>82</ele>
        <time>2022-11-11T13:59:03Z</time>
      </trkpt>
      <trkpt lat="47.12453" lon="-1.37813">
        <ele>82</ele>
        <time>2022-11-11T13:59:05Z</time>
      </trkpt>
      <trkpt lat="47.12457" lon="-1.37829">
        <ele>82</ele>
        <time>2022-11-11T13:59:07Z</time>
      </trkpt>
      <trkpt lat="47.12461" lon="-1.37846">
        <ele>83</ele>
        <time>2022-11-11T13:59:09Z</time>
      </trkpt>
      <trkpt lat="47.12464" lon="-1.37862">
        <ele>83</ele>
        <time>2022-11-11T13:59:11Z</time>
      </trkpt>
      <trkpt lat="47.12467" lon="-1.37879">
        <ele>83</ele>
        <time>2022-11-11T13:59:13Z</time>
      </trkpt>
      <trkpt lat="47.1247" lon="-1.37896">
        <ele>83</ele>
        <time>2022-11-11T13:59:15Z</time>
      </trkpt>
      <trkpt lat="47.12473" lon="-1.37913">
        <ele>84</ele>
        <time>2022-11-11T13:59:17Z</time>
      </trkpt>
      <trkpt lat="47.12476" lon="-1.37931">
        <ele>84</ele>
        <time>2022-11-11T13:59:19Z</time>
      </trkpt>
      <trkpt lat="47.12478" lon="-1.37948">
        <ele>84</ele>
        <time>2022-11-11T13:59:21Z</time>
      </trkpt>
      <trkpt lat="47.12481" lon="-1.37965">
        <ele>84</ele>
        <time>2022-11-11T13:59:23Z</time>
      </trkpt>
      <trkpt lat="47.12484" lon="-1.37982">
        <ele>84</ele>
        <time>2022-11-11T13:59:25Z</time>
      </trkpt>
      <trkpt lat="47.12486" lon="-1.38">
        <ele>84</ele>
        <time>2022-11-11T13:59:27Z</time>
      </trkpt>
      <trkpt lat="47.12489" lon="-1.38016">
        <ele>84</ele>
        <time>2022-11-11T13:59:29Z</time>
      </trkpt>
      <trkpt lat="47.12492" lon="-1.38034">
        <ele>85</ele>
        <time>2022-11-11T13:59:31Z</time>
      </trkpt>
      <trkpt lat="47.12495" lon="-1.3805">
        <ele>85</ele>
        <time>2022-11-11T13:59:33Z</time>
      </trkpt>
      <trkpt lat="47.12499" lon="-1.38067">
        <ele>85</ele>
        <time>2022-11-11T13:59:35Z</time>
      </trkpt>
      <trkpt lat="47.12503" lon="-1.38083">
        <ele>86</ele>
        <time>2022-11-11T13:59:37Z</time>
      </trkpt>
      <trkpt lat="47.12507" lon="-1.38099">
        <ele>86</ele>
        <time>2022-11-11T13:59:39Z</time>
      </trkpt>
      <trkpt lat="47.12512" lon="-1.38116">
        <ele>86</ele>
        <time>2022-11-11T13:59:41Z</time>
      </trkpt>
      <trkpt lat="47.12517" lon="-1.38133">
        <ele>86</ele>
        <time>2022-11-11T13:59:43Z</time>
      </trkpt>
      <trkpt lat="47.12522" lon="-1.38148">
        <ele>86</ele>
        <time>2022-11-11T13:59:45Z</time>
      </trkpt>
      <trkpt lat="47.12527" lon="-1.38164">
        <ele>86</ele>
        <time>2022-11-11T13:59:47Z</time>
      </trkpt>
      <trkpt lat="47.12533" lon="-1.38179">
        <ele>87</ele>
        <time>2022-11-11T13:59:49Z</time>
      </trkpt>
      <trkpt lat="47.12539" lon="-1.38194">
        <ele>87</ele>
        <time>2022-11-11T13:59:51Z</time>
      </trkpt>
      <trkpt lat="47.12545" lon="-1.38208">
        <ele>88</ele>
        <time>2022-11-11T13:59:53Z</time>
      </trkpt>
      <trkpt lat="47.12552" lon="-1.38222">
        <ele>88</ele>
        <time>2022-11-11T13:59:55Z</time>
      </trkpt>
      <trkpt lat="47.12558" lon="-1.38236">
        <ele>88</ele>
        <time>2022-11-11T13:59:57Z</time>
      </trkpt>
      <trkpt lat="47.12565" lon="-1.38249">
        <ele>88</ele>
        <time>2022-11-11T13:59:59Z</time>
      </trkpt>
      <trkpt lat="47.12572" lon="-1.38262">
        <ele>88</ele>
        <time>2022-11-11T14:00:01Z</time>
      </trkpt>
      <trkpt lat="47.12578" lon="-1.38274">
        <ele>88</ele>
        <time>2022-11-11T14:00:03Z</time>
      </trkpt>
      <trkpt lat="47.12585" lon="-1.38287">
        <ele>89</ele>
        <time>2022-11-11T14:00:05Z</time>
      </trkpt>
      <trkpt lat="47.12591" lon="-1.38298">
        <ele>89</ele>
        <time>2022-11-11T14:00:07Z</time>
      </trkpt>
      <trkpt lat="47.12597" lon="-1.3831">
        <ele>89</ele>
        <time>2022-11-11T14:00:09Z</time>
      </trkpt>
      <trkpt lat="47.12603" lon="-1.38322">
        <ele>89</ele>
        <time>2022-11-11T14:00:11Z</time>
      </trkpt>
      <trkpt lat="47.12609" lon="-1.38334">
        <ele>89</ele>
        <time>2022-11-11T14:00:13Z</time>
      </trkpt>
      <trkpt lat="47.12615" lon="-1.38345">
        <ele>89</ele>
        <time>2022-11-11T14:00:15Z</time>
      </trkpt>
      <trkpt lat="47.12621" lon="-1.38356">
        <ele>89</ele>
        <time>2022-11-11T14:00:17Z</time>
      </trkpt>
      <trkpt lat="47.12627" lon="-1.38367">
        <ele>89</ele>
        <time>2022-11-11T14:00:19Z</time>
      </trkpt>
      <trkpt lat="47.12633" lon="-1.38378">
        <ele>90</ele>
        <time>2022-11-11T14:00:21Z</time>
      </trkpt>
      <trkpt lat="47.12639" lon="-1.38389">
        <ele>90</ele>
        <time>2022-11-11T14:00:23Z</time>
      </trkpt>
      <trkpt lat="47.12645" lon="-1.384">
        <ele>90</ele>
        <time>2022-11-11T14:00:25Z</time>
      </trkpt>
      <trkpt lat="47.1265" lon="-1.38412">
        <ele>91</ele>
        <time>2022-11-11T14:00:27Z</time>
      </trkpt>
      <trkpt lat="47.12656" lon="-1.38424">
        <ele>91</ele>
        <time>2022-11-11T14:00:29Z</time>
      </trkpt>
      <trkpt lat="47.12662" lon="-1.38436">
        <ele>91</ele>
        <time>2022-11-11T14:00:31Z</time>
      </trkpt>
      <trkpt lat="47.12668" lon="-1.38448">
        <ele>92</ele>
        <time>2022-11-11T14:00:33Z</time>
      </trkpt>
      <trkpt lat="47.12673" lon="-1.38461">
        <ele>92</ele>
        <time>2022-11-11T14:00:35Z</time>
      </trkpt>
      <trkpt lat="47.12679" lon="-1.38473">
        <ele>92</ele>
        <time>2022-11-11T14:00:37Z</time>
      </trkpt>
      <trkpt lat="47.12684" lon="-1.38485">
        <ele>92</ele>
        <time>2022-11-11T14:00:39Z</time>
      </trkpt>
      <trkpt lat="47.12691" lon="-1.38504">
        <ele>93</ele>
        <time>2022-11-11T14:00:42Z</time>
      </trkpt>
      <trkpt lat="47.12698" lon="-1.38522">
        <ele>93</ele>
        <time>2022-11-11T14:00:45Z</time>
      </trkpt>
      <trkpt lat="47.12705" lon="-1.38543">
        <ele>93</ele>
        <time>2022-11-11T14:00:48Z</time>
      </trkpt>
      <trkpt lat="47.12709" lon="-1.38557">
        <ele>93</ele>
        <time>2022-11-11T14:00:50Z</time>
      </trkpt>
      <trkpt lat="47.12715" lon="-1.38578">
        <ele>94</ele>
        <time>2022-11-11T14:00:53Z</time>
      </trkpt>
      <trkpt lat="47.12721" lon="-1.38598">
        <ele>94</ele>
        <time>2022-11-11T14:00:56Z</time>
      </trkpt>
      <trkpt lat="47.12724" lon="-1.38613">
        <ele>94</ele>
        <time>2022-11-11T14:00:58Z</time>
      </trkpt>
      <trkpt lat="47.12728" lon="-1.38627">
        <ele>94</ele>
        <time>2022-11-11T14:01:00Z</time>
      </trkpt>
      <trkpt lat="47.12731" lon="-1.38642">
        <ele>94</ele>
        <time>2022-11-11T14:01:02Z</time>
      </trkpt>
      <trkpt lat="47.12735" lon="-1.38665">
        <ele>95</ele>
        <time>2022-11-11T14:01:05Z</time>
      </trkpt>
      <trkpt lat="47.12738" lon="-1.3868">
        <ele>95</ele>
        <time>2022-11-11T14:01:07Z</time>
      </trkpt>
      <trkpt lat="47.12741" lon="-1.38695">
        <ele>95</ele>
        <time>2022-11-11T14:01:09Z</time>
      </trkpt>
      <trkpt lat="47.12744" lon="-1.38711">
        <ele>95</ele>
        <time>2022-11-11T14:01:11Z</time>
      </trkpt>
      <trkpt lat="47.12747" lon="-1.38726">
        <ele>96</ele>
        <time>2022-11-11T14:01:13Z</time>
      </trkpt>
      <trkpt lat="47.1275" lon="-1.38742">
        <ele>96</ele>
        <time>2022-11-11T14:01:15Z</time>
      </trkpt>
      <trkpt lat="47.12753" lon="-1.38758">
        <ele>96</ele>
        <time>2022-11-11T14:01:17Z</time>
      </trkpt>
      <trkpt lat="47.12756" lon="-1.38773">
        <ele>96</ele>
        <time>2022-11-11T14:01:19Z</time>
      </trkpt>
      <trkpt lat="47.12759" lon="-1.38789">
        <ele>97</ele>
        <time>2022-11-11T14:01:21Z</time>
      </trkpt>
      <trkpt lat="47.12762" lon="-1.38805">
        <ele>97</ele>
        <time>2022-11-11T14:01:23Z</time>
      </trkpt>
      <trkpt lat="47.12765" lon="-1.38821">
        <ele>97</ele>
        <time>2022-11-11T14:01:25Z</time>
      </trkpt>
      <trkpt lat="47.12768" lon="-1.38837">
        <ele>97</ele>
        <time>2022-11-11T14:01:27Z</time>
      </trkpt>
      <trkpt lat="47.12771" lon="-1.38852">
        <ele>98</ele>
        <time>2022-11-11T14:01:29Z</time>
      </trkpt>
      <trkpt lat="47.12773" lon="-1.38868">
        <ele>98</ele>
        <time>2022-11-11T14:01:31Z</time>
      </trkpt>
      <trkpt lat="47.12777" lon="-1.38884">
        <ele>98</ele>
        <time>2022-11-11T14:01:33Z</time>
      </trkpt>
      <trkpt lat="47.12781" lon="-1.38899">
        <ele>98</ele>
        <time>2022-11-11T14:01:35Z</time>
      </trkpt>
      <trkpt lat="47.12785" lon="-1.38914">
        <ele>98</ele>
        <time>2022-11-11T14:01:37Z</time>
      </trkpt>
      <trkpt lat="47.1279" lon="-1.3893">
        <ele>98</ele>
        <time>2022-11-11T14:01:39Z</time>
      </trkpt>
      <trkpt lat="47.12795" lon="-1.38944">
        <ele>98</ele>
        <time>2022-11-11T14:01:41Z</time>
      </trkpt>
      <trkpt lat="47.128" lon="-1.38958">
        <ele>99</ele>
        <time>2022-11-11T14:01:43Z</time>
      </trkpt>
      <trkpt lat="47.12806" lon="-1.38972">
        <ele>99</ele>
        <time>2022-11-11T14:01:45Z</time>
      </trkpt>
      <trkpt lat="47.1281" lon="-1.38985">
        <ele>100</ele>
        <time>2022-11-11T14:01:47Z</time>
      </trkpt>
      <trkpt lat="47.12815" lon="-1.38999">
        <ele>100</ele>
        <time>2022-11-11T14:01:49Z</time>
      </trkpt>
      <trkpt lat="47.12819" lon="-1.39014">
        <ele>100</ele>
        <time>2022-11-11T14:01:51Z</time>
      </trkpt>
      <trkpt lat="47.12822" lon="-1.39028">
        <ele>100</ele>
        <time>2022-11-11T14:01:53Z</time>
      </trkpt>
      <trkpt lat="47.12825" lon="-1.39044">
        <ele>100</ele>
        <time>2022-11-11T14:01:55Z</time>
      </trkpt>
      <trkpt lat="47.12827" lon="-1.3906">
        <ele>100</ele>
        <time>2022-11-11T14:01:57Z</time>
      </trkpt>
      <trkpt lat="47.12829" lon="-1.39076">
        <ele>100</ele>
        <time>2022-11-11T14:01:59Z</time>
      </trkpt>
      <trkpt lat="47.12831" lon="-1.39093">
        <ele>100</ele>
        <time>2022-11-11T14:02:01Z</time>
      </trkpt>
      <trkpt lat="47.12833" lon="-1.3911">
        <ele>100</ele>
        <time>2022-11-11T14:02:03Z</time>
      </trkpt>
      <trkpt lat="47.12835" lon="-1.39127">
        <ele>100</ele>
        <time>2022-11-11T14:02:05Z</time>
      </trkpt>
      <trkpt lat="47.12837" lon="-1.39144">
        <ele>100</ele>
        <time>2022-11-11T14:02:07Z</time>
      </trkpt>
      <trkpt lat="47.12839" lon="-1.39161">
        <ele>100</ele>
        <time>2022-11-11T14:02:09Z</time>
      </trkpt>
      <trkpt lat="47.12841" lon="-1.39178">
        <ele>100</ele>
        <time>2022-11-11T14:02:11Z</time>
      </trkpt>
      <trkpt lat="47.12843" lon="-1.39196">
        <ele>100</ele>
        <time>2022-11-11T14:02:13Z</time>
      </trkpt>
      <trkpt lat="47.12845" lon="-1.39213">
        <ele>100</ele>
        <time>2022-11-11T14:02:15Z</time>
      </trkpt>
      <trkpt lat="47.12847" lon="-1.39231">
        <ele>100</ele>
        <time>2022-11-11T14:02:17Z</time>
      </trkpt>
      <trkpt lat="47.12849" lon="-1.39248">
        <ele>100</ele>
        <time>2022-11-11T14:02:19Z</time>
      </trkpt>
      <trkpt lat="47.12851" lon="-1.39266">
        <ele>101</ele>
        <time>2022-11-11T14:02:21Z</time>
      </trkpt>
      <trkpt lat="47.12853" lon="-1.39284">
        <ele>101</ele>
        <time>2022-11-11T14:02:23Z</time>
      </trkpt>
      <trkpt lat="47.12855" lon="-1.39301">
        <ele>101</ele>
        <time>2022-11-11T14:02:25Z</time>
      </trkpt>
      <trkpt lat="47.12857" lon="-1.39318">
        <ele>101</ele>
        <time>2022-11-11T14:02:27Z</time>
      </trkpt>
      <trkpt lat="47.12859" lon="-1.39336">
        <ele>101</ele>
        <time>2022-11-11T14:02:29Z</time>
      </trkpt>
      <trkpt lat="47.12861" lon="-1.39354">
        <ele>101</ele>
        <time>2022-11-11T14:02:31Z</time>
      </trkpt>
      <trkpt lat="47.12863" lon="-1.39372">
        <ele>101</ele>
        <time>2022-11-11T14:02:33Z</time>
      </trkpt>
      <trkpt lat="47.12865" lon="-1.3939">
        <ele>101</ele>
        <time>2022-11-11T14:02:35Z</time>
      </trkpt>
      <trkpt lat="47.12867" lon="-1.39409">
        <ele>101</ele>
        <time>2022-11-11T14:02:37Z</time>
      </trkpt>
      <trkpt lat="47.12869" lon="-1.39428">
        <ele>101</ele>
        <time>2022-11-11T14:02:39Z</time>
      </trkpt>
      <trkpt lat="47.12871" lon="-1.39448">
        <ele>100</ele>
        <time>2022-11-11T14:02:41Z</time>
      </trkpt>
      <trkpt lat="47.12873" lon="-1.39468">
        <ele>100</ele>
        <time>2022-11-11T14:02:43Z</time>
      </trkpt>
      <trkpt lat="47.12876" lon="-1.39489">
        <ele>100</ele>
        <time>2022-11-11T14:02:45Z</time>
      </trkpt>
      <trkpt lat="47.12878" lon="-1.3951">
        <ele>99</ele>
        <time>2022-11-11T14:02:47Z</time>
      </trkpt>
      <trkpt lat="47.12881" lon="-1.39531">
        <ele>99</ele>
        <time>2022-11-11T14:02:49Z</time>
      </trkpt>
      <trkpt lat="47.12886" lon="-1.39552">
        <ele>98</ele>
        <time>2022-11-11T14:02:51Z</time>
      </trkpt>
      <trkpt lat="47.12892" lon="-1.39573">
        <ele>98</ele>
        <time>2022-11-11T14:02:53Z</time>
      </trkpt>
      <trkpt lat="47.12899" lon="-1.39594">
        <ele>97</ele>
        <time>2022-11-11T14:02:55Z</time>
      </trkpt>
      <trkpt lat="47.12906" lon="-1.39615">
        <ele>97</ele>
        <time>2022-11-11T14:02:57Z</time>
      </trkpt>
      <trkpt lat="47.12913" lon="-1.39636">
        <ele>97</ele>
        <time>2022-11-11T14:02:59Z</time>
      </trkpt>
      <trkpt lat="47.12921" lon="-1.39657">
        <ele>96</ele>
        <time>2022-11-11T14:03:01Z</time>
      </trkpt>
      <trkpt lat="47.12928" lon="-1.39679">
        <ele>96</ele>
        <time>2022-11-11T14:03:03Z</time>
      </trkpt>
      <trkpt lat="47.12936" lon="-1.39701">
        <ele>96</ele>
        <time>2022-11-11T14:03:05Z</time>
      </trkpt>
      <trkpt lat="47.12943" lon="-1.39723">
        <ele>95</ele>
        <time>2022-11-11T14:03:07Z</time>
      </trkpt>
      <trkpt lat="47.1295" lon="-1.39744">
        <ele>95</ele>
        <time>2022-11-11T14:03:09Z</time>
      </trkpt>
      <trkpt lat="47.12958" lon="-1.39766">
        <ele>94</ele>
        <time>2022-11-11T14:03:11Z</time>
      </trkpt>
      <trkpt lat="47.12965" lon="-1.39787">
        <ele>94</ele>
        <time>2022-11-11T14:03:13Z</time>
      </trkpt>
      <trkpt lat="47.12973" lon="-1.39808">
        <ele>94</ele>
        <time>2022-11-11T14:03:15Z</time>
      </trkpt>
      <trkpt lat="47.1298" lon="-1.3983">
        <ele>93</ele>
        <time>2022-11-11T14:03:17Z</time>
      </trkpt>
      <trkpt lat="47.12988" lon="-1.39851">
        <ele>93</ele>
        <time>2022-11-11T14:03:19Z</time>
      </trkpt>
      <trkpt lat="47.12996" lon="-1.39872">
        <ele>92</ele>
        <time>2022-11-11T14:03:21Z</time>
      </trkpt>
      <trkpt lat="47.13004" lon="-1.39894">
        <ele>92</ele>
        <time>2022-11-11T14:03:23Z</time>
      </trkpt>
      <trkpt lat="47.13013" lon="-1.39914">
        <ele>92</ele>
        <time>2022-11-11T14:03:25Z</time>
      </trkpt>
      <trkpt lat="47.13023" lon="-1.39933">
        <ele>91</ele>
        <time>2022-11-11T14:03:27Z</time>
      </trkpt>
      <trkpt lat="47.13035" lon="-1.39951">
        <ele>91</ele>
        <time>2022-11-11T14:03:29Z</time>
      </trkpt>
      <trkpt lat="47.13048" lon="-1.39965">
        <ele>91</ele>
        <time>2022-11-11T14:03:31Z</time>
      </trkpt>
      <trkpt lat="47.13062" lon="-1.39978">
        <ele>90</ele>
        <time>2022-11-11T14:03:33Z</time>
      </trkpt>
      <trkpt lat="47.13076" lon="-1.39989">
        <ele>90</ele>
        <time>2022-11-11T14:03:35Z</time>
      </trkpt>
      <trkpt lat="47.13091" lon="-1.39998">
        <ele>90</ele>
        <time>2022-11-11T14:03:37Z</time>
      </trkpt>
      <trkpt lat="47.13106" lon="-1.40005">
        <ele>90</ele>
        <time>2022-11-11T14:03:39Z</time>
      </trkpt>
      <trkpt lat="47.1312" lon="-1.40012">
        <ele>90</ele>
        <time>2022-11-11T14:03:41Z</time>
      </trkpt>
      <trkpt lat="47.13134" lon="-1.40019">
        <ele>90</ele>
        <time>2022-11-11T14:03:43Z</time>
      </trkpt>
      <trkpt lat="47.13149" lon="-1.40027">
        <ele>90</ele>
        <time>2022-11-11T14:03:45Z</time>
      </trkpt>
      <trkpt lat="47.13162" lon="-1.40034">
        <ele>90</ele>
        <time>2022-11-11T14:03:47Z</time>
      </trkpt>
      <trkpt lat="47.13176" lon="-1.40041">
        <ele>90</ele>
        <time>2022-11-11T14:03:49Z</time>
      </trkpt>
      <trkpt lat="47.13189" lon="-1.40049">
        <ele>90</ele>
        <time>2022-11-11T14:03:51Z</time>
      </trkpt>
      <trkpt lat="47.13203" lon="-1.40058">
        <ele>91</ele>
        <time>2022-11-11T14:03:53Z</time>
      </trkpt>
      <trkpt lat="47.13215" lon="-1.40067">
        <ele>90</ele>
        <time>2022-11-11T14:03:55Z</time>
      </trkpt>
      <trkpt lat="47.13228" lon="-1.40077">
        <ele>90</ele>
        <time>2022-11-11T14:03:57Z</time>
      </trkpt>
      <trkpt lat="47.1324" lon="-1.40087">
        <ele>91</ele>
        <time>2022-11-11T14:03:59Z</time>
      </trkpt>
      <trkpt lat="47.13252" lon="-1.40097">
        <ele>91</ele>
        <time>2022-11-11T14:04:01Z</time>
      </trkpt>
      <trkpt lat="47.13265" lon="-1.40107">
        <ele>91</ele>
        <time>2022-11-11T14:04:03Z</time>
      </trkpt>
      <trkpt lat="47.13276" lon="-1.40117">
        <ele>91</ele>
        <time>2022-11-11T14:04:05Z</time>
      </trkpt>
      <trkpt lat="47.13288" lon="-1.40127">
        <ele>91</ele>
        <time>2022-11-11T14:04:07Z</time>
      </trkpt>
      <trkpt lat="47.13299" lon="-1.40136">
        <ele>91</ele>
        <time>2022-11-11T14:04:09Z</time>
      </trkpt>
      <trkpt lat="47.1331" lon="-1.40145">
        <ele>91</ele>
        <time>2022-11-11T14:04:11Z</time>
      </trkpt>
      <trkpt lat="47.13322" lon="-1.40155">
        <ele>91</ele>
        <time>2022-11-11T14:04:13Z</time>
      </trkpt>
      <trkpt lat="47.13333" lon="-1.40163">
        <ele>91</ele>
        <time>2022-11-11T14:04:15Z</time>
      </trkpt>
      <trkpt lat="47.13344" lon="-1.40171">
        <ele>92</ele>
        <time>2022-11-11T14:04:17Z</time>
      </trkpt>
      <trkpt lat="47.13356" lon="-1.40176">
        <ele>92</ele>
        <time>2022-11-11T14:04:19Z</time>
      </trkpt>
      <trkpt lat="47.13369" lon="-1.4018">
        <ele>92</ele>
        <time>2022-11-11T14:04:21Z</time>
      </trkpt>
      <trkpt lat="47.13381" lon="-1.40181">
        <ele>92</ele>
        <time>2022-11-11T14:04:23Z</time>
      </trkpt>
      <trkpt lat="47.13393" lon="-1.40181">
        <ele>92</ele>
        <time>2022-11-11T14:04:25Z</time>
      </trkpt>
      <trkpt lat="47.13405" lon="-1.40181">
        <ele>92</ele>
        <time>2022-11-11T14:04:27Z</time>
      </trkpt>
      <trkpt lat="47.13417" lon="-1.40181">
        <ele>92</ele>
        <time>2022-11-11T14:04:29Z</time>
      </trkpt>
      <trkpt lat="47.13429" lon="-1.40182">
        <ele>92</ele>
        <time>2022-11-11T14:04:31Z</time>
      </trkpt>
      <trkpt lat="47.13442" lon="-1.40185">
        <ele>92</ele>
        <time>2022-11-11T14:04:33Z</time>
      </trkpt>
      <trkpt lat="47.13453" lon="-1.40189">
        <ele>92</ele>
        <time>2022-11-11T14:04:35Z</time>
      </trkpt>
      <trkpt lat="47.13465" lon="-1.40194">
        <ele>92</ele>
        <time>2022-11-11T14:04:37Z</time>
      </trkpt>
      <trkpt lat="47.13477" lon="-1.402">
        <ele>92</ele>
        <time>2022-11-11T14:04:39Z</time>
      </trkpt>
      <trkpt lat="47.13489" lon="-1.40205">
        <ele>92</ele>
        <time>2022-11-11T14:04:41Z</time>
      </trkpt>
      <trkpt lat="47.13501" lon="-1.40211">
        <ele>92</ele>
        <time>2022-11-11T14:04:43Z</time>
      </trkpt>
      <trkpt lat="47.13513" lon="-1.40216">
        <ele>92</ele>
        <time>2022-11-11T14:04:45Z</time>
      </trkpt>
      <trkpt lat="47.13524" lon="-1.40221">
        <ele>92</ele>
        <time>2022-11-11T14:04:47Z</time>
      </trkpt>
      <trkpt lat="47.13536" lon="-1.40227">
        <ele>92</ele>
        <time>2022-11-11T14:04:49Z</time>
      </trkpt>
      <trkpt lat="47.13548" lon="-1.40232">
        <ele>92</ele>
        <time>2022-11-11T14:04:51Z</time>
      </trkpt>
      <trkpt lat="47.1356" lon="-1.40238">
        <ele>92</ele>
        <time>2022-11-11T14:04:53Z</time>
      </trkpt>
      <trkpt lat="47.13572" lon="-1.40244">
        <ele>92</ele>
        <time>2022-11-11T14:04:55Z</time>
      </trkpt>
      <trkpt lat="47.13583" lon="-1.40249">
        <ele>92</ele>
        <time>2022-11-11T14:04:57Z</time>
      </trkpt>
      <trkpt lat="47.13595" lon="-1.40255">
        <ele>92</ele>
        <time>2022-11-11T14:04:59Z</time>
      </trkpt>
      <trkpt lat="47.13607" lon="-1.4026">
        <ele>92</ele>
        <time>2022-11-11T14:05:01Z</time>
      </trkpt>
      <trkpt lat="47.13619" lon="-1.40266">
        <ele>92</ele>
        <time>2022-11-11T14:05:03Z</time>
      </trkpt>
      <trkpt lat="47.13631" lon="-1.40271">
        <ele>92</ele>
        <time>2022-11-11T14:05:05Z</time>
      </trkpt>
      <trkpt lat="47.13643" lon="-1.40276">
        <ele>91</ele>
        <time>2022-11-11T14:05:07Z</time>
      </trkpt>
      <trkpt lat="47.13656" lon="-1.40279">
        <ele>91</ele>
        <time>2022-11-11T14:05:09Z</time>
      </trkpt>
      <trkpt lat="47.13668" lon="-1.4028">
        <ele>91</ele>
        <time>2022-11-11T14:05:11Z</time>
      </trkpt>
      <trkpt lat="47.13681" lon="-1.4028">
        <ele>91</ele>
        <time>2022-11-11T14:05:13Z</time>
      </trkpt>
      <trkpt lat="47.13694" lon="-1.40278">
        <ele>92</ele>
        <time>2022-11-11T14:05:15Z</time>
      </trkpt>
      <trkpt lat="47.13706" lon="-1.40276">
        <ele>91</ele>
        <time>2022-11-11T14:05:17Z</time>
      </trkpt>
      <trkpt lat="47.13719" lon="-1.40274">
        <ele>91</ele>
        <time>2022-11-11T14:05:19Z</time>
      </trkpt>
      <trkpt lat="47.13731" lon="-1.40272">
        <ele>91</ele>
        <time>2022-11-11T14:05:21Z</time>
      </trkpt>
      <trkpt lat="47.13743" lon="-1.4027">
        <ele>91</ele>
        <time>2022-11-11T14:05:23Z</time>
      </trkpt>
      <trkpt lat="47.13755" lon="-1.40267">
        <ele>91</ele>
        <time>2022-11-11T14:05:25Z</time>
      </trkpt>
      <trkpt lat="47.13767" lon="-1.40265">
        <ele>91</ele>
        <time>2022-11-11T14:05:27Z</time>
      </trkpt>
      <trkpt lat="47.13779" lon="-1.40263">
        <ele>91</ele>
        <time>2022-11-11T14:05:29Z</time>
      </trkpt>
      <trkpt lat="47.13792" lon="-1.4026">
        <ele>90</ele>
        <time>2022-11-11T14:05:31Z</time>
      </trkpt>
      <trkpt lat="47.13804" lon="-1.40257">
        <ele>90</ele>
        <time>2022-11-11T14:05:33Z</time>
      </trkpt>
      <trkpt lat="47.13815" lon="-1.40255">
        <ele>90</ele>
        <time>2022-11-11T14:05:35Z</time>
      </trkpt>
      <trkpt lat="47.13828" lon="-1.40253">
        <ele>90</ele>
        <time>2022-11-11T14:05:37Z</time>
      </trkpt>
      <trkpt lat="47.1384" lon="-1.40251">
        <ele>90</ele>
        <time>2022-11-11T14:05:39Z</time>
      </trkpt>
      <trkpt lat="47.13852" lon="-1.40249">
        <ele>90</ele>
        <time>2022-11-11T14:05:41Z</time>
      </trkpt>
      <trkpt lat="47.13864" lon="-1.40247">
        <ele>90</ele>
        <time>2022-11-11T14:05:43Z</time>
      </trkpt>
      <trkpt lat="47.13876" lon="-1.40244">
        <ele>90</ele>
        <time>2022-11-11T14:05:45Z</time>
      </trkpt>
      <trkpt lat="47.13888" lon="-1.40243">
        <ele>90</ele>
        <time>2022-11-11T14:05:47Z</time>
      </trkpt>
      <trkpt lat="47.13899" lon="-1.40242">
        <ele>90</ele>
        <time>2022-11-11T14:05:49Z</time>
      </trkpt>
      <trkpt lat="47.13911" lon="-1.40243">
        <ele>90</ele>
        <time>2022-11-11T14:05:51Z</time>
      </trkpt>
      <trkpt lat="47.13922" lon="-1.40245">
        <ele>90</ele>
        <time>2022-11-11T14:05:53Z</time>
      </trkpt>
      <trkpt lat="47.13934" lon="-1.40248">
        <ele>90</ele>
        <time>2022-11-11T14:05:55Z</time>
      </trkpt>
      <trkpt lat="47.13945" lon="-1.40252">
        <ele>90</ele>
        <time>2022-11-11T14:05:57Z</time>
      </trkpt>
      <trkpt lat="47.13957" lon="-1.40256">
        <ele>90</ele>
        <time>2022-11-11T14:05:59Z</time>
      </trkpt>
      <trkpt lat="47.13968" lon="-1.40262">
        <ele>90</ele>
        <time>2022-11-11T14:06:01Z</time>
      </trkpt>
      <trkpt lat="47.1398" lon="-1.40269">
        <ele>90</ele>
        <time>2022-11-11T14:06:03Z</time>
      </trkpt>
      <trkpt lat="47.13991" lon="-1.40277">
        <ele>90</ele>
        <time>2022-11-11T14:06:05Z</time>
      </trkpt>
      <trkpt lat="47.14002" lon="-1.40288">
        <ele>90</ele>
        <time>2022-11-11T14:06:07Z</time>
      </trkpt>
      <trkpt lat="47.14012" lon="-1.40299">
        <ele>90</ele>
        <time>2022-11-11T14:06:09Z</time>
      </trkpt>
      <trkpt lat="47.14021" lon="-1.40312">
        <ele>90</ele>
        <time>2022-11-11T14:06:11Z</time>
      </trkpt>
      <trkpt lat="47.14029" lon="-1.40327">
        <ele>90</ele>
        <time>2022-11-11T14:06:13Z</time>
      </trkpt>
      <trkpt lat="47.14037" lon="-1.40342">
        <ele>90</ele>
        <time>2022-11-11T14:06:15Z</time>
      </trkpt>
      <trkpt lat="47.14043" lon="-1.40358">
        <ele>90</ele>
        <time>2022-11-11T14:06:17Z</time>
      </trkpt>
      <trkpt lat="47.14048" lon="-1.40375">
        <ele>90</ele>
        <time>2022-11-11T14:06:19Z</time>
      </trkpt>
      <trkpt lat="47.14053" lon="-1.40392">
        <ele>90</ele>
        <time>2022-11-11T14:06:21Z</time>
      </trkpt>
      <trkpt lat="47.14058" lon="-1.40409">
        <ele>90</ele>
        <time>2022-11-11T14:06:23Z</time>
      </trkpt>
      <trkpt lat="47.14064" lon="-1.40426">
        <ele>90</ele>
        <time>2022-11-11T14:06:25Z</time>
      </trkpt>
      <trkpt lat="47.14071" lon="-1.40442">
        <ele>90</ele>
        <time>2022-11-11T14:06:27Z</time>
      </trkpt>
      <trkpt lat="47.14078" lon="-1.40458">
        <ele>90</ele>
        <time>2022-11-11T14:06:29Z</time>
      </trkpt>
      <trkpt lat="47.14087" lon="-1.40474">
        <ele>90</ele>
        <time>2022-11-11T14:06:31Z</time>
      </trkpt>
      <trkpt lat="47.14097" lon="-1.40488">
        <ele>90</ele>
        <time>2022-11-11T14:06:33Z</time>
      </trkpt>
      <trkpt lat="47.14106" lon="-1.40502">
        <ele>90</ele>
        <time>2022-11-11T14:06:35Z</time>
      </trkpt>
      <trkpt lat="47.14116" lon="-1.40516">
        <ele>90</ele>
        <time>2022-11-11T14:06:37Z</time>
      </trkpt>
      <trkpt lat="47.14126" lon="-1.4053">
        <ele>89</ele>
        <time>2022-11-11T14:06:39Z</time>
      </trkpt>
      <trkpt lat="47.14136" lon="-1.40543">
        <ele>89</ele>
        <time>2022-11-11T14:06:41Z</time>
      </trkpt>
      <trkpt lat="47.14145" lon="-1.40557">
        <ele>88</ele>
        <time>2022-11-11T14:06:43Z</time>
      </trkpt>
      <trkpt lat="47.14155" lon="-1.4057">
        <ele>88</ele>
        <time>2022-11-11T14:06:45Z</time>
      </trkpt>
      <trkpt lat="47.14165" lon="-1.40584">
        <ele>88</ele>
        <time>2022-11-11T14:06:47Z</time>
      </trkpt>
      <trkpt lat="47.14175" lon="-1.40598">
        <ele>88</ele>
        <time>2022-11-11T14:06:49Z</time>
      </trkpt>
      <trkpt lat="47.14185" lon="-1.40612">
        <ele>88</ele>
        <time>2022-11-11T14:06:51Z</time>
      </trkpt>
      <trkpt lat="47.14194" lon="-1.40626">
        <ele>87</ele>
        <time>2022-11-11T14:06:53Z</time>
      </trkpt>
      <trkpt lat="47.14204" lon="-1.4064">
        <ele>87</ele>
        <time>2022-11-11T14:06:55Z</time>
      </trkpt>
      <trkpt lat="47.14214" lon="-1.40654">
        <ele>87</ele>
        <time>2022-11-11T14:06:57Z</time>
      </trkpt>
      <trkpt lat="47.14223" lon="-1.40668">
        <ele>87</ele>
        <time>2022-11-11T14:06:59Z</time>
      </trkpt>
      <trkpt lat="47.14233" lon="-1.40682">
        <ele>87</ele>
        <time>2022-11-11T14:07:01Z</time>
      </trkpt>
      <trkpt lat="47.14242" lon="-1.40697">
        <ele>87</ele>
        <time>2022-11-11T14:07:03Z</time>
      </trkpt>
      <trkpt lat="47.1425" lon="-1.40712">
        <ele>87</ele>
        <time>2022-11-11T14:07:05Z</time>
      </trkpt>
      <trkpt lat="47.14259" lon="-1.40728">
        <ele>86</ele>
        <time>2022-11-11T14:07:07Z</time>
      </trkpt>
      <trkpt lat="47.14267" lon="-1.40742">
        <ele>86</ele>
        <time>2022-11-11T14:07:09Z</time>
      </trkpt>
      <trkpt lat="47.14276" lon="-1.40758">
        <ele>86</ele>
        <time>2022-11-11T14:07:11Z</time>
      </trkpt>
      <trkpt lat="47.14284" lon="-1.40773">
        <ele>86</ele>
        <time>2022-11-11T14:07:13Z</time>
      </trkpt>
      <trkpt lat="47.14292" lon="-1.40788">
        <ele>85</ele>
        <time>2022-11-11T14:07:15Z</time>
      </trkpt>
      <trkpt lat="47.14301" lon="-1.40803">
        <ele>86</ele>
        <time>2022-11-11T14:07:17Z</time>
      </trkpt>
      <trkpt lat="47.14309" lon="-1.40818">
        <ele>86</ele>
        <time>2022-11-11T14:07:19Z</time>
      </trkpt>
      <trkpt lat="47.14317" lon="-1.40833">
        <ele>86</ele>
        <time>2022-11-11T14:07:21Z</time>
      </trkpt>
      <trkpt lat="47.14325" lon="-1.40848">
        <ele>85</ele>
        <time>2022-11-11T14:07:23Z</time>
      </trkpt>
      <trkpt lat="47.14333" lon="-1.40863">
        <ele>86</ele>
        <time>2022-11-11T14:07:25Z</time>
      </trkpt>
      <trkpt lat="47.14341" lon="-1.40877">
        <ele>86</ele>
        <time>2022-11-11T14:07:27Z</time>
      </trkpt>
      <trkpt lat="47.14349" lon="-1.40891">
        <ele>86</ele>
        <time>2022-11-11T14:07:29Z</time>
      </trkpt>
      <trkpt lat="47.14356" lon="-1.40904">
        <ele>86</ele>
        <time>2022-11-11T14:07:31Z</time>
      </trkpt>
      <trkpt lat="47.14363" lon="-1.40916">
        <ele>86</ele>
        <time>2022-11-11T14:07:33Z</time>
      </trkpt>
      <trkpt lat="47.1437" lon="-1.40929">
        <ele>87</ele>
        <time>2022-11-11T14:07:35Z</time>
      </trkpt>
      <trkpt lat="47.14377" lon="-1.40941">
        <ele>87</ele>
        <time>2022-11-11T14:07:37Z</time>
      </trkpt>
      <trkpt lat="47.14383" lon="-1.40953">
        <ele>87</ele>
        <time>2022-11-11T14:07:39Z</time>
      </trkpt>
      <trkpt lat="47.1439" lon="-1.40965">
        <ele>87</ele>
        <time>2022-11-11T14:07:41Z</time>
      </trkpt>
      <trkpt lat="47.14396" lon="-1.40978">
        <ele>88</ele>
        <time>2022-11-11T14:07:43Z</time>
      </trkpt>
      <trkpt lat="47.14402" lon="-1.40991">
        <ele>88</ele>
        <time>2022-11-11T14:07:45Z</time>
      </trkpt>
      <trkpt lat="47.14406" lon="-1.41006">
        <ele>88</ele>
        <time>2022-11-11T14:07:47Z</time>
      </trkpt>
      <trkpt lat="47.14409" lon="-1.41021">
        <ele>88</ele>
        <time>2022-11-11T14:07:49Z</time>
      </trkpt>
      <trkpt lat="47.14411" lon="-1.41036">
        <ele>89</ele>
        <time>2022-11-11T14:07:51Z</time>
      </trkpt>
      <trkpt lat="47.14412" lon="-1.41053">
        <ele>90</ele>
        <time>2022-11-11T14:07:53Z</time>
      </trkpt>
      <trkpt lat="47.14411" lon="-1.4107">
        <ele>90</ele>
        <time>2022-11-11T14:07:55Z</time>
      </trkpt>
      <trkpt lat="47.14409" lon="-1.41086">
        <ele>90</ele>
        <time>2022-11-11T14:07:57Z</time>
      </trkpt>
      <trkpt lat="47.14408" lon="-1.41103">
        <ele>91</ele>
        <time>2022-11-11T14:07:59Z</time>
      </trkpt>
      <trkpt lat="47.14407" lon="-1.41121">
        <ele>91</ele>
        <time>2022-11-11T14:08:01Z</time>
      </trkpt>
      <trkpt lat="47.14407" lon="-1.41138">
        <ele>92</ele>
        <time>2022-11-11T14:08:03Z</time>
      </trkpt>
      <trkpt lat="47.14405" lon="-1.41154">
        <ele>92</ele>
        <time>2022-11-11T14:08:05Z</time>
      </trkpt>
      <trkpt lat="47.14404" lon="-1.41171">
        <ele>92</ele>
        <time>2022-11-11T14:08:07Z</time>
      </trkpt>
      <trkpt lat="47.14403" lon="-1.41188">
        <ele>92</ele>
        <time>2022-11-11T14:08:09Z</time>
      </trkpt>
      <trkpt lat="47.14402" lon="-1.41205">
        <ele>92</ele>
        <time>2022-11-11T14:08:11Z</time>
      </trkpt>
      <trkpt lat="47.14401" lon="-1.41221">
        <ele>93</ele>
        <time>2022-11-11T14:08:13Z</time>
      </trkpt>
      <trkpt lat="47.144" lon="-1.41238">
        <ele>93</ele>
        <time>2022-11-11T14:08:15Z</time>
      </trkpt>
      <trkpt lat="47.14399" lon="-1.41254">
        <ele>93</ele>
        <time>2022-11-11T14:08:17Z</time>
      </trkpt>
      <trkpt lat="47.14399" lon="-1.41271">
        <ele>93</ele>
        <time>2022-11-11T14:08:19Z</time>
      </trkpt>
      <trkpt lat="47.14398" lon="-1.41287">
        <ele>93</ele>
        <time>2022-11-11T14:08:21Z</time>
      </trkpt>
      <trkpt lat="47.14397" lon="-1.41303">
        <ele>93</ele>
        <time>2022-11-11T14:08:23Z</time>
      </trkpt>
      <trkpt lat="47.14397" lon="-1.41319">
        <ele>93</ele>
        <time>2022-11-11T14:08:25Z</time>
      </trkpt>
      <trkpt lat="47.14397" lon="-1.41335">
        <ele>93</ele>
        <time>2022-11-11T14:08:27Z</time>
      </trkpt>
      <trkpt lat="47.14397" lon="-1.41352">
        <ele>93</ele>
        <time>2022-11-11T14:08:29Z</time>
      </trkpt>
      <trkpt lat="47.14397" lon="-1.41368">
        <ele>93</ele>
        <time>2022-11-11T14:08:31Z</time>
      </trkpt>
      <trkpt lat="47.14398" lon="-1.41384">
        <ele>94</ele>
        <time>2022-11-11T14:08:33Z</time>
      </trkpt>
      <trkpt lat="47.14398" lon="-1.414">
        <ele>94</ele>
        <time>2022-11-11T14:08:35Z</time>
      </trkpt>
      <trkpt lat="47.14398" lon="-1.41416">
        <ele>93</ele>
        <time>2022-11-11T14:08:37Z</time>
      </trkpt>
      <trkpt lat="47.14398" lon="-1.41432">
        <ele>94</ele>
        <time>2022-11-11T14:08:39Z</time>
      </trkpt>
      <trkpt lat="47.14398" lon="-1.41447">
        <ele>94</ele>
        <time>2022-11-11T14:08:41Z</time>
      </trkpt>
      <trkpt lat="47.14398" lon="-1.41463">
        <ele>94</ele>
        <time>2022-11-11T14:08:43Z</time>
      </trkpt>
      <trkpt lat="47.14397" lon="-1.41479">
        <ele>94</ele>
        <time>2022-11-11T14:08:45Z</time>
      </trkpt>
      <trkpt lat="47.14397" lon="-1.41495">
        <ele>94</ele>
        <time>2022-11-11T14:08:47Z</time>
      </trkpt>
      <trkpt lat="47.14398" lon="-1.41511">
        <ele>95</ele>
        <time>2022-11-11T14:08:49Z</time>
      </trkpt>
      <trkpt lat="47.14399" lon="-1.41528">
        <ele>95</ele>
        <time>2022-11-11T14:08:51Z</time>
      </trkpt>
      <trkpt lat="47.14399" lon="-1.41545">
        <ele>95</ele>
        <time>2022-11-11T14:08:53Z</time>
      </trkpt>
      <trkpt lat="47.144" lon="-1.41562">
        <ele>95</ele>
        <time>2022-11-11T14:08:55Z</time>
      </trkpt>
      <trkpt lat="47.144" lon="-1.41578">
        <ele>95</ele>
        <time>2022-11-11T14:08:57Z</time>
      </trkpt>
      <trkpt lat="47.14399" lon="-1.41593">
        <ele>95</ele>
        <time>2022-11-11T14:08:59Z</time>
      </trkpt>
      <trkpt lat="47.14395" lon="-1.41609">
        <ele>96</ele>
        <time>2022-11-11T14:09:01Z</time>
      </trkpt>
      <trkpt lat="47.14391" lon="-1.41624">
        <ele>96</ele>
        <time>2022-11-11T14:09:03Z</time>
      </trkpt>
      <trkpt lat="47.14387" lon="-1.41641">
        <ele>96</ele>
        <time>2022-11-11T14:09:05Z</time>
      </trkpt>
      <trkpt lat="47.14383" lon="-1.41657">
        <ele>95</ele>
        <time>2022-11-11T14:09:07Z</time>
      </trkpt>
      <trkpt lat="47.14385" lon="-1.41675">
        <ele>95</ele>
        <time>2022-11-11T14:09:09Z</time>
      </trkpt>
      <trkpt lat="47.14388" lon="-1.41693">
        <ele>95</ele>
        <time>2022-11-11T14:09:11Z</time>
      </trkpt>
      <trkpt lat="47.14394" lon="-1.41711">
        <ele>94</ele>
        <time>2022-11-11T14:09:13Z</time>
      </trkpt>
      <trkpt lat="47.14399" lon="-1.41729">
        <ele>94</ele>
        <time>2022-11-11T14:09:15Z</time>
      </trkpt>
      <trkpt lat="47.14403" lon="-1.41749">
        <ele>95</ele>
        <time>2022-11-11T14:09:17Z</time>
      </trkpt>
      <trkpt lat="47.14405" lon="-1.4177">
        <ele>94</ele>
        <time>2022-11-11T14:09:19Z</time>
      </trkpt>
      <trkpt lat="47.14406" lon="-1.41792">
        <ele>93</ele>
        <time>2022-11-11T14:09:21Z</time>
      </trkpt>
      <trkpt lat="47.14408" lon="-1.41815">
        <ele>92</ele>
        <time>2022-11-11T14:09:23Z</time>
      </trkpt>
      <trkpt lat="47.1441" lon="-1.41838">
        <ele>91</ele>
        <time>2022-11-11T14:09:25Z</time>
      </trkpt>
      <trkpt lat="47.14413" lon="-1.4186">
        <ele>90</ele>
        <time>2022-11-11T14:09:27Z</time>
      </trkpt>
      <trkpt lat="47.14418" lon="-1.41882">
        <ele>89</ele>
        <time>2022-11-11T14:09:29Z</time>
      </trkpt>
      <trkpt lat="47.14423" lon="-1.41903">
        <ele>89</ele>
        <time>2022-11-11T14:09:31Z</time>
      </trkpt>
      <trkpt lat="47.14428" lon="-1.41926">
        <ele>88</ele>
        <time>2022-11-11T14:09:33Z</time>
      </trkpt>
      <trkpt lat="47.14434" lon="-1.41949">
        <ele>87</ele>
        <time>2022-11-11T14:09:35Z</time>
      </trkpt>
      <trkpt lat="47.1444" lon="-1.41972">
        <ele>86</ele>
        <time>2022-11-11T14:09:37Z</time>
      </trkpt>
      <trkpt lat="47.14446" lon="-1.41997">
        <ele>85</ele>
        <time>2022-11-11T14:09:39Z</time>
      </trkpt>
      <trkpt lat="47.14449" lon="-1.4201">
        <ele>85</ele>
        <time>2022-11-11T14:09:40Z</time>
      </trkpt>
      <trkpt lat="47.14452" lon="-1.42022">
        <ele>84</ele>
        <time>2022-11-11T14:09:41Z</time>
      </trkpt>
      <trkpt lat="47.14455" lon="-1.42035">
        <ele>84</ele>
        <time>2022-11-11T14:09:42Z</time>
      </trkpt>
      <trkpt lat="47.1446" lon="-1.42047">
        <ele>84</ele>
        <time>2022-11-11T14:09:43Z</time>
      </trkpt>
      <trkpt lat="47.14465" lon="-1.42058">
        <ele>83</ele>
        <time>2022-11-11T14:09:44Z</time>
      </trkpt>
      <trkpt lat="47.1447" lon="-1.4207">
        <ele>82</ele>
        <time>2022-11-11T14:09:45Z</time>
      </trkpt>
      <trkpt lat="47.14475" lon="-1.42082">
        <ele>81</ele>
        <time>2022-11-11T14:09:46Z</time>
      </trkpt>
      <trkpt lat="47.1448" lon="-1.42094">
        <ele>81</ele>
        <time>2022-11-11T14:09:47Z</time>
      </trkpt>
      <trkpt lat="47.14485" lon="-1.42106">
        <ele>80</ele>
        <time>2022-11-11T14:09:48Z</time>
      </trkpt>
      <trkpt lat="47.1449" lon="-1.42118">
        <ele>79</ele>
        <time>2022-11-11T14:09:49Z</time>
      </trkpt>
      <trkpt lat="47.14496" lon="-1.4213">
        <ele>79</ele>
        <time>2022-11-11T14:09:50Z</time>
      </trkpt>
      <trkpt lat="47.14501" lon="-1.42143">
        <ele>78</ele>
        <time>2022-11-11T14:09:51Z</time>
      </trkpt>
      <trkpt lat="47.14506" lon="-1.42155">
        <ele>77</ele>
        <time>2022-11-11T14:09:52Z</time>
      </trkpt>
      <trkpt lat="47.14511" lon="-1.42168">
        <ele>77</ele>
        <time>2022-11-11T14:09:53Z</time>
      </trkpt>
      <trkpt lat="47.14516" lon="-1.42182">
        <ele>76</ele>
        <time>2022-11-11T14:09:54Z</time>
      </trkpt>
      <trkpt lat="47.14521" lon="-1.42195">
        <ele>76</ele>
        <time>2022-11-11T14:09:55Z</time>
      </trkpt>
      <trkpt lat="47.14525" lon="-1.42209">
        <ele>75</ele>
        <time>2022-11-11T14:09:56Z</time>
      </trkpt>
      <trkpt lat="47.1453" lon="-1.42222">
        <ele>75</ele>
        <time>2022-11-11T14:09:57Z</time>
      </trkpt>
      <trkpt lat="47.14534" lon="-1.42235">
        <ele>74</ele>
        <time>2022-11-11T14:09:58Z</time>
      </trkpt>
      <trkpt lat="47.14539" lon="-1.42247">
        <ele>74</ele>
        <time>2022-11-11T14:09:59Z</time>
      </trkpt>
      <trkpt lat="47.14544" lon="-1.4226">
        <ele>74</ele>
        <time>2022-11-11T14:10:00Z</time>
      </trkpt>
      <trkpt lat="47.14548" lon="-1.42271">
        <ele>74</ele>
        <time>2022-11-11T14:10:01Z</time>
      </trkpt>
      <trkpt lat="47.14554" lon="-1.42282">
        <ele>74</ele>
        <time>2022-11-11T14:10:02Z</time>
      </trkpt>
      <trkpt lat="47.14565" lon="-1.42302">
        <ele>74</ele>
        <time>2022-11-11T14:10:04Z</time>
      </trkpt>
      <trkpt lat="47.14577" lon="-1.42318">
        <ele>74</ele>
        <time>2022-11-11T14:10:06Z</time>
      </trkpt>
      <trkpt lat="47.14588" lon="-1.42333">
        <ele>75</ele>
        <time>2022-11-11T14:10:08Z</time>
      </trkpt>
      <trkpt lat="47.14599" lon="-1.42344">
        <ele>75</ele>
        <time>2022-11-11T14:10:10Z</time>
      </trkpt>
      <trkpt lat="47.1461" lon="-1.42355">
        <ele>76</ele>
        <time>2022-11-11T14:10:12Z</time>
      </trkpt>
      <trkpt lat="47.1462" lon="-1.42366">
        <ele>76</ele>
        <time>2022-11-11T14:10:14Z</time>
      </trkpt>
      <trkpt lat="47.14629" lon="-1.42375">
        <ele>76</ele>
        <time>2022-11-11T14:10:16Z</time>
      </trkpt>
      <trkpt lat="47.14638" lon="-1.42383">
        <ele>77</ele>
        <time>2022-11-11T14:10:18Z</time>
      </trkpt>
      <trkpt lat="47.14647" lon="-1.42392">
        <ele>77</ele>
        <time>2022-11-11T14:10:20Z</time>
      </trkpt>
      <trkpt lat="47.14656" lon="-1.424">
        <ele>77</ele>
        <time>2022-11-11T14:10:22Z</time>
      </trkpt>
      <trkpt lat="47.14664" lon="-1.42409">
        <ele>78</ele>
        <time>2022-11-11T14:10:24Z</time>
      </trkpt>
      <trkpt lat="47.14672" lon="-1.42417">
        <ele>78</ele>
        <time>2022-11-11T14:10:26Z</time>
      </trkpt>
      <trkpt lat="47.1468" lon="-1.42425">
        <ele>78</ele>
        <time>2022-11-11T14:10:28Z</time>
      </trkpt>
      <trkpt lat="47.14689" lon="-1.42433">
        <ele>79</ele>
        <time>2022-11-11T14:10:30Z</time>
      </trkpt>
      <trkpt lat="47.14697" lon="-1.42442">
        <ele>79</ele>
        <time>2022-11-11T14:10:32Z</time>
      </trkpt>
      <trkpt lat="47.14705" lon="-1.4245">
        <ele>80</ele>
        <time>2022-11-11T14:10:34Z</time>
      </trkpt>
      <trkpt lat="47.14713" lon="-1.42457">
        <ele>80</ele>
        <time>2022-11-11T14:10:36Z</time>
      </trkpt>
      <trkpt lat="47.14721" lon="-1.42465">
        <ele>81</ele>
        <time>2022-11-11T14:10:38Z</time>
      </trkpt>
      <trkpt lat="47.1473" lon="-1.42473">
        <ele>81</ele>
        <time>2022-11-11T14:10:40Z</time>
      </trkpt>
      <trkpt lat="47.14738" lon="-1.42481">
        <ele>82</ele>
        <time>2022-11-11T14:10:42Z</time>
      </trkpt>
      <trkpt lat="47.14746" lon="-1.42489">
        <ele>82</ele>
        <time>2022-11-11T14:10:44Z</time>
      </trkpt>
      <trkpt lat="47.14754" lon="-1.42497">
        <ele>82</ele>
        <time>2022-11-11T14:10:46Z</time>
      </trkpt>
      <trkpt lat="47.14762" lon="-1.42506">
        <ele>83</ele>
        <time>2022-11-11T14:10:48Z</time>
      </trkpt>
      <trkpt lat="47.1477" lon="-1.42513">
        <ele>83</ele>
        <time>2022-11-11T14:10:50Z</time>
      </trkpt>
      <trkpt lat="47.14778" lon="-1.42521">
        <ele>83</ele>
        <time>2022-11-11T14:10:52Z</time>
      </trkpt>
      <trkpt lat="47.14786" lon="-1.42529">
        <ele>83</ele>
        <time>2022-11-11T14:10:54Z</time>
      </trkpt>
      <trkpt lat="47.14793" lon="-1.42538">
        <ele>84</ele>
        <time>2022-11-11T14:10:56Z</time>
      </trkpt>
      <trkpt lat="47.14801" lon="-1.42547">
        <ele>84</ele>
        <time>2022-11-11T14:10:58Z</time>
      </trkpt>
      <trkpt lat="47.14809" lon="-1.42556">
        <ele>84</ele>
        <time>2022-11-11T14:11:00Z</time>
      </trkpt>
      <trkpt lat="47.14818" lon="-1.42567">
        <ele>83</ele>
        <time>2022-11-11T14:11:02Z</time>
      </trkpt>
      <trkpt lat="47.14826" lon="-1.42578">
        <ele>83</ele>
        <time>2022-11-11T14:11:04Z</time>
      </trkpt>
      <trkpt lat="47.14834" lon="-1.42589">
        <ele>83</ele>
        <time>2022-11-11T14:11:06Z</time>
      </trkpt>
      <trkpt lat="47.14843" lon="-1.42602">
        <ele>83</ele>
        <time>2022-11-11T14:11:08Z</time>
      </trkpt>
      <trkpt lat="47.14853" lon="-1.42614">
        <ele>82</ele>
        <time>2022-11-11T14:11:10Z</time>
      </trkpt>
      <trkpt lat="47.14862" lon="-1.42627">
        <ele>83</ele>
        <time>2022-11-11T14:11:12Z</time>
      </trkpt>
      <trkpt lat="47.14872" lon="-1.42641">
        <ele>82</ele>
        <time>2022-11-11T14:11:14Z</time>
      </trkpt>
      <trkpt lat="47.14883" lon="-1.42654">
        <ele>82</ele>
        <time>2022-11-11T14:11:16Z</time>
      </trkpt>
      <trkpt lat="47.14893" lon="-1.42668">
        <ele>81</ele>
        <time>2022-11-11T14:11:18Z</time>
      </trkpt>
      <trkpt lat="47.14904" lon="-1.42684">
        <ele>81</ele>
        <time>2022-11-11T14:11:20Z</time>
      </trkpt>
      <trkpt lat="47.14914" lon="-1.427">
        <ele>80</ele>
        <time>2022-11-11T14:11:22Z</time>
      </trkpt>
      <trkpt lat="47.14925" lon="-1.42717">
        <ele>79</ele>
        <time>2022-11-11T14:11:24Z</time>
      </trkpt>
      <trkpt lat="47.14936" lon="-1.42734">
        <ele>79</ele>
        <time>2022-11-11T14:11:26Z</time>
      </trkpt>
      <trkpt lat="47.14947" lon="-1.42751">
        <ele>79</ele>
        <time>2022-11-11T14:11:28Z</time>
      </trkpt>
      <trkpt lat="47.14958" lon="-1.42769">
        <ele>78</ele>
        <time>2022-11-11T14:11:30Z</time>
      </trkpt>
      <trkpt lat="47.14968" lon="-1.42786">
        <ele>78</ele>
        <time>2022-11-11T14:11:32Z</time>
      </trkpt>
      <trkpt lat="47.14979" lon="-1.42803">
        <ele>78</ele>
        <time>2022-11-11T14:11:34Z</time>
      </trkpt>
      <trkpt lat="47.1499" lon="-1.4282">
        <ele>78</ele>
        <time>2022-11-11T14:11:36Z</time>
      </trkpt>
      <trkpt lat="47.15001" lon="-1.42835">
        <ele>78</ele>
        <time>2022-11-11T14:11:38Z</time>
      </trkpt>
      <trkpt lat="47.15012" lon="-1.4285">
        <ele>77</ele>
        <time>2022-11-11T14:11:40Z</time>
      </trkpt>
      <trkpt lat="47.15026" lon="-1.4286">
        <ele>77</ele>
        <time>2022-11-11T14:11:42Z</time>
      </trkpt>
      <trkpt lat="47.1504" lon="-1.42866">
        <ele>78</ele>
        <time>2022-11-11T14:11:44Z</time>
      </trkpt>
      <trkpt lat="47.15054" lon="-1.42871">
        <ele>77</ele>
        <time>2022-11-11T14:11:46Z</time>
      </trkpt>
      <trkpt lat="47.15068" lon="-1.42875">
        <ele>77</ele>
        <time>2022-11-11T14:11:48Z</time>
      </trkpt>
      <trkpt lat="47.15082" lon="-1.4288">
        <ele>77</ele>
        <time>2022-11-11T14:11:50Z</time>
      </trkpt>
      <trkpt lat="47.15097" lon="-1.42884">
        <ele>77</ele>
        <time>2022-11-11T14:11:52Z</time>
      </trkpt>
      <trkpt lat="47.15111" lon="-1.42888">
        <ele>77</ele>
        <time>2022-11-11T14:11:54Z</time>
      </trkpt>
      <trkpt lat="47.15124" lon="-1.42893">
        <ele>77</ele>
        <time>2022-11-11T14:11:56Z</time>
      </trkpt>
      <trkpt lat="47.15138" lon="-1.429">
        <ele>77</ele>
        <time>2022-11-11T14:11:58Z</time>
      </trkpt>
      <trkpt lat="47.15152" lon="-1.42908">
        <ele>77</ele>
        <time>2022-11-11T14:12:00Z</time>
      </trkpt>
      <trkpt lat="47.15165" lon="-1.42915">
        <ele>76</ele>
        <time>2022-11-11T14:12:02Z</time>
      </trkpt>
      <trkpt lat="47.15178" lon="-1.42923">
        <ele>76</ele>
        <time>2022-11-11T14:12:04Z</time>
      </trkpt>
      <trkpt lat="47.15191" lon="-1.42934">
        <ele>76</ele>
        <time>2022-11-11T14:12:06Z</time>
      </trkpt>
      <trkpt lat="47.15203" lon="-1.42949">
        <ele>76</ele>
        <time>2022-11-11T14:12:08Z</time>
      </trkpt>
      <trkpt lat="47.15213" lon="-1.42967">
        <ele>75</ele>
        <time>2022-11-11T14:12:10Z</time>
      </trkpt>
      <trkpt lat="47.15224" lon="-1.42985">
        <ele>74</ele>
        <time>2022-11-11T14:12:12Z</time>
      </trkpt>
      <trkpt lat="47.15234" lon="-1.43006">
        <ele>73</ele>
        <time>2022-11-11T14:12:14Z</time>
      </trkpt>
      <trkpt lat="47.15243" lon="-1.43028">
        <ele>71</ele>
        <time>2022-11-11T14:12:16Z</time>
      </trkpt>
      <trkpt lat="47.15247" lon="-1.4304">
        <ele>71</ele>
        <time>2022-11-11T14:12:17Z</time>
      </trkpt>
      <trkpt lat="47.15251" lon="-1.43053">
        <ele>70</ele>
        <time>2022-11-11T14:12:18Z</time>
      </trkpt>
      <trkpt lat="47.15253" lon="-1.43066">
        <ele>70</ele>
        <time>2022-11-11T14:12:19Z</time>
      </trkpt>
      <trkpt lat="47.15255" lon="-1.4308">
        <ele>69</ele>
        <time>2022-11-11T14:12:20Z</time>
      </trkpt>
      <trkpt lat="47.15256" lon="-1.43094">
        <ele>69</ele>
        <time>2022-11-11T14:12:21Z</time>
      </trkpt>
      <trkpt lat="47.15256" lon="-1.43109">
        <ele>69</ele>
        <time>2022-11-11T14:12:22Z</time>
      </trkpt>
      <trkpt lat="47.15256" lon="-1.43123">
        <ele>68</ele>
        <time>2022-11-11T14:12:23Z</time>
      </trkpt>
      <trkpt lat="47.15256" lon="-1.43138">
        <ele>67</ele>
        <time>2022-11-11T14:12:24Z</time>
      </trkpt>
      <trkpt lat="47.15256" lon="-1.43153">
        <ele>66</ele>
        <time>2022-11-11T14:12:25Z</time>
      </trkpt>
      <trkpt lat="47.15255" lon="-1.43168">
        <ele>66</ele>
        <time>2022-11-11T14:12:26Z</time>
      </trkpt>
      <trkpt lat="47.15254" lon="-1.43183">
        <ele>65</ele>
        <time>2022-11-11T14:12:27Z</time>
      </trkpt>
      <trkpt lat="47.15254" lon="-1.43198">
        <ele>65</ele>
        <time>2022-11-11T14:12:28Z</time>
      </trkpt>
      <trkpt lat="47.15253" lon="-1.43214">
        <ele>65</ele>
        <time>2022-11-11T14:12:29Z</time>
      </trkpt>
      <trkpt lat="47.15253" lon="-1.43229">
        <ele>64</ele>
        <time>2022-11-11T14:12:30Z</time>
      </trkpt>
      <trkpt lat="47.15252" lon="-1.43245">
        <ele>64</ele>
        <time>2022-11-11T14:12:31Z</time>
      </trkpt>
      <trkpt lat="47.15252" lon="-1.4326">
        <ele>63</ele>
        <time>2022-11-11T14:12:32Z</time>
      </trkpt>
      <trkpt lat="47.15252" lon="-1.43276">
        <ele>63</ele>
        <time>2022-11-11T14:12:33Z</time>
      </trkpt>
      <trkpt lat="47.15252" lon="-1.43291">
        <ele>63</ele>
        <time>2022-11-11T14:12:34Z</time>
      </trkpt>
      <trkpt lat="47.15251" lon="-1.43305">
        <ele>63</ele>
        <time>2022-11-11T14:12:35Z</time>
      </trkpt>
      <trkpt lat="47.15251" lon="-1.4332">
        <ele>63</ele>
        <time>2022-11-11T14:12:36Z</time>
      </trkpt>
      <trkpt lat="47.15251" lon="-1.43335">
        <ele>63</ele>
        <time>2022-11-11T14:12:37Z</time>
      </trkpt>
      <trkpt lat="47.15251" lon="-1.4335">
        <ele>62</ele>
        <time>2022-11-11T14:12:38Z</time>
      </trkpt>
      <trkpt lat="47.15251" lon="-1.43365">
        <ele>62</ele>
        <time>2022-11-11T14:12:39Z</time>
      </trkpt>
      <trkpt lat="47.15251" lon="-1.4338">
        <ele>62</ele>
        <time>2022-11-11T14:12:40Z</time>
      </trkpt>
      <trkpt lat="47.15251" lon="-1.43394">
        <ele>62</ele>
        <time>2022-11-11T14:12:41Z</time>
      </trkpt>
      <trkpt lat="47.15253" lon="-1.43408">
        <ele>62</ele>
        <time>2022-11-11T14:12:42Z</time>
      </trkpt>
      <trkpt lat="47.15254" lon="-1.43422">
        <ele>62</ele>
        <time>2022-11-11T14:12:43Z</time>
      </trkpt>
      <trkpt lat="47.15256" lon="-1.43435">
        <ele>61</ele>
        <time>2022-11-11T14:12:44Z</time>
      </trkpt>
      <trkpt lat="47.15258" lon="-1.43449">
        <ele>61</ele>
        <time>2022-11-11T14:12:45Z</time>
      </trkpt>
      <trkpt lat="47.1526" lon="-1.43462">
        <ele>62</ele>
        <time>2022-11-11T14:12:46Z</time>
      </trkpt>
      <trkpt lat="47.15263" lon="-1.43488">
        <ele>62</ele>
        <time>2022-11-11T14:12:48Z</time>
      </trkpt>
      <trkpt lat="47.15266" lon="-1.43512">
        <ele>62</ele>
        <time>2022-11-11T14:12:50Z</time>
      </trkpt>
      <trkpt lat="47.15268" lon="-1.43536">
        <ele>62</ele>
        <time>2022-11-11T14:12:52Z</time>
      </trkpt>
      <trkpt lat="47.1527" lon="-1.43559">
        <ele>62</ele>
        <time>2022-11-11T14:12:54Z</time>
      </trkpt>
      <trkpt lat="47.15272" lon="-1.43583">
        <ele>62</ele>
        <time>2022-11-11T14:12:56Z</time>
      </trkpt>
      <trkpt lat="47.15274" lon="-1.43606">
        <ele>61</ele>
        <time>2022-11-11T14:12:58Z</time>
      </trkpt>
      <trkpt lat="47.15276" lon="-1.43629">
        <ele>61</ele>
        <time>2022-11-11T14:13:00Z</time>
      </trkpt>
      <trkpt lat="47.15278" lon="-1.43652">
        <ele>61</ele>
        <time>2022-11-11T14:13:02Z</time>
      </trkpt>
      <trkpt lat="47.15279" lon="-1.43673">
        <ele>61</ele>
        <time>2022-11-11T14:13:04Z</time>
      </trkpt>
      <trkpt lat="47.1528" lon="-1.43696">
        <ele>61</ele>
        <time>2022-11-11T14:13:06Z</time>
      </trkpt>
      <trkpt lat="47.15281" lon="-1.43717">
        <ele>60</ele>
        <time>2022-11-11T14:13:08Z</time>
      </trkpt>
      <trkpt lat="47.15281" lon="-1.4374">
        <ele>59</ele>
        <time>2022-11-11T14:13:10Z</time>
      </trkpt>
      <trkpt lat="47.15279" lon="-1.43761">
        <ele>59</ele>
        <time>2022-11-11T14:13:12Z</time>
      </trkpt>
      <trkpt lat="47.15278" lon="-1.43783">
        <ele>59</ele>
        <time>2022-11-11T14:13:14Z</time>
      </trkpt>
      <trkpt lat="47.15276" lon="-1.43805">
        <ele>59</ele>
        <time>2022-11-11T14:13:16Z</time>
      </trkpt>
      <trkpt lat="47.15275" lon="-1.43828">
        <ele>58</ele>
        <time>2022-11-11T14:13:18Z</time>
      </trkpt>
      <trkpt lat="47.15275" lon="-1.4385">
        <ele>58</ele>
        <time>2022-11-11T14:13:20Z</time>
      </trkpt>
      <trkpt lat="47.15278" lon="-1.43871">
        <ele>58</ele>
        <time>2022-11-11T14:13:22Z</time>
      </trkpt>
      <trkpt lat="47.15284" lon="-1.43891">
        <ele>58</ele>
        <time>2022-11-11T14:13:24Z</time>
      </trkpt>
      <trkpt lat="47.15292" lon="-1.43909">
        <ele>58</ele>
        <time>2022-11-11T14:13:26Z</time>
      </trkpt>
      <trkpt lat="47.15301" lon="-1.43924">
        <ele>58</ele>
        <time>2022-11-11T14:13:28Z</time>
      </trkpt>
      <trkpt lat="47.1531" lon="-1.43938">
        <ele>59</ele>
        <time>2022-11-11T14:13:30Z</time>
      </trkpt>
      <trkpt lat="47.15319" lon="-1.43951">
        <ele>60</ele>
        <time>2022-11-11T14:13:32Z</time>
      </trkpt>
      <trkpt lat="47.15327" lon="-1.43962">
        <ele>61</ele>
        <time>2022-11-11T14:13:34Z</time>
      </trkpt>
      <trkpt lat="47.15335" lon="-1.43974">
        <ele>61</ele>
        <time>2022-11-11T14:13:36Z</time>
      </trkpt>
      <trkpt lat="47.15344" lon="-1.43985">
        <ele>61</ele>
        <time>2022-11-11T14:13:38Z</time>
      </trkpt>
      <trkpt lat="47.15352" lon="-1.43996">
        <ele>61</ele>
        <time>2022-11-11T14:13:40Z</time>
      </trkpt>
      <trkpt lat="47.1536" lon="-1.44008">
        <ele>60</ele>
        <time>2022-11-11T14:13:42Z</time>
      </trkpt>
      <trkpt lat="47.15369" lon="-1.44021">
        <ele>60</ele>
        <time>2022-11-11T14:13:44Z</time>
      </trkpt>
      <trkpt lat="47.15378" lon="-1.44036">
        <ele>59</ele>
        <time>2022-11-11T14:13:46Z</time>
      </trkpt>
      <trkpt lat="47.15384" lon="-1.44054">
        <ele>59</ele>
        <time>2022-11-11T14:13:48Z</time>
      </trkpt>
      <trkpt lat="47.15386" lon="-1.44075">
        <ele>58</ele>
        <time>2022-11-11T14:13:50Z</time>
      </trkpt>
      <trkpt lat="47.15384" lon="-1.44095">
        <ele>57</ele>
        <time>2022-11-11T14:13:52Z</time>
      </trkpt>
      <trkpt lat="47.15381" lon="-1.44115">
        <ele>57</ele>
        <time>2022-11-11T14:13:54Z</time>
      </trkpt>
      <trkpt lat="47.15378" lon="-1.44134">
        <ele>57</ele>
        <time>2022-11-11T14:13:56Z</time>
      </trkpt>
      <trkpt lat="47.15375" lon="-1.44154">
        <ele>56</ele>
        <time>2022-11-11T14:13:58Z</time>
      </trkpt>
      <trkpt lat="47.15372" lon="-1.44174">
        <ele>56</ele>
        <time>2022-11-11T14:14:00Z</time>
      </trkpt>
      <trkpt lat="47.15369" lon="-1.44194">
        <ele>57</ele>
        <time>2022-11-11T14:14:02Z</time>
      </trkpt>
      <trkpt lat="47.15368" lon="-1.44213">
        <ele>57</ele>
        <time>2022-11-11T14:14:04Z</time>
      </trkpt>
      <trkpt lat="47.15368" lon="-1.44233">
        <ele>57</ele>
        <time>2022-11-11T14:14:06Z</time>
      </trkpt>
      <trkpt lat="47.15369" lon="-1.44252">
        <ele>58</ele>
        <time>2022-11-11T14:14:08Z</time>
      </trkpt>
      <trkpt lat="47.15372" lon="-1.44271">
        <ele>57</ele>
        <time>2022-11-11T14:14:10Z</time>
      </trkpt>
      <trkpt lat="47.15375" lon="-1.44289">
        <ele>57</ele>
        <time>2022-11-11T14:14:12Z</time>
      </trkpt>
      <trkpt lat="47.15381" lon="-1.44306">
        <ele>57</ele>
        <time>2022-11-11T14:14:14Z</time>
      </trkpt>
      <trkpt lat="47.15386" lon="-1.44322">
        <ele>57</ele>
        <time>2022-11-11T14:14:16Z</time>
      </trkpt>
      <trkpt lat="47.15393" lon="-1.44337">
        <ele>57</ele>
        <time>2022-11-11T14:14:18Z</time>
      </trkpt>
      <trkpt lat="47.15401" lon="-1.44352">
        <ele>57</ele>
        <time>2022-11-11T14:14:20Z</time>
      </trkpt>
      <trkpt lat="47.1541" lon="-1.44364">
        <ele>57</ele>
        <time>2022-11-11T14:14:22Z</time>
      </trkpt>
      <trkpt lat="47.1542" lon="-1.44375">
        <ele>57</ele>
        <time>2022-11-11T14:14:24Z</time>
      </trkpt>
      <trkpt lat="47.1543" lon="-1.44385">
        <ele>57</ele>
        <time>2022-11-11T14:14:26Z</time>
      </trkpt>
      <trkpt lat="47.1544" lon="-1.44394">
        <ele>57</ele>
        <time>2022-11-11T14:14:28Z</time>
      </trkpt>
      <trkpt lat="47.1545" lon="-1.44401">
        <ele>57</ele>
        <time>2022-11-11T14:14:30Z</time>
      </trkpt>
      <trkpt lat="47.1546" lon="-1.44407">
        <ele>57</ele>
        <time>2022-11-11T14:14:32Z</time>
      </trkpt>
      <trkpt lat="47.1547" lon="-1.44411">
        <ele>57</ele>
        <time>2022-11-11T14:14:34Z</time>
      </trkpt>
      <trkpt lat="47.1548" lon="-1.44414">
        <ele>58</ele>
        <time>2022-11-11T14:14:36Z</time>
      </trkpt>
      <trkpt lat="47.15489" lon="-1.44417">
        <ele>58</ele>
        <time>2022-11-11T14:14:38Z</time>
      </trkpt>
      <trkpt lat="47.15499" lon="-1.44419">
        <ele>59</ele>
        <time>2022-11-11T14:14:40Z</time>
      </trkpt>
      <trkpt lat="47.15509" lon="-1.4442">
        <ele>60</ele>
        <time>2022-11-11T14:14:42Z</time>
      </trkpt>
      <trkpt lat="47.15519" lon="-1.4442">
        <ele>60</ele>
        <time>2022-11-11T14:14:44Z</time>
      </trkpt>
      <trkpt lat="47.15528" lon="-1.44421">
        <ele>61</ele>
        <time>2022-11-11T14:14:46Z</time>
      </trkpt>
      <trkpt lat="47.15538" lon="-1.44422">
        <ele>62</ele>
        <time>2022-11-11T14:14:48Z</time>
      </trkpt>
      <trkpt lat="47.15548" lon="-1.44422">
        <ele>63</ele>
        <time>2022-11-11T14:14:50Z</time>
      </trkpt>
      <trkpt lat="47.15557" lon="-1.44422">
        <ele>64</ele>
        <time>2022-11-11T14:14:52Z</time>
      </trkpt>
      <trkpt lat="47.15567" lon="-1.44421">
        <ele>65</ele>
        <time>2022-11-11T14:14:54Z</time>
      </trkpt>
      <trkpt lat="47.15577" lon="-1.44419">
        <ele>65</ele>
        <time>2022-11-11T14:14:56Z</time>
      </trkpt>
      <trkpt lat="47.15587" lon="-1.44414">
        <ele>66</ele>
        <time>2022-11-11T14:14:58Z</time>
      </trkpt>
      <trkpt lat="47.15597" lon="-1.4441">
        <ele>66</ele>
        <time>2022-11-11T14:15:00Z</time>
      </trkpt>
      <trkpt lat="47.15606" lon="-1.44405">
        <ele>67</ele>
        <time>2022-11-11T14:15:02Z</time>
      </trkpt>
      <trkpt lat="47.15615" lon="-1.44401">
        <ele>67</ele>
        <time>2022-11-11T14:15:04Z</time>
      </trkpt>
      <trkpt lat="47.15625" lon="-1.44398">
        <ele>68</ele>
        <time>2022-11-11T14:15:06Z</time>
      </trkpt>
      <trkpt lat="47.15634" lon="-1.44394">
        <ele>68</ele>
        <time>2022-11-11T14:15:08Z</time>
      </trkpt>
      <trkpt lat="47.15643" lon="-1.44391">
        <ele>68</ele>
        <time>2022-11-11T14:15:10Z</time>
      </trkpt>
      <trkpt lat="47.15652" lon="-1.44388">
        <ele>68</ele>
        <time>2022-11-11T14:15:12Z</time>
      </trkpt>
      <trkpt lat="47.15666" lon="-1.44382">
        <ele>68</ele>
        <time>2022-11-11T14:15:15Z</time>
      </trkpt>
      <trkpt lat="47.15675" lon="-1.44377">
        <ele>68</ele>
        <time>2022-11-11T14:15:17Z</time>
      </trkpt>
      <trkpt lat="47.15684" lon="-1.44374">
        <ele>69</ele>
        <time>2022-11-11T14:15:19Z</time>
      </trkpt>
      <trkpt lat="47.15694" lon="-1.44369">
        <ele>69</ele>
        <time>2022-11-11T14:15:21Z</time>
      </trkpt>
      <trkpt lat="47.15702" lon="-1.44364">
        <ele>70</ele>
        <time>2022-11-11T14:15:23Z</time>
      </trkpt>
      <trkpt lat="47.15712" lon="-1.44359">
        <ele>70</ele>
        <time>2022-11-11T14:15:25Z</time>
      </trkpt>
      <trkpt lat="47.15721" lon="-1.44354">
        <ele>71</ele>
        <time>2022-11-11T14:15:27Z</time>
      </trkpt>
      <trkpt lat="47.15731" lon="-1.44349">
        <ele>72</ele>
        <time>2022-11-11T14:15:29Z</time>
      </trkpt>
      <trkpt lat="47.15741" lon="-1.44345">
        <ele>72</ele>
        <time>2022-11-11T14:15:31Z</time>
      </trkpt>
      <trkpt lat="47.15751" lon="-1.44341">
        <ele>73</ele>
        <time>2022-11-11T14:15:33Z</time>
      </trkpt>
      <trkpt lat="47.1576" lon="-1.44338">
        <ele>73</ele>
        <time>2022-11-11T14:15:35Z</time>
      </trkpt>
      <trkpt lat="47.1577" lon="-1.44334">
        <ele>73</ele>
        <time>2022-11-11T14:15:37Z</time>
      </trkpt>
      <trkpt lat="47.1578" lon="-1.44331">
        <ele>74</ele>
        <time>2022-11-11T14:15:39Z</time>
      </trkpt>
      <trkpt lat="47.1579" lon="-1.44329">
        <ele>73</ele>
        <time>2022-11-11T14:15:41Z</time>
      </trkpt>
      <trkpt lat="47.15806" lon="-1.44332">
        <ele>72</ele>
        <time>2022-11-11T14:15:44Z</time>
      </trkpt>
      <trkpt lat="47.15815" lon="-1.44339">
        <ele>72</ele>
        <time>2022-11-11T14:15:46Z</time>
      </trkpt>
      <trkpt lat="47.15826" lon="-1.44356">
        <ele>72</ele>
        <time>2022-11-11T14:15:49Z</time>
      </trkpt>
      <trkpt lat="47.15832" lon="-1.44368">
        <ele>72</ele>
        <time>2022-11-11T14:15:51Z</time>
      </trkpt>
      <trkpt lat="47.15837" lon="-1.44381">
        <ele>72</ele>
        <time>2022-11-11T14:15:53Z</time>
      </trkpt>
      <trkpt lat="47.15843" lon="-1.44393">
        <ele>72</ele>
        <time>2022-11-11T14:15:55Z</time>
      </trkpt>
      <trkpt lat="47.15847" lon="-1.44406">
        <ele>72</ele>
        <time>2022-11-11T14:15:57Z</time>
      </trkpt>
      <trkpt lat="47.15853" lon="-1.44419">
        <ele>72</ele>
        <time>2022-11-11T14:15:59Z</time>
      </trkpt>
      <trkpt lat="47.15857" lon="-1.44431">
        <ele>73</ele>
        <time>2022-11-11T14:16:01Z</time>
      </trkpt>
      <trkpt lat="47.15862" lon="-1.44443">
        <ele>73</ele>
        <time>2022-11-11T14:16:03Z</time>
      </trkpt>
      <trkpt lat="47.15869" lon="-1.44461">
        <ele>73</ele>
        <time>2022-11-11T14:16:06Z</time>
      </trkpt>
      <trkpt lat="47.15877" lon="-1.44484">
        <ele>74</ele>
        <time>2022-11-11T14:16:10Z</time>
      </trkpt>
      <trkpt lat="47.15882" lon="-1.44496">
        <ele>74</ele>
        <time>2022-11-11T14:16:12Z</time>
      </trkpt>
      <trkpt lat="47.15887" lon="-1.44508">
        <ele>75</ele>
        <time>2022-11-11T14:16:14Z</time>
      </trkpt>
      <trkpt lat="47.15891" lon="-1.44521">
        <ele>75</ele>
        <time>2022-11-11T14:16:16Z</time>
      </trkpt>
      <trkpt lat="47.15898" lon="-1.44538">
        <ele>76</ele>
        <time>2022-11-11T14:16:19Z</time>
      </trkpt>
      <trkpt lat="47.15902" lon="-1.4455">
        <ele>76</ele>
        <time>2022-11-11T14:16:21Z</time>
      </trkpt>
      <trkpt lat="47.15909" lon="-1.44566">
        <ele>76</ele>
        <time>2022-11-11T14:16:24Z</time>
      </trkpt>
      <trkpt lat="47.15915" lon="-1.44582">
        <ele>77</ele>
        <time>2022-11-11T14:16:27Z</time>
      </trkpt>
      <trkpt lat="47.15922" lon="-1.44604">
        <ele>78</ele>
        <time>2022-11-11T14:16:31Z</time>
      </trkpt>
      <trkpt lat="47.15927" lon="-1.4462">
        <ele>79</ele>
        <time>2022-11-11T14:16:34Z</time>
      </trkpt>
      <trkpt lat="47.15932" lon="-1.44636">
        <ele>80</ele>
        <time>2022-11-11T14:16:37Z</time>
      </trkpt>
      <trkpt lat="47.15937" lon="-1.44652">
        <ele>80</ele>
        <time>2022-11-11T14:16:40Z</time>
      </trkpt>
      <trkpt lat="47.15942" lon="-1.44668">
        <ele>81</ele>
        <time>2022-11-11T14:16:43Z</time>
      </trkpt>
      <trkpt lat="47.15947" lon="-1.44684">
        <ele>81</ele>
        <time>2022-11-11T14:16:46Z</time>
      </trkpt>
      <trkpt lat="47.15952" lon="-1.44701">
        <ele>81</ele>
        <time>2022-11-11T14:16:49Z</time>
      </trkpt>
      <trkpt lat="47.15957" lon="-1.44719">
        <ele>82</ele>
        <time>2022-11-11T14:16:52Z</time>
      </trkpt>
      <trkpt lat="47.15962" lon="-1.44736">
        <ele>82</ele>
        <time>2022-11-11T14:16:55Z</time>
      </trkpt>
      <trkpt lat="47.15966" lon="-1.44748">
        <ele>82</ele>
        <time>2022-11-11T14:16:57Z</time>
      </trkpt>
      <trkpt lat="47.1597" lon="-1.44761">
        <ele>81</ele>
        <time>2022-11-11T14:16:59Z</time>
      </trkpt>
      <trkpt lat="47.15975" lon="-1.44776">
        <ele>81</ele>
        <time>2022-11-11T14:17:01Z</time>
      </trkpt>
      <trkpt lat="47.1598" lon="-1.44792">
        <ele>81</ele>
        <time>2022-11-11T14:17:03Z</time>
      </trkpt>
      <trkpt lat="47.15986" lon="-1.44807">
        <ele>81</ele>
        <time>2022-11-11T14:17:05Z</time>
      </trkpt>
      <trkpt lat="47.15993" lon="-1.44822">
        <ele>80</ele>
        <time>2022-11-11T14:17:07Z</time>
      </trkpt>
      <trkpt lat="47.16001" lon="-1.44836">
        <ele>80</ele>
        <time>2022-11-11T14:17:09Z</time>
      </trkpt>
      <trkpt lat="47.16009" lon="-1.44849">
        <ele>80</ele>
        <time>2022-11-11T14:17:11Z</time>
      </trkpt>
      <trkpt lat="47.16019" lon="-1.44861">
        <ele>81</ele>
        <time>2022-11-11T14:17:13Z</time>
      </trkpt>
      <trkpt lat="47.16028" lon="-1.44873">
        <ele>81</ele>
        <time>2022-11-11T14:17:15Z</time>
      </trkpt>
      <trkpt lat="47.16037" lon="-1.44885">
        <ele>82</ele>
        <time>2022-11-11T14:17:17Z</time>
      </trkpt>
      <trkpt lat="47.16048" lon="-1.44895">
        <ele>82</ele>
        <time>2022-11-11T14:17:19Z</time>
      </trkpt>
      <trkpt lat="47.16057" lon="-1.44907">
        <ele>82</ele>
        <time>2022-11-11T14:17:21Z</time>
      </trkpt>
      <trkpt lat="47.16067" lon="-1.44918">
        <ele>82</ele>
        <time>2022-11-11T14:17:23Z</time>
      </trkpt>
      <trkpt lat="47.16076" lon="-1.4493">
        <ele>82</ele>
        <time>2022-11-11T14:17:25Z</time>
      </trkpt>
      <trkpt lat="47.16085" lon="-1.44944">
        <ele>82</ele>
        <time>2022-11-11T14:17:27Z</time>
      </trkpt>
      <trkpt lat="47.16092" lon="-1.44957">
        <ele>81</ele>
        <time>2022-11-11T14:17:29Z</time>
      </trkpt>
      <trkpt lat="47.16099" lon="-1.44972">
        <ele>81</ele>
        <time>2022-11-11T14:17:31Z</time>
      </trkpt>
      <trkpt lat="47.16105" lon="-1.44987">
        <ele>81</ele>
        <time>2022-11-11T14:17:33Z</time>
      </trkpt>
      <trkpt lat="47.16111" lon="-1.45003">
        <ele>81</ele>
        <time>2022-11-11T14:17:35Z</time>
      </trkpt>
      <trkpt lat="47.16116" lon="-1.45018">
        <ele>81</ele>
        <time>2022-11-11T14:17:37Z</time>
      </trkpt>
      <trkpt lat="47.16122" lon="-1.45034">
        <ele>82</ele>
        <time>2022-11-11T14:17:39Z</time>
      </trkpt>
      <trkpt lat="47.16126" lon="-1.45048">
        <ele>82</ele>
        <time>2022-11-11T14:17:41Z</time>
      </trkpt>
      <trkpt lat="47.16131" lon="-1.45063">
        <ele>82</ele>
        <time>2022-11-11T14:17:43Z</time>
      </trkpt>
      <trkpt lat="47.16135" lon="-1.45078">
        <ele>82</ele>
        <time>2022-11-11T14:17:45Z</time>
      </trkpt>
      <trkpt lat="47.16139" lon="-1.45095">
        <ele>82</ele>
        <time>2022-11-11T14:17:47Z</time>
      </trkpt>
      <trkpt lat="47.16143" lon="-1.45111">
        <ele>82</ele>
        <time>2022-11-11T14:17:49Z</time>
      </trkpt>
      <trkpt lat="47.16147" lon="-1.45128">
        <ele>83</ele>
        <time>2022-11-11T14:17:51Z</time>
      </trkpt>
      <trkpt lat="47.16152" lon="-1.45144">
        <ele>83</ele>
        <time>2022-11-11T14:17:53Z</time>
      </trkpt>
      <trkpt lat="47.1616" lon="-1.45156">
        <ele>84</ele>
        <time>2022-11-11T14:17:55Z</time>
      </trkpt>
      <trkpt lat="47.1617" lon="-1.45163">
        <ele>84</ele>
        <time>2022-11-11T14:17:57Z</time>
      </trkpt>
      <trkpt lat="47.16181" lon="-1.45169">
        <ele>84</ele>
        <time>2022-11-11T14:17:59Z</time>
      </trkpt>
      <trkpt lat="47.16191" lon="-1.45175">
        <ele>84</ele>
        <time>2022-11-11T14:18:01Z</time>
      </trkpt>
      <trkpt lat="47.16201" lon="-1.45181">
        <ele>84</ele>
        <time>2022-11-11T14:18:03Z</time>
      </trkpt>
      <trkpt lat="47.16212" lon="-1.45187">
        <ele>84</ele>
        <time>2022-11-11T14:18:05Z</time>
      </trkpt>
      <trkpt lat="47.16221" lon="-1.45193">
        <ele>84</ele>
        <time>2022-11-11T14:18:07Z</time>
      </trkpt>
      <trkpt lat="47.1623" lon="-1.452">
        <ele>85</ele>
        <time>2022-11-11T14:18:09Z</time>
      </trkpt>
      <trkpt lat="47.16239" lon="-1.45207">
        <ele>85</ele>
        <time>2022-11-11T14:18:11Z</time>
      </trkpt>
      <trkpt lat="47.16247" lon="-1.45217">
        <ele>86</ele>
        <time>2022-11-11T14:18:13Z</time>
      </trkpt>
      <trkpt lat="47.16253" lon="-1.45228">
        <ele>86</ele>
        <time>2022-11-11T14:18:15Z</time>
      </trkpt>
      <trkpt lat="47.16259" lon="-1.45241">
        <ele>87</ele>
        <time>2022-11-11T14:18:17Z</time>
      </trkpt>
      <trkpt lat="47.16264" lon="-1.45256">
        <ele>87</ele>
        <time>2022-11-11T14:18:19Z</time>
      </trkpt>
      <trkpt lat="47.16268" lon="-1.45271">
        <ele>86</ele>
        <time>2022-11-11T14:18:21Z</time>
      </trkpt>
      <trkpt lat="47.16273" lon="-1.45286">
        <ele>86</ele>
        <time>2022-11-11T14:18:23Z</time>
      </trkpt>
      <trkpt lat="47.16279" lon="-1.45301">
        <ele>85</ele>
        <time>2022-11-11T14:18:25Z</time>
      </trkpt>
      <trkpt lat="47.16285" lon="-1.45318">
        <ele>85</ele>
        <time>2022-11-11T14:18:27Z</time>
      </trkpt>
      <trkpt lat="47.1629" lon="-1.45337">
        <ele>84</ele>
        <time>2022-11-11T14:18:29Z</time>
      </trkpt>
      <trkpt lat="47.16294" lon="-1.45357">
        <ele>83</ele>
        <time>2022-11-11T14:18:31Z</time>
      </trkpt>
      <trkpt lat="47.16296" lon="-1.4538">
        <ele>83</ele>
        <time>2022-11-11T14:18:33Z</time>
      </trkpt>
      <trkpt lat="47.163" lon="-1.45403">
        <ele>82</ele>
        <time>2022-11-11T14:18:35Z</time>
      </trkpt>
      <trkpt lat="47.16306" lon="-1.45425">
        <ele>81</ele>
        <time>2022-11-11T14:18:37Z</time>
      </trkpt>
      <trkpt lat="47.16315" lon="-1.45445">
        <ele>80</ele>
        <time>2022-11-11T14:18:39Z</time>
      </trkpt>
      <trkpt lat="47.16325" lon="-1.45465">
        <ele>80</ele>
        <time>2022-11-11T14:18:41Z</time>
      </trkpt>
      <trkpt lat="47.16335" lon="-1.45483">
        <ele>80</ele>
        <time>2022-11-11T14:18:43Z</time>
      </trkpt>
      <trkpt lat="47.16345" lon="-1.45501">
        <ele>79</ele>
        <time>2022-11-11T14:18:45Z</time>
      </trkpt>
      <trkpt lat="47.16355" lon="-1.45519">
        <ele>79</ele>
        <time>2022-11-11T14:18:47Z</time>
      </trkpt>
      <trkpt lat="47.16364" lon="-1.45537">
        <ele>79</ele>
        <time>2022-11-11T14:18:49Z</time>
      </trkpt>
      <trkpt lat="47.16374" lon="-1.45554">
        <ele>79</ele>
        <time>2022-11-11T14:18:51Z</time>
      </trkpt>
      <trkpt lat="47.16383" lon="-1.45571">
        <ele>79</ele>
        <time>2022-11-11T14:18:53Z</time>
      </trkpt>
      <trkpt lat="47.16391" lon="-1.45587">
        <ele>79</ele>
        <time>2022-11-11T14:18:55Z</time>
      </trkpt>
      <trkpt lat="47.16399" lon="-1.45605">
        <ele>79</ele>
        <time>2022-11-11T14:18:57Z</time>
      </trkpt>
      <trkpt lat="47.16406" lon="-1.45623">
        <ele>79</ele>
        <time>2022-11-11T14:18:59Z</time>
      </trkpt>
      <trkpt lat="47.16412" lon="-1.45642">
        <ele>78</ele>
        <time>2022-11-11T14:19:01Z</time>
      </trkpt>
      <trkpt lat="47.16418" lon="-1.4566">
        <ele>78</ele>
        <time>2022-11-11T14:19:03Z</time>
      </trkpt>
      <trkpt lat="47.16422" lon="-1.45677">
        <ele>78</ele>
        <time>2022-11-11T14:19:05Z</time>
      </trkpt>
      <trkpt lat="47.16427" lon="-1.45696">
        <ele>78</ele>
        <time>2022-11-11T14:19:07Z</time>
      </trkpt>
      <trkpt lat="47.16431" lon="-1.45714">
        <ele>78</ele>
        <time>2022-11-11T14:19:09Z</time>
      </trkpt>
      <trkpt lat="47.16436" lon="-1.45732">
        <ele>78</ele>
        <time>2022-11-11T14:19:11Z</time>
      </trkpt>
      <trkpt lat="47.1644" lon="-1.45749">
        <ele>78</ele>
        <time>2022-11-11T14:19:13Z</time>
      </trkpt>
      <trkpt lat="47.16444" lon="-1.45767">
        <ele>78</ele>
        <time>2022-11-11T14:19:15Z</time>
      </trkpt>
      <trkpt lat="47.16448" lon="-1.45784">
        <ele>78</ele>
        <time>2022-11-11T14:19:17Z</time>
      </trkpt>
      <trkpt lat="47.16452" lon="-1.45801">
        <ele>78</ele>
        <time>2022-11-11T14:19:19Z</time>
      </trkpt>
      <trkpt lat="47.16456" lon="-1.45818">
        <ele>78</ele>
        <time>2022-11-11T14:19:21Z</time>
      </trkpt>
      <trkpt lat="47.16461" lon="-1.45835">
        <ele>78</ele>
        <time>2022-11-11T14:19:23Z</time>
      </trkpt>
      <trkpt lat="47.16465" lon="-1.45851">
        <ele>78</ele>
        <time>2022-11-11T14:19:25Z</time>
      </trkpt>
      <trkpt lat="47.1647" lon="-1.45867">
        <ele>79</ele>
        <time>2022-11-11T14:19:27Z</time>
      </trkpt>
      <trkpt lat="47.16474" lon="-1.45881">
        <ele>79</ele>
        <time>2022-11-11T14:19:29Z</time>
      </trkpt>
      <trkpt lat="47.16479" lon="-1.45896">
        <ele>80</ele>
        <time>2022-11-11T14:19:31Z</time>
      </trkpt>
      <trkpt lat="47.16483" lon="-1.4591">
        <ele>80</ele>
        <time>2022-11-11T14:19:33Z</time>
      </trkpt>
      <trkpt lat="47.16488" lon="-1.45925">
        <ele>80</ele>
        <time>2022-11-11T14:19:35Z</time>
      </trkpt>
      <trkpt lat="47.16492" lon="-1.45939">
        <ele>81</ele>
        <time>2022-11-11T14:19:37Z</time>
      </trkpt>
      <trkpt lat="47.16496" lon="-1.45953">
        <ele>81</ele>
        <time>2022-11-11T14:19:39Z</time>
      </trkpt>
      <trkpt lat="47.16501" lon="-1.45968">
        <ele>81</ele>
        <time>2022-11-11T14:19:41Z</time>
      </trkpt>
      <trkpt lat="47.16506" lon="-1.45982">
        <ele>81</ele>
        <time>2022-11-11T14:19:43Z</time>
      </trkpt>
      <trkpt lat="47.16512" lon="-1.45996">
        <ele>82</ele>
        <time>2022-11-11T14:19:45Z</time>
      </trkpt>
      <trkpt lat="47.16516" lon="-1.4601">
        <ele>82</ele>
        <time>2022-11-11T14:19:47Z</time>
      </trkpt>
      <trkpt lat="47.16522" lon="-1.46022">
        <ele>82</ele>
        <time>2022-11-11T14:19:49Z</time>
      </trkpt>
      <trkpt lat="47.1653" lon="-1.4603">
        <ele>83</ele>
        <time>2022-11-11T14:19:51Z</time>
      </trkpt>
      <trkpt lat="47.16539" lon="-1.46034">
        <ele>83</ele>
        <time>2022-11-11T14:19:53Z</time>
      </trkpt>
      <trkpt lat="47.16548" lon="-1.4604">
        <ele>83</ele>
        <time>2022-11-11T14:19:55Z</time>
      </trkpt>
      <trkpt lat="47.16554" lon="-1.46053">
        <ele>84</ele>
        <time>2022-11-11T14:19:57Z</time>
      </trkpt>
      <trkpt lat="47.16559" lon="-1.46066">
        <ele>84</ele>
        <time>2022-11-11T14:19:59Z</time>
      </trkpt>
      <trkpt lat="47.16561" lon="-1.4608">
        <ele>84</ele>
        <time>2022-11-11T14:20:01Z</time>
      </trkpt>
      <trkpt lat="47.16562" lon="-1.46096">
        <ele>85</ele>
        <time>2022-11-11T14:20:03Z</time>
      </trkpt>
      <trkpt lat="47.16567" lon="-1.46111">
        <ele>85</ele>
        <time>2022-11-11T14:20:05Z</time>
      </trkpt>
      <trkpt lat="47.16572" lon="-1.46125">
        <ele>85</ele>
        <time>2022-11-11T14:20:07Z</time>
      </trkpt>
      <trkpt lat="47.16577" lon="-1.46138">
        <ele>85</ele>
        <time>2022-11-11T14:20:09Z</time>
      </trkpt>
      <trkpt lat="47.16583" lon="-1.46151">
        <ele>85</ele>
        <time>2022-11-11T14:20:11Z</time>
      </trkpt>
      <trkpt lat="47.16589" lon="-1.46162">
        <ele>85</ele>
        <time>2022-11-11T14:20:13Z</time>
      </trkpt>
      <trkpt lat="47.16595" lon="-1.46174">
        <ele>86</ele>
        <time>2022-11-11T14:20:15Z</time>
      </trkpt>
      <trkpt lat="47.16601" lon="-1.46185">
        <ele>86</ele>
        <time>2022-11-11T14:20:17Z</time>
      </trkpt>
      <trkpt lat="47.16607" lon="-1.46196">
        <ele>86</ele>
        <time>2022-11-11T14:20:19Z</time>
      </trkpt>
      <trkpt lat="47.16616" lon="-1.46202">
        <ele>87</ele>
        <time>2022-11-11T14:20:21Z</time>
      </trkpt>
      <trkpt lat="47.16624" lon="-1.4621">
        <ele>87</ele>
        <time>2022-11-11T14:20:23Z</time>
      </trkpt>
      <trkpt lat="47.16628" lon="-1.46223">
        <ele>87</ele>
        <time>2022-11-11T14:20:25Z</time>
      </trkpt>
      <trkpt lat="47.1663" lon="-1.46238">
        <ele>87</ele>
        <time>2022-11-11T14:20:27Z</time>
      </trkpt>
      <trkpt lat="47.16635" lon="-1.46251">
        <ele>87</ele>
        <time>2022-11-11T14:20:29Z</time>
      </trkpt>
      <trkpt lat="47.16639" lon="-1.46265">
        <ele>88</ele>
        <time>2022-11-11T14:20:31Z</time>
      </trkpt>
      <trkpt lat="47.16645" lon="-1.46278">
        <ele>88</ele>
        <time>2022-11-11T14:20:33Z</time>
      </trkpt>
      <trkpt lat="47.16652" lon="-1.4629">
        <ele>88</ele>
        <time>2022-11-11T14:20:35Z</time>
      </trkpt>
      <trkpt lat="47.16659" lon="-1.46303">
        <ele>88</ele>
        <time>2022-11-11T14:20:37Z</time>
      </trkpt>
      <trkpt lat="47.16666" lon="-1.46316">
        <ele>89</ele>
        <time>2022-11-11T14:20:39Z</time>
      </trkpt>
      <trkpt lat="47.16673" lon="-1.4633">
        <ele>89</ele>
        <time>2022-11-11T14:20:41Z</time>
      </trkpt>
      <trkpt lat="47.1668" lon="-1.46344">
        <ele>89</ele>
        <time>2022-11-11T14:20:43Z</time>
      </trkpt>
      <trkpt lat="47.16688" lon="-1.46357">
        <ele>88</ele>
        <time>2022-11-11T14:20:45Z</time>
      </trkpt>
      <trkpt lat="47.16695" lon="-1.4637">
        <ele>88</ele>
        <time>2022-11-11T14:20:47Z</time>
      </trkpt>
      <trkpt lat="47.16702" lon="-1.46383">
        <ele>88</ele>
        <time>2022-11-11T14:20:49Z</time>
      </trkpt>
      <trkpt lat="47.1671" lon="-1.46397">
        <ele>87</ele>
        <time>2022-11-11T14:20:51Z</time>
      </trkpt>
      <trkpt lat="47.16718" lon="-1.4641">
        <ele>87</ele>
        <time>2022-11-11T14:20:53Z</time>
      </trkpt>
      <trkpt lat="47.16726" lon="-1.46425">
        <ele>87</ele>
        <time>2022-11-11T14:20:55Z</time>
      </trkpt>
      <trkpt lat="47.16735" lon="-1.46439">
        <ele>87</ele>
        <time>2022-11-11T14:20:57Z</time>
      </trkpt>
      <trkpt lat="47.16745" lon="-1.46453">
        <ele>86</ele>
        <time>2022-11-11T14:20:59Z</time>
      </trkpt>
      <trkpt lat="47.16754" lon="-1.46466">
        <ele>86</ele>
        <time>2022-11-11T14:21:01Z</time>
      </trkpt>
      <trkpt lat="47.16764" lon="-1.46479">
        <ele>86</ele>
        <time>2022-11-11T14:21:03Z</time>
      </trkpt>
      <trkpt lat="47.16774" lon="-1.46491">
        <ele>86</ele>
        <time>2022-11-11T14:21:05Z</time>
      </trkpt>
      <trkpt lat="47.16785" lon="-1.46504">
        <ele>86</ele>
        <time>2022-11-11T14:21:07Z</time>
      </trkpt>
      <trkpt lat="47.16795" lon="-1.46516">
        <ele>85</ele>
        <time>2022-11-11T14:21:09Z</time>
      </trkpt>
      <trkpt lat="47.16805" lon="-1.46529">
        <ele>85</ele>
        <time>2022-11-11T14:21:11Z</time>
      </trkpt>
      <trkpt lat="47.16815" lon="-1.46542">
        <ele>85</ele>
        <time>2022-11-11T14:21:13Z</time>
      </trkpt>
      <trkpt lat="47.16827" lon="-1.46554">
        <ele>84</ele>
        <time>2022-11-11T14:21:15Z</time>
      </trkpt>
      <trkpt lat="47.16838" lon="-1.46567">
        <ele>84</ele>
        <time>2022-11-11T14:21:17Z</time>
      </trkpt>
      <trkpt lat="47.16849" lon="-1.46577">
        <ele>83</ele>
        <time>2022-11-11T14:21:19Z</time>
      </trkpt>
      <trkpt lat="47.16861" lon="-1.46588">
        <ele>83</ele>
        <time>2022-11-11T14:21:21Z</time>
      </trkpt>
      <trkpt lat="47.16873" lon="-1.46599">
        <ele>83</ele>
        <time>2022-11-11T14:21:23Z</time>
      </trkpt>
      <trkpt lat="47.16885" lon="-1.4661">
        <ele>82</ele>
        <time>2022-11-11T14:21:25Z</time>
      </trkpt>
      <trkpt lat="47.16897" lon="-1.4662">
        <ele>82</ele>
        <time>2022-11-11T14:21:27Z</time>
      </trkpt>
      <trkpt lat="47.1691" lon="-1.4663">
        <ele>81</ele>
        <time>2022-11-11T14:21:29Z</time>
      </trkpt>
      <trkpt lat="47.16922" lon="-1.4664">
        <ele>81</ele>
        <time>2022-11-11T14:21:31Z</time>
      </trkpt>
      <trkpt lat="47.16935" lon="-1.4665">
        <ele>80</ele>
        <time>2022-11-11T14:21:33Z</time>
      </trkpt>
      <trkpt lat="47.16948" lon="-1.46658">
        <ele>80</ele>
        <time>2022-11-11T14:21:35Z</time>
      </trkpt>
      <trkpt lat="47.16961" lon="-1.46664">
        <ele>80</ele>
        <time>2022-11-11T14:21:37Z</time>
      </trkpt>
      <trkpt lat="47.16973" lon="-1.46671">
        <ele>79</ele>
        <time>2022-11-11T14:21:39Z</time>
      </trkpt>
      <trkpt lat="47.16983" lon="-1.46684">
        <ele>80</ele>
        <time>2022-11-11T14:21:41Z</time>
      </trkpt>
      <trkpt lat="47.16993" lon="-1.46698">
        <ele>79</ele>
        <time>2022-11-11T14:21:43Z</time>
      </trkpt>
      <trkpt lat="47.17006" lon="-1.46708">
        <ele>79</ele>
        <time>2022-11-11T14:21:45Z</time>
      </trkpt>
      <trkpt lat="47.1702" lon="-1.46719">
        <ele>78</ele>
        <time>2022-11-11T14:21:47Z</time>
      </trkpt>
      <trkpt lat="47.17034" lon="-1.4673">
        <ele>78</ele>
        <time>2022-11-11T14:21:49Z</time>
      </trkpt>
      <trkpt lat="47.17049" lon="-1.46741">
        <ele>78</ele>
        <time>2022-11-11T14:21:51Z</time>
      </trkpt>
      <trkpt lat="47.17063" lon="-1.46752">
        <ele>77</ele>
        <time>2022-11-11T14:21:53Z</time>
      </trkpt>
      <trkpt lat="47.17077" lon="-1.46766">
        <ele>77</ele>
        <time>2022-11-11T14:21:55Z</time>
      </trkpt>
      <trkpt lat="47.1709" lon="-1.4678">
        <ele>76</ele>
        <time>2022-11-11T14:21:57Z</time>
      </trkpt>
      <trkpt lat="47.17104" lon="-1.46795">
        <ele>75</ele>
        <time>2022-11-11T14:21:59Z</time>
      </trkpt>
      <trkpt lat="47.17119" lon="-1.46807">
        <ele>75</ele>
        <time>2022-11-11T14:22:01Z</time>
      </trkpt>
      <trkpt lat="47.17134" lon="-1.46819">
        <ele>73</ele>
        <time>2022-11-11T14:22:03Z</time>
      </trkpt>
      <trkpt lat="47.17144" lon="-1.4684">
        <ele>73</ele>
        <time>2022-11-11T14:22:05Z</time>
      </trkpt>
      <trkpt lat="47.17155" lon="-1.46857">
        <ele>73</ele>
        <time>2022-11-11T14:22:07Z</time>
      </trkpt>
      <trkpt lat="47.17165" lon="-1.46872">
        <ele>72</ele>
        <time>2022-11-11T14:22:09Z</time>
      </trkpt>
      <trkpt lat="47.17174" lon="-1.46889">
        <ele>72</ele>
        <time>2022-11-11T14:22:11Z</time>
      </trkpt>
      <trkpt lat="47.17183" lon="-1.46906">
        <ele>72</ele>
        <time>2022-11-11T14:22:13Z</time>
      </trkpt>
      <trkpt lat="47.17191" lon="-1.46926">
        <ele>71</ele>
        <time>2022-11-11T14:22:15Z</time>
      </trkpt>
      <trkpt lat="47.17201" lon="-1.46943">
        <ele>71</ele>
        <time>2022-11-11T14:22:17Z</time>
      </trkpt>
      <trkpt lat="47.17209" lon="-1.46963">
        <ele>71</ele>
        <time>2022-11-11T14:22:19Z</time>
      </trkpt>
      <trkpt lat="47.17217" lon="-1.46983">
        <ele>71</ele>
        <time>2022-11-11T14:22:21Z</time>
      </trkpt>
      <trkpt lat="47.17224" lon="-1.47004">
        <ele>70</ele>
        <time>2022-11-11T14:22:23Z</time>
      </trkpt>
      <trkpt lat="47.17232" lon="-1.47024">
        <ele>70</ele>
        <time>2022-11-11T14:22:25Z</time>
      </trkpt>
      <trkpt lat="47.17239" lon="-1.47045">
        <ele>69</ele>
        <time>2022-11-11T14:22:27Z</time>
      </trkpt>
      <trkpt lat="47.17246" lon="-1.47066">
        <ele>69</ele>
        <time>2022-11-11T14:22:29Z</time>
      </trkpt>
      <trkpt lat="47.17251" lon="-1.47087">
        <ele>68</ele>
        <time>2022-11-11T14:22:31Z</time>
      </trkpt>
      <trkpt lat="47.17257" lon="-1.47108">
        <ele>68</ele>
        <time>2022-11-11T14:22:33Z</time>
      </trkpt>
      <trkpt lat="47.17261" lon="-1.47129">
        <ele>67</ele>
        <time>2022-11-11T14:22:35Z</time>
      </trkpt>
      <trkpt lat="47.17266" lon="-1.47151">
        <ele>67</ele>
        <time>2022-11-11T14:22:37Z</time>
      </trkpt>
      <trkpt lat="47.1727" lon="-1.47171">
        <ele>67</ele>
        <time>2022-11-11T14:22:39Z</time>
      </trkpt>
      <trkpt lat="47.17274" lon="-1.47193">
        <ele>67</ele>
        <time>2022-11-11T14:22:41Z</time>
      </trkpt>
      <trkpt lat="47.17278" lon="-1.47214">
        <ele>67</ele>
        <time>2022-11-11T14:22:43Z</time>
      </trkpt>
      <trkpt lat="47.17281" lon="-1.47235">
        <ele>67</ele>
        <time>2022-11-11T14:22:45Z</time>
      </trkpt>
      <trkpt lat="47.17285" lon="-1.47255">
        <ele>67</ele>
        <time>2022-11-11T14:22:47Z</time>
      </trkpt>
      <trkpt lat="47.17289" lon="-1.47275">
        <ele>67</ele>
        <time>2022-11-11T14:22:49Z</time>
      </trkpt>
      <trkpt lat="47.17293" lon="-1.47294">
        <ele>66</ele>
        <time>2022-11-11T14:22:51Z</time>
      </trkpt>
      <trkpt lat="47.17296" lon="-1.47315">
        <ele>65</ele>
        <time>2022-11-11T14:22:53Z</time>
      </trkpt>
      <trkpt lat="47.17299" lon="-1.47334">
        <ele>64</ele>
        <time>2022-11-11T14:22:55Z</time>
      </trkpt>
      <trkpt lat="47.17304" lon="-1.47353">
        <ele>64</ele>
        <time>2022-11-11T14:22:57Z</time>
      </trkpt>
      <trkpt lat="47.17315" lon="-1.47365">
        <ele>64</ele>
        <time>2022-11-11T14:22:59Z</time>
      </trkpt>
      <trkpt lat="47.17328" lon="-1.47367">
        <ele>64</ele>
        <time>2022-11-11T14:23:01Z</time>
      </trkpt>
      <trkpt lat="47.17342" lon="-1.47365">
        <ele>63</ele>
        <time>2022-11-11T14:23:03Z</time>
      </trkpt>
      <trkpt lat="47.17355" lon="-1.4736">
        <ele>64</ele>
        <time>2022-11-11T14:23:05Z</time>
      </trkpt>
      <trkpt lat="47.17368" lon="-1.47358">
        <ele>64</ele>
        <time>2022-11-11T14:23:07Z</time>
      </trkpt>
      <trkpt lat="47.17382" lon="-1.47356">
        <ele>64</ele>
        <time>2022-11-11T14:23:09Z</time>
      </trkpt>
      <trkpt lat="47.17395" lon="-1.47355">
        <ele>64</ele>
        <time>2022-11-11T14:23:11Z</time>
      </trkpt>
      <trkpt lat="47.17408" lon="-1.47354">
        <ele>64</ele>
        <time>2022-11-11T14:23:13Z</time>
      </trkpt>
      <trkpt lat="47.17422" lon="-1.47351">
        <ele>63</ele>
        <time>2022-11-11T14:23:15Z</time>
      </trkpt>
      <trkpt lat="47.17436" lon="-1.4735">
        <ele>62</ele>
        <time>2022-11-11T14:23:17Z</time>
      </trkpt>
      <trkpt lat="47.1745" lon="-1.4735">
        <ele>61</ele>
        <time>2022-11-11T14:23:19Z</time>
      </trkpt>
      <trkpt lat="47.17464" lon="-1.47351">
        <ele>61</ele>
        <time>2022-11-11T14:23:21Z</time>
      </trkpt>
      <trkpt lat="47.17477" lon="-1.4735">
        <ele>60</ele>
        <time>2022-11-11T14:23:23Z</time>
      </trkpt>
      <trkpt lat="47.17491" lon="-1.47352">
        <ele>59</ele>
        <time>2022-11-11T14:23:25Z</time>
      </trkpt>
      <trkpt lat="47.17505" lon="-1.47353">
        <ele>59</ele>
        <time>2022-11-11T14:23:27Z</time>
      </trkpt>
      <trkpt lat="47.17519" lon="-1.47353">
        <ele>59</ele>
        <time>2022-11-11T14:23:29Z</time>
      </trkpt>
      <trkpt lat="47.17533" lon="-1.47353">
        <ele>59</ele>
        <time>2022-11-11T14:23:31Z</time>
      </trkpt>
      <trkpt lat="47.17547" lon="-1.47353">
        <ele>59</ele>
        <time>2022-11-11T14:23:33Z</time>
      </trkpt>
      <trkpt lat="47.17562" lon="-1.47355">
        <ele>58</ele>
        <time>2022-11-11T14:23:35Z</time>
      </trkpt>
      <trkpt lat="47.17576" lon="-1.47357">
        <ele>58</ele>
        <time>2022-11-11T14:23:37Z</time>
      </trkpt>
      <trkpt lat="47.1759" lon="-1.4736">
        <ele>58</ele>
        <time>2022-11-11T14:23:39Z</time>
      </trkpt>
      <trkpt lat="47.17604" lon="-1.47363">
        <ele>57</ele>
        <time>2022-11-11T14:23:41Z</time>
      </trkpt>
      <trkpt lat="47.17618" lon="-1.47366">
        <ele>57</ele>
        <time>2022-11-11T14:23:43Z</time>
      </trkpt>
      <trkpt lat="47.17632" lon="-1.47369">
        <ele>57</ele>
        <time>2022-11-11T14:23:45Z</time>
      </trkpt>
      <trkpt lat="47.17645" lon="-1.47375">
        <ele>58</ele>
        <time>2022-11-11T14:23:47Z</time>
      </trkpt>
      <trkpt lat="47.17657" lon="-1.47382">
        <ele>58</ele>
        <time>2022-11-11T14:23:49Z</time>
      </trkpt>
      <trkpt lat="47.17669" lon="-1.47388">
        <ele>58</ele>
        <time>2022-11-11T14:23:51Z</time>
      </trkpt>
      <trkpt lat="47.17682" lon="-1.47395">
        <ele>59</ele>
        <time>2022-11-11T14:23:53Z</time>
      </trkpt>
      <trkpt lat="47.17695" lon="-1.47401">
        <ele>59</ele>
        <time>2022-11-11T14:23:55Z</time>
      </trkpt>
      <trkpt lat="47.17708" lon="-1.47407">
        <ele>59</ele>
        <time>2022-11-11T14:23:57Z</time>
      </trkpt>
      <trkpt lat="47.17721" lon="-1.47413">
        <ele>59</ele>
        <time>2022-11-11T14:23:59Z</time>
      </trkpt>
      <trkpt lat="47.17733" lon="-1.47419">
        <ele>59</ele>
        <time>2022-11-11T14:24:01Z</time>
      </trkpt>
      <trkpt lat="47.17745" lon="-1.47425">
        <ele>59</ele>
        <time>2022-11-11T14:24:03Z</time>
      </trkpt>
      <trkpt lat="47.17757" lon="-1.47432">
        <ele>59</ele>
        <time>2022-11-11T14:24:05Z</time>
      </trkpt>
      <trkpt lat="47.1777" lon="-1.47438">
        <ele>58</ele>
        <time>2022-11-11T14:24:07Z</time>
      </trkpt>
      <trkpt lat="47.17782" lon="-1.47444">
        <ele>58</ele>
        <time>2022-11-11T14:24:09Z</time>
      </trkpt>
      <trkpt lat="47.17795" lon="-1.4745">
        <ele>58</ele>
        <time>2022-11-11T14:24:11Z</time>
      </trkpt>
      <trkpt lat="47.17808" lon="-1.47455">
        <ele>59</ele>
        <time>2022-11-11T14:24:13Z</time>
      </trkpt>
      <trkpt lat="47.17821" lon="-1.4746">
        <ele>59</ele>
        <time>2022-11-11T14:24:15Z</time>
      </trkpt>
      <trkpt lat="47.17834" lon="-1.47464">
        <ele>59</ele>
        <time>2022-11-11T14:24:17Z</time>
      </trkpt>
      <trkpt lat="47.17847" lon="-1.47467">
        <ele>58</ele>
        <time>2022-11-11T14:24:19Z</time>
      </trkpt>
      <trkpt lat="47.1786" lon="-1.4747">
        <ele>58</ele>
        <time>2022-11-11T14:24:21Z</time>
      </trkpt>
      <trkpt lat="47.17872" lon="-1.47474">
        <ele>58</ele>
        <time>2022-11-11T14:24:23Z</time>
      </trkpt>
      <trkpt lat="47.17883" lon="-1.47475">
        <ele>59</ele>
        <time>2022-11-11T14:24:25Z</time>
      </trkpt>
      <trkpt lat="47.17895" lon="-1.47472">
        <ele>58</ele>
        <time>2022-11-11T14:24:27Z</time>
      </trkpt>
      <trkpt lat="47.17906" lon="-1.47467">
        <ele>58</ele>
        <time>2022-11-11T14:24:29Z</time>
      </trkpt>
      <trkpt lat="47.17917" lon="-1.4747">
        <ele>58</ele>
        <time>2022-11-11T14:24:31Z</time>
      </trkpt>
      <trkpt lat="47.17927" lon="-1.47479">
        <ele>58</ele>
        <time>2022-11-11T14:24:33Z</time>
      </trkpt>
      <trkpt lat="47.17935" lon="-1.47488">
        <ele>58</ele>
        <time>2022-11-11T14:24:35Z</time>
      </trkpt>
      <trkpt lat="47.17946" lon="-1.47491">
        <ele>58</ele>
        <time>2022-11-11T14:24:37Z</time>
      </trkpt>
      <trkpt lat="47.17957" lon="-1.47494">
        <ele>58</ele>
        <time>2022-11-11T14:24:39Z</time>
      </trkpt>
      <trkpt lat="47.17968" lon="-1.47497">
        <ele>58</ele>
        <time>2022-11-11T14:24:41Z</time>
      </trkpt>
      <trkpt lat="47.17978" lon="-1.47501">
        <ele>59</ele>
        <time>2022-11-11T14:24:43Z</time>
      </trkpt>
      <trkpt lat="47.17989" lon="-1.47503">
        <ele>58</ele>
        <time>2022-11-11T14:24:45Z</time>
      </trkpt>
      <trkpt lat="47.18" lon="-1.47506">
        <ele>58</ele>
        <time>2022-11-11T14:24:47Z</time>
      </trkpt>
      <trkpt lat="47.1801" lon="-1.47508">
        <ele>58</ele>
        <time>2022-11-11T14:24:49Z</time>
      </trkpt>
      <trkpt lat="47.18021" lon="-1.47511">
        <ele>59</ele>
        <time>2022-11-11T14:24:51Z</time>
      </trkpt>
      <trkpt lat="47.18032" lon="-1.47514">
        <ele>59</ele>
        <time>2022-11-11T14:24:53Z</time>
      </trkpt>
      <trkpt lat="47.18043" lon="-1.47517">
        <ele>59</ele>
        <time>2022-11-11T14:24:55Z</time>
      </trkpt>
      <trkpt lat="47.18053" lon="-1.4752">
        <ele>59</ele>
        <time>2022-11-11T14:24:57Z</time>
      </trkpt>
      <trkpt lat="47.18064" lon="-1.47523">
        <ele>59</ele>
        <time>2022-11-11T14:24:59Z</time>
      </trkpt>
      <trkpt lat="47.18075" lon="-1.47525">
        <ele>58</ele>
        <time>2022-11-11T14:25:01Z</time>
      </trkpt>
      <trkpt lat="47.18085" lon="-1.47528">
        <ele>58</ele>
        <time>2022-11-11T14:25:03Z</time>
      </trkpt>
      <trkpt lat="47.18096" lon="-1.47531">
        <ele>58</ele>
        <time>2022-11-11T14:25:05Z</time>
      </trkpt>
      <trkpt lat="47.18106" lon="-1.47534">
        <ele>58</ele>
        <time>2022-11-11T14:25:07Z</time>
      </trkpt>
      <trkpt lat="47.18117" lon="-1.47537">
        <ele>59</ele>
        <time>2022-11-11T14:25:09Z</time>
      </trkpt>
      <trkpt lat="47.18127" lon="-1.47539">
        <ele>59</ele>
        <time>2022-11-11T14:25:11Z</time>
      </trkpt>
      <trkpt lat="47.18138" lon="-1.47541">
        <ele>59</ele>
        <time>2022-11-11T14:25:13Z</time>
      </trkpt>
      <trkpt lat="47.18148" lon="-1.47544">
        <ele>59</ele>
        <time>2022-11-11T14:25:15Z</time>
      </trkpt>
      <trkpt lat="47.18159" lon="-1.47546">
        <ele>59</ele>
        <time>2022-11-11T14:25:17Z</time>
      </trkpt>
      <trkpt lat="47.18169" lon="-1.47549">
        <ele>59</ele>
        <time>2022-11-11T14:25:19Z</time>
      </trkpt>
      <trkpt lat="47.1818" lon="-1.47551">
        <ele>60</ele>
        <time>2022-11-11T14:25:21Z</time>
      </trkpt>
      <trkpt lat="47.1819" lon="-1.47553">
        <ele>60</ele>
        <time>2022-11-11T14:25:23Z</time>
      </trkpt>
      <trkpt lat="47.18199" lon="-1.47556">
        <ele>61</ele>
        <time>2022-11-11T14:25:25Z</time>
      </trkpt>
      <trkpt lat="47.18209" lon="-1.47558">
        <ele>61</ele>
        <time>2022-11-11T14:25:27Z</time>
      </trkpt>
      <trkpt lat="47.18219" lon="-1.47561">
        <ele>62</ele>
        <time>2022-11-11T14:25:29Z</time>
      </trkpt>
      <trkpt lat="47.18229" lon="-1.47564">
        <ele>62</ele>
        <time>2022-11-11T14:25:31Z</time>
      </trkpt>
      <trkpt lat="47.18239" lon="-1.47567">
        <ele>63</ele>
        <time>2022-11-11T14:25:33Z</time>
      </trkpt>
      <trkpt lat="47.18251" lon="-1.47569">
        <ele>63</ele>
        <time>2022-11-11T14:25:36Z</time>
      </trkpt>
      <trkpt lat="47.18261" lon="-1.47571">
        <ele>63</ele>
        <time>2022-11-11T14:25:38Z</time>
      </trkpt>
      <trkpt lat="47.18269" lon="-1.47574">
        <ele>63</ele>
        <time>2022-11-11T14:25:40Z</time>
      </trkpt>
      <trkpt lat="47.18278" lon="-1.47577">
        <ele>63</ele>
        <time>2022-11-11T14:25:42Z</time>
      </trkpt>
      <trkpt lat="47.1829" lon="-1.47581">
        <ele>64</ele>
        <time>2022-11-11T14:25:45Z</time>
      </trkpt>
      <trkpt lat="47.18303" lon="-1.47586">
        <ele>64</ele>
        <time>2022-11-11T14:25:48Z</time>
      </trkpt>
      <trkpt lat="47.18316" lon="-1.4759">
        <ele>64</ele>
        <time>2022-11-11T14:25:51Z</time>
      </trkpt>
      <trkpt lat="47.18329" lon="-1.47593">
        <ele>65</ele>
        <time>2022-11-11T14:25:54Z</time>
      </trkpt>
      <trkpt lat="47.18342" lon="-1.47596">
        <ele>65</ele>
        <time>2022-11-11T14:25:57Z</time>
      </trkpt>
      <trkpt lat="47.18355" lon="-1.476">
        <ele>66</ele>
        <time>2022-11-11T14:26:00Z</time>
      </trkpt>
      <trkpt lat="47.18365" lon="-1.47607">
        <ele>66</ele>
        <time>2022-11-11T14:26:03Z</time>
      </trkpt>
      <trkpt lat="47.18371" lon="-1.47618">
        <ele>67</ele>
        <time>2022-11-11T14:26:06Z</time>
      </trkpt>
      <trkpt lat="47.18383" lon="-1.47621">
        <ele>67</ele>
        <time>2022-11-11T14:26:09Z</time>
      </trkpt>
      <trkpt lat="47.18395" lon="-1.47623">
        <ele>68</ele>
        <time>2022-11-11T14:26:12Z</time>
      </trkpt>
      <trkpt lat="47.18405" lon="-1.47632">
        <ele>68</ele>
        <time>2022-11-11T14:26:15Z</time>
      </trkpt>
      <trkpt lat="47.18409" lon="-1.4765">
        <ele>67</ele>
        <time>2022-11-11T14:26:18Z</time>
      </trkpt>
      <trkpt lat="47.1841" lon="-1.47668">
        <ele>68</ele>
        <time>2022-11-11T14:26:21Z</time>
      </trkpt>
      <trkpt lat="47.18416" lon="-1.47685">
        <ele>69</ele>
        <time>2022-11-11T14:26:24Z</time>
      </trkpt>
      <trkpt lat="47.1842" lon="-1.47698">
        <ele>69</ele>
        <time>2022-11-11T14:26:26Z</time>
      </trkpt>
      <trkpt lat="47.18421" lon="-1.47712">
        <ele>70</ele>
        <time>2022-11-11T14:26:28Z</time>
      </trkpt>
      <trkpt lat="47.18422" lon="-1.47725">
        <ele>70</ele>
        <time>2022-11-11T14:26:30Z</time>
      </trkpt>
      <trkpt lat="47.18422" lon="-1.47743">
        <ele>72</ele>
        <time>2022-11-11T14:26:33Z</time>
      </trkpt>
      <trkpt lat="47.18421" lon="-1.47762">
        <ele>73</ele>
        <time>2022-11-11T14:26:36Z</time>
      </trkpt>
      <trkpt lat="47.18422" lon="-1.47779">
        <ele>74</ele>
        <time>2022-11-11T14:26:39Z</time>
      </trkpt>
      <trkpt lat="47.18422" lon="-1.47799">
        <ele>74</ele>
        <time>2022-11-11T14:26:42Z</time>
      </trkpt>
      <trkpt lat="47.18422" lon="-1.47817">
        <ele>75</ele>
        <time>2022-11-11T14:26:45Z</time>
      </trkpt>
      <trkpt lat="47.18422" lon="-1.47836">
        <ele>75</ele>
        <time>2022-11-11T14:26:48Z</time>
      </trkpt>
      <trkpt lat="47.18423" lon="-1.47855">
        <ele>75</ele>
        <time>2022-11-11T14:26:51Z</time>
      </trkpt>
      <trkpt lat="47.18423" lon="-1.47873">
        <ele>75</ele>
        <time>2022-11-11T14:26:54Z</time>
      </trkpt>
      <trkpt lat="47.18423" lon="-1.47892">
        <ele>75</ele>
        <time>2022-11-11T14:26:57Z</time>
      </trkpt>
      <trkpt lat="47.18423" lon="-1.47905">
        <ele>75</ele>
        <time>2022-11-11T14:26:59Z</time>
      </trkpt>
      <trkpt lat="47.18423" lon="-1.47919">
        <ele>75</ele>
        <time>2022-11-11T14:27:01Z</time>
      </trkpt>
      <trkpt lat="47.18423" lon="-1.47939">
        <ele>76</ele>
        <time>2022-11-11T14:27:04Z</time>
      </trkpt>
      <trkpt lat="47.18423" lon="-1.47953">
        <ele>76</ele>
        <time>2022-11-11T14:27:06Z</time>
      </trkpt>
      <trkpt lat="47.18423" lon="-1.47967">
        <ele>77</ele>
        <time>2022-11-11T14:27:08Z</time>
      </trkpt>
      <trkpt lat="47.18423" lon="-1.4798">
        <ele>77</ele>
        <time>2022-11-11T14:27:10Z</time>
      </trkpt>
      <trkpt lat="47.18423" lon="-1.47994">
        <ele>77</ele>
        <time>2022-11-11T14:27:12Z</time>
      </trkpt>
      <trkpt lat="47.18424" lon="-1.48008">
        <ele>77</ele>
        <time>2022-11-11T14:27:14Z</time>
      </trkpt>
      <trkpt lat="47.18424" lon="-1.48022">
        <ele>78</ele>
        <time>2022-11-11T14:27:16Z</time>
      </trkpt>
      <trkpt lat="47.18424" lon="-1.48035">
        <ele>78</ele>
        <time>2022-11-11T14:27:18Z</time>
      </trkpt>
      <trkpt lat="47.18424" lon="-1.48048">
        <ele>78</ele>
        <time>2022-11-11T14:27:20Z</time>
      </trkpt>
      <trkpt lat="47.18425" lon="-1.48062">
        <ele>79</ele>
        <time>2022-11-11T14:27:22Z</time>
      </trkpt>
      <trkpt lat="47.18425" lon="-1.48076">
        <ele>79</ele>
        <time>2022-11-11T14:27:24Z</time>
      </trkpt>
      <trkpt lat="47.18425" lon="-1.4809">
        <ele>79</ele>
        <time>2022-11-11T14:27:26Z</time>
      </trkpt>
      <trkpt lat="47.18425" lon="-1.48103">
        <ele>79</ele>
        <time>2022-11-11T14:27:28Z</time>
      </trkpt>
      <trkpt lat="47.18425" lon="-1.48117">
        <ele>79</ele>
        <time>2022-11-11T14:27:30Z</time>
      </trkpt>
      <trkpt lat="47.18425" lon="-1.4813">
        <ele>80</ele>
        <time>2022-11-11T14:27:32Z</time>
      </trkpt>
      <trkpt lat="47.18426" lon="-1.48144">
        <ele>80</ele>
        <time>2022-11-11T14:27:34Z</time>
      </trkpt>
      <trkpt lat="47.18425" lon="-1.48162">
        <ele>80</ele>
        <time>2022-11-11T14:27:37Z</time>
      </trkpt>
      <trkpt lat="47.18425" lon="-1.48176">
        <ele>81</ele>
        <time>2022-11-11T14:27:39Z</time>
      </trkpt>
      <trkpt lat="47.18425" lon="-1.48189">
        <ele>81</ele>
        <time>2022-11-11T14:27:41Z</time>
      </trkpt>
      <trkpt lat="47.18426" lon="-1.48203">
        <ele>81</ele>
        <time>2022-11-11T14:27:43Z</time>
      </trkpt>
      <trkpt lat="47.18426" lon="-1.48218">
        <ele>81</ele>
        <time>2022-11-11T14:27:45Z</time>
      </trkpt>
      <trkpt lat="47.18426" lon="-1.48232">
        <ele>81</ele>
        <time>2022-11-11T14:27:47Z</time>
      </trkpt>
      <trkpt lat="47.18426" lon="-1.48246">
        <ele>82</ele>
        <time>2022-11-11T14:27:49Z</time>
      </trkpt>
      <trkpt lat="47.18427" lon="-1.4826">
        <ele>82</ele>
        <time>2022-11-11T14:27:51Z</time>
      </trkpt>
      <trkpt lat="47.18427" lon="-1.48275">
        <ele>82</ele>
        <time>2022-11-11T14:27:53Z</time>
      </trkpt>
      <trkpt lat="47.18428" lon="-1.48289">
        <ele>82</ele>
        <time>2022-11-11T14:27:55Z</time>
      </trkpt>
      <trkpt lat="47.18428" lon="-1.48305">
        <ele>82</ele>
        <time>2022-11-11T14:27:57Z</time>
      </trkpt>
      <trkpt lat="47.18428" lon="-1.4832">
        <ele>81</ele>
        <time>2022-11-11T14:27:59Z</time>
      </trkpt>
      <trkpt lat="47.18428" lon="-1.48336">
        <ele>82</ele>
        <time>2022-11-11T14:28:01Z</time>
      </trkpt>
      <trkpt lat="47.18429" lon="-1.48351">
        <ele>81</ele>
        <time>2022-11-11T14:28:03Z</time>
      </trkpt>
      <trkpt lat="47.18428" lon="-1.48367">
        <ele>81</ele>
        <time>2022-11-11T14:28:05Z</time>
      </trkpt>
      <trkpt lat="47.18429" lon="-1.48384">
        <ele>81</ele>
        <time>2022-11-11T14:28:07Z</time>
      </trkpt>
      <trkpt lat="47.18429" lon="-1.48401">
        <ele>81</ele>
        <time>2022-11-11T14:28:09Z</time>
      </trkpt>
      <trkpt lat="47.18429" lon="-1.48419">
        <ele>81</ele>
        <time>2022-11-11T14:28:11Z</time>
      </trkpt>
      <trkpt lat="47.1843" lon="-1.48437">
        <ele>81</ele>
        <time>2022-11-11T14:28:13Z</time>
      </trkpt>
      <trkpt lat="47.1843" lon="-1.48455">
        <ele>80</ele>
        <time>2022-11-11T14:28:15Z</time>
      </trkpt>
      <trkpt lat="47.1843" lon="-1.48473">
        <ele>80</ele>
        <time>2022-11-11T14:28:17Z</time>
      </trkpt>
      <trkpt lat="47.18431" lon="-1.4849">
        <ele>81</ele>
        <time>2022-11-11T14:28:19Z</time>
      </trkpt>
      <trkpt lat="47.18431" lon="-1.48507">
        <ele>80</ele>
        <time>2022-11-11T14:28:21Z</time>
      </trkpt>
      <trkpt lat="47.18433" lon="-1.48525">
        <ele>80</ele>
        <time>2022-11-11T14:28:23Z</time>
      </trkpt>
      <trkpt lat="47.18435" lon="-1.48544">
        <ele>80</ele>
        <time>2022-11-11T14:28:25Z</time>
      </trkpt>
      <trkpt lat="47.18438" lon="-1.48563">
        <ele>80</ele>
        <time>2022-11-11T14:28:27Z</time>
      </trkpt>
      <trkpt lat="47.18442" lon="-1.48581">
        <ele>80</ele>
        <time>2022-11-11T14:28:29Z</time>
      </trkpt>
      <trkpt lat="47.18446" lon="-1.48598">
        <ele>80</ele>
        <time>2022-11-11T14:28:31Z</time>
      </trkpt>
      <trkpt lat="47.1845" lon="-1.48616">
        <ele>80</ele>
        <time>2022-11-11T14:28:33Z</time>
      </trkpt>
      <trkpt lat="47.18455" lon="-1.48632">
        <ele>80</ele>
        <time>2022-11-11T14:28:35Z</time>
      </trkpt>
      <trkpt lat="47.1846" lon="-1.4865">
        <ele>80</ele>
        <time>2022-11-11T14:28:37Z</time>
      </trkpt>
      <trkpt lat="47.18465" lon="-1.48667">
        <ele>79</ele>
        <time>2022-11-11T14:28:39Z</time>
      </trkpt>
      <trkpt lat="47.1847" lon="-1.48685">
        <ele>79</ele>
        <time>2022-11-11T14:28:41Z</time>
      </trkpt>
      <trkpt lat="47.18474" lon="-1.48703">
        <ele>79</ele>
        <time>2022-11-11T14:28:43Z</time>
      </trkpt>
      <trkpt lat="47.18478" lon="-1.48721">
        <ele>78</ele>
        <time>2022-11-11T14:28:45Z</time>
      </trkpt>
      <trkpt lat="47.18481" lon="-1.4874">
        <ele>78</ele>
        <time>2022-11-11T14:28:47Z</time>
      </trkpt>
      <trkpt lat="47.18484" lon="-1.48758">
        <ele>78</ele>
        <time>2022-11-11T14:28:49Z</time>
      </trkpt>
      <trkpt lat="47.18486" lon="-1.48777">
        <ele>78</ele>
        <time>2022-11-11T14:28:51Z</time>
      </trkpt>
      <trkpt lat="47.18488" lon="-1.48796">
        <ele>78</ele>
        <time>2022-11-11T14:28:53Z</time>
      </trkpt>
      <trkpt lat="47.18491" lon="-1.48815">
        <ele>77</ele>
        <time>2022-11-11T14:28:55Z</time>
      </trkpt>
      <trkpt lat="47.18493" lon="-1.48834">
        <ele>78</ele>
        <time>2022-11-11T14:28:57Z</time>
      </trkpt>
      <trkpt lat="47.18495" lon="-1.48853">
        <ele>78</ele>
        <time>2022-11-11T14:28:59Z</time>
      </trkpt>
      <trkpt lat="47.18498" lon="-1.48872">
        <ele>79</ele>
        <time>2022-11-11T14:29:01Z</time>
      </trkpt>
      <trkpt lat="47.18501" lon="-1.48892">
        <ele>79</ele>
        <time>2022-11-11T14:29:03Z</time>
      </trkpt>
      <trkpt lat="47.18504" lon="-1.48911">
        <ele>78</ele>
        <time>2022-11-11T14:29:05Z</time>
      </trkpt>
      <trkpt lat="47.18508" lon="-1.48931">
        <ele>79</ele>
        <time>2022-11-11T14:29:07Z</time>
      </trkpt>
      <trkpt lat="47.18514" lon="-1.48949">
        <ele>80</ele>
        <time>2022-11-11T14:29:09Z</time>
      </trkpt>
      <trkpt lat="47.18519" lon="-1.48969">
        <ele>80</ele>
        <time>2022-11-11T14:29:11Z</time>
      </trkpt>
      <trkpt lat="47.18522" lon="-1.48987">
        <ele>80</ele>
        <time>2022-11-11T14:29:13Z</time>
      </trkpt>
      <trkpt lat="47.18524" lon="-1.49006">
        <ele>80</ele>
        <time>2022-11-11T14:29:15Z</time>
      </trkpt>
      <trkpt lat="47.18527" lon="-1.49025">
        <ele>80</ele>
        <time>2022-11-11T14:29:17Z</time>
      </trkpt>
      <trkpt lat="47.1853" lon="-1.49044">
        <ele>80</ele>
        <time>2022-11-11T14:29:19Z</time>
      </trkpt>
      <trkpt lat="47.18533" lon="-1.49063">
        <ele>80</ele>
        <time>2022-11-11T14:29:21Z</time>
      </trkpt>
      <trkpt lat="47.18536" lon="-1.49081">
        <ele>80</ele>
        <time>2022-11-11T14:29:23Z</time>
      </trkpt>
      <trkpt lat="47.18539" lon="-1.491">
        <ele>80</ele>
        <time>2022-11-11T14:29:25Z</time>
      </trkpt>
      <trkpt lat="47.18542" lon="-1.49118">
        <ele>80</ele>
        <time>2022-11-11T14:29:27Z</time>
      </trkpt>
      <trkpt lat="47.18546" lon="-1.49137">
        <ele>79</ele>
        <time>2022-11-11T14:29:29Z</time>
      </trkpt>
      <trkpt lat="47.1855" lon="-1.49155">
        <ele>79</ele>
        <time>2022-11-11T14:29:31Z</time>
      </trkpt>
      <trkpt lat="47.18554" lon="-1.49173">
        <ele>79</ele>
        <time>2022-11-11T14:29:33Z</time>
      </trkpt>
      <trkpt lat="47.18557" lon="-1.49191">
        <ele>79</ele>
        <time>2022-11-11T14:29:35Z</time>
      </trkpt>
      <trkpt lat="47.18562" lon="-1.49208">
        <ele>78</ele>
        <time>2022-11-11T14:29:37Z</time>
      </trkpt>
      <trkpt lat="47.18566" lon="-1.49226">
        <ele>79</ele>
        <time>2022-11-11T14:29:39Z</time>
      </trkpt>
      <trkpt lat="47.18571" lon="-1.49243">
        <ele>79</ele>
        <time>2022-11-11T14:29:41Z</time>
      </trkpt>
      <trkpt lat="47.18576" lon="-1.4926">
        <ele>79</ele>
        <time>2022-11-11T14:29:43Z</time>
      </trkpt>
      <trkpt lat="47.18582" lon="-1.49278">
        <ele>79</ele>
        <time>2022-11-11T14:29:45Z</time>
      </trkpt>
      <trkpt lat="47.18587" lon="-1.49295">
        <ele>79</ele>
        <time>2022-11-11T14:29:47Z</time>
      </trkpt>
      <trkpt lat="47.18592" lon="-1.49311">
        <ele>78</ele>
        <time>2022-11-11T14:29:49Z</time>
      </trkpt>
      <trkpt lat="47.18599" lon="-1.49327">
        <ele>78</ele>
        <time>2022-11-11T14:29:51Z</time>
      </trkpt>
      <trkpt lat="47.18606" lon="-1.49341">
        <ele>78</ele>
        <time>2022-11-11T14:29:53Z</time>
      </trkpt>
      <trkpt lat="47.18615" lon="-1.49354">
        <ele>78</ele>
        <time>2022-11-11T14:29:55Z</time>
      </trkpt>
      <trkpt lat="47.18624" lon="-1.49365">
        <ele>77</ele>
        <time>2022-11-11T14:29:57Z</time>
      </trkpt>
      <trkpt lat="47.18635" lon="-1.49374">
        <ele>77</ele>
        <time>2022-11-11T14:29:59Z</time>
      </trkpt>
      <trkpt lat="47.18646" lon="-1.49382">
        <ele>77</ele>
        <time>2022-11-11T14:30:01Z</time>
      </trkpt>
      <trkpt lat="47.18657" lon="-1.4939">
        <ele>77</ele>
        <time>2022-11-11T14:30:03Z</time>
      </trkpt>
      <trkpt lat="47.18668" lon="-1.49397">
        <ele>77</ele>
        <time>2022-11-11T14:30:05Z</time>
      </trkpt>
      <trkpt lat="47.18679" lon="-1.49405">
        <ele>77</ele>
        <time>2022-11-11T14:30:07Z</time>
      </trkpt>
      <trkpt lat="47.1869" lon="-1.49412">
        <ele>77</ele>
        <time>2022-11-11T14:30:09Z</time>
      </trkpt>
      <trkpt lat="47.18701" lon="-1.49419">
        <ele>77</ele>
        <time>2022-11-11T14:30:11Z</time>
      </trkpt>
      <trkpt lat="47.18713" lon="-1.49425">
        <ele>77</ele>
        <time>2022-11-11T14:30:13Z</time>
      </trkpt>
      <trkpt lat="47.18723" lon="-1.49432">
        <ele>77</ele>
        <time>2022-11-11T14:30:15Z</time>
      </trkpt>
      <trkpt lat="47.18733" lon="-1.4944">
        <ele>77</ele>
        <time>2022-11-11T14:30:17Z</time>
      </trkpt>
      <trkpt lat="47.18743" lon="-1.49446">
        <ele>77</ele>
        <time>2022-11-11T14:30:19Z</time>
      </trkpt>
      <trkpt lat="47.18753" lon="-1.49451">
        <ele>77</ele>
        <time>2022-11-11T14:30:21Z</time>
      </trkpt>
      <trkpt lat="47.18762" lon="-1.49457">
        <ele>78</ele>
        <time>2022-11-11T14:30:23Z</time>
      </trkpt>
      <trkpt lat="47.18771" lon="-1.49464">
        <ele>78</ele>
        <time>2022-11-11T14:30:25Z</time>
      </trkpt>
      <trkpt lat="47.18779" lon="-1.49471">
        <ele>78</ele>
        <time>2022-11-11T14:30:27Z</time>
      </trkpt>
      <trkpt lat="47.18788" lon="-1.49477">
        <ele>78</ele>
        <time>2022-11-11T14:30:29Z</time>
      </trkpt>
      <trkpt lat="47.18798" lon="-1.49484">
        <ele>77</ele>
        <time>2022-11-11T14:30:32Z</time>
      </trkpt>
      <trkpt lat="47.18806" lon="-1.49491">
        <ele>77</ele>
        <time>2022-11-11T14:30:37Z</time>
      </trkpt>
      <trkpt lat="47.18817" lon="-1.49498">
        <ele>78</ele>
        <time>2022-11-11T14:31:02Z</time>
      </trkpt>
      <trkpt lat="47.18827" lon="-1.49508">
        <ele>78</ele>
        <time>2022-11-11T14:31:05Z</time>
      </trkpt>
      <trkpt lat="47.18831" lon="-1.49521">
        <ele>78</ele>
        <time>2022-11-11T14:31:09Z</time>
      </trkpt>
      <trkpt lat="47.18831" lon="-1.49536">
        <ele>78</ele>
        <time>2022-11-11T14:31:11Z</time>
      </trkpt>
      <trkpt lat="47.18831" lon="-1.49552">
        <ele>79</ele>
        <time>2022-11-11T14:31:13Z</time>
      </trkpt>
      <trkpt lat="47.18834" lon="-1.4957">
        <ele>79</ele>
        <time>2022-11-11T14:31:15Z</time>
      </trkpt>
      <trkpt lat="47.18836" lon="-1.49589">
        <ele>80</ele>
        <time>2022-11-11T14:31:17Z</time>
      </trkpt>
      <trkpt lat="47.18837" lon="-1.49606">
        <ele>80</ele>
        <time>2022-11-11T14:31:19Z</time>
      </trkpt>
      <trkpt lat="47.18839" lon="-1.49625">
        <ele>79</ele>
        <time>2022-11-11T14:31:21Z</time>
      </trkpt>
      <trkpt lat="47.1884" lon="-1.49642">
        <ele>79</ele>
        <time>2022-11-11T14:31:23Z</time>
      </trkpt>
      <trkpt lat="47.18841" lon="-1.49659">
        <ele>79</ele>
        <time>2022-11-11T14:31:25Z</time>
      </trkpt>
      <trkpt lat="47.18842" lon="-1.49677">
        <ele>80</ele>
        <time>2022-11-11T14:31:27Z</time>
      </trkpt>
      <trkpt lat="47.18843" lon="-1.49696">
        <ele>80</ele>
        <time>2022-11-11T14:31:29Z</time>
      </trkpt>
      <trkpt lat="47.18843" lon="-1.49715">
        <ele>80</ele>
        <time>2022-11-11T14:31:31Z</time>
      </trkpt>
      <trkpt lat="47.18843" lon="-1.49745">
        <ele>80</ele>
        <time>2022-11-11T14:31:34Z</time>
      </trkpt>
      <trkpt lat="47.18844" lon="-1.49764">
        <ele>80</ele>
        <time>2022-11-11T14:31:36Z</time>
      </trkpt>
      <trkpt lat="47.18845" lon="-1.49784">
        <ele>80</ele>
        <time>2022-11-11T14:31:38Z</time>
      </trkpt>
      <trkpt lat="47.18847" lon="-1.49814">
        <ele>79</ele>
        <time>2022-11-11T14:31:41Z</time>
      </trkpt>
      <trkpt lat="47.18848" lon="-1.49835">
        <ele>79</ele>
        <time>2022-11-11T14:31:43Z</time>
      </trkpt>
      <trkpt lat="47.18849" lon="-1.49856">
        <ele>79</ele>
        <time>2022-11-11T14:31:45Z</time>
      </trkpt>
      <trkpt lat="47.18851" lon="-1.49877">
        <ele>78</ele>
        <time>2022-11-11T14:31:47Z</time>
      </trkpt>
      <trkpt lat="47.18852" lon="-1.49898">
        <ele>78</ele>
        <time>2022-11-11T14:31:49Z</time>
      </trkpt>
      <trkpt lat="47.18854" lon="-1.4993">
        <ele>78</ele>
        <time>2022-11-11T14:31:52Z</time>
      </trkpt>
      <trkpt lat="47.18856" lon="-1.49951">
        <ele>78</ele>
        <time>2022-11-11T14:31:54Z</time>
      </trkpt>
      <trkpt lat="47.18858" lon="-1.49972">
        <ele>78</ele>
        <time>2022-11-11T14:31:56Z</time>
      </trkpt>
      <trkpt lat="47.18859" lon="-1.49993">
        <ele>78</ele>
        <time>2022-11-11T14:31:58Z</time>
      </trkpt>
      <trkpt lat="47.1886" lon="-1.50012">
        <ele>78</ele>
        <time>2022-11-11T14:32:00Z</time>
      </trkpt>
      <trkpt lat="47.18862" lon="-1.5003">
        <ele>77</ele>
        <time>2022-11-11T14:32:02Z</time>
      </trkpt>
      <trkpt lat="47.18863" lon="-1.50044">
        <ele>76</ele>
        <time>2022-11-11T14:32:04Z</time>
      </trkpt>
      <trkpt lat="47.18864" lon="-1.50059">
        <ele>76</ele>
        <time>2022-11-11T14:32:07Z</time>
      </trkpt>
      <trkpt lat="47.18865" lon="-1.50073">
        <ele>76</ele>
        <time>2022-11-11T14:32:09Z</time>
      </trkpt>
      <trkpt lat="47.18866" lon="-1.5009">
        <ele>75</ele>
        <time>2022-11-11T14:32:11Z</time>
      </trkpt>
      <trkpt lat="47.18867" lon="-1.50108">
        <ele>76</ele>
        <time>2022-11-11T14:32:13Z</time>
      </trkpt>
      <trkpt lat="47.18868" lon="-1.50126">
        <ele>76</ele>
        <time>2022-11-11T14:32:15Z</time>
      </trkpt>
      <trkpt lat="47.1887" lon="-1.50145">
        <ele>76</ele>
        <time>2022-11-11T14:32:17Z</time>
      </trkpt>
      <trkpt lat="47.18871" lon="-1.50163">
        <ele>76</ele>
        <time>2022-11-11T14:32:19Z</time>
      </trkpt>
      <trkpt lat="47.18872" lon="-1.50182">
        <ele>76</ele>
        <time>2022-11-11T14:32:21Z</time>
      </trkpt>
      <trkpt lat="47.18873" lon="-1.502">
        <ele>76</ele>
        <time>2022-11-11T14:32:23Z</time>
      </trkpt>
      <trkpt lat="47.18874" lon="-1.50218">
        <ele>76</ele>
        <time>2022-11-11T14:32:25Z</time>
      </trkpt>
      <trkpt lat="47.18876" lon="-1.50237">
        <ele>76</ele>
        <time>2022-11-11T14:32:27Z</time>
      </trkpt>
      <trkpt lat="47.18877" lon="-1.50256">
        <ele>76</ele>
        <time>2022-11-11T14:32:29Z</time>
      </trkpt>
      <trkpt lat="47.18879" lon="-1.50274">
        <ele>77</ele>
        <time>2022-11-11T14:32:31Z</time>
      </trkpt>
      <trkpt lat="47.18881" lon="-1.50293">
        <ele>77</ele>
        <time>2022-11-11T14:32:33Z</time>
      </trkpt>
      <trkpt lat="47.18881" lon="-1.50311">
        <ele>77</ele>
        <time>2022-11-11T14:32:35Z</time>
      </trkpt>
      <trkpt lat="47.18883" lon="-1.50329">
        <ele>77</ele>
        <time>2022-11-11T14:32:37Z</time>
      </trkpt>
      <trkpt lat="47.18884" lon="-1.50348">
        <ele>77</ele>
        <time>2022-11-11T14:32:39Z</time>
      </trkpt>
      <trkpt lat="47.18885" lon="-1.50364">
        <ele>77</ele>
        <time>2022-11-11T14:32:41Z</time>
      </trkpt>
      <trkpt lat="47.18884" lon="-1.50378">
        <ele>76</ele>
        <time>2022-11-11T14:32:43Z</time>
      </trkpt>
      <trkpt lat="47.18885" lon="-1.50391">
        <ele>76</ele>
        <time>2022-11-11T14:32:46Z</time>
      </trkpt>
      <trkpt lat="47.18886" lon="-1.50406">
        <ele>76</ele>
        <time>2022-11-11T14:32:52Z</time>
      </trkpt>
      <trkpt lat="47.18886" lon="-1.5042">
        <ele>75</ele>
        <time>2022-11-11T14:33:08Z</time>
      </trkpt>
      <trkpt lat="47.18887" lon="-1.50436">
        <ele>76</ele>
        <time>2022-11-11T14:33:10Z</time>
      </trkpt>
      <trkpt lat="47.18888" lon="-1.50453">
        <ele>76</ele>
        <time>2022-11-11T14:33:12Z</time>
      </trkpt>
      <trkpt lat="47.18889" lon="-1.5047">
        <ele>76</ele>
        <time>2022-11-11T14:33:14Z</time>
      </trkpt>
      <trkpt lat="47.1889" lon="-1.50487">
        <ele>76</ele>
        <time>2022-11-11T14:33:16Z</time>
      </trkpt>
      <trkpt lat="47.18892" lon="-1.50505">
        <ele>75</ele>
        <time>2022-11-11T14:33:18Z</time>
      </trkpt>
      <trkpt lat="47.18893" lon="-1.50523">
        <ele>75</ele>
        <time>2022-11-11T14:33:20Z</time>
      </trkpt>
      <trkpt lat="47.18894" lon="-1.5054">
        <ele>75</ele>
        <time>2022-11-11T14:33:22Z</time>
      </trkpt>
      <trkpt lat="47.18894" lon="-1.50558">
        <ele>74</ele>
        <time>2022-11-11T14:33:24Z</time>
      </trkpt>
      <trkpt lat="47.18895" lon="-1.50577">
        <ele>74</ele>
        <time>2022-11-11T14:33:26Z</time>
      </trkpt>
      <trkpt lat="47.18896" lon="-1.50594">
        <ele>74</ele>
        <time>2022-11-11T14:33:28Z</time>
      </trkpt>
      <trkpt lat="47.18897" lon="-1.50612">
        <ele>74</ele>
        <time>2022-11-11T14:33:30Z</time>
      </trkpt>
      <trkpt lat="47.18898" lon="-1.50631">
        <ele>74</ele>
        <time>2022-11-11T14:33:32Z</time>
      </trkpt>
      <trkpt lat="47.189" lon="-1.5065">
        <ele>75</ele>
        <time>2022-11-11T14:33:34Z</time>
      </trkpt>
      <trkpt lat="47.18901" lon="-1.50669">
        <ele>75</ele>
        <time>2022-11-11T14:33:36Z</time>
      </trkpt>
      <trkpt lat="47.18902" lon="-1.50688">
        <ele>75</ele>
        <time>2022-11-11T14:33:38Z</time>
      </trkpt>
      <trkpt lat="47.18903" lon="-1.50706">
        <ele>75</ele>
        <time>2022-11-11T14:33:40Z</time>
      </trkpt>
      <trkpt lat="47.18904" lon="-1.50723">
        <ele>75</ele>
        <time>2022-11-11T14:33:42Z</time>
      </trkpt>
      <trkpt lat="47.18906" lon="-1.50741">
        <ele>75</ele>
        <time>2022-11-11T14:33:44Z</time>
      </trkpt>
      <trkpt lat="47.18907" lon="-1.50759">
        <ele>75</ele>
        <time>2022-11-11T14:33:46Z</time>
      </trkpt>
      <trkpt lat="47.18908" lon="-1.50777">
        <ele>75</ele>
        <time>2022-11-11T14:33:48Z</time>
      </trkpt>
      <trkpt lat="47.18909" lon="-1.50794">
        <ele>75</ele>
        <time>2022-11-11T14:33:50Z</time>
      </trkpt>
      <trkpt lat="47.1891" lon="-1.50812">
        <ele>75</ele>
        <time>2022-11-11T14:33:52Z</time>
      </trkpt>
      <trkpt lat="47.18912" lon="-1.5083">
        <ele>75</ele>
        <time>2022-11-11T14:33:54Z</time>
      </trkpt>
      <trkpt lat="47.18913" lon="-1.50847">
        <ele>75</ele>
        <time>2022-11-11T14:33:56Z</time>
      </trkpt>
      <trkpt lat="47.18914" lon="-1.50865">
        <ele>75</ele>
        <time>2022-11-11T14:33:58Z</time>
      </trkpt>
      <trkpt lat="47.18915" lon="-1.50883">
        <ele>75</ele>
        <time>2022-11-11T14:34:00Z</time>
      </trkpt>
      <trkpt lat="47.18917" lon="-1.50901">
        <ele>75</ele>
        <time>2022-11-11T14:34:02Z</time>
      </trkpt>
      <trkpt lat="47.18918" lon="-1.50919">
        <ele>74</ele>
        <time>2022-11-11T14:34:04Z</time>
      </trkpt>
      <trkpt lat="47.18919" lon="-1.50937">
        <ele>74</ele>
        <time>2022-11-11T14:34:06Z</time>
      </trkpt>
      <trkpt lat="47.1892" lon="-1.50954">
        <ele>74</ele>
        <time>2022-11-11T14:34:08Z</time>
      </trkpt>
      <trkpt lat="47.18921" lon="-1.5097">
        <ele>74</ele>
        <time>2022-11-11T14:34:10Z</time>
      </trkpt>
      <trkpt lat="47.18922" lon="-1.50988">
        <ele>74</ele>
        <time>2022-11-11T14:34:12Z</time>
      </trkpt>
      <trkpt lat="47.18924" lon="-1.51006">
        <ele>74</ele>
        <time>2022-11-11T14:34:14Z</time>
      </trkpt>
      <trkpt lat="47.18925" lon="-1.51025">
        <ele>73</ele>
        <time>2022-11-11T14:34:16Z</time>
      </trkpt>
      <trkpt lat="47.18926" lon="-1.51044">
        <ele>73</ele>
        <time>2022-11-11T14:34:18Z</time>
      </trkpt>
      <trkpt lat="47.18927" lon="-1.51063">
        <ele>73</ele>
        <time>2022-11-11T14:34:20Z</time>
      </trkpt>
      <trkpt lat="47.18929" lon="-1.51083">
        <ele>73</ele>
        <time>2022-11-11T14:34:22Z</time>
      </trkpt>
      <trkpt lat="47.1893" lon="-1.51102">
        <ele>73</ele>
        <time>2022-11-11T14:34:24Z</time>
      </trkpt>
      <trkpt lat="47.18931" lon="-1.51121">
        <ele>73</ele>
        <time>2022-11-11T14:34:26Z</time>
      </trkpt>
      <trkpt lat="47.18932" lon="-1.5114">
        <ele>73</ele>
        <time>2022-11-11T14:34:28Z</time>
      </trkpt>
      <trkpt lat="47.18933" lon="-1.51159">
        <ele>72</ele>
        <time>2022-11-11T14:34:30Z</time>
      </trkpt>
      <trkpt lat="47.18934" lon="-1.51179">
        <ele>73</ele>
        <time>2022-11-11T14:34:32Z</time>
      </trkpt>
      <trkpt lat="47.18935" lon="-1.51198">
        <ele>73</ele>
        <time>2022-11-11T14:34:34Z</time>
      </trkpt>
      <trkpt lat="47.18936" lon="-1.51217">
        <ele>73</ele>
        <time>2022-11-11T14:34:36Z</time>
      </trkpt>
      <trkpt lat="47.18938" lon="-1.51236">
        <ele>73</ele>
        <time>2022-11-11T14:34:38Z</time>
      </trkpt>
      <trkpt lat="47.18939" lon="-1.51255">
        <ele>73</ele>
        <time>2022-11-11T14:34:40Z</time>
      </trkpt>
      <trkpt lat="47.1894" lon="-1.51275">
        <ele>73</ele>
        <time>2022-11-11T14:34:42Z</time>
      </trkpt>
      <trkpt lat="47.18941" lon="-1.51294">
        <ele>73</ele>
        <time>2022-11-11T14:34:44Z</time>
      </trkpt>
      <trkpt lat="47.18943" lon="-1.51314">
        <ele>73</ele>
        <time>2022-11-11T14:34:46Z</time>
      </trkpt>
      <trkpt lat="47.18944" lon="-1.51334">
        <ele>73</ele>
        <time>2022-11-11T14:34:48Z</time>
      </trkpt>
      <trkpt lat="47.18945" lon="-1.51353">
        <ele>73</ele>
        <time>2022-11-11T14:34:50Z</time>
      </trkpt>
      <trkpt lat="47.18946" lon="-1.51372">
        <ele>74</ele>
        <time>2022-11-11T14:34:52Z</time>
      </trkpt>
      <trkpt lat="47.18948" lon="-1.5139">
        <ele>74</ele>
        <time>2022-11-11T14:34:54Z</time>
      </trkpt>
      <trkpt lat="47.1895" lon="-1.5141">
        <ele>73</ele>
        <time>2022-11-11T14:34:56Z</time>
      </trkpt>
      <trkpt lat="47.18951" lon="-1.51429">
        <ele>73</ele>
        <time>2022-11-11T14:34:58Z</time>
      </trkpt>
      <trkpt lat="47.18952" lon="-1.51448">
        <ele>73</ele>
        <time>2022-11-11T14:35:00Z</time>
      </trkpt>
      <trkpt lat="47.18955" lon="-1.51467">
        <ele>73</ele>
        <time>2022-11-11T14:35:02Z</time>
      </trkpt>
      <trkpt lat="47.18957" lon="-1.51486">
        <ele>73</ele>
        <time>2022-11-11T14:35:04Z</time>
      </trkpt>
      <trkpt lat="47.18958" lon="-1.51505">
        <ele>73</ele>
        <time>2022-11-11T14:35:06Z</time>
      </trkpt>
      <trkpt lat="47.1896" lon="-1.51524">
        <ele>74</ele>
        <time>2022-11-11T14:35:08Z</time>
      </trkpt>
      <trkpt lat="47.18962" lon="-1.51543">
        <ele>75</ele>
        <time>2022-11-11T14:35:10Z</time>
      </trkpt>
      <trkpt lat="47.18963" lon="-1.51563">
        <ele>76</ele>
        <time>2022-11-11T14:35:12Z</time>
      </trkpt>
      <trkpt lat="47.18963" lon="-1.51583">
        <ele>75</ele>
        <time>2022-11-11T14:35:14Z</time>
      </trkpt>
      <trkpt lat="47.18963" lon="-1.51603">
        <ele>75</ele>
        <time>2022-11-11T14:35:16Z</time>
      </trkpt>
      <trkpt lat="47.18965" lon="-1.51622">
        <ele>74</ele>
        <time>2022-11-11T14:35:18Z</time>
      </trkpt>
      <trkpt lat="47.18966" lon="-1.51641">
        <ele>73</ele>
        <time>2022-11-11T14:35:20Z</time>
      </trkpt>
      <trkpt lat="47.18968" lon="-1.51659">
        <ele>73</ele>
        <time>2022-11-11T14:35:22Z</time>
      </trkpt>
      <trkpt lat="47.1897" lon="-1.51678">
        <ele>73</ele>
        <time>2022-11-11T14:35:24Z</time>
      </trkpt>
      <trkpt lat="47.18972" lon="-1.51696">
        <ele>73</ele>
        <time>2022-11-11T14:35:26Z</time>
      </trkpt>
      <trkpt lat="47.18973" lon="-1.51715">
        <ele>73</ele>
        <time>2022-11-11T14:35:28Z</time>
      </trkpt>
      <trkpt lat="47.18975" lon="-1.51734">
        <ele>72</ele>
        <time>2022-11-11T14:35:30Z</time>
      </trkpt>
      <trkpt lat="47.18975" lon="-1.51752">
        <ele>72</ele>
        <time>2022-11-11T14:35:32Z</time>
      </trkpt>
      <trkpt lat="47.18974" lon="-1.51769">
        <ele>73</ele>
        <time>2022-11-11T14:35:34Z</time>
      </trkpt>
      <trkpt lat="47.18975" lon="-1.51787">
        <ele>73</ele>
        <time>2022-11-11T14:35:36Z</time>
      </trkpt>
      <trkpt lat="47.18975" lon="-1.51805">
        <ele>73</ele>
        <time>2022-11-11T14:35:38Z</time>
      </trkpt>
      <trkpt lat="47.18976" lon="-1.51823">
        <ele>73</ele>
        <time>2022-11-11T14:35:40Z</time>
      </trkpt>
      <trkpt lat="47.18979" lon="-1.51841">
        <ele>73</ele>
        <time>2022-11-11T14:35:42Z</time>
      </trkpt>
      <trkpt lat="47.18982" lon="-1.51859">
        <ele>73</ele>
        <time>2022-11-11T14:35:44Z</time>
      </trkpt>
      <trkpt lat="47.18986" lon="-1.51876">
        <ele>74</ele>
        <time>2022-11-11T14:35:46Z</time>
      </trkpt>
      <trkpt lat="47.18989" lon="-1.51893">
        <ele>74</ele>
        <time>2022-11-11T14:35:48Z</time>
      </trkpt>
      <trkpt lat="47.18993" lon="-1.51911">
        <ele>74</ele>
        <time>2022-11-11T14:35:50Z</time>
      </trkpt>
      <trkpt lat="47.18997" lon="-1.51929">
        <ele>74</ele>
        <time>2022-11-11T14:35:52Z</time>
      </trkpt>
      <trkpt lat="47.19002" lon="-1.51947">
        <ele>74</ele>
        <time>2022-11-11T14:35:54Z</time>
      </trkpt>
      <trkpt lat="47.19007" lon="-1.51964">
        <ele>74</ele>
        <time>2022-11-11T14:35:56Z</time>
      </trkpt>
      <trkpt lat="47.19012" lon="-1.51982">
        <ele>74</ele>
        <time>2022-11-11T14:35:58Z</time>
      </trkpt>
      <trkpt lat="47.19018" lon="-1.51999">
        <ele>73</ele>
        <time>2022-11-11T14:36:00Z</time>
      </trkpt>
      <trkpt lat="47.19023" lon="-1.52016">
        <ele>73</ele>
        <time>2022-11-11T14:36:02Z</time>
      </trkpt>
      <trkpt lat="47.19029" lon="-1.52034">
        <ele>73</ele>
        <time>2022-11-11T14:36:04Z</time>
      </trkpt>
      <trkpt lat="47.19035" lon="-1.52051">
        <ele>73</ele>
        <time>2022-11-11T14:36:06Z</time>
      </trkpt>
      <trkpt lat="47.19041" lon="-1.52068">
        <ele>73</ele>
        <time>2022-11-11T14:36:08Z</time>
      </trkpt>
      <trkpt lat="47.19047" lon="-1.52085">
        <ele>73</ele>
        <time>2022-11-11T14:36:10Z</time>
      </trkpt>
      <trkpt lat="47.19054" lon="-1.52102">
        <ele>72</ele>
        <time>2022-11-11T14:36:12Z</time>
      </trkpt>
      <trkpt lat="47.1906" lon="-1.52119">
        <ele>72</ele>
        <time>2022-11-11T14:36:14Z</time>
      </trkpt>
      <trkpt lat="47.19066" lon="-1.52137">
        <ele>72</ele>
        <time>2022-11-11T14:36:16Z</time>
      </trkpt>
      <trkpt lat="47.19072" lon="-1.52156">
        <ele>72</ele>
        <time>2022-11-11T14:36:18Z</time>
      </trkpt>
      <trkpt lat="47.19077" lon="-1.52174">
        <ele>72</ele>
        <time>2022-11-11T14:36:20Z</time>
      </trkpt>
      <trkpt lat="47.19083" lon="-1.52193">
        <ele>72</ele>
        <time>2022-11-11T14:36:22Z</time>
      </trkpt>
      <trkpt lat="47.19089" lon="-1.52211">
        <ele>71</ele>
        <time>2022-11-11T14:36:24Z</time>
      </trkpt>
      <trkpt lat="47.19095" lon="-1.52228">
        <ele>71</ele>
        <time>2022-11-11T14:36:26Z</time>
      </trkpt>
      <trkpt lat="47.191" lon="-1.52246">
        <ele>71</ele>
        <time>2022-11-11T14:36:28Z</time>
      </trkpt>
      <trkpt lat="47.19106" lon="-1.52263">
        <ele>71</ele>
        <time>2022-11-11T14:36:30Z</time>
      </trkpt>
      <trkpt lat="47.19112" lon="-1.52279">
        <ele>71</ele>
        <time>2022-11-11T14:36:32Z</time>
      </trkpt>
      <trkpt lat="47.19117" lon="-1.52296">
        <ele>70</ele>
        <time>2022-11-11T14:36:34Z</time>
      </trkpt>
      <trkpt lat="47.19123" lon="-1.52313">
        <ele>70</ele>
        <time>2022-11-11T14:36:36Z</time>
      </trkpt>
      <trkpt lat="47.19128" lon="-1.52329">
        <ele>70</ele>
        <time>2022-11-11T14:36:38Z</time>
      </trkpt>
      <trkpt lat="47.19133" lon="-1.52344">
        <ele>70</ele>
        <time>2022-11-11T14:36:40Z</time>
      </trkpt>
      <trkpt lat="47.19137" lon="-1.52357">
        <ele>70</ele>
        <time>2022-11-11T14:36:42Z</time>
      </trkpt>
      <trkpt lat="47.19143" lon="-1.5237">
        <ele>70</ele>
        <time>2022-11-11T14:36:45Z</time>
      </trkpt>
      <trkpt lat="47.19148" lon="-1.52383">
        <ele>70</ele>
        <time>2022-11-11T14:36:49Z</time>
      </trkpt>
      <trkpt lat="47.19152" lon="-1.52396">
        <ele>70</ele>
        <time>2022-11-11T14:36:57Z</time>
      </trkpt>
      <trkpt lat="47.19156" lon="-1.52409">
        <ele>71</ele>
        <time>2022-11-11T14:37:00Z</time>
      </trkpt>
      <trkpt lat="47.19162" lon="-1.52422">
        <ele>71</ele>
        <time>2022-11-11T14:37:02Z</time>
      </trkpt>
      <trkpt lat="47.19168" lon="-1.5244">
        <ele>71</ele>
        <time>2022-11-11T14:37:04Z</time>
      </trkpt>
      <trkpt lat="47.19173" lon="-1.52458">
        <ele>70</ele>
        <time>2022-11-11T14:37:06Z</time>
      </trkpt>
      <trkpt lat="47.19179" lon="-1.52476">
        <ele>70</ele>
        <time>2022-11-11T14:37:08Z</time>
      </trkpt>
      <trkpt lat="47.19185" lon="-1.52494">
        <ele>70</ele>
        <time>2022-11-11T14:37:10Z</time>
      </trkpt>
      <trkpt lat="47.19191" lon="-1.52512">
        <ele>70</ele>
        <time>2022-11-11T14:37:12Z</time>
      </trkpt>
      <trkpt lat="47.19197" lon="-1.5253">
        <ele>70</ele>
        <time>2022-11-11T14:37:14Z</time>
      </trkpt>
      <trkpt lat="47.19203" lon="-1.52548">
        <ele>69</ele>
        <time>2022-11-11T14:37:16Z</time>
      </trkpt>
      <trkpt lat="47.19209" lon="-1.52565">
        <ele>69</ele>
        <time>2022-11-11T14:37:18Z</time>
      </trkpt>
      <trkpt lat="47.19214" lon="-1.52584">
        <ele>69</ele>
        <time>2022-11-11T14:37:20Z</time>
      </trkpt>
      <trkpt lat="47.1922" lon="-1.52601">
        <ele>69</ele>
        <time>2022-11-11T14:37:22Z</time>
      </trkpt>
      <trkpt lat="47.19226" lon="-1.52619">
        <ele>69</ele>
        <time>2022-11-11T14:37:24Z</time>
      </trkpt>
      <trkpt lat="47.19232" lon="-1.52636">
        <ele>68</ele>
        <time>2022-11-11T14:37:26Z</time>
      </trkpt>
      <trkpt lat="47.19237" lon="-1.52652">
        <ele>68</ele>
        <time>2022-11-11T14:37:28Z</time>
      </trkpt>
      <trkpt lat="47.19243" lon="-1.52668">
        <ele>68</ele>
        <time>2022-11-11T14:37:30Z</time>
      </trkpt>
      <trkpt lat="47.19249" lon="-1.52682">
        <ele>68</ele>
        <time>2022-11-11T14:37:32Z</time>
      </trkpt>
      <trkpt lat="47.19256" lon="-1.52693">
        <ele>67</ele>
        <time>2022-11-11T14:37:34Z</time>
      </trkpt>
      <trkpt lat="47.1926" lon="-1.5271">
        <ele>68</ele>
        <time>2022-11-11T14:37:36Z</time>
      </trkpt>
      <trkpt lat="47.19263" lon="-1.52728">
        <ele>68</ele>
        <time>2022-11-11T14:37:38Z</time>
      </trkpt>
      <trkpt lat="47.1927" lon="-1.52745">
        <ele>68</ele>
        <time>2022-11-11T14:37:40Z</time>
      </trkpt>
      <trkpt lat="47.19276" lon="-1.52763">
        <ele>68</ele>
        <time>2022-11-11T14:37:42Z</time>
      </trkpt>
      <trkpt lat="47.19281" lon="-1.52779">
        <ele>68</ele>
        <time>2022-11-11T14:37:44Z</time>
      </trkpt>
      <trkpt lat="47.19287" lon="-1.52796">
        <ele>68</ele>
        <time>2022-11-11T14:37:46Z</time>
      </trkpt>
      <trkpt lat="47.19293" lon="-1.52812">
        <ele>67</ele>
        <time>2022-11-11T14:37:48Z</time>
      </trkpt>
      <trkpt lat="47.19298" lon="-1.52829">
        <ele>67</ele>
        <time>2022-11-11T14:37:50Z</time>
      </trkpt>
      <trkpt lat="47.19304" lon="-1.52846">
        <ele>66</ele>
        <time>2022-11-11T14:37:52Z</time>
      </trkpt>
      <trkpt lat="47.1931" lon="-1.52864">
        <ele>65</ele>
        <time>2022-11-11T14:37:54Z</time>
      </trkpt>
      <trkpt lat="47.19317" lon="-1.52884">
        <ele>65</ele>
        <time>2022-11-11T14:37:56Z</time>
      </trkpt>
      <trkpt lat="47.19322" lon="-1.52902">
        <ele>66</ele>
        <time>2022-11-11T14:37:58Z</time>
      </trkpt>
      <trkpt lat="47.19328" lon="-1.52922">
        <ele>66</ele>
        <time>2022-11-11T14:38:00Z</time>
      </trkpt>
      <trkpt lat="47.19334" lon="-1.52942">
        <ele>67</ele>
        <time>2022-11-11T14:38:02Z</time>
      </trkpt>
      <trkpt lat="47.19339" lon="-1.52961">
        <ele>67</ele>
        <time>2022-11-11T14:38:04Z</time>
      </trkpt>
      <trkpt lat="47.19346" lon="-1.52979">
        <ele>66</ele>
        <time>2022-11-11T14:38:06Z</time>
      </trkpt>
      <trkpt lat="47.19352" lon="-1.52995">
        <ele>65</ele>
        <time>2022-11-11T14:38:08Z</time>
      </trkpt>
      <trkpt lat="47.19359" lon="-1.53013">
        <ele>65</ele>
        <time>2022-11-11T14:38:10Z</time>
      </trkpt>
      <trkpt lat="47.19365" lon="-1.53031">
        <ele>65</ele>
        <time>2022-11-11T14:38:12Z</time>
      </trkpt>
      <trkpt lat="47.19371" lon="-1.53049">
        <ele>65</ele>
        <time>2022-11-11T14:38:14Z</time>
      </trkpt>
      <trkpt lat="47.19377" lon="-1.53067">
        <ele>65</ele>
        <time>2022-11-11T14:38:16Z</time>
      </trkpt>
      <trkpt lat="47.19382" lon="-1.53084">
        <ele>65</ele>
        <time>2022-11-11T14:38:18Z</time>
      </trkpt>
      <trkpt lat="47.19388" lon="-1.53102">
        <ele>64</ele>
        <time>2022-11-11T14:38:20Z</time>
      </trkpt>
      <trkpt lat="47.19395" lon="-1.53119">
        <ele>64</ele>
        <time>2022-11-11T14:38:22Z</time>
      </trkpt>
      <trkpt lat="47.19401" lon="-1.53137">
        <ele>64</ele>
        <time>2022-11-11T14:38:24Z</time>
      </trkpt>
      <trkpt lat="47.19407" lon="-1.53155">
        <ele>64</ele>
        <time>2022-11-11T14:38:26Z</time>
      </trkpt>
      <trkpt lat="47.19412" lon="-1.53172">
        <ele>64</ele>
        <time>2022-11-11T14:38:28Z</time>
      </trkpt>
      <trkpt lat="47.19418" lon="-1.53189">
        <ele>63</ele>
        <time>2022-11-11T14:38:30Z</time>
      </trkpt>
      <trkpt lat="47.19424" lon="-1.53207">
        <ele>63</ele>
        <time>2022-11-11T14:38:32Z</time>
      </trkpt>
      <trkpt lat="47.1943" lon="-1.53224">
        <ele>63</ele>
        <time>2022-11-11T14:38:34Z</time>
      </trkpt>
      <trkpt lat="47.19436" lon="-1.53242">
        <ele>63</ele>
        <time>2022-11-11T14:38:36Z</time>
      </trkpt>
      <trkpt lat="47.19442" lon="-1.53258">
        <ele>63</ele>
        <time>2022-11-11T14:38:38Z</time>
      </trkpt>
      <trkpt lat="47.19448" lon="-1.53275">
        <ele>63</ele>
        <time>2022-11-11T14:38:40Z</time>
      </trkpt>
      <trkpt lat="47.19454" lon="-1.53291">
        <ele>63</ele>
        <time>2022-11-11T14:38:42Z</time>
      </trkpt>
      <trkpt lat="47.1946" lon="-1.53308">
        <ele>63</ele>
        <time>2022-11-11T14:38:44Z</time>
      </trkpt>
      <trkpt lat="47.19466" lon="-1.53325">
        <ele>64</ele>
        <time>2022-11-11T14:38:46Z</time>
      </trkpt>
      <trkpt lat="47.19472" lon="-1.53342">
        <ele>64</ele>
        <time>2022-11-11T14:38:48Z</time>
      </trkpt>
      <trkpt lat="47.19479" lon="-1.53361">
        <ele>63</ele>
        <time>2022-11-11T14:38:50Z</time>
      </trkpt>
      <trkpt lat="47.19486" lon="-1.53378">
        <ele>63</ele>
        <time>2022-11-11T14:38:52Z</time>
      </trkpt>
      <trkpt lat="47.19494" lon="-1.53397">
        <ele>63</ele>
        <time>2022-11-11T14:38:54Z</time>
      </trkpt>
      <trkpt lat="47.19501" lon="-1.53415">
        <ele>63</ele>
        <time>2022-11-11T14:38:56Z</time>
      </trkpt>
      <trkpt lat="47.19508" lon="-1.53434">
        <ele>63</ele>
        <time>2022-11-11T14:38:58Z</time>
      </trkpt>
      <trkpt lat="47.19515" lon="-1.53453">
        <ele>64</ele>
        <time>2022-11-11T14:39:00Z</time>
      </trkpt>
      <trkpt lat="47.19521" lon="-1.5347">
        <ele>64</ele>
        <time>2022-11-11T14:39:02Z</time>
      </trkpt>
      <trkpt lat="47.19528" lon="-1.53488">
        <ele>64</ele>
        <time>2022-11-11T14:39:04Z</time>
      </trkpt>
      <trkpt lat="47.19534" lon="-1.53505">
        <ele>64</ele>
        <time>2022-11-11T14:39:06Z</time>
      </trkpt>
      <trkpt lat="47.19539" lon="-1.53521">
        <ele>64</ele>
        <time>2022-11-11T14:39:08Z</time>
      </trkpt>
      <trkpt lat="47.19544" lon="-1.53537">
        <ele>64</ele>
        <time>2022-11-11T14:39:10Z</time>
      </trkpt>
      <trkpt lat="47.19548" lon="-1.53551">
        <ele>65</ele>
        <time>2022-11-11T14:39:12Z</time>
      </trkpt>
      <trkpt lat="47.19553" lon="-1.53564">
        <ele>65</ele>
        <time>2022-11-11T14:39:14Z</time>
      </trkpt>
      <trkpt lat="47.19557" lon="-1.53576">
        <ele>65</ele>
        <time>2022-11-11T14:39:16Z</time>
      </trkpt>
      <trkpt lat="47.19561" lon="-1.53591">
        <ele>66</ele>
        <time>2022-11-11T14:39:19Z</time>
      </trkpt>
      <trkpt lat="47.19567" lon="-1.53609">
        <ele>65</ele>
        <time>2022-11-11T14:39:22Z</time>
      </trkpt>
      <trkpt lat="47.19571" lon="-1.53623">
        <ele>65</ele>
        <time>2022-11-11T14:39:24Z</time>
      </trkpt>
      <trkpt lat="47.19575" lon="-1.5364">
        <ele>66</ele>
        <time>2022-11-11T14:39:26Z</time>
      </trkpt>
      <trkpt lat="47.19581" lon="-1.53655">
        <ele>66</ele>
        <time>2022-11-11T14:39:28Z</time>
      </trkpt>
      <trkpt lat="47.19587" lon="-1.53672">
        <ele>66</ele>
        <time>2022-11-11T14:39:30Z</time>
      </trkpt>
      <trkpt lat="47.19592" lon="-1.5369">
        <ele>64</ele>
        <time>2022-11-11T14:39:32Z</time>
      </trkpt>
      <trkpt lat="47.19596" lon="-1.53708">
        <ele>64</ele>
        <time>2022-11-11T14:39:34Z</time>
      </trkpt>
      <trkpt lat="47.19599" lon="-1.53726">
        <ele>65</ele>
        <time>2022-11-11T14:39:36Z</time>
      </trkpt>
      <trkpt lat="47.19604" lon="-1.53744">
        <ele>65</ele>
        <time>2022-11-11T14:39:38Z</time>
      </trkpt>
      <trkpt lat="47.1961" lon="-1.53759">
        <ele>65</ele>
        <time>2022-11-11T14:39:40Z</time>
      </trkpt>
      <trkpt lat="47.19615" lon="-1.53776">
        <ele>65</ele>
        <time>2022-11-11T14:39:42Z</time>
      </trkpt>
      <trkpt lat="47.1962" lon="-1.53793">
        <ele>65</ele>
        <time>2022-11-11T14:39:44Z</time>
      </trkpt>
      <trkpt lat="47.19627" lon="-1.53811">
        <ele>65</ele>
        <time>2022-11-11T14:39:46Z</time>
      </trkpt>
      <trkpt lat="47.19633" lon="-1.53828">
        <ele>65</ele>
        <time>2022-11-11T14:39:48Z</time>
      </trkpt>
      <trkpt lat="47.19638" lon="-1.53846">
        <ele>64</ele>
        <time>2022-11-11T14:39:50Z</time>
      </trkpt>
      <trkpt lat="47.19646" lon="-1.53861">
        <ele>64</ele>
        <time>2022-11-11T14:39:52Z</time>
      </trkpt>
      <trkpt lat="47.19653" lon="-1.53876">
        <ele>64</ele>
        <time>2022-11-11T14:39:54Z</time>
      </trkpt>
      <trkpt lat="47.19661" lon="-1.53891">
        <ele>63</ele>
        <time>2022-11-11T14:39:56Z</time>
      </trkpt>
      <trkpt lat="47.19668" lon="-1.53907">
        <ele>63</ele>
        <time>2022-11-11T14:39:58Z</time>
      </trkpt>
      <trkpt lat="47.19675" lon="-1.53922">
        <ele>63</ele>
        <time>2022-11-11T14:40:00Z</time>
      </trkpt>
      <trkpt lat="47.19681" lon="-1.53938">
        <ele>63</ele>
        <time>2022-11-11T14:40:02Z</time>
      </trkpt>
      <trkpt lat="47.19687" lon="-1.53953">
        <ele>64</ele>
        <time>2022-11-11T14:40:04Z</time>
      </trkpt>
      <trkpt lat="47.19693" lon="-1.53968">
        <ele>64</ele>
        <time>2022-11-11T14:40:06Z</time>
      </trkpt>
      <trkpt lat="47.197" lon="-1.53983">
        <ele>64</ele>
        <time>2022-11-11T14:40:08Z</time>
      </trkpt>
      <trkpt lat="47.19707" lon="-1.53998">
        <ele>64</ele>
        <time>2022-11-11T14:40:10Z</time>
      </trkpt>
      <trkpt lat="47.19714" lon="-1.54014">
        <ele>63</ele>
        <time>2022-11-11T14:40:12Z</time>
      </trkpt>
      <trkpt lat="47.1972" lon="-1.5403">
        <ele>62</ele>
        <time>2022-11-11T14:40:14Z</time>
      </trkpt>
      <trkpt lat="47.19728" lon="-1.54045">
        <ele>62</ele>
        <time>2022-11-11T14:40:16Z</time>
      </trkpt>
      <trkpt lat="47.19736" lon="-1.5406">
        <ele>62</ele>
        <time>2022-11-11T14:40:18Z</time>
      </trkpt>
      <trkpt lat="47.19744" lon="-1.54074">
        <ele>62</ele>
        <time>2022-11-11T14:40:20Z</time>
      </trkpt>
      <trkpt lat="47.19753" lon="-1.54087">
        <ele>61</ele>
        <time>2022-11-11T14:40:22Z</time>
      </trkpt>
      <trkpt lat="47.19763" lon="-1.54097">
        <ele>60</ele>
        <time>2022-11-11T14:40:24Z</time>
      </trkpt>
      <trkpt lat="47.19774" lon="-1.54103">
        <ele>60</ele>
        <time>2022-11-11T14:40:26Z</time>
      </trkpt>
      <trkpt lat="47.19783" lon="-1.54108">
        <ele>59</ele>
        <time>2022-11-11T14:40:28Z</time>
      </trkpt>
      <trkpt lat="47.19793" lon="-1.54116">
        <ele>59</ele>
        <time>2022-11-11T14:40:31Z</time>
      </trkpt>
      <trkpt lat="47.19806" lon="-1.54115">
        <ele>59</ele>
        <time>2022-11-11T14:40:34Z</time>
      </trkpt>
      <trkpt lat="47.19818" lon="-1.5412">
        <ele>58</ele>
        <time>2022-11-11T14:40:36Z</time>
      </trkpt>
      <trkpt lat="47.19822" lon="-1.54138">
        <ele>57</ele>
        <time>2022-11-11T14:40:38Z</time>
      </trkpt>
      <trkpt lat="47.19818" lon="-1.54153">
        <ele>58</ele>
        <time>2022-11-11T14:40:40Z</time>
      </trkpt>
      <trkpt lat="47.19813" lon="-1.54164">
        <ele>58</ele>
        <time>2022-11-11T14:40:42Z</time>
      </trkpt>
      <trkpt lat="47.19806" lon="-1.54178">
        <ele>58</ele>
        <time>2022-11-11T14:40:45Z</time>
      </trkpt>
      <trkpt lat="47.19802" lon="-1.54192">
        <ele>58</ele>
        <time>2022-11-11T14:40:50Z</time>
      </trkpt>
      <trkpt lat="47.19796" lon="-1.54207">
        <ele>58</ele>
        <time>2022-11-11T14:42:13Z</time>
      </trkpt>
      <trkpt lat="47.19792" lon="-1.54219">
        <ele>58</ele>
        <time>2022-11-11T14:42:15Z</time>
      </trkpt>
      <trkpt lat="47.19785" lon="-1.54235">
        <ele>57</ele>
        <time>2022-11-11T14:42:17Z</time>
      </trkpt>
      <trkpt lat="47.19777" lon="-1.54252">
        <ele>56</ele>
        <time>2022-11-11T14:42:19Z</time>
      </trkpt>
      <trkpt lat="47.19766" lon="-1.54266">
        <ele>55</ele>
        <time>2022-11-11T14:42:21Z</time>
      </trkpt>
      <trkpt lat="47.19753" lon="-1.54282">
        <ele>55</ele>
        <time>2022-11-11T14:42:23Z</time>
      </trkpt>
      <trkpt lat="47.19745" lon="-1.5429">
        <ele>54</ele>
        <time>2022-11-11T14:42:24Z</time>
      </trkpt>
      <trkpt lat="47.19738" lon="-1.54299">
        <ele>54</ele>
        <time>2022-11-11T14:42:25Z</time>
      </trkpt>
      <trkpt lat="47.1973" lon="-1.54306">
        <ele>53</ele>
        <time>2022-11-11T14:42:26Z</time>
      </trkpt>
      <trkpt lat="47.19721" lon="-1.54314">
        <ele>53</ele>
        <time>2022-11-11T14:42:27Z</time>
      </trkpt>
      <trkpt lat="47.19712" lon="-1.54321">
        <ele>53</ele>
        <time>2022-11-11T14:42:28Z</time>
      </trkpt>
      <trkpt lat="47.19703" lon="-1.54328">
        <ele>53</ele>
        <time>2022-11-11T14:42:29Z</time>
      </trkpt>
      <trkpt lat="47.19695" lon="-1.54336">
        <ele>53</ele>
        <time>2022-11-11T14:42:30Z</time>
      </trkpt>
      <trkpt lat="47.19686" lon="-1.54342">
        <ele>53</ele>
        <time>2022-11-11T14:42:31Z</time>
      </trkpt>
      <trkpt lat="47.19677" lon="-1.54349">
        <ele>53</ele>
        <time>2022-11-11T14:42:32Z</time>
      </trkpt>
      <trkpt lat="47.19669" lon="-1.54355">
        <ele>53</ele>
        <time>2022-11-11T14:42:33Z</time>
      </trkpt>
      <trkpt lat="47.1966" lon="-1.54362">
        <ele>53</ele>
        <time>2022-11-11T14:42:34Z</time>
      </trkpt>
      <trkpt lat="47.19652" lon="-1.54369">
        <ele>53</ele>
        <time>2022-11-11T14:42:35Z</time>
      </trkpt>
      <trkpt lat="47.19644" lon="-1.54375">
        <ele>53</ele>
        <time>2022-11-11T14:42:36Z</time>
      </trkpt>
      <trkpt lat="47.19636" lon="-1.54382">
        <ele>53</ele>
        <time>2022-11-11T14:42:37Z</time>
      </trkpt>
      <trkpt lat="47.19621" lon="-1.54396">
        <ele>53</ele>
        <time>2022-11-11T14:42:39Z</time>
      </trkpt>
      <trkpt lat="47.19608" lon="-1.5441">
        <ele>54</ele>
        <time>2022-11-11T14:42:41Z</time>
      </trkpt>
      <trkpt lat="47.19595" lon="-1.54423">
        <ele>54</ele>
        <time>2022-11-11T14:42:43Z</time>
      </trkpt>
      <trkpt lat="47.19581" lon="-1.54436">
        <ele>54</ele>
        <time>2022-11-11T14:42:45Z</time>
      </trkpt>
      <trkpt lat="47.19568" lon="-1.54449">
        <ele>55</ele>
        <time>2022-11-11T14:42:47Z</time>
      </trkpt>
      <trkpt lat="47.19554" lon="-1.54462">
        <ele>55</ele>
        <time>2022-11-11T14:42:49Z</time>
      </trkpt>
      <trkpt lat="47.19541" lon="-1.54475">
        <ele>56</ele>
        <time>2022-11-11T14:42:51Z</time>
      </trkpt>
      <trkpt lat="47.19529" lon="-1.54487">
        <ele>55</ele>
        <time>2022-11-11T14:42:53Z</time>
      </trkpt>
      <trkpt lat="47.19516" lon="-1.54499">
        <ele>55</ele>
        <time>2022-11-11T14:42:55Z</time>
      </trkpt>
      <trkpt lat="47.19503" lon="-1.54509">
        <ele>55</ele>
        <time>2022-11-11T14:42:57Z</time>
      </trkpt>
      <trkpt lat="47.1949" lon="-1.5452">
        <ele>54</ele>
        <time>2022-11-11T14:42:59Z</time>
      </trkpt>
      <trkpt lat="47.19479" lon="-1.54534">
        <ele>54</ele>
        <time>2022-11-11T14:43:01Z</time>
      </trkpt>
      <trkpt lat="47.19473" lon="-1.54554">
        <ele>54</ele>
        <time>2022-11-11T14:43:03Z</time>
      </trkpt>
      <trkpt lat="47.19469" lon="-1.54572">
        <ele>54</ele>
        <time>2022-11-11T14:43:05Z</time>
      </trkpt>
      <trkpt lat="47.19473" lon="-1.5459">
        <ele>54</ele>
        <time>2022-11-11T14:43:07Z</time>
      </trkpt>
      <trkpt lat="47.1947" lon="-1.54609">
        <ele>54</ele>
        <time>2022-11-11T14:43:09Z</time>
      </trkpt>
      <trkpt lat="47.19462" lon="-1.54625">
        <ele>55</ele>
        <time>2022-11-11T14:43:11Z</time>
      </trkpt>
      <trkpt lat="47.19449" lon="-1.54634">
        <ele>55</ele>
        <time>2022-11-11T14:43:13Z</time>
      </trkpt>
      <trkpt lat="47.19443" lon="-1.54649">
        <ele>56</ele>
        <time>2022-11-11T14:43:15Z</time>
      </trkpt>
      <trkpt lat="47.19438" lon="-1.54669">
        <ele>56</ele>
        <time>2022-11-11T14:43:17Z</time>
      </trkpt>
      <trkpt lat="47.19434" lon="-1.5469">
        <ele>57</ele>
        <time>2022-11-11T14:43:19Z</time>
      </trkpt>
      <trkpt lat="47.19427" lon="-1.54708">
        <ele>59</ele>
        <time>2022-11-11T14:43:21Z</time>
      </trkpt>
      <trkpt lat="47.19421" lon="-1.54727">
        <ele>60</ele>
        <time>2022-11-11T14:43:23Z</time>
      </trkpt>
      <trkpt lat="47.19415" lon="-1.54746">
        <ele>60</ele>
        <time>2022-11-11T14:43:25Z</time>
      </trkpt>
      <trkpt lat="47.1941" lon="-1.54765">
        <ele>60</ele>
        <time>2022-11-11T14:43:27Z</time>
      </trkpt>
      <trkpt lat="47.19406" lon="-1.54784">
        <ele>60</ele>
        <time>2022-11-11T14:43:29Z</time>
      </trkpt>
      <trkpt lat="47.19402" lon="-1.54802">
        <ele>62</ele>
        <time>2022-11-11T14:43:31Z</time>
      </trkpt>
      <trkpt lat="47.19397" lon="-1.5482">
        <ele>62</ele>
        <time>2022-11-11T14:43:33Z</time>
      </trkpt>
      <trkpt lat="47.19393" lon="-1.54839">
        <ele>64</ele>
        <time>2022-11-11T14:43:35Z</time>
      </trkpt>
      <trkpt lat="47.19388" lon="-1.54856">
        <ele>64</ele>
        <time>2022-11-11T14:43:37Z</time>
      </trkpt>
      <trkpt lat="47.19384" lon="-1.54875">
        <ele>64</ele>
        <time>2022-11-11T14:43:39Z</time>
      </trkpt>
      <trkpt lat="47.1938" lon="-1.54894">
        <ele>65</ele>
        <time>2022-11-11T14:43:41Z</time>
      </trkpt>
      <trkpt lat="47.19376" lon="-1.54912">
        <ele>65</ele>
        <time>2022-11-11T14:43:43Z</time>
      </trkpt>
      <trkpt lat="47.19371" lon="-1.5493">
        <ele>64</ele>
        <time>2022-11-11T14:43:45Z</time>
      </trkpt>
      <trkpt lat="47.19367" lon="-1.54947">
        <ele>63</ele>
        <time>2022-11-11T14:43:47Z</time>
      </trkpt>
      <trkpt lat="47.19363" lon="-1.54965">
        <ele>63</ele>
        <time>2022-11-11T14:43:49Z</time>
      </trkpt>
      <trkpt lat="47.19358" lon="-1.54984">
        <ele>63</ele>
        <time>2022-11-11T14:43:51Z</time>
      </trkpt>
      <trkpt lat="47.19354" lon="-1.55002">
        <ele>62</ele>
        <time>2022-11-11T14:43:53Z</time>
      </trkpt>
      <trkpt lat="47.19349" lon="-1.55021">
        <ele>61</ele>
        <time>2022-11-11T14:43:55Z</time>
      </trkpt>
      <trkpt lat="47.19344" lon="-1.55041">
        <ele>60</ele>
        <time>2022-11-11T14:43:57Z</time>
      </trkpt>
      <trkpt lat="47.19339" lon="-1.55061">
        <ele>59</ele>
        <time>2022-11-11T14:43:59Z</time>
      </trkpt>
      <trkpt lat="47.19334" lon="-1.55081">
        <ele>58</ele>
        <time>2022-11-11T14:44:01Z</time>
      </trkpt>
      <trkpt lat="47.19329" lon="-1.55103">
        <ele>58</ele>
        <time>2022-11-11T14:44:03Z</time>
      </trkpt>
      <trkpt lat="47.19323" lon="-1.55125">
        <ele>57</ele>
        <time>2022-11-11T14:44:05Z</time>
      </trkpt>
      <trkpt lat="47.19318" lon="-1.55146">
        <ele>56</ele>
        <time>2022-11-11T14:44:07Z</time>
      </trkpt>
      <trkpt lat="47.19312" lon="-1.55169">
        <ele>56</ele>
        <time>2022-11-11T14:44:09Z</time>
      </trkpt>
      <trkpt lat="47.19306" lon="-1.55192">
        <ele>55</ele>
        <time>2022-11-11T14:44:11Z</time>
      </trkpt>
      <trkpt lat="47.19301" lon="-1.55215">
        <ele>55</ele>
        <time>2022-11-11T14:44:13Z</time>
      </trkpt>
      <trkpt lat="47.19295" lon="-1.55237">
        <ele>54</ele>
        <time>2022-11-11T14:44:15Z</time>
      </trkpt>
      <trkpt lat="47.1929" lon="-1.5526">
        <ele>54</ele>
        <time>2022-11-11T14:44:17Z</time>
      </trkpt>
      <trkpt lat="47.19284" lon="-1.55282">
        <ele>54</ele>
        <time>2022-11-11T14:44:19Z</time>
      </trkpt>
      <trkpt lat="47.1928" lon="-1.55305">
        <ele>54</ele>
        <time>2022-11-11T14:44:21Z</time>
      </trkpt>
      <trkpt lat="47.19276" lon="-1.55326">
        <ele>54</ele>
        <time>2022-11-11T14:44:23Z</time>
      </trkpt>
      <trkpt lat="47.19271" lon="-1.55347">
        <ele>54</ele>
        <time>2022-11-11T14:44:25Z</time>
      </trkpt>
      <trkpt lat="47.19265" lon="-1.55367">
        <ele>54</ele>
        <time>2022-11-11T14:44:27Z</time>
      </trkpt>
      <trkpt lat="47.19259" lon="-1.55386">
        <ele>54</ele>
        <time>2022-11-11T14:44:29Z</time>
      </trkpt>
      <trkpt lat="47.19254" lon="-1.55404">
        <ele>54</ele>
        <time>2022-11-11T14:44:31Z</time>
      </trkpt>
      <trkpt lat="47.19257" lon="-1.55423">
        <ele>54</ele>
        <time>2022-11-11T14:44:33Z</time>
      </trkpt>
      <trkpt lat="47.19259" lon="-1.55443">
        <ele>54</ele>
        <time>2022-11-11T14:44:35Z</time>
      </trkpt>
      <trkpt lat="47.19252" lon="-1.55462">
        <ele>55</ele>
        <time>2022-11-11T14:44:37Z</time>
      </trkpt>
      <trkpt lat="47.19248" lon="-1.55482">
        <ele>55</ele>
        <time>2022-11-11T14:44:39Z</time>
      </trkpt>
      <trkpt lat="47.19248" lon="-1.55503">
        <ele>55</ele>
        <time>2022-11-11T14:44:41Z</time>
      </trkpt>
      <trkpt lat="47.19246" lon="-1.55524">
        <ele>55</ele>
        <time>2022-11-11T14:44:43Z</time>
      </trkpt>
      <trkpt lat="47.19245" lon="-1.55545">
        <ele>55</ele>
        <time>2022-11-11T14:44:45Z</time>
      </trkpt>
      <trkpt lat="47.19243" lon="-1.55566">
        <ele>56</ele>
        <time>2022-11-11T14:44:47Z</time>
      </trkpt>
      <trkpt lat="47.19241" lon="-1.55588">
        <ele>56</ele>
        <time>2022-11-11T14:44:49Z</time>
      </trkpt>
      <trkpt lat="47.1924" lon="-1.55609">
        <ele>57</ele>
        <time>2022-11-11T14:44:51Z</time>
      </trkpt>
      <trkpt lat="47.19239" lon="-1.5563">
        <ele>57</ele>
        <time>2022-11-11T14:44:53Z</time>
      </trkpt>
      <trkpt lat="47.19238" lon="-1.55651">
        <ele>57</ele>
        <time>2022-11-11T14:44:55Z</time>
      </trkpt>
      <trkpt lat="47.19238" lon="-1.55672">
        <ele>58</ele>
        <time>2022-11-11T14:44:57Z</time>
      </trkpt>
      <trkpt lat="47.19237" lon="-1.55693">
        <ele>58</ele>
        <time>2022-11-11T14:44:59Z</time>
      </trkpt>
      <trkpt lat="47.19237" lon="-1.55714">
        <ele>58</ele>
        <time>2022-11-11T14:45:01Z</time>
      </trkpt>
      <trkpt lat="47.19236" lon="-1.55735">
        <ele>58</ele>
        <time>2022-11-11T14:45:03Z</time>
      </trkpt>
      <trkpt lat="47.19237" lon="-1.55755">
        <ele>58</ele>
        <time>2022-11-11T14:45:05Z</time>
      </trkpt>
      <trkpt lat="47.19236" lon="-1.55777">
        <ele>58</ele>
        <time>2022-11-11T14:45:07Z</time>
      </trkpt>
      <trkpt lat="47.19237" lon="-1.55798">
        <ele>58</ele>
        <time>2022-11-11T14:45:09Z</time>
      </trkpt>
      <trkpt lat="47.19238" lon="-1.55819">
        <ele>58</ele>
        <time>2022-11-11T14:45:11Z</time>
      </trkpt>
      <trkpt lat="47.19239" lon="-1.55841">
        <ele>58</ele>
        <time>2022-11-11T14:45:13Z</time>
      </trkpt>
      <trkpt lat="47.1924" lon="-1.55862">
        <ele>58</ele>
        <time>2022-11-11T14:45:15Z</time>
      </trkpt>
      <trkpt lat="47.19241" lon="-1.55883">
        <ele>57</ele>
        <time>2022-11-11T14:45:17Z</time>
      </trkpt>
      <trkpt lat="47.19242" lon="-1.55903">
        <ele>58</ele>
        <time>2022-11-11T14:45:19Z</time>
      </trkpt>
      <trkpt lat="47.19244" lon="-1.55924">
        <ele>58</ele>
        <time>2022-11-11T14:45:21Z</time>
      </trkpt>
      <trkpt lat="47.19246" lon="-1.55945">
        <ele>58</ele>
        <time>2022-11-11T14:45:23Z</time>
      </trkpt>
      <trkpt lat="47.19248" lon="-1.55966">
        <ele>58</ele>
        <time>2022-11-11T14:45:25Z</time>
      </trkpt>
      <trkpt lat="47.1925" lon="-1.55987">
        <ele>58</ele>
        <time>2022-11-11T14:45:27Z</time>
      </trkpt>
      <trkpt lat="47.19252" lon="-1.56008">
        <ele>58</ele>
        <time>2022-11-11T14:45:29Z</time>
      </trkpt>
      <trkpt lat="47.19254" lon="-1.56029">
        <ele>57</ele>
        <time>2022-11-11T14:45:31Z</time>
      </trkpt>
      <trkpt lat="47.19256" lon="-1.5605">
        <ele>58</ele>
        <time>2022-11-11T14:45:33Z</time>
      </trkpt>
      <trkpt lat="47.19258" lon="-1.56071">
        <ele>57</ele>
        <time>2022-11-11T14:45:35Z</time>
      </trkpt>
      <trkpt lat="47.1926" lon="-1.56091">
        <ele>57</ele>
        <time>2022-11-11T14:45:37Z</time>
      </trkpt>
      <trkpt lat="47.19262" lon="-1.56112">
        <ele>57</ele>
        <time>2022-11-11T14:45:39Z</time>
      </trkpt>
      <trkpt lat="47.19262" lon="-1.56133">
        <ele>57</ele>
        <time>2022-11-11T14:45:41Z</time>
      </trkpt>
      <trkpt lat="47.19263" lon="-1.56153">
        <ele>57</ele>
        <time>2022-11-11T14:45:43Z</time>
      </trkpt>
      <trkpt lat="47.19264" lon="-1.56174">
        <ele>57</ele>
        <time>2022-11-11T14:45:45Z</time>
      </trkpt>
      <trkpt lat="47.19265" lon="-1.56193">
        <ele>57</ele>
        <time>2022-11-11T14:45:47Z</time>
      </trkpt>
      <trkpt lat="47.19267" lon="-1.56212">
        <ele>57</ele>
        <time>2022-11-11T14:45:49Z</time>
      </trkpt>
      <trkpt lat="47.1927" lon="-1.5623">
        <ele>57</ele>
        <time>2022-11-11T14:45:51Z</time>
      </trkpt>
      <trkpt lat="47.19275" lon="-1.56246">
        <ele>57</ele>
        <time>2022-11-11T14:45:53Z</time>
      </trkpt>
      <trkpt lat="47.19284" lon="-1.56259">
        <ele>57</ele>
        <time>2022-11-11T14:45:55Z</time>
      </trkpt>
      <trkpt lat="47.19289" lon="-1.56277">
        <ele>56</ele>
        <time>2022-11-11T14:45:57Z</time>
      </trkpt>
      <trkpt lat="47.19289" lon="-1.56297">
        <ele>56</ele>
        <time>2022-11-11T14:45:59Z</time>
      </trkpt>
      <trkpt lat="47.19284" lon="-1.56315">
        <ele>56</ele>
        <time>2022-11-11T14:46:01Z</time>
      </trkpt>
      <trkpt lat="47.1928" lon="-1.56334">
        <ele>56</ele>
        <time>2022-11-11T14:46:03Z</time>
      </trkpt>
      <trkpt lat="47.19282" lon="-1.56354">
        <ele>56</ele>
        <time>2022-11-11T14:46:05Z</time>
      </trkpt>
      <trkpt lat="47.19285" lon="-1.56373">
        <ele>56</ele>
        <time>2022-11-11T14:46:07Z</time>
      </trkpt>
      <trkpt lat="47.19287" lon="-1.56392">
        <ele>56</ele>
        <time>2022-11-11T14:46:09Z</time>
      </trkpt>
      <trkpt lat="47.19289" lon="-1.56412">
        <ele>56</ele>
        <time>2022-11-11T14:46:11Z</time>
      </trkpt>
      <trkpt lat="47.1929" lon="-1.56432">
        <ele>56</ele>
        <time>2022-11-11T14:46:13Z</time>
      </trkpt>
      <trkpt lat="47.19292" lon="-1.56452">
        <ele>56</ele>
        <time>2022-11-11T14:46:15Z</time>
      </trkpt>
      <trkpt lat="47.19294" lon="-1.56472">
        <ele>56</ele>
        <time>2022-11-11T14:46:17Z</time>
      </trkpt>
      <trkpt lat="47.19296" lon="-1.56493">
        <ele>56</ele>
        <time>2022-11-11T14:46:19Z</time>
      </trkpt>
      <trkpt lat="47.19297" lon="-1.56513">
        <ele>56</ele>
        <time>2022-11-11T14:46:21Z</time>
      </trkpt>
      <trkpt lat="47.19299" lon="-1.56533">
        <ele>56</ele>
        <time>2022-11-11T14:46:23Z</time>
      </trkpt>
      <trkpt lat="47.19301" lon="-1.56553">
        <ele>56</ele>
        <time>2022-11-11T14:46:25Z</time>
      </trkpt>
      <trkpt lat="47.19303" lon="-1.56573">
        <ele>56</ele>
        <time>2022-11-11T14:46:27Z</time>
      </trkpt>
      <trkpt lat="47.19305" lon="-1.56592">
        <ele>56</ele>
        <time>2022-11-11T14:46:29Z</time>
      </trkpt>
      <trkpt lat="47.19307" lon="-1.56622">
        <ele>56</ele>
        <time>2022-11-11T14:46:32Z</time>
      </trkpt>
      <trkpt lat="47.19309" lon="-1.56642">
        <ele>56</ele>
        <time>2022-11-11T14:46:34Z</time>
      </trkpt>
      <trkpt lat="47.19311" lon="-1.56662">
        <ele>56</ele>
        <time>2022-11-11T14:46:36Z</time>
      </trkpt>
      <trkpt lat="47.19313" lon="-1.56681">
        <ele>56</ele>
        <time>2022-11-11T14:46:38Z</time>
      </trkpt>
      <trkpt lat="47.19314" lon="-1.56701">
        <ele>56</ele>
        <time>2022-11-11T14:46:40Z</time>
      </trkpt>
      <trkpt lat="47.19316" lon="-1.56721">
        <ele>56</ele>
        <time>2022-11-11T14:46:42Z</time>
      </trkpt>
      <trkpt lat="47.19318" lon="-1.56741">
        <ele>56</ele>
        <time>2022-11-11T14:46:44Z</time>
      </trkpt>
      <trkpt lat="47.1932" lon="-1.56762">
        <ele>56</ele>
        <time>2022-11-11T14:46:46Z</time>
      </trkpt>
      <trkpt lat="47.19322" lon="-1.56781">
        <ele>56</ele>
        <time>2022-11-11T14:46:48Z</time>
      </trkpt>
      <trkpt lat="47.19323" lon="-1.56801">
        <ele>56</ele>
        <time>2022-11-11T14:46:50Z</time>
      </trkpt>
      <trkpt lat="47.19325" lon="-1.56821">
        <ele>56</ele>
        <time>2022-11-11T14:46:52Z</time>
      </trkpt>
      <trkpt lat="47.19326" lon="-1.5684">
        <ele>56</ele>
        <time>2022-11-11T14:46:54Z</time>
      </trkpt>
      <trkpt lat="47.19327" lon="-1.5686">
        <ele>56</ele>
        <time>2022-11-11T14:46:56Z</time>
      </trkpt>
      <trkpt lat="47.19327" lon="-1.56881">
        <ele>56</ele>
        <time>2022-11-11T14:46:58Z</time>
      </trkpt>
      <trkpt lat="47.19327" lon="-1.56901">
        <ele>56</ele>
        <time>2022-11-11T14:47:00Z</time>
      </trkpt>
      <trkpt lat="47.19327" lon="-1.56922">
        <ele>56</ele>
        <time>2022-11-11T14:47:02Z</time>
      </trkpt>
      <trkpt lat="47.19327" lon="-1.56942">
        <ele>56</ele>
        <time>2022-11-11T14:47:04Z</time>
      </trkpt>
      <trkpt lat="47.19326" lon="-1.56962">
        <ele>56</ele>
        <time>2022-11-11T14:47:06Z</time>
      </trkpt>
      <trkpt lat="47.19324" lon="-1.56981">
        <ele>57</ele>
        <time>2022-11-11T14:47:08Z</time>
      </trkpt>
      <trkpt lat="47.19323" lon="-1.56999">
        <ele>57</ele>
        <time>2022-11-11T14:47:10Z</time>
      </trkpt>
      <trkpt lat="47.19321" lon="-1.57016">
        <ele>57</ele>
        <time>2022-11-11T14:47:12Z</time>
      </trkpt>
      <trkpt lat="47.19323" lon="-1.57032">
        <ele>57</ele>
        <time>2022-11-11T14:47:14Z</time>
      </trkpt>
      <trkpt lat="47.19332" lon="-1.57045">
        <ele>57</ele>
        <time>2022-11-11T14:47:16Z</time>
      </trkpt>
      <trkpt lat="47.19339" lon="-1.57061">
        <ele>56</ele>
        <time>2022-11-11T14:47:18Z</time>
      </trkpt>
      <trkpt lat="47.19333" lon="-1.57078">
        <ele>55</ele>
        <time>2022-11-11T14:47:20Z</time>
      </trkpt>
      <trkpt lat="47.1932" lon="-1.57087">
        <ele>55</ele>
        <time>2022-11-11T14:47:22Z</time>
      </trkpt>
      <trkpt lat="47.19312" lon="-1.571">
        <ele>55</ele>
        <time>2022-11-11T14:47:24Z</time>
      </trkpt>
      <trkpt lat="47.19309" lon="-1.57121">
        <ele>55</ele>
        <time>2022-11-11T14:47:26Z</time>
      </trkpt>
      <trkpt lat="47.19307" lon="-1.57141">
        <ele>55</ele>
        <time>2022-11-11T14:47:28Z</time>
      </trkpt>
      <trkpt lat="47.19304" lon="-1.57161">
        <ele>54</ele>
        <time>2022-11-11T14:47:30Z</time>
      </trkpt>
      <trkpt lat="47.19302" lon="-1.57181">
        <ele>54</ele>
        <time>2022-11-11T14:47:32Z</time>
      </trkpt>
      <trkpt lat="47.19298" lon="-1.572">
        <ele>54</ele>
        <time>2022-11-11T14:47:34Z</time>
      </trkpt>
      <trkpt lat="47.19294" lon="-1.5722">
        <ele>55</ele>
        <time>2022-11-11T14:47:36Z</time>
      </trkpt>
      <trkpt lat="47.19289" lon="-1.57239">
        <ele>55</ele>
        <time>2022-11-11T14:47:38Z</time>
      </trkpt>
      <trkpt lat="47.19285" lon="-1.57259">
        <ele>55</ele>
        <time>2022-11-11T14:47:40Z</time>
      </trkpt>
      <trkpt lat="47.1928" lon="-1.57278">
        <ele>55</ele>
        <time>2022-11-11T14:47:42Z</time>
      </trkpt>
      <trkpt lat="47.19275" lon="-1.57298">
        <ele>55</ele>
        <time>2022-11-11T14:47:44Z</time>
      </trkpt>
      <trkpt lat="47.19269" lon="-1.57317">
        <ele>55</ele>
        <time>2022-11-11T14:47:46Z</time>
      </trkpt>
      <trkpt lat="47.19262" lon="-1.57336">
        <ele>56</ele>
        <time>2022-11-11T14:47:48Z</time>
      </trkpt>
      <trkpt lat="47.19256" lon="-1.57356">
        <ele>56</ele>
        <time>2022-11-11T14:47:50Z</time>
      </trkpt>
      <trkpt lat="47.19249" lon="-1.57374">
        <ele>56</ele>
        <time>2022-11-11T14:47:52Z</time>
      </trkpt>
      <trkpt lat="47.19241" lon="-1.57394">
        <ele>56</ele>
        <time>2022-11-11T14:47:54Z</time>
      </trkpt>
      <trkpt lat="47.19235" lon="-1.57413">
        <ele>56</ele>
        <time>2022-11-11T14:47:56Z</time>
      </trkpt>
      <trkpt lat="47.19228" lon="-1.57432">
        <ele>57</ele>
        <time>2022-11-11T14:47:58Z</time>
      </trkpt>
      <trkpt lat="47.19221" lon="-1.57452">
        <ele>57</ele>
        <time>2022-11-11T14:48:00Z</time>
      </trkpt>
      <trkpt lat="47.19214" lon="-1.57471">
        <ele>57</ele>
        <time>2022-11-11T14:48:02Z</time>
      </trkpt>
      <trkpt lat="47.19207" lon="-1.5749">
        <ele>57</ele>
        <time>2022-11-11T14:48:04Z</time>
      </trkpt>
      <trkpt lat="47.19201" lon="-1.57509">
        <ele>57</ele>
        <time>2022-11-11T14:48:06Z</time>
      </trkpt>
      <trkpt lat="47.19194" lon="-1.57528">
        <ele>57</ele>
        <time>2022-11-11T14:48:08Z</time>
      </trkpt>
      <trkpt lat="47.19187" lon="-1.57547">
        <ele>57</ele>
        <time>2022-11-11T14:48:10Z</time>
      </trkpt>
      <trkpt lat="47.19181" lon="-1.57566">
        <ele>57</ele>
        <time>2022-11-11T14:48:12Z</time>
      </trkpt>
      <trkpt lat="47.19174" lon="-1.57584">
        <ele>57</ele>
        <time>2022-11-11T14:48:14Z</time>
      </trkpt>
      <trkpt lat="47.19167" lon="-1.57603">
        <ele>57</ele>
        <time>2022-11-11T14:48:16Z</time>
      </trkpt>
      <trkpt lat="47.1916" lon="-1.57621">
        <ele>57</ele>
        <time>2022-11-11T14:48:18Z</time>
      </trkpt>
      <trkpt lat="47.19153" lon="-1.5764">
        <ele>57</ele>
        <time>2022-11-11T14:48:20Z</time>
      </trkpt>
      <trkpt lat="47.19147" lon="-1.57659">
        <ele>56</ele>
        <time>2022-11-11T14:48:22Z</time>
      </trkpt>
      <trkpt lat="47.19141" lon="-1.57678">
        <ele>56</ele>
        <time>2022-11-11T14:48:24Z</time>
      </trkpt>
      <trkpt lat="47.19134" lon="-1.57696">
        <ele>56</ele>
        <time>2022-11-11T14:48:26Z</time>
      </trkpt>
      <trkpt lat="47.19127" lon="-1.57714">
        <ele>56</ele>
        <time>2022-11-11T14:48:28Z</time>
      </trkpt>
      <trkpt lat="47.1912" lon="-1.57733">
        <ele>56</ele>
        <time>2022-11-11T14:48:30Z</time>
      </trkpt>
      <trkpt lat="47.19114" lon="-1.57752">
        <ele>56</ele>
        <time>2022-11-11T14:48:32Z</time>
      </trkpt>
      <trkpt lat="47.19107" lon="-1.57771">
        <ele>56</ele>
        <time>2022-11-11T14:48:34Z</time>
      </trkpt>
      <trkpt lat="47.19101" lon="-1.5779">
        <ele>56</ele>
        <time>2022-11-11T14:48:36Z</time>
      </trkpt>
      <trkpt lat="47.19094" lon="-1.57808">
        <ele>56</ele>
        <time>2022-11-11T14:48:38Z</time>
      </trkpt>
      <trkpt lat="47.19088" lon="-1.57827">
        <ele>56</ele>
        <time>2022-11-11T14:48:40Z</time>
      </trkpt>
      <trkpt lat="47.19081" lon="-1.57846">
        <ele>56</ele>
        <time>2022-11-11T14:48:42Z</time>
      </trkpt>
      <trkpt lat="47.19074" lon="-1.57865">
        <ele>56</ele>
        <time>2022-11-11T14:48:44Z</time>
      </trkpt>
      <trkpt lat="47.19068" lon="-1.57884">
        <ele>56</ele>
        <time>2022-11-11T14:48:46Z</time>
      </trkpt>
      <trkpt lat="47.19061" lon="-1.57902">
        <ele>56</ele>
        <time>2022-11-11T14:48:48Z</time>
      </trkpt>
      <trkpt lat="47.19054" lon="-1.57921">
        <ele>56</ele>
        <time>2022-11-11T14:48:50Z</time>
      </trkpt>
      <trkpt lat="47.19048" lon="-1.5794">
        <ele>56</ele>
        <time>2022-11-11T14:48:52Z</time>
      </trkpt>
      <trkpt lat="47.19041" lon="-1.57959">
        <ele>56</ele>
        <time>2022-11-11T14:48:54Z</time>
      </trkpt>
      <trkpt lat="47.19034" lon="-1.57977">
        <ele>56</ele>
        <time>2022-11-11T14:48:56Z</time>
      </trkpt>
      <trkpt lat="47.19027" lon="-1.57996">
        <ele>56</ele>
        <time>2022-11-11T14:48:58Z</time>
      </trkpt>
      <trkpt lat="47.1902" lon="-1.58015">
        <ele>56</ele>
        <time>2022-11-11T14:49:00Z</time>
      </trkpt>
      <trkpt lat="47.19013" lon="-1.58034">
        <ele>56</ele>
        <time>2022-11-11T14:49:02Z</time>
      </trkpt>
      <trkpt lat="47.19007" lon="-1.58053">
        <ele>56</ele>
        <time>2022-11-11T14:49:04Z</time>
      </trkpt>
      <trkpt lat="47.19" lon="-1.58072">
        <ele>56</ele>
        <time>2022-11-11T14:49:06Z</time>
      </trkpt>
      <trkpt lat="47.18993" lon="-1.58091">
        <ele>56</ele>
        <time>2022-11-11T14:49:08Z</time>
      </trkpt>
      <trkpt lat="47.18986" lon="-1.5811">
        <ele>56</ele>
        <time>2022-11-11T14:49:10Z</time>
      </trkpt>
      <trkpt lat="47.1898" lon="-1.58129">
        <ele>56</ele>
        <time>2022-11-11T14:49:12Z</time>
      </trkpt>
      <trkpt lat="47.18973" lon="-1.58148">
        <ele>56</ele>
        <time>2022-11-11T14:49:14Z</time>
      </trkpt>
      <trkpt lat="47.18966" lon="-1.58167">
        <ele>56</ele>
        <time>2022-11-11T14:49:16Z</time>
      </trkpt>
      <trkpt lat="47.18959" lon="-1.58186">
        <ele>56</ele>
        <time>2022-11-11T14:49:18Z</time>
      </trkpt>
      <trkpt lat="47.18952" lon="-1.58205">
        <ele>56</ele>
        <time>2022-11-11T14:49:20Z</time>
      </trkpt>
      <trkpt lat="47.18946" lon="-1.58224">
        <ele>56</ele>
        <time>2022-11-11T14:49:22Z</time>
      </trkpt>
      <trkpt lat="47.18939" lon="-1.58243">
        <ele>56</ele>
        <time>2022-11-11T14:49:24Z</time>
      </trkpt>
      <trkpt lat="47.18932" lon="-1.58262">
        <ele>56</ele>
        <time>2022-11-11T14:49:26Z</time>
      </trkpt>
      <trkpt lat="47.18925" lon="-1.58281">
        <ele>56</ele>
        <time>2022-11-11T14:49:28Z</time>
      </trkpt>
      <trkpt lat="47.18918" lon="-1.583">
        <ele>56</ele>
        <time>2022-11-11T14:49:30Z</time>
      </trkpt>
      <trkpt lat="47.18911" lon="-1.58319">
        <ele>56</ele>
        <time>2022-11-11T14:49:32Z</time>
      </trkpt>
      <trkpt lat="47.18905" lon="-1.58339">
        <ele>56</ele>
        <time>2022-11-11T14:49:34Z</time>
      </trkpt>
      <trkpt lat="47.18898" lon="-1.58358">
        <ele>55</ele>
        <time>2022-11-11T14:49:36Z</time>
      </trkpt>
      <trkpt lat="47.18892" lon="-1.58377">
        <ele>55</ele>
        <time>2022-11-11T14:49:38Z</time>
      </trkpt>
      <trkpt lat="47.18885" lon="-1.58397">
        <ele>55</ele>
        <time>2022-11-11T14:49:40Z</time>
      </trkpt>
      <trkpt lat="47.18879" lon="-1.58415">
        <ele>55</ele>
        <time>2022-11-11T14:49:42Z</time>
      </trkpt>
      <trkpt lat="47.18873" lon="-1.58435">
        <ele>55</ele>
        <time>2022-11-11T14:49:44Z</time>
      </trkpt>
      <trkpt lat="47.18867" lon="-1.58454">
        <ele>55</ele>
        <time>2022-11-11T14:49:46Z</time>
      </trkpt>
      <trkpt lat="47.18862" lon="-1.58474">
        <ele>55</ele>
        <time>2022-11-11T14:49:48Z</time>
      </trkpt>
      <trkpt lat="47.18856" lon="-1.58493">
        <ele>55</ele>
        <time>2022-11-11T14:49:50Z</time>
      </trkpt>
      <trkpt lat="47.18851" lon="-1.58512">
        <ele>55</ele>
        <time>2022-11-11T14:49:52Z</time>
      </trkpt>
      <trkpt lat="47.18846" lon="-1.58532">
        <ele>55</ele>
        <time>2022-11-11T14:49:54Z</time>
      </trkpt>
      <trkpt lat="47.18841" lon="-1.58551">
        <ele>56</ele>
        <time>2022-11-11T14:49:56Z</time>
      </trkpt>
      <trkpt lat="47.18836" lon="-1.5857">
        <ele>55</ele>
        <time>2022-11-11T14:49:58Z</time>
      </trkpt>
      <trkpt lat="47.18831" lon="-1.58589">
        <ele>56</ele>
        <time>2022-11-11T14:50:00Z</time>
      </trkpt>
      <trkpt lat="47.18827" lon="-1.58609">
        <ele>56</ele>
        <time>2022-11-11T14:50:02Z</time>
      </trkpt>
      <trkpt lat="47.18822" lon="-1.58629">
        <ele>56</ele>
        <time>2022-11-11T14:50:04Z</time>
      </trkpt>
      <trkpt lat="47.18818" lon="-1.58649">
        <ele>55</ele>
        <time>2022-11-11T14:50:06Z</time>
      </trkpt>
      <trkpt lat="47.18815" lon="-1.58668">
        <ele>55</ele>
        <time>2022-11-11T14:50:08Z</time>
      </trkpt>
      <trkpt lat="47.18813" lon="-1.58685">
        <ele>55</ele>
        <time>2022-11-11T14:50:10Z</time>
      </trkpt>
      <trkpt lat="47.18812" lon="-1.58701">
        <ele>55</ele>
        <time>2022-11-11T14:50:13Z</time>
      </trkpt>
      <trkpt lat="47.18818" lon="-1.58716">
        <ele>56</ele>
        <time>2022-11-11T14:50:21Z</time>
      </trkpt>
      <trkpt lat="47.18824" lon="-1.58732">
        <ele>55</ele>
        <time>2022-11-11T14:50:23Z</time>
      </trkpt>
      <trkpt lat="47.18827" lon="-1.58753">
        <ele>55</ele>
        <time>2022-11-11T14:50:25Z</time>
      </trkpt>
      <trkpt lat="47.18822" lon="-1.58776">
        <ele>54</ele>
        <time>2022-11-11T14:50:27Z</time>
      </trkpt>
      <trkpt lat="47.1881" lon="-1.58793">
        <ele>54</ele>
        <time>2022-11-11T14:50:29Z</time>
      </trkpt>
      <trkpt lat="47.18796" lon="-1.58804">
        <ele>55</ele>
        <time>2022-11-11T14:50:31Z</time>
      </trkpt>
      <trkpt lat="47.18787" lon="-1.58823">
        <ele>55</ele>
        <time>2022-11-11T14:50:33Z</time>
      </trkpt>
      <trkpt lat="47.18783" lon="-1.58846">
        <ele>55</ele>
        <time>2022-11-11T14:50:35Z</time>
      </trkpt>
      <trkpt lat="47.1878" lon="-1.58869">
        <ele>55</ele>
        <time>2022-11-11T14:50:37Z</time>
      </trkpt>
      <trkpt lat="47.18776" lon="-1.58892">
        <ele>55</ele>
        <time>2022-11-11T14:50:39Z</time>
      </trkpt>
      <trkpt lat="47.18773" lon="-1.58916">
        <ele>55</ele>
        <time>2022-11-11T14:50:41Z</time>
      </trkpt>
      <trkpt lat="47.1877" lon="-1.5894">
        <ele>55</ele>
        <time>2022-11-11T14:50:43Z</time>
      </trkpt>
      <trkpt lat="47.18767" lon="-1.58963">
        <ele>55</ele>
        <time>2022-11-11T14:50:45Z</time>
      </trkpt>
      <trkpt lat="47.18765" lon="-1.58986">
        <ele>55</ele>
        <time>2022-11-11T14:50:47Z</time>
      </trkpt>
      <trkpt lat="47.18763" lon="-1.59008">
        <ele>55</ele>
        <time>2022-11-11T14:50:49Z</time>
      </trkpt>
      <trkpt lat="47.1876" lon="-1.59031">
        <ele>55</ele>
        <time>2022-11-11T14:50:51Z</time>
      </trkpt>
      <trkpt lat="47.18758" lon="-1.59053">
        <ele>55</ele>
        <time>2022-11-11T14:50:53Z</time>
      </trkpt>
      <trkpt lat="47.18755" lon="-1.59075">
        <ele>55</ele>
        <time>2022-11-11T14:50:55Z</time>
      </trkpt>
      <trkpt lat="47.18753" lon="-1.59097">
        <ele>55</ele>
        <time>2022-11-11T14:50:57Z</time>
      </trkpt>
      <trkpt lat="47.18751" lon="-1.59118">
        <ele>55</ele>
        <time>2022-11-11T14:50:59Z</time>
      </trkpt>
      <trkpt lat="47.18748" lon="-1.59139">
        <ele>55</ele>
        <time>2022-11-11T14:51:01Z</time>
      </trkpt>
      <trkpt lat="47.18746" lon="-1.5916">
        <ele>55</ele>
        <time>2022-11-11T14:51:03Z</time>
      </trkpt>
      <trkpt lat="47.18744" lon="-1.59182">
        <ele>55</ele>
        <time>2022-11-11T14:51:05Z</time>
      </trkpt>
      <trkpt lat="47.18741" lon="-1.59203">
        <ele>55</ele>
        <time>2022-11-11T14:51:07Z</time>
      </trkpt>
      <trkpt lat="47.18739" lon="-1.59224">
        <ele>55</ele>
        <time>2022-11-11T14:51:09Z</time>
      </trkpt>
      <trkpt lat="47.18737" lon="-1.59245">
        <ele>55</ele>
        <time>2022-11-11T14:51:11Z</time>
      </trkpt>
      <trkpt lat="47.18735" lon="-1.59266">
        <ele>55</ele>
        <time>2022-11-11T14:51:13Z</time>
      </trkpt>
      <trkpt lat="47.18732" lon="-1.59287">
        <ele>55</ele>
        <time>2022-11-11T14:51:15Z</time>
      </trkpt>
      <trkpt lat="47.1873" lon="-1.59309">
        <ele>55</ele>
        <time>2022-11-11T14:51:17Z</time>
      </trkpt>
      <trkpt lat="47.18727" lon="-1.5933">
        <ele>55</ele>
        <time>2022-11-11T14:51:19Z</time>
      </trkpt>
      <trkpt lat="47.18725" lon="-1.5935">
        <ele>55</ele>
        <time>2022-11-11T14:51:21Z</time>
      </trkpt>
      <trkpt lat="47.18723" lon="-1.59371">
        <ele>55</ele>
        <time>2022-11-11T14:51:23Z</time>
      </trkpt>
      <trkpt lat="47.18721" lon="-1.59392">
        <ele>55</ele>
        <time>2022-11-11T14:51:25Z</time>
      </trkpt>
      <trkpt lat="47.18718" lon="-1.59412">
        <ele>55</ele>
        <time>2022-11-11T14:51:27Z</time>
      </trkpt>
      <trkpt lat="47.18717" lon="-1.59433">
        <ele>55</ele>
        <time>2022-11-11T14:51:29Z</time>
      </trkpt>
      <trkpt lat="47.18714" lon="-1.59453">
        <ele>55</ele>
        <time>2022-11-11T14:51:31Z</time>
      </trkpt>
      <trkpt lat="47.18712" lon="-1.59474">
        <ele>54</ele>
        <time>2022-11-11T14:51:33Z</time>
      </trkpt>
      <trkpt lat="47.1871" lon="-1.59495">
        <ele>54</ele>
        <time>2022-11-11T14:51:35Z</time>
      </trkpt>
      <trkpt lat="47.18707" lon="-1.59516">
        <ele>54</ele>
        <time>2022-11-11T14:51:37Z</time>
      </trkpt>
      <trkpt lat="47.18705" lon="-1.59537">
        <ele>54</ele>
        <time>2022-11-11T14:51:39Z</time>
      </trkpt>
      <trkpt lat="47.18703" lon="-1.59557">
        <ele>54</ele>
        <time>2022-11-11T14:51:41Z</time>
      </trkpt>
      <trkpt lat="47.187" lon="-1.59578">
        <ele>54</ele>
        <time>2022-11-11T14:51:43Z</time>
      </trkpt>
      <trkpt lat="47.18698" lon="-1.59599">
        <ele>54</ele>
        <time>2022-11-11T14:51:45Z</time>
      </trkpt>
      <trkpt lat="47.18695" lon="-1.59619">
        <ele>55</ele>
        <time>2022-11-11T14:51:47Z</time>
      </trkpt>
      <trkpt lat="47.18692" lon="-1.59641">
        <ele>55</ele>
        <time>2022-11-11T14:51:49Z</time>
      </trkpt>
      <trkpt lat="47.18689" lon="-1.59661">
        <ele>55</ele>
        <time>2022-11-11T14:51:51Z</time>
      </trkpt>
      <trkpt lat="47.18687" lon="-1.59681">
        <ele>55</ele>
        <time>2022-11-11T14:51:53Z</time>
      </trkpt>
      <trkpt lat="47.18684" lon="-1.59701">
        <ele>55</ele>
        <time>2022-11-11T14:51:55Z</time>
      </trkpt>
      <trkpt lat="47.18683" lon="-1.59721">
        <ele>55</ele>
        <time>2022-11-11T14:51:57Z</time>
      </trkpt>
      <trkpt lat="47.18683" lon="-1.5974">
        <ele>55</ele>
        <time>2022-11-11T14:51:59Z</time>
      </trkpt>
      <trkpt lat="47.18684" lon="-1.59756">
        <ele>55</ele>
        <time>2022-11-11T14:52:01Z</time>
      </trkpt>
      <trkpt lat="47.18687" lon="-1.59773">
        <ele>55</ele>
        <time>2022-11-11T14:52:03Z</time>
      </trkpt>
      <trkpt lat="47.18685" lon="-1.59796">
        <ele>55</ele>
        <time>2022-11-11T14:52:05Z</time>
      </trkpt>
      <trkpt lat="47.1868" lon="-1.5982">
        <ele>54</ele>
        <time>2022-11-11T14:52:07Z</time>
      </trkpt>
      <trkpt lat="47.18674" lon="-1.59831">
        <ele>55</ele>
        <time>2022-11-11T14:52:08Z</time>
      </trkpt>
      <trkpt lat="47.18667" lon="-1.59839">
        <ele>55</ele>
        <time>2022-11-11T14:52:09Z</time>
      </trkpt>
      <trkpt lat="47.18658" lon="-1.59844">
        <ele>55</ele>
        <time>2022-11-11T14:52:10Z</time>
      </trkpt>
      <trkpt lat="47.18643" lon="-1.5984">
        <ele>54</ele>
        <time>2022-11-11T14:52:12Z</time>
      </trkpt>
      <trkpt lat="47.18629" lon="-1.5983">
        <ele>54</ele>
        <time>2022-11-11T14:52:14Z</time>
      </trkpt>
      <trkpt lat="47.18618" lon="-1.59832">
        <ele>53</ele>
        <time>2022-11-11T14:52:16Z</time>
      </trkpt>
      <trkpt lat="47.18617" lon="-1.59846">
        <ele>51</ele>
        <time>2022-11-11T14:52:18Z</time>
      </trkpt>
      <trkpt lat="47.18623" lon="-1.59862">
        <ele>51</ele>
        <time>2022-11-11T14:52:20Z</time>
      </trkpt>
      <trkpt lat="47.1862" lon="-1.59881">
        <ele>51</ele>
        <time>2022-11-11T14:52:22Z</time>
      </trkpt>
      <trkpt lat="47.18615" lon="-1.599">
        <ele>51</ele>
        <time>2022-11-11T14:52:24Z</time>
      </trkpt>
      <trkpt lat="47.1861" lon="-1.59919">
        <ele>51</ele>
        <time>2022-11-11T14:52:26Z</time>
      </trkpt>
      <trkpt lat="47.18604" lon="-1.59938">
        <ele>51</ele>
        <time>2022-11-11T14:52:28Z</time>
      </trkpt>
      <trkpt lat="47.18599" lon="-1.59957">
        <ele>51</ele>
        <time>2022-11-11T14:52:30Z</time>
      </trkpt>
      <trkpt lat="47.18593" lon="-1.59975">
        <ele>51</ele>
        <time>2022-11-11T14:52:32Z</time>
      </trkpt>
      <trkpt lat="47.18588" lon="-1.59993">
        <ele>51</ele>
        <time>2022-11-11T14:52:34Z</time>
      </trkpt>
      <trkpt lat="47.18582" lon="-1.60011">
        <ele>51</ele>
        <time>2022-11-11T14:52:36Z</time>
      </trkpt>
      <trkpt lat="47.18576" lon="-1.60028">
        <ele>52</ele>
        <time>2022-11-11T14:52:38Z</time>
      </trkpt>
      <trkpt lat="47.18569" lon="-1.60046">
        <ele>52</ele>
        <time>2022-11-11T14:52:40Z</time>
      </trkpt>
      <trkpt lat="47.18563" lon="-1.60064">
        <ele>52</ele>
        <time>2022-11-11T14:52:42Z</time>
      </trkpt>
      <trkpt lat="47.18556" lon="-1.60081">
        <ele>52</ele>
        <time>2022-11-11T14:52:44Z</time>
      </trkpt>
      <trkpt lat="47.18549" lon="-1.60098">
        <ele>52</ele>
        <time>2022-11-11T14:52:46Z</time>
      </trkpt>
      <trkpt lat="47.18542" lon="-1.60114">
        <ele>52</ele>
        <time>2022-11-11T14:52:48Z</time>
      </trkpt>
      <trkpt lat="47.18535" lon="-1.60131">
        <ele>52</ele>
        <time>2022-11-11T14:52:50Z</time>
      </trkpt>
      <trkpt lat="47.18528" lon="-1.60147">
        <ele>51</ele>
        <time>2022-11-11T14:52:52Z</time>
      </trkpt>
      <trkpt lat="47.1852" lon="-1.60163">
        <ele>51</ele>
        <time>2022-11-11T14:52:54Z</time>
      </trkpt>
      <trkpt lat="47.18513" lon="-1.60179">
        <ele>52</ele>
        <time>2022-11-11T14:52:56Z</time>
      </trkpt>
      <trkpt lat="47.18505" lon="-1.60195">
        <ele>52</ele>
        <time>2022-11-11T14:52:58Z</time>
      </trkpt>
      <trkpt lat="47.18498" lon="-1.6021">
        <ele>52</ele>
        <time>2022-11-11T14:53:00Z</time>
      </trkpt>
      <trkpt lat="47.18489" lon="-1.60225">
        <ele>52</ele>
        <time>2022-11-11T14:53:02Z</time>
      </trkpt>
      <trkpt lat="47.18481" lon="-1.6024">
        <ele>52</ele>
        <time>2022-11-11T14:53:04Z</time>
      </trkpt>
      <trkpt lat="47.18473" lon="-1.60255">
        <ele>52</ele>
        <time>2022-11-11T14:53:06Z</time>
      </trkpt>
      <trkpt lat="47.18465" lon="-1.6027">
        <ele>52</ele>
        <time>2022-11-11T14:53:08Z</time>
      </trkpt>
      <trkpt lat="47.18456" lon="-1.60285">
        <ele>52</ele>
        <time>2022-11-11T14:53:10Z</time>
      </trkpt>
      <trkpt lat="47.18447" lon="-1.60299">
        <ele>51</ele>
        <time>2022-11-11T14:53:12Z</time>
      </trkpt>
      <trkpt lat="47.18438" lon="-1.60314">
        <ele>51</ele>
        <time>2022-11-11T14:53:14Z</time>
      </trkpt>
      <trkpt lat="47.18429" lon="-1.60328">
        <ele>51</ele>
        <time>2022-11-11T14:53:16Z</time>
      </trkpt>
      <trkpt lat="47.18419" lon="-1.60343">
        <ele>52</ele>
        <time>2022-11-11T14:53:18Z</time>
      </trkpt>
      <trkpt lat="47.18409" lon="-1.60356">
        <ele>52</ele>
        <time>2022-11-11T14:53:20Z</time>
      </trkpt>
      <trkpt lat="47.18399" lon="-1.6037">
        <ele>52</ele>
        <time>2022-11-11T14:53:22Z</time>
      </trkpt>
      <trkpt lat="47.1839" lon="-1.60383">
        <ele>51</ele>
        <time>2022-11-11T14:53:24Z</time>
      </trkpt>
      <trkpt lat="47.1838" lon="-1.60396">
        <ele>51</ele>
        <time>2022-11-11T14:53:26Z</time>
      </trkpt>
      <trkpt lat="47.18369" lon="-1.60409">
        <ele>52</ele>
        <time>2022-11-11T14:53:28Z</time>
      </trkpt>
      <trkpt lat="47.18359" lon="-1.60422">
        <ele>52</ele>
        <time>2022-11-11T14:53:30Z</time>
      </trkpt>
      <trkpt lat="47.18349" lon="-1.60435">
        <ele>52</ele>
        <time>2022-11-11T14:53:32Z</time>
      </trkpt>
      <trkpt lat="47.18339" lon="-1.60448">
        <ele>52</ele>
        <time>2022-11-11T14:53:34Z</time>
      </trkpt>
      <trkpt lat="47.18328" lon="-1.6046">
        <ele>52</ele>
        <time>2022-11-11T14:53:36Z</time>
      </trkpt>
      <trkpt lat="47.18318" lon="-1.60473">
        <ele>52</ele>
        <time>2022-11-11T14:53:38Z</time>
      </trkpt>
      <trkpt lat="47.18307" lon="-1.60485">
        <ele>52</ele>
        <time>2022-11-11T14:53:40Z</time>
      </trkpt>
      <trkpt lat="47.18296" lon="-1.60498">
        <ele>52</ele>
        <time>2022-11-11T14:53:42Z</time>
      </trkpt>
      <trkpt lat="47.18285" lon="-1.60509">
        <ele>52</ele>
        <time>2022-11-11T14:53:44Z</time>
      </trkpt>
      <trkpt lat="47.18274" lon="-1.60521">
        <ele>52</ele>
        <time>2022-11-11T14:53:46Z</time>
      </trkpt>
      <trkpt lat="47.18262" lon="-1.60532">
        <ele>52</ele>
        <time>2022-11-11T14:53:48Z</time>
      </trkpt>
      <trkpt lat="47.18251" lon="-1.60541">
        <ele>52</ele>
        <time>2022-11-11T14:53:50Z</time>
      </trkpt>
      <trkpt lat="47.18239" lon="-1.6055">
        <ele>53</ele>
        <time>2022-11-11T14:53:52Z</time>
      </trkpt>
      <trkpt lat="47.18227" lon="-1.60557">
        <ele>52</ele>
        <time>2022-11-11T14:53:54Z</time>
      </trkpt>
      <trkpt lat="47.18216" lon="-1.60564">
        <ele>52</ele>
        <time>2022-11-11T14:53:56Z</time>
      </trkpt>
      <trkpt lat="47.18206" lon="-1.60568">
        <ele>52</ele>
        <time>2022-11-11T14:53:58Z</time>
      </trkpt>
      <trkpt lat="47.18196" lon="-1.60572">
        <ele>52</ele>
        <time>2022-11-11T14:54:00Z</time>
      </trkpt>
      <trkpt lat="47.18188" lon="-1.60578">
        <ele>52</ele>
        <time>2022-11-11T14:54:04Z</time>
      </trkpt>
      <trkpt lat="47.18185" lon="-1.60595">
        <ele>52</ele>
        <time>2022-11-11T14:54:09Z</time>
      </trkpt>
      <trkpt lat="47.18174" lon="-1.60602">
        <ele>53</ele>
        <time>2022-11-11T14:54:12Z</time>
      </trkpt>
      <trkpt lat="47.18163" lon="-1.60604">
        <ele>53</ele>
        <time>2022-11-11T14:54:14Z</time>
      </trkpt>
      <trkpt lat="47.18151" lon="-1.60604">
        <ele>53</ele>
        <time>2022-11-11T14:54:16Z</time>
      </trkpt>
      <trkpt lat="47.1814" lon="-1.60602">
        <ele>53</ele>
        <time>2022-11-11T14:54:18Z</time>
      </trkpt>
      <trkpt lat="47.18129" lon="-1.606">
        <ele>54</ele>
        <time>2022-11-11T14:54:20Z</time>
      </trkpt>
      <trkpt lat="47.18118" lon="-1.60596">
        <ele>55</ele>
        <time>2022-11-11T14:54:22Z</time>
      </trkpt>
      <trkpt lat="47.18105" lon="-1.60591">
        <ele>55</ele>
        <time>2022-11-11T14:54:24Z</time>
      </trkpt>
      <trkpt lat="47.18093" lon="-1.60585">
        <ele>54</ele>
        <time>2022-11-11T14:54:26Z</time>
      </trkpt>
      <trkpt lat="47.18082" lon="-1.60579">
        <ele>54</ele>
        <time>2022-11-11T14:54:28Z</time>
      </trkpt>
      <trkpt lat="47.1807" lon="-1.60572">
        <ele>53</ele>
        <time>2022-11-11T14:54:30Z</time>
      </trkpt>
      <trkpt lat="47.18058" lon="-1.60566">
        <ele>53</ele>
        <time>2022-11-11T14:54:32Z</time>
      </trkpt>
      <trkpt lat="47.18047" lon="-1.6056">
        <ele>53</ele>
        <time>2022-11-11T14:54:34Z</time>
      </trkpt>
      <trkpt lat="47.18035" lon="-1.60554">
        <ele>53</ele>
        <time>2022-11-11T14:54:36Z</time>
      </trkpt>
      <trkpt lat="47.18023" lon="-1.60551">
        <ele>53</ele>
        <time>2022-11-11T14:54:38Z</time>
      </trkpt>
      <trkpt lat="47.18011" lon="-1.60552">
        <ele>53</ele>
        <time>2022-11-11T14:54:40Z</time>
      </trkpt>
      <trkpt lat="47.17999" lon="-1.60555">
        <ele>53</ele>
        <time>2022-11-11T14:54:42Z</time>
      </trkpt>
      <trkpt lat="47.17987" lon="-1.60558">
        <ele>53</ele>
        <time>2022-11-11T14:54:44Z</time>
      </trkpt>
      <trkpt lat="47.17975" lon="-1.60564">
        <ele>53</ele>
        <time>2022-11-11T14:54:46Z</time>
      </trkpt>
      <trkpt lat="47.17964" lon="-1.60567">
        <ele>53</ele>
        <time>2022-11-11T14:54:48Z</time>
      </trkpt>
      <trkpt lat="47.17954" lon="-1.6057">
        <ele>53</ele>
        <time>2022-11-11T14:54:50Z</time>
      </trkpt>
      <trkpt lat="47.17944" lon="-1.60576">
        <ele>53</ele>
        <time>2022-11-11T14:54:52Z</time>
      </trkpt>
      <trkpt lat="47.17936" lon="-1.60581">
        <ele>54</ele>
        <time>2022-11-11T14:54:54Z</time>
      </trkpt>
      <trkpt lat="47.17925" lon="-1.60585">
        <ele>54</ele>
        <time>2022-11-11T14:54:57Z</time>
      </trkpt>
      <trkpt lat="47.17914" lon="-1.60586">
        <ele>57</ele>
        <time>2022-11-11T14:55:05Z</time>
      </trkpt>
      <trkpt lat="47.17904" lon="-1.60598">
        <ele>56</ele>
        <time>2022-11-11T14:55:08Z</time>
      </trkpt>
      <trkpt lat="47.179" lon="-1.60614">
        <ele>56</ele>
        <time>2022-11-11T14:55:10Z</time>
      </trkpt>
      <trkpt lat="47.17895" lon="-1.60633">
        <ele>56</ele>
        <time>2022-11-11T14:55:12Z</time>
      </trkpt>
      <trkpt lat="47.17889" lon="-1.60651">
        <ele>56</ele>
        <time>2022-11-11T14:55:14Z</time>
      </trkpt>
      <trkpt lat="47.17883" lon="-1.60669">
        <ele>55</ele>
        <time>2022-11-11T14:55:16Z</time>
      </trkpt>
      <trkpt lat="47.17878" lon="-1.60687">
        <ele>54</ele>
        <time>2022-11-11T14:55:18Z</time>
      </trkpt>
      <trkpt lat="47.17872" lon="-1.60706">
        <ele>54</ele>
        <time>2022-11-11T14:55:20Z</time>
      </trkpt>
      <trkpt lat="47.17868" lon="-1.60725">
        <ele>54</ele>
        <time>2022-11-11T14:55:22Z</time>
      </trkpt>
      <trkpt lat="47.17864" lon="-1.60743">
        <ele>53</ele>
        <time>2022-11-11T14:55:24Z</time>
      </trkpt>
      <trkpt lat="47.1786" lon="-1.60761">
        <ele>53</ele>
        <time>2022-11-11T14:55:26Z</time>
      </trkpt>
      <trkpt lat="47.17856" lon="-1.60779">
        <ele>54</ele>
        <time>2022-11-11T14:55:28Z</time>
      </trkpt>
      <trkpt lat="47.17852" lon="-1.60797">
        <ele>54</ele>
        <time>2022-11-11T14:55:30Z</time>
      </trkpt>
      <trkpt lat="47.17847" lon="-1.60816">
        <ele>55</ele>
        <time>2022-11-11T14:55:32Z</time>
      </trkpt>
      <trkpt lat="47.17842" lon="-1.60834">
        <ele>55</ele>
        <time>2022-11-11T14:55:34Z</time>
      </trkpt>
      <trkpt lat="47.17836" lon="-1.60851">
        <ele>55</ele>
        <time>2022-11-11T14:55:36Z</time>
      </trkpt>
      <trkpt lat="47.17827" lon="-1.60866">
        <ele>55</ele>
        <time>2022-11-11T14:55:38Z</time>
      </trkpt>
      <trkpt lat="47.17817" lon="-1.6088">
        <ele>55</ele>
        <time>2022-11-11T14:55:40Z</time>
      </trkpt>
      <trkpt lat="47.17806" lon="-1.60892">
        <ele>55</ele>
        <time>2022-11-11T14:55:42Z</time>
      </trkpt>
      <trkpt lat="47.17794" lon="-1.60902">
        <ele>54</ele>
        <time>2022-11-11T14:55:44Z</time>
      </trkpt>
      <trkpt lat="47.17782" lon="-1.6091">
        <ele>54</ele>
        <time>2022-11-11T14:55:46Z</time>
      </trkpt>
      <trkpt lat="47.1777" lon="-1.60919">
        <ele>53</ele>
        <time>2022-11-11T14:55:48Z</time>
      </trkpt>
      <trkpt lat="47.17759" lon="-1.60928">
        <ele>54</ele>
        <time>2022-11-11T14:55:50Z</time>
      </trkpt>
      <trkpt lat="47.17748" lon="-1.60937">
        <ele>53</ele>
        <time>2022-11-11T14:55:52Z</time>
      </trkpt>
      <trkpt lat="47.17736" lon="-1.60946">
        <ele>53</ele>
        <time>2022-11-11T14:55:54Z</time>
      </trkpt>
      <trkpt lat="47.17725" lon="-1.60955">
        <ele>53</ele>
        <time>2022-11-11T14:55:56Z</time>
      </trkpt>
      <trkpt lat="47.17713" lon="-1.60962">
        <ele>53</ele>
        <time>2022-11-11T14:55:58Z</time>
      </trkpt>
      <trkpt lat="47.17701" lon="-1.60968">
        <ele>53</ele>
        <time>2022-11-11T14:56:00Z</time>
      </trkpt>
      <trkpt lat="47.17689" lon="-1.60973">
        <ele>53</ele>
        <time>2022-11-11T14:56:02Z</time>
      </trkpt>
      <trkpt lat="47.17676" lon="-1.60971">
        <ele>52</ele>
        <time>2022-11-11T14:56:04Z</time>
      </trkpt>
      <trkpt lat="47.17661" lon="-1.60971">
        <ele>51</ele>
        <time>2022-11-11T14:56:06Z</time>
      </trkpt>
      <trkpt lat="47.17649" lon="-1.60979">
        <ele>51</ele>
        <time>2022-11-11T14:56:08Z</time>
      </trkpt>
      <trkpt lat="47.17637" lon="-1.60989">
        <ele>51</ele>
        <time>2022-11-11T14:56:10Z</time>
      </trkpt>
      <trkpt lat="47.17626" lon="-1.60999">
        <ele>52</ele>
        <time>2022-11-11T14:56:12Z</time>
      </trkpt>
      <trkpt lat="47.17614" lon="-1.61009">
        <ele>51</ele>
        <time>2022-11-11T14:56:14Z</time>
      </trkpt>
      <trkpt lat="47.17603" lon="-1.61018">
        <ele>51</ele>
        <time>2022-11-11T14:56:16Z</time>
      </trkpt>
      <trkpt lat="47.17593" lon="-1.61027">
        <ele>51</ele>
        <time>2022-11-11T14:56:18Z</time>
      </trkpt>
      <trkpt lat="47.17581" lon="-1.61037">
        <ele>52</ele>
        <time>2022-11-11T14:56:20Z</time>
      </trkpt>
      <trkpt lat="47.1757" lon="-1.61047">
        <ele>52</ele>
        <time>2022-11-11T14:56:22Z</time>
      </trkpt>
      <trkpt lat="47.1756" lon="-1.61056">
        <ele>52</ele>
        <time>2022-11-11T14:56:24Z</time>
      </trkpt>
      <trkpt lat="47.17549" lon="-1.61065">
        <ele>52</ele>
        <time>2022-11-11T14:56:26Z</time>
      </trkpt>
      <trkpt lat="47.17538" lon="-1.61075">
        <ele>52</ele>
        <time>2022-11-11T14:56:28Z</time>
      </trkpt>
      <trkpt lat="47.17527" lon="-1.61084">
        <ele>52</ele>
        <time>2022-11-11T14:56:30Z</time>
      </trkpt>
      <trkpt lat="47.17517" lon="-1.61094">
        <ele>52</ele>
        <time>2022-11-11T14:56:32Z</time>
      </trkpt>
      <trkpt lat="47.17506" lon="-1.61101">
        <ele>52</ele>
        <time>2022-11-11T14:56:34Z</time>
      </trkpt>
      <trkpt lat="47.17494" lon="-1.61104">
        <ele>52</ele>
        <time>2022-11-11T14:56:36Z</time>
      </trkpt>
      <trkpt lat="47.17482" lon="-1.61104">
        <ele>52</ele>
        <time>2022-11-11T14:56:38Z</time>
      </trkpt>
      <trkpt lat="47.17472" lon="-1.61099">
        <ele>52</ele>
        <time>2022-11-11T14:56:40Z</time>
      </trkpt>
      <trkpt lat="47.17462" lon="-1.61091">
        <ele>53</ele>
        <time>2022-11-11T14:56:42Z</time>
      </trkpt>
      <trkpt lat="47.17453" lon="-1.61082">
        <ele>53</ele>
        <time>2022-11-11T14:56:44Z</time>
      </trkpt>
      <trkpt lat="47.17447" lon="-1.61072">
        <ele>54</ele>
        <time>2022-11-11T14:56:46Z</time>
      </trkpt>
      <trkpt lat="47.17441" lon="-1.6106">
        <ele>54</ele>
        <time>2022-11-11T14:56:48Z</time>
      </trkpt>
      <trkpt lat="47.17436" lon="-1.61048">
        <ele>54</ele>
        <time>2022-11-11T14:56:50Z</time>
      </trkpt>
      <trkpt lat="47.17432" lon="-1.61032">
        <ele>55</ele>
        <time>2022-11-11T14:56:53Z</time>
      </trkpt>
      <trkpt lat="47.17428" lon="-1.6102">
        <ele>56</ele>
        <time>2022-11-11T14:56:56Z</time>
      </trkpt>
      <trkpt lat="47.1742" lon="-1.61029">
        <ele>56</ele>
        <time>2022-11-11T14:57:00Z</time>
      </trkpt>
      <trkpt lat="47.17425" lon="-1.61047">
        <ele>57</ele>
        <time>2022-11-11T14:57:03Z</time>
      </trkpt>
      <trkpt lat="47.17428" lon="-1.6106">
        <ele>57</ele>
        <time>2022-11-11T14:57:05Z</time>
      </trkpt>
      <trkpt lat="47.17433" lon="-1.61072">
        <ele>57</ele>
        <time>2022-11-11T14:57:07Z</time>
      </trkpt>
      <trkpt lat="47.17438" lon="-1.61084">
        <ele>57</ele>
        <time>2022-11-11T14:57:09Z</time>
      </trkpt>
      <trkpt lat="47.17443" lon="-1.61097">
        <ele>57</ele>
        <time>2022-11-11T14:57:11Z</time>
      </trkpt>
      <trkpt lat="47.17449" lon="-1.6111">
        <ele>57</ele>
        <time>2022-11-11T14:57:13Z</time>
      </trkpt>
      <trkpt lat="47.17454" lon="-1.61123">
        <ele>58</ele>
        <time>2022-11-11T14:57:15Z</time>
      </trkpt>
      <trkpt lat="47.17459" lon="-1.61135">
        <ele>59</ele>
        <time>2022-11-11T14:57:17Z</time>
      </trkpt>
      <trkpt lat="47.17464" lon="-1.61148">
        <ele>58</ele>
        <time>2022-11-11T14:57:19Z</time>
      </trkpt>
      <trkpt lat="47.17469" lon="-1.6116">
        <ele>59</ele>
        <time>2022-11-11T14:57:21Z</time>
      </trkpt>
      <trkpt lat="47.17474" lon="-1.61173">
        <ele>59</ele>
        <time>2022-11-11T14:57:23Z</time>
      </trkpt>
      <trkpt lat="47.1748" lon="-1.61186">
        <ele>58</ele>
        <time>2022-11-11T14:57:25Z</time>
      </trkpt>
      <trkpt lat="47.17485" lon="-1.61199">
        <ele>58</ele>
        <time>2022-11-11T14:57:27Z</time>
      </trkpt>
      <trkpt lat="47.1749" lon="-1.61211">
        <ele>58</ele>
        <time>2022-11-11T14:57:29Z</time>
      </trkpt>
      <trkpt lat="47.17495" lon="-1.61224">
        <ele>58</ele>
        <time>2022-11-11T14:57:31Z</time>
      </trkpt>
      <trkpt lat="47.17501" lon="-1.61236">
        <ele>58</ele>
        <time>2022-11-11T14:57:33Z</time>
      </trkpt>
      <trkpt lat="47.17507" lon="-1.61249">
        <ele>59</ele>
        <time>2022-11-11T14:57:35Z</time>
      </trkpt>
      <trkpt lat="47.17514" lon="-1.61261">
        <ele>59</ele>
        <time>2022-11-11T14:57:37Z</time>
      </trkpt>
      <trkpt lat="47.17521" lon="-1.61272">
        <ele>59</ele>
        <time>2022-11-11T14:57:39Z</time>
      </trkpt>
      <trkpt lat="47.17528" lon="-1.61281">
        <ele>58</ele>
        <time>2022-11-11T14:57:41Z</time>
      </trkpt>
      <trkpt lat="47.17537" lon="-1.61289">
        <ele>58</ele>
        <time>2022-11-11T14:57:43Z</time>
      </trkpt>
      <trkpt lat="47.17547" lon="-1.61295">
        <ele>59</ele>
        <time>2022-11-11T14:57:45Z</time>
      </trkpt>
      <trkpt lat="47.17557" lon="-1.61304">
        <ele>58</ele>
        <time>2022-11-11T14:57:47Z</time>
      </trkpt>
      <trkpt lat="47.17561" lon="-1.61322">
        <ele>58</ele>
        <time>2022-11-11T14:57:49Z</time>
      </trkpt>
      <trkpt lat="47.17558" lon="-1.61339">
        <ele>59</ele>
        <time>2022-11-11T14:57:51Z</time>
      </trkpt>
      <trkpt lat="47.17549" lon="-1.61352">
        <ele>59</ele>
        <time>2022-11-11T14:57:53Z</time>
      </trkpt>
      <trkpt lat="47.17538" lon="-1.61362">
        <ele>59</ele>
        <time>2022-11-11T14:57:55Z</time>
      </trkpt>
      <trkpt lat="47.17529" lon="-1.61375">
        <ele>59</ele>
        <time>2022-11-11T14:57:57Z</time>
      </trkpt>
      <trkpt lat="47.17525" lon="-1.61391">
        <ele>59</ele>
        <time>2022-11-11T14:57:59Z</time>
      </trkpt>
      <trkpt lat="47.1752" lon="-1.61406">
        <ele>59</ele>
        <time>2022-11-11T14:58:01Z</time>
      </trkpt>
      <trkpt lat="47.17517" lon="-1.6142">
        <ele>60</ele>
        <time>2022-11-11T14:58:03Z</time>
      </trkpt>
      <trkpt lat="47.17515" lon="-1.61435">
        <ele>61</ele>
        <time>2022-11-11T14:58:05Z</time>
      </trkpt>
      <trkpt lat="47.17511" lon="-1.61448">
        <ele>62</ele>
        <time>2022-11-11T14:58:07Z</time>
      </trkpt>
      <trkpt lat="47.17505" lon="-1.61459">
        <ele>62</ele>
        <time>2022-11-11T14:58:09Z</time>
      </trkpt>
      <trkpt lat="47.17495" lon="-1.61464">
        <ele>63</ele>
        <time>2022-11-11T14:58:11Z</time>
      </trkpt>
      <trkpt lat="47.17484" lon="-1.61469">
        <ele>63</ele>
        <time>2022-11-11T14:58:13Z</time>
      </trkpt>
      <trkpt lat="47.17473" lon="-1.61473">
        <ele>64</ele>
        <time>2022-11-11T14:58:15Z</time>
      </trkpt>
      <trkpt lat="47.17463" lon="-1.61478">
        <ele>64</ele>
        <time>2022-11-11T14:58:17Z</time>
      </trkpt>
      <trkpt lat="47.17452" lon="-1.61484">
        <ele>65</ele>
        <time>2022-11-11T14:58:19Z</time>
      </trkpt>
      <trkpt lat="47.17442" lon="-1.61489">
        <ele>66</ele>
        <time>2022-11-11T14:58:21Z</time>
      </trkpt>
      <trkpt lat="47.17432" lon="-1.61494">
        <ele>66</ele>
        <time>2022-11-11T14:58:23Z</time>
      </trkpt>
      <trkpt lat="47.17424" lon="-1.615">
        <ele>66</ele>
        <time>2022-11-11T14:58:25Z</time>
      </trkpt>
      <trkpt lat="47.17415" lon="-1.61506">
        <ele>66</ele>
        <time>2022-11-11T14:58:27Z</time>
      </trkpt>
      <trkpt lat="47.17406" lon="-1.61513">
        <ele>67</ele>
        <time>2022-11-11T14:58:29Z</time>
      </trkpt>
      <trkpt lat="47.17398" lon="-1.61519">
        <ele>67</ele>
        <time>2022-11-11T14:58:31Z</time>
      </trkpt>
      <trkpt lat="47.17389" lon="-1.61525">
        <ele>68</ele>
        <time>2022-11-11T14:58:33Z</time>
      </trkpt>
      <trkpt lat="47.17381" lon="-1.61532">
        <ele>68</ele>
        <time>2022-11-11T14:58:35Z</time>
      </trkpt>
      <trkpt lat="47.17373" lon="-1.6154">
        <ele>69</ele>
        <time>2022-11-11T14:58:37Z</time>
      </trkpt>
      <trkpt lat="47.17366" lon="-1.61549">
        <ele>70</ele>
        <time>2022-11-11T14:58:39Z</time>
      </trkpt>
      <trkpt lat="47.17358" lon="-1.61557">
        <ele>71</ele>
        <time>2022-11-11T14:58:41Z</time>
      </trkpt>
      <trkpt lat="47.1735" lon="-1.61565">
        <ele>71</ele>
        <time>2022-11-11T14:58:43Z</time>
      </trkpt>
      <trkpt lat="47.17343" lon="-1.61574">
        <ele>71</ele>
        <time>2022-11-11T14:58:45Z</time>
      </trkpt>
      <trkpt lat="47.17336" lon="-1.61583">
        <ele>71</ele>
        <time>2022-11-11T14:58:47Z</time>
      </trkpt>
      <trkpt lat="47.17329" lon="-1.61593">
        <ele>71</ele>
        <time>2022-11-11T14:58:49Z</time>
      </trkpt>
      <trkpt lat="47.17321" lon="-1.61603">
        <ele>70</ele>
        <time>2022-11-11T14:58:51Z</time>
      </trkpt>
      <trkpt lat="47.17313" lon="-1.61614">
        <ele>70</ele>
        <time>2022-11-11T14:58:53Z</time>
      </trkpt>
      <trkpt lat="47.17306" lon="-1.61625">
        <ele>70</ele>
        <time>2022-11-11T14:58:55Z</time>
      </trkpt>
      <trkpt lat="47.17298" lon="-1.61637">
        <ele>70</ele>
        <time>2022-11-11T14:58:57Z</time>
      </trkpt>
      <trkpt lat="47.17291" lon="-1.6165">
        <ele>70</ele>
        <time>2022-11-11T14:58:59Z</time>
      </trkpt>
      <trkpt lat="47.17283" lon="-1.61663">
        <ele>69</ele>
        <time>2022-11-11T14:59:01Z</time>
      </trkpt>
      <trkpt lat="47.17276" lon="-1.61677">
        <ele>70</ele>
        <time>2022-11-11T14:59:03Z</time>
      </trkpt>
      <trkpt lat="47.17269" lon="-1.61691">
        <ele>70</ele>
        <time>2022-11-11T14:59:05Z</time>
      </trkpt>
      <trkpt lat="47.17262" lon="-1.61706">
        <ele>70</ele>
        <time>2022-11-11T14:59:07Z</time>
      </trkpt>
      <trkpt lat="47.17255" lon="-1.6172">
        <ele>69</ele>
        <time>2022-11-11T14:59:09Z</time>
      </trkpt>
      <trkpt lat="47.17249" lon="-1.61734">
        <ele>69</ele>
        <time>2022-11-11T14:59:11Z</time>
      </trkpt>
      <trkpt lat="47.17245" lon="-1.6175">
        <ele>69</ele>
        <time>2022-11-11T14:59:13Z</time>
      </trkpt>
      <trkpt lat="47.17243" lon="-1.61766">
        <ele>68</ele>
        <time>2022-11-11T14:59:15Z</time>
      </trkpt>
      <trkpt lat="47.17236" lon="-1.6178">
        <ele>68</ele>
        <time>2022-11-11T14:59:17Z</time>
      </trkpt>
      <trkpt lat="47.17225" lon="-1.6179">
        <ele>68</ele>
        <time>2022-11-11T14:59:19Z</time>
      </trkpt>
      <trkpt lat="47.17215" lon="-1.61799">
        <ele>67</ele>
        <time>2022-11-11T14:59:21Z</time>
      </trkpt>
      <trkpt lat="47.17204" lon="-1.61807">
        <ele>67</ele>
        <time>2022-11-11T14:59:23Z</time>
      </trkpt>
      <trkpt lat="47.17194" lon="-1.61816">
        <ele>67</ele>
        <time>2022-11-11T14:59:25Z</time>
      </trkpt>
      <trkpt lat="47.17184" lon="-1.61825">
        <ele>67</ele>
        <time>2022-11-11T14:59:27Z</time>
      </trkpt>
      <trkpt lat="47.17174" lon="-1.61834">
        <ele>67</ele>
        <time>2022-11-11T14:59:29Z</time>
      </trkpt>
      <trkpt lat="47.17164" lon="-1.61844">
        <ele>67</ele>
        <time>2022-11-11T14:59:31Z</time>
      </trkpt>
      <trkpt lat="47.17154" lon="-1.61853">
        <ele>68</ele>
        <time>2022-11-11T14:59:33Z</time>
      </trkpt>
      <trkpt lat="47.17145" lon="-1.61862">
        <ele>68</ele>
        <time>2022-11-11T14:59:35Z</time>
      </trkpt>
      <trkpt lat="47.17135" lon="-1.61872">
        <ele>68</ele>
        <time>2022-11-11T14:59:37Z</time>
      </trkpt>
      <trkpt lat="47.17125" lon="-1.61881">
        <ele>68</ele>
        <time>2022-11-11T14:59:39Z</time>
      </trkpt>
      <trkpt lat="47.17115" lon="-1.61891">
        <ele>68</ele>
        <time>2022-11-11T14:59:41Z</time>
      </trkpt>
      <trkpt lat="47.17105" lon="-1.61901">
        <ele>68</ele>
        <time>2022-11-11T14:59:43Z</time>
      </trkpt>
      <trkpt lat="47.17095" lon="-1.61911">
        <ele>67</ele>
        <time>2022-11-11T14:59:45Z</time>
      </trkpt>
      <trkpt lat="47.17085" lon="-1.61921">
        <ele>67</ele>
        <time>2022-11-11T14:59:47Z</time>
      </trkpt>
      <trkpt lat="47.17076" lon="-1.6193">
        <ele>68</ele>
        <time>2022-11-11T14:59:49Z</time>
      </trkpt>
      <trkpt lat="47.17068" lon="-1.6194">
        <ele>68</ele>
        <time>2022-11-11T14:59:51Z</time>
      </trkpt>
      <trkpt lat="47.17058" lon="-1.6195">
        <ele>68</ele>
        <time>2022-11-11T14:59:53Z</time>
      </trkpt>
      <trkpt lat="47.17049" lon="-1.61962">
        <ele>68</ele>
        <time>2022-11-11T14:59:55Z</time>
      </trkpt>
      <trkpt lat="47.17041" lon="-1.61975">
        <ele>68</ele>
        <time>2022-11-11T14:59:57Z</time>
      </trkpt>
      <trkpt lat="47.17032" lon="-1.61988">
        <ele>68</ele>
        <time>2022-11-11T14:59:59Z</time>
      </trkpt>
      <trkpt lat="47.17023" lon="-1.62">
        <ele>68</ele>
        <time>2022-11-11T15:00:01Z</time>
      </trkpt>
      <trkpt lat="47.17014" lon="-1.62013">
        <ele>68</ele>
        <time>2022-11-11T15:00:03Z</time>
      </trkpt>
      <trkpt lat="47.17006" lon="-1.62026">
        <ele>68</ele>
        <time>2022-11-11T15:00:05Z</time>
      </trkpt>
      <trkpt lat="47.16998" lon="-1.6204">
        <ele>68</ele>
        <time>2022-11-11T15:00:07Z</time>
      </trkpt>
      <trkpt lat="47.1699" lon="-1.62054">
        <ele>68</ele>
        <time>2022-11-11T15:00:09Z</time>
      </trkpt>
      <trkpt lat="47.16982" lon="-1.62069">
        <ele>68</ele>
        <time>2022-11-11T15:00:11Z</time>
      </trkpt>
      <trkpt lat="47.16974" lon="-1.62082">
        <ele>68</ele>
        <time>2022-11-11T15:00:13Z</time>
      </trkpt>
      <trkpt lat="47.16966" lon="-1.62097">
        <ele>68</ele>
        <time>2022-11-11T15:00:15Z</time>
      </trkpt>
      <trkpt lat="47.16958" lon="-1.62112">
        <ele>68</ele>
        <time>2022-11-11T15:00:17Z</time>
      </trkpt>
      <trkpt lat="47.1695" lon="-1.62126">
        <ele>68</ele>
        <time>2022-11-11T15:00:19Z</time>
      </trkpt>
      <trkpt lat="47.16942" lon="-1.62142">
        <ele>68</ele>
        <time>2022-11-11T15:00:21Z</time>
      </trkpt>
      <trkpt lat="47.16935" lon="-1.62158">
        <ele>68</ele>
        <time>2022-11-11T15:00:23Z</time>
      </trkpt>
      <trkpt lat="47.16928" lon="-1.62174">
        <ele>68</ele>
        <time>2022-11-11T15:00:25Z</time>
      </trkpt>
      <trkpt lat="47.1692" lon="-1.62189">
        <ele>68</ele>
        <time>2022-11-11T15:00:27Z</time>
      </trkpt>
      <trkpt lat="47.16912" lon="-1.62203">
        <ele>69</ele>
        <time>2022-11-11T15:00:29Z</time>
      </trkpt>
      <trkpt lat="47.16902" lon="-1.62217">
        <ele>69</ele>
        <time>2022-11-11T15:00:31Z</time>
      </trkpt>
      <trkpt lat="47.16892" lon="-1.6223">
        <ele>69</ele>
        <time>2022-11-11T15:00:33Z</time>
      </trkpt>
      <trkpt lat="47.16881" lon="-1.62242">
        <ele>70</ele>
        <time>2022-11-11T15:00:35Z</time>
      </trkpt>
      <trkpt lat="47.16871" lon="-1.62255">
        <ele>70</ele>
        <time>2022-11-11T15:00:37Z</time>
      </trkpt>
      <trkpt lat="47.1686" lon="-1.62268">
        <ele>70</ele>
        <time>2022-11-11T15:00:39Z</time>
      </trkpt>
      <trkpt lat="47.1685" lon="-1.62281">
        <ele>70</ele>
        <time>2022-11-11T15:00:41Z</time>
      </trkpt>
      <trkpt lat="47.1684" lon="-1.62293">
        <ele>69</ele>
        <time>2022-11-11T15:00:43Z</time>
      </trkpt>
      <trkpt lat="47.1683" lon="-1.62305">
        <ele>69</ele>
        <time>2022-11-11T15:00:45Z</time>
      </trkpt>
      <trkpt lat="47.16818" lon="-1.62315">
        <ele>69</ele>
        <time>2022-11-11T15:00:47Z</time>
      </trkpt>
      <trkpt lat="47.16807" lon="-1.62323">
        <ele>70</ele>
        <time>2022-11-11T15:00:49Z</time>
      </trkpt>
      <trkpt lat="47.16795" lon="-1.6233">
        <ele>69</ele>
        <time>2022-11-11T15:00:51Z</time>
      </trkpt>
      <trkpt lat="47.16782" lon="-1.62337">
        <ele>68</ele>
        <time>2022-11-11T15:00:53Z</time>
      </trkpt>
      <trkpt lat="47.1677" lon="-1.62343">
        <ele>68</ele>
        <time>2022-11-11T15:00:55Z</time>
      </trkpt>
      <trkpt lat="47.16758" lon="-1.62351">
        <ele>67</ele>
        <time>2022-11-11T15:00:57Z</time>
      </trkpt>
      <trkpt lat="47.16747" lon="-1.62361">
        <ele>67</ele>
        <time>2022-11-11T15:00:59Z</time>
      </trkpt>
      <trkpt lat="47.16737" lon="-1.62375">
        <ele>67</ele>
        <time>2022-11-11T15:01:01Z</time>
      </trkpt>
      <trkpt lat="47.16731" lon="-1.62393">
        <ele>67</ele>
        <time>2022-11-11T15:01:03Z</time>
      </trkpt>
      <trkpt lat="47.16727" lon="-1.62411">
        <ele>67</ele>
        <time>2022-11-11T15:01:05Z</time>
      </trkpt>
      <trkpt lat="47.16726" lon="-1.62429">
        <ele>67</ele>
        <time>2022-11-11T15:01:07Z</time>
      </trkpt>
      <trkpt lat="47.16722" lon="-1.62445">
        <ele>67</ele>
        <time>2022-11-11T15:01:09Z</time>
      </trkpt>
      <trkpt lat="47.16717" lon="-1.62461">
        <ele>67</ele>
        <time>2022-11-11T15:01:11Z</time>
      </trkpt>
      <trkpt lat="47.16713" lon="-1.62479">
        <ele>67</ele>
        <time>2022-11-11T15:01:13Z</time>
      </trkpt>
      <trkpt lat="47.16715" lon="-1.62494">
        <ele>66</ele>
        <time>2022-11-11T15:01:15Z</time>
      </trkpt>
      <trkpt lat="47.16727" lon="-1.62498">
        <ele>66</ele>
        <time>2022-11-11T15:01:17Z</time>
      </trkpt>
      <trkpt lat="47.1674" lon="-1.62502">
        <ele>66</ele>
        <time>2022-11-11T15:01:19Z</time>
      </trkpt>
      <trkpt lat="47.16752" lon="-1.62508">
        <ele>67</ele>
        <time>2022-11-11T15:01:21Z</time>
      </trkpt>
      <trkpt lat="47.16764" lon="-1.62515">
        <ele>67</ele>
        <time>2022-11-11T15:01:23Z</time>
      </trkpt>
      <trkpt lat="47.16776" lon="-1.62522">
        <ele>67</ele>
        <time>2022-11-11T15:01:25Z</time>
      </trkpt>
      <trkpt lat="47.16787" lon="-1.6253">
        <ele>67</ele>
        <time>2022-11-11T15:01:27Z</time>
      </trkpt>
      <trkpt lat="47.16797" lon="-1.62536">
        <ele>68</ele>
        <time>2022-11-11T15:01:29Z</time>
      </trkpt>
      <trkpt lat="47.16808" lon="-1.62544">
        <ele>67</ele>
        <time>2022-11-11T15:01:31Z</time>
      </trkpt>
      <trkpt lat="47.16817" lon="-1.62553">
        <ele>67</ele>
        <time>2022-11-11T15:01:33Z</time>
      </trkpt>
      <trkpt lat="47.16826" lon="-1.62562">
        <ele>68</ele>
        <time>2022-11-11T15:01:35Z</time>
      </trkpt>
      <trkpt lat="47.16833" lon="-1.62574">
        <ele>68</ele>
        <time>2022-11-11T15:01:37Z</time>
      </trkpt>
      <trkpt lat="47.1683" lon="-1.62589">
        <ele>68</ele>
        <time>2022-11-11T15:01:39Z</time>
      </trkpt>
      <trkpt lat="47.16822" lon="-1.62598">
        <ele>68</ele>
        <time>2022-11-11T15:01:41Z</time>
      </trkpt>
      <trkpt lat="47.16816" lon="-1.62605">
        <ele>69</ele>
        <time>2022-11-11T15:03:42Z</time>
      </trkpt>
      <trkpt lat="47.16816" lon="-1.62605">
        <ele>69</ele>
        <time>2022-11-11T15:05:43Z</time>
      </trkpt>
      <trkpt lat="47.16816" lon="-1.62605">
        <ele>69</ele>
        <time>2022-11-11T15:07:44Z</time>
      </trkpt>
      <trkpt lat="47.1681" lon="-1.6262">
        <ele>72</ele>
        <time>2022-11-11T15:09:25Z</time>
      </trkpt>
      <trkpt lat="47.16801" lon="-1.62635">
        <ele>70</ele>
        <time>2022-11-11T15:09:28Z</time>
      </trkpt>
      <trkpt lat="47.16792" lon="-1.62647">
        <ele>68</ele>
        <time>2022-11-11T15:09:31Z</time>
      </trkpt>
      <trkpt lat="47.16786" lon="-1.62657">
        <ele>68</ele>
        <time>2022-11-11T15:09:34Z</time>
      </trkpt>
      <trkpt lat="47.16776" lon="-1.62654">
        <ele>68</ele>
        <time>2022-11-11T15:09:39Z</time>
      </trkpt>
    </trkseg>
  </trk>
</gpx>